<?xml version='1.0' encoding='UTF-8'?><gpx version="1.1" creator="JPX - https://github.com/jenetics/jpx" xmlns="http://www.topografix.com/GPX/1/1"><trk><trkseg><trkpt lat="35.68176165352677" lon="-5.7154837624099875"><ele>72.0</ele><time>2026-04-22T08:28:35.814Z</time></trkpt><trkpt lat="35.68186889509987" lon="-5.715670748962383"><ele>72.0</ele><time>2026-04-22T08:28:36.814Z</time></trkpt><trkpt lat="35.68197387993201" lon="-5.7158334777513184"><ele>72.0</ele><time>2026-04-22T08:28:37.814Z</time></trkpt><trkpt lat="35.6820879215337" lon="-5.716006856037482"><ele>71.0</ele><time>2026-04-22T08:28:38.814Z</time></trkpt><trkpt lat="35.68222796337298" lon="-5.7162144153089285"><ele>70.0</ele><time>2026-04-22T08:28:40Z</time></trkpt><trkpt lat="35.682354909823616" lon="-5.716395164235757"><ele>69.0</ele><time>2026-04-22T08:28:41Z</time></trkpt><trkpt lat="35.682483939735036" lon="-5.716594472217854"><ele>69.0</ele><time>2026-04-22T08:28:42Z</time></trkpt><trkpt lat="35.68261810338073" lon="-5.7167930011601555"><ele>69.0</ele><time>2026-04-22T08:28:43Z</time></trkpt><trkpt lat="35.68274676309155" lon="-5.716996888211845"><ele>69.0</ele><time>2026-04-22T08:28:44Z</time></trkpt><trkpt lat="35.68289003484415" lon="-5.717202562942049"><ele>68.5</ele><time>2026-04-22T08:28:45Z</time></trkpt><trkpt lat="35.68303886521968" lon="-5.717423237909723"><ele>68.0</ele><time>2026-04-22T08:28:46Z</time></trkpt><trkpt lat="35.68319063294092" lon="-5.71763990353547"><ele>67.66666666666667</ele><time>2026-04-22T08:28:47Z</time></trkpt><trkpt lat="35.683333935337586" lon="-5.717840897861547"><ele>67.33333333333333</ele><time>2026-04-22T08:28:48Z</time></trkpt><trkpt lat="35.68347316287228" lon="-5.718040624111551"><ele>67.0</ele><time>2026-04-22T08:28:49Z</time></trkpt><trkpt lat="35.68361138597287" lon="-5.7182436891256145"><ele>66.0</ele><time>2026-04-22T08:28:50Z</time></trkpt><trkpt lat="35.68375117452454" lon="-5.7184484901962565"><ele>65.0</ele><time>2026-04-22T08:28:51Z</time></trkpt><trkpt lat="35.68389518197568" lon="-5.718658483609174"><ele>64.0</ele><time>2026-04-22T08:28:52Z</time></trkpt><trkpt lat="35.68403529442956" lon="-5.718878029950568"><ele>64.0</ele><time>2026-04-22T08:28:53Z</time></trkpt><trkpt lat="35.68418030924641" lon="-5.71909387674848"><ele>64.0</ele><time>2026-04-22T08:28:54Z</time></trkpt><trkpt lat="35.68432765813755" lon="-5.719321044144155"><ele>66.5</ele><time>2026-04-22T08:28:55Z</time></trkpt><trkpt lat="35.684489427787526" lon="-5.719556948467856"><ele>69.0</ele><time>2026-04-22T08:28:56Z</time></trkpt><trkpt lat="35.684654751394206" lon="-5.719799473172688"><ele>69.0</ele><time>2026-04-22T08:28:57Z</time></trkpt><trkpt lat="35.68482464378147" lon="-5.720045791595988"><ele>69.0</ele><time>2026-04-22T08:28:58Z</time></trkpt><trkpt lat="35.68499808818852" lon="-5.720292514879552"><ele>69.5</ele><time>2026-04-22T08:28:59Z</time></trkpt><trkpt lat="35.68516983507097" lon="-5.7205424324320955"><ele>70.0</ele><time>2026-04-22T08:29:00Z</time></trkpt><trkpt lat="35.68533427224316" lon="-5.720787729873797"><ele>73.0</ele><time>2026-04-22T08:29:01Z</time></trkpt><trkpt lat="35.68549751857242" lon="-5.721038325165225"><ele>76.0</ele><time>2026-04-22T08:29:02Z</time></trkpt><trkpt lat="35.685661476674184" lon="-5.721278312409323"><ele>76.0</ele><time>2026-04-22T08:29:03Z</time></trkpt><trkpt lat="35.685832370540766" lon="-5.7215207730736815"><ele>76.0</ele><time>2026-04-22T08:29:04Z</time></trkpt><trkpt lat="35.68600600724738" lon="-5.7217628332195645"><ele>77.5</ele><time>2026-04-22T08:29:05Z</time></trkpt><trkpt lat="35.6861878358041" lon="-5.721997028550541"><ele>79.0</ele><time>2026-04-22T08:29:06Z</time></trkpt><trkpt lat="35.68637603068038" lon="-5.722220481453603"><ele>79.0</ele><time>2026-04-22T08:29:07Z</time></trkpt><trkpt lat="35.686573318984045" lon="-5.722423049872645"><ele>79.0</ele><time>2026-04-22T08:29:08Z</time></trkpt><trkpt lat="35.68677252218579" lon="-5.722608740844689"><ele>79.0</ele><time>2026-04-22T08:29:09Z</time></trkpt><trkpt lat="35.68697569945173" lon="-5.722778394459674"><ele>79.0</ele><time>2026-04-22T08:29:10Z</time></trkpt><trkpt lat="35.68718400167751" lon="-5.72292366296976"><ele>79.0</ele><time>2026-04-22T08:29:11Z</time></trkpt><trkpt lat="35.6873999710344" lon="-5.723047371499492"><ele>79.0</ele><time>2026-04-22T08:29:12Z</time></trkpt><trkpt lat="35.68762105141876" lon="-5.723161224837603"><ele>80.5</ele><time>2026-04-22T08:29:13Z</time></trkpt><trkpt lat="35.68784957828207" lon="-5.723269683269841"><ele>82.0</ele><time>2026-04-22T08:29:14Z</time></trkpt><trkpt lat="35.688081090134276" lon="-5.723373646406786"><ele>82.0</ele><time>2026-04-22T08:29:15Z</time></trkpt><trkpt lat="35.6883115052575" lon="-5.723480260852065"><ele>82.0</ele><time>2026-04-22T08:29:16Z</time></trkpt><trkpt lat="35.6885348300079" lon="-5.723585820781733"><ele>82.0</ele><time>2026-04-22T08:29:17Z</time></trkpt><trkpt lat="35.68875175707493" lon="-5.72368762014005"><ele>82.0</ele><time>2026-04-22T08:29:18Z</time></trkpt><trkpt lat="35.68896253755823" lon="-5.723785580868232"><ele>82.0</ele><time>2026-04-22T08:29:19Z</time></trkpt><trkpt lat="35.689166470341235" lon="-5.723881074449653"><ele>82.0</ele><time>2026-04-22T08:29:20Z</time></trkpt><trkpt lat="35.68936541638137" lon="-5.723975406739124"><ele>82.0</ele><time>2026-04-22T08:29:21Z</time></trkpt><trkpt lat="35.68956314764417" lon="-5.724069022473801"><ele>83.66666666666666</ele><time>2026-04-22T08:29:22Z</time></trkpt><trkpt lat="35.68975740730713" lon="-5.724161332664355"><ele>85.33333333333333</ele><time>2026-04-22T08:29:23Z</time></trkpt><trkpt lat="35.689949788689916" lon="-5.724251970726894"><ele>87.0</ele><time>2026-04-22T08:29:24Z</time></trkpt><trkpt lat="35.69013852954497" lon="-5.7243419580860335"><ele>87.66666666666667</ele><time>2026-04-22T08:29:25Z</time></trkpt><trkpt lat="35.690330873889486" lon="-5.724433629299088"><ele>88.33333333333334</ele><time>2026-04-22T08:29:26Z</time></trkpt><trkpt lat="35.69052093395956" lon="-5.724517979678757"><ele>89.0</ele><time>2026-04-22T08:29:27Z</time></trkpt><trkpt lat="35.690712758990735" lon="-5.7245992658983775"><ele>89.0</ele><time>2026-04-22T08:29:28Z</time></trkpt><trkpt lat="35.69090301678227" lon="-5.724682436320231"><ele>89.0</ele><time>2026-04-22T08:29:29Z</time></trkpt><trkpt lat="35.691094849243285" lon="-5.7247682348977875"><ele>89.0</ele><time>2026-04-22T08:29:30Z</time></trkpt><trkpt lat="35.69128419849186" lon="-5.724859818989515"><ele>90.0</ele><time>2026-04-22T08:29:31Z</time></trkpt><trkpt lat="35.69147626432362" lon="-5.724956348141354"><ele>91.0</ele><time>2026-04-22T08:29:32Z</time></trkpt><trkpt lat="35.691662932772104" lon="-5.7250560618110145"><ele>92.0</ele><time>2026-04-22T08:29:33Z</time></trkpt><trkpt lat="35.69184561715443" lon="-5.725150233811433"><ele>93.0</ele><time>2026-04-22T08:29:34Z</time></trkpt><trkpt lat="35.692019526261" lon="-5.725235784727437"><ele>94.0</ele><time>2026-04-22T08:29:35Z</time></trkpt><trkpt lat="35.692188777724965" lon="-5.725317971244434"><ele>95.0</ele><time>2026-04-22T08:29:36Z</time></trkpt><trkpt lat="35.69235645464226" lon="-5.725401929359256"><ele>95.0</ele><time>2026-04-22T08:29:37Z</time></trkpt><trkpt lat="35.69252339604143" lon="-5.7254924045627344"><ele>95.0</ele><time>2026-04-22T08:29:38Z</time></trkpt><trkpt lat="35.69268735649209" lon="-5.7255842693367835"><ele>95.0</ele><time>2026-04-22T08:29:39Z</time></trkpt><trkpt lat="35.69284661767815" lon="-5.725670258166973"><ele>96.66666666666667</ele><time>2026-04-22T08:29:40Z</time></trkpt><trkpt lat="35.69300356659639" lon="-5.725754517732875"><ele>98.33333333333334</ele><time>2026-04-22T08:29:41Z</time></trkpt><trkpt lat="35.69316301154702" lon="-5.7258378015132605"><ele>100.0</ele><time>2026-04-22T08:29:42Z</time></trkpt><trkpt lat="35.69332193743893" lon="-5.7259265533712735"><ele>100.0</ele><time>2026-04-22T08:29:43Z</time></trkpt><trkpt lat="35.693485814216416" lon="-5.726020585238157"><ele>100.0</ele><time>2026-04-22T08:29:44Z</time></trkpt><trkpt lat="35.693650970285894" lon="-5.726114027651621"><ele>100.0</ele><time>2026-04-22T08:29:45Z</time></trkpt><trkpt lat="35.693821405598406" lon="-5.726204187291338"><ele>100.66666666666667</ele><time>2026-04-22T08:29:46Z</time></trkpt><trkpt lat="35.69399580116809" lon="-5.726295659210168"><ele>101.33333333333334</ele><time>2026-04-22T08:29:47Z</time></trkpt><trkpt lat="35.69417714721238" lon="-5.726389628446101"><ele>102.0</ele><time>2026-04-22T08:29:48Z</time></trkpt><trkpt lat="35.6943618211519" lon="-5.726486470906055"><ele>102.33333333333334</ele><time>2026-04-22T08:29:49Z</time></trkpt><trkpt lat="35.69455222165559" lon="-5.7265850139786565"><ele>102.66666666666667</ele><time>2026-04-22T08:29:50Z</time></trkpt><trkpt lat="35.69474584373751" lon="-5.726689784785877"><ele>103.0</ele><time>2026-04-22T08:29:51Z</time></trkpt><trkpt lat="35.694943015331944" lon="-5.7267993982172065"><ele>103.0</ele><time>2026-04-22T08:29:52Z</time></trkpt><trkpt lat="35.695144722816146" lon="-5.726910933471084"><ele>103.0</ele><time>2026-04-22T08:29:53Z</time></trkpt><trkpt lat="35.69535184750123" lon="-5.727020617802857"><ele>103.0</ele><time>2026-04-22T08:29:54Z</time></trkpt><trkpt lat="35.69555354826529" lon="-5.727128612113439"><ele>101.66666666666667</ele><time>2026-04-22T08:29:55Z</time></trkpt><trkpt lat="35.69574901327523" lon="-5.727235918140732"><ele>100.33333333333334</ele><time>2026-04-22T08:29:56Z</time></trkpt><trkpt lat="35.69593508608758" lon="-5.72734138235324"><ele>99.0</ele><time>2026-04-22T08:29:57Z</time></trkpt><trkpt lat="35.696111709412435" lon="-5.72744135600117"><ele>98.33333333333334</ele><time>2026-04-22T08:29:58Z</time></trkpt><trkpt lat="35.69628952061628" lon="-5.727537725321973"><ele>97.66666666666667</ele><time>2026-04-22T08:29:59Z</time></trkpt><trkpt lat="35.69646929767558" lon="-5.727633651436938"><ele>97.0</ele><time>2026-04-22T08:30:00Z</time></trkpt><trkpt lat="35.696653073976414" lon="-5.727736512059377"><ele>97.0</ele><time>2026-04-22T08:30:01Z</time></trkpt><trkpt lat="35.69684134882701" lon="-5.727839989351008"><ele>97.0</ele><time>2026-04-22T08:30:02Z</time></trkpt><trkpt lat="35.69703138939545" lon="-5.727945633920092"><ele>97.0</ele><time>2026-04-22T08:30:03Z</time></trkpt><trkpt lat="35.69722595261624" lon="-5.728048538403054"><ele>95.66666666666667</ele><time>2026-04-22T08:30:04Z</time></trkpt><trkpt lat="35.69742048673325" lon="-5.728146815314119"><ele>94.33333333333334</ele><time>2026-04-22T08:30:05Z</time></trkpt><trkpt lat="35.69761485556811" lon="-5.728238335063286"><ele>93.0</ele><time>2026-04-22T08:30:06Z</time></trkpt><trkpt lat="35.69781136572178" lon="-5.728319656579626"><ele>91.33333333333333</ele><time>2026-04-22T08:30:07Z</time></trkpt><trkpt lat="35.698012777462054" lon="-5.728397226108013"><ele>89.66666666666666</ele><time>2026-04-22T08:30:08Z</time></trkpt><trkpt lat="35.69821967791807" lon="-5.728470824185389"><ele>88.0</ele><time>2026-04-22T08:30:09Z</time></trkpt><trkpt lat="35.69842760782481" lon="-5.728541949118793"><ele>87.66666666666666</ele><time>2026-04-22T08:30:10Z</time></trkpt><trkpt lat="35.69863472583688" lon="-5.728614302446281"><ele>87.33333333333333</ele><time>2026-04-22T08:30:11Z</time></trkpt><trkpt lat="35.698838352902385" lon="-5.728690547291403"><ele>87.0</ele><time>2026-04-22T08:30:12Z</time></trkpt><trkpt lat="35.699038050854554" lon="-5.728763465076374"><ele>87.0</ele><time>2026-04-22T08:30:13Z</time></trkpt><trkpt lat="35.69923638292417" lon="-5.728835800310458"><ele>87.0</ele><time>2026-04-22T08:30:14Z</time></trkpt><trkpt lat="35.69943280202724" lon="-5.728902918123957"><ele>87.0</ele><time>2026-04-22T08:30:15Z</time></trkpt><trkpt lat="35.699627538711134" lon="-5.72897084469419"><ele>86.33333333333333</ele><time>2026-04-22T08:30:16Z</time></trkpt><trkpt lat="35.699824895922525" lon="-5.729041149001459"><ele>85.66666666666666</ele><time>2026-04-22T08:30:17Z</time></trkpt><trkpt lat="35.70002296219369" lon="-5.729112655181699"><ele>85.0</ele><time>2026-04-22T08:30:18Z</time></trkpt><trkpt lat="35.700223603372564" lon="-5.729181637158632"><ele>84.33333333333333</ele><time>2026-04-22T08:30:19Z</time></trkpt><trkpt lat="35.70042375705251" lon="-5.729252465414528"><ele>83.66666666666667</ele><time>2026-04-22T08:30:20Z</time></trkpt><trkpt lat="35.700621473979574" lon="-5.729324285033164"><ele>83.0</ele><time>2026-04-22T08:30:21Z</time></trkpt><trkpt lat="35.70081783884996" lon="-5.729395028372277"><ele>83.0</ele><time>2026-04-22T08:30:22Z</time></trkpt><trkpt lat="35.70101270215466" lon="-5.72946219998028"><ele>83.0</ele><time>2026-04-22T08:30:23Z</time></trkpt><trkpt lat="35.701210152560726" lon="-5.729531640771558"><ele>83.0</ele><time>2026-04-22T08:30:24Z</time></trkpt><trkpt lat="35.70140625154956" lon="-5.729602690283963"><ele>83.0</ele><time>2026-04-22T08:30:25Z</time></trkpt><trkpt lat="35.70160130218864" lon="-5.729672940862604"><ele>83.0</ele><time>2026-04-22T08:30:26Z</time></trkpt><trkpt lat="35.70179846271702" lon="-5.729744125183019"><ele>83.0</ele><time>2026-04-22T08:30:27Z</time></trkpt><trkpt lat="35.70199651351967" lon="-5.729821058342835"><ele>82.66666666666667</ele><time>2026-04-22T08:30:28Z</time></trkpt><trkpt lat="35.702201858588296" lon="-5.729901465823583"><ele>82.33333333333333</ele><time>2026-04-22T08:30:29Z</time></trkpt><trkpt lat="35.7024125968578" lon="-5.729986340549754"><ele>82.0</ele><time>2026-04-22T08:30:30Z</time></trkpt><trkpt lat="35.702628084709986" lon="-5.730070868787982"><ele>82.5</ele><time>2026-04-22T08:30:31Z</time></trkpt><trkpt lat="35.70284817584686" lon="-5.7301559121371675"><ele>83.0</ele><time>2026-04-22T08:30:32Z</time></trkpt><trkpt lat="35.70306929463572" lon="-5.73025110320642"><ele>79.5</ele><time>2026-04-22T08:30:33Z</time></trkpt><trkpt lat="35.703290628010066" lon="-5.7303538365118625"><ele>76.0</ele><time>2026-04-22T08:30:34Z</time></trkpt><trkpt lat="35.70351121225897" lon="-5.730474901143718"><ele>76.5</ele><time>2026-04-22T08:30:35Z</time></trkpt><trkpt lat="35.7037246431842" lon="-5.730615958680509"><ele>77.0</ele><time>2026-04-22T08:30:36Z</time></trkpt><trkpt lat="35.70392914802678" lon="-5.730773422854673"><ele>77.0</ele><time>2026-04-22T08:30:37Z</time></trkpt><trkpt lat="35.70412612530022" lon="-5.730945203824716"><ele>77.0</ele><time>2026-04-22T08:30:38Z</time></trkpt><trkpt lat="35.70430899293694" lon="-5.731124909620416"><ele>74.33333333333334</ele><time>2026-04-22T08:30:39Z</time></trkpt><trkpt lat="35.70447208974222" lon="-5.731297045222233"><ele>71.66666666666667</ele><time>2026-04-22T08:30:40Z</time></trkpt><trkpt lat="35.70463137337392" lon="-5.731469111215941"><ele>69.0</ele><time>2026-04-22T08:30:41Z</time></trkpt><trkpt lat="35.70479160576084" lon="-5.731642712626342"><ele>69.0</ele><time>2026-04-22T08:30:42Z</time></trkpt><trkpt lat="35.70495350447191" lon="-5.731815579797133"><ele>69.0</ele><time>2026-04-22T08:30:43Z</time></trkpt><trkpt lat="35.70511306359312" lon="-5.731981318046902"><ele>69.0</ele><time>2026-04-22T08:30:44Z</time></trkpt><trkpt lat="35.705267690826595" lon="-5.73213936756638"><ele>69.33333333333333</ele><time>2026-04-22T08:30:45Z</time></trkpt><trkpt lat="35.70541756139798" lon="-5.7322982846306285"><ele>69.66666666666666</ele><time>2026-04-22T08:30:46Z</time></trkpt><trkpt lat="35.7055681129448" lon="-5.732454302714253"><ele>70.0</ele><time>2026-04-22T08:30:47Z</time></trkpt><trkpt lat="35.705724151557376" lon="-5.732602543155696"><ele>71.33333333333333</ele><time>2026-04-22T08:30:48Z</time></trkpt><trkpt lat="35.70589492354407" lon="-5.732732880629039"><ele>72.66666666666667</ele><time>2026-04-22T08:30:49Z</time></trkpt><trkpt lat="35.70607613032955" lon="-5.7328476467839495"><ele>74.0</ele><time>2026-04-22T08:30:50Z</time></trkpt><trkpt lat="35.706271107127996" lon="-5.732934813180145"><ele>74.33333333333334</ele><time>2026-04-22T08:30:51Z</time></trkpt><trkpt lat="35.70647913752271" lon="-5.732996313573778"><ele>74.66666666666667</ele><time>2026-04-22T08:30:52Z</time></trkpt><trkpt lat="35.706688313866344" lon="-5.733050472924356"><ele>75.0</ele><time>2026-04-22T08:30:53Z</time></trkpt><trkpt lat="35.706904751957836" lon="-5.733090231689939"><ele>75.33333333333333</ele><time>2026-04-22T08:30:54Z</time></trkpt><trkpt lat="35.707124460672084" lon="-5.7331081794418175"><ele>75.66666666666666</ele><time>2026-04-22T08:30:55Z</time></trkpt><trkpt lat="35.707349210182564" lon="-5.733119083772916"><ele>76.0</ele><time>2026-04-22T08:30:56Z</time></trkpt><trkpt lat="35.70757973379042" lon="-5.733130119487233"><ele>77.0</ele><time>2026-04-22T08:30:57Z</time></trkpt><trkpt lat="35.7078123674486" lon="-5.733142589135051"><ele>78.0</ele><time>2026-04-22T08:30:58Z</time></trkpt><trkpt lat="35.708052034692386" lon="-5.733152009554218"><ele>78.0</ele><time>2026-04-22T08:30:59Z</time></trkpt><trkpt lat="35.7082955275025" lon="-5.733161151933891"><ele>78.0</ele><time>2026-04-22T08:31:00Z</time></trkpt><trkpt lat="35.70854411876719" lon="-5.733167901585632"><ele>73.5</ele><time>2026-04-22T08:31:01Z</time></trkpt><trkpt lat="35.7087984526938" lon="-5.733178815658235"><ele>69.0</ele><time>2026-04-22T08:31:02Z</time></trkpt><trkpt lat="35.70905338340817" lon="-5.733187625221321"><ele>69.0</ele><time>2026-04-22T08:31:03Z</time></trkpt><trkpt lat="35.70930695326648" lon="-5.733198836473576"><ele>69.0</ele><time>2026-04-22T08:31:04Z</time></trkpt><trkpt lat="35.70955802907138" lon="-5.733212629813347"><ele>67.5</ele><time>2026-04-22T08:31:05Z</time></trkpt><trkpt lat="35.709807627900254" lon="-5.733227100678829"><ele>66.0</ele><time>2026-04-22T08:31:06Z</time></trkpt><trkpt lat="35.710055483145595" lon="-5.733244918664036"><ele>63.0</ele><time>2026-04-22T08:31:07Z</time></trkpt><trkpt lat="35.71030157677711" lon="-5.733262160156114"><ele>60.0</ele><time>2026-04-22T08:31:08Z</time></trkpt><trkpt lat="35.7105403966415" lon="-5.733275544978448"><ele>60.0</ele><time>2026-04-22T08:31:09Z</time></trkpt><trkpt lat="35.71076758089593" lon="-5.733290096813258"><ele>60.0</ele><time>2026-04-22T08:31:10Z</time></trkpt><trkpt lat="35.710987698181775" lon="-5.73330528417056"><ele>60.0</ele><time>2026-04-22T08:31:11Z</time></trkpt><trkpt lat="35.71120353790516" lon="-5.733318919450402"><ele>59.33333333333333</ele><time>2026-04-22T08:31:12Z</time></trkpt><trkpt lat="35.711416717194396" lon="-5.7333282013005435"><ele>58.666666666666664</ele><time>2026-04-22T08:31:13Z</time></trkpt><trkpt lat="35.711621799479886" lon="-5.7333401622871145"><ele>58.0</ele><time>2026-04-22T08:31:14Z</time></trkpt><trkpt lat="35.711824784665794" lon="-5.733353050290486"><ele>57.0</ele><time>2026-04-22T08:31:15Z</time></trkpt><trkpt lat="35.71202655588582" lon="-5.733362513121919"><ele>56.0</ele><time>2026-04-22T08:31:16Z</time></trkpt><trkpt lat="35.71222929086236" lon="-5.733372710750673"><ele>55.0</ele><time>2026-04-22T08:31:17Z</time></trkpt><trkpt lat="35.712425998560526" lon="-5.733374855899781"><ele>55.0</ele><time>2026-04-22T08:31:18Z</time></trkpt><trkpt lat="35.71261636551629" lon="-5.733378836867427"><ele>55.0</ele><time>2026-04-22T08:31:19Z</time></trkpt><trkpt lat="35.71280252115778" lon="-5.733382729360553"><ele>55.0</ele><time>2026-04-22T08:31:20Z</time></trkpt><trkpt lat="35.71297885759663" lon="-5.733383600798438"><ele>54.75</ele><time>2026-04-22T08:31:21Z</time></trkpt><trkpt lat="35.71314076521625" lon="-5.733375713009531"><ele>54.5</ele><time>2026-04-22T08:31:22Z</time></trkpt><trkpt lat="35.71329092920209" lon="-5.733359022447019"><ele>54.25</ele><time>2026-04-22T08:31:23Z</time></trkpt><trkpt lat="35.71341830654793" lon="-5.733343783404875"><ele>54.0</ele><time>2026-04-22T08:31:24Z</time></trkpt><trkpt lat="35.71354040504106" lon="-5.733356897903034"><ele>53.5</ele><time>2026-04-22T08:31:25Z</time></trkpt><trkpt lat="35.713667156568654" lon="-5.733389956390393"><ele>53.0</ele><time>2026-04-22T08:31:26Z</time></trkpt><trkpt lat="35.713802894058254" lon="-5.7334138504340695"><ele>52.5</ele><time>2026-04-22T08:31:27Z</time></trkpt><trkpt lat="35.71394895775822" lon="-5.733435878515615"><ele>52.0</ele><time>2026-04-22T08:31:28Z</time></trkpt><trkpt lat="35.71410712791917" lon="-5.733453801770398"><ele>52.0</ele><time>2026-04-22T08:31:29Z</time></trkpt><trkpt lat="35.71426131553794" lon="-5.73346303984421"><ele>52.0</ele><time>2026-04-22T08:31:30Z</time></trkpt><trkpt lat="35.71442407366208" lon="-5.733477120831963"><ele>52.0</ele><time>2026-04-22T08:31:31Z</time></trkpt><trkpt lat="35.71459578390456" lon="-5.733502348932053"><ele>52.666666666666664</ele><time>2026-04-22T08:31:32Z</time></trkpt><trkpt lat="35.71477404572833" lon="-5.733536602354328"><ele>53.33333333333333</ele><time>2026-04-22T08:31:33Z</time></trkpt><trkpt lat="35.714959388417036" lon="-5.733582459421784"><ele>54.0</ele><time>2026-04-22T08:31:34Z</time></trkpt><trkpt lat="35.71514888616413" lon="-5.733640539534621"><ele>53.66666666666667</ele><time>2026-04-22T08:31:35Z</time></trkpt><trkpt lat="35.715344306345706" lon="-5.733711047486114"><ele>53.333333333333336</ele><time>2026-04-22T08:31:36Z</time></trkpt><trkpt lat="35.715543151113444" lon="-5.733791660319551"><ele>53.0</ele><time>2026-04-22T08:31:37Z</time></trkpt><trkpt lat="35.7157470954682" lon="-5.73387521403933"><ele>53.0</ele><time>2026-04-22T08:31:38Z</time></trkpt><trkpt lat="35.715952297657985" lon="-5.733960740183429"><ele>53.0</ele><time>2026-04-22T08:31:39Z</time></trkpt><trkpt lat="35.7161560756377" lon="-5.734044401517759"><ele>53.0</ele><time>2026-04-22T08:31:40Z</time></trkpt><trkpt lat="35.71636105820153" lon="-5.734126826359221"><ele>52.333333333333336</ele><time>2026-04-22T08:31:41Z</time></trkpt><trkpt lat="35.71656649076923" lon="-5.734209580277452"><ele>51.66666666666667</ele><time>2026-04-22T08:31:42Z</time></trkpt><trkpt lat="35.71677355331786" lon="-5.734281451596133"><ele>51.0</ele><time>2026-04-22T08:31:43Z</time></trkpt><trkpt lat="35.7169795349121" lon="-5.73434511426455"><ele>51.33333333333333</ele><time>2026-04-22T08:31:44Z</time></trkpt><trkpt lat="35.71718671593075" lon="-5.734404606846638"><ele>51.666666666666664</ele><time>2026-04-22T08:31:45Z</time></trkpt><trkpt lat="35.71739436221525" lon="-5.734464373391819"><ele>52.0</ele><time>2026-04-22T08:31:46Z</time></trkpt><trkpt lat="35.71760532169474" lon="-5.73452326165877"><ele>50.666666666666664</ele><time>2026-04-22T08:31:47Z</time></trkpt><trkpt lat="35.717815669229566" lon="-5.734580261855134"><ele>49.33333333333333</ele><time>2026-04-22T08:31:48Z</time></trkpt><trkpt lat="35.71802441182953" lon="-5.7346373588721535"><ele>48.0</ele><time>2026-04-22T08:31:49Z</time></trkpt><trkpt lat="35.71823058117274" lon="-5.734692830389061"><ele>48.0</ele><time>2026-04-22T08:31:50Z</time></trkpt><trkpt lat="35.71843509181205" lon="-5.734747767634543"><ele>48.0</ele><time>2026-04-22T08:31:51Z</time></trkpt><trkpt lat="35.718643737698216" lon="-5.734803887165722"><ele>48.0</ele><time>2026-04-22T08:31:52Z</time></trkpt><trkpt lat="35.71885952334407" lon="-5.734858547367489"><ele>47.333333333333336</ele><time>2026-04-22T08:31:53Z</time></trkpt><trkpt lat="35.71906111465589" lon="-5.734905200379575"><ele>46.66666666666667</ele><time>2026-04-22T08:31:54Z</time></trkpt><trkpt lat="35.71924639530462" lon="-5.734937306679581"><ele>46.0</ele><time>2026-04-22T08:31:55Z</time></trkpt><trkpt lat="35.71942021723693" lon="-5.734948152907178"><ele>45.75</ele><time>2026-04-22T08:31:56Z</time></trkpt><trkpt lat="35.719582712375434" lon="-5.734954284330093"><ele>45.5</ele><time>2026-04-22T08:31:57Z</time></trkpt><trkpt lat="35.71972844027162" lon="-5.734966949649276"><ele>45.25</ele><time>2026-04-22T08:31:58Z</time></trkpt><trkpt lat="35.71985845158307" lon="-5.734991348575732"><ele>45.0</ele><time>2026-04-22T08:31:59Z</time></trkpt><trkpt lat="35.71998336467052" lon="-5.735039587005482"><ele>45.0</ele><time>2026-04-22T08:32:00Z</time></trkpt><trkpt lat="35.72010120148712" lon="-5.735116377785455"><ele>45.0</ele><time>2026-04-22T08:32:01Z</time></trkpt><trkpt lat="35.720218160313024" lon="-5.735202641341946"><ele>45.0</ele><time>2026-04-22T08:32:02Z</time></trkpt><trkpt lat="35.72034540635324" lon="-5.735288674889793"><ele>45.0</ele><time>2026-04-22T08:32:03Z</time></trkpt><trkpt lat="35.72048056260353" lon="-5.735366608293252"><ele>44.75</ele><time>2026-04-22T08:32:04Z</time></trkpt><trkpt lat="35.72061834676039" lon="-5.735429870513995"><ele>44.5</ele><time>2026-04-22T08:32:05Z</time></trkpt><trkpt lat="35.720755871046855" lon="-5.735484840024757"><ele>44.25</ele><time>2026-04-22T08:32:06Z</time></trkpt><trkpt lat="35.72089299845819" lon="-5.735534980341929"><ele>44.0</ele><time>2026-04-22T08:32:07Z</time></trkpt><trkpt lat="35.72103530809848" lon="-5.735593785542262"><ele>42.666666666666664</ele><time>2026-04-22T08:32:08Z</time></trkpt><trkpt lat="35.721183607947744" lon="-5.735661521424765"><ele>41.333333333333336</ele><time>2026-04-22T08:32:09Z</time></trkpt><trkpt lat="35.72133883326699" lon="-5.7357342239081115"><ele>40.0</ele><time>2026-04-22T08:32:10Z</time></trkpt><trkpt lat="35.72149366889668" lon="-5.735820174325533"><ele>40.0</ele><time>2026-04-22T08:32:11Z</time></trkpt><trkpt lat="35.72164752702445" lon="-5.73591927149359"><ele>40.0</ele><time>2026-04-22T08:32:12Z</time></trkpt><trkpt lat="35.72180342146776" lon="-5.736032969782739"><ele>40.0</ele><time>2026-04-22T08:32:13Z</time></trkpt><trkpt lat="35.72195549932996" lon="-5.7361621729614845"><ele>40.333333333333336</ele><time>2026-04-22T08:32:14Z</time></trkpt><trkpt lat="35.722098869063515" lon="-5.7363020302798144"><ele>40.666666666666664</ele><time>2026-04-22T08:32:15Z</time></trkpt><trkpt lat="35.72223107823185" lon="-5.736450546428249"><ele>41.0</ele><time>2026-04-22T08:32:16Z</time></trkpt><trkpt lat="35.722354138458066" lon="-5.73660692249241"><ele>41.0</ele><time>2026-04-22T08:32:17Z</time></trkpt><trkpt lat="35.722473852096996" lon="-5.736767074113747"><ele>41.0</ele><time>2026-04-22T08:32:18Z</time></trkpt><trkpt lat="35.72259063045892" lon="-5.736927810332446"><ele>41.0</ele><time>2026-04-22T08:32:19Z</time></trkpt><trkpt lat="35.722710040858786" lon="-5.737091486927416"><ele>39.666666666666664</ele><time>2026-04-22T08:32:20Z</time></trkpt><trkpt lat="35.7228340217899" lon="-5.737263530871853"><ele>38.333333333333336</ele><time>2026-04-22T08:32:21Z</time></trkpt><trkpt lat="35.7229638388446" lon="-5.737442525737244"><ele>37.0</ele><time>2026-04-22T08:32:22Z</time></trkpt><trkpt lat="35.723098632304726" lon="-5.737631664903922"><ele>37.66666666666667</ele><time>2026-04-22T08:32:23Z</time></trkpt><trkpt lat="35.72324134415067" lon="-5.737827870034204"><ele>38.333333333333336</ele><time>2026-04-22T08:32:24Z</time></trkpt><trkpt lat="35.72338320702534" lon="-5.738025892633645"><ele>39.0</ele><time>2026-04-22T08:32:25Z</time></trkpt><trkpt lat="35.72352633884577" lon="-5.73822359957143"><ele>37.333333333333336</ele><time>2026-04-22T08:32:26Z</time></trkpt><trkpt lat="35.723674751396096" lon="-5.7384255255512855"><ele>35.66666666666667</ele><time>2026-04-22T08:32:27Z</time></trkpt><trkpt lat="35.72382736145818" lon="-5.738628812675341"><ele>34.0</ele><time>2026-04-22T08:32:28Z</time></trkpt><trkpt lat="35.72398136099065" lon="-5.7388370973934"><ele>34.0</ele><time>2026-04-22T08:32:29Z</time></trkpt><trkpt lat="35.72413788976631" lon="-5.739048706124293"><ele>34.0</ele><time>2026-04-22T08:32:30Z</time></trkpt><trkpt lat="35.724295449097056" lon="-5.739264941964486"><ele>33.0</ele><time>2026-04-22T08:32:31Z</time></trkpt><trkpt lat="35.72445373136106" lon="-5.739482048882292"><ele>32.0</ele><time>2026-04-22T08:32:32Z</time></trkpt><trkpt lat="35.724615045647305" lon="-5.739697971949784"><ele>32.0</ele><time>2026-04-22T08:32:33Z</time></trkpt><trkpt lat="35.72477335139648" lon="-5.739914110462036"><ele>32.0</ele><time>2026-04-22T08:32:34Z</time></trkpt><trkpt lat="35.72493070896496" lon="-5.740127063001412"><ele>31.5</ele><time>2026-04-22T08:32:35Z</time></trkpt><trkpt lat="35.72508659925142" lon="-5.740337985243568"><ele>31.0</ele><time>2026-04-22T08:32:36Z</time></trkpt><trkpt lat="35.72524003693242" lon="-5.74054799466259"><ele>31.0</ele><time>2026-04-22T08:32:37Z</time></trkpt><trkpt lat="35.725387476757064" lon="-5.740757887937635"><ele>31.0</ele><time>2026-04-22T08:32:38Z</time></trkpt><trkpt lat="35.725530771222566" lon="-5.740965209129818"><ele>31.0</ele><time>2026-04-22T08:32:39Z</time></trkpt><trkpt lat="35.72567353473251" lon="-5.741168012335426"><ele>31.0</ele><time>2026-04-22T08:32:40Z</time></trkpt><trkpt lat="35.725816024155144" lon="-5.741364730473926"><ele>31.0</ele><time>2026-04-22T08:32:41Z</time></trkpt><trkpt lat="35.72595239341992" lon="-5.741558253427193"><ele>31.0</ele><time>2026-04-22T08:32:42Z</time></trkpt><trkpt lat="35.72608316081794" lon="-5.741739685553878"><ele>31.333333333333336</ele><time>2026-04-22T08:32:43Z</time></trkpt><trkpt lat="35.726208610767934" lon="-5.741910778913183"><ele>31.666666666666664</ele><time>2026-04-22T08:32:44Z</time></trkpt><trkpt lat="35.7263274087673" lon="-5.742073478597183"><ele>32.0</ele><time>2026-04-22T08:32:45Z</time></trkpt><trkpt lat="35.72644054425505" lon="-5.742220347526436"><ele>32.0</ele><time>2026-04-22T08:32:46Z</time></trkpt><trkpt lat="35.72653832490541" lon="-5.742358899349673"><ele>32.0</ele><time>2026-04-22T08:32:47Z</time></trkpt><trkpt lat="35.7266245915498" lon="-5.742495458558367"><ele>32.0</ele><time>2026-04-22T08:32:48Z</time></trkpt><trkpt lat="35.72670438018125" lon="-5.742627795486501"><ele>32.0</ele><time>2026-04-22T08:32:49Z</time></trkpt><trkpt lat="35.72677509463147" lon="-5.742757075116466"><ele>32.5</ele><time>2026-04-22T08:32:50Z</time></trkpt><trkpt lat="35.72683936501046" lon="-5.742886446624272"><ele>33.0</ele><time>2026-04-22T08:32:51Z</time></trkpt><trkpt lat="35.726896656967824" lon="-5.743016724761613"><ele>33.5</ele><time>2026-04-22T08:32:52Z</time></trkpt><trkpt lat="35.72695048904273" lon="-5.743150417241313"><ele>34.0</ele><time>2026-04-22T08:32:53Z</time></trkpt><trkpt lat="35.72700001159951" lon="-5.743290932958543"><ele>33.0</ele><time>2026-04-22T08:32:54Z</time></trkpt><trkpt lat="35.72704414109426" lon="-5.743436160541268"><ele>32.0</ele><time>2026-04-22T08:32:55Z</time></trkpt><trkpt lat="35.72708482493777" lon="-5.743591664599265"><ele>31.0</ele><time>2026-04-22T08:32:56Z</time></trkpt><trkpt lat="35.727113345805094" lon="-5.743751258557989"><ele>30.0</ele><time>2026-04-22T08:32:57Z</time></trkpt><trkpt lat="35.72713056721903" lon="-5.7438985136387135"><ele>30.0</ele><time>2026-04-22T08:32:58Z</time></trkpt><trkpt lat="35.72714406328311" lon="-5.744032811619175"><ele>30.0</ele><time>2026-04-22T08:32:59Z</time></trkpt><trkpt lat="35.727150278312685" lon="-5.744169833561492"><ele>30.0</ele><time>2026-04-22T08:33:00Z</time></trkpt><trkpt lat="35.727151954930854" lon="-5.744307200052619"><ele>30.0</ele><time>2026-04-22T08:33:01Z</time></trkpt><trkpt lat="35.727146936820084" lon="-5.744450274757733"><ele>30.0</ele><time>2026-04-22T08:33:02Z</time></trkpt><trkpt lat="35.72713726789146" lon="-5.744603780894812"><ele>30.0</ele><time>2026-04-22T08:33:03Z</time></trkpt><trkpt lat="35.72711992157542" lon="-5.744768549351297"><ele>30.0</ele><time>2026-04-22T08:33:04Z</time></trkpt><trkpt lat="35.72710009549261" lon="-5.744933361941772"><ele>30.0</ele><time>2026-04-22T08:33:05Z</time></trkpt><trkpt lat="35.72707856674911" lon="-5.745098632023474"><ele>30.0</ele><time>2026-04-22T08:33:06Z</time></trkpt><trkpt lat="35.72705525350895" lon="-5.745270606075976"><ele>29.666666666666664</ele><time>2026-04-22T08:33:07Z</time></trkpt><trkpt lat="35.727030235193894" lon="-5.745449969513806"><ele>29.333333333333332</ele><time>2026-04-22T08:33:08Z</time></trkpt><trkpt lat="35.727006872348646" lon="-5.745638737035468"><ele>29.0</ele><time>2026-04-22T08:33:09Z</time></trkpt><trkpt lat="35.72697870330502" lon="-5.745837437434322"><ele>29.0</ele><time>2026-04-22T08:33:10Z</time></trkpt><trkpt lat="35.72694989916432" lon="-5.746030205436746"><ele>29.0</ele><time>2026-04-22T08:33:11Z</time></trkpt><trkpt lat="35.7269287065001" lon="-5.746197869999366"><ele>29.0</ele><time>2026-04-22T08:33:12Z</time></trkpt><trkpt lat="35.726904651189486" lon="-5.746364559591078"><ele>29.0</ele><time>2026-04-22T08:33:13Z</time></trkpt><trkpt lat="35.72688510517536" lon="-5.7465317932898925"><ele>29.0</ele><time>2026-04-22T08:33:14Z</time></trkpt><trkpt lat="35.726863342398836" lon="-5.7466984584945555"><ele>29.0</ele><time>2026-04-22T08:33:15Z</time></trkpt><trkpt lat="35.726838992721966" lon="-5.746865028967493"><ele>29.0</ele><time>2026-04-22T08:33:16Z</time></trkpt><trkpt lat="35.72681392131566" lon="-5.747036463908191"><ele>29.0</ele><time>2026-04-22T08:33:17Z</time></trkpt><trkpt lat="35.7267908618966" lon="-5.747205764348104"><ele>28.25</ele><time>2026-04-22T08:33:18Z</time></trkpt><trkpt lat="35.7267671097871" lon="-5.747376609483731"><ele>27.5</ele><time>2026-04-22T08:33:19Z</time></trkpt><trkpt lat="35.72674108207054" lon="-5.747555500610036"><ele>26.75</ele><time>2026-04-22T08:33:20Z</time></trkpt><trkpt lat="35.726714719325756" lon="-5.7477478267781645"><ele>26.0</ele><time>2026-04-22T08:33:21Z</time></trkpt><trkpt lat="35.726687940423105" lon="-5.747953686471677"><ele>25.0</ele><time>2026-04-22T08:33:22Z</time></trkpt><trkpt lat="35.72666568757547" lon="-5.748176458837335"><ele>24.0</ele><time>2026-04-22T08:33:23Z</time></trkpt><trkpt lat="35.72664091197875" lon="-5.748411990119125"><ele>23.0</ele><time>2026-04-22T08:33:24Z</time></trkpt><trkpt lat="35.72661737362949" lon="-5.748660471128568"><ele>22.666666666666668</ele><time>2026-04-22T08:33:25Z</time></trkpt><trkpt lat="35.72660452483806" lon="-5.748923694048319"><ele>22.333333333333332</ele><time>2026-04-22T08:33:26Z</time></trkpt><trkpt lat="35.72660284103174" lon="-5.749157147028748"><ele>22.0</ele><time>2026-04-22T08:33:27Z</time></trkpt><trkpt lat="35.72661924450046" lon="-5.7494552099830925"><ele>23.0</ele><time>2026-04-22T08:33:28Z</time></trkpt><trkpt lat="35.72663666905866" lon="-5.749704948208632"><ele>24.0</ele><time>2026-04-22T08:33:29Z</time></trkpt><trkpt lat="35.72665835402234" lon="-5.749939742081212"><ele>25.0</ele><time>2026-04-22T08:33:30Z</time></trkpt><trkpt lat="35.726676598765096" lon="-5.75015911652838"><ele>25.333333333333336</ele><time>2026-04-22T08:33:31Z</time></trkpt><trkpt lat="35.72669319426677" lon="-5.750366345234866"><ele>25.666666666666664</ele><time>2026-04-22T08:33:32Z</time></trkpt><trkpt lat="35.72670797531653" lon="-5.750574430919639"><ele>26.0</ele><time>2026-04-22T08:33:33Z</time></trkpt><trkpt lat="35.72672025483102" lon="-5.750791409929149"><ele>26.0</ele><time>2026-04-22T08:33:34Z</time></trkpt><trkpt lat="35.726737259367226" lon="-5.751017525050376"><ele>26.0</ele><time>2026-04-22T08:33:35Z</time></trkpt><trkpt lat="35.72676290402676" lon="-5.7512513777348655"><ele>26.0</ele><time>2026-04-22T08:33:36Z</time></trkpt><trkpt lat="35.72679518050233" lon="-5.751488211193432"><ele>26.0</ele><time>2026-04-22T08:33:37Z</time></trkpt><trkpt lat="35.72683541271368" lon="-5.75171802696014"><ele>26.0</ele><time>2026-04-22T08:33:38Z</time></trkpt><trkpt lat="35.726878764077455" lon="-5.751945274091086"><ele>26.0</ele><time>2026-04-22T08:33:39Z</time></trkpt><trkpt lat="35.72692077249434" lon="-5.752168319100778"><ele>24.333333333333332</ele><time>2026-04-22T08:33:40Z</time></trkpt><trkpt lat="35.72695705167784" lon="-5.752386599294443"><ele>22.666666666666664</ele><time>2026-04-22T08:33:41Z</time></trkpt><trkpt lat="35.72697916023388" lon="-5.7526060582533765"><ele>21.0</ele><time>2026-04-22T08:33:42Z</time></trkpt><trkpt lat="35.7269855609423" lon="-5.752820022677816"><ele>21.0</ele><time>2026-04-22T08:33:43Z</time></trkpt><trkpt lat="35.72698715078015" lon="-5.753011613596507"><ele>21.0</ele><time>2026-04-22T08:33:44Z</time></trkpt><trkpt lat="35.72698398872607" lon="-5.753169622409506"><ele>21.0</ele><time>2026-04-22T08:33:45Z</time></trkpt><trkpt lat="35.72698428224612" lon="-5.753298135465101"><ele>21.0</ele><time>2026-04-22T08:33:46Z</time></trkpt><trkpt lat="35.726986103887974" lon="-5.753400532603387"><ele>21.0</ele><time>2026-04-22T08:33:47Z</time></trkpt><trkpt lat="35.72699273362762" lon="-5.753506107580609"><ele>21.0</ele><time>2026-04-22T08:33:48Z</time></trkpt><trkpt lat="35.72700105387465" lon="-5.753614077147759"><ele>21.0</ele><time>2026-04-22T08:33:49Z</time></trkpt><trkpt lat="35.72700877228366" lon="-5.753720464310968"><ele>21.0</ele><time>2026-04-22T08:33:50Z</time></trkpt><trkpt lat="35.72701709372122" lon="-5.753823942915456"><ele>21.0</ele><time>2026-04-22T08:33:51Z</time></trkpt><trkpt lat="35.727029078583264" lon="-5.753930788359105"><ele>21.0</ele><time>2026-04-22T08:33:52Z</time></trkpt><trkpt lat="35.72704655462479" lon="-5.754047983719938"><ele>20.8</ele><time>2026-04-22T08:33:53Z</time></trkpt><trkpt lat="35.72706790459129" lon="-5.754159493023188"><ele>20.6</ele><time>2026-04-22T08:33:54Z</time></trkpt><trkpt lat="35.72709069051461" lon="-5.75427862379825"><ele>20.4</ele><time>2026-04-22T08:33:55Z</time></trkpt><trkpt lat="35.72711906570452" lon="-5.754407753604488"><ele>20.2</ele><time>2026-04-22T08:33:56Z</time></trkpt><trkpt lat="35.72715495087328" lon="-5.754547800014745"><ele>20.0</ele><time>2026-04-22T08:33:57Z</time></trkpt><trkpt lat="35.727195272723016" lon="-5.75469237100102"><ele>20.0</ele><time>2026-04-22T08:33:58Z</time></trkpt><trkpt lat="35.72723695401845" lon="-5.75484463391506"><ele>20.0</ele><time>2026-04-22T08:33:59Z</time></trkpt><trkpt lat="35.727298486252515" lon="-5.75500320389931"><ele>20.0</ele><time>2026-04-22T08:34:00Z</time></trkpt><trkpt lat="35.72737538218291" lon="-5.755170570108107"><ele>20.0</ele><time>2026-04-22T08:34:01Z</time></trkpt><trkpt lat="35.727458227623124" lon="-5.755333329206181"><ele>20.333333333333336</ele><time>2026-04-22T08:34:02Z</time></trkpt><trkpt lat="35.72754706453242" lon="-5.7554861378469155"><ele>20.666666666666668</ele><time>2026-04-22T08:34:03Z</time></trkpt><trkpt lat="35.72765741173307" lon="-5.755627074886348"><ele>21.0</ele><time>2026-04-22T08:34:04Z</time></trkpt><trkpt lat="35.727774830277646" lon="-5.755778136709036"><ele>21.0</ele><time>2026-04-22T08:34:05Z</time></trkpt><trkpt lat="35.727868295438554" lon="-5.755967136956266"><ele>21.0</ele><time>2026-04-22T08:34:06Z</time></trkpt><trkpt lat="35.727986985265666" lon="-5.756137780932183"><ele>21.0</ele><time>2026-04-22T08:34:07Z</time></trkpt><trkpt lat="35.728110127374975" lon="-5.75631611262327"><ele>22.333333333333336</ele><time>2026-04-22T08:34:08Z</time></trkpt><trkpt lat="35.728237715995014" lon="-5.756500309339766"><ele>23.666666666666668</ele><time>2026-04-22T08:34:09Z</time></trkpt><trkpt lat="35.728367440517665" lon="-5.756688578050664"><ele>25.0</ele><time>2026-04-22T08:34:10Z</time></trkpt><trkpt lat="35.728491943498284" lon="-5.75687220874509"><ele>24.0</ele><time>2026-04-22T08:34:11Z</time></trkpt><trkpt lat="35.7286116828051" lon="-5.757044419077677"><ele>23.0</ele><time>2026-04-22T08:34:12Z</time></trkpt><trkpt lat="35.728733334325405" lon="-5.757219327653031"><ele>22.0</ele><time>2026-04-22T08:34:13Z</time></trkpt><trkpt lat="35.72886210411864" lon="-5.757402412884985"><ele>22.0</ele><time>2026-04-22T08:34:14Z</time></trkpt><trkpt lat="35.728994581955455" lon="-5.757590749711167"><ele>22.0</ele><time>2026-04-22T08:34:15Z</time></trkpt><trkpt lat="35.729127050460704" lon="-5.757775006785391"><ele>22.0</ele><time>2026-04-22T08:34:16Z</time></trkpt><trkpt lat="35.72925762876917" lon="-5.757953997688253"><ele>22.333333333333332</ele><time>2026-04-22T08:34:17Z</time></trkpt><trkpt lat="35.72938474743867" lon="-5.758127840863629"><ele>22.666666666666668</ele><time>2026-04-22T08:34:18Z</time></trkpt><trkpt lat="35.72950991584707" lon="-5.758298872619681"><ele>23.0</ele><time>2026-04-22T08:34:19Z</time></trkpt><trkpt lat="35.72963331194338" lon="-5.758470761048252"><ele>21.666666666666668</ele><time>2026-04-22T08:34:20Z</time></trkpt><trkpt lat="35.72975441189976" lon="-5.758646323462449"><ele>20.333333333333332</ele><time>2026-04-22T08:34:21Z</time></trkpt><trkpt lat="35.729870881576026" lon="-5.758823687416466"><ele>19.0</ele><time>2026-04-22T08:34:22Z</time></trkpt><trkpt lat="35.729978889249715" lon="-5.7590032649937095"><ele>19.0</ele><time>2026-04-22T08:34:23Z</time></trkpt><trkpt lat="35.73007802314733" lon="-5.759184045796587"><ele>19.0</ele><time>2026-04-22T08:34:24Z</time></trkpt><trkpt lat="35.730171681517696" lon="-5.759363424325213"><ele>19.0</ele><time>2026-04-22T08:34:25Z</time></trkpt><trkpt lat="35.730256242020694" lon="-5.75954388032287"><ele>17.666666666666664</ele><time>2026-04-22T08:34:26Z</time></trkpt><trkpt lat="35.73033372759616" lon="-5.759729004393402"><ele>16.333333333333332</ele><time>2026-04-22T08:34:27Z</time></trkpt><trkpt lat="35.730405169217086" lon="-5.759916367062114"><ele>15.0</ele><time>2026-04-22T08:34:28Z</time></trkpt><trkpt lat="35.73047588176149" lon="-5.760104897603578"><ele>15.0</ele><time>2026-04-22T08:34:29Z</time></trkpt><trkpt lat="35.73054492343992" lon="-5.760295483437377"><ele>15.0</ele><time>2026-04-22T08:34:30Z</time></trkpt><trkpt lat="35.73060930920436" lon="-5.760485905555693"><ele>15.0</ele><time>2026-04-22T08:34:31Z</time></trkpt><trkpt lat="35.73067525421762" lon="-5.760669645664702"><ele>15.0</ele><time>2026-04-22T08:34:32Z</time></trkpt><trkpt lat="35.73074089402844" lon="-5.760850004309795"><ele>15.0</ele><time>2026-04-22T08:34:33Z</time></trkpt><trkpt lat="35.73080377783466" lon="-5.7610307541903385"><ele>15.0</ele><time>2026-04-22T08:34:34Z</time></trkpt><trkpt lat="35.73086660584506" lon="-5.761208076849158"><ele>15.333333333333332</ele><time>2026-04-22T08:34:35Z</time></trkpt><trkpt lat="35.73092233348164" lon="-5.76138581907797"><ele>15.666666666666666</ele><time>2026-04-22T08:34:36Z</time></trkpt><trkpt lat="35.73096984595457" lon="-5.761561378357695"><ele>16.0</ele><time>2026-04-22T08:34:37Z</time></trkpt><trkpt lat="35.73100674977695" lon="-5.761739195801738"><ele>15.666666666666666</ele><time>2026-04-22T08:34:38Z</time></trkpt><trkpt lat="35.7310385536733" lon="-5.761923068521423"><ele>15.333333333333332</ele><time>2026-04-22T08:34:39Z</time></trkpt><trkpt lat="35.73107535766075" lon="-5.762112963045127"><ele>15.0</ele><time>2026-04-22T08:34:40Z</time></trkpt><trkpt lat="35.73111389419584" lon="-5.762309607333887"><ele>15.0</ele><time>2026-04-22T08:34:41Z</time></trkpt><trkpt lat="35.731154366016995" lon="-5.762506985005562"><ele>15.0</ele><time>2026-04-22T08:34:42Z</time></trkpt><trkpt lat="35.731198321354796" lon="-5.762697830985075"><ele>15.0</ele><time>2026-04-22T08:34:43Z</time></trkpt><trkpt lat="35.731243900417894" lon="-5.762884624252243"><ele>15.666666666666668</ele><time>2026-04-22T08:34:44Z</time></trkpt><trkpt lat="35.73129280612055" lon="-5.763067217629946"><ele>16.333333333333336</ele><time>2026-04-22T08:34:45Z</time></trkpt><trkpt lat="35.731341515331245" lon="-5.763247426943447"><ele>17.0</ele><time>2026-04-22T08:34:46Z</time></trkpt><trkpt lat="35.73139385019544" lon="-5.76342265596341"><ele>16.75</ele><time>2026-04-22T08:34:47Z</time></trkpt><trkpt lat="35.73144645609159" lon="-5.763593379052757"><ele>16.5</ele><time>2026-04-22T08:34:48Z</time></trkpt><trkpt lat="35.7315043610179" lon="-5.763760213341464"><ele>16.25</ele><time>2026-04-22T08:34:49Z</time></trkpt><trkpt lat="35.73157180659064" lon="-5.763924682873417"><ele>16.0</ele><time>2026-04-22T08:34:50Z</time></trkpt><trkpt lat="35.731648710128795" lon="-5.764084635753987"><ele>16.0</ele><time>2026-04-22T08:34:51Z</time></trkpt><trkpt lat="35.731734794526254" lon="-5.7642385966258445"><ele>16.0</ele><time>2026-04-22T08:34:52Z</time></trkpt><trkpt lat="35.73182924037215" lon="-5.764385786293383"><ele>16.0</ele><time>2026-04-22T08:34:53Z</time></trkpt><trkpt lat="35.7319330146087" lon="-5.764527024855137"><ele>15.666666666666666</ele><time>2026-04-22T08:34:54Z</time></trkpt><trkpt lat="35.73204442272711" lon="-5.76465975109282"><ele>15.333333333333332</ele><time>2026-04-22T08:34:55Z</time></trkpt><trkpt lat="35.73215820800762" lon="-5.764784950867895"><ele>15.0</ele><time>2026-04-22T08:34:56Z</time></trkpt><trkpt lat="35.732271309175616" lon="-5.764896373683928"><ele>15.0</ele><time>2026-04-22T08:34:57Z</time></trkpt><trkpt lat="35.73238505239886" lon="-5.764996696282518"><ele>15.0</ele><time>2026-04-22T08:34:58Z</time></trkpt><trkpt lat="35.73250418903225" lon="-5.765086282032014"><ele>15.0</ele><time>2026-04-22T08:34:59Z</time></trkpt><trkpt lat="35.73263459753688" lon="-5.765163602676236"><ele>15.0</ele><time>2026-04-22T08:35:00Z</time></trkpt><trkpt lat="35.73277542709049" lon="-5.7652317842714496"><ele>14.666666666666668</ele><time>2026-04-22T08:35:01Z</time></trkpt><trkpt lat="35.732918352875586" lon="-5.765294890323754"><ele>14.333333333333334</ele><time>2026-04-22T08:35:02Z</time></trkpt><trkpt lat="35.73306598345907" lon="-5.7653496270881375"><ele>14.0</ele><time>2026-04-22T08:35:03Z</time></trkpt><trkpt lat="35.733218328554685" lon="-5.765398076878841"><ele>14.0</ele><time>2026-04-22T08:35:04Z</time></trkpt><trkpt lat="35.73337482259016" lon="-5.76543695795771"><ele>14.0</ele><time>2026-04-22T08:35:05Z</time></trkpt><trkpt lat="35.73353128561063" lon="-5.765473096730572"><ele>14.0</ele><time>2026-04-22T08:35:06Z</time></trkpt><trkpt lat="35.73368870102494" lon="-5.7655038077171366"><ele>14.666666666666668</ele><time>2026-04-22T08:35:07Z</time></trkpt><trkpt lat="35.73385079683459" lon="-5.765533258530236"><ele>15.333333333333332</ele><time>2026-04-22T08:35:08Z</time></trkpt><trkpt lat="35.73401612438112" lon="-5.765566202710006"><ele>16.0</ele><time>2026-04-22T08:35:09Z</time></trkpt><trkpt lat="35.734179195079726" lon="-5.765596414290693"><ele>16.0</ele><time>2026-04-22T08:35:10Z</time></trkpt><trkpt lat="35.73434440550101" lon="-5.765626955777437"><ele>16.0</ele><time>2026-04-22T08:35:11Z</time></trkpt><trkpt lat="35.73451349225102" lon="-5.765656275883963"><ele>16.0</ele><time>2026-04-22T08:35:12Z</time></trkpt><trkpt lat="35.73467711464968" lon="-5.765686235556932"><ele>16.0</ele><time>2026-04-22T08:35:13Z</time></trkpt><trkpt lat="35.73481533964526" lon="-5.765713899038759"><ele>16.0</ele><time>2026-04-22T08:35:14Z</time></trkpt><trkpt lat="35.734953417032976" lon="-5.765747636033511"><ele>16.0</ele><time>2026-04-22T08:35:15Z</time></trkpt><trkpt lat="35.73509108454514" lon="-5.765788305115503"><ele>16.0</ele><time>2026-04-22T08:35:16Z</time></trkpt><trkpt lat="35.73522310709198" lon="-5.765832006744366"><ele>15.999999999999998</ele><time>2026-04-22T08:35:17Z</time></trkpt><trkpt lat="35.73534036104263" lon="-5.765877009224887"><ele>16.0</ele><time>2026-04-22T08:35:18Z</time></trkpt><trkpt lat="35.735428560403584" lon="-5.765909691422572"><ele>16.0</ele><time>2026-04-22T08:35:19Z</time></trkpt><trkpt lat="35.73551153737564" lon="-5.76593920834221"><ele>16.0</ele><time>2026-04-22T08:35:20Z</time></trkpt><trkpt lat="35.73558224235142" lon="-5.76596423575546"><ele>15.999999999999998</ele><time>2026-04-22T08:35:21Z</time></trkpt><trkpt lat="35.735645811623144" lon="-5.7659853132068895"><ele>16.0</ele><time>2026-04-22T08:35:22Z</time></trkpt><trkpt lat="35.73570711094552" lon="-5.766004981909688"><ele>16.0</ele><time>2026-04-22T08:35:23Z</time></trkpt><trkpt lat="35.735801392212004" lon="-5.766032743280376"><ele>16.0</ele><time>2026-04-22T08:35:25Z</time></trkpt><trkpt lat="35.73587384184625" lon="-5.76604934639013"><ele>16.0</ele><time>2026-04-22T08:35:27Z</time></trkpt><trkpt lat="35.73597574183211" lon="-5.766088161268068"><ele>16.0</ele><time>2026-04-22T08:35:30Z</time></trkpt><trkpt lat="35.73606561904486" lon="-5.766199645125515"><ele>16.0</ele><time>2026-04-22T08:35:32Z</time></trkpt><trkpt lat="35.736127442760285" lon="-5.766272154710596"><ele>16.0</ele><time>2026-04-22T08:35:33Z</time></trkpt><trkpt lat="35.73618696802746" lon="-5.766340117085645"><ele>16.0</ele><time>2026-04-22T08:35:34Z</time></trkpt><trkpt lat="35.73625470961178" lon="-5.766418816597247"><ele>16.0</ele><time>2026-04-22T08:35:35Z</time></trkpt><trkpt lat="35.736331386020915" lon="-5.766505457681942"><ele>16.0</ele><time>2026-04-22T08:35:36Z</time></trkpt><trkpt lat="35.73641801020957" lon="-5.7666052041062565"><ele>16.0</ele><time>2026-04-22T08:35:37Z</time></trkpt><trkpt lat="35.736514596767" lon="-5.766717813335697"><ele>16.0</ele><time>2026-04-22T08:35:38Z</time></trkpt><trkpt lat="35.73661055690823" lon="-5.766830714590983"><ele>16.0</ele><time>2026-04-22T08:35:39Z</time></trkpt><trkpt lat="35.73670858815925" lon="-5.766946727413227"><ele>16.0</ele><time>2026-04-22T08:35:40Z</time></trkpt><trkpt lat="35.736813321363634" lon="-5.767070026785955"><ele>16.0</ele><time>2026-04-22T08:35:41Z</time></trkpt><trkpt lat="35.736923574847495" lon="-5.767199083832047"><ele>15.333333333333332</ele><time>2026-04-22T08:35:42Z</time></trkpt><trkpt lat="35.73703833603997" lon="-5.767333712796085"><ele>14.666666666666668</ele><time>2026-04-22T08:35:43Z</time></trkpt><trkpt lat="35.73715346745868" lon="-5.767468796719508"><ele>14.0</ele><time>2026-04-22T08:35:44Z</time></trkpt><trkpt lat="35.73727145112808" lon="-5.7676068209229205"><ele>14.0</ele><time>2026-04-22T08:35:45Z</time></trkpt><trkpt lat="35.73739250760828" lon="-5.767749499724198"><ele>14.0</ele><time>2026-04-22T08:35:46Z</time></trkpt><trkpt lat="35.73751403627342" lon="-5.767896695939055"><ele>14.0</ele><time>2026-04-22T08:35:47Z</time></trkpt><trkpt lat="35.737635102341294" lon="-5.768045023638864"><ele>14.333333333333334</ele><time>2026-04-22T08:35:48Z</time></trkpt><trkpt lat="35.73775108767006" lon="-5.768190241045422"><ele>14.666666666666668</ele><time>2026-04-22T08:35:49Z</time></trkpt><trkpt lat="35.73785911622875" lon="-5.768324482006775"><ele>15.0</ele><time>2026-04-22T08:35:50Z</time></trkpt><trkpt lat="35.73795838819742" lon="-5.7684471383230065"><ele>14.5</ele><time>2026-04-22T08:35:51Z</time></trkpt><trkpt lat="35.738051232882704" lon="-5.768561119564962"><ele>14.0</ele><time>2026-04-22T08:35:52Z</time></trkpt><trkpt lat="35.73813895436418" lon="-5.768671532573415"><ele>13.5</ele><time>2026-04-22T08:35:53Z</time></trkpt><trkpt lat="35.73822573215409" lon="-5.768782937786838"><ele>13.0</ele><time>2026-04-22T08:35:54Z</time></trkpt><trkpt lat="35.73831074508545" lon="-5.768892988246579"><ele>13.0</ele><time>2026-04-22T08:35:55Z</time></trkpt><trkpt lat="35.73839262234114" lon="-5.769005229501774"><ele>13.0</ele><time>2026-04-22T08:35:56Z</time></trkpt><trkpt lat="35.73846940134326" lon="-5.7691204427561855"><ele>13.0</ele><time>2026-04-22T08:35:57Z</time></trkpt><trkpt lat="35.73854178715508" lon="-5.769235181015912"><ele>13.0</ele><time>2026-04-22T08:35:58Z</time></trkpt><trkpt lat="35.73861250033982" lon="-5.769351393663772"><ele>13.5</ele><time>2026-04-22T08:35:59Z</time></trkpt><trkpt lat="35.73867963715994" lon="-5.769472115874958"><ele>14.0</ele><time>2026-04-22T08:36:00Z</time></trkpt><trkpt lat="35.7387450958476" lon="-5.769593545097112"><ele>14.5</ele><time>2026-04-22T08:36:01Z</time></trkpt><trkpt lat="35.73880836909283" lon="-5.769716307757758"><ele>15.0</ele><time>2026-04-22T08:36:02Z</time></trkpt><trkpt lat="35.73886933448363" lon="-5.769840115538856"><ele>15.0</ele><time>2026-04-22T08:36:03Z</time></trkpt><trkpt lat="35.738927751563715" lon="-5.769964412260969"><ele>15.0</ele><time>2026-04-22T08:36:04Z</time></trkpt><trkpt lat="35.73898399797196" lon="-5.770089864891528"><ele>15.0</ele><time>2026-04-22T08:36:05Z</time></trkpt><trkpt lat="35.73903862593955" lon="-5.770215731400989"><ele>15.0</ele><time>2026-04-22T08:36:06Z</time></trkpt><trkpt lat="35.73909354972816" lon="-5.770340375019615"><ele>13.75</ele><time>2026-04-22T08:36:07Z</time></trkpt><trkpt lat="35.73914725546404" lon="-5.770464017163677"><ele>12.5</ele><time>2026-04-22T08:36:08Z</time></trkpt><trkpt lat="35.73920071595225" lon="-5.770586215288739"><ele>11.25</ele><time>2026-04-22T08:36:09Z</time></trkpt><trkpt lat="35.73925419825205" lon="-5.770709210920422"><ele>10.0</ele><time>2026-04-22T08:36:10Z</time></trkpt><trkpt lat="35.73930854525481" lon="-5.770830496727782"><ele>10.0</ele><time>2026-04-22T08:36:11Z</time></trkpt><trkpt lat="35.73936386101397" lon="-5.770952852396798"><ele>10.0</ele><time>2026-04-22T08:36:12Z</time></trkpt><trkpt lat="35.73941910331941" lon="-5.771075387748529"><ele>10.0</ele><time>2026-04-22T08:36:13Z</time></trkpt><trkpt lat="35.73948946029785" lon="-5.771195045615585"><ele>10.0</ele><time>2026-04-22T08:36:14Z</time></trkpt><trkpt lat="35.739531655555865" lon="-5.771327522441405"><ele>10.75</ele><time>2026-04-22T08:36:15Z</time></trkpt><trkpt lat="35.739593829853035" lon="-5.7714613928112675"><ele>11.5</ele><time>2026-04-22T08:36:16Z</time></trkpt><trkpt lat="35.739658398867725" lon="-5.771600206550058"><ele>12.25</ele><time>2026-04-22T08:36:17Z</time></trkpt><trkpt lat="35.73972631297693" lon="-5.771744739301931"><ele>13.0</ele><time>2026-04-22T08:36:18Z</time></trkpt><trkpt lat="35.73979748381416" lon="-5.771898359138573"><ele>13.0</ele><time>2026-04-22T08:36:19Z</time></trkpt><trkpt lat="35.739868957184726" lon="-5.772055155110582"><ele>13.0</ele><time>2026-04-22T08:36:20Z</time></trkpt><trkpt lat="35.73994026966594" lon="-5.7722171992969695"><ele>13.0</ele><time>2026-04-22T08:36:21Z</time></trkpt><trkpt lat="35.740011249132" lon="-5.772382772213523"><ele>13.0</ele><time>2026-04-22T08:36:22Z</time></trkpt><trkpt lat="35.74008306141993" lon="-5.77254947702745"><ele>12.666666666666666</ele><time>2026-04-22T08:36:23Z</time></trkpt><trkpt lat="35.74015850688602" lon="-5.772714965104189"><ele>12.333333333333332</ele><time>2026-04-22T08:36:24Z</time></trkpt><trkpt lat="35.740236753031795" lon="-5.772883212887742"><ele>12.0</ele><time>2026-04-22T08:36:25Z</time></trkpt><trkpt lat="35.74031379685101" lon="-5.77305305803034"><ele>12.666666666666668</ele><time>2026-04-22T08:36:26Z</time></trkpt><trkpt lat="35.740391363528005" lon="-5.77322753843791"><ele>13.333333333333334</ele><time>2026-04-22T08:36:27Z</time></trkpt><trkpt lat="35.74047167548086" lon="-5.773409681635939"><ele>14.0</ele><time>2026-04-22T08:36:28Z</time></trkpt><trkpt lat="35.740550791232465" lon="-5.77358672924984"><ele>14.0</ele><time>2026-04-22T08:36:29Z</time></trkpt><trkpt lat="35.7406280921882" lon="-5.773757984730015"><ele>14.0</ele><time>2026-04-22T08:36:30Z</time></trkpt><trkpt lat="35.74071067552938" lon="-5.77393424599665"><ele>14.0</ele><time>2026-04-22T08:36:31Z</time></trkpt><trkpt lat="35.740802407135774" lon="-5.774109214527919"><ele>14.0</ele><time>2026-04-22T08:36:32Z</time></trkpt><trkpt lat="35.74089104500408" lon="-5.774282194881858"><ele>14.0</ele><time>2026-04-22T08:36:33Z</time></trkpt><trkpt lat="35.7409774061525" lon="-5.7744492613978355"><ele>14.0</ele><time>2026-04-22T08:36:34Z</time></trkpt><trkpt lat="35.74106500232218" lon="-5.774611858640339"><ele>14.666666666666668</ele><time>2026-04-22T08:36:35Z</time></trkpt><trkpt lat="35.7411566290742" lon="-5.774768939960719"><ele>15.333333333333332</ele><time>2026-04-22T08:36:36Z</time></trkpt><trkpt lat="35.7412520863278" lon="-5.774922390262644"><ele>16.0</ele><time>2026-04-22T08:36:37Z</time></trkpt><trkpt lat="35.74134042472516" lon="-5.7750719359953475"><ele>15.0</ele><time>2026-04-22T08:36:38Z</time></trkpt><trkpt lat="35.741432420323356" lon="-5.775221092938362"><ele>14.0</ele><time>2026-04-22T08:36:39Z</time></trkpt><trkpt lat="35.74152435145495" lon="-5.775370070957233"><ele>13.0</ele><time>2026-04-22T08:36:40Z</time></trkpt><trkpt lat="35.741617694088795" lon="-5.775518091634717"><ele>13.0</ele><time>2026-04-22T08:36:41Z</time></trkpt><trkpt lat="35.74171752045139" lon="-5.7756702852011115"><ele>13.0</ele><time>2026-04-22T08:36:42Z</time></trkpt><trkpt lat="35.741819849475405" lon="-5.775821592900909"><ele>13.0</ele><time>2026-04-22T08:36:43Z</time></trkpt><trkpt lat="35.74192337257735" lon="-5.77597687313746"><ele>13.333333333333332</ele><time>2026-04-22T08:36:44Z</time></trkpt><trkpt lat="35.74202894998264" lon="-5.7761354740078215"><ele>13.666666666666668</ele><time>2026-04-22T08:36:45Z</time></trkpt><trkpt lat="35.74213384015761" lon="-5.776292230142305"><ele>14.0</ele><time>2026-04-22T08:36:46Z</time></trkpt><trkpt lat="35.74223771729648" lon="-5.776448911001357"><ele>14.0</ele><time>2026-04-22T08:36:47Z</time></trkpt><trkpt lat="35.74233870952816" lon="-5.776600582413164"><ele>14.0</ele><time>2026-04-22T08:36:48Z</time></trkpt><trkpt lat="35.74243554763837" lon="-5.776751374909981"><ele>14.0</ele><time>2026-04-22T08:36:49Z</time></trkpt><trkpt lat="35.74253501375918" lon="-5.77690316822425"><ele>13.5</ele><time>2026-04-22T08:36:50Z</time></trkpt><trkpt lat="35.74263127058423" lon="-5.7770504640427776"><ele>13.0</ele><time>2026-04-22T08:36:51.001Z</time></trkpt><trkpt lat="35.74272364657756" lon="-5.777195698720575"><ele>12.5</ele><time>2026-04-22T08:36:52.001Z</time></trkpt><trkpt lat="35.742814714762524" lon="-5.77733553408844"><ele>12.0</ele><time>2026-04-22T08:36:53.001Z</time></trkpt><trkpt lat="35.74290107850969" lon="-5.777471663799757"><ele>12.25</ele><time>2026-04-22T08:36:54.001Z</time></trkpt><trkpt lat="35.74298210584419" lon="-5.777597853935792"><ele>12.5</ele><time>2026-04-22T08:36:55.001Z</time></trkpt><trkpt lat="35.7430613694577" lon="-5.777721751996862"><ele>12.75</ele><time>2026-04-22T08:36:56.001Z</time></trkpt><trkpt lat="35.74313849294754" lon="-5.777842216555901"><ele>13.0</ele><time>2026-04-22T08:36:57.001Z</time></trkpt><trkpt lat="35.743211868858936" lon="-5.777957897117401"><ele>13.0</ele><time>2026-04-22T08:36:58.001Z</time></trkpt><trkpt lat="35.74327754828003" lon="-5.778068791443865"><ele>13.0</ele><time>2026-04-22T08:36:59.001Z</time></trkpt><trkpt lat="35.743339473675476" lon="-5.778174962743871"><ele>13.0</ele><time>2026-04-22T08:37:00.001Z</time></trkpt><trkpt lat="35.74339740582168" lon="-5.7782731742605415"><ele>13.0</ele><time>2026-04-22T08:37:01.001Z</time></trkpt><trkpt lat="35.74344756822389" lon="-5.778358890850491"><ele>13.0</ele><time>2026-04-22T08:37:02.001Z</time></trkpt><trkpt lat="35.74348921660244" lon="-5.778426300288612"><ele>13.600000000000001</ele><time>2026-04-22T08:37:03.001Z</time></trkpt><trkpt lat="35.74355388103098" lon="-5.778524154392202"><ele>14.200000000000001</ele><time>2026-04-22T08:37:05.001Z</time></trkpt><trkpt lat="35.74362226764835" lon="-5.7786295728118935"><ele>14.8</ele><time>2026-04-22T08:37:07.001Z</time></trkpt><trkpt lat="35.74366838105854" lon="-5.778697890271036"><ele>15.4</ele><time>2026-04-22T08:37:08.001Z</time></trkpt><trkpt lat="35.74370369149531" lon="-5.778793160050131"><ele>16.0</ele><time>2026-04-22T08:37:09.001Z</time></trkpt><trkpt lat="35.74373868517287" lon="-5.778897953807466"><ele>16.0</ele><time>2026-04-22T08:37:10.001Z</time></trkpt><trkpt lat="35.743777360259415" lon="-5.779005393346563"><ele>16.0</ele><time>2026-04-22T08:37:11.001Z</time></trkpt><trkpt lat="35.74382030414651" lon="-5.77912437032258"><ele>16.0</ele><time>2026-04-22T08:37:12.001Z</time></trkpt><trkpt lat="35.743870713694015" lon="-5.779261926886587"><ele>16.0</ele><time>2026-04-22T08:37:13.001Z</time></trkpt><trkpt lat="35.7439251481011" lon="-5.779407550946806"><ele>16.25</ele><time>2026-04-22T08:37:14.001Z</time></trkpt><trkpt lat="35.74397938211376" lon="-5.7795501176325255"><ele>16.5</ele><time>2026-04-22T08:37:15.001Z</time></trkpt><trkpt lat="35.74403296760505" lon="-5.779693347532536"><ele>16.75</ele><time>2026-04-22T08:37:16Z</time></trkpt><trkpt lat="35.744087577803356" lon="-5.779832223282158"><ele>17.0</ele><time>2026-04-22T08:37:17Z</time></trkpt><trkpt lat="35.744142617247114" lon="-5.7799724337186165"><ele>17.0</ele><time>2026-04-22T08:37:18Z</time></trkpt><trkpt lat="35.7441981844175" lon="-5.780114568664351"><ele>17.0</ele><time>2026-04-22T08:37:19Z</time></trkpt><trkpt lat="35.74425439235482" lon="-5.780253519779556"><ele>17.0</ele><time>2026-04-22T08:37:20Z</time></trkpt><trkpt lat="35.74431125559051" lon="-5.780387342384792"><ele>17.0</ele><time>2026-04-22T08:37:21Z</time></trkpt><trkpt lat="35.744368957155494" lon="-5.780523147146927"><ele>16.5</ele><time>2026-04-22T08:37:22Z</time></trkpt><trkpt lat="35.74442837593677" lon="-5.780663201318618"><ele>16.0</ele><time>2026-04-22T08:37:23Z</time></trkpt><trkpt lat="35.744489949810394" lon="-5.780809458713578"><ele>15.5</ele><time>2026-04-22T08:37:24Z</time></trkpt><trkpt lat="35.74455143009065" lon="-5.7809553720412765"><ele>15.0</ele><time>2026-04-22T08:37:25Z</time></trkpt><trkpt lat="35.74461180305315" lon="-5.781099168491678"><ele>15.0</ele><time>2026-04-22T08:37:26Z</time></trkpt><trkpt lat="35.74467302479591" lon="-5.781244932380874"><ele>15.0</ele><time>2026-04-22T08:37:27Z</time></trkpt><trkpt lat="35.744732868606" lon="-5.781388883427296"><ele>15.0</ele><time>2026-04-22T08:37:28Z</time></trkpt><trkpt lat="35.74479363843115" lon="-5.781533783274513"><ele>15.0</ele><time>2026-04-22T08:37:29Z</time></trkpt><trkpt lat="35.74485803880211" lon="-5.781680265556588"><ele>15.0</ele><time>2026-04-22T08:37:30Z</time></trkpt><trkpt lat="35.74492718597212" lon="-5.78183034525771"><ele>15.0</ele><time>2026-04-22T08:37:31Z</time></trkpt><trkpt lat="35.74499474314401" lon="-5.781977187666507"><ele>15.0</ele><time>2026-04-22T08:37:32Z</time></trkpt><trkpt lat="35.745065445589454" lon="-5.782119085075395"><ele>15.0</ele><time>2026-04-22T08:37:33Z</time></trkpt><trkpt lat="35.74513298198054" lon="-5.782255006645131"><ele>14.75</ele><time>2026-04-22T08:37:34Z</time></trkpt><trkpt lat="35.74520208428546" lon="-5.782380928521475"><ele>14.5</ele><time>2026-04-22T08:37:35Z</time></trkpt><trkpt lat="35.74527073163107" lon="-5.782502029192615"><ele>14.25</ele><time>2026-04-22T08:37:36Z</time></trkpt><trkpt lat="35.74533524755417" lon="-5.782615110618076"><ele>14.0</ele><time>2026-04-22T08:37:37Z</time></trkpt><trkpt lat="35.745395861099254" lon="-5.7827183645441504"><ele>14.333333333333334</ele><time>2026-04-22T08:37:38Z</time></trkpt><trkpt lat="35.7454537958489" lon="-5.78281266739813"><ele>14.666666666666668</ele><time>2026-04-22T08:37:39Z</time></trkpt><trkpt lat="35.74550330160589" lon="-5.782892504931627"><ele>15.0</ele><time>2026-04-22T08:37:40Z</time></trkpt><trkpt lat="35.745544708226255" lon="-5.7829592006079595"><ele>15.333333333333332</ele><time>2026-04-22T08:37:41Z</time></trkpt><trkpt lat="35.74561004348885" lon="-5.783063233101922"><ele>15.666666666666666</ele><time>2026-04-22T08:37:43Z</time></trkpt><trkpt lat="35.74565918007146" lon="-5.783140496847788"><ele>16.0</ele><time>2026-04-22T08:37:45Z</time></trkpt><trkpt lat="35.7457014584321" lon="-5.783208501076213"><ele>16.0</ele><time>2026-04-22T08:37:52Z</time></trkpt><trkpt lat="35.74574671907486" lon="-5.783278331238154"><ele>16.0</ele><time>2026-04-22T08:37:55Z</time></trkpt><trkpt lat="35.74580203279793" lon="-5.783362973108034"><ele>16.0</ele><time>2026-04-22T08:37:57Z</time></trkpt><trkpt lat="35.74586614996675" lon="-5.783454925359842"><ele>16.0</ele><time>2026-04-22T08:37:59Z</time></trkpt><trkpt lat="35.74594804463981" lon="-5.783573314978151"><ele>16.0</ele><time>2026-04-22T08:38:01Z</time></trkpt><trkpt lat="35.745999067225895" lon="-5.7836491533632035"><ele>16.0</ele><time>2026-04-22T08:38:02Z</time></trkpt><trkpt lat="35.74604597158985" lon="-5.783721349629033"><ele>16.0</ele><time>2026-04-22T08:38:03Z</time></trkpt><trkpt lat="35.746098344009695" lon="-5.783800980340557"><ele>16.0</ele><time>2026-04-22T08:38:04Z</time></trkpt><trkpt lat="35.746159537200235" lon="-5.783894001188872"><ele>16.0</ele><time>2026-04-22T08:38:05Z</time></trkpt><trkpt lat="35.74622712374331" lon="-5.783996652604679"><ele>16.0</ele><time>2026-04-22T08:38:06Z</time></trkpt><trkpt lat="35.746298162035814" lon="-5.78410802522787"><ele>16.0</ele><time>2026-04-22T08:38:07Z</time></trkpt><trkpt lat="35.74637322216514" lon="-5.784219403084593"><ele>16.0</ele><time>2026-04-22T08:38:08Z</time></trkpt><trkpt lat="35.746449413101594" lon="-5.784329850437849"><ele>16.0</ele><time>2026-04-22T08:38:09Z</time></trkpt><trkpt lat="35.746529647319896" lon="-5.784446339305247"><ele>16.0</ele><time>2026-04-22T08:38:10Z</time></trkpt><trkpt lat="35.746614938752394" lon="-5.784567484796938"><ele>16.5</ele><time>2026-04-22T08:38:11Z</time></trkpt><trkpt lat="35.74670139991145" lon="-5.78468482880534"><ele>17.0</ele><time>2026-04-22T08:38:12Z</time></trkpt><trkpt lat="35.746778119735275" lon="-5.784807940216308"><ele>17.5</ele><time>2026-04-22T08:38:13Z</time></trkpt><trkpt lat="35.74687959326515" lon="-5.784921039968647"><ele>18.0</ele><time>2026-04-22T08:38:14Z</time></trkpt><trkpt lat="35.74697050722848" lon="-5.785038977223327"><ele>18.0</ele><time>2026-04-22T08:38:15Z</time></trkpt><trkpt lat="35.74706552172736" lon="-5.785158549325233"><ele>18.0</ele><time>2026-04-22T08:38:16Z</time></trkpt><trkpt lat="35.747162246343635" lon="-5.785278791329293"><ele>18.0</ele><time>2026-04-22T08:38:17Z</time></trkpt><trkpt lat="35.74725804501821" lon="-5.785394336422005"><ele>18.0</ele><time>2026-04-22T08:38:18Z</time></trkpt><trkpt lat="35.74735722994658" lon="-5.785505842067047"><ele>18.25</ele><time>2026-04-22T08:38:19Z</time></trkpt><trkpt lat="35.74745682096955" lon="-5.785615130789766"><ele>18.5</ele><time>2026-04-22T08:38:20Z</time></trkpt><trkpt lat="35.7475590146423" lon="-5.785718533944328"><ele>18.75</ele><time>2026-04-22T08:38:21Z</time></trkpt><trkpt lat="35.747662125025165" lon="-5.785822176050397"><ele>19.0</ele><time>2026-04-22T08:38:22Z</time></trkpt><trkpt lat="35.74776584478566" lon="-5.785926330675477"><ele>17.0</ele><time>2026-04-22T08:38:23Z</time></trkpt><trkpt lat="35.747871267534414" lon="-5.786030578713298"><ele>15.0</ele><time>2026-04-22T08:38:24Z</time></trkpt><trkpt lat="35.74797873294303" lon="-5.78613542155699"><ele>13.0</ele><time>2026-04-22T08:38:25Z</time></trkpt><trkpt lat="35.748087269657184" lon="-5.786237417987547"><ele>11.0</ele><time>2026-04-22T08:38:26Z</time></trkpt><trkpt lat="35.74819721909407" lon="-5.78633742968062"><ele>11.0</ele><time>2026-04-22T08:38:27Z</time></trkpt><trkpt lat="35.74830765867814" lon="-5.7864340021608935"><ele>11.0</ele><time>2026-04-22T08:38:28Z</time></trkpt><trkpt lat="35.748418458106535" lon="-5.786530291518189"><ele>11.0</ele><time>2026-04-22T08:38:29Z</time></trkpt><trkpt lat="35.748532895342436" lon="-5.78662340358647"><ele>11.0</ele><time>2026-04-22T08:38:30Z</time></trkpt><trkpt lat="35.74864824561911" lon="-5.7867142292616665"><ele>11.25</ele><time>2026-04-22T08:38:31Z</time></trkpt><trkpt lat="35.748769575872764" lon="-5.786809120490538"><ele>11.5</ele><time>2026-04-22T08:38:32Z</time></trkpt><trkpt lat="35.74889214737528" lon="-5.786906913371513"><ele>11.75</ele><time>2026-04-22T08:38:33Z</time></trkpt><trkpt lat="35.74901805000783" lon="-5.786997917746025"><ele>12.0</ele><time>2026-04-22T08:38:34Z</time></trkpt><trkpt lat="35.74914176011611" lon="-5.787089024200229"><ele>11.25</ele><time>2026-04-22T08:38:35Z</time></trkpt><trkpt lat="35.74926737839814" lon="-5.787177706086209"><ele>10.5</ele><time>2026-04-22T08:38:36Z</time></trkpt><trkpt lat="35.74939549940132" lon="-5.787263124802766"><ele>9.75</ele><time>2026-04-22T08:38:37Z</time></trkpt><trkpt lat="35.74952080891391" lon="-5.787348896420263"><ele>9.0</ele><time>2026-04-22T08:38:38Z</time></trkpt><trkpt lat="35.74964178646323" lon="-5.787431285284949"><ele>9.0</ele><time>2026-04-22T08:38:39Z</time></trkpt><trkpt lat="35.74976441342552" lon="-5.787512700460861"><ele>9.0</ele><time>2026-04-22T08:38:40Z</time></trkpt><trkpt lat="35.74988919960396" lon="-5.787598158243075"><ele>9.0</ele><time>2026-04-22T08:38:41Z</time></trkpt><trkpt lat="35.7500180765964" lon="-5.787686490360751"><ele>9.0</ele><time>2026-04-22T08:38:42Z</time></trkpt><trkpt lat="35.75015053053333" lon="-5.787778364102762"><ele>9.0</ele><time>2026-04-22T08:38:43Z</time></trkpt><trkpt lat="35.750284519478065" lon="-5.787872616935557"><ele>9.0</ele><time>2026-04-22T08:38:44Z</time></trkpt><trkpt lat="35.750417168873426" lon="-5.787961889556461"><ele>9.0</ele><time>2026-04-22T08:38:45Z</time></trkpt><trkpt lat="35.750545981063425" lon="-5.788046338514001"><ele>9.0</ele><time>2026-04-22T08:38:46Z</time></trkpt><trkpt lat="35.750669260896245" lon="-5.788126351187826"><ele>9.0</ele><time>2026-04-22T08:38:47Z</time></trkpt><trkpt lat="35.75078685796348" lon="-5.788205148041912"><ele>9.0</ele><time>2026-04-22T08:38:48Z</time></trkpt><trkpt lat="35.75089735244443" lon="-5.788283524872937"><ele>9.0</ele><time>2026-04-22T08:38:49Z</time></trkpt><trkpt lat="35.7510032730635" lon="-5.788355906549828"><ele>8.75</ele><time>2026-04-22T08:38:50Z</time></trkpt><trkpt lat="35.75110847071858" lon="-5.788428891602283"><ele>8.5</ele><time>2026-04-22T08:38:51Z</time></trkpt><trkpt lat="35.75121657876526" lon="-5.788502128862976"><ele>8.25</ele><time>2026-04-22T08:38:52Z</time></trkpt><trkpt lat="35.75133066836582" lon="-5.788580349636039"><ele>8.0</ele><time>2026-04-22T08:38:53Z</time></trkpt><trkpt lat="35.751447095402604" lon="-5.7886607486433315"><ele>8.0</ele><time>2026-04-22T08:38:54Z</time></trkpt><trkpt lat="35.751565514757445" lon="-5.788742485170264"><ele>8.0</ele><time>2026-04-22T08:38:55Z</time></trkpt><trkpt lat="35.75168463528402" lon="-5.788825033666003"><ele>8.0</ele><time>2026-04-22T08:38:56Z</time></trkpt><trkpt lat="35.75180033654316" lon="-5.788906248581592"><ele>8.0</ele><time>2026-04-22T08:38:57.001Z</time></trkpt><trkpt lat="35.75190877344799" lon="-5.788978385462236"><ele>7.75</ele><time>2026-04-22T08:38:58.001Z</time></trkpt><trkpt lat="35.75201915892689" lon="-5.789052324694157"><ele>7.5</ele><time>2026-04-22T08:38:59.001Z</time></trkpt><trkpt lat="35.75212954817895" lon="-5.789127714317743"><ele>7.25</ele><time>2026-04-22T08:39:00.001Z</time></trkpt><trkpt lat="35.75224012209325" lon="-5.789203256235561"><ele>7.0</ele><time>2026-04-22T08:39:01.001Z</time></trkpt><trkpt lat="35.752348281176424" lon="-5.789277781637076"><ele>6.75</ele><time>2026-04-22T08:39:02.001Z</time></trkpt><trkpt lat="35.752455285767645" lon="-5.789348570442447"><ele>6.5</ele><time>2026-04-22T08:39:03.001Z</time></trkpt><trkpt lat="35.75256314200242" lon="-5.7894154621082885"><ele>6.25</ele><time>2026-04-22T08:39:04.001Z</time></trkpt><trkpt lat="35.75267495488363" lon="-5.7894794817599795"><ele>6.0</ele><time>2026-04-22T08:39:05.001Z</time></trkpt><trkpt lat="35.752793403453936" lon="-5.78954633461398"><ele>6.0</ele><time>2026-04-22T08:39:06.001Z</time></trkpt><trkpt lat="35.75291917039898" lon="-5.789618125761278"><ele>6.0</ele><time>2026-04-22T08:39:07.001Z</time></trkpt><trkpt lat="35.753050382139456" lon="-5.789696970911254"><ele>6.0</ele><time>2026-04-22T08:39:08.001Z</time></trkpt><trkpt lat="35.75318636100553" lon="-5.789772928984004"><ele>6.0</ele><time>2026-04-22T08:39:09.001Z</time></trkpt><trkpt lat="35.75331984899398" lon="-5.7898489246774645"><ele>6.0</ele><time>2026-04-22T08:39:10.001Z</time></trkpt><trkpt lat="35.753454444370995" lon="-5.789923968546953"><ele>6.0</ele><time>2026-04-22T08:39:11.001Z</time></trkpt><trkpt lat="35.75359493630382" lon="-5.789999469314802"><ele>6.0</ele><time>2026-04-22T08:39:12.001Z</time></trkpt><trkpt lat="35.753735919404534" lon="-5.790079384984613"><ele>5.333333333333333</ele><time>2026-04-22T08:39:13.001Z</time></trkpt><trkpt lat="35.75388009214559" lon="-5.790160147943189"><ele>4.666666666666666</ele><time>2026-04-22T08:39:14.001Z</time></trkpt><trkpt lat="35.75402902594791" lon="-5.7902463543661264"><ele>4.0</ele><time>2026-04-22T08:39:15.001Z</time></trkpt><trkpt lat="35.75418331705911" lon="-5.790334386834413"><ele>3.6666666666666665</ele><time>2026-04-22T08:39:16.001Z</time></trkpt><trkpt lat="35.754340207393795" lon="-5.7904230932257805"><ele>3.333333333333333</ele><time>2026-04-22T08:39:17.001Z</time></trkpt><trkpt lat="35.7544977767499" lon="-5.790511972036125"><ele>3.0</ele><time>2026-04-22T08:39:18.001Z</time></trkpt><trkpt lat="35.75465943132731" lon="-5.790603812912901"><ele>4.0</ele><time>2026-04-22T08:39:19.001Z</time></trkpt><trkpt lat="35.754823950891556" lon="-5.79069521671983"><ele>5.0</ele><time>2026-04-22T08:39:20.001Z</time></trkpt><trkpt lat="35.75498906274015" lon="-5.790788886690519"><ele>6.0</ele><time>2026-04-22T08:39:21.001Z</time></trkpt><trkpt lat="35.75515341270399" lon="-5.790881965963886"><ele>7.0</ele><time>2026-04-22T08:39:22.001Z</time></trkpt><trkpt lat="35.75531400542356" lon="-5.7909688029066215"><ele>8.0</ele><time>2026-04-22T08:39:23.001Z</time></trkpt><trkpt lat="35.75547049587838" lon="-5.791059873170096"><ele>9.0</ele><time>2026-04-22T08:39:24.001Z</time></trkpt><trkpt lat="35.755616384356856" lon="-5.791156685079577"><ele>9.0</ele><time>2026-04-22T08:39:25.001Z</time></trkpt><trkpt lat="35.755771749060315" lon="-5.7912226989105475"><ele>9.0</ele><time>2026-04-22T08:39:26Z</time></trkpt><trkpt lat="35.75591075700362" lon="-5.791299786345707"><ele>9.0</ele><time>2026-04-22T08:39:27Z</time></trkpt><trkpt lat="35.75604226389593" lon="-5.791374192611658"><ele>8.25</ele><time>2026-04-22T08:39:28Z</time></trkpt><trkpt lat="35.7561591593708" lon="-5.791439169202806"><ele>7.5</ele><time>2026-04-22T08:39:29Z</time></trkpt><trkpt lat="35.756276579308036" lon="-5.791502930932956"><ele>6.75</ele><time>2026-04-22T08:39:30Z</time></trkpt><trkpt lat="35.75639379566744" lon="-5.791561698047024"><ele>6.0</ele><time>2026-04-22T08:39:31Z</time></trkpt><trkpt lat="35.7565084846729" lon="-5.791615237661861"><ele>6.0</ele><time>2026-04-22T08:39:32Z</time></trkpt><trkpt lat="35.75661478017778" lon="-5.791661130043849"><ele>6.0</ele><time>2026-04-22T08:39:33Z</time></trkpt><trkpt lat="35.75671764489121" lon="-5.79170102995674"><ele>6.0</ele><time>2026-04-22T08:39:34Z</time></trkpt><trkpt lat="35.75681574977667" lon="-5.791743572911747"><ele>6.0</ele><time>2026-04-22T08:39:35Z</time></trkpt><trkpt lat="35.75690447805194" lon="-5.791786340903759"><ele>6.0</ele><time>2026-04-22T08:39:36Z</time></trkpt><trkpt lat="35.756987688353206" lon="-5.791832740562473"><ele>7.4</ele><time>2026-04-22T08:39:37Z</time></trkpt><trkpt lat="35.75706969326114" lon="-5.791886029837262"><ele>8.8</ele><time>2026-04-22T08:39:38Z</time></trkpt><trkpt lat="35.757150910079055" lon="-5.791945300348038"><ele>10.200000000000001</ele><time>2026-04-22T08:39:39Z</time></trkpt><trkpt lat="35.75723049577815" lon="-5.791999887596455"><ele>11.6</ele><time>2026-04-22T08:39:40Z</time></trkpt><trkpt lat="35.75730842369544" lon="-5.792053184300504"><ele>13.0</ele><time>2026-04-22T08:39:41Z</time></trkpt><trkpt lat="35.757384281095185" lon="-5.792101394819968"><ele>12.999999999999998</ele><time>2026-04-22T08:39:42Z</time></trkpt><trkpt lat="35.75745676181693" lon="-5.792149056350378"><ele>13.0</ele><time>2026-04-22T08:39:43Z</time></trkpt><trkpt lat="35.75752737499985" lon="-5.792194056612889"><ele>13.0</ele><time>2026-04-22T08:39:44Z</time></trkpt><trkpt lat="35.757595600973886" lon="-5.792237738413148"><ele>13.0</ele><time>2026-04-22T08:39:45Z</time></trkpt><trkpt lat="35.75765583350371" lon="-5.792274448981293"><ele>12.999999999999998</ele><time>2026-04-22T08:39:46Z</time></trkpt><trkpt lat="35.757741679629575" lon="-5.792324781337517"><ele>13.0</ele><time>2026-04-22T08:39:48Z</time></trkpt><trkpt lat="35.75780148678019" lon="-5.792360509230634"><ele>13.600000000000001</ele><time>2026-04-22T08:39:52Z</time></trkpt><trkpt lat="35.757879822408064" lon="-5.792395305387502"><ele>14.200000000000001</ele><time>2026-04-22T08:39:56Z</time></trkpt><trkpt lat="35.757966853489" lon="-5.792443621903629"><ele>14.8</ele><time>2026-04-22T08:39:58Z</time></trkpt><trkpt lat="35.75808089014219" lon="-5.792518636418328"><ele>15.4</ele><time>2026-04-22T08:40:00Z</time></trkpt><trkpt lat="35.75815941737406" lon="-5.792568419441796"><ele>16.0</ele><time>2026-04-22T08:40:01Z</time></trkpt><trkpt lat="35.75824001698198" lon="-5.792625372955868"><ele>15.499999999999998</ele><time>2026-04-22T08:40:02Z</time></trkpt><trkpt lat="35.75831874895473" lon="-5.792680640418945"><ele>15.0</ele><time>2026-04-22T08:40:03Z</time></trkpt><trkpt lat="35.75839961901299" lon="-5.792735808559236"><ele>14.5</ele><time>2026-04-22T08:40:04Z</time></trkpt><trkpt lat="35.75847750513414" lon="-5.792791158847524"><ele>14.0</ele><time>2026-04-22T08:40:05Z</time></trkpt><trkpt lat="35.75855448289245" lon="-5.792846870191924"><ele>13.499999999999998</ele><time>2026-04-22T08:40:06Z</time></trkpt><trkpt lat="35.758625026661214" lon="-5.792900188954074"><ele>13.0</ele><time>2026-04-22T08:40:07Z</time></trkpt><trkpt lat="35.758695587492085" lon="-5.792952389304209"><ele>12.4</ele><time>2026-04-22T08:40:08Z</time></trkpt><trkpt lat="35.75877530200697" lon="-5.793008563668574"><ele>11.8</ele><time>2026-04-22T08:40:09Z</time></trkpt><trkpt lat="35.75886141772315" lon="-5.7930711336747045"><ele>11.2</ele><time>2026-04-22T08:40:10Z</time></trkpt><trkpt lat="35.758951948529436" lon="-5.79313395347784"><ele>10.6</ele><time>2026-04-22T08:40:11Z</time></trkpt><trkpt lat="35.75905087618605" lon="-5.793200310847992"><ele>10.0</ele><time>2026-04-22T08:40:12Z</time></trkpt><trkpt lat="35.75915083463543" lon="-5.793265854890384"><ele>10.0</ele><time>2026-04-22T08:40:13Z</time></trkpt><trkpt lat="35.75924671906543" lon="-5.7933314230981505"><ele>10.0</ele><time>2026-04-22T08:40:14Z</time></trkpt><trkpt lat="35.759348122438254" lon="-5.7933971149403805"><ele>10.0</ele><time>2026-04-22T08:40:15Z</time></trkpt><trkpt lat="35.75945606260983" lon="-5.793473420288936"><ele>10.0</ele><time>2026-04-22T08:40:16Z</time></trkpt><trkpt lat="35.759565488626954" lon="-5.793551584290378"><ele>10.5</ele><time>2026-04-22T08:40:17Z</time></trkpt><trkpt lat="35.75967599012713" lon="-5.793616027878366"><ele>11.0</ele><time>2026-04-22T08:40:18Z</time></trkpt><trkpt lat="35.75978208621563" lon="-5.7936782709400285"><ele>11.5</ele><time>2026-04-22T08:40:19Z</time></trkpt><trkpt lat="35.759887258941255" lon="-5.793737000912319"><ele>12.0</ele><time>2026-04-22T08:40:20Z</time></trkpt><trkpt lat="35.759985302187474" lon="-5.793800194756901"><ele>12.0</ele><time>2026-04-22T08:40:21Z</time></trkpt><trkpt lat="35.76006744310992" lon="-5.793854898168717"><ele>12.0</ele><time>2026-04-22T08:40:22Z</time></trkpt><trkpt lat="35.7601385271574" lon="-5.793902891090106"><ele>12.0</ele><time>2026-04-22T08:40:23Z</time></trkpt><trkpt lat="35.76022681626391" lon="-5.7939615273835425"><ele>12.0</ele><time>2026-04-22T08:40:25Z</time></trkpt><trkpt lat="35.760293932358614" lon="-5.793992656581448"><ele>12.0</ele><time>2026-04-22T08:40:48Z</time></trkpt><trkpt lat="35.76028012100345" lon="-5.79407700672094"><ele>12.0</ele><time>2026-04-22T08:41:08.001Z</time></trkpt><trkpt lat="35.76029200827702" lon="-5.794158543829606"><ele>12.166666666666666</ele><time>2026-04-22T08:41:16.001Z</time></trkpt><trkpt lat="35.76031108624903" lon="-5.794245147469158"><ele>12.333333333333332</ele><time>2026-04-22T08:41:29Z</time></trkpt><trkpt lat="35.76027626950425" lon="-5.794321375737485"><ele>12.5</ele><time>2026-04-22T08:41:34Z</time></trkpt><trkpt lat="35.76025235528286" lon="-5.794397827485939"><ele>12.666666666666666</ele><time>2026-04-22T08:41:39Z</time></trkpt><trkpt lat="35.76030256451662" lon="-5.794447380283678"><ele>12.833333333333332</ele><time>2026-04-22T08:42:20Z</time></trkpt><trkpt lat="35.76025344186283" lon="-5.79430620584914"><ele>13.0</ele><time>2026-04-22T08:42:46Z</time></trkpt><trkpt lat="35.760296879743954" lon="-5.794410821116384"><ele>13.0</ele><time>2026-04-22T08:42:56.071Z</time></trkpt><trkpt lat="35.76028186548607" lon="-5.794266777151568"><ele>13.0</ele><time>2026-04-22T08:43:24.045Z</time></trkpt><trkpt lat="35.76033186087861" lon="-5.794216260447032"><ele>13.0</ele><time>2026-04-22T08:49:15.619Z</time></trkpt><trkpt lat="35.760504676996796" lon="-5.794169800861429"><ele>13.0</ele><time>2026-04-22T08:49:16.873Z</time></trkpt><trkpt lat="35.76034476100724" lon="-5.794412497657118"><ele>12.999999999999998</ele><time>2026-04-22T08:49:22.021Z</time></trkpt><trkpt lat="35.76026087130415" lon="-5.7943423473345455"><ele>13.0</ele><time>2026-04-22T08:49:25.997Z</time></trkpt><trkpt lat="35.76019681880187" lon="-5.794298262567974"><ele>13.0</ele><time>2026-04-22T08:49:32.002Z</time></trkpt><trkpt lat="35.760077900016746" lon="-5.794314253176994"><ele>13.0</ele><time>2026-04-22T08:49:36.002Z</time></trkpt><trkpt lat="35.76001383440489" lon="-5.794259675746024"><ele>12.999999999999998</ele><time>2026-04-22T08:49:42.001Z</time></trkpt><trkpt lat="35.75995292940808" lon="-5.794230612189578"><ele>13.0</ele><time>2026-04-22T08:49:50.001Z</time></trkpt><trkpt lat="35.75991972850732" lon="-5.794135171578311"><ele>12.75</ele><time>2026-04-22T08:49:56.001Z</time></trkpt><trkpt lat="35.75999278375285" lon="-5.794265493582162"><ele>12.5</ele><time>2026-04-22T08:50:08.022Z</time></trkpt><trkpt lat="35.760117534525264" lon="-5.79410120729949"><ele>12.25</ele><time>2026-04-22T08:50:38.46Z</time></trkpt><trkpt lat="35.76004272523563" lon="-5.7941974124730535"><ele>12.0</ele><time>2026-04-22T08:54:53.723Z</time></trkpt><trkpt lat="35.76001395346226" lon="-5.794286224614574"><ele>12.0</ele><time>2026-04-22T08:55:45.015Z</time></trkpt><trkpt lat="35.76012057219418" lon="-5.794235765985659"><ele>12.0</ele><time>2026-04-22T08:55:49.997Z</time></trkpt><trkpt lat="35.760196459870464" lon="-5.794319373059176"><ele>12.0</ele><time>2026-04-22T08:55:58.001Z</time></trkpt><trkpt lat="35.76017296694137" lon="-5.794401958249859"><ele>12.0</ele><time>2026-04-22T08:56:18Z</time></trkpt><trkpt lat="35.760242969884146" lon="-5.794409713245599"><ele>12.0</ele><time>2026-04-22T08:56:21Z</time></trkpt><trkpt lat="35.7602913453273" lon="-5.794470577255771"><ele>12.0</ele><time>2026-04-22T08:56:27Z</time></trkpt><trkpt lat="35.760340405885835" lon="-5.794527536101349"><ele>12.142857142857142</ele><time>2026-04-22T08:56:32Z</time></trkpt><trkpt lat="35.76036627325287" lon="-5.794599224373152"><ele>12.285714285714285</ele><time>2026-04-22T08:56:37Z</time></trkpt><trkpt lat="35.7604117248423" lon="-5.794670737650654"><ele>12.428571428571427</ele><time>2026-04-22T08:56:44Z</time></trkpt><trkpt lat="35.76047494031936" lon="-5.794688270642416"><ele>12.571428571428571</ele><time>2026-04-22T08:56:48Z</time></trkpt><trkpt lat="35.76052910901925" lon="-5.794738175675968"><ele>12.714285714285715</ele><time>2026-04-22T08:56:54Z</time></trkpt><trkpt lat="35.760595321100936" lon="-5.794760512855831"><ele>12.857142857142856</ele><time>2026-04-22T08:56:59Z</time></trkpt><trkpt lat="35.76066417400606" lon="-5.794816994821333"><ele>13.0</ele><time>2026-04-22T08:57:05Z</time></trkpt><trkpt lat="35.760720272751946" lon="-5.794856211471302"><ele>12.999999999999998</ele><time>2026-04-22T08:57:08.999Z</time></trkpt><trkpt lat="35.760857173388374" lon="-5.7949087381932625"><ele>13.0</ele><time>2026-04-22T08:57:20.999Z</time></trkpt><trkpt lat="35.76092638128059" lon="-5.79492934020987"><ele>13.0</ele><time>2026-04-22T08:57:24.999Z</time></trkpt><trkpt lat="35.760998137776795" lon="-5.794928186930431"><ele>13.0</ele><time>2026-04-22T08:57:29.999Z</time></trkpt><trkpt lat="35.761073562766356" lon="-5.794945031599798"><ele>12.999999999999998</ele><time>2026-04-22T08:57:34.999Z</time></trkpt><trkpt lat="35.761140262554306" lon="-5.794982452428407"><ele>13.0</ele><time>2026-04-22T08:57:38.999Z</time></trkpt><trkpt lat="35.76120260808387" lon="-5.795008249435551"><ele>12.857142857142856</ele><time>2026-04-22T08:57:43.999Z</time></trkpt><trkpt lat="35.76126891511264" lon="-5.795052457692119"><ele>12.714285714285715</ele><time>2026-04-22T08:57:49.999Z</time></trkpt><trkpt lat="35.76132785591743" lon="-5.795097029967402"><ele>12.571428571428571</ele><time>2026-04-22T08:58:00Z</time></trkpt><trkpt lat="35.76137462270978" lon="-5.795037369219364"><ele>12.428571428571427</ele><time>2026-04-22T08:58:05Z</time></trkpt><trkpt lat="35.7614134770287" lon="-5.794970159916305"><ele>12.285714285714285</ele><time>2026-04-22T08:58:11Z</time></trkpt><trkpt lat="35.761453132657174" lon="-5.794904262403168"><ele>12.142857142857142</ele><time>2026-04-22T08:58:16Z</time></trkpt><trkpt lat="35.76149917737254" lon="-5.794849332556653"><ele>12.0</ele><time>2026-04-22T08:58:21Z</time></trkpt><trkpt lat="35.761568299162896" lon="-5.794868680149266"><ele>12.0</ele><time>2026-04-22T08:58:27Z</time></trkpt><trkpt lat="35.76163575833448" lon="-5.794888265421552"><ele>12.0</ele><time>2026-04-22T08:58:33Z</time></trkpt><trkpt lat="35.76169980548026" lon="-5.794856913607004"><ele>12.0</ele><time>2026-04-22T08:58:55Z</time></trkpt><trkpt lat="35.76162501118265" lon="-5.79507839985615"><ele>12.0</ele><time>2026-04-22T08:59:30.621Z</time></trkpt><trkpt lat="35.761583731941755" lon="-5.79516140974236"><ele>12.0</ele><time>2026-04-22T08:59:37.44Z</time></trkpt><trkpt lat="35.7615485593665" lon="-5.795080632530785"><ele>12.0</ele><time>2026-04-22T09:01:38.011Z</time></trkpt><trkpt lat="35.7615584397141" lon="-5.794989084990662"><ele>12.0</ele><time>2026-04-22T09:01:42.998Z</time></trkpt><trkpt lat="35.76157845365705" lon="-5.7947931728107145"><ele>12.0</ele><time>2026-04-22T09:01:59Z</time></trkpt><trkpt lat="35.76169104695353" lon="-5.79478330708236"><ele>12.0</ele><time>2026-04-22T09:10:50Z</time></trkpt><trkpt lat="35.76165207551836" lon="-5.794849189393837"><ele>12.0</ele><time>2026-04-22T09:11:08Z</time></trkpt><trkpt lat="35.76162679209502" lon="-5.7949360317076035"><ele>12.0</ele><time>2026-04-22T09:11:09Z</time></trkpt><trkpt lat="35.76159028527101" lon="-5.795034835312633"><ele>12.0</ele><time>2026-04-22T09:11:10Z</time></trkpt><trkpt lat="35.76157334960112" lon="-5.7951124949793975"><ele>12.0</ele><time>2026-04-22T09:11:12Z</time></trkpt><trkpt lat="35.761560772421426" lon="-5.7952084304270945"><ele>12.0</ele><time>2026-04-22T09:11:14Z</time></trkpt><trkpt lat="35.761623747359565" lon="-5.794934831116275"><ele>12.0</ele><time>2026-04-22T09:11:16Z</time></trkpt><trkpt lat="35.76163792728588" lon="-5.795082243460244"><ele>12.0</ele><time>2026-04-22T09:11:33.336Z</time></trkpt><trkpt lat="35.761459525144794" lon="-5.795241149093691"><ele>12.0</ele><time>2026-04-22T09:11:45.439Z</time></trkpt><trkpt lat="35.76162011311616" lon="-5.795095594994588"><ele>12.0</ele><time>2026-04-22T09:14:08.464Z</time></trkpt><trkpt lat="35.761472223835" lon="-5.795018120181151"><ele>12.0</ele><time>2026-04-22T09:15:48.011Z</time></trkpt><trkpt lat="35.7616998280427" lon="-5.795058414757922"><ele>12.0</ele><time>2026-04-22T09:15:51.997Z</time></trkpt><trkpt lat="35.76177461444276" lon="-5.794743201272649"><ele>12.0</ele><time>2026-04-22T09:15:52.997Z</time></trkpt><trkpt lat="35.76185100635463" lon="-5.794540129599024"><ele>12.0</ele><time>2026-04-22T09:15:53.997Z</time></trkpt><trkpt lat="35.761722989269856" lon="-5.794608120164112"><ele>12.0</ele><time>2026-04-22T09:15:55.999Z</time></trkpt><trkpt lat="35.76166428959563" lon="-5.794718290235031"><ele>12.0</ele><time>2026-04-22T09:15:57.999Z</time></trkpt><trkpt lat="35.76160660364352" lon="-5.794768445925436"><ele>11.999999999999998</ele><time>2026-04-22T09:15:59.999Z</time></trkpt><trkpt lat="35.76155000421884" lon="-5.794813697248794"><ele>12.0</ele><time>2026-04-22T09:16:01.999Z</time></trkpt><trkpt lat="35.76148842008814" lon="-5.794834202206013"><ele>12.0</ele><time>2026-04-22T09:16:09Z</time></trkpt><trkpt lat="35.76144456409647" lon="-5.794894780773933"><ele>12.0</ele><time>2026-04-22T09:16:18Z</time></trkpt><trkpt lat="35.76140686111082" lon="-5.794969516957765"><ele>12.0</ele><time>2026-04-22T09:16:23.999Z</time></trkpt><trkpt lat="35.76136283218306" lon="-5.7950390226063515"><ele>11.999999999999998</ele><time>2026-04-22T09:16:28.999Z</time></trkpt><trkpt lat="35.76132837231279" lon="-5.795105941934326"><ele>12.0</ele><time>2026-04-22T09:16:33.999Z</time></trkpt><trkpt lat="35.761273273941576" lon="-5.795160647964204"><ele>11.999999999999998</ele><time>2026-04-22T09:16:41.999Z</time></trkpt><trkpt lat="35.76121871333076" lon="-5.795118380148513"><ele>12.0</ele><time>2026-04-22T09:16:46.999Z</time></trkpt><trkpt lat="35.761147779264945" lon="-5.795102312634444"><ele>12.0</ele><time>2026-04-22T09:16:51.999Z</time></trkpt><trkpt lat="35.76109857528535" lon="-5.795034942877687"><ele>12.0</ele><time>2026-04-22T09:16:57.999Z</time></trkpt><trkpt lat="35.76102794982397" lon="-5.7950174546806315"><ele>12.0</ele><time>2026-04-22T09:17:03.999Z</time></trkpt><trkpt lat="35.760985466810865" lon="-5.7949599045076114"><ele>11.999999999999998</ele><time>2026-04-22T09:17:09.999Z</time></trkpt><trkpt lat="35.760915405252305" lon="-5.794940383303195"><ele>12.0</ele><time>2026-04-22T09:17:16.999Z</time></trkpt><trkpt lat="35.76087093986185" lon="-5.794860829120316"><ele>12.142857142857142</ele><time>2026-04-22T09:17:36.999Z</time></trkpt><trkpt lat="35.76079821712809" lon="-5.794836202107439"><ele>12.285714285714285</ele><time>2026-04-22T09:17:45.999Z</time></trkpt><trkpt lat="35.760740759126406" lon="-5.794796759280847"><ele>12.428571428571427</ele><time>2026-04-22T09:17:50.999Z</time></trkpt><trkpt lat="35.760685777521154" lon="-5.794754505381823"><ele>12.571428571428571</ele><time>2026-04-22T09:17:55.999Z</time></trkpt><trkpt lat="35.760627442488925" lon="-5.794697676274814"><ele>12.714285714285715</ele><time>2026-04-22T09:18:02Z</time></trkpt><trkpt lat="35.760575873467694" lon="-5.794648549782519"><ele>12.857142857142856</ele><time>2026-04-22T09:18:07Z</time></trkpt><trkpt lat="35.76051141136339" lon="-5.794627807344746"><ele>13.0</ele><time>2026-04-22T09:18:12Z</time></trkpt><trkpt lat="35.76044088187704" lon="-5.794595654746102"><ele>13.0</ele><time>2026-04-22T09:18:18Z</time></trkpt><trkpt lat="35.760379335456086" lon="-5.794555245012567"><ele>13.0</ele><time>2026-04-22T09:18:22.999Z</time></trkpt><trkpt lat="35.760317784621435" lon="-5.79453574473615"><ele>13.0</ele><time>2026-04-22T09:18:28.999Z</time></trkpt><trkpt lat="35.76026631543827" lon="-5.7944884569104556"><ele>13.0</ele><time>2026-04-22T09:18:33.999Z</time></trkpt><trkpt lat="35.76019569407389" lon="-5.794436294640255"><ele>13.0</ele><time>2026-04-22T09:18:38.999Z</time></trkpt><trkpt lat="35.760154315939324" lon="-5.794363609650431"><ele>13.0</ele><time>2026-04-22T09:18:43.999Z</time></trkpt><trkpt lat="35.76011669016234" lon="-5.794262352783669"><ele>13.0</ele><time>2026-04-22T09:19:14.999Z</time></trkpt><trkpt lat="35.760035357074614" lon="-5.794202568165938"><ele>12.8</ele><time>2026-04-22T09:19:16.999Z</time></trkpt><trkpt lat="35.75993716928365" lon="-5.794144047505278"><ele>12.600000000000001</ele><time>2026-04-22T09:19:18.999Z</time></trkpt><trkpt lat="35.75988059443361" lon="-5.7941025371315105"><ele>12.399999999999999</ele><time>2026-04-22T09:19:19.999Z</time></trkpt><trkpt lat="35.75976567667833" lon="-5.79402338119501"><ele>12.2</ele><time>2026-04-22T09:19:21.999Z</time></trkpt><trkpt lat="35.759694995536265" lon="-5.793979497823176"><ele>12.0</ele><time>2026-04-22T09:19:22.999Z</time></trkpt><trkpt lat="35.75963066389813" lon="-5.7939297523870135"><ele>12.0</ele><time>2026-04-22T09:19:23.999Z</time></trkpt><trkpt lat="35.75956584936728" lon="-5.7938848725289676"><ele>12.0</ele><time>2026-04-22T09:19:24.999Z</time></trkpt><trkpt lat="35.759500984634485" lon="-5.79384439535897"><ele>12.0</ele><time>2026-04-22T09:19:25.999Z</time></trkpt><trkpt lat="35.75943464366338" lon="-5.793798821758445"><ele>12.0</ele><time>2026-04-22T09:19:26.999Z</time></trkpt><trkpt lat="35.759371588873336" lon="-5.793757262215044"><ele>12.0</ele><time>2026-04-22T09:19:27.999Z</time></trkpt><trkpt lat="35.75928972595443" lon="-5.7937049325575645"><ele>12.0</ele><time>2026-04-22T09:19:28.999Z</time></trkpt><trkpt lat="35.759214836933154" lon="-5.793637829505537"><ele>11.833333333333334</ele><time>2026-04-22T09:19:29.999Z</time></trkpt><trkpt lat="35.75912758077443" lon="-5.793586460105878"><ele>11.666666666666666</ele><time>2026-04-22T09:19:30.999Z</time></trkpt><trkpt lat="35.759039959581855" lon="-5.7935458824177175"><ele>11.5</ele><time>2026-04-22T09:19:31.999Z</time></trkpt><trkpt lat="35.7589682130948" lon="-5.793500354157133"><ele>11.333333333333332</ele><time>2026-04-22T09:19:32.999Z</time></trkpt><trkpt lat="35.75890447258157" lon="-5.793445751090515"><ele>11.166666666666666</ele><time>2026-04-22T09:19:33.999Z</time></trkpt><trkpt lat="35.75885000527506" lon="-5.793390545433662"><ele>11.0</ele><time>2026-04-22T09:19:34.999Z</time></trkpt><trkpt lat="35.75878350082808" lon="-5.793344968831904"><ele>10.833333333333332</ele><time>2026-04-22T09:19:35.999Z</time></trkpt><trkpt lat="35.75871905949283" lon="-5.7933038644482675"><ele>10.666666666666666</ele><time>2026-04-22T09:19:36.999Z</time></trkpt><trkpt lat="35.75865882719769" lon="-5.793263566672763"><ele>10.5</ele><time>2026-04-22T09:19:37.999Z</time></trkpt><trkpt lat="35.75860365637238" lon="-5.793223808767936"><ele>10.333333333333334</ele><time>2026-04-22T09:19:38.999Z</time></trkpt><trkpt lat="35.75850776764702" lon="-5.79315208187023"><ele>10.166666666666668</ele><time>2026-04-22T09:19:40.999Z</time></trkpt><trkpt lat="35.75844437488571" lon="-5.793108392275351"><ele>10.0</ele><time>2026-04-22T09:19:48.999Z</time></trkpt><trkpt lat="35.75837749846514" lon="-5.793064211484983"><ele>10.5</ele><time>2026-04-22T09:19:52.999Z</time></trkpt><trkpt lat="35.75832080597721" lon="-5.792991623386904"><ele>11.0</ele><time>2026-04-22T09:19:55.999Z</time></trkpt><trkpt lat="35.75824847659718" lon="-5.792944180419792"><ele>11.5</ele><time>2026-04-22T09:19:57.999Z</time></trkpt><trkpt lat="35.758171126143424" lon="-5.79290077010956"><ele>12.0</ele><time>2026-04-22T09:20:00.999Z</time></trkpt><trkpt lat="35.758113371837226" lon="-5.792854559375261"><ele>12.499999999999998</ele><time>2026-04-22T09:20:02.999Z</time></trkpt><trkpt lat="35.758023441216864" lon="-5.79279030405927"><ele>13.0</ele><time>2026-04-22T09:20:05.999Z</time></trkpt><trkpt lat="35.75795349669839" lon="-5.792755085541062"><ele>12.999999999999998</ele><time>2026-04-22T09:20:07.999Z</time></trkpt><trkpt lat="35.75787431057408" lon="-5.79271549590171"><ele>13.0</ele><time>2026-04-22T09:20:10.999Z</time></trkpt><trkpt lat="35.75781387637744" lon="-5.792681731857546"><ele>13.0</ele><time>2026-04-22T09:20:12.999Z</time></trkpt><trkpt lat="35.75773815046317" lon="-5.792625062593038"><ele>13.0</ele><time>2026-04-22T09:20:15.999Z</time></trkpt><trkpt lat="35.75768896635752" lon="-5.792574754102734"><ele>12.999999999999998</ele><time>2026-04-22T09:20:18.999Z</time></trkpt><trkpt lat="35.75763196967385" lon="-5.792502195790207"><ele>13.0</ele><time>2026-04-22T09:20:22.999Z</time></trkpt><trkpt lat="35.757549249871396" lon="-5.792447829719993"><ele>12.999999999999998</ele><time>2026-04-22T09:20:24.999Z</time></trkpt><trkpt lat="35.757452077734094" lon="-5.792405323451279"><ele>13.0</ele><time>2026-04-22T09:20:26.999Z</time></trkpt><trkpt lat="35.75738937229141" lon="-5.792375158023083"><ele>13.0</ele><time>2026-04-22T09:20:27.999Z</time></trkpt><trkpt lat="35.75732391964438" lon="-5.792345047212551"><ele>13.0</ele><time>2026-04-22T09:20:28.999Z</time></trkpt><trkpt lat="35.757259923984854" lon="-5.792321938593407"><ele>12.999999999999998</ele><time>2026-04-22T09:20:29.999Z</time></trkpt><trkpt lat="35.757197047495616" lon="-5.792300171955111"><ele>13.0</ele><time>2026-04-22T09:20:30.999Z</time></trkpt><trkpt lat="35.75709363092373" lon="-5.792258804179678"><ele>13.0</ele><time>2026-04-22T09:20:32.999Z</time></trkpt><trkpt lat="35.75694410529793" lon="-5.792197067469879"><ele>13.0</ele><time>2026-04-22T09:20:38.999Z</time></trkpt><trkpt lat="35.7568470008669" lon="-5.792157577645351"><ele>13.0</ele><time>2026-04-22T09:20:40.999Z</time></trkpt><trkpt lat="35.75675480183463" lon="-5.792074814670591"><ele>13.0</ele><time>2026-04-22T09:20:42.999Z</time></trkpt><trkpt lat="35.75665726352239" lon="-5.791983361889587"><ele>12.666666666666666</ele><time>2026-04-22T09:20:44.999Z</time></trkpt><trkpt lat="35.75659697526433" lon="-5.791931160352171"><ele>12.333333333333332</ele><time>2026-04-22T09:20:45.999Z</time></trkpt><trkpt lat="35.7565280447192" lon="-5.791875341595356"><ele>12.0</ele><time>2026-04-22T09:20:46.999Z</time></trkpt><trkpt lat="35.75645101524057" lon="-5.791817527911434"><ele>11.666666666666666</ele><time>2026-04-22T09:20:47.999Z</time></trkpt><trkpt lat="35.75636989389896" lon="-5.791758265922479"><ele>11.333333333333332</ele><time>2026-04-22T09:20:48.999Z</time></trkpt><trkpt lat="35.756276685972345" lon="-5.7916901615671"><ele>11.0</ele><time>2026-04-22T09:20:49.999Z</time></trkpt><trkpt lat="35.756166039087546" lon="-5.791606415437266"><ele>10.5</ele><time>2026-04-22T09:20:50.999Z</time></trkpt><trkpt lat="35.75604141629713" lon="-5.791525332528058"><ele>10.0</ele><time>2026-04-22T09:20:51.999Z</time></trkpt><trkpt lat="35.75590903516613" lon="-5.791445022725399"><ele>9.5</ele><time>2026-04-22T09:20:52.999Z</time></trkpt><trkpt lat="35.75577395150316" lon="-5.791366313380567"><ele>9.0</ele><time>2026-04-22T09:20:53.999Z</time></trkpt><trkpt lat="35.755630228116175" lon="-5.791282083011566"><ele>9.0</ele><time>2026-04-22T09:20:54.999Z</time></trkpt><trkpt lat="35.755474093978556" lon="-5.791194245806766"><ele>9.0</ele><time>2026-04-22T09:20:55.999Z</time></trkpt><trkpt lat="35.75530487034122" lon="-5.791097429838563"><ele>9.0</ele><time>2026-04-22T09:20:56.999Z</time></trkpt><trkpt lat="35.755125904407734" lon="-5.790994459612291"><ele>8.0</ele><time>2026-04-22T09:20:57.999Z</time></trkpt><trkpt lat="35.754939567745886" lon="-5.79089058262024"><ele>7.0</ele><time>2026-04-22T09:20:58.999Z</time></trkpt><trkpt lat="35.75474723703171" lon="-5.790784606457647"><ele>6.0</ele><time>2026-04-22T09:20:59.999Z</time></trkpt><trkpt lat="35.754555002226034" lon="-5.790678379144947"><ele>4.5</ele><time>2026-04-22T09:21:00.999Z</time></trkpt><trkpt lat="35.754352986023974" lon="-5.79054752214403"><ele>3.0</ele><time>2026-04-22T09:21:01.999Z</time></trkpt><trkpt lat="35.754149915005016" lon="-5.790428996231761"><ele>3.0</ele><time>2026-04-22T09:21:02.999Z</time></trkpt><trkpt lat="35.753952361085325" lon="-5.790323948673204"><ele>3.0</ele><time>2026-04-22T09:21:03.999Z</time></trkpt><trkpt lat="35.75375737985863" lon="-5.790218242313667"><ele>3.0</ele><time>2026-04-22T09:21:04.999Z</time></trkpt><trkpt lat="35.7535719241885" lon="-5.790103928237648"><ele>4.0</ele><time>2026-04-22T09:21:05.999Z</time></trkpt><trkpt lat="35.75339625540703" lon="-5.7899973478779945"><ele>5.0</ele><time>2026-04-22T09:21:06.999Z</time></trkpt><trkpt lat="35.75322614264435" lon="-5.789892974976536"><ele>6.0</ele><time>2026-04-22T09:21:07.999Z</time></trkpt><trkpt lat="35.753062564035694" lon="-5.7897926152137495"><ele>6.0</ele><time>2026-04-22T09:21:08.999Z</time></trkpt><trkpt lat="35.752903572857846" lon="-5.789695660703575"><ele>6.0</ele><time>2026-04-22T09:21:09.999Z</time></trkpt><trkpt lat="35.75275604023552" lon="-5.789601825936442"><ele>6.0</ele><time>2026-04-22T09:21:10.999Z</time></trkpt><trkpt lat="35.752623063489004" lon="-5.789514308428829"><ele>5.75</ele><time>2026-04-22T09:21:11.999Z</time></trkpt><trkpt lat="35.75249390871992" lon="-5.78942587690739"><ele>5.5</ele><time>2026-04-22T09:21:12.999Z</time></trkpt><trkpt lat="35.75236727028298" lon="-5.789336414568613"><ele>5.25</ele><time>2026-04-22T09:21:13.999Z</time></trkpt><trkpt lat="35.75223632095533" lon="-5.789244102739225"><ele>5.0</ele><time>2026-04-22T09:21:14.999Z</time></trkpt><trkpt lat="35.75210499872614" lon="-5.789153568513908"><ele>5.666666666666667</ele><time>2026-04-22T09:21:15.999Z</time></trkpt><trkpt lat="35.751971320712066" lon="-5.789062497613857"><ele>6.333333333333334</ele><time>2026-04-22T09:21:16.999Z</time></trkpt><trkpt lat="35.75184042760998" lon="-5.788971276431616"><ele>7.0</ele><time>2026-04-22T09:21:17.999Z</time></trkpt><trkpt lat="35.751710307080195" lon="-5.7888858649189"><ele>7.333333333333334</ele><time>2026-04-22T09:21:18.999Z</time></trkpt><trkpt lat="35.75157716082567" lon="-5.7887967243958744"><ele>7.666666666666666</ele><time>2026-04-22T09:21:19.999Z</time></trkpt><trkpt lat="35.7514393993795" lon="-5.788703697724137"><ele>8.0</ele><time>2026-04-22T09:21:20.999Z</time></trkpt><trkpt lat="35.75130007173107" lon="-5.788608938332314"><ele>8.0</ele><time>2026-04-22T09:21:21.999Z</time></trkpt><trkpt lat="35.75116635408033" lon="-5.788516474736311"><ele>8.0</ele><time>2026-04-22T09:21:22.999Z</time></trkpt><trkpt lat="35.75103524748578" lon="-5.788427897532171"><ele>8.0</ele><time>2026-04-22T09:21:23.999Z</time></trkpt><trkpt lat="35.750913325606525" lon="-5.788341169260175"><ele>8.0</ele><time>2026-04-22T09:21:24.999Z</time></trkpt><trkpt lat="35.7507893461706" lon="-5.788255027670893"><ele>8.25</ele><time>2026-04-22T09:21:25.999Z</time></trkpt><trkpt lat="35.75066216868139" lon="-5.788172293722662"><ele>8.5</ele><time>2026-04-22T09:21:26.999Z</time></trkpt><trkpt lat="35.75053545721471" lon="-5.78808582562932"><ele>8.75</ele><time>2026-04-22T09:21:27.999Z</time></trkpt><trkpt lat="35.75040359986005" lon="-5.787998589353645"><ele>9.0</ele><time>2026-04-22T09:21:28.999Z</time></trkpt><trkpt lat="35.750275121963305" lon="-5.787913826723937"><ele>9.0</ele><time>2026-04-22T09:21:29.999Z</time></trkpt><trkpt lat="35.75015024412969" lon="-5.787829814748742"><ele>9.0</ele><time>2026-04-22T09:21:30.999Z</time></trkpt><trkpt lat="35.750027474332555" lon="-5.787745357096996"><ele>9.0</ele><time>2026-04-22T09:21:31.999Z</time></trkpt><trkpt lat="35.74990638838364" lon="-5.787661180599373"><ele>9.0</ele><time>2026-04-22T09:21:32.999Z</time></trkpt><trkpt lat="35.749784743504755" lon="-5.787577186447491"><ele>9.0</ele><time>2026-04-22T09:21:33.999Z</time></trkpt><trkpt lat="35.74966576351426" lon="-5.7875051567507665"><ele>9.0</ele><time>2026-04-22T09:21:34.999Z</time></trkpt><trkpt lat="35.74955299064252" lon="-5.787426795010611"><ele>9.0</ele><time>2026-04-22T09:21:35.999Z</time></trkpt><trkpt lat="35.749452603543304" lon="-5.787356540317919"><ele>9.0</ele><time>2026-04-22T09:21:36.999Z</time></trkpt><trkpt lat="35.749353786589424" lon="-5.787286324580215"><ele>8.75</ele><time>2026-04-22T09:21:37.999Z</time></trkpt><trkpt lat="35.749248113983434" lon="-5.78721970704792"><ele>8.5</ele><time>2026-04-22T09:21:38.999Z</time></trkpt><trkpt lat="35.74914456991128" lon="-5.787147751134557"><ele>8.25</ele><time>2026-04-22T09:21:39.999Z</time></trkpt><trkpt lat="35.74904367319541" lon="-5.787078649517467"><ele>8.0</ele><time>2026-04-22T09:21:40.999Z</time></trkpt><trkpt lat="35.748938379191635" lon="-5.787002760656246"><ele>8.0</ele><time>2026-04-22T09:21:41.999Z</time></trkpt><trkpt lat="35.748833873368035" lon="-5.786917884572442"><ele>8.0</ele><time>2026-04-22T09:21:42.999Z</time></trkpt><trkpt lat="35.74870223603054" lon="-5.786825385194036"><ele>8.0</ele><time>2026-04-22T09:21:43.999Z</time></trkpt><trkpt lat="35.748580232092166" lon="-5.786721866505974"><ele>8.0</ele><time>2026-04-22T09:21:44.999Z</time></trkpt><trkpt lat="35.74845105144696" lon="-5.786626199019672"><ele>9.0</ele><time>2026-04-22T09:21:45.999Z</time></trkpt><trkpt lat="35.74832092367846" lon="-5.7865248162528555"><ele>10.0</ele><time>2026-04-22T09:21:46.999Z</time></trkpt><trkpt lat="35.74819273926726" lon="-5.7864149425003"><ele>11.0</ele><time>2026-04-22T09:21:47.999Z</time></trkpt><trkpt lat="35.74806160387777" lon="-5.786286763359829"><ele>11.0</ele><time>2026-04-22T09:21:48.999Z</time></trkpt><trkpt lat="35.74792582456084" lon="-5.786163389417057"><ele>11.0</ele><time>2026-04-22T09:21:49.999Z</time></trkpt><trkpt lat="35.74778530118599" lon="-5.786029119586576"><ele>11.0</ele><time>2026-04-22T09:21:50.999Z</time></trkpt><trkpt lat="35.747644303239476" lon="-5.785885140334774"><ele>11.333333333333332</ele><time>2026-04-22T09:21:51.999Z</time></trkpt><trkpt lat="35.74750598663696" lon="-5.78574168986062"><ele>11.666666666666666</ele><time>2026-04-22T09:21:52.999Z</time></trkpt><trkpt lat="35.74737037868197" lon="-5.785598654976722"><ele>12.0</ele><time>2026-04-22T09:21:53.999Z</time></trkpt><trkpt lat="35.74723924937195" lon="-5.785452895072353"><ele>12.0</ele><time>2026-04-22T09:21:54.999Z</time></trkpt><trkpt lat="35.747114410191806" lon="-5.785308323590464"><ele>12.0</ele><time>2026-04-22T09:21:55.999Z</time></trkpt><trkpt lat="35.74700185907083" lon="-5.785172683511905"><ele>12.0</ele><time>2026-04-22T09:21:56.999Z</time></trkpt><trkpt lat="35.74690018200373" lon="-5.785045055816892"><ele>11.75</ele><time>2026-04-22T09:21:57.999Z</time></trkpt><trkpt lat="35.74680722560702" lon="-5.7849255428715685"><ele>11.5</ele><time>2026-04-22T09:21:58.999Z</time></trkpt><trkpt lat="35.74671764140072" lon="-5.7848013559782085"><ele>11.25</ele><time>2026-04-22T09:21:59.999Z</time></trkpt><trkpt lat="35.74663345228026" lon="-5.784680654152832"><ele>11.0</ele><time>2026-04-22T09:22:00.999Z</time></trkpt><trkpt lat="35.746548504071036" lon="-5.784559038123633"><ele>11.0</ele><time>2026-04-22T09:22:01.999Z</time></trkpt><trkpt lat="35.746465691349584" lon="-5.784442601467438"><ele>11.0</ele><time>2026-04-22T09:22:02.999Z</time></trkpt><trkpt lat="35.7463863982222" lon="-5.784326221357937"><ele>11.0</ele><time>2026-04-22T09:22:03.999Z</time></trkpt><trkpt lat="35.74631362627079" lon="-5.7842226618488235"><ele>11.0</ele><time>2026-04-22T09:22:04.999Z</time></trkpt><trkpt lat="35.746249004769986" lon="-5.784131337292621"><ele>11.166666666666666</ele><time>2026-04-22T09:22:05.999Z</time></trkpt><trkpt lat="35.7461955504268" lon="-5.784052618580503"><ele>11.333333333333332</ele><time>2026-04-22T09:22:06.999Z</time></trkpt><trkpt lat="35.746154273332365" lon="-5.783990770315828"><ele>11.5</ele><time>2026-04-22T09:22:07.999Z</time></trkpt><trkpt lat="35.74610537503234" lon="-5.783913504541259"><ele>11.666666666666666</ele><time>2026-04-22T09:22:10.999Z</time></trkpt><trkpt lat="35.74605635407219" lon="-5.783824778168521"><ele>11.833333333333334</ele><time>2026-04-22T09:22:44.999Z</time></trkpt><trkpt lat="35.7459950164403" lon="-5.7837337419245"><ele>12.0</ele><time>2026-04-22T09:22:46.999Z</time></trkpt><trkpt lat="35.745949428879605" lon="-5.783666898032344"><ele>12.0</ele><time>2026-04-22T09:22:47.999Z</time></trkpt><trkpt lat="35.74589057695707" lon="-5.783580872738379"><ele>12.0</ele><time>2026-04-22T09:22:48.999Z</time></trkpt><trkpt lat="35.745834936362535" lon="-5.783494852171868"><ele>12.0</ele><time>2026-04-22T09:22:49.999Z</time></trkpt><trkpt lat="35.74577278930206" lon="-5.783401390976254"><ele>12.0</ele><time>2026-04-22T09:22:50.999Z</time></trkpt><trkpt lat="35.745703119144885" lon="-5.783294674512203"><ele>12.0</ele><time>2026-04-22T09:22:51.999Z</time></trkpt><trkpt lat="35.745624424865575" lon="-5.783171981490683"><ele>13.0</ele><time>2026-04-22T09:22:52.999Z</time></trkpt><trkpt lat="35.74554241541709" lon="-5.7830432417564035"><ele>14.0</ele><time>2026-04-22T09:22:53.999Z</time></trkpt><trkpt lat="35.745461784156696" lon="-5.782911697279977"><ele>15.0</ele><time>2026-04-22T09:22:54.999Z</time></trkpt><trkpt lat="35.745377393349145" lon="-5.782769937241149"><ele>16.0</ele><time>2026-04-22T09:22:55.999Z</time></trkpt><trkpt lat="35.74528864846388" lon="-5.782620042970282"><ele>15.333333333333332</ele><time>2026-04-22T09:22:56.999Z</time></trkpt><trkpt lat="35.74520059229854" lon="-5.782462508379751"><ele>14.666666666666668</ele><time>2026-04-22T09:22:57.999Z</time></trkpt><trkpt lat="35.74511495330882" lon="-5.782307584113088"><ele>14.0</ele><time>2026-04-22T09:22:58.999Z</time></trkpt><trkpt lat="35.74503393660178" lon="-5.7821492311776135"><ele>14.0</ele><time>2026-04-22T09:22:59.999Z</time></trkpt><trkpt lat="35.744954465853134" lon="-5.78198945121871"><ele>14.0</ele><time>2026-04-22T09:23:00.999Z</time></trkpt><trkpt lat="35.74487840866658" lon="-5.781829261199706"><ele>14.0</ele><time>2026-04-22T09:23:01.999Z</time></trkpt><trkpt lat="35.74480388881123" lon="-5.781665703017665"><ele>14.333333333333334</ele><time>2026-04-22T09:23:02.999Z</time></trkpt><trkpt lat="35.74472924161089" lon="-5.7814962546955035"><ele>14.666666666666668</ele><time>2026-04-22T09:23:03.999Z</time></trkpt><trkpt lat="35.74465607565262" lon="-5.781326857328773"><ele>15.0</ele><time>2026-04-22T09:23:04.999Z</time></trkpt><trkpt lat="35.744582718027566" lon="-5.781159993081619"><ele>14.25</ele><time>2026-04-22T09:23:05.999Z</time></trkpt><trkpt lat="35.744513635029655" lon="-5.7810007606233835"><ele>13.5</ele><time>2026-04-22T09:23:06.999Z</time></trkpt><trkpt lat="35.74445585277755" lon="-5.7808660058282015"><ele>12.75</ele><time>2026-04-22T09:23:07.999Z</time></trkpt><trkpt lat="35.74440345941884" lon="-5.780742601010657"><ele>12.0</ele><time>2026-04-22T09:23:08.999Z</time></trkpt><trkpt lat="35.744350604187225" lon="-5.780619754001673"><ele>12.0</ele><time>2026-04-22T09:23:09.999Z</time></trkpt><trkpt lat="35.74429759393153" lon="-5.780496785869772"><ele>12.0</ele><time>2026-04-22T09:23:10.999Z</time></trkpt><trkpt lat="35.74424153679606" lon="-5.780362664620862"><ele>12.0</ele><time>2026-04-22T09:23:11.999Z</time></trkpt><trkpt lat="35.744182665369" lon="-5.780217994650269"><ele>12.0</ele><time>2026-04-22T09:23:12.999Z</time></trkpt><trkpt lat="35.74412550062146" lon="-5.7800728647825546"><ele>13.25</ele><time>2026-04-22T09:23:13.999Z</time></trkpt><trkpt lat="35.74406726359303" lon="-5.779930194252521"><ele>14.5</ele><time>2026-04-22T09:23:14.999Z</time></trkpt><trkpt lat="35.74401089178944" lon="-5.779790914817723"><ele>15.75</ele><time>2026-04-22T09:23:15.999Z</time></trkpt><trkpt lat="35.7439568122769" lon="-5.779657079592428"><ele>17.0</ele><time>2026-04-22T09:23:16.999Z</time></trkpt><trkpt lat="35.74390179317178" lon="-5.779527154717643"><ele>17.0</ele><time>2026-04-22T09:23:17.999Z</time></trkpt><trkpt lat="35.74384641223771" lon="-5.779400549213217"><ele>17.0</ele><time>2026-04-22T09:23:18.999Z</time></trkpt><trkpt lat="35.743797828265905" lon="-5.779285649928918"><ele>17.0</ele><time>2026-04-22T09:23:19.999Z</time></trkpt><trkpt lat="35.74375236808094" lon="-5.77918040747678"><ele>17.0</ele><time>2026-04-22T09:23:20.999Z</time></trkpt><trkpt lat="35.743706436975344" lon="-5.779085448134"><ele>17.0</ele><time>2026-04-22T09:23:21.999Z</time></trkpt><trkpt lat="35.74366437202389" lon="-5.779008764268659"><ele>16.833333333333336</ele><time>2026-04-22T09:23:22.999Z</time></trkpt><trkpt lat="35.74362090310194" lon="-5.778936651467998"><ele>16.666666666666668</ele><time>2026-04-22T09:23:23.999Z</time></trkpt><trkpt lat="35.74357518753116" lon="-5.778870812928664"><ele>16.5</ele><time>2026-04-22T09:23:24.999Z</time></trkpt><trkpt lat="35.743526359602505" lon="-5.778805300870997"><ele>16.333333333333332</ele><time>2026-04-22T09:23:25.999Z</time></trkpt><trkpt lat="35.743490225799555" lon="-5.778718133677842"><ele>16.166666666666664</ele><time>2026-04-22T09:23:26.999Z</time></trkpt><trkpt lat="35.743466280550976" lon="-5.778616849231503"><ele>16.0</ele><time>2026-04-22T09:23:27.999Z</time></trkpt><trkpt lat="35.74343838422818" lon="-5.778514563221397"><ele>15.25</ele><time>2026-04-22T09:23:28.999Z</time></trkpt><trkpt lat="35.74338541281198" lon="-5.778404390252564"><ele>14.5</ele><time>2026-04-22T09:23:29.999Z</time></trkpt><trkpt lat="35.74331839449735" lon="-5.778282019427625"><ele>13.75</ele><time>2026-04-22T09:23:30.999Z</time></trkpt><trkpt lat="35.743244440077234" lon="-5.778142116111694"><ele>13.0</ele><time>2026-04-22T09:23:31.999Z</time></trkpt><trkpt lat="35.74315871474752" lon="-5.777993872262411"><ele>13.0</ele><time>2026-04-22T09:23:32.999Z</time></trkpt><trkpt lat="35.743072140462004" lon="-5.7778455066107846"><ele>13.0</ele><time>2026-04-22T09:23:33.999Z</time></trkpt><trkpt lat="35.742977284322244" lon="-5.777694119055"><ele>13.0</ele><time>2026-04-22T09:23:34.999Z</time></trkpt><trkpt lat="35.7428766975115" lon="-5.77753825647907"><ele>12.666666666666666</ele><time>2026-04-22T09:23:35.999Z</time></trkpt><trkpt lat="35.74276956315482" lon="-5.7773756738812"><ele>12.333333333333332</ele><time>2026-04-22T09:23:36.999Z</time></trkpt><trkpt lat="35.742657793503085" lon="-5.777207368261739"><ele>12.0</ele><time>2026-04-22T09:23:37.999Z</time></trkpt><trkpt lat="35.742541422680446" lon="-5.777032423950804"><ele>12.666666666666668</ele><time>2026-04-22T09:23:38.999Z</time></trkpt><trkpt lat="35.74242134459355" lon="-5.776850238213993"><ele>13.333333333333334</ele><time>2026-04-22T09:23:39.999Z</time></trkpt><trkpt lat="35.74230121649312" lon="-5.776667078371574"><ele>14.0</ele><time>2026-04-22T09:23:40.999Z</time></trkpt><trkpt lat="35.74218319228254" lon="-5.776486615251274"><ele>14.0</ele><time>2026-04-22T09:23:41.999Z</time></trkpt><trkpt lat="35.74206525800448" lon="-5.776308902710688"><ele>14.0</ele><time>2026-04-22T09:23:42.999Z</time></trkpt><trkpt lat="35.741947826093856" lon="-5.776131171310526"><ele>14.0</ele><time>2026-04-22T09:23:43.999Z</time></trkpt><trkpt lat="35.74183087302301" lon="-5.775952256212101"><ele>13.666666666666668</ele><time>2026-04-22T09:23:44.999Z</time></trkpt><trkpt lat="35.741714377763444" lon="-5.775771823028258"><ele>13.333333333333332</ele><time>2026-04-22T09:23:45.999Z</time></trkpt><trkpt lat="35.741600569189" lon="-5.7755896782626515"><ele>13.0</ele><time>2026-04-22T09:23:46.999Z</time></trkpt><trkpt lat="35.741489132580725" lon="-5.7754129352305315"><ele>13.0</ele><time>2026-04-22T09:23:47.999Z</time></trkpt><trkpt lat="35.741379384701304" lon="-5.775242059070359"><ele>13.0</ele><time>2026-04-22T09:23:48.999Z</time></trkpt><trkpt lat="35.74127041410713" lon="-5.775077494588564"><ele>13.0</ele><time>2026-04-22T09:23:49.999Z</time></trkpt><trkpt lat="35.74117513359986" lon="-5.77491772819456"><ele>12.333333333333332</ele><time>2026-04-22T09:23:50.999Z</time></trkpt><trkpt lat="35.74108461095329" lon="-5.774754666407619"><ele>11.666666666666666</ele><time>2026-04-22T09:23:51.999Z</time></trkpt><trkpt lat="35.74099684176535" lon="-5.774596366017064"><ele>11.0</ele><time>2026-04-22T09:23:52.999Z</time></trkpt><trkpt lat="35.740912780790055" lon="-5.774434064478866"><ele>12.0</ele><time>2026-04-22T09:23:53.999Z</time></trkpt><trkpt lat="35.740831999997056" lon="-5.774268097963713"><ele>13.0</ele><time>2026-04-22T09:23:54.999Z</time></trkpt><trkpt lat="35.74074596808999" lon="-5.774097939859198"><ele>14.0</ele><time>2026-04-22T09:23:55.999Z</time></trkpt><trkpt lat="35.74066395002525" lon="-5.773925926989662"><ele>14.0</ele><time>2026-04-22T09:23:56.999Z</time></trkpt><trkpt lat="35.7405841681743" lon="-5.773756679418932"><ele>14.0</ele><time>2026-04-22T09:23:57.999Z</time></trkpt><trkpt lat="35.74051224010448" lon="-5.773602265207879"><ele>14.0</ele><time>2026-04-22T09:23:58.999Z</time></trkpt><trkpt lat="35.74044185093563" lon="-5.773447591507093"><ele>14.0</ele><time>2026-04-22T09:23:59.999Z</time></trkpt><trkpt lat="35.740375683359275" lon="-5.773300242577163"><ele>13.5</ele><time>2026-04-22T09:24:00.999Z</time></trkpt><trkpt lat="35.740312716920585" lon="-5.773154265989989"><ele>13.0</ele><time>2026-04-22T09:24:01.999Z</time></trkpt><trkpt lat="35.74024913563372" lon="-5.773010497523616"><ele>12.5</ele><time>2026-04-22T09:24:02.999Z</time></trkpt><trkpt lat="35.7401848776099" lon="-5.77286494376004"><ele>12.0</ele><time>2026-04-22T09:24:03.999Z</time></trkpt><trkpt lat="35.740118889875205" lon="-5.77271604375152"><ele>12.25</ele><time>2026-04-22T09:24:04.999Z</time></trkpt><trkpt lat="35.740050603740244" lon="-5.772565510933534"><ele>12.5</ele><time>2026-04-22T09:24:05.999Z</time></trkpt><trkpt lat="35.739978845314646" lon="-5.772410462480615"><ele>12.75</ele><time>2026-04-22T09:24:06.999Z</time></trkpt><trkpt lat="35.739903038945876" lon="-5.772251187920971"><ele>13.0</ele><time>2026-04-22T09:24:07.999Z</time></trkpt><trkpt lat="35.739830482775844" lon="-5.77209248081049"><ele>13.0</ele><time>2026-04-22T09:24:08.999Z</time></trkpt><trkpt lat="35.73975867667582" lon="-5.771932643828929"><ele>13.0</ele><time>2026-04-22T09:24:09.999Z</time></trkpt><trkpt lat="35.73968396235098" lon="-5.771771850417174"><ele>13.0</ele><time>2026-04-22T09:24:10.999Z</time></trkpt><trkpt lat="35.73961217059149" lon="-5.771612803547054"><ele>13.0</ele><time>2026-04-22T09:24:11.999Z</time></trkpt><trkpt lat="35.73954077310972" lon="-5.7714529592020565"><ele>13.666666666666666</ele><time>2026-04-22T09:24:12.999Z</time></trkpt><trkpt lat="35.739468584656755" lon="-5.771293648229261"><ele>14.333333333333332</ele><time>2026-04-22T09:24:13.999Z</time></trkpt><trkpt lat="35.739396272372076" lon="-5.771135264405761"><ele>15.0</ele><time>2026-04-22T09:24:14.999Z</time></trkpt><trkpt lat="35.73932029867964" lon="-5.770969486884817"><ele>13.333333333333334</ele><time>2026-04-22T09:24:15.999Z</time></trkpt><trkpt lat="35.739240572549946" lon="-5.770795968615449"><ele>11.666666666666668</ele><time>2026-04-22T09:24:16.999Z</time></trkpt><trkpt lat="35.739161034424356" lon="-5.770620242154586"><ele>10.0</ele><time>2026-04-22T09:24:17.999Z</time></trkpt><trkpt lat="35.73908232723168" lon="-5.770446191016629"><ele>10.0</ele><time>2026-04-22T09:24:18.999Z</time></trkpt><trkpt lat="35.73900321073607" lon="-5.770276342790008"><ele>10.0</ele><time>2026-04-22T09:24:19.999Z</time></trkpt><trkpt lat="35.73892142464851" lon="-5.770108657972099"><ele>10.0</ele><time>2026-04-22T09:24:20.999Z</time></trkpt><trkpt lat="35.73883789873523" lon="-5.769938985964843"><ele>11.666666666666668</ele><time>2026-04-22T09:24:21.999Z</time></trkpt><trkpt lat="35.73875306817144" lon="-5.769765662197569"><ele>13.333333333333334</ele><time>2026-04-22T09:24:22.999Z</time></trkpt><trkpt lat="35.73866644656125" lon="-5.769595555256855"><ele>15.0</ele><time>2026-04-22T09:24:23.999Z</time></trkpt><trkpt lat="35.73857184746128" lon="-5.769429874043031"><ele>14.333333333333332</ele><time>2026-04-22T09:24:24.999Z</time></trkpt><trkpt lat="35.73847307922687" lon="-5.769267815413758"><ele>13.666666666666666</ele><time>2026-04-22T09:24:25.999Z</time></trkpt><trkpt lat="35.738370044901664" lon="-5.769110710506314"><ele>13.0</ele><time>2026-04-22T09:24:26.999Z</time></trkpt><trkpt lat="35.73826381804366" lon="-5.768960086867235"><ele>13.0</ele><time>2026-04-22T09:24:27.999Z</time></trkpt><trkpt lat="35.73815352462637" lon="-5.768814761064578"><ele>13.0</ele><time>2026-04-22T09:24:28.999Z</time></trkpt><trkpt lat="35.73804340382754" lon="-5.768673555947316"><ele>13.0</ele><time>2026-04-22T09:24:29.999Z</time></trkpt><trkpt lat="35.73793208402911" lon="-5.768533356873705"><ele>13.333333333333332</ele><time>2026-04-22T09:24:30.999Z</time></trkpt><trkpt lat="35.73782271129061" lon="-5.768395047112727"><ele>13.666666666666668</ele><time>2026-04-22T09:24:31.999Z</time></trkpt><trkpt lat="35.73771271285735" lon="-5.768256396721832"><ele>14.0</ele><time>2026-04-22T09:24:32.999Z</time></trkpt><trkpt lat="35.73760143845697" lon="-5.768118529853201"><ele>14.0</ele><time>2026-04-22T09:24:33.999Z</time></trkpt><trkpt lat="35.737489652164356" lon="-5.767982068016543"><ele>14.0</ele><time>2026-04-22T09:24:34.999Z</time></trkpt><trkpt lat="35.73737810253138" lon="-5.767846200971034"><ele>14.0</ele><time>2026-04-22T09:24:35.999Z</time></trkpt><trkpt lat="35.73726755996176" lon="-5.767712873063573"><ele>14.0</ele><time>2026-04-22T09:24:36.999Z</time></trkpt><trkpt lat="35.73715927719577" lon="-5.767583347123269"><ele>14.0</ele><time>2026-04-22T09:24:37.999Z</time></trkpt><trkpt lat="35.737047489366965" lon="-5.767458929294167"><ele>14.0</ele><time>2026-04-22T09:24:38.999Z</time></trkpt><trkpt lat="35.73693047475896" lon="-5.7673428539949745"><ele>14.0</ele><time>2026-04-22T09:24:39.999Z</time></trkpt><trkpt lat="35.73682311655945" lon="-5.767229424259006"><ele>14.0</ele><time>2026-04-22T09:24:40.999Z</time></trkpt><trkpt lat="35.736731973753265" lon="-5.767121648679486"><ele>14.0</ele><time>2026-04-22T09:24:41.999Z</time></trkpt><trkpt lat="35.736648950696726" lon="-5.767018149179012"><ele>14.0</ele><time>2026-04-22T09:24:42.999Z</time></trkpt><trkpt lat="35.736572957945135" lon="-5.766921415388263"><ele>14.333333333333334</ele><time>2026-04-22T09:24:43.999Z</time></trkpt><trkpt lat="35.73650350788471" lon="-5.766835503277005"><ele>14.666666666666668</ele><time>2026-04-22T09:24:44.999Z</time></trkpt><trkpt lat="35.73644162639452" lon="-5.766761753333702"><ele>15.0</ele><time>2026-04-22T09:24:45.999Z</time></trkpt><trkpt lat="35.73637938897717" lon="-5.766696536089117"><ele>15.333333333333332</ele><time>2026-04-22T09:24:46.999Z</time></trkpt><trkpt lat="35.736314872034995" lon="-5.766634454348477"><ele>15.666666666666666</ele><time>2026-04-22T09:24:47.999Z</time></trkpt><trkpt lat="35.736252974843616" lon="-5.7665791112865215"><ele>16.0</ele><time>2026-04-22T09:24:48.999Z</time></trkpt><trkpt lat="35.73619157660819" lon="-5.766526135853959"><ele>15.999999999999998</ele><time>2026-04-22T09:24:49.999Z</time></trkpt><trkpt lat="35.73613568912161" lon="-5.7664792941446015"><ele>16.0</ele><time>2026-04-22T09:24:50.999Z</time></trkpt><trkpt lat="35.73608090162701" lon="-5.766436443528006"><ele>16.0</ele><time>2026-04-22T09:24:51.999Z</time></trkpt><trkpt lat="35.73600641176114" lon="-5.766384371966118"><ele>16.0</ele><time>2026-04-22T09:24:53.999Z</time></trkpt><trkpt lat="35.73593477950981" lon="-5.766332385611766"><ele>15.999999999999998</ele><time>2026-04-22T09:24:57.999Z</time></trkpt><trkpt lat="35.73585614745395" lon="-5.766281765155681"><ele>16.0</ele><time>2026-04-22T09:24:59.999Z</time></trkpt><trkpt lat="35.73576004716679" lon="-5.766188108913903"><ele>16.0</ele><time>2026-04-22T09:25:01.999Z</time></trkpt><trkpt lat="35.73569421294012" lon="-5.7661151154549986"><ele>16.0</ele><time>2026-04-22T09:25:02.999Z</time></trkpt><trkpt lat="35.73561382575236" lon="-5.766055954923042"><ele>16.0</ele><time>2026-04-22T09:25:03.999Z</time></trkpt><trkpt lat="35.73552571331564" lon="-5.766003189660007"><ele>16.0</ele><time>2026-04-22T09:25:04.999Z</time></trkpt><trkpt lat="35.73542420806455" lon="-5.765946555123668"><ele>16.0</ele><time>2026-04-22T09:25:05.999Z</time></trkpt><trkpt lat="35.73530593782491" lon="-5.765896744689575"><ele>16.0</ele><time>2026-04-22T09:25:06.999Z</time></trkpt><trkpt lat="35.73517044354704" lon="-5.765853194677497"><ele>16.0</ele><time>2026-04-22T09:25:07.999Z</time></trkpt><trkpt lat="35.735033720061445" lon="-5.765819457832673"><ele>16.0</ele><time>2026-04-22T09:25:08.999Z</time></trkpt><trkpt lat="35.734890023166436" lon="-5.765786744403094"><ele>16.0</ele><time>2026-04-22T09:25:09.999Z</time></trkpt><trkpt lat="35.73474198164583" lon="-5.7657589210899465"><ele>16.0</ele><time>2026-04-22T09:25:10.999Z</time></trkpt><trkpt lat="35.73458776969508" lon="-5.765731980932555"><ele>16.0</ele><time>2026-04-22T09:25:11.999Z</time></trkpt><trkpt lat="35.73442754330894" lon="-5.765703943474194"><ele>16.0</ele><time>2026-04-22T09:25:12.999Z</time></trkpt><trkpt lat="35.73426676217693" lon="-5.765666538613872"><ele>16.0</ele><time>2026-04-22T09:25:13.999Z</time></trkpt><trkpt lat="35.73410326237575" lon="-5.765632014616708"><ele>16.0</ele><time>2026-04-22T09:25:14.999Z</time></trkpt><trkpt lat="35.73392371308518" lon="-5.765604421018329"><ele>16.0</ele><time>2026-04-22T09:25:15.999Z</time></trkpt><trkpt lat="35.733736378999126" lon="-5.765573891102545"><ele>16.0</ele><time>2026-04-22T09:25:16.999Z</time></trkpt><trkpt lat="35.733560209338336" lon="-5.765539274655437"><ele>16.0</ele><time>2026-04-22T09:25:17.999Z</time></trkpt><trkpt lat="35.733391543718234" lon="-5.765502205004506"><ele>16.0</ele><time>2026-04-22T09:25:18.999Z</time></trkpt><trkpt lat="35.73324081466288" lon="-5.765455957406476"><ele>15.333333333333332</ele><time>2026-04-22T09:25:19.999Z</time></trkpt><trkpt lat="35.73307133224772" lon="-5.765417208369023"><ele>14.666666666666668</ele><time>2026-04-22T09:25:20.999Z</time></trkpt><trkpt lat="35.73290785059898" lon="-5.765370103477042"><ele>14.0</ele><time>2026-04-22T09:25:21.999Z</time></trkpt><trkpt lat="35.73273526087173" lon="-5.765309637353624"><ele>13.666666666666668</ele><time>2026-04-22T09:25:22.999Z</time></trkpt><trkpt lat="35.732594526105665" lon="-5.765229442472714"><ele>13.333333333333332</ele><time>2026-04-22T09:25:23.999Z</time></trkpt><trkpt lat="35.732444536843666" lon="-5.765151030039926"><ele>13.0</ele><time>2026-04-22T09:25:24.999Z</time></trkpt><trkpt lat="35.73230083220327" lon="-5.765060868286539"><ele>13.333333333333332</ele><time>2026-04-22T09:25:25.999Z</time></trkpt><trkpt lat="35.732161880057696" lon="-5.764957803633351"><ele>13.666666666666668</ele><time>2026-04-22T09:25:26.999Z</time></trkpt><trkpt lat="35.73201259467322" lon="-5.764826248501766"><ele>14.0</ele><time>2026-04-22T09:25:27.999Z</time></trkpt><trkpt lat="35.731861764750505" lon="-5.764695086271539"><ele>14.0</ele><time>2026-04-22T09:25:28.999Z</time></trkpt><trkpt lat="35.731742270785226" lon="-5.764545362857073"><ele>14.0</ele><time>2026-04-22T09:25:29.999Z</time></trkpt><trkpt lat="35.73163683221775" lon="-5.764387517554636"><ele>14.0</ele><time>2026-04-22T09:25:30.999Z</time></trkpt><trkpt lat="35.73153648932078" lon="-5.764225310443114"><ele>14.666666666666668</ele><time>2026-04-22T09:25:31.999Z</time></trkpt><trkpt lat="35.73146034096179" lon="-5.764060041007507"><ele>15.333333333333332</ele><time>2026-04-22T09:25:32.999Z</time></trkpt><trkpt lat="35.73138131053874" lon="-5.763882987911277"><ele>16.0</ele><time>2026-04-22T09:25:33.999Z</time></trkpt><trkpt lat="35.73131535310587" lon="-5.763702774882584"><ele>16.333333333333332</ele><time>2026-04-22T09:25:34.999Z</time></trkpt><trkpt lat="35.731250451530876" lon="-5.763520221037816"><ele>16.666666666666668</ele><time>2026-04-22T09:25:35.999Z</time></trkpt><trkpt lat="35.731192441443525" lon="-5.763340675343785"><ele>17.0</ele><time>2026-04-22T09:25:36.999Z</time></trkpt><trkpt lat="35.73113771539418" lon="-5.763172143653583"><ele>17.0</ele><time>2026-04-22T09:25:37.999Z</time></trkpt><trkpt lat="35.7310779604091" lon="-5.762988125176094"><ele>17.0</ele><time>2026-04-22T09:25:38.999Z</time></trkpt><trkpt lat="35.73101657637423" lon="-5.762804801014623"><ele>17.0</ele><time>2026-04-22T09:25:39.999Z</time></trkpt><trkpt lat="35.73094890897859" lon="-5.762599769387226"><ele>16.0</ele><time>2026-04-22T09:25:40.999Z</time></trkpt><trkpt lat="35.73086952109206" lon="-5.76238283206034"><ele>15.0</ele><time>2026-04-22T09:25:41.999Z</time></trkpt><trkpt lat="35.7307821081779" lon="-5.762158997455738"><ele>14.0</ele><time>2026-04-22T09:25:42.999Z</time></trkpt><trkpt lat="35.730697026297634" lon="-5.761952920642541"><ele>14.666666666666668</ele><time>2026-04-22T09:25:43.999Z</time></trkpt><trkpt lat="35.730614051225835" lon="-5.76174152944225"><ele>15.333333333333332</ele><time>2026-04-22T09:25:44.999Z</time></trkpt><trkpt lat="35.73057417238227" lon="-5.761568604340669"><ele>16.0</ele><time>2026-04-22T09:25:45.999Z</time></trkpt><trkpt lat="35.730548717416255" lon="-5.761372168516235"><ele>16.0</ele><time>2026-04-22T09:25:46.999Z</time></trkpt><trkpt lat="35.73052316661168" lon="-5.761100580317372"><ele>16.0</ele><time>2026-04-22T09:25:47.999Z</time></trkpt><trkpt lat="35.730481379320615" lon="-5.760862712771868"><ele>16.0</ele><time>2026-04-22T09:25:48.999Z</time></trkpt><trkpt lat="35.73044215713677" lon="-5.760663871198035"><ele>15.666666666666666</ele><time>2026-04-22T09:25:49.999Z</time></trkpt><trkpt lat="35.73039496360808" lon="-5.760480844173236"><ele>15.333333333333332</ele><time>2026-04-22T09:25:50.999Z</time></trkpt><trkpt lat="35.73034456415588" lon="-5.7602793262664305"><ele>15.0</ele><time>2026-04-22T09:25:51.999Z</time></trkpt><trkpt lat="35.730290357751805" lon="-5.760061478676558"><ele>16.666666666666668</ele><time>2026-04-22T09:25:52.999Z</time></trkpt><trkpt lat="35.73021539930518" lon="-5.759843792650985"><ele>18.333333333333336</ele><time>2026-04-22T09:25:53.999Z</time></trkpt><trkpt lat="35.7301437158825" lon="-5.759669674240062"><ele>20.0</ele><time>2026-04-22T09:25:54.999Z</time></trkpt><trkpt lat="35.73006680493654" lon="-5.7595000357421515"><ele>19.666666666666668</ele><time>2026-04-22T09:25:55.999Z</time></trkpt><trkpt lat="35.72998306859204" lon="-5.759330002974388"><ele>19.333333333333332</ele><time>2026-04-22T09:25:56.999Z</time></trkpt><trkpt lat="35.729890191814256" lon="-5.759162378222956"><ele>19.0</ele><time>2026-04-22T09:25:57.999Z</time></trkpt><trkpt lat="35.72980869392325" lon="-5.759005210177097"><ele>19.0</ele><time>2026-04-22T09:25:58.999Z</time></trkpt><trkpt lat="35.729730023995245" lon="-5.758831193158854"><ele>19.0</ele><time>2026-04-22T09:25:59.999Z</time></trkpt><trkpt lat="35.729619567947765" lon="-5.758687085646559"><ele>19.0</ele><time>2026-04-22T09:26:00.999Z</time></trkpt><trkpt lat="35.7295207759769" lon="-5.758524075686911"><ele>19.0</ele><time>2026-04-22T09:26:01.999Z</time></trkpt><trkpt lat="35.729410586400384" lon="-5.758362788241188"><ele>19.0</ele><time>2026-04-22T09:26:02.999Z</time></trkpt><trkpt lat="35.72929477593261" lon="-5.758194934970327"><ele>19.0</ele><time>2026-04-22T09:26:03.999Z</time></trkpt><trkpt lat="35.729175939934464" lon="-5.758017341369323"><ele>20.0</ele><time>2026-04-22T09:26:04.999Z</time></trkpt><trkpt lat="35.72905684560432" lon="-5.757834448459079"><ele>21.0</ele><time>2026-04-22T09:26:05.999Z</time></trkpt><trkpt lat="35.72893540449933" lon="-5.7576438596733786"><ele>22.0</ele><time>2026-04-22T09:26:06.999Z</time></trkpt><trkpt lat="35.72881891280958" lon="-5.757462407989627"><ele>22.0</ele><time>2026-04-22T09:26:07.999Z</time></trkpt><trkpt lat="35.728692033073216" lon="-5.757278660980657"><ele>22.0</ele><time>2026-04-22T09:26:08.999Z</time></trkpt><trkpt lat="35.728556708574075" lon="-5.757089036685177"><ele>22.0</ele><time>2026-04-22T09:26:09.999Z</time></trkpt><trkpt lat="35.72841830927517" lon="-5.756892095348121"><ele>23.0</ele><time>2026-04-22T09:26:10.999Z</time></trkpt><trkpt lat="35.72827419847438" lon="-5.7566951291330595"><ele>24.0</ele><time>2026-04-22T09:26:11.999Z</time></trkpt><trkpt lat="35.728128886971525" lon="-5.75649097907272"><ele>25.0</ele><time>2026-04-22T09:26:12.999Z</time></trkpt><trkpt lat="35.72798175945515" lon="-5.756284858880001"><ele>25.0</ele><time>2026-04-22T09:26:13.999Z</time></trkpt><trkpt lat="35.727843213650736" lon="-5.756086029529293"><ele>25.0</ele><time>2026-04-22T09:26:14.999Z</time></trkpt><trkpt lat="35.72770652785483" lon="-5.755887066098147"><ele>25.0</ele><time>2026-04-22T09:26:15.999Z</time></trkpt><trkpt lat="35.72757439716371" lon="-5.755688680524693"><ele>24.333333333333336</ele><time>2026-04-22T09:26:16.999Z</time></trkpt><trkpt lat="35.72745026687807" lon="-5.755484694436223"><ele>23.666666666666668</ele><time>2026-04-22T09:26:17.999Z</time></trkpt><trkpt lat="35.727335560653046" lon="-5.755275990403115"><ele>23.0</ele><time>2026-04-22T09:26:18.999Z</time></trkpt><trkpt lat="35.727232474963174" lon="-5.755061855544877"><ele>22.0</ele><time>2026-04-22T09:26:19.999Z</time></trkpt><trkpt lat="35.727134198432005" lon="-5.75484490884443"><ele>21.0</ele><time>2026-04-22T09:26:20.999Z</time></trkpt><trkpt lat="35.7270546888131" lon="-5.754615421553739"><ele>20.0</ele><time>2026-04-22T09:26:21.999Z</time></trkpt><trkpt lat="35.72698218677573" lon="-5.754371670650737"><ele>20.0</ele><time>2026-04-22T09:26:22.999Z</time></trkpt><trkpt lat="35.7269141213943" lon="-5.754122410088535"><ele>20.0</ele><time>2026-04-22T09:26:23.999Z</time></trkpt><trkpt lat="35.7268579680114" lon="-5.753867578465983"><ele>20.0</ele><time>2026-04-22T09:26:24.999Z</time></trkpt><trkpt lat="35.726804330370676" lon="-5.753616020444794"><ele>20.0</ele><time>2026-04-22T09:26:25.999Z</time></trkpt><trkpt lat="35.72674546816169" lon="-5.753370556956965"><ele>20.0</ele><time>2026-04-22T09:26:26.999Z</time></trkpt><trkpt lat="35.726697104036916" lon="-5.753121407960046"><ele>20.0</ele><time>2026-04-22T09:26:27.999Z</time></trkpt><trkpt lat="35.72665230015317" lon="-5.752888354133533"><ele>20.666666666666668</ele><time>2026-04-22T09:26:28.999Z</time></trkpt><trkpt lat="35.726623656516175" lon="-5.752664889281181"><ele>21.333333333333332</ele><time>2026-04-22T09:26:29.999Z</time></trkpt><trkpt lat="35.72661381458858" lon="-5.752438785992704"><ele>22.0</ele><time>2026-04-22T09:26:30.999Z</time></trkpt><trkpt lat="35.72661626043468" lon="-5.752216760670609"><ele>22.0</ele><time>2026-04-22T09:26:31.999Z</time></trkpt><trkpt lat="35.72662788399002" lon="-5.7519889750189375"><ele>22.0</ele><time>2026-04-22T09:26:32.999Z</time></trkpt><trkpt lat="35.72663855874592" lon="-5.751752963896937"><ele>22.0</ele><time>2026-04-22T09:26:33.999Z</time></trkpt><trkpt lat="35.72664147551856" lon="-5.751515655108122"><ele>23.333333333333332</ele><time>2026-04-22T09:26:34.999Z</time></trkpt><trkpt lat="35.72663862600265" lon="-5.7512840502378975"><ele>24.666666666666664</ele><time>2026-04-22T09:26:35.999Z</time></trkpt><trkpt lat="35.7266278116829" lon="-5.751058025471169"><ele>26.0</ele><time>2026-04-22T09:26:36.999Z</time></trkpt><trkpt lat="35.7266102187805" lon="-5.750835330600445"><ele>26.0</ele><time>2026-04-22T09:26:37.999Z</time></trkpt><trkpt lat="35.7265882333575" lon="-5.75062210722559"><ele>26.0</ele><time>2026-04-22T09:26:38.999Z</time></trkpt><trkpt lat="35.726565548134936" lon="-5.750408535345917"><ele>26.0</ele><time>2026-04-22T09:26:39.999Z</time></trkpt><trkpt lat="35.72654561934915" lon="-5.750201384911288"><ele>25.666666666666664</ele><time>2026-04-22T09:26:40.999Z</time></trkpt><trkpt lat="35.72652329700271" lon="-5.749998723865542"><ele>25.333333333333336</ele><time>2026-04-22T09:26:41.999Z</time></trkpt><trkpt lat="35.72651010259663" lon="-5.749791249374465"><ele>25.0</ele><time>2026-04-22T09:26:42.999Z</time></trkpt><trkpt lat="35.726495591885026" lon="-5.749587125810119"><ele>25.0</ele><time>2026-04-22T09:26:43.999Z</time></trkpt><trkpt lat="35.7264835012586" lon="-5.749388121670358"><ele>25.0</ele><time>2026-04-22T09:26:44.999Z</time></trkpt><trkpt lat="35.72648730921643" lon="-5.74918730182426"><ele>25.0</ele><time>2026-04-22T09:26:45.999Z</time></trkpt><trkpt lat="35.72648722224994" lon="-5.748994494907072"><ele>24.5</ele><time>2026-04-22T09:26:46.999Z</time></trkpt><trkpt lat="35.72648412496001" lon="-5.748815773762459"><ele>24.0</ele><time>2026-04-22T09:26:47.999Z</time></trkpt><trkpt lat="35.72649075927412" lon="-5.748635364386023"><ele>23.5</ele><time>2026-04-22T09:26:48.999Z</time></trkpt><trkpt lat="35.72651357666168" lon="-5.748458765871889"><ele>23.0</ele><time>2026-04-22T09:26:49.999Z</time></trkpt><trkpt lat="35.726529386794375" lon="-5.748254122908789"><ele>23.0</ele><time>2026-04-22T09:26:50.999Z</time></trkpt><trkpt lat="35.72656468142214" lon="-5.748077289052828"><ele>23.0</ele><time>2026-04-22T09:26:51.999Z</time></trkpt><trkpt lat="35.72658778381658" lon="-5.74790511402629"><ele>23.0</ele><time>2026-04-22T09:26:52.999Z</time></trkpt><trkpt lat="35.72661111747553" lon="-5.747731215475832"><ele>23.0</ele><time>2026-04-22T09:26:53.999Z</time></trkpt><trkpt lat="35.72663870372677" lon="-5.747525623724001"><ele>24.0</ele><time>2026-04-22T09:26:54.999Z</time></trkpt><trkpt lat="35.72666813031936" lon="-5.747306316922311"><ele>25.0</ele><time>2026-04-22T09:26:55.999Z</time></trkpt><trkpt lat="35.72668017702957" lon="-5.747096449003423"><ele>26.0</ele><time>2026-04-22T09:26:56.999Z</time></trkpt><trkpt lat="35.72671675712792" lon="-5.746883616132255"><ele>27.0</ele><time>2026-04-22T09:26:57.999Z</time></trkpt><trkpt lat="35.726757348259646" lon="-5.746665175138539"><ele>28.0</ele><time>2026-04-22T09:26:58.999Z</time></trkpt><trkpt lat="35.72679044127888" lon="-5.746441923851256"><ele>29.0</ele><time>2026-04-22T09:26:59.999Z</time></trkpt><trkpt lat="35.72682291008114" lon="-5.746220361566845"><ele>29.0</ele><time>2026-04-22T09:27:00.999Z</time></trkpt><trkpt lat="35.72685541888432" lon="-5.746012264003612"><ele>29.0</ele><time>2026-04-22T09:27:01.999Z</time></trkpt><trkpt lat="35.72688438983539" lon="-5.745806562780941"><ele>29.0</ele><time>2026-04-22T09:27:02.999Z</time></trkpt><trkpt lat="35.72690221257935" lon="-5.745597744605723"><ele>29.0</ele><time>2026-04-22T09:27:03.999Z</time></trkpt><trkpt lat="35.72692820739773" lon="-5.745383291205441"><ele>29.0</ele><time>2026-04-22T09:27:04.999Z</time></trkpt><trkpt lat="35.72696137913264" lon="-5.745177947453224"><ele>29.0</ele><time>2026-04-22T09:27:05.999Z</time></trkpt><trkpt lat="35.72699575641775" lon="-5.744973522452698"><ele>29.333333333333332</ele><time>2026-04-22T09:27:06.999Z</time></trkpt><trkpt lat="35.72702753610476" lon="-5.744770271182311"><ele>29.666666666666664</ele><time>2026-04-22T09:27:07.999Z</time></trkpt><trkpt lat="35.72705429108903" lon="-5.744574452177029"><ele>30.0</ele><time>2026-04-22T09:27:08.999Z</time></trkpt><trkpt lat="35.72706805408734" lon="-5.744387070800361"><ele>30.0</ele><time>2026-04-22T09:27:09.999Z</time></trkpt><trkpt lat="35.727076559201954" lon="-5.744182839453503"><ele>30.0</ele><time>2026-04-22T09:27:10.999Z</time></trkpt><trkpt lat="35.72707972833303" lon="-5.743977339543684"><ele>30.0</ele><time>2026-04-22T09:27:11.999Z</time></trkpt><trkpt lat="35.727085121068406" lon="-5.743760289068366"><ele>29.333333333333336</ele><time>2026-04-22T09:27:12.999Z</time></trkpt><trkpt lat="35.727033992109774" lon="-5.743545635795292"><ele>28.666666666666668</ele><time>2026-04-22T09:27:13.999Z</time></trkpt><trkpt lat="35.72697981819717" lon="-5.743350375635238"><ele>28.0</ele><time>2026-04-22T09:27:14.999Z</time></trkpt><trkpt lat="35.72692988630137" lon="-5.743170242288226"><ele>29.0</ele><time>2026-04-22T09:27:15.999Z</time></trkpt><trkpt lat="35.72686225825413" lon="-5.743018266680729"><ele>30.0</ele><time>2026-04-22T09:27:16.999Z</time></trkpt><trkpt lat="35.72680429049232" lon="-5.742852444086373"><ele>31.0</ele><time>2026-04-22T09:27:17.999Z</time></trkpt><trkpt lat="35.726706078587966" lon="-5.742722291780398"><ele>32.0</ele><time>2026-04-22T09:27:18.999Z</time></trkpt><trkpt lat="35.72662295023306" lon="-5.74259401407792"><ele>32.0</ele><time>2026-04-22T09:27:19.999Z</time></trkpt><trkpt lat="35.72654527422198" lon="-5.74247421135951"><ele>32.0</ele><time>2026-04-22T09:27:20.999Z</time></trkpt><trkpt lat="35.72645869499869" lon="-5.742332875552046"><ele>32.0</ele><time>2026-04-22T09:27:21.999Z</time></trkpt><trkpt lat="35.726369253152484" lon="-5.742202502258615"><ele>32.0</ele><time>2026-04-22T09:27:22.999Z</time></trkpt><trkpt lat="35.72629101382613" lon="-5.742080789170865"><ele>32.0</ele><time>2026-04-22T09:27:23.999Z</time></trkpt><trkpt lat="35.726200448327695" lon="-5.741952609451247"><ele>32.0</ele><time>2026-04-22T09:27:24.999Z</time></trkpt><trkpt lat="35.72610269476803" lon="-5.741824922090011"><ele>32.0</ele><time>2026-04-22T09:27:25.999Z</time></trkpt><trkpt lat="35.72600477566358" lon="-5.7416960579000555"><ele>32.0</ele><time>2026-04-22T09:27:26.999Z</time></trkpt><trkpt lat="35.7259065407597" lon="-5.741577639256659"><ele>32.33333333333333</ele><time>2026-04-22T09:27:27.999Z</time></trkpt><trkpt lat="35.72580912558485" lon="-5.741423288828592"><ele>32.666666666666664</ele><time>2026-04-22T09:27:28.999Z</time></trkpt><trkpt lat="35.7256822419996" lon="-5.741253116218351"><ele>33.0</ele><time>2026-04-22T09:27:29.999Z</time></trkpt><trkpt lat="35.72555745208782" lon="-5.7410866371040425"><ele>32.333333333333336</ele><time>2026-04-22T09:27:30.999Z</time></trkpt><trkpt lat="35.72543407110465" lon="-5.740924218757635"><ele>31.666666666666668</ele><time>2026-04-22T09:27:31.999Z</time></trkpt><trkpt lat="35.72531114180666" lon="-5.740755677385302"><ele>31.0</ele><time>2026-04-22T09:27:32.999Z</time></trkpt><trkpt lat="35.7251843130912" lon="-5.740587968154738"><ele>31.333333333333336</ele><time>2026-04-22T09:27:33.999Z</time></trkpt><trkpt lat="35.72506484478038" lon="-5.740421315648931"><ele>31.666666666666664</ele><time>2026-04-22T09:27:34.999Z</time></trkpt><trkpt lat="35.724942497317805" lon="-5.740254384642624"><ele>32.0</ele><time>2026-04-22T09:27:35.999Z</time></trkpt><trkpt lat="35.72481683887857" lon="-5.74008358171662"><ele>32.0</ele><time>2026-04-22T09:27:36.999Z</time></trkpt><trkpt lat="35.72468816010941" lon="-5.739911022518183"><ele>32.0</ele><time>2026-04-22T09:27:37.999Z</time></trkpt><trkpt lat="35.724581903244555" lon="-5.739768930480962"><ele>32.0</ele><time>2026-04-22T09:27:38.999Z</time></trkpt><trkpt lat="35.724493832902134" lon="-5.739648210946001"><ele>32.0</ele><time>2026-04-22T09:27:39.999Z</time></trkpt><trkpt lat="35.72440886456119" lon="-5.739528422996894"><ele>32.0</ele><time>2026-04-22T09:27:40.999Z</time></trkpt><trkpt lat="35.72431927215281" lon="-5.739409791395946"><ele>32.0</ele><time>2026-04-22T09:27:41.999Z</time></trkpt><trkpt lat="35.72422699418401" lon="-5.739282978190125"><ele>32.0</ele><time>2026-04-22T09:27:42.999Z</time></trkpt><trkpt lat="35.72410002394007" lon="-5.7391937709088"><ele>32.666666666666664</ele><time>2026-04-22T09:27:43.999Z</time></trkpt><trkpt lat="35.72399209582276" lon="-5.739066894277222"><ele>33.333333333333336</ele><time>2026-04-22T09:27:44.999Z</time></trkpt><trkpt lat="35.72393493414798" lon="-5.7388694107067115"><ele>34.0</ele><time>2026-04-22T09:27:45.999Z</time></trkpt><trkpt lat="35.723826546535" lon="-5.738721203013437"><ele>34.0</ele><time>2026-04-22T09:27:46.999Z</time></trkpt><trkpt lat="35.72371075134851" lon="-5.738564249647307"><ele>34.0</ele><time>2026-04-22T09:27:47.999Z</time></trkpt><trkpt lat="35.723587781605026" lon="-5.738400585543242"><ele>34.0</ele><time>2026-04-22T09:27:48.999Z</time></trkpt><trkpt lat="35.723461490846965" lon="-5.73822808875909"><ele>35.0</ele><time>2026-04-22T09:27:49.999Z</time></trkpt><trkpt lat="35.72333373688035" lon="-5.738046091891283"><ele>36.0</ele><time>2026-04-22T09:27:50.999Z</time></trkpt><trkpt lat="35.72319891873017" lon="-5.737861619891041"><ele>37.0</ele><time>2026-04-22T09:27:51.999Z</time></trkpt><trkpt lat="35.72306104741506" lon="-5.737674547579874"><ele>37.0</ele><time>2026-04-22T09:27:52.999Z</time></trkpt><trkpt lat="35.72293773649238" lon="-5.737505301246663"><ele>37.0</ele><time>2026-04-22T09:27:53.999Z</time></trkpt><trkpt lat="35.72281989035513" lon="-5.737340000402595"><ele>37.0</ele><time>2026-04-22T09:27:54.999Z</time></trkpt><trkpt lat="35.722710424082926" lon="-5.737189951742047"><ele>38.333333333333336</ele><time>2026-04-22T09:27:55.999Z</time></trkpt><trkpt lat="35.72260524692133" lon="-5.737044172590027"><ele>39.666666666666664</ele><time>2026-04-22T09:27:56.999Z</time></trkpt><trkpt lat="35.72250021819568" lon="-5.736901812909076"><ele>41.0</ele><time>2026-04-22T09:27:57.999Z</time></trkpt><trkpt lat="35.722403430171916" lon="-5.736772164394924"><ele>41.0</ele><time>2026-04-22T09:27:58.999Z</time></trkpt><trkpt lat="35.72230824858127" lon="-5.736646305755615"><ele>41.0</ele><time>2026-04-22T09:27:59.999Z</time></trkpt><trkpt lat="35.722211607509635" lon="-5.736526320317062"><ele>41.0</ele><time>2026-04-22T09:28:00.999Z</time></trkpt><trkpt lat="35.722107874445065" lon="-5.736414622457281"><ele>41.0</ele><time>2026-04-22T09:28:01.999Z</time></trkpt><trkpt lat="35.72199709551426" lon="-5.736301680078438"><ele>40.75</ele><time>2026-04-22T09:28:02.999Z</time></trkpt><trkpt lat="35.721880817100185" lon="-5.736200223214465"><ele>40.5</ele><time>2026-04-22T09:28:03.999Z</time></trkpt><trkpt lat="35.72176053188237" lon="-5.73610586138896"><ele>40.25</ele><time>2026-04-22T09:28:04.999Z</time></trkpt><trkpt lat="35.72163284377096" lon="-5.736015317642722"><ele>40.0</ele><time>2026-04-22T09:28:05.999Z</time></trkpt><trkpt lat="35.72150122939839" lon="-5.735935546782172"><ele>40.0</ele><time>2026-04-22T09:28:06.999Z</time></trkpt><trkpt lat="35.72136687133238" lon="-5.735866659508487"><ele>40.0</ele><time>2026-04-22T09:28:07.999Z</time></trkpt><trkpt lat="35.72123566816777" lon="-5.7358041687538694"><ele>40.0</ele><time>2026-04-22T09:28:08.999Z</time></trkpt><trkpt lat="35.721107347959446" lon="-5.735746407073432"><ele>40.0</ele><time>2026-04-22T09:28:09.999Z</time></trkpt><trkpt lat="35.72098265083552" lon="-5.735697239321462"><ele>41.0</ele><time>2026-04-22T09:28:10.999Z</time></trkpt><trkpt lat="35.72085926679354" lon="-5.735656160838718"><ele>42.0</ele><time>2026-04-22T09:28:11.999Z</time></trkpt><trkpt lat="35.72073729317379" lon="-5.735614914143785"><ele>43.0</ele><time>2026-04-22T09:28:12.999Z</time></trkpt><trkpt lat="35.720613462075946" lon="-5.735580044256486"><ele>44.0</ele><time>2026-04-22T09:28:13.999Z</time></trkpt><trkpt lat="35.7204868800248" lon="-5.735544638481972"><ele>44.0</ele><time>2026-04-22T09:28:14.999Z</time></trkpt><trkpt lat="35.72036150226745" lon="-5.735479967915171"><ele>44.0</ele><time>2026-04-22T09:28:15.999Z</time></trkpt><trkpt lat="35.72023034159222" lon="-5.735428923881109"><ele>44.0</ele><time>2026-04-22T09:28:16.999Z</time></trkpt><trkpt lat="35.72009879087353" lon="-5.73537772805054"><ele>44.0</ele><time>2026-04-22T09:28:17.999Z</time></trkpt><trkpt lat="35.71996526505021" lon="-5.73532576356543"><ele>44.33333333333333</ele><time>2026-04-22T09:28:18.999Z</time></trkpt><trkpt lat="35.71982762388502" lon="-5.735271701204997"><ele>44.666666666666664</ele><time>2026-04-22T09:28:19.999Z</time></trkpt><trkpt lat="35.71969256922968" lon="-5.735218955308422"><ele>45.0</ele><time>2026-04-22T09:28:20.999Z</time></trkpt><trkpt lat="35.71952952112989" lon="-5.7351615507589"><ele>45.333333333333336</ele><time>2026-04-22T09:28:21.999Z</time></trkpt><trkpt lat="35.71937364237287" lon="-5.735109820302994"><ele>45.66666666666667</ele><time>2026-04-22T09:28:22.999Z</time></trkpt><trkpt lat="35.71921975577592" lon="-5.735040285148983"><ele>46.0</ele><time>2026-04-22T09:28:23.999Z</time></trkpt><trkpt lat="35.71905592872362" lon="-5.734988703340496"><ele>46.0</ele><time>2026-04-22T09:28:24.999Z</time></trkpt><trkpt lat="35.718882964959256" lon="-5.734946349979495"><ele>46.0</ele><time>2026-04-22T09:28:25.999Z</time></trkpt><trkpt lat="35.71871279417059" lon="-5.734900369448724"><ele>46.0</ele><time>2026-04-22T09:28:26.999Z</time></trkpt><trkpt lat="35.71853862471578" lon="-5.734850545141816"><ele>46.66666666666667</ele><time>2026-04-22T09:28:27.999Z</time></trkpt><trkpt lat="35.71835802427331" lon="-5.734805372990835"><ele>47.333333333333336</ele><time>2026-04-22T09:28:28.999Z</time></trkpt><trkpt lat="35.71817157419249" lon="-5.734759184723488"><ele>48.0</ele><time>2026-04-22T09:28:29.999Z</time></trkpt><trkpt lat="35.71798966746943" lon="-5.734704255432517"><ele>48.0</ele><time>2026-04-22T09:28:30.999Z</time></trkpt><trkpt lat="35.71779845527867" lon="-5.734661098097629"><ele>48.0</ele><time>2026-04-22T09:28:31.999Z</time></trkpt><trkpt lat="35.71760319828767" lon="-5.734603661480689"><ele>48.0</ele><time>2026-04-22T09:28:32.999Z</time></trkpt><trkpt lat="35.71741297897086" lon="-5.7345480932843165"><ele>49.33333333333333</ele><time>2026-04-22T09:28:33.999Z</time></trkpt><trkpt lat="35.717222033219365" lon="-5.734494681570105"><ele>50.666666666666664</ele><time>2026-04-22T09:28:34.999Z</time></trkpt><trkpt lat="35.7170282296822" lon="-5.734441892825479"><ele>52.0</ele><time>2026-04-22T09:28:35.999Z</time></trkpt><trkpt lat="35.7168465684621" lon="-5.734391397428622"><ele>51.666666666666664</ele><time>2026-04-22T09:28:37Z</time></trkpt><trkpt lat="35.7166638419353" lon="-5.73433876074336"><ele>51.33333333333333</ele><time>2026-04-22T09:28:37.999Z</time></trkpt><trkpt lat="35.71648454339484" lon="-5.734274728007492"><ele>51.0</ele><time>2026-04-22T09:28:38.999Z</time></trkpt><trkpt lat="35.716310398342024" lon="-5.734199179779599"><ele>51.0</ele><time>2026-04-22T09:28:40Z</time></trkpt><trkpt lat="35.71613679937288" lon="-5.734127328516054"><ele>51.0</ele><time>2026-04-22T09:28:41Z</time></trkpt><trkpt lat="35.71596442595579" lon="-5.734053751618029"><ele>51.0</ele><time>2026-04-22T09:28:42Z</time></trkpt><trkpt lat="35.71578680397696" lon="-5.73398293128167"><ele>51.66666666666667</ele><time>2026-04-22T09:28:43Z</time></trkpt><trkpt lat="35.71560934057861" lon="-5.733909582407543"><ele>52.333333333333336</ele><time>2026-04-22T09:28:44Z</time></trkpt><trkpt lat="35.715432940601524" lon="-5.7338391380825"><ele>53.0</ele><time>2026-04-22T09:28:45Z</time></trkpt><trkpt lat="35.71526154457879" lon="-5.7337678968278825"><ele>53.333333333333336</ele><time>2026-04-22T09:28:45.999Z</time></trkpt><trkpt lat="35.715093777866436" lon="-5.733701664173355"><ele>53.66666666666667</ele><time>2026-04-22T09:28:46.999Z</time></trkpt><trkpt lat="35.714936289490055" lon="-5.733648191251051"><ele>54.0</ele><time>2026-04-22T09:28:47.999Z</time></trkpt><trkpt lat="35.714764783223146" lon="-5.733607600913897"><ele>54.0</ele><time>2026-04-22T09:28:48.999Z</time></trkpt><trkpt lat="35.71459424508316" lon="-5.733576914448979"><ele>54.0</ele><time>2026-04-22T09:28:49.999Z</time></trkpt><trkpt lat="35.71442800774257" lon="-5.7335571821295765"><ele>54.0</ele><time>2026-04-22T09:28:50.999Z</time></trkpt><trkpt lat="35.714267341064335" lon="-5.73353841307834"><ele>53.33333333333333</ele><time>2026-04-22T09:28:51.999Z</time></trkpt><trkpt lat="35.71411273639081" lon="-5.733520747173721"><ele>52.666666666666664</ele><time>2026-04-22T09:28:52.999Z</time></trkpt><trkpt lat="35.713967057246684" lon="-5.733514199868263"><ele>52.0</ele><time>2026-04-22T09:28:53.999Z</time></trkpt><trkpt lat="35.713815421423476" lon="-5.733517459374775"><ele>52.0</ele><time>2026-04-22T09:28:54.999Z</time></trkpt><trkpt lat="35.713672347758695" lon="-5.733532303747001"><ele>52.0</ele><time>2026-04-22T09:28:55.999Z</time></trkpt><trkpt lat="35.71353131137429" lon="-5.733584063800043"><ele>52.0</ele><time>2026-04-22T09:28:56.999Z</time></trkpt><trkpt lat="35.71339332616045" lon="-5.733584063798527"><ele>52.0</ele><time>2026-04-22T09:28:57.999Z</time></trkpt><trkpt lat="35.713260597736515" lon="-5.733527046078548"><ele>52.5</ele><time>2026-04-22T09:28:58.999Z</time></trkpt><trkpt lat="35.71311954297863" lon="-5.733492519564982"><ele>53.0</ele><time>2026-04-22T09:28:59.999Z</time></trkpt><trkpt lat="35.71296715006396" lon="-5.733476817417658"><ele>53.5</ele><time>2026-04-22T09:29:00.999Z</time></trkpt><trkpt lat="35.71281604485592" lon="-5.733471873377085"><ele>54.0</ele><time>2026-04-22T09:29:01.999Z</time></trkpt><trkpt lat="35.71265306415497" lon="-5.73346475666471"><ele>54.33333333333333</ele><time>2026-04-22T09:29:02.999Z</time></trkpt><trkpt lat="35.712478934023466" lon="-5.733459548249087"><ele>54.666666666666664</ele><time>2026-04-22T09:29:03.999Z</time></trkpt><trkpt lat="35.71229642285913" lon="-5.733449449986097"><ele>55.0</ele><time>2026-04-22T09:29:04.999Z</time></trkpt><trkpt lat="35.7121048015789" lon="-5.73344070486613"><ele>56.0</ele><time>2026-04-22T09:29:05.999Z</time></trkpt><trkpt lat="35.71190445122186" lon="-5.733427861934393"><ele>57.0</ele><time>2026-04-22T09:29:06.999Z</time></trkpt><trkpt lat="35.71169853907973" lon="-5.733415027763364"><ele>58.0</ele><time>2026-04-22T09:29:07.999Z</time></trkpt><trkpt lat="35.7114839312946" lon="-5.7334038935577425"><ele>58.0</ele><time>2026-04-22T09:29:08.999Z</time></trkpt><trkpt lat="35.711263783493926" lon="-5.733393223194737"><ele>58.0</ele><time>2026-04-22T09:29:09.999Z</time></trkpt><trkpt lat="35.711041125737644" lon="-5.733381607281292"><ele>58.0</ele><time>2026-04-22T09:29:10.999Z</time></trkpt><trkpt lat="35.710826975121236" lon="-5.733370470096203"><ele>58.666666666666664</ele><time>2026-04-22T09:29:11.999Z</time></trkpt><trkpt lat="35.71061182994877" lon="-5.733360848948705"><ele>59.33333333333333</ele><time>2026-04-22T09:29:12.999Z</time></trkpt><trkpt lat="35.710391737305024" lon="-5.7333521707590895"><ele>60.0</ele><time>2026-04-22T09:29:13.999Z</time></trkpt><trkpt lat="35.71016778785792" lon="-5.733342716367924"><ele>63.0</ele><time>2026-04-22T09:29:14.999Z</time></trkpt><trkpt lat="35.70994111273292" lon="-5.733330191841426"><ele>66.0</ele><time>2026-04-22T09:29:15.999Z</time></trkpt><trkpt lat="35.70971195773955" lon="-5.733318049091928"><ele>66.0</ele><time>2026-04-22T09:29:16.999Z</time></trkpt><trkpt lat="35.70947889693095" lon="-5.733308130365402"><ele>66.0</ele><time>2026-04-22T09:29:17.999Z</time></trkpt><trkpt lat="35.709242034545774" lon="-5.733293609542866"><ele>67.5</ele><time>2026-04-22T09:29:18.999Z</time></trkpt><trkpt lat="35.709002096619116" lon="-5.733278709802218"><ele>69.0</ele><time>2026-04-22T09:29:19.999Z</time></trkpt><trkpt lat="35.70876269941722" lon="-5.7332643490526465"><ele>73.5</ele><time>2026-04-22T09:29:20.999Z</time></trkpt><trkpt lat="35.70852852302497" lon="-5.73324907306894"><ele>78.0</ele><time>2026-04-22T09:29:21.999Z</time></trkpt><trkpt lat="35.708295976719555" lon="-5.733238875735999"><ele>78.0</ele><time>2026-04-22T09:29:22.999Z</time></trkpt><trkpt lat="35.70806141922791" lon="-5.733228419231809"><ele>78.0</ele><time>2026-04-22T09:29:23.999Z</time></trkpt><trkpt lat="35.707826557101555" lon="-5.733220538749474"><ele>77.0</ele><time>2026-04-22T09:29:24.999Z</time></trkpt><trkpt lat="35.70758796459953" lon="-5.733211576145541"><ele>76.0</ele><time>2026-04-22T09:29:25.999Z</time></trkpt><trkpt lat="35.707354280417455" lon="-5.733200167899834"><ele>76.0</ele><time>2026-04-22T09:29:26.999Z</time></trkpt><trkpt lat="35.70712416889007" lon="-5.7331865002234474"><ele>76.0</ele><time>2026-04-22T09:29:27.999Z</time></trkpt><trkpt lat="35.70689950309325" lon="-5.7331681960801415"><ele>75.66666666666666</ele><time>2026-04-22T09:29:28.999Z</time></trkpt><trkpt lat="35.706678591987504" lon="-5.7331487114013955"><ele>75.33333333333333</ele><time>2026-04-22T09:29:29.999Z</time></trkpt><trkpt lat="35.70646047217759" lon="-5.7331119414506375"><ele>75.0</ele><time>2026-04-22T09:29:30.999Z</time></trkpt><trkpt lat="35.706251361583874" lon="-5.733054468744844"><ele>74.66666666666667</ele><time>2026-04-22T09:29:31.999Z</time></trkpt><trkpt lat="35.706049537207335" lon="-5.732971879682578"><ele>74.33333333333334</ele><time>2026-04-22T09:29:32.999Z</time></trkpt><trkpt lat="35.70585824773229" lon="-5.732874903953757"><ele>74.0</ele><time>2026-04-22T09:29:33.999Z</time></trkpt><trkpt lat="35.7056876477575" lon="-5.73272723821306"><ele>73.66666666666667</ele><time>2026-04-22T09:29:34.999Z</time></trkpt><trkpt lat="35.705523772724874" lon="-5.732574463757856"><ele>73.33333333333333</ele><time>2026-04-22T09:29:35.999Z</time></trkpt><trkpt lat="35.70535215045736" lon="-5.732388678600903"><ele>73.0</ele><time>2026-04-22T09:29:36.999Z</time></trkpt><trkpt lat="35.70517910321134" lon="-5.732215919710034"><ele>73.0</ele><time>2026-04-22T09:29:37.999Z</time></trkpt><trkpt lat="35.7049976332103" lon="-5.732038954930175"><ele>73.0</ele><time>2026-04-22T09:29:38.999Z</time></trkpt><trkpt lat="35.7048138645571" lon="-5.731856679522609"><ele>71.0</ele><time>2026-04-22T09:29:39.999Z</time></trkpt><trkpt lat="35.70463355231957" lon="-5.731664330250851"><ele>69.0</ele><time>2026-04-22T09:29:40.999Z</time></trkpt><trkpt lat="35.704445917795795" lon="-5.731471219443367"><ele>70.5</ele><time>2026-04-22T09:29:41.999Z</time></trkpt><trkpt lat="35.704266812003944" lon="-5.731280621288199"><ele>72.0</ele><time>2026-04-22T09:29:42.999Z</time></trkpt><trkpt lat="35.704086015827926" lon="-5.731103262473383"><ele>74.5</ele><time>2026-04-22T09:29:43.999Z</time></trkpt><trkpt lat="35.70389833972302" lon="-5.730942700452179"><ele>77.0</ele><time>2026-04-22T09:29:44.999Z</time></trkpt><trkpt lat="35.7037077351249" lon="-5.730794150211645"><ele>76.5</ele><time>2026-04-22T09:29:45.999Z</time></trkpt><trkpt lat="35.70350645974549" lon="-5.730656393071424"><ele>76.0</ele><time>2026-04-22T09:29:46.999Z</time></trkpt><trkpt lat="35.70331081758973" lon="-5.730522254130099"><ele>76.0</ele><time>2026-04-22T09:29:47.999Z</time></trkpt><trkpt lat="35.70312413948476" lon="-5.730403058327861"><ele>76.0</ele><time>2026-04-22T09:29:48.999Z</time></trkpt><trkpt lat="35.70292070628353" lon="-5.730305026975289"><ele>76.0</ele><time>2026-04-22T09:29:49.999Z</time></trkpt><trkpt lat="35.702707393694965" lon="-5.730219996728629"><ele>79.0</ele><time>2026-04-22T09:29:50.999Z</time></trkpt><trkpt lat="35.7024931530115" lon="-5.730137027276515"><ele>82.0</ele><time>2026-04-22T09:29:51.999Z</time></trkpt><trkpt lat="35.70227176287103" lon="-5.730056555904416"><ele>82.0</ele><time>2026-04-22T09:29:52.999Z</time></trkpt><trkpt lat="35.70205203660696" lon="-5.729973482886432"><ele>82.0</ele><time>2026-04-22T09:29:53.999Z</time></trkpt><trkpt lat="35.70182091370526" lon="-5.729888837041044"><ele>82.5</ele><time>2026-04-22T09:29:54.999Z</time></trkpt><trkpt lat="35.70160136236693" lon="-5.72980482942288"><ele>83.0</ele><time>2026-04-22T09:29:55.999Z</time></trkpt><trkpt lat="35.70138281557767" lon="-5.729723908124781"><ele>83.0</ele><time>2026-04-22T09:29:56.999Z</time></trkpt><trkpt lat="35.70116172330457" lon="-5.72964192938532"><ele>83.0</ele><time>2026-04-22T09:29:57.999Z</time></trkpt><trkpt lat="35.700938776659484" lon="-5.729558754504743"><ele>83.0</ele><time>2026-04-22T09:29:58.999Z</time></trkpt><trkpt lat="35.70072535155725" lon="-5.729479069003125"><ele>83.0</ele><time>2026-04-22T09:29:59.999Z</time></trkpt><trkpt lat="35.70050755393422" lon="-5.729399093953531"><ele>83.66666666666667</ele><time>2026-04-22T09:30:00.999Z</time></trkpt><trkpt lat="35.700296090915685" lon="-5.729326050532977"><ele>84.33333333333333</ele><time>2026-04-22T09:30:01.999Z</time></trkpt><trkpt lat="35.7000910012655" lon="-5.729250544856676"><ele>85.0</ele><time>2026-04-22T09:30:02.999Z</time></trkpt><trkpt lat="35.69988209759988" lon="-5.729173861633611"><ele>85.0</ele><time>2026-04-22T09:30:03.999Z</time></trkpt><trkpt lat="35.699672652555286" lon="-5.729097170818731"><ele>85.0</ele><time>2026-04-22T09:30:04.999Z</time></trkpt><trkpt lat="35.69946110094851" lon="-5.7290216968683"><ele>85.0</ele><time>2026-04-22T09:30:05.999Z</time></trkpt><trkpt lat="35.69924665942472" lon="-5.728947311553752"><ele>85.66666666666666</ele><time>2026-04-22T09:30:06.999Z</time></trkpt><trkpt lat="35.69903355400385" lon="-5.728871837188188"><ele>86.33333333333333</ele><time>2026-04-22T09:30:07.999Z</time></trkpt><trkpt lat="35.69881773390131" lon="-5.728797487091933"><ele>87.0</ele><time>2026-04-22T09:30:08.999Z</time></trkpt><trkpt lat="35.6986029219268" lon="-5.728722286728071"><ele>87.33333333333333</ele><time>2026-04-22T09:30:09.999Z</time></trkpt><trkpt lat="35.69838780686816" lon="-5.728644355239477"><ele>87.66666666666666</ele><time>2026-04-22T09:30:10.999Z</time></trkpt><trkpt lat="35.698174967171845" lon="-5.728572843809383"><ele>88.0</ele><time>2026-04-22T09:30:11.999Z</time></trkpt><trkpt lat="35.69796358871417" lon="-5.7285046202753245"><ele>88.0</ele><time>2026-04-22T09:30:12.999Z</time></trkpt><trkpt lat="35.69775768160119" lon="-5.728434204977798"><ele>88.0</ele><time>2026-04-22T09:30:13.999Z</time></trkpt><trkpt lat="35.69755530288412" lon="-5.728354350860656"><ele>88.0</ele><time>2026-04-22T09:30:14.999Z</time></trkpt><trkpt lat="35.697356957264645" lon="-5.728270546121165"><ele>89.66666666666666</ele><time>2026-04-22T09:30:15.999Z</time></trkpt><trkpt lat="35.69717430034347" lon="-5.728166884821544"><ele>91.33333333333333</ele><time>2026-04-22T09:30:16.999Z</time></trkpt><trkpt lat="35.696981602065115" lon="-5.728063289809936"><ele>93.0</ele><time>2026-04-22T09:30:17.999Z</time></trkpt><trkpt lat="35.6967853127919" lon="-5.72795764844932"><ele>93.66666666666667</ele><time>2026-04-22T09:30:18.999Z</time></trkpt><trkpt lat="35.69658808309821" lon="-5.727846011809533"><ele>94.33333333333334</ele><time>2026-04-22T09:30:19.999Z</time></trkpt><trkpt lat="35.69638747480892" lon="-5.727740171855275"><ele>95.0</ele><time>2026-04-22T09:30:20.999Z</time></trkpt><trkpt lat="35.69618519437295" lon="-5.727635662290863"><ele>96.33333333333334</ele><time>2026-04-22T09:30:21.999Z</time></trkpt><trkpt lat="35.695981393509314" lon="-5.727533116899045"><ele>97.66666666666667</ele><time>2026-04-22T09:30:22.999Z</time></trkpt><trkpt lat="35.69578339821952" lon="-5.727428286017872"><ele>99.0</ele><time>2026-04-22T09:30:23.999Z</time></trkpt><trkpt lat="35.69559222569309" lon="-5.727324633698406"><ele>99.0</ele><time>2026-04-22T09:30:24.999Z</time></trkpt><trkpt lat="35.69540788068431" lon="-5.727223358629711"><ele>99.0</ele><time>2026-04-22T09:30:25.999Z</time></trkpt><trkpt lat="35.69523011930007" lon="-5.727127963315934"><ele>99.0</ele><time>2026-04-22T09:30:26.999Z</time></trkpt><trkpt lat="35.695063260308565" lon="-5.727037903593746"><ele>100.33333333333334</ele><time>2026-04-22T09:30:27.999Z</time></trkpt><trkpt lat="35.69490035226161" lon="-5.726949238393589"><ele>101.66666666666667</ele><time>2026-04-22T09:30:28.999Z</time></trkpt><trkpt lat="35.69474923798496" lon="-5.726864418728897"><ele>103.0</ele><time>2026-04-22T09:30:29.999Z</time></trkpt><trkpt lat="35.69460875763502" lon="-5.726785861220944"><ele>103.0</ele><time>2026-04-22T09:30:30.999Z</time></trkpt><trkpt lat="35.6944755334482" lon="-5.726710089645233"><ele>103.0</ele><time>2026-04-22T09:30:31.999Z</time></trkpt><trkpt lat="35.69433907744492" lon="-5.7266359340647845"><ele>103.0</ele><time>2026-04-22T09:30:32.999Z</time></trkpt><trkpt lat="35.694203951951" lon="-5.726560464540892"><ele>103.0</ele><time>2026-04-22T09:30:33.999Z</time></trkpt><trkpt lat="35.694072565336" lon="-5.726486377280841"><ele>102.75</ele><time>2026-04-22T09:30:35Z</time></trkpt><trkpt lat="35.69394306342758" lon="-5.726410701188142"><ele>102.5</ele><time>2026-04-22T09:30:36Z</time></trkpt><trkpt lat="35.69381244042812" lon="-5.726333398143231"><ele>102.25</ele><time>2026-04-22T09:30:37Z</time></trkpt><trkpt lat="35.693680229193184" lon="-5.7262613911036055"><ele>102.0</ele><time>2026-04-22T09:30:38Z</time></trkpt><trkpt lat="35.693547891224725" lon="-5.726189514406085"><ele>101.33333333333334</ele><time>2026-04-22T09:30:39Z</time></trkpt><trkpt lat="35.69341279034589" lon="-5.726113461800564"><ele>100.66666666666667</ele><time>2026-04-22T09:30:40Z</time></trkpt><trkpt lat="35.6932688174507" lon="-5.726031121020745"><ele>100.0</ele><time>2026-04-22T09:30:41Z</time></trkpt><trkpt lat="35.693115861215745" lon="-5.725947281325218"><ele>100.0</ele><time>2026-04-22T09:30:42Z</time></trkpt><trkpt lat="35.692953801859915" lon="-5.725858059121626"><ele>100.0</ele><time>2026-04-22T09:30:43Z</time></trkpt><trkpt lat="35.692783007497745" lon="-5.725767540660702"><ele>100.0</ele><time>2026-04-22T09:30:44Z</time></trkpt><trkpt lat="35.69260125345456" lon="-5.725679368498035"><ele>98.33333333333334</ele><time>2026-04-22T09:30:45Z</time></trkpt><trkpt lat="35.69242038403016" lon="-5.725589924931146"><ele>96.66666666666667</ele><time>2026-04-22T09:30:46Z</time></trkpt><trkpt lat="35.692237679098284" lon="-5.725499092545328"><ele>95.0</ele><time>2026-04-22T09:30:47Z</time></trkpt><trkpt lat="35.692055690553275" lon="-5.72540565609684"><ele>94.0</ele><time>2026-04-22T09:30:48Z</time></trkpt><trkpt lat="35.69187062060905" lon="-5.725313520520076"><ele>93.0</ele><time>2026-04-22T09:30:49Z</time></trkpt><trkpt lat="35.691677367899324" lon="-5.725215868066523"><ele>92.0</ele><time>2026-04-22T09:30:50Z</time></trkpt><trkpt lat="35.69147418877216" lon="-5.725112951786328"><ele>92.0</ele><time>2026-04-22T09:30:51Z</time></trkpt><trkpt lat="35.691269236374715" lon="-5.7250130416005165"><ele>92.0</ele><time>2026-04-22T09:30:52Z</time></trkpt><trkpt lat="35.69105699363931" lon="-5.724910794657599"><ele>92.0</ele><time>2026-04-22T09:30:53Z</time></trkpt><trkpt lat="35.69083937082148" lon="-5.724809400908527"><ele>90.5</ele><time>2026-04-22T09:30:54Z</time></trkpt><trkpt lat="35.69062085273521" lon="-5.7247048839343595"><ele>89.0</ele><time>2026-04-22T09:30:55Z</time></trkpt><trkpt lat="35.69039778160164" lon="-5.724601337236039"><ele>88.5</ele><time>2026-04-22T09:30:56Z</time></trkpt><trkpt lat="35.69017532868494" lon="-5.7244961391794185"><ele>88.0</ele><time>2026-04-22T09:30:57Z</time></trkpt><trkpt lat="35.68995106689913" lon="-5.724391376717239"><ele>87.5</ele><time>2026-04-22T09:30:58Z</time></trkpt><trkpt lat="35.68972903381752" lon="-5.724285623485234"><ele>87.0</ele><time>2026-04-22T09:30:59Z</time></trkpt><trkpt lat="35.68950722077686" lon="-5.724180998910355"><ele>84.5</ele><time>2026-04-22T09:31:00Z</time></trkpt><trkpt lat="35.68929002049534" lon="-5.724079924152804"><ele>82.0</ele><time>2026-04-22T09:31:01Z</time></trkpt><trkpt lat="35.689073331326306" lon="-5.723979216644681"><ele>82.0</ele><time>2026-04-22T09:31:02Z</time></trkpt><trkpt lat="35.688863187295" lon="-5.7238785861206205"><ele>82.0</ele><time>2026-04-22T09:31:03Z</time></trkpt><trkpt lat="35.688648918953625" lon="-5.723777472250625"><ele>82.0</ele><time>2026-04-22T09:31:04Z</time></trkpt><trkpt lat="35.68843667797052" lon="-5.723677104907627"><ele>82.0</ele><time>2026-04-22T09:31:05Z</time></trkpt><trkpt lat="35.68823198876469" lon="-5.723578683177959"><ele>82.0</ele><time>2026-04-22T09:31:06Z</time></trkpt><trkpt lat="35.688027494110614" lon="-5.723479999080802"><ele>82.0</ele><time>2026-04-22T09:31:07Z</time></trkpt><trkpt lat="35.68782580239907" lon="-5.723383238967892"><ele>82.0</ele><time>2026-04-22T09:31:08Z</time></trkpt><trkpt lat="35.68762627118163" lon="-5.723283242074173"><ele>82.0</ele><time>2026-04-22T09:31:09Z</time></trkpt><trkpt lat="35.68743239352581" lon="-5.723175199401353"><ele>81.0</ele><time>2026-04-22T09:31:10Z</time></trkpt><trkpt lat="35.6872399591334" lon="-5.72307126967403"><ele>80.0</ele><time>2026-04-22T09:31:11Z</time></trkpt><trkpt lat="35.68705468350273" lon="-5.722952076288973"><ele>79.0</ele><time>2026-04-22T09:31:12Z</time></trkpt><trkpt lat="35.68687365666724" lon="-5.722820413764505"><ele>79.0</ele><time>2026-04-22T09:31:12.999Z</time></trkpt><trkpt lat="35.68670014118716" lon="-5.7226740396480755"><ele>79.0</ele><time>2026-04-22T09:31:13.999Z</time></trkpt><trkpt lat="35.6865213534477" lon="-5.722513508199877"><ele>79.0</ele><time>2026-04-22T09:31:14.999Z</time></trkpt><trkpt lat="35.68635208847862" lon="-5.722337512046197"><ele>79.0</ele><time>2026-04-22T09:31:15.999Z</time></trkpt><trkpt lat="35.68619031928007" lon="-5.7221508665736724"><ele>79.0</ele><time>2026-04-22T09:31:16.999Z</time></trkpt><trkpt lat="35.686039450968316" lon="-5.721950728006331"><ele>79.0</ele><time>2026-04-22T09:31:17.999Z</time></trkpt><trkpt lat="35.68588922329411" lon="-5.721744415175637"><ele>77.5</ele><time>2026-04-22T09:31:18.999Z</time></trkpt><trkpt lat="35.68575082477265" lon="-5.721532683552166"><ele>76.0</ele><time>2026-04-22T09:31:19.999Z</time></trkpt><trkpt lat="35.685603484384316" lon="-5.721313840531739"><ele>76.0</ele><time>2026-04-22T09:31:20.999Z</time></trkpt><trkpt lat="35.68545500811027" lon="-5.7210951119223745"><ele>76.0</ele><time>2026-04-22T09:31:21.999Z</time></trkpt><trkpt lat="35.68530559163848" lon="-5.720877580493126"><ele>73.0</ele><time>2026-04-22T09:31:22.999Z</time></trkpt><trkpt lat="35.68515987214817" lon="-5.720661871566376"><ele>70.0</ele><time>2026-04-22T09:31:23.999Z</time></trkpt><trkpt lat="35.68500989259989" lon="-5.7204464397765244"><ele>69.5</ele><time>2026-04-22T09:31:24.999Z</time></trkpt><trkpt lat="35.6848646268922" lon="-5.7202256155695546"><ele>69.0</ele><time>2026-04-22T09:31:25.999Z</time></trkpt><trkpt lat="35.68471658374597" lon="-5.720007165478392"><ele>69.0</ele><time>2026-04-22T09:31:26.999Z</time></trkpt><trkpt lat="35.684571325843265" lon="-5.719788706650271"><ele>69.0</ele><time>2026-04-22T09:31:27.999Z</time></trkpt><trkpt lat="35.68442674302375" lon="-5.719572453528947"><ele>66.5</ele><time>2026-04-22T09:31:28.999Z</time></trkpt><trkpt lat="35.68428206436832" lon="-5.719360892461304"><ele>64.0</ele><time>2026-04-22T09:31:29.999Z</time></trkpt><trkpt lat="35.6841371895999" lon="-5.719143969325064"><ele>64.0</ele><time>2026-04-22T09:31:30.999Z</time></trkpt><trkpt lat="35.68400057361353" lon="-5.718938304339384"><ele>64.0</ele><time>2026-04-22T09:31:31.999Z</time></trkpt><trkpt lat="35.68386616072634" lon="-5.718736860980829"><ele>64.0</ele><time>2026-04-22T09:31:32.999Z</time></trkpt><trkpt lat="35.68372684654962" lon="-5.7185345572498125"><ele>65.0</ele><time>2026-04-22T09:31:33.999Z</time></trkpt><trkpt lat="35.68358603743308" lon="-5.718331238865617"><ele>66.0</ele><time>2026-04-22T09:31:34.999Z</time></trkpt><trkpt lat="35.68344381336295" lon="-5.718125557024041"><ele>67.0</ele><time>2026-04-22T09:31:35.999Z</time></trkpt><trkpt lat="35.6832996251149" lon="-5.717910168585644"><ele>67.5</ele><time>2026-04-22T09:31:36.999Z</time></trkpt><trkpt lat="35.683152199352406" lon="-5.717692156385383"><ele>68.0</ele><time>2026-04-22T09:31:37.999Z</time></trkpt><trkpt lat="35.68300559284401" lon="-5.71747591990156"><ele>68.0</ele><time>2026-04-22T09:31:38.999Z</time></trkpt><trkpt lat="35.68285609319366" lon="-5.71726259994864"><ele>68.0</ele><time>2026-04-22T09:31:39.999Z</time></trkpt><trkpt lat="35.68270804295946" lon="-5.717047500269441"><ele>68.5</ele><time>2026-04-22T09:31:40.999Z</time></trkpt><trkpt lat="35.68255194382932" lon="-5.716838294979112"><ele>69.0</ele><time>2026-04-22T09:31:41.999Z</time></trkpt><trkpt lat="35.68240171423455" lon="-5.716632590707056"><ele>69.0</ele><time>2026-04-22T09:31:42.999Z</time></trkpt><trkpt lat="35.68225437595726" lon="-5.716426229462644"><ele>69.0</ele><time>2026-04-22T09:31:43.999Z</time></trkpt><trkpt lat="35.682113875991114" lon="-5.716227131917243"><ele>69.0</ele><time>2026-04-22T09:31:44.999Z</time></trkpt><trkpt lat="35.6819731426042" lon="-5.71602516465757"><ele>70.0</ele><time>2026-04-22T09:31:45.999Z</time></trkpt><trkpt lat="35.681844999428584" lon="-5.715826690503665"><ele>71.0</ele><time>2026-04-22T09:31:46.999Z</time></trkpt><trkpt lat="35.68171806260541" lon="-5.71562547658618"><ele>72.0</ele><time>2026-04-22T09:31:47.999Z</time></trkpt><trkpt lat="35.68159287168934" lon="-5.715413164274253"><ele>72.0</ele><time>2026-04-22T09:31:48.999Z</time></trkpt><trkpt lat="35.68147294751018" lon="-5.71519035455287"><ele>72.0</ele><time>2026-04-22T09:31:49.999Z</time></trkpt><trkpt lat="35.68135925119241" lon="-5.714956948882139"><ele>72.0</ele><time>2026-04-22T09:31:50.999Z</time></trkpt><trkpt lat="35.6812487467004" lon="-5.714715063459014"><ele>72.0</ele><time>2026-04-22T09:31:51.999Z</time></trkpt><trkpt lat="35.68114091487071" lon="-5.714467313608307"><ele>72.0</ele><time>2026-04-22T09:31:52.999Z</time></trkpt><trkpt lat="35.68103371769261" lon="-5.714211668176588"><ele>70.5</ele><time>2026-04-22T09:31:53.999Z</time></trkpt><trkpt lat="35.680924203567166" lon="-5.713960534186873"><ele>69.0</ele><time>2026-04-22T09:31:54.999Z</time></trkpt><trkpt lat="35.68081283812087" lon="-5.713712142134038"><ele>68.66666666666667</ele><time>2026-04-22T09:31:55.999Z</time></trkpt><trkpt lat="35.6807083345071" lon="-5.713465853915638"><ele>68.33333333333334</ele><time>2026-04-22T09:31:56.999Z</time></trkpt><trkpt lat="35.68062868624309" lon="-5.713219213402918"><ele>68.0</ele><time>2026-04-22T09:31:57.999Z</time></trkpt><trkpt lat="35.68050182577939" lon="-5.7129771766956585"><ele>68.66666666666667</ele><time>2026-04-22T09:31:58.999Z</time></trkpt><trkpt lat="35.68040035342085" lon="-5.712734184140914"><ele>69.33333333333333</ele><time>2026-04-22T09:31:59.999Z</time></trkpt><trkpt lat="35.680300923374226" lon="-5.7124928275621185"><ele>70.0</ele><time>2026-04-22T09:32:00.999Z</time></trkpt><trkpt lat="35.68020141317905" lon="-5.71225726754296"><ele>67.33333333333333</ele><time>2026-04-22T09:32:01.999Z</time></trkpt><trkpt lat="35.680105850749975" lon="-5.712026729662776"><ele>64.66666666666667</ele><time>2026-04-22T09:32:02.999Z</time></trkpt><trkpt lat="35.68000819550694" lon="-5.7117992054958"><ele>62.0</ele><time>2026-04-22T09:32:03.999Z</time></trkpt><trkpt lat="35.67991402210304" lon="-5.711578733564916"><ele>62.0</ele><time>2026-04-22T09:32:04.999Z</time></trkpt><trkpt lat="35.67982426683429" lon="-5.71136448416391"><ele>62.0</ele><time>2026-04-22T09:32:05.999Z</time></trkpt><trkpt lat="35.67973309514866" lon="-5.711150920297608"><ele>62.0</ele><time>2026-04-22T09:32:06.999Z</time></trkpt><trkpt lat="35.67964231099733" lon="-5.710937890353587"><ele>62.0</ele><time>2026-04-22T09:32:07.999Z</time></trkpt><trkpt lat="35.67955024653852" lon="-5.710726738782839"><ele>62.0</ele><time>2026-04-22T09:32:08.999Z</time></trkpt><trkpt lat="35.679459399354485" lon="-5.710517298814848"><ele>62.0</ele><time>2026-04-22T09:32:09.999Z</time></trkpt><trkpt lat="35.6793633673715" lon="-5.710311406813232"><ele>62.0</ele><time>2026-04-22T09:32:10.999Z</time></trkpt><trkpt lat="35.679268021541866" lon="-5.710101835935788"><ele>62.0</ele><time>2026-04-22T09:32:11.999Z</time></trkpt><trkpt lat="35.67917663836424" lon="-5.709893380642196"><ele>62.0</ele><time>2026-04-22T09:32:12.999Z</time></trkpt><trkpt lat="35.67908945706259" lon="-5.709685686271452"><ele>62.0</ele><time>2026-04-22T09:32:13.999Z</time></trkpt><trkpt lat="35.67900080586453" lon="-5.70948104539718"><ele>62.0</ele><time>2026-04-22T09:32:14.999Z</time></trkpt><trkpt lat="35.678911103082754" lon="-5.7092772843994855"><ele>62.0</ele><time>2026-04-22T09:32:15.999Z</time></trkpt><trkpt lat="35.6788207029376" lon="-5.709081766419213"><ele>62.0</ele><time>2026-04-22T09:32:16.999Z</time></trkpt><trkpt lat="35.678729702499986" lon="-5.708891725555772"><ele>62.0</ele><time>2026-04-22T09:32:17.999Z</time></trkpt><trkpt lat="35.67863965837243" lon="-5.708699221589254"><ele>62.0</ele><time>2026-04-22T09:32:18.999Z</time></trkpt><trkpt lat="35.678552019126194" lon="-5.708509302161201"><ele>61.333333333333336</ele><time>2026-04-22T09:32:19.999Z</time></trkpt><trkpt lat="35.67846555164007" lon="-5.708320781629443"><ele>60.66666666666667</ele><time>2026-04-22T09:32:20.999Z</time></trkpt><trkpt lat="35.67838640117579" lon="-5.708133801778451"><ele>60.0</ele><time>2026-04-22T09:32:21.999Z</time></trkpt><trkpt lat="35.67830685151199" lon="-5.707948572121988"><ele>60.0</ele><time>2026-04-22T09:32:22.999Z</time></trkpt><trkpt lat="35.67822681564919" lon="-5.707769513850942"><ele>60.0</ele><time>2026-04-22T09:32:23.999Z</time></trkpt><trkpt lat="35.678148266968655" lon="-5.707594307905236"><ele>60.0</ele><time>2026-04-22T09:32:24.999Z</time></trkpt><trkpt lat="35.678074556754126" lon="-5.7074213105118705"><ele>60.66666666666667</ele><time>2026-04-22T09:32:25.999Z</time></trkpt><trkpt lat="35.67800242373008" lon="-5.707249605379344"><ele>61.333333333333336</ele><time>2026-04-22T09:32:26.999Z</time></trkpt><trkpt lat="35.677932824119154" lon="-5.707080055669808"><ele>62.0</ele><time>2026-04-22T09:32:27.999Z</time></trkpt><trkpt lat="35.67786503221027" lon="-5.706915409393406"><ele>62.0</ele><time>2026-04-22T09:32:28.999Z</time></trkpt><trkpt lat="35.67779783594366" lon="-5.7067565142980525"><ele>62.0</ele><time>2026-04-22T09:32:29.999Z</time></trkpt><trkpt lat="35.67773100972317" lon="-5.706600789536449"><ele>62.0</ele><time>2026-04-22T09:32:30.999Z</time></trkpt><trkpt lat="35.67766453763412" lon="-5.706450406729187"><ele>62.0</ele><time>2026-04-22T09:32:31.999Z</time></trkpt><trkpt lat="35.67760141540231" lon="-5.706300596743765"><ele>61.75</ele><time>2026-04-22T09:32:32.999Z</time></trkpt><trkpt lat="35.67753927173378" lon="-5.706153210754778"><ele>61.5</ele><time>2026-04-22T09:32:33.999Z</time></trkpt><trkpt lat="35.67748079723748" lon="-5.70601004947487"><ele>61.25</ele><time>2026-04-22T09:32:34.999Z</time></trkpt><trkpt lat="35.677423317605054" lon="-5.705874894913272"><ele>61.0</ele><time>2026-04-22T09:32:35.999Z</time></trkpt><trkpt lat="35.6773747065148" lon="-5.705754618965115"><ele>60.99999999999999</ele><time>2026-04-22T09:32:36.999Z</time></trkpt><trkpt lat="35.67733296583551" lon="-5.705653708339959"><ele>61.0</ele><time>2026-04-22T09:32:37.999Z</time></trkpt><trkpt lat="35.67729230118238" lon="-5.7055701360921605"><ele>61.0</ele><time>2026-04-22T09:32:38.999Z</time></trkpt><trkpt lat="35.67724901485688" lon="-5.70549296567669"><ele>61.0</ele><time>2026-04-22T09:32:39.999Z</time></trkpt><trkpt lat="35.67720546166533" lon="-5.70542855506201"><ele>60.99999999999999</ele><time>2026-04-22T09:32:41Z</time></trkpt><trkpt lat="35.67713784539537" lon="-5.705335181685671"><ele>61.0</ele><time>2026-04-22T09:32:43Z</time></trkpt><trkpt lat="35.677062259444824" lon="-5.7052628915291415"><ele>61.666666666666664</ele><time>2026-04-22T09:32:45Z</time></trkpt><trkpt lat="35.67707630711954" lon="-5.705142913737965"><ele>62.33333333333333</ele><time>2026-04-22T09:32:47Z</time></trkpt><trkpt lat="35.67709364412109" lon="-5.705051726460896"><ele>63.0</ele><time>2026-04-22T09:32:49Z</time></trkpt><trkpt lat="35.677150348616806" lon="-5.704950255555241"><ele>63.66666666666667</ele><time>2026-04-22T09:32:51Z</time></trkpt><trkpt lat="35.677204791501936" lon="-5.704905386969442"><ele>64.33333333333334</ele><time>2026-04-22T09:32:52Z</time></trkpt><trkpt lat="35.67726501053159" lon="-5.7048592491348495"><ele>65.0</ele><time>2026-04-22T09:32:53Z</time></trkpt><trkpt lat="35.677327148966135" lon="-5.704822320425257"><ele>65.0</ele><time>2026-04-22T09:32:54Z</time></trkpt><trkpt lat="35.67737733095805" lon="-5.704761315559739"><ele>65.0</ele><time>2026-04-22T09:32:55Z</time></trkpt><trkpt lat="35.67744622363554" lon="-5.704701185407939"><ele>65.0</ele><time>2026-04-22T09:32:56Z</time></trkpt><trkpt lat="35.677477153891935" lon="-5.704595153306522"><ele>65.0</ele><time>2026-04-22T09:32:57Z</time></trkpt><trkpt lat="35.67752090748891" lon="-5.704505180488995"><ele>65.0</ele><time>2026-04-22T09:32:58Z</time></trkpt><trkpt lat="35.67756273627315" lon="-5.70441344129343"><ele>65.0</ele><time>2026-04-22T09:32:59Z</time></trkpt><trkpt lat="35.677604346781365" lon="-5.704313035878522"><ele>65.0</ele><time>2026-04-22T09:33:00Z</time></trkpt><trkpt lat="35.67764891832962" lon="-5.704205863180308"><ele>65.0</ele><time>2026-04-22T09:33:01Z</time></trkpt><trkpt lat="35.677699559336745" lon="-5.70408342680633"><ele>65.0</ele><time>2026-04-22T09:33:02Z</time></trkpt><trkpt lat="35.67775655048956" lon="-5.703943517724297"><ele>65.0</ele><time>2026-04-22T09:33:03Z</time></trkpt><trkpt lat="35.67782022568775" lon="-5.703788556802146"><ele>65.0</ele><time>2026-04-22T09:33:04Z</time></trkpt><trkpt lat="35.67788791774892" lon="-5.703618892165986"><ele>65.0</ele><time>2026-04-22T09:33:05Z</time></trkpt><trkpt lat="35.67795869231089" lon="-5.703434306335356"><ele>65.0</ele><time>2026-04-22T09:33:06Z</time></trkpt><trkpt lat="35.678033425167236" lon="-5.703243016160723"><ele>65.33333333333334</ele><time>2026-04-22T09:33:07Z</time></trkpt><trkpt lat="35.67810555587576" lon="-5.703051294153945"><ele>65.66666666666667</ele><time>2026-04-22T09:33:07.999Z</time></trkpt><trkpt lat="35.678182336856004" lon="-5.702854906799005"><ele>66.0</ele><time>2026-04-22T09:33:08.999Z</time></trkpt><trkpt lat="35.678258069183315" lon="-5.702653502483259"><ele>66.66666666666667</ele><time>2026-04-22T09:33:09.999Z</time></trkpt><trkpt lat="35.67833626445884" lon="-5.702448110962065"><ele>67.33333333333334</ele><time>2026-04-22T09:33:10.999Z</time></trkpt><trkpt lat="35.67841806142882" lon="-5.702238530141604"><ele>68.0</ele><time>2026-04-22T09:33:12Z</time></trkpt><trkpt lat="35.67850445247611" lon="-5.7020267686899055"><ele>67.66666666666667</ele><time>2026-04-22T09:33:13Z</time></trkpt><trkpt lat="35.678591258086584" lon="-5.70182050466831"><ele>67.33333333333333</ele><time>2026-04-22T09:33:14Z</time></trkpt><trkpt lat="35.67867759319849" lon="-5.701612029921881"><ele>67.0</ele><time>2026-04-22T09:33:15Z</time></trkpt><trkpt lat="35.67875958865559" lon="-5.701407011405424"><ele>67.66666666666666</ele><time>2026-04-22T09:33:16Z</time></trkpt><trkpt lat="35.67884439170063" lon="-5.701209386673785"><ele>68.33333333333333</ele><time>2026-04-22T09:33:17Z</time></trkpt><trkpt lat="35.67892390516926" lon="-5.701009316764399"><ele>69.0</ele><time>2026-04-22T09:33:18Z</time></trkpt><trkpt lat="35.679004516320575" lon="-5.7008150416820165"><ele>69.33333333333333</ele><time>2026-04-22T09:33:19Z</time></trkpt><trkpt lat="35.67908149230373" lon="-5.700626222559292"><ele>69.66666666666666</ele><time>2026-04-22T09:33:20Z</time></trkpt><trkpt lat="35.679153277631585" lon="-5.700445415852159"><ele>70.0</ele><time>2026-04-22T09:33:21Z</time></trkpt><trkpt lat="35.67922177384508" lon="-5.700267084473372"><ele>70.66666666666666</ele><time>2026-04-22T09:33:22Z</time></trkpt><trkpt lat="35.67928960179613" lon="-5.700092789480511"><ele>71.33333333333333</ele><time>2026-04-22T09:33:23Z</time></trkpt><trkpt lat="35.67935706137151" lon="-5.699922432755635"><ele>72.0</ele><time>2026-04-22T09:33:24Z</time></trkpt><trkpt lat="35.6794251866599" lon="-5.69975374712624"><ele>72.25</ele><time>2026-04-22T09:33:25Z</time></trkpt><trkpt lat="35.67949131397485" lon="-5.699586216006411"><ele>72.5</ele><time>2026-04-22T09:33:26Z</time></trkpt><trkpt lat="35.67955458240237" lon="-5.699423473575814"><ele>72.75</ele><time>2026-04-22T09:33:27Z</time></trkpt><trkpt lat="35.679609647393995" lon="-5.699262565896959"><ele>73.0</ele><time>2026-04-22T09:33:28Z</time></trkpt><trkpt lat="35.67965940260327" lon="-5.699095353820795"><ele>74.5</ele><time>2026-04-22T09:33:29Z</time></trkpt><trkpt lat="35.67969491452081" lon="-5.698925716685452"><ele>76.0</ele><time>2026-04-22T09:33:30Z</time></trkpt><trkpt lat="35.67972189950623" lon="-5.698756454867491"><ele>77.5</ele><time>2026-04-22T09:33:31Z</time></trkpt><trkpt lat="35.67974487198912" lon="-5.698588443598414"><ele>79.0</ele><time>2026-04-22T09:33:32Z</time></trkpt><trkpt lat="35.67976645139761" lon="-5.698422282522046"><ele>79.0</ele><time>2026-04-22T09:33:33Z</time></trkpt><trkpt lat="35.67979001693631" lon="-5.698250715431639"><ele>79.0</ele><time>2026-04-22T09:33:34Z</time></trkpt><trkpt lat="35.67981402690162" lon="-5.698075695087594"><ele>79.0</ele><time>2026-04-22T09:33:35Z</time></trkpt><trkpt lat="35.67983795413969" lon="-5.697895489815859"><ele>79.0</ele><time>2026-04-22T09:33:36Z</time></trkpt><trkpt lat="35.67986215568873" lon="-5.697710882981429"><ele>78.33333333333333</ele><time>2026-04-22T09:33:37Z</time></trkpt><trkpt lat="35.679886177091966" lon="-5.697525948712709"><ele>77.66666666666667</ele><time>2026-04-22T09:33:38Z</time></trkpt><trkpt lat="35.67991002370759" lon="-5.6973409686122265"><ele>77.0</ele><time>2026-04-22T09:33:39Z</time></trkpt><trkpt lat="35.67993363859169" lon="-5.6971556865245745"><ele>77.0</ele><time>2026-04-22T09:33:40Z</time></trkpt><trkpt lat="35.67995525170231" lon="-5.696971303027186"><ele>77.0</ele><time>2026-04-22T09:33:41Z</time></trkpt><trkpt lat="35.67997683785603" lon="-5.696789471253509"><ele>77.0</ele><time>2026-04-22T09:33:42Z</time></trkpt><trkpt lat="35.68000270857759" lon="-5.696606752805034"><ele>77.33333333333334</ele><time>2026-04-22T09:33:43Z</time></trkpt><trkpt lat="35.680031852403424" lon="-5.696423345170278"><ele>77.66666666666667</ele><time>2026-04-22T09:33:44Z</time></trkpt><trkpt lat="35.68006567237517" lon="-5.696241389490563"><ele>78.0</ele><time>2026-04-22T09:33:45Z</time></trkpt><trkpt lat="35.68010603736879" lon="-5.696066498536859"><ele>78.0</ele><time>2026-04-22T09:33:46Z</time></trkpt><trkpt lat="35.68015208901746" lon="-5.695898112420973"><ele>78.0</ele><time>2026-04-22T09:33:47Z</time></trkpt><trkpt lat="35.680201428090484" lon="-5.695735412043467"><ele>78.0</ele><time>2026-04-22T09:33:48Z</time></trkpt><trkpt lat="35.68025460645268" lon="-5.695572983318716"><ele>78.0</ele><time>2026-04-22T09:33:49Z</time></trkpt><trkpt lat="35.68031084913929" lon="-5.695408854948924"><ele>79.0</ele><time>2026-04-22T09:33:50Z</time></trkpt><trkpt lat="35.680374386263054" lon="-5.6952473290739665"><ele>80.0</ele><time>2026-04-22T09:33:51Z</time></trkpt><trkpt lat="35.68044196599652" lon="-5.695092624561918"><ele>81.0</ele><time>2026-04-22T09:33:52Z</time></trkpt><trkpt lat="35.680509285691606" lon="-5.694944839625959"><ele>82.0</ele><time>2026-04-22T09:33:53Z</time></trkpt><trkpt lat="35.680564025838706" lon="-5.694817712378216"><ele>82.0</ele><time>2026-04-22T09:33:54Z</time></trkpt><trkpt lat="35.680601000012096" lon="-5.694718735080942"><ele>82.0</ele><time>2026-04-22T09:33:55Z</time></trkpt><trkpt lat="35.68062471231019" lon="-5.694637316206015"><ele>82.0</ele><time>2026-04-22T09:33:56Z</time></trkpt><trkpt lat="35.680641731081096" lon="-5.694547196677109"><ele>82.0</ele><time>2026-04-22T09:33:57Z</time></trkpt><trkpt lat="35.68066876580844" lon="-5.694468426752807"><ele>82.0</ele><time>2026-04-22T09:33:58Z</time></trkpt><trkpt lat="35.680655861136664" lon="-5.69435895849347"><ele>82.0</ele><time>2026-04-22T09:33:59Z</time></trkpt><trkpt lat="35.68070042045353" lon="-5.694263688926917"><ele>81.8</ele><time>2026-04-22T09:34:00Z</time></trkpt><trkpt lat="35.68075083930394" lon="-5.694164735713292"><ele>81.6</ele><time>2026-04-22T09:34:01Z</time></trkpt><trkpt lat="35.68080032424434" lon="-5.694055895857006"><ele>81.39999999999999</ele><time>2026-04-22T09:34:02Z</time></trkpt><trkpt lat="35.6808416249816" lon="-5.69395054458542"><ele>81.19999999999999</ele><time>2026-04-22T09:34:03Z</time></trkpt><trkpt lat="35.68087607819943" lon="-5.693847900002517"><ele>81.0</ele><time>2026-04-22T09:34:04Z</time></trkpt><trkpt lat="35.68090838197765" lon="-5.693741534599399"><ele>81.0</ele><time>2026-04-22T09:34:05Z</time></trkpt><trkpt lat="35.68094464753341" lon="-5.693626745030034"><ele>81.0</ele><time>2026-04-22T09:34:06Z</time></trkpt><trkpt lat="35.680982664216174" lon="-5.693497918300056"><ele>81.0</ele><time>2026-04-22T09:34:07Z</time></trkpt><trkpt lat="35.68102375874398" lon="-5.693352409421436"><ele>81.0</ele><time>2026-04-22T09:34:08Z</time></trkpt><trkpt lat="35.68106848238568" lon="-5.693200424855781"><ele>80.75</ele><time>2026-04-22T09:34:09Z</time></trkpt><trkpt lat="35.68111457044242" lon="-5.693042445866573"><ele>80.5</ele><time>2026-04-22T09:34:10Z</time></trkpt><trkpt lat="35.68116329741507" lon="-5.692873641234265"><ele>80.25</ele><time>2026-04-22T09:34:11Z</time></trkpt><trkpt lat="35.681217500990115" lon="-5.692695625718722"><ele>80.0</ele><time>2026-04-22T09:34:12Z</time></trkpt><trkpt lat="35.68127451576294" lon="-5.6925078970058935"><ele>80.0</ele><time>2026-04-22T09:34:13Z</time></trkpt><trkpt lat="35.681333922328754" lon="-5.692308788904603"><ele>80.0</ele><time>2026-04-22T09:34:14Z</time></trkpt><trkpt lat="35.68141142199702" lon="-5.692109829576631"><ele>80.0</ele><time>2026-04-22T09:34:15Z</time></trkpt><trkpt lat="35.68148303231774" lon="-5.691900695829905"><ele>79.33333333333334</ele><time>2026-04-22T09:34:16Z</time></trkpt><trkpt lat="35.6815481730719" lon="-5.691684082496666"><ele>78.66666666666667</ele><time>2026-04-22T09:34:17Z</time></trkpt><trkpt lat="35.68164640927902" lon="-5.691486236887194"><ele>78.0</ele><time>2026-04-22T09:34:18Z</time></trkpt><trkpt lat="35.68175700476716" lon="-5.691301209701577"><ele>78.0</ele><time>2026-04-22T09:34:19Z</time></trkpt><trkpt lat="35.68188068717939" lon="-5.691129951551196"><ele>78.0</ele><time>2026-04-22T09:34:20Z</time></trkpt><trkpt lat="35.68200848546153" lon="-5.690971156064036"><ele>78.0</ele><time>2026-04-22T09:34:21Z</time></trkpt><trkpt lat="35.68212807482132" lon="-5.6908183471484115"><ele>79.0</ele><time>2026-04-22T09:34:22Z</time></trkpt><trkpt lat="35.68223343111288" lon="-5.690667095505294"><ele>80.0</ele><time>2026-04-22T09:34:23Z</time></trkpt><trkpt lat="35.68232866542036" lon="-5.690519423967147"><ele>81.0</ele><time>2026-04-22T09:34:24Z</time></trkpt><trkpt lat="35.682404091281754" lon="-5.690368325058739"><ele>80.25</ele><time>2026-04-22T09:34:25Z</time></trkpt><trkpt lat="35.682464384708815" lon="-5.690208372416946"><ele>79.5</ele><time>2026-04-22T09:34:26Z</time></trkpt><trkpt lat="35.68252623039276" lon="-5.690046823061153"><ele>78.75</ele><time>2026-04-22T09:34:27Z</time></trkpt><trkpt lat="35.682586220734905" lon="-5.689880872246104"><ele>78.0</ele><time>2026-04-22T09:34:28Z</time></trkpt><trkpt lat="35.68264376111608" lon="-5.689710296224235"><ele>78.0</ele><time>2026-04-22T09:34:29Z</time></trkpt><trkpt lat="35.68269760013559" lon="-5.689535175323987"><ele>78.0</ele><time>2026-04-22T09:34:30Z</time></trkpt><trkpt lat="35.68274908549793" lon="-5.689363968237527"><ele>78.0</ele><time>2026-04-22T09:34:31Z</time></trkpt><trkpt lat="35.68279762211719" lon="-5.689198517037731"><ele>78.0</ele><time>2026-04-22T09:34:32Z</time></trkpt><trkpt lat="35.682839931837236" lon="-5.689048564073208"><ele>79.0</ele><time>2026-04-22T09:34:33Z</time></trkpt><trkpt lat="35.682872732688345" lon="-5.688918414738664"><ele>80.0</ele><time>2026-04-22T09:34:34Z</time></trkpt><trkpt lat="35.68289463037662" lon="-5.688813579862601"><ele>81.0</ele><time>2026-04-22T09:34:35Z</time></trkpt><trkpt lat="35.68294685268046" lon="-5.688707257569236"><ele>82.0</ele><time>2026-04-22T09:34:37Z</time></trkpt><trkpt lat="35.68304198374685" lon="-5.688879843874539"><ele>82.0</ele><time>2026-04-22T09:34:40Z</time></trkpt><trkpt lat="35.68300429635225" lon="-5.688943639121366"><ele>82.0</ele><time>2026-04-22T09:34:41Z</time></trkpt><trkpt lat="35.68296549066982" lon="-5.6890189343540385"><ele>82.0</ele><time>2026-04-22T09:34:42Z</time></trkpt><trkpt lat="35.68292925258391" lon="-5.689110287993844"><ele>82.0</ele><time>2026-04-22T09:34:43Z</time></trkpt><trkpt lat="35.682891958742054" lon="-5.689216840583058"><ele>82.0</ele><time>2026-04-22T09:34:44Z</time></trkpt><trkpt lat="35.68285694680248" lon="-5.689324955543638"><ele>82.0</ele><time>2026-04-22T09:34:45Z</time></trkpt><trkpt lat="35.68281746880989" lon="-5.689450224551949"><ele>81.75</ele><time>2026-04-22T09:34:46.001Z</time></trkpt><trkpt lat="35.68277260183074" lon="-5.689590730759521"><ele>81.5</ele><time>2026-04-22T09:34:47.001Z</time></trkpt><trkpt lat="35.6827227524062" lon="-5.689744541733898"><ele>81.25</ele><time>2026-04-22T09:34:48.001Z</time></trkpt><trkpt lat="35.68266673518871" lon="-5.689905007462945"><ele>81.0</ele><time>2026-04-22T09:34:49.001Z</time></trkpt><trkpt lat="35.68261273985505" lon="-5.690059138522286"><ele>81.0</ele><time>2026-04-22T09:34:50.001Z</time></trkpt><trkpt lat="35.68255960292829" lon="-5.690210544361596"><ele>81.0</ele><time>2026-04-22T09:34:51.001Z</time></trkpt><trkpt lat="35.68251051852275" lon="-5.690346989362768"><ele>81.0</ele><time>2026-04-22T09:34:52.001Z</time></trkpt><trkpt lat="35.68246747722402" lon="-5.6904621799210755"><ele>81.0</ele><time>2026-04-22T09:34:53.001Z</time></trkpt><trkpt lat="35.682441794718116" lon="-5.690550873595867"><ele>81.0</ele><time>2026-04-22T09:34:54.001Z</time></trkpt><trkpt lat="35.68240636236314" lon="-5.69062364583713"><ele>81.0</ele><time>2026-04-22T09:34:57.001Z</time></trkpt><trkpt lat="35.68249763894962" lon="-5.69067274713484"><ele>81.0</ele><time>2026-04-22T09:34:58.001Z</time></trkpt><trkpt lat="35.682556406232095" lon="-5.690715964552726"><ele>81.0</ele><time>2026-04-22T09:35:01.001Z</time></trkpt><trkpt lat="35.682612932539655" lon="-5.690758216797353"><ele>81.0</ele><time>2026-04-22T09:35:03Z</time></trkpt><trkpt lat="35.68269102090957" lon="-5.690792643294098"><ele>81.0</ele><time>2026-04-22T09:35:05Z</time></trkpt><trkpt lat="35.682740323344504" lon="-5.6908535230408885"><ele>81.0</ele><time>2026-04-22T09:35:07Z</time></trkpt><trkpt lat="35.68273570743283" lon="-5.690947970615167"><ele>81.0</ele><time>2026-04-22T09:35:54Z</time></trkpt><trkpt lat="35.682744613635165" lon="-5.6910375528697985"><ele>81.0</ele><time>2026-04-22T09:40:06Z</time></trkpt><trkpt lat="35.68285684197481" lon="-5.6912295994909385"><ele>81.0</ele><time>2026-04-22T09:40:52.063Z</time></trkpt><trkpt lat="35.683035878594914" lon="-5.6910700990092655"><ele>81.8</ele><time>2026-04-22T09:40:59.019Z</time></trkpt><trkpt lat="35.682973971464534" lon="-5.691023681645422"><ele>82.6</ele><time>2026-04-22T09:41:02.02Z</time></trkpt><trkpt lat="35.683012045138746" lon="-5.690956260871131"><ele>83.4</ele><time>2026-04-22T09:41:27.023Z</time></trkpt><trkpt lat="35.683110167326525" lon="-5.690995042570437"><ele>84.2</ele><time>2026-04-22T09:41:31.701Z</time></trkpt><trkpt lat="35.68326198025025" lon="-5.691066469460598"><ele>85.0</ele><time>2026-04-22T09:41:44.01Z</time></trkpt><trkpt lat="35.683322064570774" lon="-5.690994341543495"><ele>85.0</ele><time>2026-04-22T09:42:19.011Z</time></trkpt><trkpt lat="35.68328721296475" lon="-5.691092784673048"><ele>85.0</ele><time>2026-04-22T09:49:11.009Z</time></trkpt><trkpt lat="35.68306448752495" lon="-5.69098541399941"><ele>85.0</ele><time>2026-04-22T09:49:39.013Z</time></trkpt><trkpt lat="35.68331048453892" lon="-5.691240295805719"><ele>85.0</ele><time>2026-04-22T09:49:41.874Z</time></trkpt><trkpt lat="35.683234864676265" lon="-5.691225694908707"><ele>85.0</ele><time>2026-04-22T09:49:44.012Z</time></trkpt><trkpt lat="35.68306448752495" lon="-5.69098541399941"><ele>85.0</ele><time>2026-04-22T09:49:45.014Z</time></trkpt><trkpt lat="35.68289155342861" lon="-5.691194961198311"><ele>85.0</ele><time>2026-04-22T09:49:49.997Z</time></trkpt><trkpt lat="35.68282510510392" lon="-5.691195094081806"><ele>85.0</ele><time>2026-04-22T09:49:53.051Z</time></trkpt><trkpt lat="35.68276133056076" lon="-5.691198069114868"><ele>85.0</ele><time>2026-04-22T09:49:55.052Z</time></trkpt><trkpt lat="35.68306286931007" lon="-5.691161916983508"><ele>85.0</ele><time>2026-04-22T09:50:06.476Z</time></trkpt><trkpt lat="35.68280775014354" lon="-5.690946191148999"><ele>85.0</ele><time>2026-04-22T09:50:23.958Z</time></trkpt><trkpt lat="35.682774965922384" lon="-5.690819913919862"><ele>85.0</ele><time>2026-04-22T09:54:44Z</time></trkpt><trkpt lat="35.68275542652005" lon="-5.690899065067561"><ele>85.0</ele><time>2026-04-22T09:54:58Z</time></trkpt><trkpt lat="35.68272710133" lon="-5.691011401849067"><ele>85.0</ele><time>2026-04-22T09:55:01Z</time></trkpt><trkpt lat="35.68262745493817" lon="-5.691353168361689"><ele>85.0</ele><time>2026-04-22T09:55:05Z</time></trkpt><trkpt lat="35.682708303114616" lon="-5.690992549687132"><ele>85.0</ele><time>2026-04-22T09:55:17Z</time></trkpt><trkpt lat="35.68277813522473" lon="-5.690981924491205"><ele>85.0</ele><time>2026-04-22T09:56:50.001Z</time></trkpt><trkpt lat="35.682770237811866" lon="-5.690900753849431"><ele>85.0</ele><time>2026-04-22T09:56:56Z</time></trkpt><trkpt lat="35.68278908672286" lon="-5.690822042724708"><ele>85.0</ele><time>2026-04-22T09:57:06Z</time></trkpt><trkpt lat="35.68275959788203" lon="-5.690916255736233"><ele>85.0</ele><time>2026-04-22T09:58:18Z</time></trkpt><trkpt lat="35.68280205738839" lon="-5.690981913653659"><ele>85.0</ele><time>2026-04-22T09:58:19Z</time></trkpt><trkpt lat="35.682747280805174" lon="-5.690902638807842"><ele>85.0</ele><time>2026-04-22T10:12:45.004Z</time></trkpt><trkpt lat="35.6827699610661" lon="-5.690795279284449"><ele>85.0</ele><time>2026-04-22T10:12:57.002Z</time></trkpt><trkpt lat="35.682771492572606" lon="-5.690880290571056"><ele>85.0</ele><time>2026-04-22T10:16:15.999Z</time></trkpt><trkpt lat="35.68271044861826" lon="-5.690809096858707"><ele>84.33333333333333</ele><time>2026-04-22T10:27:41.999Z</time></trkpt><trkpt lat="35.682646723325085" lon="-5.69078291201119"><ele>83.66666666666666</ele><time>2026-04-22T10:27:42.999Z</time></trkpt><trkpt lat="35.6825809010039" lon="-5.690762829046307"><ele>83.0</ele><time>2026-04-22T10:27:43.999Z</time></trkpt><trkpt lat="35.68251010545364" lon="-5.6907288571294785"><ele>82.33333333333333</ele><time>2026-04-22T10:27:45.999Z</time></trkpt><trkpt lat="35.682438996320656" lon="-5.690682414680357"><ele>81.66666666666667</ele><time>2026-04-22T10:27:48.999Z</time></trkpt><trkpt lat="35.68237741468291" lon="-5.690657678224887"><ele>81.0</ele><time>2026-04-22T10:30:24Z</time></trkpt><trkpt lat="35.68231176506164" lon="-5.690744279301582"><ele>81.0</ele><time>2026-04-22T10:30:26Z</time></trkpt><trkpt lat="35.682277492358175" lon="-5.690826984686161"><ele>81.0</ele><time>2026-04-22T10:30:27Z</time></trkpt><trkpt lat="35.682216221433016" lon="-5.690900997113572"><ele>81.0</ele><time>2026-04-22T10:30:28Z</time></trkpt><trkpt lat="35.68215217762889" lon="-5.690984317575952"><ele>81.0</ele><time>2026-04-22T10:30:29Z</time></trkpt><trkpt lat="35.68208547232541" lon="-5.691071597628254"><ele>81.0</ele><time>2026-04-22T10:30:30Z</time></trkpt><trkpt lat="35.68201495952545" lon="-5.691166723697523"><ele>81.5</ele><time>2026-04-22T10:30:31Z</time></trkpt><trkpt lat="35.681938422715284" lon="-5.691265909737315"><ele>82.0</ele><time>2026-04-22T10:30:32Z</time></trkpt><trkpt lat="35.681857317855865" lon="-5.691370934504485"><ele>82.5</ele><time>2026-04-22T10:30:33Z</time></trkpt><trkpt lat="35.681776797586835" lon="-5.69148695594904"><ele>83.0</ele><time>2026-04-22T10:30:34Z</time></trkpt><trkpt lat="35.681702782946616" lon="-5.69161326455038"><ele>82.25</ele><time>2026-04-22T10:30:35Z</time></trkpt><trkpt lat="35.681637882538745" lon="-5.691748167194709"><ele>81.5</ele><time>2026-04-22T10:30:36Z</time></trkpt><trkpt lat="35.68157727633446" lon="-5.691887094184129"><ele>80.75</ele><time>2026-04-22T10:30:37Z</time></trkpt><trkpt lat="35.681524881017246" lon="-5.692029949451413"><ele>80.0</ele><time>2026-04-22T10:30:38Z</time></trkpt><trkpt lat="35.681481120671556" lon="-5.692176612324371"><ele>80.0</ele><time>2026-04-22T10:30:39Z</time></trkpt><trkpt lat="35.68143703175088" lon="-5.69232337575461"><ele>80.0</ele><time>2026-04-22T10:30:40Z</time></trkpt><trkpt lat="35.681392743319336" lon="-5.692464358386034"><ele>80.0</ele><time>2026-04-22T10:30:41Z</time></trkpt><trkpt lat="35.681348781980724" lon="-5.69260989914085"><ele>80.0</ele><time>2026-04-22T10:30:42Z</time></trkpt><trkpt lat="35.681304380915996" lon="-5.692763493639588"><ele>80.0</ele><time>2026-04-22T10:30:43Z</time></trkpt><trkpt lat="35.681257333960275" lon="-5.692918433395599"><ele>80.0</ele><time>2026-04-22T10:30:44Z</time></trkpt><trkpt lat="35.681208762746245" lon="-5.693071333555963"><ele>80.0</ele><time>2026-04-22T10:30:45Z</time></trkpt><trkpt lat="35.68116201767283" lon="-5.693225135739378"><ele>80.0</ele><time>2026-04-22T10:30:46Z</time></trkpt><trkpt lat="35.6811170569545" lon="-5.693378673284416"><ele>79.75</ele><time>2026-04-22T10:30:47Z</time></trkpt><trkpt lat="35.68107304542069" lon="-5.6935274393284185"><ele>79.5</ele><time>2026-04-22T10:30:48Z</time></trkpt><trkpt lat="35.681031528937574" lon="-5.693665276058722"><ele>79.25</ele><time>2026-04-22T10:30:49Z</time></trkpt><trkpt lat="35.68099255487941" lon="-5.693798411091662"><ele>79.0</ele><time>2026-04-22T10:30:50Z</time></trkpt><trkpt lat="35.680954133639254" lon="-5.693927616800295"><ele>79.4</ele><time>2026-04-22T10:30:51Z</time></trkpt><trkpt lat="35.68091923732246" lon="-5.694052129118029"><ele>79.80000000000001</ele><time>2026-04-22T10:30:52Z</time></trkpt><trkpt lat="35.68088789496401" lon="-5.694168011760952"><ele>80.19999999999999</ele><time>2026-04-22T10:30:53Z</time></trkpt><trkpt lat="35.68085908197234" lon="-5.694287058364861"><ele>80.6</ele><time>2026-04-22T10:30:54Z</time></trkpt><trkpt lat="35.68084616263223" lon="-5.694420923622957"><ele>81.0</ele><time>2026-04-22T10:30:55Z</time></trkpt><trkpt lat="35.68078173650963" lon="-5.6945439001905145"><ele>81.19999999999999</ele><time>2026-04-22T10:30:56Z</time></trkpt><trkpt lat="35.68073326386186" lon="-5.694661395893272"><ele>81.39999999999999</ele><time>2026-04-22T10:30:57Z</time></trkpt><trkpt lat="35.68068336201632" lon="-5.694775569719641"><ele>81.6</ele><time>2026-04-22T10:30:58Z</time></trkpt><trkpt lat="35.68063111415887" lon="-5.694896134321678"><ele>81.8</ele><time>2026-04-22T10:30:59Z</time></trkpt><trkpt lat="35.680579770835095" lon="-5.695017182826083"><ele>82.0</ele><time>2026-04-22T10:31:00Z</time></trkpt><trkpt lat="35.680525717200965" lon="-5.695140444197558"><ele>82.5</ele><time>2026-04-22T10:31:01Z</time></trkpt><trkpt lat="35.68047292735636" lon="-5.695267458667732"><ele>83.0</ele><time>2026-04-22T10:31:02Z</time></trkpt><trkpt lat="35.68042371595207" lon="-5.695400432923298"><ele>83.5</ele><time>2026-04-22T10:31:03Z</time></trkpt><trkpt lat="35.6803769831596" lon="-5.69553707124069"><ele>84.0</ele><time>2026-04-22T10:31:04Z</time></trkpt><trkpt lat="35.68033275353018" lon="-5.69567685489907"><ele>84.0</ele><time>2026-04-22T10:31:05Z</time></trkpt><trkpt lat="35.68028983120423" lon="-5.69581943119026"><ele>84.0</ele><time>2026-04-22T10:31:06Z</time></trkpt><trkpt lat="35.68025115640241" lon="-5.69595949613417"><ele>84.0</ele><time>2026-04-22T10:31:07Z</time></trkpt><trkpt lat="35.680217649612146" lon="-5.696095813012712"><ele>84.0</ele><time>2026-04-22T10:31:08Z</time></trkpt><trkpt lat="35.68018716876183" lon="-5.696229606620136"><ele>82.5</ele><time>2026-04-22T10:31:09Z</time></trkpt><trkpt lat="35.68016110024589" lon="-5.696357576199271"><ele>81.0</ele><time>2026-04-22T10:31:10Z</time></trkpt><trkpt lat="35.680136476571" lon="-5.6964892113058445"><ele>79.5</ele><time>2026-04-22T10:31:11Z</time></trkpt><trkpt lat="35.68011247711169" lon="-5.6966312579324025"><ele>78.0</ele><time>2026-04-22T10:31:12Z</time></trkpt><trkpt lat="35.68008761445115" lon="-5.696783177270112"><ele>77.75</ele><time>2026-04-22T10:31:13Z</time></trkpt><trkpt lat="35.68006330744653" lon="-5.696939550396855"><ele>77.5</ele><time>2026-04-22T10:31:14Z</time></trkpt><trkpt lat="35.68004170359722" lon="-5.697090036946603"><ele>77.25</ele><time>2026-04-22T10:31:15Z</time></trkpt><trkpt lat="35.680021966323245" lon="-5.69723766202665"><ele>77.0</ele><time>2026-04-22T10:31:16Z</time></trkpt><trkpt lat="35.680002087790214" lon="-5.697386396806265"><ele>77.0</ele><time>2026-04-22T10:31:17Z</time></trkpt><trkpt lat="35.679979096645646" lon="-5.697538075666715"><ele>77.0</ele><time>2026-04-22T10:31:18Z</time></trkpt><trkpt lat="35.67995661153139" lon="-5.697689947123234"><ele>77.0</ele><time>2026-04-22T10:31:19Z</time></trkpt><trkpt lat="35.67993481461819" lon="-5.697842663787092"><ele>77.0</ele><time>2026-04-22T10:31:20Z</time></trkpt><trkpt lat="35.679913105085575" lon="-5.6979958640478"><ele>77.5</ele><time>2026-04-22T10:31:21Z</time></trkpt><trkpt lat="35.67989480498396" lon="-5.698148526729426"><ele>78.0</ele><time>2026-04-22T10:31:22Z</time></trkpt><trkpt lat="35.67987700935247" lon="-5.698302838683044"><ele>78.5</ele><time>2026-04-22T10:31:23Z</time></trkpt><trkpt lat="35.679856402324205" lon="-5.698458367477503"><ele>79.0</ele><time>2026-04-22T10:31:24Z</time></trkpt><trkpt lat="35.67983372970622" lon="-5.698616481353997"><ele>79.25</ele><time>2026-04-22T10:31:25Z</time></trkpt><trkpt lat="35.67980971766531" lon="-5.698778212230871"><ele>79.5</ele><time>2026-04-22T10:31:26Z</time></trkpt><trkpt lat="35.67978311227573" lon="-5.698940250842093"><ele>79.75</ele><time>2026-04-22T10:31:27Z</time></trkpt><trkpt lat="35.679753161237976" lon="-5.699100122075733"><ele>80.0</ele><time>2026-04-22T10:31:28Z</time></trkpt><trkpt lat="35.67971894485162" lon="-5.699259853570162"><ele>80.0</ele><time>2026-04-22T10:31:29Z</time></trkpt><trkpt lat="35.679677271420594" lon="-5.699414285988902"><ele>80.0</ele><time>2026-04-22T10:31:30Z</time></trkpt><trkpt lat="35.67962806126678" lon="-5.699566273010484"><ele>80.0</ele><time>2026-04-22T10:31:31Z</time></trkpt><trkpt lat="35.679573231757075" lon="-5.69971530112927"><ele>80.0</ele><time>2026-04-22T10:31:32Z</time></trkpt><trkpt lat="35.67951456812814" lon="-5.699863389201629"><ele>78.25</ele><time>2026-04-22T10:31:33Z</time></trkpt><trkpt lat="35.679454550828666" lon="-5.70001152164925"><ele>76.5</ele><time>2026-04-22T10:31:34Z</time></trkpt><trkpt lat="35.679395328555174" lon="-5.700156605124302"><ele>74.75</ele><time>2026-04-22T10:31:35Z</time></trkpt><trkpt lat="35.67933583567732" lon="-5.700300621068351"><ele>73.0</ele><time>2026-04-22T10:31:35.999Z</time></trkpt><trkpt lat="35.679278345888825" lon="-5.700442333905425"><ele>72.25</ele><time>2026-04-22T10:31:36.999Z</time></trkpt><trkpt lat="35.679220415930196" lon="-5.7005823807233975"><ele>71.5</ele><time>2026-04-22T10:31:37.999Z</time></trkpt><trkpt lat="35.67916254299561" lon="-5.700722310230102"><ele>70.75</ele><time>2026-04-22T10:31:38.999Z</time></trkpt><trkpt lat="35.67910408374797" lon="-5.700865962040937"><ele>70.0</ele><time>2026-04-22T10:31:39.999Z</time></trkpt><trkpt lat="35.67904441122067" lon="-5.701014164651573"><ele>69.75</ele><time>2026-04-22T10:31:40.999Z</time></trkpt><trkpt lat="35.678982691162496" lon="-5.701164469528207"><ele>69.5</ele><time>2026-04-22T10:31:41.999Z</time></trkpt><trkpt lat="35.67892017894119" lon="-5.701316619644875"><ele>69.25</ele><time>2026-04-22T10:31:42.999Z</time></trkpt><trkpt lat="35.678857527275326" lon="-5.701469022310805"><ele>69.0</ele><time>2026-04-22T10:31:43.999Z</time></trkpt><trkpt lat="35.67879545325019" lon="-5.701618887501331"><ele>69.0</ele><time>2026-04-22T10:31:44.999Z</time></trkpt><trkpt lat="35.678734578835225" lon="-5.701766438788943"><ele>69.0</ele><time>2026-04-22T10:31:45.999Z</time></trkpt><trkpt lat="35.67867469980587" lon="-5.701912897032063"><ele>69.0</ele><time>2026-04-22T10:31:46.999Z</time></trkpt><trkpt lat="35.67861388707515" lon="-5.7020590989204125"><ele>69.0</ele><time>2026-04-22T10:31:47.999Z</time></trkpt><trkpt lat="35.678552144446236" lon="-5.702206122205833"><ele>68.75</ele><time>2026-04-22T10:31:48.999Z</time></trkpt><trkpt lat="35.678490858023764" lon="-5.702353549407889"><ele>68.5</ele><time>2026-04-22T10:31:49.999Z</time></trkpt><trkpt lat="35.67842990368651" lon="-5.7024988606368625"><ele>68.25</ele><time>2026-04-22T10:31:50.999Z</time></trkpt><trkpt lat="35.678366855337536" lon="-5.702645646334568"><ele>68.0</ele><time>2026-04-22T10:31:51.999Z</time></trkpt><trkpt lat="35.6783034612597" lon="-5.702794412156472"><ele>67.5</ele><time>2026-04-22T10:31:52.999Z</time></trkpt><trkpt lat="35.67824108506202" lon="-5.702942011535052"><ele>67.0</ele><time>2026-04-22T10:31:53.999Z</time></trkpt><trkpt lat="35.67817874260982" lon="-5.703089334128343"><ele>66.5</ele><time>2026-04-22T10:31:54.999Z</time></trkpt><trkpt lat="35.67811903351985" lon="-5.703233767357325"><ele>66.0</ele><time>2026-04-22T10:31:55.999Z</time></trkpt><trkpt lat="35.67806208098631" lon="-5.7033768918015655"><ele>66.0</ele><time>2026-04-22T10:31:56.999Z</time></trkpt><trkpt lat="35.67800546018425" lon="-5.703516740340322"><ele>66.0</ele><time>2026-04-22T10:31:57.999Z</time></trkpt><trkpt lat="35.677949243585765" lon="-5.703653910169164"><ele>66.0</ele><time>2026-04-22T10:31:58.999Z</time></trkpt><trkpt lat="35.67789533779308" lon="-5.703785397495562"><ele>66.0</ele><time>2026-04-22T10:31:59.999Z</time></trkpt><trkpt lat="35.677841669935866" lon="-5.703912181906249"><ele>65.8</ele><time>2026-04-22T10:32:00.999Z</time></trkpt><trkpt lat="35.677790189589864" lon="-5.704031617668695"><ele>65.6</ele><time>2026-04-22T10:32:01.999Z</time></trkpt><trkpt lat="35.677746107724786" lon="-5.704140594778146"><ele>65.4</ele><time>2026-04-22T10:32:02.999Z</time></trkpt><trkpt lat="35.677704173310296" lon="-5.7042466106512"><ele>65.2</ele><time>2026-04-22T10:32:04Z</time></trkpt><trkpt lat="35.67766813577143" lon="-5.704347191727992"><ele>65.0</ele><time>2026-04-22T10:32:05Z</time></trkpt><trkpt lat="35.67764074570803" lon="-5.7044378062280225"><ele>65.0</ele><time>2026-04-22T10:32:06Z</time></trkpt><trkpt lat="35.67762790373371" lon="-5.7045163751550305"><ele>65.0</ele><time>2026-04-22T10:32:07Z</time></trkpt><trkpt lat="35.67765284051527" lon="-5.704667276021086"><ele>65.0</ele><time>2026-04-22T10:32:09Z</time></trkpt><trkpt lat="35.67768214145488" lon="-5.704738162740485"><ele>65.0</ele><time>2026-04-22T10:32:10Z</time></trkpt><trkpt lat="35.67771998775102" lon="-5.7048073415836695"><ele>65.0</ele><time>2026-04-22T10:32:11Z</time></trkpt><trkpt lat="35.67778064820133" lon="-5.704865447329669"><ele>65.0</ele><time>2026-04-22T10:32:12Z</time></trkpt><trkpt lat="35.67785149304519" lon="-5.704910054909024"><ele>65.0</ele><time>2026-04-22T10:32:13Z</time></trkpt><trkpt lat="35.677930955466074" lon="-5.70494872326543"><ele>65.0</ele><time>2026-04-22T10:32:14Z</time></trkpt><trkpt lat="35.6780090938735" lon="-5.704995105491185"><ele>65.0</ele><time>2026-04-22T10:32:15Z</time></trkpt><trkpt lat="35.67807877868024" lon="-5.7050619631471635"><ele>65.0</ele><time>2026-04-22T10:32:16Z</time></trkpt><trkpt lat="35.67813580890987" lon="-5.705134348954227"><ele>65.0</ele><time>2026-04-22T10:32:17Z</time></trkpt><trkpt lat="35.67818239890122" lon="-5.705211236368555"><ele>65.0</ele><time>2026-04-22T10:32:18Z</time></trkpt><trkpt lat="35.678228463473545" lon="-5.7052925565320285"><ele>65.00000000000001</ele><time>2026-04-22T10:32:19Z</time></trkpt><trkpt lat="35.67827135016375" lon="-5.705373977710344"><ele>65.0</ele><time>2026-04-22T10:32:20Z</time></trkpt><trkpt lat="35.67830685081688" lon="-5.705455083427791"><ele>65.0</ele><time>2026-04-22T10:32:21Z</time></trkpt><trkpt lat="35.678338852078035" lon="-5.705528412336803"><ele>65.0</ele><time>2026-04-22T10:32:22Z</time></trkpt><trkpt lat="35.67837462241546" lon="-5.705598051034614"><ele>65.0</ele><time>2026-04-22T10:32:23Z</time></trkpt><trkpt lat="35.67840732924244" lon="-5.70566756540128"><ele>65.00000000000001</ele><time>2026-04-22T10:32:24Z</time></trkpt><trkpt lat="35.678438049990966" lon="-5.705737380882161"><ele>65.0</ele><time>2026-04-22T10:32:25Z</time></trkpt><trkpt lat="35.6784726445856" lon="-5.705809444250319"><ele>65.00000000000001</ele><time>2026-04-22T10:32:26Z</time></trkpt><trkpt lat="35.678488058462605" lon="-5.7058928938528855"><ele>65.0</ele><time>2026-04-22T10:32:27Z</time></trkpt><trkpt lat="35.67851594362878" lon="-5.705972423800063"><ele>65.0</ele><time>2026-04-22T10:32:28Z</time></trkpt><trkpt lat="35.67854420222514" lon="-5.706053018805772"><ele>65.0</ele><time>2026-04-22T10:32:29Z</time></trkpt><trkpt lat="35.67857179092089" lon="-5.706131703215643"><ele>65.0</ele><time>2026-04-22T10:32:30Z</time></trkpt><trkpt lat="35.67859843401232" lon="-5.706207690715991"><ele>65.00000000000001</ele><time>2026-04-22T10:32:31Z</time></trkpt><trkpt lat="35.67862378432336" lon="-5.706279991140696"><ele>65.0</ele><time>2026-04-22T10:32:32Z</time></trkpt><trkpt lat="35.67866726419136" lon="-5.70640399801866"><ele>65.33333333333334</ele><time>2026-04-22T10:32:34Z</time></trkpt><trkpt lat="35.678702125152796" lon="-5.706503425066152"><ele>65.66666666666667</ele><time>2026-04-22T10:32:36Z</time></trkpt><trkpt lat="35.67873109497572" lon="-5.706584330606163"><ele>66.0</ele><time>2026-04-22T10:32:52Z</time></trkpt><trkpt lat="35.67876071959372" lon="-5.706666299828662"><ele>66.33333333333333</ele><time>2026-04-22T10:32:54Z</time></trkpt><trkpt lat="35.67881361254005" lon="-5.7068078734727505"><ele>66.66666666666666</ele><time>2026-04-22T10:32:56Z</time></trkpt><trkpt lat="35.67884162196127" lon="-5.706882843817475"><ele>67.0</ele><time>2026-04-22T10:32:57Z</time></trkpt><trkpt lat="35.67886558488681" lon="-5.706958942382978"><ele>66.2</ele><time>2026-04-22T10:32:58Z</time></trkpt><trkpt lat="35.67896395244118" lon="-5.706991959901961"><ele>65.4</ele><time>2026-04-22T10:32:59Z</time></trkpt><trkpt lat="35.67901492718762" lon="-5.707118999063766"><ele>64.6</ele><time>2026-04-22T10:33:01Z</time></trkpt><trkpt lat="35.67896775968771" lon="-5.707250927523709"><ele>63.8</ele><time>2026-04-22T10:33:03Z</time></trkpt><trkpt lat="35.67906626250629" lon="-5.707255512045504"><ele>63.0</ele><time>2026-04-22T10:33:05Z</time></trkpt><trkpt lat="35.67909615587597" lon="-5.707382084238721"><ele>63.0</ele><time>2026-04-22T10:33:24Z</time></trkpt><trkpt lat="35.67912115298096" lon="-5.707474214474981"><ele>63.0</ele><time>2026-04-22T10:33:25Z</time></trkpt><trkpt lat="35.679159104976975" lon="-5.707584934173254"><ele>63.0</ele><time>2026-04-22T10:33:26Z</time></trkpt><trkpt lat="35.679210527359224" lon="-5.7076976580850705"><ele>63.0</ele><time>2026-04-22T10:33:27Z</time></trkpt><trkpt lat="35.679266725190026" lon="-5.707810519131012"><ele>63.0</ele><time>2026-04-22T10:33:28Z</time></trkpt><trkpt lat="35.679310950740735" lon="-5.707958888450113"><ele>63.0</ele><time>2026-04-22T10:33:29Z</time></trkpt><trkpt lat="35.67940107630618" lon="-5.708063889973536"><ele>63.0</ele><time>2026-04-22T10:33:30Z</time></trkpt><trkpt lat="35.679504519617225" lon="-5.70816324420917"><ele>63.0</ele><time>2026-04-22T10:33:31Z</time></trkpt><trkpt lat="35.67961242584846" lon="-5.708263956368525"><ele>63.0</ele><time>2026-04-22T10:33:32Z</time></trkpt><trkpt lat="35.67974153390539" lon="-5.708328480340221"><ele>63.0</ele><time>2026-04-22T10:33:33Z</time></trkpt><trkpt lat="35.67987249890657" lon="-5.708397832006794"><ele>63.0</ele><time>2026-04-22T10:33:34Z</time></trkpt><trkpt lat="35.68001399389212" lon="-5.708458117045937"><ele>63.0</ele><time>2026-04-22T10:33:35Z</time></trkpt><trkpt lat="35.68016539888684" lon="-5.7085111030117694"><ele>63.33333333333333</ele><time>2026-04-22T10:33:36Z</time></trkpt><trkpt lat="35.68032222235686" lon="-5.708560470839089"><ele>63.666666666666664</ele><time>2026-04-22T10:33:37Z</time></trkpt><trkpt lat="35.68048416789737" lon="-5.708607514145839"><ele>64.0</ele><time>2026-04-22T10:33:38Z</time></trkpt><trkpt lat="35.68064887162032" lon="-5.708651403663415"><ele>64.66666666666666</ele><time>2026-04-22T10:33:39Z</time></trkpt><trkpt lat="35.68081912649488" lon="-5.708693968896899"><ele>65.33333333333333</ele><time>2026-04-22T10:33:40Z</time></trkpt><trkpt lat="35.680993325910165" lon="-5.708738615282805"><ele>66.0</ele><time>2026-04-22T10:33:41Z</time></trkpt><trkpt lat="35.681169999780224" lon="-5.708784946011167"><ele>66.33333333333333</ele><time>2026-04-22T10:33:41.999Z</time></trkpt><trkpt lat="35.68134631456025" lon="-5.70882991606796"><ele>66.66666666666666</ele><time>2026-04-22T10:33:42.999Z</time></trkpt><trkpt lat="35.68152630762372" lon="-5.708874406577112"><ele>67.0</ele><time>2026-04-22T10:33:43.999Z</time></trkpt><trkpt lat="35.681710977043984" lon="-5.708919574440932"><ele>67.0</ele><time>2026-04-22T10:33:44.999Z</time></trkpt><trkpt lat="35.68189866363752" lon="-5.7089630017421165"><ele>67.0</ele><time>2026-04-22T10:33:45.999Z</time></trkpt><trkpt lat="35.68208476211529" lon="-5.709007005901537"><ele>67.0</ele><time>2026-04-22T10:33:46.999Z</time></trkpt><trkpt lat="35.68227151094778" lon="-5.709052165602444"><ele>67.33333333333333</ele><time>2026-04-22T10:33:47.999Z</time></trkpt><trkpt lat="35.68245777140252" lon="-5.709098351721917"><ele>67.66666666666667</ele><time>2026-04-22T10:33:48.999Z</time></trkpt><trkpt lat="35.682643913046014" lon="-5.709144063884706"><ele>68.0</ele><time>2026-04-22T10:33:49.999Z</time></trkpt><trkpt lat="35.682826061109054" lon="-5.709189662819195"><ele>68.66666666666667</ele><time>2026-04-22T10:33:50.999Z</time></trkpt><trkpt lat="35.68300592366121" lon="-5.7092354406023365"><ele>69.33333333333333</ele><time>2026-04-22T10:33:51.999Z</time></trkpt><trkpt lat="35.683187093633364" lon="-5.709280225805415"><ele>70.0</ele><time>2026-04-22T10:33:52.999Z</time></trkpt><trkpt lat="35.6833683091463" lon="-5.709324836022078"><ele>70.0</ele><time>2026-04-22T10:33:53.999Z</time></trkpt><trkpt lat="35.68354869349979" lon="-5.709366802013832"><ele>70.0</ele><time>2026-04-22T10:33:54.999Z</time></trkpt><trkpt lat="35.6837271269031" lon="-5.7094088628392745"><ele>70.0</ele><time>2026-04-22T10:33:55.999Z</time></trkpt><trkpt lat="35.6838959330154" lon="-5.709448839338727"><ele>71.75</ele><time>2026-04-22T10:33:56.999Z</time></trkpt><trkpt lat="35.68404800987929" lon="-5.70949184644414"><ele>73.5</ele><time>2026-04-22T10:33:57.999Z</time></trkpt><trkpt lat="35.684185067460454" lon="-5.709542680966339"><ele>75.25</ele><time>2026-04-22T10:33:58.999Z</time></trkpt><trkpt lat="35.6843079694279" lon="-5.709610332061056"><ele>77.0</ele><time>2026-04-22T10:33:59.999Z</time></trkpt><trkpt lat="35.684415795253194" lon="-5.709691716932397"><ele>77.5</ele><time>2026-04-22T10:34:00.999Z</time></trkpt><trkpt lat="35.68449678157769" lon="-5.709794157425275"><ele>78.0</ele><time>2026-04-22T10:34:01.999Z</time></trkpt><trkpt lat="35.68456375576341" lon="-5.709912955809355"><ele>78.5</ele><time>2026-04-22T10:34:02.999Z</time></trkpt><trkpt lat="35.68460534547088" lon="-5.71004665132306"><ele>79.0</ele><time>2026-04-22T10:34:03.999Z</time></trkpt><trkpt lat="35.684621050987666" lon="-5.710185352264719"><ele>80.75</ele><time>2026-04-22T10:34:04.999Z</time></trkpt><trkpt lat="35.68460783598607" lon="-5.710332797630833"><ele>82.5</ele><time>2026-04-22T10:34:05.999Z</time></trkpt><trkpt lat="35.68457247717276" lon="-5.710478924710041"><ele>84.25</ele><time>2026-04-22T10:34:06.999Z</time></trkpt><trkpt lat="35.68451254390406" lon="-5.7106260266722"><ele>86.0</ele><time>2026-04-22T10:34:07.999Z</time></trkpt><trkpt lat="35.68443643879425" lon="-5.710774103328078"><ele>85.75</ele><time>2026-04-22T10:34:08.999Z</time></trkpt><trkpt lat="35.68435130997521" lon="-5.710921616393996"><ele>85.5</ele><time>2026-04-22T10:34:09.999Z</time></trkpt><trkpt lat="35.68426953692347" lon="-5.711066983238631"><ele>85.25</ele><time>2026-04-22T10:34:11Z</time></trkpt><trkpt lat="35.68420160516421" lon="-5.71121917666842"><ele>85.0</ele><time>2026-04-22T10:34:12Z</time></trkpt><trkpt lat="35.68414653912762" lon="-5.711377783625122"><ele>86.75</ele><time>2026-04-22T10:34:13Z</time></trkpt><trkpt lat="35.68410600348274" lon="-5.7115384256031945"><ele>88.5</ele><time>2026-04-22T10:34:14Z</time></trkpt><trkpt lat="35.68408458546838" lon="-5.71169149710942"><ele>90.25</ele><time>2026-04-22T10:34:15Z</time></trkpt><trkpt lat="35.68407961406053" lon="-5.711836333155493"><ele>92.0</ele><time>2026-04-22T10:34:16Z</time></trkpt><trkpt lat="35.68408438923155" lon="-5.711976188815295"><ele>92.39999999999999</ele><time>2026-04-22T10:34:17Z</time></trkpt><trkpt lat="35.68409753188305" lon="-5.712106616401759"><ele>92.8</ele><time>2026-04-22T10:34:18Z</time></trkpt><trkpt lat="35.6841122378468" lon="-5.712229644630605"><ele>93.2</ele><time>2026-04-22T10:34:19Z</time></trkpt><trkpt lat="35.684126197645845" lon="-5.712355887227797"><ele>93.6</ele><time>2026-04-22T10:34:20Z</time></trkpt><trkpt lat="35.68414079856136" lon="-5.712500679366298"><ele>94.0</ele><time>2026-04-22T10:34:21Z</time></trkpt><trkpt lat="35.68415321810491" lon="-5.712662857770017"><ele>93.0</ele><time>2026-04-22T10:34:22Z</time></trkpt><trkpt lat="35.68416550970547" lon="-5.712838359985602"><ele>92.0</ele><time>2026-04-22T10:34:23Z</time></trkpt><trkpt lat="35.68417772440121" lon="-5.713025949410991"><ele>91.0</ele><time>2026-04-22T10:34:24Z</time></trkpt><trkpt lat="35.68418955626603" lon="-5.713228183339796"><ele>91.0</ele><time>2026-04-22T10:34:25Z</time></trkpt><trkpt lat="35.68420551002527" lon="-5.713446144486724"><ele>91.0</ele><time>2026-04-22T10:34:26Z</time></trkpt><trkpt lat="35.684224462433974" lon="-5.71367636201616"><ele>91.0</ele><time>2026-04-22T10:34:27Z</time></trkpt><trkpt lat="35.684243139800365" lon="-5.713911228883711"><ele>90.0</ele><time>2026-04-22T10:34:28Z</time></trkpt><trkpt lat="35.68426079606777" lon="-5.714145288716554"><ele>89.0</ele><time>2026-04-22T10:34:29Z</time></trkpt><trkpt lat="35.68427828923689" lon="-5.714392404119184"><ele>88.0</ele><time>2026-04-22T10:34:30Z</time></trkpt><trkpt lat="35.68429137699135" lon="-5.714646404642578"><ele>86.66666666666666</ele><time>2026-04-22T10:34:31Z</time></trkpt><trkpt lat="35.68429983565556" lon="-5.714907609011236"><ele>85.33333333333333</ele><time>2026-04-22T10:34:32Z</time></trkpt><trkpt lat="35.68430256987176" lon="-5.7151774080976185"><ele>84.0</ele><time>2026-04-22T10:34:33Z</time></trkpt><trkpt lat="35.68429909487017" lon="-5.715449671529726"><ele>82.33333333333333</ele><time>2026-04-22T10:34:34Z</time></trkpt><trkpt lat="35.68429080084691" lon="-5.715720628340657"><ele>80.66666666666666</ele><time>2026-04-22T10:34:35Z</time></trkpt><trkpt lat="35.68427694725666" lon="-5.715989771621264"><ele>79.0</ele><time>2026-04-22T10:34:36Z</time></trkpt><trkpt lat="35.68425752727795" lon="-5.716259131930019"><ele>78.0</ele><time>2026-04-22T10:34:37Z</time></trkpt><trkpt lat="35.68423347971736" lon="-5.71652523620487"><ele>77.0</ele><time>2026-04-22T10:34:38Z</time></trkpt><trkpt lat="35.68420806938345" lon="-5.7167881744929625"><ele>76.0</ele><time>2026-04-22T10:34:39Z</time></trkpt><trkpt lat="35.68417945179117" lon="-5.717052819176144"><ele>74.0</ele><time>2026-04-22T10:34:40Z</time></trkpt><trkpt lat="35.684143894350726" lon="-5.717324265182661"><ele>72.0</ele><time>2026-04-22T10:34:41Z</time></trkpt><trkpt lat="35.68409715550405" lon="-5.717605161960491"><ele>71.5</ele><time>2026-04-22T10:34:42Z</time></trkpt><trkpt lat="35.68404628105252" lon="-5.717891873227245"><ele>71.0</ele><time>2026-04-22T10:34:43Z</time></trkpt><trkpt lat="35.683990758091646" lon="-5.718183712421461"><ele>71.0</ele><time>2026-04-22T10:34:44Z</time></trkpt><trkpt lat="35.683930939298065" lon="-5.7184730387792655"><ele>71.0</ele><time>2026-04-22T10:34:45Z</time></trkpt><trkpt lat="35.68386570870584" lon="-5.718763800864674"><ele>67.5</ele><time>2026-04-22T10:34:46Z</time></trkpt><trkpt lat="35.68379356298198" lon="-5.719055056370245"><ele>64.0</ele><time>2026-04-22T10:34:47Z</time></trkpt><trkpt lat="35.68371633878182" lon="-5.719344720101333"><ele>64.0</ele><time>2026-04-22T10:34:48Z</time></trkpt><trkpt lat="35.683632642974445" lon="-5.719633978677439"><ele>64.0</ele><time>2026-04-22T10:34:49Z</time></trkpt><trkpt lat="35.68354424551427" lon="-5.719921674614757"><ele>66.0</ele><time>2026-04-22T10:34:50Z</time></trkpt><trkpt lat="35.683450538105525" lon="-5.720210208447386"><ele>68.0</ele><time>2026-04-22T10:34:51Z</time></trkpt><trkpt lat="35.68334828415848" lon="-5.720495875022803"><ele>68.0</ele><time>2026-04-22T10:34:52Z</time></trkpt><trkpt lat="35.68324159580898" lon="-5.720775286694982"><ele>68.0</ele><time>2026-04-22T10:34:53Z</time></trkpt><trkpt lat="35.68312979523223" lon="-5.721052005939691"><ele>71.0</ele><time>2026-04-22T10:34:54Z</time></trkpt><trkpt lat="35.68301245724389" lon="-5.721326506691423"><ele>74.0</ele><time>2026-04-22T10:34:55Z</time></trkpt><trkpt lat="35.68289136735509" lon="-5.721596403283818"><ele>74.0</ele><time>2026-04-22T10:34:56Z</time></trkpt><trkpt lat="35.682768159753586" lon="-5.721859224010318"><ele>74.0</ele><time>2026-04-22T10:34:57Z</time></trkpt><trkpt lat="35.68264109107293" lon="-5.7221180815003825"><ele>70.5</ele><time>2026-04-22T10:34:58Z</time></trkpt><trkpt lat="35.68251115823026" lon="-5.7223767207493434"><ele>67.0</ele><time>2026-04-22T10:34:59Z</time></trkpt><trkpt lat="35.682381371255424" lon="-5.722638903435311"><ele>65.5</ele><time>2026-04-22T10:35:00Z</time></trkpt><trkpt lat="35.68225171233287" lon="-5.722899852587147"><ele>64.0</ele><time>2026-04-22T10:35:01Z</time></trkpt><trkpt lat="35.6821219761406" lon="-5.723160656364029"><ele>64.0</ele><time>2026-04-22T10:35:02Z</time></trkpt><trkpt lat="35.68199217023944" lon="-5.7234230338011685"><ele>64.0</ele><time>2026-04-22T10:35:03Z</time></trkpt><trkpt lat="35.681860936586716" lon="-5.723686650498396"><ele>59.5</ele><time>2026-04-22T10:35:04Z</time></trkpt><trkpt lat="35.6817292402846" lon="-5.723953749554091"><ele>55.0</ele><time>2026-04-22T10:35:05Z</time></trkpt><trkpt lat="35.68160049380794" lon="-5.724223946041236"><ele>57.5</ele><time>2026-04-22T10:35:06Z</time></trkpt><trkpt lat="35.68147519266336" lon="-5.724497213226984"><ele>60.0</ele><time>2026-04-22T10:35:07Z</time></trkpt><trkpt lat="35.681355909038665" lon="-5.72477305881771"><ele>60.0</ele><time>2026-04-22T10:35:08Z</time></trkpt><trkpt lat="35.68124578086116" lon="-5.725053704359328"><ele>60.0</ele><time>2026-04-22T10:35:09Z</time></trkpt><trkpt lat="35.681141330025646" lon="-5.725337721589348"><ele>60.5</ele><time>2026-04-22T10:35:10Z</time></trkpt><trkpt lat="35.681045705619404" lon="-5.725620344610425"><ele>61.0</ele><time>2026-04-22T10:35:11Z</time></trkpt><trkpt lat="35.6809566708631" lon="-5.725906272664077"><ele>65.5</ele><time>2026-04-22T10:35:12Z</time></trkpt><trkpt lat="35.68087331974448" lon="-5.726196110929827"><ele>70.0</ele><time>2026-04-22T10:35:13Z</time></trkpt><trkpt lat="35.68079766560242" lon="-5.726486411567908"><ele>70.0</ele><time>2026-04-22T10:35:14Z</time></trkpt><trkpt lat="35.680728784938125" lon="-5.726778322392121"><ele>70.0</ele><time>2026-04-22T10:35:15Z</time></trkpt><trkpt lat="35.68066515708933" lon="-5.727073876984784"><ele>74.0</ele><time>2026-04-22T10:35:16Z</time></trkpt><trkpt lat="35.68060957146349" lon="-5.727374315757048"><ele>78.0</ele><time>2026-04-22T10:35:17Z</time></trkpt><trkpt lat="35.68055879946555" lon="-5.727678283617774"><ele>82.5</ele><time>2026-04-22T10:35:18Z</time></trkpt><trkpt lat="35.68051188195712" lon="-5.727984718252359"><ele>87.0</ele><time>2026-04-22T10:35:19Z</time></trkpt><trkpt lat="35.6804710811208" lon="-5.7282940613816935"><ele>88.5</ele><time>2026-04-22T10:35:20Z</time></trkpt><trkpt lat="35.68043928183385" lon="-5.728605922949002"><ele>90.0</ele><time>2026-04-22T10:35:21Z</time></trkpt><trkpt lat="35.68041627052121" lon="-5.728919957998659"><ele>90.0</ele><time>2026-04-22T10:35:22Z</time></trkpt><trkpt lat="35.68040127337428" lon="-5.7292352429438065"><ele>90.0</ele><time>2026-04-22T10:35:23Z</time></trkpt><trkpt lat="35.68039383782319" lon="-5.72955527431967"><ele>89.5</ele><time>2026-04-22T10:35:24Z</time></trkpt><trkpt lat="35.68039462334823" lon="-5.72987412763697"><ele>89.0</ele><time>2026-04-22T10:35:25Z</time></trkpt><trkpt lat="35.68040326420077" lon="-5.730191762884654"><ele>91.5</ele><time>2026-04-22T10:35:26Z</time></trkpt><trkpt lat="35.680418433389434" lon="-5.730511758653744"><ele>94.0</ele><time>2026-04-22T10:35:27Z</time></trkpt><trkpt lat="35.680439039681225" lon="-5.73083155656904"><ele>95.0</ele><time>2026-04-22T10:35:28Z</time></trkpt><trkpt lat="35.68046542081083" lon="-5.731152073663375"><ele>96.0</ele><time>2026-04-22T10:35:29Z</time></trkpt><trkpt lat="35.680497478083716" lon="-5.7314712939449475"><ele>96.0</ele><time>2026-04-22T10:35:30Z</time></trkpt><trkpt lat="35.680535239011455" lon="-5.731785014303805"><ele>96.0</ele><time>2026-04-22T10:35:31Z</time></trkpt><trkpt lat="35.68057522048145" lon="-5.73209802425099"><ele>95.5</ele><time>2026-04-22T10:35:32Z</time></trkpt><trkpt lat="35.68061689841304" lon="-5.732410526364661"><ele>95.0</ele><time>2026-04-22T10:35:33Z</time></trkpt><trkpt lat="35.680656912345796" lon="-5.732722078129343"><ele>92.5</ele><time>2026-04-22T10:35:34Z</time></trkpt><trkpt lat="35.68069574230626" lon="-5.733032579001608"><ele>90.0</ele><time>2026-04-22T10:35:35Z</time></trkpt><trkpt lat="35.68073199161976" lon="-5.73334299046981"><ele>84.0</ele><time>2026-04-22T10:35:36Z</time></trkpt><trkpt lat="35.68076600759696" lon="-5.733656624974317"><ele>78.0</ele><time>2026-04-22T10:35:37Z</time></trkpt><trkpt lat="35.68079489271532" lon="-5.733972351535137"><ele>78.0</ele><time>2026-04-22T10:35:38Z</time></trkpt><trkpt lat="35.68081751696316" lon="-5.734290115055441"><ele>78.0</ele><time>2026-04-22T10:35:39Z</time></trkpt><trkpt lat="35.68083231461558" lon="-5.734609680005176"><ele>76.5</ele><time>2026-04-22T10:35:40Z</time></trkpt><trkpt lat="35.680839228221565" lon="-5.734931876081658"><ele>75.0</ele><time>2026-04-22T10:35:41Z</time></trkpt><trkpt lat="35.680838377914796" lon="-5.735253956039693"><ele>75.0</ele><time>2026-04-22T10:35:42Z</time></trkpt><trkpt lat="35.680830370472" lon="-5.735574628657582"><ele>75.0</ele><time>2026-04-22T10:35:43Z</time></trkpt><trkpt lat="35.68081317383252" lon="-5.7358939241283755"><ele>73.0</ele><time>2026-04-22T10:35:44Z</time></trkpt><trkpt lat="35.68078883476278" lon="-5.736214389858776"><ele>71.0</ele><time>2026-04-22T10:35:45Z</time></trkpt><trkpt lat="35.68075633063897" lon="-5.736534583840934"><ele>71.0</ele><time>2026-04-22T10:35:46Z</time></trkpt><trkpt lat="35.680716294043826" lon="-5.736853901199194"><ele>71.0</ele><time>2026-04-22T10:35:46.999Z</time></trkpt><trkpt lat="35.68066917001146" lon="-5.737172611586783"><ele>66.0</ele><time>2026-04-22T10:35:47.999Z</time></trkpt><trkpt lat="35.68061390529324" lon="-5.73748772569944"><ele>61.0</ele><time>2026-04-22T10:35:48.999Z</time></trkpt><trkpt lat="35.6805510732787" lon="-5.737803361638499"><ele>57.0</ele><time>2026-04-22T10:35:49.999Z</time></trkpt><trkpt lat="35.680480469219816" lon="-5.738118239360807"><ele>53.0</ele><time>2026-04-22T10:35:50.999Z</time></trkpt><trkpt lat="35.680401240079064" lon="-5.7384276143198285"><ele>50.5</ele><time>2026-04-22T10:35:51.999Z</time></trkpt><trkpt lat="35.680314676038535" lon="-5.738734739252777"><ele>48.0</ele><time>2026-04-22T10:35:52.999Z</time></trkpt><trkpt lat="35.68022212177282" lon="-5.739040808797196"><ele>44.5</ele><time>2026-04-22T10:35:53.999Z</time></trkpt><trkpt lat="35.6801207098052" lon="-5.739342481850999"><ele>41.0</ele><time>2026-04-22T10:35:54.999Z</time></trkpt><trkpt lat="35.68001304619683" lon="-5.7396420414338465"><ele>41.0</ele><time>2026-04-22T10:35:55.999Z</time></trkpt><trkpt lat="35.67990019765467" lon="-5.7399409393872896"><ele>41.0</ele><time>2026-04-22T10:35:56.999Z</time></trkpt><trkpt lat="35.679778466068356" lon="-5.740236003951361"><ele>41.0</ele><time>2026-04-22T10:35:57.999Z</time></trkpt><trkpt lat="35.67964927285713" lon="-5.740523942843341"><ele>41.0</ele><time>2026-04-22T10:35:58.999Z</time></trkpt><trkpt lat="35.67951282382717" lon="-5.740804030739808"><ele>40.5</ele><time>2026-04-22T10:36:00Z</time></trkpt><trkpt lat="35.67936997110883" lon="-5.741077557873351"><ele>40.0</ele><time>2026-04-22T10:36:01Z</time></trkpt><trkpt lat="35.679219681735255" lon="-5.741346565830125"><ele>40.0</ele><time>2026-04-22T10:36:02Z</time></trkpt><trkpt lat="35.67906233194416" lon="-5.741610182877975"><ele>40.0</ele><time>2026-04-22T10:36:03Z</time></trkpt><trkpt lat="35.678898289386446" lon="-5.741867583262637"><ele>40.0</ele><time>2026-04-22T10:36:04Z</time></trkpt><trkpt lat="35.678726874533176" lon="-5.742119382812032"><ele>40.0</ele><time>2026-04-22T10:36:05Z</time></trkpt><trkpt lat="35.67854556953392" lon="-5.7423685190811735"><ele>40.0</ele><time>2026-04-22T10:36:06Z</time></trkpt><trkpt lat="35.678356294399606" lon="-5.742614068367381"><ele>40.0</ele><time>2026-04-22T10:36:07Z</time></trkpt><trkpt lat="35.67816048735973" lon="-5.742854886668631"><ele>38.5</ele><time>2026-04-22T10:36:08Z</time></trkpt><trkpt lat="35.677958961569715" lon="-5.743090314911525"><ele>37.0</ele><time>2026-04-22T10:36:09Z</time></trkpt><trkpt lat="35.677751230942285" lon="-5.743318588220993"><ele>37.0</ele><time>2026-04-22T10:36:10Z</time></trkpt><trkpt lat="35.67754021349554" lon="-5.743540824604767"><ele>37.0</ele><time>2026-04-22T10:36:11Z</time></trkpt><trkpt lat="35.67732376310901" lon="-5.743758071408879"><ele>39.0</ele><time>2026-04-22T10:36:12Z</time></trkpt><trkpt lat="35.677101916726755" lon="-5.743967467249387"><ele>41.0</ele><time>2026-04-22T10:36:13Z</time></trkpt><trkpt lat="35.67687587142267" lon="-5.744171644447422"><ele>41.0</ele><time>2026-04-22T10:36:14Z</time></trkpt><trkpt lat="35.676644224175256" lon="-5.744369113315848"><ele>41.0</ele><time>2026-04-22T10:36:15Z</time></trkpt><trkpt lat="35.676408715999514" lon="-5.744559275958395"><ele>42.0</ele><time>2026-04-22T10:36:16Z</time></trkpt><trkpt lat="35.676168777551986" lon="-5.74474256626892"><ele>43.0</ele><time>2026-04-22T10:36:17Z</time></trkpt><trkpt lat="35.675925570348014" lon="-5.744920938634276"><ele>43.0</ele><time>2026-04-22T10:36:18Z</time></trkpt><trkpt lat="35.6756799135368" lon="-5.745097674266471"><ele>43.0</ele><time>2026-04-22T10:36:19Z</time></trkpt><trkpt lat="35.67543240597117" lon="-5.745277038019037"><ele>44.5</ele><time>2026-04-22T10:36:20Z</time></trkpt><trkpt lat="35.67518376920702" lon="-5.745456703443197"><ele>46.0</ele><time>2026-04-22T10:36:21Z</time></trkpt><trkpt lat="35.67493533764597" lon="-5.745637112579503"><ele>46.0</ele><time>2026-04-22T10:36:22Z</time></trkpt><trkpt lat="35.67468634659857" lon="-5.745816760650242"><ele>46.0</ele><time>2026-04-22T10:36:23Z</time></trkpt><trkpt lat="35.67443807678769" lon="-5.745994021668324"><ele>49.0</ele><time>2026-04-22T10:36:24Z</time></trkpt><trkpt lat="35.674191516227786" lon="-5.746170966039144"><ele>52.0</ele><time>2026-04-22T10:36:25Z</time></trkpt><trkpt lat="35.67394172035096" lon="-5.746348960623436"><ele>52.0</ele><time>2026-04-22T10:36:26Z</time></trkpt><trkpt lat="35.67369435066151" lon="-5.746527683289314"><ele>52.0</ele><time>2026-04-22T10:36:27Z</time></trkpt><trkpt lat="35.67296040145166" lon="-5.747093900906986"><ele>46.0</ele><time>2026-04-22T10:36:30Z</time></trkpt><trkpt lat="35.672491007468984" lon="-5.7475115571052235"><ele>49.0</ele><time>2026-04-22T10:36:32Z</time></trkpt><trkpt lat="35.6720368327044" lon="-5.747962913561971"><ele>42.0</ele><time>2026-04-22T10:36:34Z</time></trkpt><trkpt lat="35.67160049150791" lon="-5.748441895251731"><ele>42.5</ele><time>2026-04-22T10:36:36Z</time></trkpt><trkpt lat="35.67139313883236" lon="-5.748691790896493"><ele>43.0</ele><time>2026-04-22T10:36:37Z</time></trkpt><trkpt lat="35.671193890211605" lon="-5.748947412959224"><ele>38.5</ele><time>2026-04-22T10:36:38Z</time></trkpt><trkpt lat="35.67099452280554" lon="-5.749199178923774"><ele>34.0</ele><time>2026-04-22T10:36:39Z</time></trkpt><trkpt lat="35.67062087446606" lon="-5.7497281779302085"><ele>29.0</ele><time>2026-04-22T10:36:41Z</time></trkpt><trkpt lat="35.67011969244789" lon="-5.75056295003349"><ele>30.0</ele><time>2026-04-22T10:36:44Z</time></trkpt><trkpt lat="35.6698177440369" lon="-5.7511369052996795"><ele>30.0</ele><time>2026-04-22T10:36:46Z</time></trkpt><trkpt lat="35.66967579272608" lon="-5.751431115064727"><ele>30.0</ele><time>2026-04-22T10:36:47Z</time></trkpt><trkpt lat="35.66954408983036" lon="-5.751729764403996"><ele>31.5</ele><time>2026-04-22T10:36:48Z</time></trkpt><trkpt lat="35.669415441991106" lon="-5.752029557674508"><ele>33.0</ele><time>2026-04-22T10:36:49Z</time></trkpt><trkpt lat="35.66929455222176" lon="-5.752335217758807"><ele>33.0</ele><time>2026-04-22T10:36:50Z</time></trkpt><trkpt lat="35.66917840419867" lon="-5.752642711339751"><ele>33.0</ele><time>2026-04-22T10:36:51Z</time></trkpt><trkpt lat="35.66907182840788" lon="-5.752956993789482"><ele>35.0</ele><time>2026-04-22T10:36:52Z</time></trkpt><trkpt lat="35.668970548235094" lon="-5.753273661229874"><ele>37.0</ele><time>2026-04-22T10:36:53Z</time></trkpt><trkpt lat="35.668872216110394" lon="-5.753592715374859"><ele>39.5</ele><time>2026-04-22T10:36:54Z</time></trkpt><trkpt lat="35.66878137277142" lon="-5.75391951616307"><ele>42.0</ele><time>2026-04-22T10:36:55Z</time></trkpt><trkpt lat="35.6686993846075" lon="-5.754253653576794"><ele>41.5</ele><time>2026-04-22T10:36:56Z</time></trkpt><trkpt lat="35.66862963699675" lon="-5.754592859789574"><ele>41.0</ele><time>2026-04-22T10:36:57Z</time></trkpt><trkpt lat="35.66854809943826" lon="-5.75493092027228"><ele>43.5</ele><time>2026-04-22T10:36:58Z</time></trkpt><trkpt lat="35.668489203391" lon="-5.755274558976189"><ele>46.0</ele><time>2026-04-22T10:36:59Z</time></trkpt><trkpt lat="35.66843449313552" lon="-5.7556194496176145"><ele>46.0</ele><time>2026-04-22T10:37:00Z</time></trkpt><trkpt lat="35.66838805805084" lon="-5.755965836448234"><ele>46.0</ele><time>2026-04-22T10:37:01Z</time></trkpt><trkpt lat="35.668351092797366" lon="-5.756313033658125"><ele>50.0</ele><time>2026-04-22T10:37:02Z</time></trkpt><trkpt lat="35.66832221446908" lon="-5.756661758659308"><ele>54.0</ele><time>2026-04-22T10:37:03Z</time></trkpt><trkpt lat="35.66830175269421" lon="-5.757013921405898"><ele>55.0</ele><time>2026-04-22T10:37:04Z</time></trkpt><trkpt lat="35.66828891983198" lon="-5.757367695675781"><ele>56.0</ele><time>2026-04-22T10:37:05Z</time></trkpt><trkpt lat="35.668282999455506" lon="-5.757723058242046"><ele>56.0</ele><time>2026-04-22T10:37:06Z</time></trkpt><trkpt lat="35.66828606697107" lon="-5.7580775482163205"><ele>56.0</ele><time>2026-04-22T10:37:07Z</time></trkpt><trkpt lat="35.66829489073684" lon="-5.758430561220423"><ele>57.0</ele><time>2026-04-22T10:37:08Z</time></trkpt><trkpt lat="35.668311682711206" lon="-5.758783569241231"><ele>58.0</ele><time>2026-04-22T10:37:09Z</time></trkpt><trkpt lat="35.66833594296097" lon="-5.759139097356117"><ele>57.0</ele><time>2026-04-22T10:37:10Z</time></trkpt><trkpt lat="35.668366543082854" lon="-5.759499499464692"><ele>56.0</ele><time>2026-04-22T10:37:11Z</time></trkpt><trkpt lat="35.668396462039" lon="-5.759862364399131"><ele>55.5</ele><time>2026-04-22T10:37:12Z</time></trkpt><trkpt lat="35.66842639776353" lon="-5.760228857298301"><ele>55.0</ele><time>2026-04-22T10:37:13Z</time></trkpt><trkpt lat="35.668457189904316" lon="-5.760596213494248"><ele>55.0</ele><time>2026-04-22T10:37:14Z</time></trkpt><trkpt lat="35.66848822184739" lon="-5.760963490528848"><ele>55.0</ele><time>2026-04-22T10:37:15Z</time></trkpt><trkpt lat="35.66851751150514" lon="-5.761329635770762"><ele>54.5</ele><time>2026-04-22T10:37:16Z</time></trkpt><trkpt lat="35.66854711590495" lon="-5.761691340069665"><ele>54.0</ele><time>2026-04-22T10:37:17Z</time></trkpt><trkpt lat="35.66857691392394" lon="-5.762052039998164"><ele>52.5</ele><time>2026-04-22T10:37:18Z</time></trkpt><trkpt lat="35.66860620992853" lon="-5.762411388873235"><ele>51.0</ele><time>2026-04-22T10:37:19Z</time></trkpt><trkpt lat="35.66863551980102" lon="-5.762767717153253"><ele>49.5</ele><time>2026-04-22T10:37:20Z</time></trkpt><trkpt lat="35.66866513821099" lon="-5.763120957510983"><ele>48.0</ele><time>2026-04-22T10:37:21Z</time></trkpt><trkpt lat="35.66869587337372" lon="-5.76347403911421"><ele>47.5</ele><time>2026-04-22T10:37:22Z</time></trkpt><trkpt lat="35.66872633534521" lon="-5.7638251673746606"><ele>47.0</ele><time>2026-04-22T10:37:23Z</time></trkpt><trkpt lat="35.66875466958671" lon="-5.764173432890678"><ele>45.5</ele><time>2026-04-22T10:37:24Z</time></trkpt><trkpt lat="35.668782809325066" lon="-5.76452177788628"><ele>44.0</ele><time>2026-04-22T10:37:25Z</time></trkpt><trkpt lat="35.66881022683585" lon="-5.764869238600083"><ele>45.0</ele><time>2026-04-22T10:37:26Z</time></trkpt><trkpt lat="35.66883577442146" lon="-5.765215814555853"><ele>46.0</ele><time>2026-04-22T10:37:27Z</time></trkpt><trkpt lat="35.66886223323399" lon="-5.765560268594006"><ele>46.0</ele><time>2026-04-22T10:37:28Z</time></trkpt><trkpt lat="35.66889013698125" lon="-5.765902511118802"><ele>46.0</ele><time>2026-04-22T10:37:29Z</time></trkpt><trkpt lat="35.668919946306424" lon="-5.766245575583889"><ele>46.0</ele><time>2026-04-22T10:37:30Z</time></trkpt><trkpt lat="35.66895138541406" lon="-5.766588773109818"><ele>46.0</ele><time>2026-04-22T10:37:31Z</time></trkpt><trkpt lat="35.6689834435728" lon="-5.766931621674382"><ele>46.0</ele><time>2026-04-22T10:37:32Z</time></trkpt><trkpt lat="35.669021030420126" lon="-5.767277288116419"><ele>46.0</ele><time>2026-04-22T10:37:33Z</time></trkpt><trkpt lat="35.66906468104231" lon="-5.767621921208739"><ele>45.0</ele><time>2026-04-22T10:37:34Z</time></trkpt><trkpt lat="35.66911485292823" lon="-5.7679661653855145"><ele>44.0</ele><time>2026-04-22T10:37:35Z</time></trkpt><trkpt lat="35.669172096570954" lon="-5.768309045411694"><ele>40.5</ele><time>2026-04-22T10:37:36Z</time></trkpt><trkpt lat="35.66923751741773" lon="-5.768650799871945"><ele>37.0</ele><time>2026-04-22T10:37:37Z</time></trkpt><trkpt lat="35.66930601334888" lon="-5.768992419653233"><ele>37.0</ele><time>2026-04-22T10:37:38Z</time></trkpt><trkpt lat="35.66938059917012" lon="-5.769335160887959"><ele>37.0</ele><time>2026-04-22T10:37:39Z</time></trkpt><trkpt lat="35.66946143722064" lon="-5.769672347808306"><ele>33.5</ele><time>2026-04-22T10:37:40Z</time></trkpt><trkpt lat="35.66954773574842" lon="-5.7700074911651775"><ele>30.0</ele><time>2026-04-22T10:37:41Z</time></trkpt><trkpt lat="35.669638424911945" lon="-5.770340291320438"><ele>29.5</ele><time>2026-04-22T10:37:42Z</time></trkpt><trkpt lat="35.66973407120056" lon="-5.770671892703263"><ele>29.0</ele><time>2026-04-22T10:37:43Z</time></trkpt><trkpt lat="35.66983566134265" lon="-5.771004085257435"><ele>29.5</ele><time>2026-04-22T10:37:44Z</time></trkpt><trkpt lat="35.669942393100335" lon="-5.771332984657764"><ele>30.0</ele><time>2026-04-22T10:37:45Z</time></trkpt><trkpt lat="35.67005466951001" lon="-5.771660617768909"><ele>30.5</ele><time>2026-04-22T10:37:46Z</time></trkpt><trkpt lat="35.67017218803806" lon="-5.771985147762168"><ele>31.0</ele><time>2026-04-22T10:37:47Z</time></trkpt><trkpt lat="35.67029473716842" lon="-5.772307299744389"><ele>32.0</ele><time>2026-04-22T10:37:48Z</time></trkpt><trkpt lat="35.670419840484314" lon="-5.772624188836339"><ele>33.0</ele><time>2026-04-22T10:37:49Z</time></trkpt><trkpt lat="35.67054843804134" lon="-5.772940143083908"><ele>34.0</ele><time>2026-04-22T10:37:50Z</time></trkpt><trkpt lat="35.670677897057296" lon="-5.773254085770953"><ele>35.0</ele><time>2026-04-22T10:37:51Z</time></trkpt><trkpt lat="35.67080760518392" lon="-5.7735687546748675"><ele>37.0</ele><time>2026-04-22T10:37:52Z</time></trkpt><trkpt lat="35.67093690064692" lon="-5.773886029906146"><ele>39.0</ele><time>2026-04-22T10:37:53Z</time></trkpt><trkpt lat="35.671065550703" lon="-5.77420488643627"><ele>40.0</ele><time>2026-04-22T10:37:54Z</time></trkpt><trkpt lat="35.67119527403806" lon="-5.7745257294911765"><ele>41.0</ele><time>2026-04-22T10:37:55Z</time></trkpt><trkpt lat="35.67132420473863" lon="-5.774847796676239"><ele>41.0</ele><time>2026-04-22T10:37:56Z</time></trkpt><trkpt lat="35.671454728544596" lon="-5.77516970312988"><ele>41.0</ele><time>2026-04-22T10:37:57Z</time></trkpt><trkpt lat="35.67158521214578" lon="-5.775491309938525"><ele>41.0</ele><time>2026-04-22T10:37:58Z</time></trkpt><trkpt lat="35.6717175240981" lon="-5.775812807092827"><ele>41.0</ele><time>2026-04-22T10:37:59Z</time></trkpt><trkpt lat="35.6718488626975" lon="-5.776136334116124"><ele>41.0</ele><time>2026-04-22T10:38:00Z</time></trkpt><trkpt lat="35.671979173115815" lon="-5.776460310044711"><ele>41.0</ele><time>2026-04-22T10:38:01Z</time></trkpt><trkpt lat="35.67210995207932" lon="-5.776784392460811"><ele>39.5</ele><time>2026-04-22T10:38:02Z</time></trkpt><trkpt lat="35.67223953436548" lon="-5.777108130126942"><ele>38.0</ele><time>2026-04-22T10:38:03Z</time></trkpt><trkpt lat="35.67236936317751" lon="-5.777431901024883"><ele>38.5</ele><time>2026-04-22T10:38:04Z</time></trkpt><trkpt lat="35.672500673769" lon="-5.777755361393023"><ele>39.0</ele><time>2026-04-22T10:38:05Z</time></trkpt><trkpt lat="35.67263132116191" lon="-5.778076313581324"><ele>39.0</ele><time>2026-04-22T10:38:06Z</time></trkpt><trkpt lat="35.67276117491736" lon="-5.77839684882335"><ele>39.0</ele><time>2026-04-22T10:38:07Z</time></trkpt><trkpt lat="35.67288930345515" lon="-5.778714544183728"><ele>38.5</ele><time>2026-04-22T10:38:08Z</time></trkpt><trkpt lat="35.6730177955265" lon="-5.779030722718701"><ele>38.0</ele><time>2026-04-22T10:38:09Z</time></trkpt><trkpt lat="35.67314670955634" lon="-5.779346350322604"><ele>38.0</ele><time>2026-04-22T10:38:10Z</time></trkpt><trkpt lat="35.673275329136814" lon="-5.779662477893901"><ele>38.0</ele><time>2026-04-22T10:38:11Z</time></trkpt><trkpt lat="35.673402726397434" lon="-5.7799784323933086"><ele>37.5</ele><time>2026-04-22T10:38:12Z</time></trkpt><trkpt lat="35.67353045990715" lon="-5.780295004757296"><ele>37.0</ele><time>2026-04-22T10:38:13Z</time></trkpt><trkpt lat="35.67365736934939" lon="-5.780608668789654"><ele>36.5</ele><time>2026-04-22T10:38:14Z</time></trkpt><trkpt lat="35.67378810363822" lon="-5.780926568409142"><ele>36.0</ele><time>2026-04-22T10:38:15Z</time></trkpt><trkpt lat="35.67391834150598" lon="-5.7812469942320215"><ele>37.0</ele><time>2026-04-22T10:38:16Z</time></trkpt><trkpt lat="35.67405005692077" lon="-5.7815703787973725"><ele>38.0</ele><time>2026-04-22T10:38:17Z</time></trkpt><trkpt lat="35.67418202164795" lon="-5.78189512833634"><ele>40.0</ele><time>2026-04-22T10:38:18Z</time></trkpt><trkpt lat="35.67431391858497" lon="-5.782221263030727"><ele>42.0</ele><time>2026-04-22T10:38:19Z</time></trkpt><trkpt lat="35.67444510405844" lon="-5.782545384676941"><ele>41.5</ele><time>2026-04-22T10:38:20Z</time></trkpt><trkpt lat="35.67457402183625" lon="-5.782865472808652"><ele>41.0</ele><time>2026-04-22T10:38:21Z</time></trkpt><trkpt lat="35.67470493319453" lon="-5.783186584851428"><ele>41.0</ele><time>2026-04-22T10:38:22Z</time></trkpt><trkpt lat="35.67483463460647" lon="-5.7835082470871475"><ele>41.0</ele><time>2026-04-22T10:38:23Z</time></trkpt><trkpt lat="35.674961750799355" lon="-5.783828110620204"><ele>41.5</ele><time>2026-04-22T10:38:24Z</time></trkpt><trkpt lat="35.675093057978835" lon="-5.784148520461385"><ele>42.0</ele><time>2026-04-22T10:38:25Z</time></trkpt><trkpt lat="35.67522157370607" lon="-5.784468992225774"><ele>42.0</ele><time>2026-04-22T10:38:26Z</time></trkpt><trkpt lat="35.67534947850622" lon="-5.784789106227957"><ele>42.0</ele><time>2026-04-22T10:38:27Z</time></trkpt><trkpt lat="35.67547704639206" lon="-5.785107766359332"><ele>41.5</ele><time>2026-04-22T10:38:28Z</time></trkpt><trkpt lat="35.675606255992015" lon="-5.7854249135404245"><ele>41.0</ele><time>2026-04-22T10:38:29Z</time></trkpt><trkpt lat="35.67573614727324" lon="-5.785742112339618"><ele>41.5</ele><time>2026-04-22T10:38:30Z</time></trkpt><trkpt lat="35.675866670962506" lon="-5.78605964413598"><ele>42.0</ele><time>2026-04-22T10:38:31Z</time></trkpt><trkpt lat="35.67599534654171" lon="-5.7863783624445535"><ele>41.0</ele><time>2026-04-22T10:38:32Z</time></trkpt><trkpt lat="35.67612232756848" lon="-5.786696228237826"><ele>40.0</ele><time>2026-04-22T10:38:33Z</time></trkpt><trkpt lat="35.67624949785742" lon="-5.787015311643019"><ele>39.0</ele><time>2026-04-22T10:38:34Z</time></trkpt><trkpt lat="35.6763770495183" lon="-5.787334437083312"><ele>38.0</ele><time>2026-04-22T10:38:35Z</time></trkpt><trkpt lat="35.67650699343935" lon="-5.78765254887537"><ele>36.5</ele><time>2026-04-22T10:38:36Z</time></trkpt><trkpt lat="35.676638352587446" lon="-5.787970973476158"><ele>35.0</ele><time>2026-04-22T10:38:37Z</time></trkpt><trkpt lat="35.67676951074911" lon="-5.788291902221481"><ele>34.0</ele><time>2026-04-22T10:38:38Z</time></trkpt><trkpt lat="35.67689875549479" lon="-5.788613549624002"><ele>33.0</ele><time>2026-04-22T10:38:39Z</time></trkpt><trkpt lat="35.67702656371279" lon="-5.788934327827256"><ele>33.0</ele><time>2026-04-22T10:38:40Z</time></trkpt><trkpt lat="35.67715379150151" lon="-5.789255747746656"><ele>33.0</ele><time>2026-04-22T10:38:41Z</time></trkpt><trkpt lat="35.67727907501059" lon="-5.78957623614162"><ele>32.5</ele><time>2026-04-22T10:38:42Z</time></trkpt><trkpt lat="35.677400114442094" lon="-5.789901384060366"><ele>32.0</ele><time>2026-04-22T10:38:43Z</time></trkpt><trkpt lat="35.67751321915272" lon="-5.790231554161629"><ele>32.0</ele><time>2026-04-22T10:38:44Z</time></trkpt><trkpt lat="35.67762104114999" lon="-5.790561978072088"><ele>32.0</ele><time>2026-04-22T10:38:45Z</time></trkpt><trkpt lat="35.67772500434226" lon="-5.79089400079903"><ele>33.0</ele><time>2026-04-22T10:38:46Z</time></trkpt><trkpt lat="35.67782645800737" lon="-5.791230112218802"><ele>34.0</ele><time>2026-04-22T10:38:47Z</time></trkpt><trkpt lat="35.677925557253864" lon="-5.791568857624669"><ele>32.5</ele><time>2026-04-22T10:38:48Z</time></trkpt><trkpt lat="35.67802161007418" lon="-5.791907834541424"><ele>31.0</ele><time>2026-04-22T10:38:49Z</time></trkpt><trkpt lat="35.67811149123459" lon="-5.792246560163413"><ele>31.0</ele><time>2026-04-22T10:38:50Z</time></trkpt><trkpt lat="35.678197969390915" lon="-5.792585029794278"><ele>31.0</ele><time>2026-04-22T10:38:51Z</time></trkpt><trkpt lat="35.67827784510285" lon="-5.792921547386195"><ele>32.5</ele><time>2026-04-22T10:38:52Z</time></trkpt><trkpt lat="35.67835493407931" lon="-5.793258163775001"><ele>34.0</ele><time>2026-04-22T10:38:53Z</time></trkpt><trkpt lat="35.678430868473896" lon="-5.793594325538208"><ele>34.0</ele><time>2026-04-22T10:38:54Z</time></trkpt><trkpt lat="35.67850479967846" lon="-5.793932081220209"><ele>34.0</ele><time>2026-04-22T10:38:55Z</time></trkpt><trkpt lat="35.678573248255894" lon="-5.794273334574337"><ele>34.5</ele><time>2026-04-22T10:38:56Z</time></trkpt><trkpt lat="35.678636394194875" lon="-5.794617255581891"><ele>35.0</ele><time>2026-04-22T10:38:57Z</time></trkpt><trkpt lat="35.678693776305394" lon="-5.794964694659972"><ele>33.0</ele><time>2026-04-22T10:38:58Z</time></trkpt><trkpt lat="35.678744709524466" lon="-5.795316281659654"><ele>31.0</ele><time>2026-04-22T10:38:59Z</time></trkpt><trkpt lat="35.678789549698365" lon="-5.795667549693944"><ele>29.0</ele><time>2026-04-22T10:39:00Z</time></trkpt><trkpt lat="35.678830053249804" lon="-5.7960178685162544"><ele>27.0</ele><time>2026-04-22T10:39:01Z</time></trkpt><trkpt lat="35.678865432732366" lon="-5.79636912361087"><ele>27.0</ele><time>2026-04-22T10:39:02Z</time></trkpt><trkpt lat="35.678896322565244" lon="-5.79671937704055"><ele>27.0</ele><time>2026-04-22T10:39:03Z</time></trkpt><trkpt lat="35.67892241493524" lon="-5.797073286214793"><ele>27.5</ele><time>2026-04-22T10:39:04Z</time></trkpt><trkpt lat="35.67894550016218" lon="-5.797426572491636"><ele>28.0</ele><time>2026-04-22T10:39:05Z</time></trkpt><trkpt lat="35.678961941266195" lon="-5.797781514258287"><ele>30.0</ele><time>2026-04-22T10:39:06Z</time></trkpt><trkpt lat="35.678970446530606" lon="-5.798135013666768"><ele>32.0</ele><time>2026-04-22T10:39:07Z</time></trkpt><trkpt lat="35.678978797748044" lon="-5.79848917405176"><ele>34.0</ele><time>2026-04-22T10:39:08Z</time></trkpt><trkpt lat="35.67898237855729" lon="-5.798842072345757"><ele>36.0</ele><time>2026-04-22T10:39:09Z</time></trkpt><trkpt lat="35.67898202099586" lon="-5.799197407123644"><ele>38.0</ele><time>2026-04-22T10:39:10Z</time></trkpt><trkpt lat="35.67897758782176" lon="-5.799553457482564"><ele>40.0</ele><time>2026-04-22T10:39:11Z</time></trkpt><trkpt lat="35.67896903275748" lon="-5.799908885195122"><ele>43.0</ele><time>2026-04-22T10:39:12Z</time></trkpt><trkpt lat="35.678956989077236" lon="-5.8002636159775145"><ele>46.0</ele><time>2026-04-22T10:39:13Z</time></trkpt><trkpt lat="35.678940535677796" lon="-5.800618138115008"><ele>46.0</ele><time>2026-04-22T10:39:14Z</time></trkpt><trkpt lat="35.6789185803369" lon="-5.800973440777794"><ele>46.0</ele><time>2026-04-22T10:39:15Z</time></trkpt><trkpt lat="35.67888989445892" lon="-5.8013289568840145"><ele>47.5</ele><time>2026-04-22T10:39:16Z</time></trkpt><trkpt lat="35.67885697161156" lon="-5.8016841419558345"><ele>49.0</ele><time>2026-04-22T10:39:17Z</time></trkpt><trkpt lat="35.67881815253583" lon="-5.8020372657931"><ele>49.0</ele><time>2026-04-22T10:39:18Z</time></trkpt><trkpt lat="35.67877319195936" lon="-5.802388051249414"><ele>49.0</ele><time>2026-04-22T10:39:19Z</time></trkpt><trkpt lat="35.678724886347936" lon="-5.8027389202233435"><ele>51.0</ele><time>2026-04-22T10:39:20Z</time></trkpt><trkpt lat="35.678672301455" lon="-5.803086103067947"><ele>53.0</ele><time>2026-04-22T10:39:21Z</time></trkpt><trkpt lat="35.6786157541067" lon="-5.8034336255910635"><ele>53.5</ele><time>2026-04-22T10:39:22Z</time></trkpt><trkpt lat="35.67855479285121" lon="-5.8037823019901955"><ele>54.0</ele><time>2026-04-22T10:39:23Z</time></trkpt><trkpt lat="35.67848763375641" lon="-5.804129619425569"><ele>56.0</ele><time>2026-04-22T10:39:24Z</time></trkpt><trkpt lat="35.67841558819142" lon="-5.804474800163245"><ele>58.0</ele><time>2026-04-22T10:39:25Z</time></trkpt><trkpt lat="35.67833817187134" lon="-5.804818830585758"><ele>58.0</ele><time>2026-04-22T10:39:26Z</time></trkpt><trkpt lat="35.67825477040504" lon="-5.80516101885015"><ele>58.0</ele><time>2026-04-22T10:39:27Z</time></trkpt><trkpt lat="35.67816522420166" lon="-5.805503000995515"><ele>54.5</ele><time>2026-04-22T10:39:28Z</time></trkpt><trkpt lat="35.678071287575676" lon="-5.80584516695864"><ele>51.0</ele><time>2026-04-22T10:39:29Z</time></trkpt><trkpt lat="35.67797493058724" lon="-5.806186810198208"><ele>46.5</ele><time>2026-04-22T10:39:30Z</time></trkpt><trkpt lat="35.677875202836894" lon="-5.806526785649468"><ele>42.0</ele><time>2026-04-22T10:39:31Z</time></trkpt><trkpt lat="35.67777433974118" lon="-5.806862740914222"><ele>40.5</ele><time>2026-04-22T10:39:32Z</time></trkpt><trkpt lat="35.6776679654273" lon="-5.807199721362411"><ele>39.0</ele><time>2026-04-22T10:39:33Z</time></trkpt><trkpt lat="35.67755002370108" lon="-5.807531548575219"><ele>34.0</ele><time>2026-04-22T10:39:34Z</time></trkpt><trkpt lat="35.677433484469226" lon="-5.807864686308472"><ele>29.0</ele><time>2026-04-22T10:39:35Z</time></trkpt><trkpt lat="35.67731904296648" lon="-5.808195909525372"><ele>27.5</ele><time>2026-04-22T10:39:36Z</time></trkpt><trkpt lat="35.67720094684647" lon="-5.808526368142881"><ele>26.0</ele><time>2026-04-22T10:39:37Z</time></trkpt><trkpt lat="35.677075110456855" lon="-5.808852510383312"><ele>26.0</ele><time>2026-04-22T10:39:38Z</time></trkpt><trkpt lat="35.676944744903" lon="-5.809173338343802"><ele>26.0</ele><time>2026-04-22T10:39:39Z</time></trkpt><trkpt lat="35.67680920750388" lon="-5.80948853972486"><ele>27.0</ele><time>2026-04-22T10:39:40Z</time></trkpt><trkpt lat="35.67666914120579" lon="-5.809801950760665"><ele>28.0</ele><time>2026-04-22T10:39:41Z</time></trkpt><trkpt lat="35.676524153940456" lon="-5.810112919680179"><ele>26.0</ele><time>2026-04-22T10:39:42Z</time></trkpt><trkpt lat="35.67637682728237" lon="-5.810417770980573"><ele>24.0</ele><time>2026-04-22T10:39:43Z</time></trkpt><trkpt lat="35.676226546115636" lon="-5.810717821417149"><ele>21.5</ele><time>2026-04-22T10:39:44Z</time></trkpt><trkpt lat="35.67607072491516" lon="-5.811019438950942"><ele>19.0</ele><time>2026-04-22T10:39:45Z</time></trkpt><trkpt lat="35.675909933316056" lon="-5.811316759235141"><ele>19.0</ele><time>2026-04-22T10:39:46Z</time></trkpt><trkpt lat="35.67574509163447" lon="-5.8116115455392094"><ele>19.0</ele><time>2026-04-22T10:39:47Z</time></trkpt><trkpt lat="35.67557539299449" lon="-5.811903071061103"><ele>16.5</ele><time>2026-04-22T10:39:48Z</time></trkpt><trkpt lat="35.6754013894065" lon="-5.81219385976872"><ele>14.0</ele><time>2026-04-22T10:39:49Z</time></trkpt><trkpt lat="35.67522306805692" lon="-5.8124808208632315"><ele>13.0</ele><time>2026-04-22T10:39:50Z</time></trkpt><trkpt lat="35.6750391143684" lon="-5.812761778351639"><ele>12.0</ele><time>2026-04-22T10:39:51Z</time></trkpt><trkpt lat="35.67484967889803" lon="-5.813036555924918"><ele>12.0</ele><time>2026-04-22T10:39:52Z</time></trkpt><trkpt lat="35.67465578685721" lon="-5.813308491335989"><ele>12.0</ele><time>2026-04-22T10:39:53Z</time></trkpt><trkpt lat="35.674458003492276" lon="-5.813578122216031"><ele>11.5</ele><time>2026-04-22T10:39:54Z</time></trkpt><trkpt lat="35.674257090968105" lon="-5.813845699214474"><ele>11.0</ele><time>2026-04-22T10:39:55Z</time></trkpt><trkpt lat="35.67405292795022" lon="-5.814110697351425"><ele>11.0</ele><time>2026-04-22T10:39:56Z</time></trkpt><trkpt lat="35.673846740198954" lon="-5.814372588804285"><ele>11.0</ele><time>2026-04-22T10:39:57.001Z</time></trkpt><trkpt lat="35.6736391565874" lon="-5.814628056393636"><ele>11.5</ele><time>2026-04-22T10:39:58.001Z</time></trkpt><trkpt lat="35.67342846729184" lon="-5.814880799878226"><ele>12.0</ele><time>2026-04-22T10:39:59.001Z</time></trkpt><trkpt lat="35.67321692560985" lon="-5.815130949399714"><ele>13.0</ele><time>2026-04-22T10:40:00.001Z</time></trkpt><trkpt lat="35.67300312367538" lon="-5.81537957806361"><ele>14.0</ele><time>2026-04-22T10:40:01.001Z</time></trkpt><trkpt lat="35.67278665003935" lon="-5.81562534877932"><ele>14.0</ele><time>2026-04-22T10:40:02.001Z</time></trkpt><trkpt lat="35.67256736193181" lon="-5.815865106182271"><ele>14.0</ele><time>2026-04-22T10:40:03.001Z</time></trkpt><trkpt lat="35.67234537880088" lon="-5.816098756725501"><ele>15.0</ele><time>2026-04-22T10:40:04.001Z</time></trkpt><trkpt lat="35.672118918279246" lon="-5.816325375317463"><ele>16.0</ele><time>2026-04-22T10:40:05.001Z</time></trkpt><trkpt lat="35.671889046610424" lon="-5.816547276151193"><ele>16.0</ele><time>2026-04-22T10:40:06Z</time></trkpt><trkpt lat="35.67165536106968" lon="-5.816763864230947"><ele>16.0</ele><time>2026-04-22T10:40:07Z</time></trkpt><trkpt lat="35.671418894163445" lon="-5.8169786567653"><ele>18.0</ele><time>2026-04-22T10:40:08Z</time></trkpt><trkpt lat="35.6711824292084" lon="-5.817192536486136"><ele>20.0</ele><time>2026-04-22T10:40:09Z</time></trkpt><trkpt lat="35.67094563471541" lon="-5.817408195309698"><ele>20.0</ele><time>2026-04-22T10:40:10Z</time></trkpt><trkpt lat="35.67071001306794" lon="-5.8176240823314265"><ele>20.0</ele><time>2026-04-22T10:40:11Z</time></trkpt><trkpt lat="35.67047305194324" lon="-5.817840201218995"><ele>20.0</ele><time>2026-04-22T10:40:12Z</time></trkpt><trkpt lat="35.67023710630696" lon="-5.818054543576825"><ele>20.0</ele><time>2026-04-22T10:40:13Z</time></trkpt><trkpt lat="35.670001173310645" lon="-5.81827075302001"><ele>20.0</ele><time>2026-04-22T10:40:14Z</time></trkpt><trkpt lat="35.669764218003834" lon="-5.8184867943641905"><ele>20.0</ele><time>2026-04-22T10:40:15Z</time></trkpt><trkpt lat="35.66953022572468" lon="-5.818701389310161"><ele>18.0</ele><time>2026-04-22T10:40:16Z</time></trkpt><trkpt lat="35.66929163155669" lon="-5.818919166481496"><ele>16.0</ele><time>2026-04-22T10:40:17Z</time></trkpt><trkpt lat="35.669052736509315" lon="-5.819138088975048"><ele>18.0</ele><time>2026-04-22T10:40:18Z</time></trkpt><trkpt lat="35.668814541602686" lon="-5.819358305208728"><ele>20.0</ele><time>2026-04-22T10:40:19Z</time></trkpt><trkpt lat="35.66857750261801" lon="-5.81957930238261"><ele>20.0</ele><time>2026-04-22T10:40:20Z</time></trkpt><trkpt lat="35.66834272513407" lon="-5.819804117111471"><ele>20.0</ele><time>2026-04-22T10:40:21Z</time></trkpt><trkpt lat="35.668112729992046" lon="-5.820033215770835"><ele>21.0</ele><time>2026-04-22T10:40:22Z</time></trkpt><trkpt lat="35.66788576522176" lon="-5.820267589148915"><ele>22.0</ele><time>2026-04-22T10:40:23Z</time></trkpt><trkpt lat="35.667662987093976" lon="-5.820505387649531"><ele>21.0</ele><time>2026-04-22T10:40:24Z</time></trkpt><trkpt lat="35.667444734625334" lon="-5.820747194136793"><ele>20.0</ele><time>2026-04-22T10:40:25Z</time></trkpt><trkpt lat="35.66723357731086" lon="-5.820997295932381"><ele>20.0</ele><time>2026-04-22T10:40:26Z</time></trkpt><trkpt lat="35.667026668390136" lon="-5.821251364955865"><ele>20.0</ele><time>2026-04-22T10:40:27Z</time></trkpt><trkpt lat="35.666823085331686" lon="-5.821511268259977"><ele>20.0</ele><time>2026-04-22T10:40:28Z</time></trkpt><trkpt lat="35.666624684287285" lon="-5.8217770064040515"><ele>20.0</ele><time>2026-04-22T10:40:29Z</time></trkpt><trkpt lat="35.66642910897593" lon="-5.822046388812101"><ele>20.0</ele><time>2026-04-22T10:40:30Z</time></trkpt><trkpt lat="35.666237494183214" lon="-5.822320110895445"><ele>20.0</ele><time>2026-04-22T10:40:31Z</time></trkpt><trkpt lat="35.66604945602491" lon="-5.822598310725378"><ele>20.0</ele><time>2026-04-22T10:40:32Z</time></trkpt><trkpt lat="35.66586719523722" lon="-5.822882840036983"><ele>20.0</ele><time>2026-04-22T10:40:33Z</time></trkpt><trkpt lat="35.665689151834314" lon="-5.823170811473337"><ele>20.0</ele><time>2026-04-22T10:40:34Z</time></trkpt><trkpt lat="35.66551440763978" lon="-5.823462956358771"><ele>20.0</ele><time>2026-04-22T10:40:35Z</time></trkpt><trkpt lat="35.66534400959819" lon="-5.823757757880976"><ele>18.5</ele><time>2026-04-22T10:40:36Z</time></trkpt><trkpt lat="35.66517508861579" lon="-5.824054151307311"><ele>17.0</ele><time>2026-04-22T10:40:37Z</time></trkpt><trkpt lat="35.665007340847936" lon="-5.8243524348391364"><ele>17.0</ele><time>2026-04-22T10:40:38Z</time></trkpt><trkpt lat="35.66483985755082" lon="-5.82465067114889"><ele>17.0</ele><time>2026-04-22T10:40:39Z</time></trkpt><trkpt lat="35.66467180158587" lon="-5.824947675446334"><ele>17.0</ele><time>2026-04-22T10:40:40Z</time></trkpt><trkpt lat="35.664503412144015" lon="-5.825246399990865"><ele>17.0</ele><time>2026-04-22T10:40:41Z</time></trkpt><trkpt lat="35.66433372373343" lon="-5.825544733326626"><ele>15.0</ele><time>2026-04-22T10:40:42Z</time></trkpt><trkpt lat="35.66416135466722" lon="-5.82584055876972"><ele>13.0</ele><time>2026-04-22T10:40:43Z</time></trkpt><trkpt lat="35.663983223705394" lon="-5.82613327262787"><ele>13.0</ele><time>2026-04-22T10:40:44Z</time></trkpt><trkpt lat="35.663802494345084" lon="-5.8264206413165995"><ele>13.0</ele><time>2026-04-22T10:40:45Z</time></trkpt><trkpt lat="35.66361684405133" lon="-5.826701815910319"><ele>12.5</ele><time>2026-04-22T10:40:46Z</time></trkpt><trkpt lat="35.663426875537574" lon="-5.826979107555412"><ele>12.0</ele><time>2026-04-22T10:40:47Z</time></trkpt><trkpt lat="35.66323193948922" lon="-5.827250873867717"><ele>12.0</ele><time>2026-04-22T10:40:48Z</time></trkpt><trkpt lat="35.663034379750854" lon="-5.8275201340049145"><ele>12.0</ele><time>2026-04-22T10:40:49Z</time></trkpt><trkpt lat="35.66283447502649" lon="-5.827786843069141"><ele>14.0</ele><time>2026-04-22T10:40:50Z</time></trkpt><trkpt lat="35.662635389466374" lon="-5.828043368835439"><ele>16.0</ele><time>2026-04-22T10:40:51Z</time></trkpt><trkpt lat="35.6624437514966" lon="-5.828282120476045"><ele>19.5</ele><time>2026-04-22T10:40:52Z</time></trkpt><trkpt lat="35.66225287822397" lon="-5.828511452410758"><ele>23.0</ele><time>2026-04-22T10:40:53Z</time></trkpt><trkpt lat="35.6620612319399" lon="-5.8287344332038975"><ele>20.0</ele><time>2026-04-22T10:40:54Z</time></trkpt><trkpt lat="35.66186394336661" lon="-5.828960118102273"><ele>17.0</ele><time>2026-04-22T10:40:55Z</time></trkpt><trkpt lat="35.66166036316625" lon="-5.829187742696716"><ele>18.5</ele><time>2026-04-22T10:40:56Z</time></trkpt><trkpt lat="35.661448503662214" lon="-5.829417134453009"><ele>20.0</ele><time>2026-04-22T10:40:57Z</time></trkpt><trkpt lat="35.661231923515544" lon="-5.829651659592563"><ele>16.5</ele><time>2026-04-22T10:40:58Z</time></trkpt><trkpt lat="35.661011099728675" lon="-5.829888252761392"><ele>13.0</ele><time>2026-04-22T10:40:59Z</time></trkpt><trkpt lat="35.66079211652922" lon="-5.830125403490552"><ele>14.5</ele><time>2026-04-22T10:41:00Z</time></trkpt><trkpt lat="35.6605761965431" lon="-5.83036507044769"><ele>16.0</ele><time>2026-04-22T10:41:01Z</time></trkpt><trkpt lat="35.66036117440315" lon="-5.830606217854605"><ele>13.5</ele><time>2026-04-22T10:41:02Z</time></trkpt><trkpt lat="35.66014592598552" lon="-5.830847698245019"><ele>11.0</ele><time>2026-04-22T10:41:03Z</time></trkpt><trkpt lat="35.65993059789722" lon="-5.8310857846057145"><ele>11.0</ele><time>2026-04-22T10:41:04Z</time></trkpt><trkpt lat="35.65972512894632" lon="-5.831305810405636"><ele>11.0</ele><time>2026-04-22T10:41:05Z</time></trkpt><trkpt lat="35.65952526883929" lon="-5.831518593241353"><ele>10.0</ele><time>2026-04-22T10:41:06Z</time></trkpt><trkpt lat="35.659323819126904" lon="-5.8317347720872155"><ele>9.0</ele><time>2026-04-22T10:41:07Z</time></trkpt><trkpt lat="35.659116049143826" lon="-5.831959401078559"><ele>9.0</ele><time>2026-04-22T10:41:08Z</time></trkpt><trkpt lat="35.65890638803228" lon="-5.8321898243022"><ele>9.0</ele><time>2026-04-22T10:41:09Z</time></trkpt><trkpt lat="35.65869739719163" lon="-5.832424890125478"><ele>11.5</ele><time>2026-04-22T10:41:10Z</time></trkpt><trkpt lat="35.658490365086756" lon="-5.832663840256531"><ele>14.0</ele><time>2026-04-22T10:41:11Z</time></trkpt><trkpt lat="35.65828671467057" lon="-5.832908466508528"><ele>14.0</ele><time>2026-04-22T10:41:12Z</time></trkpt><trkpt lat="35.658088327442385" lon="-5.8331613213899125"><ele>14.0</ele><time>2026-04-22T10:41:13Z</time></trkpt><trkpt lat="35.65789468967751" lon="-5.833421354065675"><ele>14.5</ele><time>2026-04-22T10:41:14Z</time></trkpt><trkpt lat="35.65770442623511" lon="-5.833687791399375"><ele>15.0</ele><time>2026-04-22T10:41:15Z</time></trkpt><trkpt lat="35.657517653355946" lon="-5.833959459771311"><ele>15.0</ele><time>2026-04-22T10:41:16Z</time></trkpt><trkpt lat="35.65733393977584" lon="-5.834232474909239"><ele>15.0</ele><time>2026-04-22T10:41:17Z</time></trkpt><trkpt lat="35.65715199067411" lon="-5.834510275180956"><ele>15.5</ele><time>2026-04-22T10:41:18Z</time></trkpt><trkpt lat="35.65697166786769" lon="-5.834789900264364"><ele>16.0</ele><time>2026-04-22T10:41:19Z</time></trkpt><trkpt lat="35.65679530599327" lon="-5.83507152740096"><ele>15.0</ele><time>2026-04-22T10:41:20Z</time></trkpt><trkpt lat="35.6566215905218" lon="-5.835358030053991"><ele>14.0</ele><time>2026-04-22T10:41:21Z</time></trkpt><trkpt lat="35.656452030903566" lon="-5.835647703170962"><ele>14.0</ele><time>2026-04-22T10:41:22Z</time></trkpt><trkpt lat="35.656283791627764" lon="-5.835941116856835"><ele>14.0</ele><time>2026-04-22T10:41:23Z</time></trkpt><trkpt lat="35.65611766529352" lon="-5.836235752917743"><ele>13.0</ele><time>2026-04-22T10:41:24Z</time></trkpt><trkpt lat="35.65595576215766" lon="-5.836534057128481"><ele>12.0</ele><time>2026-04-22T10:41:25Z</time></trkpt><trkpt lat="35.6557990215207" lon="-5.836836003671334"><ele>11.0</ele><time>2026-04-22T10:41:26Z</time></trkpt><trkpt lat="35.655645285285" lon="-5.837142029952099"><ele>10.0</ele><time>2026-04-22T10:41:27.001Z</time></trkpt><trkpt lat="35.65549740702513" lon="-5.837450133012285"><ele>10.5</ele><time>2026-04-22T10:41:28.001Z</time></trkpt><trkpt lat="35.655354079992044" lon="-5.837761954249818"><ele>11.0</ele><time>2026-04-22T10:41:29.001Z</time></trkpt><trkpt lat="35.65521477317571" lon="-5.838075575470855"><ele>11.0</ele><time>2026-04-22T10:41:30.001Z</time></trkpt><trkpt lat="35.6550801925693" lon="-5.838391278414931"><ele>11.0</ele><time>2026-04-22T10:41:31.001Z</time></trkpt><trkpt lat="35.65494895216712" lon="-5.83870972462342"><ele>11.5</ele><time>2026-04-22T10:41:32.001Z</time></trkpt><trkpt lat="35.6548206880971" lon="-5.83902954518369"><ele>12.0</ele><time>2026-04-22T10:41:33.001Z</time></trkpt><trkpt lat="35.65469707567506" lon="-5.8393525592840465"><ele>12.5</ele><time>2026-04-22T10:41:34.001Z</time></trkpt><trkpt lat="35.65457804417038" lon="-5.839679416555269"><ele>13.0</ele><time>2026-04-22T10:41:35.001Z</time></trkpt><trkpt lat="35.654464018225255" lon="-5.840007562408674"><ele>13.0</ele><time>2026-04-22T10:41:36.001Z</time></trkpt><trkpt lat="35.65435600607599" lon="-5.840336258679464"><ele>13.0</ele><time>2026-04-22T10:41:37.001Z</time></trkpt><trkpt lat="35.65425201382292" lon="-5.840669067795706"><ele>12.0</ele><time>2026-04-22T10:41:38.001Z</time></trkpt><trkpt lat="35.65415219033015" lon="-5.841003704196365"><ele>11.0</ele><time>2026-04-22T10:41:39.001Z</time></trkpt><trkpt lat="35.6540555391633" lon="-5.841342379215261"><ele>11.0</ele><time>2026-04-22T10:41:40.001Z</time></trkpt><trkpt lat="35.65396443547674" lon="-5.841681809338952"><ele>11.0</ele><time>2026-04-22T10:41:41.001Z</time></trkpt><trkpt lat="35.65387781567444" lon="-5.842022609807969"><ele>11.5</ele><time>2026-04-22T10:41:42.001Z</time></trkpt><trkpt lat="35.6537959812081" lon="-5.8423645751356545"><ele>12.0</ele><time>2026-04-22T10:41:43.001Z</time></trkpt><trkpt lat="35.653716421117664" lon="-5.842708134886595"><ele>13.0</ele><time>2026-04-22T10:41:44.001Z</time></trkpt><trkpt lat="35.653642511718125" lon="-5.8430538644927985"><ele>14.0</ele><time>2026-04-22T10:41:45.001Z</time></trkpt><trkpt lat="35.65357351701636" lon="-5.843401079389181"><ele>12.0</ele><time>2026-04-22T10:41:46.001Z</time></trkpt><trkpt lat="35.65350559379196" lon="-5.8437494556420155"><ele>10.0</ele><time>2026-04-22T10:41:47.001Z</time></trkpt><trkpt lat="35.653442083273674" lon="-5.844099484913234"><ele>10.0</ele><time>2026-04-22T10:41:48.001Z</time></trkpt><trkpt lat="35.65338732568652" lon="-5.844449896999093"><ele>10.0</ele><time>2026-04-22T10:41:49.001Z</time></trkpt><trkpt lat="35.653338854516115" lon="-5.844802771385329"><ele>11.0</ele><time>2026-04-22T10:41:50.001Z</time></trkpt><trkpt lat="35.65329301463722" lon="-5.8451553391475155"><ele>12.0</ele><time>2026-04-22T10:41:51.001Z</time></trkpt><trkpt lat="35.653250364696355" lon="-5.845509286012684"><ele>12.0</ele><time>2026-04-22T10:41:52.001Z</time></trkpt><trkpt lat="35.653215374100235" lon="-5.84586502447306"><ele>12.0</ele><time>2026-04-22T10:41:53.001Z</time></trkpt><trkpt lat="35.65318523438301" lon="-5.846221368754824"><ele>11.0</ele><time>2026-04-22T10:41:54.001Z</time></trkpt><trkpt lat="35.65315612675223" lon="-5.84657811623462"><ele>10.0</ele><time>2026-04-22T10:41:55.001Z</time></trkpt><trkpt lat="35.653129159990094" lon="-5.8469355067280535"><ele>9.5</ele><time>2026-04-22T10:41:56.001Z</time></trkpt><trkpt lat="35.65310450779764" lon="-5.847292207213233"><ele>9.0</ele><time>2026-04-22T10:41:57.001Z</time></trkpt><trkpt lat="35.65308374239243" lon="-5.847649146439281"><ele>8.0</ele><time>2026-04-22T10:41:58.001Z</time></trkpt><trkpt lat="35.65306129975168" lon="-5.848005934909933"><ele>7.0</ele><time>2026-04-22T10:41:59.002Z</time></trkpt><trkpt lat="35.6530352876065" lon="-5.8483619562242515"><ele>7.0</ele><time>2026-04-22T10:42:00.002Z</time></trkpt><trkpt lat="35.65300917320711" lon="-5.848717585190372"><ele>7.0</ele><time>2026-04-22T10:42:01.002Z</time></trkpt><trkpt lat="35.65298365860774" lon="-5.849072235009841"><ele>5.5</ele><time>2026-04-22T10:42:02.002Z</time></trkpt><trkpt lat="35.65296162460186" lon="-5.849426581269239"><ele>4.0</ele><time>2026-04-22T10:42:03.002Z</time></trkpt><trkpt lat="35.652938545551834" lon="-5.849780703812231"><ele>4.5</ele><time>2026-04-22T10:42:04.002Z</time></trkpt><trkpt lat="35.65291640805208" lon="-5.850135623932687"><ele>5.0</ele><time>2026-04-22T10:42:05.002Z</time></trkpt><trkpt lat="35.65289341849711" lon="-5.850488861210426"><ele>5.0</ele><time>2026-04-22T10:42:06.002Z</time></trkpt><trkpt lat="35.65287076215906" lon="-5.850841159223688"><ele>5.0</ele><time>2026-04-22T10:42:07.002Z</time></trkpt><trkpt lat="35.65285299560431" lon="-5.85119558117182"><ele>5.0</ele><time>2026-04-22T10:42:08.002Z</time></trkpt><trkpt lat="35.65282944314224" lon="-5.851550993276068"><ele>5.0</ele><time>2026-04-22T10:42:09.002Z</time></trkpt><trkpt lat="35.65280571809047" lon="-5.851904704457717"><ele>4.5</ele><time>2026-04-22T10:42:10.002Z</time></trkpt><trkpt lat="35.65277913342049" lon="-5.8522580658805765"><ele>4.0</ele><time>2026-04-22T10:42:11.002Z</time></trkpt><trkpt lat="35.652751346253915" lon="-5.85261249902246"><ele>3.5</ele><time>2026-04-22T10:42:12.002Z</time></trkpt><trkpt lat="35.65272050098405" lon="-5.85296526233762"><ele>3.0</ele><time>2026-04-22T10:42:13.002Z</time></trkpt><trkpt lat="35.65269411449851" lon="-5.853319811116704"><ele>4.0</ele><time>2026-04-22T10:42:14.002Z</time></trkpt><trkpt lat="35.6526724412572" lon="-5.853675264064472"><ele>5.0</ele><time>2026-04-22T10:42:15.002Z</time></trkpt><trkpt lat="35.65264973943845" lon="-5.854030139502718"><ele>5.5</ele><time>2026-04-22T10:42:16.002Z</time></trkpt><trkpt lat="35.65262469502404" lon="-5.854386614333455"><ele>6.0</ele><time>2026-04-22T10:42:17.002Z</time></trkpt><trkpt lat="35.65260058258829" lon="-5.854741326736743"><ele>6.0</ele><time>2026-04-22T10:42:18.002Z</time></trkpt><trkpt lat="35.65257454205037" lon="-5.855096354338618"><ele>6.0</ele><time>2026-04-22T10:42:19.002Z</time></trkpt><trkpt lat="35.65255169846798" lon="-5.855454130811"><ele>6.0</ele><time>2026-04-22T10:42:20.002Z</time></trkpt><trkpt lat="35.65252539559013" lon="-5.855811038120474"><ele>6.0</ele><time>2026-04-22T10:42:21.002Z</time></trkpt><trkpt lat="35.65249921199297" lon="-5.85616646725268"><ele>6.0</ele><time>2026-04-22T10:42:22.002Z</time></trkpt><trkpt lat="35.65248047068329" lon="-5.856521953718024"><ele>6.0</ele><time>2026-04-22T10:42:23.002Z</time></trkpt><trkpt lat="35.65246100389029" lon="-5.85687357273273"><ele>5.0</ele><time>2026-04-22T10:42:24.002Z</time></trkpt><trkpt lat="35.652439240948375" lon="-5.857225592677952"><ele>4.0</ele><time>2026-04-22T10:42:25.002Z</time></trkpt><trkpt lat="35.65241916692634" lon="-5.857577562118752"><ele>4.5</ele><time>2026-04-22T10:42:26.002Z</time></trkpt><trkpt lat="35.65240162783339" lon="-5.85793114004858"><ele>5.0</ele><time>2026-04-22T10:42:27.002Z</time></trkpt><trkpt lat="35.65238310267732" lon="-5.858284238388444"><ele>5.5</ele><time>2026-04-22T10:42:28.002Z</time></trkpt><trkpt lat="35.652365261983384" lon="-5.858638493156778"><ele>6.0</ele><time>2026-04-22T10:42:29.002Z</time></trkpt><trkpt lat="35.65234246151739" lon="-5.858991584128922"><ele>6.5</ele><time>2026-04-22T10:42:30.002Z</time></trkpt><trkpt lat="35.652324143468604" lon="-5.8593476396464546"><ele>7.0</ele><time>2026-04-22T10:42:31.002Z</time></trkpt><trkpt lat="35.65230268908314" lon="-5.8597028344308955"><ele>7.0</ele><time>2026-04-22T10:42:32.002Z</time></trkpt><trkpt lat="35.652283309802264" lon="-5.860058728458112"><ele>7.0</ele><time>2026-04-22T10:42:33.002Z</time></trkpt><trkpt lat="35.652266201437854" lon="-5.860417480014833"><ele>6.0</ele><time>2026-04-22T10:42:34.001Z</time></trkpt><trkpt lat="35.65224244158428" lon="-5.8607739759424105"><ele>5.0</ele><time>2026-04-22T10:42:35.001Z</time></trkpt><trkpt lat="35.652220361558854" lon="-5.861130694191198"><ele>5.0</ele><time>2026-04-22T10:42:36.001Z</time></trkpt><trkpt lat="35.65219795900243" lon="-5.861486764428473"><ele>5.0</ele><time>2026-04-22T10:42:37.001Z</time></trkpt><trkpt lat="35.65218133237882" lon="-5.861843789530859"><ele>5.0</ele><time>2026-04-22T10:42:38.001Z</time></trkpt><trkpt lat="35.652166005768564" lon="-5.8621987902907895"><ele>5.0</ele><time>2026-04-22T10:42:39.001Z</time></trkpt><trkpt lat="35.652156761569124" lon="-5.862554678780854"><ele>4.0</ele><time>2026-04-22T10:42:40.001Z</time></trkpt><trkpt lat="35.65215329284859" lon="-5.862909586432933"><ele>3.0</ele><time>2026-04-22T10:42:41.001Z</time></trkpt><trkpt lat="35.6521561855398" lon="-5.863264421919367"><ele>3.0</ele><time>2026-04-22T10:42:42.001Z</time></trkpt><trkpt lat="35.65216597642332" lon="-5.863618405698544"><ele>3.0</ele><time>2026-04-22T10:42:43.001Z</time></trkpt><trkpt lat="35.65217859376645" lon="-5.863970861777195"><ele>4.0</ele><time>2026-04-22T10:42:44.001Z</time></trkpt><trkpt lat="35.65219908431869" lon="-5.8643244970020385"><ele>5.0</ele><time>2026-04-22T10:42:45.001Z</time></trkpt><trkpt lat="35.6522241227767" lon="-5.864678550834869"><ele>5.0</ele><time>2026-04-22T10:42:46.001Z</time></trkpt><trkpt lat="35.6522557519471" lon="-5.865032815532929"><ele>5.0</ele><time>2026-04-22T10:42:47.001Z</time></trkpt><trkpt lat="35.652289804827895" lon="-5.865387773950119"><ele>5.5</ele><time>2026-04-22T10:42:48.001Z</time></trkpt><trkpt lat="35.65233472505741" lon="-5.86574160336046"><ele>6.0</ele><time>2026-04-22T10:42:49.001Z</time></trkpt><trkpt lat="35.65238695103523" lon="-5.866093147957021"><ele>6.0</ele><time>2026-04-22T10:42:50.001Z</time></trkpt><trkpt lat="35.652440654181774" lon="-5.8664436812689305"><ele>6.0</ele><time>2026-04-22T10:42:51.001Z</time></trkpt><trkpt lat="35.65249849571043" lon="-5.866793966175475"><ele>5.0</ele><time>2026-04-22T10:42:52.001Z</time></trkpt><trkpt lat="35.652560350603665" lon="-5.867141664734342"><ele>4.0</ele><time>2026-04-22T10:42:53.001Z</time></trkpt><trkpt lat="35.6526348598158" lon="-5.867484316829027"><ele>4.5</ele><time>2026-04-22T10:42:54.001Z</time></trkpt><trkpt lat="35.652710046694025" lon="-5.867828253183935"><ele>5.0</ele><time>2026-04-22T10:42:55.001Z</time></trkpt><trkpt lat="35.65279372320754" lon="-5.868168923236365"><ele>5.5</ele><time>2026-04-22T10:42:56.001Z</time></trkpt><trkpt lat="35.65288264706363" lon="-5.868508054879973"><ele>6.0</ele><time>2026-04-22T10:42:57.001Z</time></trkpt><trkpt lat="35.6529774758416" lon="-5.868846245965891"><ele>6.0</ele><time>2026-04-22T10:42:58.001Z</time></trkpt><trkpt lat="35.65307939644095" lon="-5.86918272169985"><ele>6.0</ele><time>2026-04-22T10:42:59.001Z</time></trkpt><trkpt lat="35.6531869036271" lon="-5.869514493332397"><ele>5.0</ele><time>2026-04-22T10:43:00.001Z</time></trkpt><trkpt lat="35.6532993084909" lon="-5.869842649502553"><ele>4.0</ele><time>2026-04-22T10:43:01.001Z</time></trkpt><trkpt lat="35.65341448575835" lon="-5.8701702956675375"><ele>4.0</ele><time>2026-04-22T10:43:02.001Z</time></trkpt><trkpt lat="35.653532067255895" lon="-5.870495347858663"><ele>4.0</ele><time>2026-04-22T10:43:03.001Z</time></trkpt><trkpt lat="35.653648396528034" lon="-5.870821495546618"><ele>4.5</ele><time>2026-04-22T10:43:04.001Z</time></trkpt><trkpt lat="35.6537862395491" lon="-5.871134995476902"><ele>5.0</ele><time>2026-04-22T10:43:05.001Z</time></trkpt><trkpt lat="35.65392747131596" lon="-5.871444941457595"><ele>5.0</ele><time>2026-04-22T10:43:06.001Z</time></trkpt><trkpt lat="35.65407027426311" lon="-5.871754843726692"><ele>5.0</ele><time>2026-04-22T10:43:07.001Z</time></trkpt><trkpt lat="35.654217289348246" lon="-5.8720622471778405"><ele>5.0</ele><time>2026-04-22T10:43:08.001Z</time></trkpt><trkpt lat="35.65437181897824" lon="-5.872365056389226"><ele>5.0</ele><time>2026-04-22T10:43:09.001Z</time></trkpt><trkpt lat="35.65453021586337" lon="-5.872665614718687"><ele>5.0</ele><time>2026-04-22T10:43:10.001Z</time></trkpt><trkpt lat="35.65469318327321" lon="-5.872961131849309"><ele>5.0</ele><time>2026-04-22T10:43:11.001Z</time></trkpt><trkpt lat="35.65486155414537" lon="-5.87325204835138"><ele>5.0</ele><time>2026-04-22T10:43:12.001Z</time></trkpt><trkpt lat="35.655035809135256" lon="-5.873538201400161"><ele>5.0</ele><time>2026-04-22T10:43:13.001Z</time></trkpt><trkpt lat="35.6552158110345" lon="-5.873820397178689"><ele>5.5</ele><time>2026-04-22T10:43:14.001Z</time></trkpt><trkpt lat="35.655399233299306" lon="-5.874097840971873"><ele>6.0</ele><time>2026-04-22T10:43:15.001Z</time></trkpt><trkpt lat="35.65558616326735" lon="-5.8743724647559645"><ele>6.0</ele><time>2026-04-22T10:43:16.001Z</time></trkpt><trkpt lat="35.65577574606141" lon="-5.87464267167054"><ele>6.0</ele><time>2026-04-22T10:43:17.001Z</time></trkpt><trkpt lat="35.65596891194785" lon="-5.874907705986885"><ele>6.0</ele><time>2026-04-22T10:43:18.001Z</time></trkpt><trkpt lat="35.656167744421666" lon="-5.875167600958682"><ele>6.0</ele><time>2026-04-22T10:43:19.001Z</time></trkpt><trkpt lat="35.656370204118794" lon="-5.875423006389073"><ele>6.0</ele><time>2026-04-22T10:43:20.001Z</time></trkpt><trkpt lat="35.65657335041907" lon="-5.875677925260796"><ele>6.0</ele><time>2026-04-22T10:43:21.001Z</time></trkpt><trkpt lat="35.65677819257054" lon="-5.8759328702710025"><ele>6.5</ele><time>2026-04-22T10:43:22.001Z</time></trkpt><trkpt lat="35.65698190795325" lon="-5.876188052962309"><ele>7.0</ele><time>2026-04-22T10:43:23.001Z</time></trkpt><trkpt lat="35.65718637485924" lon="-5.876443536217971"><ele>7.0</ele><time>2026-04-22T10:43:24.001Z</time></trkpt><trkpt lat="35.65739061487233" lon="-5.876698999830429"><ele>7.0</ele><time>2026-04-22T10:43:25.001Z</time></trkpt><trkpt lat="35.65759616440613" lon="-5.8769540798058735"><ele>7.0</ele><time>2026-04-22T10:43:26.001Z</time></trkpt><trkpt lat="35.657802161966785" lon="-5.877210027265557"><ele>7.0</ele><time>2026-04-22T10:43:27.001Z</time></trkpt><trkpt lat="35.65800632833675" lon="-5.877466881882717"><ele>6.5</ele><time>2026-04-22T10:43:28.001Z</time></trkpt><trkpt lat="35.658211548999816" lon="-5.87772594362734"><ele>6.0</ele><time>2026-04-22T10:43:29.001Z</time></trkpt><trkpt lat="35.65841495921902" lon="-5.877980957445134"><ele>6.0</ele><time>2026-04-22T10:43:30.001Z</time></trkpt><trkpt lat="35.65861754613108" lon="-5.878234894069318"><ele>6.0</ele><time>2026-04-22T10:43:31.001Z</time></trkpt><trkpt lat="35.658819219964855" lon="-5.878490352071123"><ele>6.5</ele><time>2026-04-22T10:43:32.001Z</time></trkpt><trkpt lat="35.65902050829142" lon="-5.878744697553838"><ele>7.0</ele><time>2026-04-22T10:43:33.001Z</time></trkpt><trkpt lat="35.65922099884481" lon="-5.878997601898445"><ele>7.0</ele><time>2026-04-22T10:43:34.001Z</time></trkpt><trkpt lat="35.65942229656403" lon="-5.879249467042122"><ele>7.0</ele><time>2026-04-22T10:43:35.001Z</time></trkpt><trkpt lat="35.65962378419764" lon="-5.879501567629584"><ele>7.5</ele><time>2026-04-22T10:43:36.001Z</time></trkpt><trkpt lat="35.65982448194576" lon="-5.879756436893793"><ele>8.0</ele><time>2026-04-22T10:43:37.001Z</time></trkpt><trkpt lat="35.6600218127329" lon="-5.88001516645668"><ele>8.5</ele><time>2026-04-22T10:43:38.001Z</time></trkpt><trkpt lat="35.66021567232246" lon="-5.880277421944968"><ele>9.0</ele><time>2026-04-22T10:43:39.001Z</time></trkpt><trkpt lat="35.66040498696387" lon="-5.880542375183684"><ele>10.5</ele><time>2026-04-22T10:43:40.001Z</time></trkpt><trkpt lat="35.66058896026627" lon="-5.880814200214977"><ele>12.0</ele><time>2026-04-22T10:43:41.001Z</time></trkpt><trkpt lat="35.660768860352576" lon="-5.881089742835221"><ele>12.0</ele><time>2026-04-22T10:43:42.001Z</time></trkpt><trkpt lat="35.660944128562505" lon="-5.881371749196931"><ele>12.0</ele><time>2026-04-22T10:43:43.001Z</time></trkpt><trkpt lat="35.66111313679108" lon="-5.88165720267255"><ele>13.0</ele><time>2026-04-22T10:43:44.001Z</time></trkpt><trkpt lat="35.66127808673906" lon="-5.881947367470418"><ele>14.0</ele><time>2026-04-22T10:43:45.001Z</time></trkpt><trkpt lat="35.66143899317442" lon="-5.882242324072667"><ele>14.0</ele><time>2026-04-22T10:43:46.001Z</time></trkpt><trkpt lat="35.66159448620803" lon="-5.882540421893724"><ele>14.0</ele><time>2026-04-22T10:43:47.001Z</time></trkpt><trkpt lat="35.661745198953355" lon="-5.882843258956091"><ele>14.0</ele><time>2026-04-22T10:43:48.001Z</time></trkpt><trkpt lat="35.66188615591282" lon="-5.883151932329058"><ele>14.0</ele><time>2026-04-22T10:43:49.001Z</time></trkpt><trkpt lat="35.66201993874879" lon="-5.88346669365048"><ele>17.0</ele><time>2026-04-22T10:43:50.001Z</time></trkpt><trkpt lat="35.66214920195702" lon="-5.883784710450011"><ele>20.0</ele><time>2026-04-22T10:43:51.001Z</time></trkpt><trkpt lat="35.66227531315691" lon="-5.884104095956844"><ele>20.5</ele><time>2026-04-22T10:43:52.001Z</time></trkpt><trkpt lat="35.662397862724994" lon="-5.884424904596633"><ele>21.0</ele><time>2026-04-22T10:43:53.001Z</time></trkpt><trkpt lat="35.66251549952328" lon="-5.884748627162643"><ele>21.0</ele><time>2026-04-22T10:43:54.001Z</time></trkpt><trkpt lat="35.66262927618739" lon="-5.885075095562805"><ele>21.0</ele><time>2026-04-22T10:43:55.001Z</time></trkpt><trkpt lat="35.66273905307528" lon="-5.885403392552135"><ele>24.0</ele><time>2026-04-22T10:43:56.001Z</time></trkpt><trkpt lat="35.662847587041135" lon="-5.885732995898702"><ele>27.0</ele><time>2026-04-22T10:43:57.001Z</time></trkpt><trkpt lat="35.66295486084928" lon="-5.886057968925884"><ele>27.0</ele><time>2026-04-22T10:43:58.001Z</time></trkpt><trkpt lat="35.66306246887554" lon="-5.8863899013199905"><ele>27.0</ele><time>2026-04-22T10:43:59.001Z</time></trkpt><trkpt lat="35.663173007438644" lon="-5.886721549053967"><ele>26.0</ele><time>2026-04-22T10:44:00.001Z</time></trkpt><trkpt lat="35.663282514430286" lon="-5.887053632761907"><ele>25.0</ele><time>2026-04-22T10:44:01.001Z</time></trkpt><trkpt lat="35.66338998241939" lon="-5.887386029164061"><ele>24.0</ele><time>2026-04-22T10:44:02.001Z</time></trkpt><trkpt lat="35.6634953798802" lon="-5.887719453450002"><ele>23.0</ele><time>2026-04-22T10:44:03.001Z</time></trkpt><trkpt lat="35.66359959918361" lon="-5.888052845428237"><ele>23.5</ele><time>2026-04-22T10:44:04.001Z</time></trkpt><trkpt lat="35.66370444422467" lon="-5.888386406172905"><ele>24.0</ele><time>2026-04-22T10:44:05.001Z</time></trkpt><trkpt lat="35.66380936246785" lon="-5.888721230869826"><ele>24.0</ele><time>2026-04-22T10:44:06.001Z</time></trkpt><trkpt lat="35.66391383458806" lon="-5.889056608036673"><ele>24.0</ele><time>2026-04-22T10:44:07.001Z</time></trkpt><trkpt lat="35.66401658874434" lon="-5.889389915285169"><ele>24.0</ele><time>2026-04-22T10:44:08.001Z</time></trkpt><trkpt lat="35.66412056739641" lon="-5.889725259605356"><ele>24.0</ele><time>2026-04-22T10:44:09.002Z</time></trkpt><trkpt lat="35.66422666264704" lon="-5.890059925118839"><ele>24.0</ele><time>2026-04-22T10:44:10.002Z</time></trkpt><trkpt lat="35.664333479178254" lon="-5.890395380372103"><ele>24.0</ele><time>2026-04-22T10:44:11.002Z</time></trkpt><trkpt lat="35.66443859608968" lon="-5.890729901800077"><ele>25.5</ele><time>2026-04-22T10:44:12.002Z</time></trkpt><trkpt lat="35.664543787287485" lon="-5.891063685734798"><ele>27.0</ele><time>2026-04-22T10:44:13.002Z</time></trkpt><trkpt lat="35.664648045703785" lon="-5.891397146975609"><ele>27.0</ele><time>2026-04-22T10:44:14.002Z</time></trkpt><trkpt lat="35.66475373899282" lon="-5.89173226528177"><ele>27.0</ele><time>2026-04-22T10:44:15.002Z</time></trkpt><trkpt lat="35.66485815419004" lon="-5.8920668061372385"><ele>26.5</ele><time>2026-04-22T10:44:16.002Z</time></trkpt><trkpt lat="35.66496233786343" lon="-5.892399900320046"><ele>26.0</ele><time>2026-04-22T10:44:17.002Z</time></trkpt><trkpt lat="35.665066718987774" lon="-5.892733931458821"><ele>23.5</ele><time>2026-04-22T10:44:18.002Z</time></trkpt><trkpt lat="35.66517047551358" lon="-5.893068029799939"><ele>21.0</ele><time>2026-04-22T10:44:19.002Z</time></trkpt><trkpt lat="35.665273278943374" lon="-5.89339976662275"><ele>19.5</ele><time>2026-04-22T10:44:20.002Z</time></trkpt><trkpt lat="35.66537609388044" lon="-5.893732478292428"><ele>18.0</ele><time>2026-04-22T10:44:21.002Z</time></trkpt><trkpt lat="35.66547961639007" lon="-5.894065318323923"><ele>16.0</ele><time>2026-04-22T10:44:22.002Z</time></trkpt><trkpt lat="35.66558527958822" lon="-5.894396710525117"><ele>14.0</ele><time>2026-04-22T10:44:23.002Z</time></trkpt><trkpt lat="35.66569181746742" lon="-5.894727398263664"><ele>14.0</ele><time>2026-04-22T10:44:24.002Z</time></trkpt><trkpt lat="35.66579800039791" lon="-5.895058531625093"><ele>14.0</ele><time>2026-04-22T10:44:25.002Z</time></trkpt><trkpt lat="35.66590194394204" lon="-5.89538973381506"><ele>16.0</ele><time>2026-04-22T10:44:26.002Z</time></trkpt><trkpt lat="35.66600479420778" lon="-5.895720390392841"><ele>18.0</ele><time>2026-04-22T10:44:27.002Z</time></trkpt><trkpt lat="35.666105229554496" lon="-5.896052687308429"><ele>23.5</ele><time>2026-04-22T10:44:28.002Z</time></trkpt><trkpt lat="35.66621216212163" lon="-5.896382929109443"><ele>29.0</ele><time>2026-04-22T10:44:29.002Z</time></trkpt><trkpt lat="35.666325205117765" lon="-5.8967094930875525"><ele>30.0</ele><time>2026-04-22T10:44:30.002Z</time></trkpt><trkpt lat="35.66644558843346" lon="-5.897029517532645"><ele>31.0</ele><time>2026-04-22T10:44:31.002Z</time></trkpt><trkpt lat="35.66656589908866" lon="-5.897348985434815"><ele>31.0</ele><time>2026-04-22T10:44:32.002Z</time></trkpt><trkpt lat="35.66669312177237" lon="-5.897663005343091"><ele>31.0</ele><time>2026-04-22T10:44:33.002Z</time></trkpt><trkpt lat="35.666834105585416" lon="-5.897968765269118"><ele>30.5</ele><time>2026-04-22T10:44:34.002Z</time></trkpt><trkpt lat="35.66698336578619" lon="-5.89827053027343"><ele>30.0</ele><time>2026-04-22T10:44:35.002Z</time></trkpt><trkpt lat="35.66713549245766" lon="-5.898570847824418"><ele>28.0</ele><time>2026-04-22T10:44:36.002Z</time></trkpt><trkpt lat="35.66729323127854" lon="-5.8988612140049055"><ele>26.0</ele><time>2026-04-22T10:44:37.002Z</time></trkpt><trkpt lat="35.66744985397486" lon="-5.899152825536783"><ele>25.0</ele><time>2026-04-22T10:44:38.002Z</time></trkpt><trkpt lat="35.667623292383425" lon="-5.8994335192511285"><ele>24.0</ele><time>2026-04-22T10:44:39.001Z</time></trkpt><trkpt lat="35.66781093188133" lon="-5.899699907863192"><ele>24.0</ele><time>2026-04-22T10:44:40.001Z</time></trkpt><trkpt lat="35.668005921543326" lon="-5.899957576799325"><ele>24.0</ele><time>2026-04-22T10:44:41.001Z</time></trkpt><trkpt lat="35.668206554921326" lon="-5.900208041402121"><ele>21.5</ele><time>2026-04-22T10:44:42.001Z</time></trkpt><trkpt lat="35.66841182465625" lon="-5.900454928374941"><ele>19.0</ele><time>2026-04-22T10:44:43.001Z</time></trkpt><trkpt lat="35.66862460143987" lon="-5.900693668366549"><ele>19.5</ele><time>2026-04-22T10:44:44.001Z</time></trkpt><trkpt lat="35.66884443623679" lon="-5.900922711551069"><ele>20.0</ele><time>2026-04-22T10:44:45.001Z</time></trkpt><trkpt lat="35.66906811327899" lon="-5.901147661786434"><ele>20.0</ele><time>2026-04-22T10:44:46.001Z</time></trkpt><trkpt lat="35.66929384419911" lon="-5.901372501784674"><ele>20.0</ele><time>2026-04-22T10:44:47.001Z</time></trkpt><trkpt lat="35.66952085285612" lon="-5.901595295779803"><ele>23.5</ele><time>2026-04-22T10:44:48.001Z</time></trkpt><trkpt lat="35.669748055739355" lon="-5.901820969483312"><ele>27.0</ele><time>2026-04-22T10:44:49.001Z</time></trkpt><trkpt lat="35.66997384003228" lon="-5.902046195939069"><ele>27.0</ele><time>2026-04-22T10:44:50.001Z</time></trkpt><trkpt lat="35.67020208725222" lon="-5.9022709432640665"><ele>27.0</ele><time>2026-04-22T10:44:51.001Z</time></trkpt><trkpt lat="35.670431671961005" lon="-5.902490971419238"><ele>27.0</ele><time>2026-04-22T10:44:52.001Z</time></trkpt><trkpt lat="35.67066222705121" lon="-5.902713156912602"><ele>27.0</ele><time>2026-04-22T10:44:53.001Z</time></trkpt><trkpt lat="35.6708920848984" lon="-5.902933406983399"><ele>27.0</ele><time>2026-04-22T10:44:54.001Z</time></trkpt><trkpt lat="35.6711205821396" lon="-5.903154046140489"><ele>27.0</ele><time>2026-04-22T10:44:55.001Z</time></trkpt><trkpt lat="35.67134866535589" lon="-5.903374746411241"><ele>26.5</ele><time>2026-04-22T10:44:56.001Z</time></trkpt><trkpt lat="35.671577749784454" lon="-5.903596086217117"><ele>26.0</ele><time>2026-04-22T10:44:57.001Z</time></trkpt><trkpt lat="35.67180557945218" lon="-5.903817164341981"><ele>27.5</ele><time>2026-04-22T10:44:58.001Z</time></trkpt><trkpt lat="35.67203288749704" lon="-5.904038186681494"><ele>29.0</ele><time>2026-04-22T10:44:59.001Z</time></trkpt><trkpt lat="35.67225955682462" lon="-5.904259269813547"><ele>30.0</ele><time>2026-04-22T10:45:00.001Z</time></trkpt><trkpt lat="35.67248612023735" lon="-5.904480466636798"><ele>31.0</ele><time>2026-04-22T10:45:01.001Z</time></trkpt><trkpt lat="35.672713295132446" lon="-5.90470180373326"><ele>31.5</ele><time>2026-04-22T10:45:02.001Z</time></trkpt><trkpt lat="35.67293894766937" lon="-5.9049223427848645"><ele>32.0</ele><time>2026-04-22T10:45:03.001Z</time></trkpt><trkpt lat="35.673165448155686" lon="-5.9051431574664175"><ele>32.0</ele><time>2026-04-22T10:45:04.001Z</time></trkpt><trkpt lat="35.67339227232968" lon="-5.905365076403442"><ele>32.0</ele><time>2026-04-22T10:45:05.001Z</time></trkpt><trkpt lat="35.67361491501954" lon="-5.905589606188587"><ele>32.5</ele><time>2026-04-22T10:45:06.001Z</time></trkpt><trkpt lat="35.67383390574597" lon="-5.905820745444647"><ele>33.0</ele><time>2026-04-22T10:45:07.001Z</time></trkpt><trkpt lat="35.67404896213743" lon="-5.906056439670893"><ele>32.5</ele><time>2026-04-22T10:45:08.001Z</time></trkpt><trkpt lat="35.67425833184437" lon="-5.9063020840311"><ele>32.0</ele><time>2026-04-22T10:45:09.001Z</time></trkpt><trkpt lat="35.67445614785582" lon="-5.906563130836275"><ele>31.0</ele><time>2026-04-22T10:45:10.001Z</time></trkpt><trkpt lat="35.67464444791333" lon="-5.906833744873237"><ele>30.0</ele><time>2026-04-22T10:45:11.001Z</time></trkpt><trkpt lat="35.674825139175596" lon="-5.907114349338215"><ele>30.0</ele><time>2026-04-22T10:45:12.001Z</time></trkpt><trkpt lat="35.674996269143456" lon="-5.907402679758041"><ele>30.0</ele><time>2026-04-22T10:45:13.001Z</time></trkpt><trkpt lat="35.675157137352706" lon="-5.9076981542618165"><ele>32.5</ele><time>2026-04-22T10:45:14.001Z</time></trkpt><trkpt lat="35.675307544719054" lon="-5.908002777581045"><ele>35.0</ele><time>2026-04-22T10:45:15.001Z</time></trkpt><trkpt lat="35.67544633673324" lon="-5.908313981240367"><ele>33.5</ele><time>2026-04-22T10:45:16.001Z</time></trkpt><trkpt lat="35.67556155713553" lon="-5.908611174715892"><ele>32.0</ele><time>2026-04-22T10:45:17.001Z</time></trkpt><trkpt lat="35.67566559348927" lon="-5.908905210718612"><ele>32.0</ele><time>2026-04-22T10:45:18.001Z</time></trkpt><trkpt lat="35.675758620560096" lon="-5.909198816227142"><ele>32.0</ele><time>2026-04-22T10:45:19.001Z</time></trkpt><trkpt lat="35.675838398935156" lon="-5.9094923175304865"><ele>32.0</ele><time>2026-04-22T10:45:20.001Z</time></trkpt><trkpt lat="35.675908711888376" lon="-5.909786960811551"><ele>32.0</ele><time>2026-04-22T10:45:21.001Z</time></trkpt><trkpt lat="35.67596854041471" lon="-5.910086152690446"><ele>31.0</ele><time>2026-04-22T10:45:22.001Z</time></trkpt><trkpt lat="35.67601949524199" lon="-5.910387733086124"><ele>30.0</ele><time>2026-04-22T10:45:23.001Z</time></trkpt><trkpt lat="35.676058114162096" lon="-5.910687902079678"><ele>29.0</ele><time>2026-04-22T10:45:24.001Z</time></trkpt><trkpt lat="35.6760863645676" lon="-5.910986969289676"><ele>28.0</ele><time>2026-04-22T10:45:25.001Z</time></trkpt><trkpt lat="35.67610092093994" lon="-5.911286592036166"><ele>27.0</ele><time>2026-04-22T10:45:26.001Z</time></trkpt><trkpt lat="35.6761080225481" lon="-5.911584102568198"><ele>26.0</ele><time>2026-04-22T10:45:27.001Z</time></trkpt><trkpt lat="35.67610661891051" lon="-5.911878449451308"><ele>26.5</ele><time>2026-04-22T10:45:28.001Z</time></trkpt><trkpt lat="35.676093188517086" lon="-5.91217091918025"><ele>27.0</ele><time>2026-04-22T10:45:29.001Z</time></trkpt><trkpt lat="35.67607200510566" lon="-5.912468633843739"><ele>26.5</ele><time>2026-04-22T10:45:30.001Z</time></trkpt><trkpt lat="35.67604178257027" lon="-5.912764798538144"><ele>26.0</ele><time>2026-04-22T10:45:31.001Z</time></trkpt><trkpt lat="35.67600173083088" lon="-5.913058838230829"><ele>26.0</ele><time>2026-04-22T10:45:32.001Z</time></trkpt><trkpt lat="35.675954249669154" lon="-5.913350477896572"><ele>26.0</ele><time>2026-04-22T10:45:33.001Z</time></trkpt><trkpt lat="35.675898011095384" lon="-5.913641105504544"><ele>25.5</ele><time>2026-04-22T10:45:34.001Z</time></trkpt><trkpt lat="35.67583695465365" lon="-5.913929171866183"><ele>25.0</ele><time>2026-04-22T10:45:35.001Z</time></trkpt><trkpt lat="35.67577272322155" lon="-5.914217435257064"><ele>24.5</ele><time>2026-04-22T10:45:36.001Z</time></trkpt><trkpt lat="35.67570936709891" lon="-5.9145048948270675"><ele>24.0</ele><time>2026-04-22T10:45:37.001Z</time></trkpt><trkpt lat="35.675646818477524" lon="-5.914793573584457"><ele>23.5</ele><time>2026-04-22T10:45:38.001Z</time></trkpt><trkpt lat="35.67558391116218" lon="-5.915082669428791"><ele>23.0</ele><time>2026-04-22T10:45:39.001Z</time></trkpt><trkpt lat="35.67552072547476" lon="-5.915369273910137"><ele>23.0</ele><time>2026-04-22T10:45:40.001Z</time></trkpt><trkpt lat="35.675457432954424" lon="-5.91565572882404"><ele>23.0</ele><time>2026-04-22T10:45:41.001Z</time></trkpt><trkpt lat="35.675394773721244" lon="-5.9159426947755325"><ele>23.0</ele><time>2026-04-22T10:45:42.001Z</time></trkpt><trkpt lat="35.67533245350216" lon="-5.916229150093666"><ele>23.0</ele><time>2026-04-22T10:45:43.001Z</time></trkpt><trkpt lat="35.67527021318677" lon="-5.91651590767484"><ele>23.0</ele><time>2026-04-22T10:45:44.001Z</time></trkpt><trkpt lat="35.6752068565482" lon="-5.916803374305242"><ele>23.0</ele><time>2026-04-22T10:45:45.001Z</time></trkpt><trkpt lat="35.67514230118359" lon="-5.9170893536796925"><ele>23.0</ele><time>2026-04-22T10:45:46.001Z</time></trkpt><trkpt lat="35.67507818864886" lon="-5.91737401563769"><ele>23.0</ele><time>2026-04-22T10:45:47.001Z</time></trkpt><trkpt lat="35.67501440278332" lon="-5.917657094989576"><ele>23.0</ele><time>2026-04-22T10:45:48.001Z</time></trkpt><trkpt lat="35.67495155697017" lon="-5.917941107777072"><ele>23.0</ele><time>2026-04-22T10:45:49.001Z</time></trkpt><trkpt lat="35.67488946635928" lon="-5.9182268578744255"><ele>22.0</ele><time>2026-04-22T10:45:50.001Z</time></trkpt><trkpt lat="35.67482748166384" lon="-5.918513047070366"><ele>21.0</ele><time>2026-04-22T10:45:51.001Z</time></trkpt><trkpt lat="35.67476477184939" lon="-5.918798507158836"><ele>21.0</ele><time>2026-04-22T10:45:52.001Z</time></trkpt><trkpt lat="35.6747017410737" lon="-5.919083833007931"><ele>21.0</ele><time>2026-04-22T10:45:53.001Z</time></trkpt><trkpt lat="35.67463829126726" lon="-5.919368942013551"><ele>20.0</ele><time>2026-04-22T10:45:54.001Z</time></trkpt><trkpt lat="35.674574748235564" lon="-5.91965352380672"><ele>19.0</ele><time>2026-04-22T10:45:55.001Z</time></trkpt><trkpt lat="35.67451180521115" lon="-5.919937471483271"><ele>19.5</ele><time>2026-04-22T10:45:56.001Z</time></trkpt><trkpt lat="35.67444915977481" lon="-5.920221784405502"><ele>20.0</ele><time>2026-04-22T10:45:57.001Z</time></trkpt><trkpt lat="35.67438734720276" lon="-5.92050512237666"><ele>20.0</ele><time>2026-04-22T10:45:58.001Z</time></trkpt><trkpt lat="35.674326479520715" lon="-5.920790272302079"><ele>20.0</ele><time>2026-04-22T10:45:59.001Z</time></trkpt><trkpt lat="35.67426650281406" lon="-5.921075401609326"><ele>20.5</ele><time>2026-04-22T10:46:00.001Z</time></trkpt><trkpt lat="35.674204405412425" lon="-5.921360621118028"><ele>21.0</ele><time>2026-04-22T10:46:01.001Z</time></trkpt><trkpt lat="35.67414145317547" lon="-5.921645961899733"><ele>19.5</ele><time>2026-04-22T10:46:02.001Z</time></trkpt><trkpt lat="35.67407797839841" lon="-5.921931614599879"><ele>18.0</ele><time>2026-04-22T10:46:03.001Z</time></trkpt><trkpt lat="35.67401449020917" lon="-5.922217281317764"><ele>18.0</ele><time>2026-04-22T10:46:04.001Z</time></trkpt><trkpt lat="35.673951917104276" lon="-5.92250262834098"><ele>18.0</ele><time>2026-04-22T10:46:05.001Z</time></trkpt><trkpt lat="35.67388979226863" lon="-5.92278764922413"><ele>18.0</ele><time>2026-04-22T10:46:06.001Z</time></trkpt><trkpt lat="35.673828229209526" lon="-5.923072657663443"><ele>18.0</ele><time>2026-04-22T10:46:07.001Z</time></trkpt><trkpt lat="35.67376610448097" lon="-5.923357802256778"><ele>20.5</ele><time>2026-04-22T10:46:08.001Z</time></trkpt><trkpt lat="35.673703480593005" lon="-5.9236435518295245"><ele>23.0</ele><time>2026-04-22T10:46:09.001Z</time></trkpt><trkpt lat="35.67364010138919" lon="-5.923928866890377"><ele>21.5</ele><time>2026-04-22T10:46:10.001Z</time></trkpt><trkpt lat="35.67357627568011" lon="-5.924213909525746"><ele>20.0</ele><time>2026-04-22T10:46:11.001Z</time></trkpt><trkpt lat="35.673512697192464" lon="-5.924499120319583"><ele>23.0</ele><time>2026-04-22T10:46:12.001Z</time></trkpt><trkpt lat="35.6734499715319" lon="-5.9247848502844676"><ele>26.0</ele><time>2026-04-22T10:46:13.001Z</time></trkpt><trkpt lat="35.673386939724224" lon="-5.925069027188125"><ele>26.5</ele><time>2026-04-22T10:46:14.001Z</time></trkpt><trkpt lat="35.673324842025366" lon="-5.925354049626153"><ele>27.0</ele><time>2026-04-22T10:46:15.002Z</time></trkpt><trkpt lat="35.673263336796275" lon="-5.9256401510490955"><ele>27.0</ele><time>2026-04-22T10:46:16.002Z</time></trkpt><trkpt lat="35.67320180494706" lon="-5.925926459442579"><ele>27.0</ele><time>2026-04-22T10:46:17.002Z</time></trkpt><trkpt lat="35.67314112209545" lon="-5.92621365373098"><ele>27.0</ele><time>2026-04-22T10:46:18.002Z</time></trkpt><trkpt lat="35.673085658437394" lon="-5.926505067053429"><ele>27.0</ele><time>2026-04-22T10:46:19.002Z</time></trkpt><trkpt lat="35.6730364263549" lon="-5.926796283910684"><ele>28.0</ele><time>2026-04-22T10:46:20.002Z</time></trkpt><trkpt lat="35.67301008353322" lon="-5.927093482586465"><ele>29.0</ele><time>2026-04-22T10:46:21.002Z</time></trkpt><trkpt lat="35.6729919534482" lon="-5.927391749356382"><ele>30.5</ele><time>2026-04-22T10:46:22.002Z</time></trkpt><trkpt lat="35.67299062862346" lon="-5.927690823057952"><ele>32.0</ele><time>2026-04-22T10:46:23.002Z</time></trkpt><trkpt lat="35.67300343125523" lon="-5.9279875827960025"><ele>32.0</ele><time>2026-04-22T10:46:24.002Z</time></trkpt><trkpt lat="35.673028312985025" lon="-5.928276179759395"><ele>32.0</ele><time>2026-04-22T10:46:25.002Z</time></trkpt><trkpt lat="35.673063866028066" lon="-5.928554590763978"><ele>32.0</ele><time>2026-04-22T10:46:26.002Z</time></trkpt><trkpt lat="35.67311686745087" lon="-5.928818468613859"><ele>32.0</ele><time>2026-04-22T10:46:27.002Z</time></trkpt><trkpt lat="35.67318463679931" lon="-5.929079471877929"><ele>32.0</ele><time>2026-04-22T10:46:28.002Z</time></trkpt><trkpt lat="35.673269414197804" lon="-5.92933419868692"><ele>31.333333333333332</ele><time>2026-04-22T10:46:29.002Z</time></trkpt><trkpt lat="35.67336643606379" lon="-5.929581237832193"><ele>30.666666666666664</ele><time>2026-04-22T10:46:30.002Z</time></trkpt><trkpt lat="35.673473851248026" lon="-5.929823277744331"><ele>30.0</ele><time>2026-04-22T10:46:31.002Z</time></trkpt><trkpt lat="35.67358878252902" lon="-5.930055478224205"><ele>28.0</ele><time>2026-04-22T10:46:32.002Z</time></trkpt><trkpt lat="35.673704452978065" lon="-5.9302790910289485"><ele>26.0</ele><time>2026-04-22T10:46:33.002Z</time></trkpt><trkpt lat="35.67381450767486" lon="-5.930482583865527"><ele>24.0</ele><time>2026-04-22T10:46:34.001Z</time></trkpt><trkpt lat="35.6739180211268" lon="-5.930667938611609"><ele>24.0</ele><time>2026-04-22T10:46:35.001Z</time></trkpt><trkpt lat="35.6740169718979" lon="-5.930838601899567"><ele>24.0</ele><time>2026-04-22T10:46:36.001Z</time></trkpt><trkpt lat="35.674110428193075" lon="-5.930995468461415"><ele>24.0</ele><time>2026-04-22T10:46:37.001Z</time></trkpt><trkpt lat="35.67419882763558" lon="-5.931139409876853"><ele>23.25</ele><time>2026-04-22T10:46:38.001Z</time></trkpt><trkpt lat="35.6742899539949" lon="-5.931261896530508"><ele>22.5</ele><time>2026-04-22T10:46:39.001Z</time></trkpt><trkpt lat="35.67439379457349" lon="-5.931373256729169"><ele>21.75</ele><time>2026-04-22T10:46:40.001Z</time></trkpt><trkpt lat="35.67450984640388" lon="-5.931474209359701"><ele>21.0</ele><time>2026-04-22T10:46:41.001Z</time></trkpt><trkpt lat="35.67464070823015" lon="-5.931555166195986"><ele>20.333333333333332</ele><time>2026-04-22T10:46:42.001Z</time></trkpt><trkpt lat="35.67478113813639" lon="-5.931618094169714"><ele>19.666666666666664</ele><time>2026-04-22T10:46:43.001Z</time></trkpt><trkpt lat="35.67492665575171" lon="-5.93166047867286"><ele>19.0</ele><time>2026-04-22T10:46:44.001Z</time></trkpt><trkpt lat="35.675082509638024" lon="-5.931672457409531"><ele>19.0</ele><time>2026-04-22T10:46:45.001Z</time></trkpt><trkpt lat="35.675238327170256" lon="-5.931659129893713"><ele>19.0</ele><time>2026-04-22T10:46:46.001Z</time></trkpt><trkpt lat="35.67538973251107" lon="-5.931620961302117"><ele>19.0</ele><time>2026-04-22T10:46:47.001Z</time></trkpt><trkpt lat="35.67553620014347" lon="-5.931552348907363"><ele>19.666666666666664</ele><time>2026-04-22T10:46:48.001Z</time></trkpt><trkpt lat="35.67567681862275" lon="-5.93145736656231"><ele>20.333333333333332</ele><time>2026-04-22T10:46:49.001Z</time></trkpt><trkpt lat="35.67580194196624" lon="-5.93133313224823"><ele>21.0</ele><time>2026-04-22T10:46:50.001Z</time></trkpt><trkpt lat="35.67591427232333" lon="-5.931193676723171"><ele>21.0</ele><time>2026-04-22T10:46:51.001Z</time></trkpt><trkpt lat="35.67600990430844" lon="-5.931043894476531"><ele>21.0</ele><time>2026-04-22T10:46:52.001Z</time></trkpt><trkpt lat="35.676097830420815" lon="-5.930894533492"><ele>21.0</ele><time>2026-04-22T10:46:53.001Z</time></trkpt><trkpt lat="35.67617844107252" lon="-5.9307471280649136"><ele>21.0</ele><time>2026-04-22T10:46:54.001Z</time></trkpt><trkpt lat="35.67625601112329" lon="-5.930603576147373"><ele>21.0</ele><time>2026-04-22T10:46:55.001Z</time></trkpt><trkpt lat="35.67633133007841" lon="-5.930468298704074"><ele>21.0</ele><time>2026-04-22T10:46:56.001Z</time></trkpt><trkpt lat="35.676403275073476" lon="-5.930335370821447"><ele>21.0</ele><time>2026-04-22T10:46:57.001Z</time></trkpt><trkpt lat="35.676472038566814" lon="-5.930205188486536"><ele>21.0</ele><time>2026-04-22T10:46:58.001Z</time></trkpt><trkpt lat="35.676540438825135" lon="-5.9300749543578455"><ele>21.0</ele><time>2026-04-22T10:46:59.001Z</time></trkpt><trkpt lat="35.67660573414069" lon="-5.9299467280733245"><ele>21.0</ele><time>2026-04-22T10:47:00.001Z</time></trkpt><trkpt lat="35.676668055467566" lon="-5.929821588692146"><ele>21.0</ele><time>2026-04-22T10:47:01.001Z</time></trkpt><trkpt lat="35.67672818415854" lon="-5.929701302624307"><ele>21.0</ele><time>2026-04-22T10:47:02.001Z</time></trkpt><trkpt lat="35.676787241021806" lon="-5.92958567608673"><ele>21.0</ele><time>2026-04-22T10:47:03.001Z</time></trkpt><trkpt lat="35.676843653530455" lon="-5.929474137953182"><ele>21.0</ele><time>2026-04-22T10:47:04.001Z</time></trkpt><trkpt lat="35.67689791004178" lon="-5.929365521589913"><ele>21.0</ele><time>2026-04-22T10:47:05.001Z</time></trkpt><trkpt lat="35.676955503970866" lon="-5.9292581105771065"><ele>21.0</ele><time>2026-04-22T10:47:06.001Z</time></trkpt><trkpt lat="35.677012448757125" lon="-5.929150036051658"><ele>21.0</ele><time>2026-04-22T10:47:07.001Z</time></trkpt><trkpt lat="35.67706734844104" lon="-5.929042582235708"><ele>20.6</ele><time>2026-04-22T10:47:08.001Z</time></trkpt><trkpt lat="35.677148940142935" lon="-5.928958557772196"><ele>20.200000000000003</ele><time>2026-04-22T10:47:09.001Z</time></trkpt><trkpt lat="35.67720413269371" lon="-5.928855972917635"><ele>19.799999999999997</ele><time>2026-04-22T10:47:10.001Z</time></trkpt><trkpt lat="35.67725853337735" lon="-5.928754859868263"><ele>19.4</ele><time>2026-04-22T10:47:11.001Z</time></trkpt><trkpt lat="35.67731268348797" lon="-5.928654212548216"><ele>19.0</ele><time>2026-04-22T10:47:12.001Z</time></trkpt><trkpt lat="35.677366692171006" lon="-5.928553828135769"><ele>19.0</ele><time>2026-04-22T10:47:13.001Z</time></trkpt><trkpt lat="35.677419093067456" lon="-5.9284563596488065"><ele>19.0</ele><time>2026-04-22T10:47:14.001Z</time></trkpt><trkpt lat="35.677469401307285" lon="-5.928362195175627"><ele>19.0</ele><time>2026-04-22T10:47:15.001Z</time></trkpt><trkpt lat="35.677516731714796" lon="-5.928273604462297"><ele>19.0</ele><time>2026-04-22T10:47:16.001Z</time></trkpt><trkpt lat="35.67756094572438" lon="-5.928190206219614"><ele>19.0</ele><time>2026-04-22T10:47:17.001Z</time></trkpt><trkpt lat="35.67760271827389" lon="-5.928111185563778"><ele>19.0</ele><time>2026-04-22T10:47:18.001Z</time></trkpt><trkpt lat="35.677641482704125" lon="-5.928037855340832"><ele>19.333333333333332</ele><time>2026-04-22T10:47:19.001Z</time></trkpt><trkpt lat="35.677679157216794" lon="-5.92796658689156"><ele>19.666666666666664</ele><time>2026-04-22T10:47:20.001Z</time></trkpt><trkpt lat="35.67774531514166" lon="-5.927841436703024"><ele>20.0</ele><time>2026-04-22T10:47:22.001Z</time></trkpt><trkpt lat="35.67780226900772" lon="-5.927733808013129"><ele>20.333333333333332</ele><time>2026-04-22T10:47:24.001Z</time></trkpt><trkpt lat="35.67784276324923" lon="-5.927657794718611"><ele>20.666666666666668</ele><time>2026-04-22T10:47:26.001Z</time></trkpt><trkpt lat="35.67787842734763" lon="-5.927590848261892"><ele>21.0</ele><time>2026-04-22T10:47:29.001Z</time></trkpt><trkpt lat="35.67791506505812" lon="-5.927522074265134"><ele>21.0</ele><time>2026-04-22T10:47:58.001Z</time></trkpt><trkpt lat="35.67796535577323" lon="-5.927426242794275"><ele>21.0</ele><time>2026-04-22T10:48:36.001Z</time></trkpt><trkpt lat="35.678015884702575" lon="-5.92733533413161"><ele>21.0</ele><time>2026-04-22T10:48:38.001Z</time></trkpt><trkpt lat="35.67805253577889" lon="-5.927268793463078"><ele>21.0</ele><time>2026-04-22T10:48:41.001Z</time></trkpt><trkpt lat="35.67811114746305" lon="-5.927162382915703"><ele>21.0</ele><time>2026-04-22T10:49:25.001Z</time></trkpt><trkpt lat="35.67818288945576" lon="-5.927032134090415"><ele>21.0</ele><time>2026-04-22T10:49:27.001Z</time></trkpt><trkpt lat="35.678224024867916" lon="-5.926957452023274"><ele>21.0</ele><time>2026-04-22T10:49:28.001Z</time></trkpt><trkpt lat="35.67827037064601" lon="-5.926872900090988"><ele>21.0</ele><time>2026-04-22T10:49:29.001Z</time></trkpt><trkpt lat="35.678320487930236" lon="-5.926781284477727"><ele>21.0</ele><time>2026-04-22T10:49:30.001Z</time></trkpt><trkpt lat="35.67837442378927" lon="-5.926690728798358"><ele>21.0</ele><time>2026-04-22T10:49:31.001Z</time></trkpt><trkpt lat="35.67843333098799" lon="-5.926591432382689"><ele>21.0</ele><time>2026-04-22T10:49:32.001Z</time></trkpt><trkpt lat="35.67848418409605" lon="-5.926475351874357"><ele>21.5</ele><time>2026-04-22T10:49:33.001Z</time></trkpt><trkpt lat="35.67855796232453" lon="-5.926371112442007"><ele>22.0</ele><time>2026-04-22T10:49:34.001Z</time></trkpt><trkpt lat="35.67863516536277" lon="-5.926256356589833"><ele>22.5</ele><time>2026-04-22T10:49:35.001Z</time></trkpt><trkpt lat="35.678713862948285" lon="-5.926134146950171"><ele>23.0</ele><time>2026-04-22T10:49:36.001Z</time></trkpt><trkpt lat="35.67879663870563" lon="-5.926006060773551"><ele>21.0</ele><time>2026-04-22T10:49:37.001Z</time></trkpt><trkpt lat="35.6788818806719" lon="-5.9258784906273805"><ele>19.0</ele><time>2026-04-22T10:49:38.001Z</time></trkpt><trkpt lat="35.678970459258615" lon="-5.925744908134044"><ele>17.0</ele><time>2026-04-22T10:49:39.001Z</time></trkpt><trkpt lat="35.67906206254696" lon="-5.92560734272904"><ele>15.0</ele><time>2026-04-22T10:49:40.001Z</time></trkpt><trkpt lat="35.67915534491982" lon="-5.925467321472701"><ele>15.0</ele><time>2026-04-22T10:49:41.001Z</time></trkpt><trkpt lat="35.67924943163771" lon="-5.925322182696012"><ele>15.0</ele><time>2026-04-22T10:49:42.001Z</time></trkpt><trkpt lat="35.679341835305586" lon="-5.925174677352067"><ele>15.0</ele><time>2026-04-22T10:49:43.001Z</time></trkpt><trkpt lat="35.679432895260604" lon="-5.925025560887229"><ele>15.0</ele><time>2026-04-22T10:49:44.001Z</time></trkpt><trkpt lat="35.67952499411084" lon="-5.92487589229461"><ele>15.0</ele><time>2026-04-22T10:49:45.001Z</time></trkpt><trkpt lat="35.679619566167304" lon="-5.924724639894055"><ele>15.0</ele><time>2026-04-22T10:49:46Z</time></trkpt><trkpt lat="35.67971341140122" lon="-5.924571271235473"><ele>15.0</ele><time>2026-04-22T10:49:47Z</time></trkpt><trkpt lat="35.67980948220131" lon="-5.924413575931333"><ele>15.0</ele><time>2026-04-22T10:49:48Z</time></trkpt><trkpt lat="35.67990584819334" lon="-5.924255179099073"><ele>15.0</ele><time>2026-04-22T10:49:49Z</time></trkpt><trkpt lat="35.68000287054681" lon="-5.924095407787823"><ele>15.333333333333332</ele><time>2026-04-22T10:49:50Z</time></trkpt><trkpt lat="35.68010092582181" lon="-5.923931682009487"><ele>15.666666666666666</ele><time>2026-04-22T10:49:51Z</time></trkpt><trkpt lat="35.680200389273914" lon="-5.923763261214186"><ele>16.0</ele><time>2026-04-22T10:49:52Z</time></trkpt><trkpt lat="35.680298902996114" lon="-5.923593017270246"><ele>16.0</ele><time>2026-04-22T10:49:53Z</time></trkpt><trkpt lat="35.68039668516851" lon="-5.92342327205596"><ele>16.0</ele><time>2026-04-22T10:49:54Z</time></trkpt><trkpt lat="35.6804942079907" lon="-5.923251295327987"><ele>16.0</ele><time>2026-04-22T10:49:55Z</time></trkpt><trkpt lat="35.68059225963874" lon="-5.923076845211543"><ele>16.666666666666664</ele><time>2026-04-22T10:49:56Z</time></trkpt><trkpt lat="35.680688453714936" lon="-5.922904629774087"><ele>17.333333333333332</ele><time>2026-04-22T10:49:57Z</time></trkpt><trkpt lat="35.68078539027948" lon="-5.922730659562041"><ele>18.0</ele><time>2026-04-22T10:49:58Z</time></trkpt><trkpt lat="35.680879531604106" lon="-5.922560366981264"><ele>18.0</ele><time>2026-04-22T10:49:59Z</time></trkpt><trkpt lat="35.680969119070426" lon="-5.922398796974723"><ele>18.0</ele><time>2026-04-22T10:50:00Z</time></trkpt><trkpt lat="35.68105284336625" lon="-5.922247041866534"><ele>18.0</ele><time>2026-04-22T10:50:01Z</time></trkpt><trkpt lat="35.6811290806382" lon="-5.922105751881672"><ele>18.0</ele><time>2026-04-22T10:50:02Z</time></trkpt><trkpt lat="35.681193506971844" lon="-5.921978826470145"><ele>17.833333333333332</ele><time>2026-04-22T10:50:03Z</time></trkpt><trkpt lat="35.68124719404931" lon="-5.921862220070606"><ele>17.666666666666668</ele><time>2026-04-22T10:50:04Z</time></trkpt><trkpt lat="35.681289694568314" lon="-5.921755889031186"><ele>17.5</ele><time>2026-04-22T10:50:05Z</time></trkpt><trkpt lat="35.6813250628208" lon="-5.921655528346082"><ele>17.333333333333336</ele><time>2026-04-22T10:50:06Z</time></trkpt><trkpt lat="35.68135391622129" lon="-5.921562534747857"><ele>17.166666666666668</ele><time>2026-04-22T10:50:07Z</time></trkpt><trkpt lat="35.68137066201469" lon="-5.921474191225926"><ele>17.0</ele><time>2026-04-22T10:50:08Z</time></trkpt><trkpt lat="35.68138102167268" lon="-5.921388593520518"><ele>17.0</ele><time>2026-04-22T10:50:09Z</time></trkpt><trkpt lat="35.681390196317885" lon="-5.921306762440943"><ele>17.0</ele><time>2026-04-22T10:50:10Z</time></trkpt><trkpt lat="35.68143643513537" lon="-5.921173563744092"><ele>17.0</ele><time>2026-04-22T10:50:12Z</time></trkpt><trkpt lat="35.68150948672076" lon="-5.921085291770241"><ele>17.0</ele><time>2026-04-22T10:50:14Z</time></trkpt><trkpt lat="35.681617010875655" lon="-5.921052193380446"><ele>17.0</ele><time>2026-04-22T10:50:16Z</time></trkpt><trkpt lat="35.681680074587995" lon="-5.921059411286818"><ele>17.0</ele><time>2026-04-22T10:50:17Z</time></trkpt><trkpt lat="35.681788659439945" lon="-5.921123304345611"><ele>17.0</ele><time>2026-04-22T10:50:19Z</time></trkpt><trkpt lat="35.68184427522121" lon="-5.921234577923061"><ele>17.0</ele><time>2026-04-22T10:50:21Z</time></trkpt><trkpt lat="35.681863416342054" lon="-5.921371914480896"><ele>17.0</ele><time>2026-04-22T10:50:23Z</time></trkpt><trkpt lat="35.68184279981887" lon="-5.9214869305908335"><ele>17.0</ele><time>2026-04-22T10:50:25Z</time></trkpt><trkpt lat="35.68183167823139" lon="-5.921595373113515"><ele>17.0</ele><time>2026-04-22T10:50:27.001Z</time></trkpt><trkpt lat="35.68184955055979" lon="-5.921677129881213"><ele>17.0</ele><time>2026-04-22T10:50:28.001Z</time></trkpt><trkpt lat="35.6818775590672" lon="-5.921773414018065"><ele>17.0</ele><time>2026-04-22T10:50:29.001Z</time></trkpt><trkpt lat="35.6819145103255" lon="-5.921876930346634"><ele>17.0</ele><time>2026-04-22T10:50:30.001Z</time></trkpt><trkpt lat="35.68195406487021" lon="-5.921990203352183"><ele>17.0</ele><time>2026-04-22T10:50:31.001Z</time></trkpt><trkpt lat="35.681996295632246" lon="-5.922106205883267"><ele>17.0</ele><time>2026-04-22T10:50:32.001Z</time></trkpt><trkpt lat="35.68203285864614" lon="-5.922228280902824"><ele>17.25</ele><time>2026-04-22T10:50:33.001Z</time></trkpt><trkpt lat="35.68206532851932" lon="-5.922356819937875"><ele>17.5</ele><time>2026-04-22T10:50:34.001Z</time></trkpt><trkpt lat="35.68209324662558" lon="-5.9224916046649705"><ele>17.75</ele><time>2026-04-22T10:50:35.001Z</time></trkpt><trkpt lat="35.68211405246651" lon="-5.92263195817936"><ele>18.0</ele><time>2026-04-22T10:50:36.001Z</time></trkpt><trkpt lat="35.68212657514602" lon="-5.922776749801451"><ele>18.75</ele><time>2026-04-22T10:50:37.001Z</time></trkpt><trkpt lat="35.68212749781026" lon="-5.92292507496463"><ele>19.5</ele><time>2026-04-22T10:50:38.001Z</time></trkpt><trkpt lat="35.68211633392677" lon="-5.923078729290793"><ele>20.25</ele><time>2026-04-22T10:50:39.001Z</time></trkpt><trkpt lat="35.68209192349632" lon="-5.9232332431607615"><ele>21.0</ele><time>2026-04-22T10:50:40.001Z</time></trkpt><trkpt lat="35.682059732849844" lon="-5.92338334585769"><ele>20.75</ele><time>2026-04-22T10:50:41.001Z</time></trkpt><trkpt lat="35.682018900231654" lon="-5.923523141322984"><ele>20.5</ele><time>2026-04-22T10:50:42.001Z</time></trkpt><trkpt lat="35.68196966146695" lon="-5.923651602607548"><ele>20.25</ele><time>2026-04-22T10:50:43.001Z</time></trkpt><trkpt lat="35.68191101468095" lon="-5.923770290216082"><ele>20.0</ele><time>2026-04-22T10:50:44.001Z</time></trkpt><trkpt lat="35.681850221139435" lon="-5.923879152310376"><ele>19.5</ele><time>2026-04-22T10:50:45.001Z</time></trkpt><trkpt lat="35.68178951525133" lon="-5.923976033301204"><ele>19.0</ele><time>2026-04-22T10:50:46.001Z</time></trkpt><trkpt lat="35.68173313493872" lon="-5.9240642171437585"><ele>18.5</ele><time>2026-04-22T10:50:47.001Z</time></trkpt><trkpt lat="35.681685828473924" lon="-5.924151511544268"><ele>18.0</ele><time>2026-04-22T10:50:48.001Z</time></trkpt><trkpt lat="35.68164834350449" lon="-5.924239881653675"><ele>17.5</ele><time>2026-04-22T10:50:49.001Z</time></trkpt><trkpt lat="35.68162519869322" lon="-5.924329803439959"><ele>17.0</ele><time>2026-04-22T10:50:50.001Z</time></trkpt><trkpt lat="35.68161347576553" lon="-5.924421999898507"><ele>16.4</ele><time>2026-04-22T10:50:51.001Z</time></trkpt><trkpt lat="35.68161270891465" lon="-5.9245252776624024"><ele>15.799999999999999</ele><time>2026-04-22T10:50:52.001Z</time></trkpt><trkpt lat="35.681625450071124" lon="-5.924642967536845"><ele>15.2</ele><time>2026-04-22T10:50:53.001Z</time></trkpt><trkpt lat="35.681648611984045" lon="-5.924768442361286"><ele>14.6</ele><time>2026-04-22T10:50:54.001Z</time></trkpt><trkpt lat="35.681671510478424" lon="-5.924902207580015"><ele>14.0</ele><time>2026-04-22T10:50:55.001Z</time></trkpt><trkpt lat="35.68169290716496" lon="-5.92504440667095"><ele>13.5</ele><time>2026-04-22T10:50:56.001Z</time></trkpt><trkpt lat="35.68171706566765" lon="-5.925187499540679"><ele>13.0</ele><time>2026-04-22T10:50:57.001Z</time></trkpt><trkpt lat="35.681742962924325" lon="-5.925327732686815"><ele>12.5</ele><time>2026-04-22T10:50:58.001Z</time></trkpt><trkpt lat="35.68177178510297" lon="-5.925461478582107"><ele>12.0</ele><time>2026-04-22T10:50:59.001Z</time></trkpt><trkpt lat="35.681802519703275" lon="-5.925585025843367"><ele>12.0</ele><time>2026-04-22T10:51:00.001Z</time></trkpt><trkpt lat="35.68183599115747" lon="-5.925697834993112"><ele>12.0</ele><time>2026-04-22T10:51:01.001Z</time></trkpt><trkpt lat="35.681870852394795" lon="-5.9258002487641885"><ele>12.0</ele><time>2026-04-22T10:51:02.001Z</time></trkpt><trkpt lat="35.681909507019725" lon="-5.9258907523951105"><ele>12.0</ele><time>2026-04-22T10:51:03.001Z</time></trkpt><trkpt lat="35.68195323199663" lon="-5.925974769975091"><ele>12.0</ele><time>2026-04-22T10:51:04.001Z</time></trkpt><trkpt lat="35.681998616342106" lon="-5.926061832587909"><ele>12.0</ele><time>2026-04-22T10:51:05.001Z</time></trkpt><trkpt lat="35.68206292982724" lon="-5.9261515097854245"><ele>12.2</ele><time>2026-04-22T10:51:06.001Z</time></trkpt><trkpt lat="35.68208742487075" lon="-5.926263777827649"><ele>12.399999999999999</ele><time>2026-04-22T10:51:07.001Z</time></trkpt><trkpt lat="35.682058183834805" lon="-5.926395984709124"><ele>12.600000000000001</ele><time>2026-04-22T10:51:08.001Z</time></trkpt><trkpt lat="35.68207347724689" lon="-5.926517300721609"><ele>12.8</ele><time>2026-04-22T10:51:09.001Z</time></trkpt><trkpt lat="35.68211196851589" lon="-5.926641940643359"><ele>13.0</ele><time>2026-04-22T10:51:10.001Z</time></trkpt><trkpt lat="35.68216826092087" lon="-5.9267700033108515"><ele>13.0</ele><time>2026-04-22T10:51:11.001Z</time></trkpt><trkpt lat="35.68222965224577" lon="-5.926897870535442"><ele>13.0</ele><time>2026-04-22T10:51:12.001Z</time></trkpt><trkpt lat="35.68228848226107" lon="-5.927029027939144"><ele>13.0</ele><time>2026-04-22T10:51:13.001Z</time></trkpt><trkpt lat="35.682340923849345" lon="-5.9271560953398446"><ele>13.0</ele><time>2026-04-22T10:51:14.001Z</time></trkpt><trkpt lat="35.68239324482965" lon="-5.927271898692393"><ele>13.0</ele><time>2026-04-22T10:51:15.001Z</time></trkpt><trkpt lat="35.68244727436659" lon="-5.927382001876113"><ele>13.0</ele><time>2026-04-22T10:51:16.001Z</time></trkpt><trkpt lat="35.68249915440152" lon="-5.927484794857557"><ele>13.0</ele><time>2026-04-22T10:51:17.001Z</time></trkpt><trkpt lat="35.68255045152707" lon="-5.927573019089878"><ele>13.0</ele><time>2026-04-22T10:51:18.001Z</time></trkpt><trkpt lat="35.68259967398021" lon="-5.927660585706081"><ele>13.0</ele><time>2026-04-22T10:51:19.001Z</time></trkpt><trkpt lat="35.682644153479366" lon="-5.927744783249141"><ele>13.166666666666666</ele><time>2026-04-22T10:51:20.001Z</time></trkpt><trkpt lat="35.68268898515959" lon="-5.927823112792673"><ele>13.333333333333332</ele><time>2026-04-22T10:51:21.001Z</time></trkpt><trkpt lat="35.68273105252498" lon="-5.927895422265354"><ele>13.5</ele><time>2026-04-22T10:51:22.001Z</time></trkpt><trkpt lat="35.68277149376825" lon="-5.927958940036514"><ele>13.666666666666668</ele><time>2026-04-22T10:51:23Z</time></trkpt><trkpt lat="35.68284503048098" lon="-5.928044913889083"><ele>13.833333333333334</ele><time>2026-04-22T10:51:25Z</time></trkpt><trkpt lat="35.68294684215544" lon="-5.928132381846026"><ele>14.0</ele><time>2026-04-22T10:51:27Z</time></trkpt><trkpt lat="35.683009515046" lon="-5.928189588320428"><ele>13.333333333333334</ele><time>2026-04-22T10:51:28Z</time></trkpt><trkpt lat="35.68307896762515" lon="-5.92825123394698"><ele>12.666666666666668</ele><time>2026-04-22T10:51:29Z</time></trkpt><trkpt lat="35.68315105659871" lon="-5.928314512503547"><ele>12.0</ele><time>2026-04-22T10:51:30Z</time></trkpt><trkpt lat="35.68322650652145" lon="-5.9283799434799445"><ele>11.333333333333334</ele><time>2026-04-22T10:51:31Z</time></trkpt><trkpt lat="35.68329699731059" lon="-5.928441842813316"><ele>10.666666666666668</ele><time>2026-04-22T10:51:32Z</time></trkpt><trkpt lat="35.683360480654976" lon="-5.928496444203788"><ele>10.0</ele><time>2026-04-22T10:51:33Z</time></trkpt><trkpt lat="35.683419770068745" lon="-5.928548486059078"><ele>9.857142857142858</ele><time>2026-04-22T10:51:34Z</time></trkpt><trkpt lat="35.68348555169918" lon="-5.928581199953953"><ele>9.714285714285715</ele><time>2026-04-22T10:51:35Z</time></trkpt><trkpt lat="35.683546580320694" lon="-5.928631627613627"><ele>9.571428571428573</ele><time>2026-04-22T10:51:36Z</time></trkpt><trkpt lat="35.68360033610095" lon="-5.928698131247465"><ele>9.428571428571429</ele><time>2026-04-22T10:51:37Z</time></trkpt><trkpt lat="35.683664771438245" lon="-5.9287433651557"><ele>9.285714285714286</ele><time>2026-04-22T10:51:38Z</time></trkpt><trkpt lat="35.68372882978568" lon="-5.9287847684994315"><ele>9.142857142857144</ele><time>2026-04-22T10:51:39Z</time></trkpt><trkpt lat="35.68379737090356" lon="-5.9287999106888645"><ele>9.0</ele><time>2026-04-22T10:51:40Z</time></trkpt><trkpt lat="35.68386328119685" lon="-5.928826022145695"><ele>8.8</ele><time>2026-04-22T10:51:41Z</time></trkpt><trkpt lat="35.68393789457055" lon="-5.928853508701354"><ele>8.600000000000001</ele><time>2026-04-22T10:51:42Z</time></trkpt><trkpt lat="35.684019552635974" lon="-5.928894549365357"><ele>8.4</ele><time>2026-04-22T10:51:43Z</time></trkpt><trkpt lat="35.684113687380396" lon="-5.928903198752724"><ele>8.200000000000001</ele><time>2026-04-22T10:51:44Z</time></trkpt><trkpt lat="35.68421294915316" lon="-5.92890186499576"><ele>8.0</ele><time>2026-04-22T10:51:45Z</time></trkpt><trkpt lat="35.68431408278154" lon="-5.9289028225991744"><ele>8.0</ele><time>2026-04-22T10:51:46Z</time></trkpt><trkpt lat="35.68441144537004" lon="-5.928906700181392"><ele>8.0</ele><time>2026-04-22T10:51:47Z</time></trkpt><trkpt lat="35.68450809900268" lon="-5.9289073968385715"><ele>8.0</ele><time>2026-04-22T10:51:48Z</time></trkpt><trkpt lat="35.68460598525939" lon="-5.9289044142698435"><ele>8.0</ele><time>2026-04-22T10:51:49Z</time></trkpt><trkpt lat="35.68470292006064" lon="-5.9288903289718204"><ele>8.0</ele><time>2026-04-22T10:51:50Z</time></trkpt><trkpt lat="35.68479524140636" lon="-5.928864986667421"><ele>7.999999999999999</ele><time>2026-04-22T10:51:51Z</time></trkpt><trkpt lat="35.684883142526964" lon="-5.928832698716428"><ele>8.0</ele><time>2026-04-22T10:51:52Z</time></trkpt><trkpt lat="35.68496751795795" lon="-5.928796511305893"><ele>8.0</ele><time>2026-04-22T10:51:53Z</time></trkpt><trkpt lat="35.68504795633585" lon="-5.928774414857652"><ele>8.0</ele><time>2026-04-22T10:51:54Z</time></trkpt><trkpt lat="35.68513045227306" lon="-5.928781125371832"><ele>7.999999999999999</ele><time>2026-04-22T10:51:55Z</time></trkpt><trkpt lat="35.685214631415334" lon="-5.928817527100174"><ele>8.0</ele><time>2026-04-22T10:51:56Z</time></trkpt><trkpt lat="35.68529759098424" lon="-5.928875198867941"><ele>8.0</ele><time>2026-04-22T10:51:57Z</time></trkpt><trkpt lat="35.68539332062217" lon="-5.928934212240871"><ele>8.0</ele><time>2026-04-22T10:51:58Z</time></trkpt><trkpt lat="35.685495756846045" lon="-5.928989849263513"><ele>8.0</ele><time>2026-04-22T10:51:59Z</time></trkpt><trkpt lat="35.685605311123844" lon="-5.929038388190074"><ele>8.0</ele><time>2026-04-22T10:52:00Z</time></trkpt><trkpt lat="35.68571797833651" lon="-5.929092185019948"><ele>8.0</ele><time>2026-04-22T10:52:01Z</time></trkpt><trkpt lat="35.68583330031747" lon="-5.929159787353712"><ele>8.0</ele><time>2026-04-22T10:52:02Z</time></trkpt><trkpt lat="35.68595039428797" lon="-5.929232845953092"><ele>8.0</ele><time>2026-04-22T10:52:03Z</time></trkpt><trkpt lat="35.686067178318005" lon="-5.92931153109627"><ele>8.0</ele><time>2026-04-22T10:52:04Z</time></trkpt><trkpt lat="35.68619029442344" lon="-5.929399972124004"><ele>8.0</ele><time>2026-04-22T10:52:05Z</time></trkpt><trkpt lat="35.68631470139117" lon="-5.929489869933529"><ele>8.0</ele><time>2026-04-22T10:52:06Z</time></trkpt><trkpt lat="35.68644105202888" lon="-5.929584966102076"><ele>8.0</ele><time>2026-04-22T10:52:07Z</time></trkpt><trkpt lat="35.68656685109954" lon="-5.929683925756054"><ele>8.0</ele><time>2026-04-22T10:52:08Z</time></trkpt><trkpt lat="35.686691074698" lon="-5.929787871655437"><ele>8.0</ele><time>2026-04-22T10:52:09Z</time></trkpt><trkpt lat="35.686811700970374" lon="-5.9298998345067515"><ele>8.0</ele><time>2026-04-22T10:52:10Z</time></trkpt><trkpt lat="35.68692648670541" lon="-5.930015477507615"><ele>8.0</ele><time>2026-04-22T10:52:11Z</time></trkpt><trkpt lat="35.687027683896375" lon="-5.930126732619252"><ele>8.0</ele><time>2026-04-22T10:52:12Z</time></trkpt><trkpt lat="35.68712068308105" lon="-5.930236219082903"><ele>7.800000000000001</ele><time>2026-04-22T10:52:13Z</time></trkpt><trkpt lat="35.6872063522283" lon="-5.930344197665152"><ele>7.6000000000000005</ele><time>2026-04-22T10:52:14Z</time></trkpt><trkpt lat="35.6872807330664" lon="-5.93044572722359"><ele>7.3999999999999995</ele><time>2026-04-22T10:52:15Z</time></trkpt><trkpt lat="35.687345184886055" lon="-5.930541922872687"><ele>7.199999999999999</ele><time>2026-04-22T10:52:16Z</time></trkpt><trkpt lat="35.687397762708564" lon="-5.9306341047315225"><ele>7.0</ele><time>2026-04-22T10:52:17Z</time></trkpt><trkpt lat="35.687441946278064" lon="-5.930721781276741"><ele>7.0</ele><time>2026-04-22T10:52:18Z</time></trkpt><trkpt lat="35.6874900575186" lon="-5.930818874290226"><ele>6.999999999999999</ele><time>2026-04-22T10:52:19Z</time></trkpt><trkpt lat="35.68754419450441" lon="-5.930923680337896"><ele>6.999999999999999</ele><time>2026-04-22T10:52:20Z</time></trkpt><trkpt lat="35.68760591902438" lon="-5.9310467219511365"><ele>7.0</ele><time>2026-04-22T10:52:21Z</time></trkpt><trkpt lat="35.6876749906147" lon="-5.9311834359929065"><ele>7.0</ele><time>2026-04-22T10:52:22Z</time></trkpt><trkpt lat="35.68774476621447" lon="-5.931322743072289"><ele>7.25</ele><time>2026-04-22T10:52:23Z</time></trkpt><trkpt lat="35.68781373723951" lon="-5.931460122418509"><ele>7.5</ele><time>2026-04-22T10:52:24Z</time></trkpt><trkpt lat="35.68788154063594" lon="-5.931601818995927"><ele>7.75</ele><time>2026-04-22T10:52:25Z</time></trkpt><trkpt lat="35.687947121011526" lon="-5.9317467437262765"><ele>8.0</ele><time>2026-04-22T10:52:26Z</time></trkpt><trkpt lat="35.68801072926268" lon="-5.931891636111923"><ele>7.5</ele><time>2026-04-22T10:52:27Z</time></trkpt><trkpt lat="35.688070664480456" lon="-5.932040682828886"><ele>7.0</ele><time>2026-04-22T10:52:28Z</time></trkpt><trkpt lat="35.68812671593326" lon="-5.932193726000367"><ele>6.5</ele><time>2026-04-22T10:52:29Z</time></trkpt><trkpt lat="35.68817632247408" lon="-5.932351181781077"><ele>6.0</ele><time>2026-04-22T10:52:30Z</time></trkpt><trkpt lat="35.688223076830994" lon="-5.932514040002534"><ele>5.75</ele><time>2026-04-22T10:52:31Z</time></trkpt><trkpt lat="35.68826780269958" lon="-5.932679070200085"><ele>5.5</ele><time>2026-04-22T10:52:32Z</time></trkpt><trkpt lat="35.688307272423906" lon="-5.932841289846604"><ele>5.25</ele><time>2026-04-22T10:52:33.001Z</time></trkpt><trkpt lat="35.68834010169867" lon="-5.932999399852401"><ele>5.0</ele><time>2026-04-22T10:52:34.001Z</time></trkpt><trkpt lat="35.68836808312922" lon="-5.933160825722878"><ele>5.0</ele><time>2026-04-22T10:52:35.001Z</time></trkpt><trkpt lat="35.68839272776915" lon="-5.933325497026457"><ele>5.0</ele><time>2026-04-22T10:52:36.001Z</time></trkpt><trkpt lat="35.68841395881387" lon="-5.933493321443201"><ele>5.0</ele><time>2026-04-22T10:52:37.001Z</time></trkpt><trkpt lat="35.688429777982044" lon="-5.9336645624555615"><ele>5.0</ele><time>2026-04-22T10:52:38.001Z</time></trkpt><trkpt lat="35.688439254294025" lon="-5.93383767504919"><ele>5.0</ele><time>2026-04-22T10:52:39.001Z</time></trkpt><trkpt lat="35.68844426134822" lon="-5.93400821991984"><ele>5.0</ele><time>2026-04-22T10:52:40.001Z</time></trkpt><trkpt lat="35.688447197272986" lon="-5.934177895329775"><ele>5.0</ele><time>2026-04-22T10:52:41.001Z</time></trkpt><trkpt lat="35.68845146268327" lon="-5.934350236513498"><ele>5.0</ele><time>2026-04-22T10:52:42.001Z</time></trkpt><trkpt lat="35.68845683466548" lon="-5.934523012225679"><ele>5.5</ele><time>2026-04-22T10:52:43.001Z</time></trkpt><trkpt lat="35.6884631014926" lon="-5.934691798184069"><ele>6.0</ele><time>2026-04-22T10:52:44Z</time></trkpt><trkpt lat="35.688468975543906" lon="-5.934856625932481"><ele>6.5</ele><time>2026-04-22T10:52:45Z</time></trkpt><trkpt lat="35.68847299790561" lon="-5.935017418505927"><ele>7.0</ele><time>2026-04-22T10:52:46Z</time></trkpt><trkpt lat="35.688477079381464" lon="-5.935172405755632"><ele>7.0</ele><time>2026-04-22T10:52:47Z</time></trkpt><trkpt lat="35.688483941827414" lon="-5.935324019169323"><ele>7.0</ele><time>2026-04-22T10:52:48Z</time></trkpt><trkpt lat="35.688493960407" lon="-5.935466022607838"><ele>7.0</ele><time>2026-04-22T10:52:49Z</time></trkpt><trkpt lat="35.6885105506559" lon="-5.935603553204221"><ele>7.0</ele><time>2026-04-22T10:52:50Z</time></trkpt><trkpt lat="35.688532493514" lon="-5.935740007072039"><ele>7.0</ele><time>2026-04-22T10:52:51Z</time></trkpt><trkpt lat="35.688562812271144" lon="-5.935882612695187"><ele>7.0</ele><time>2026-04-22T10:52:52Z</time></trkpt><trkpt lat="35.68859342038577" lon="-5.936022350065422"><ele>7.0</ele><time>2026-04-22T10:52:53Z</time></trkpt><trkpt lat="35.68863111902219" lon="-5.936166890113628"><ele>7.0</ele><time>2026-04-22T10:52:54Z</time></trkpt><trkpt lat="35.68867765657341" lon="-5.93631295769734"><ele>7.25</ele><time>2026-04-22T10:52:55Z</time></trkpt><trkpt lat="35.688733566727" lon="-5.936461896329445"><ele>7.5</ele><time>2026-04-22T10:52:56Z</time></trkpt><trkpt lat="35.688798196918164" lon="-5.936614295859485"><ele>7.75</ele><time>2026-04-22T10:52:57Z</time></trkpt><trkpt lat="35.6888722306821" lon="-5.936766177823471"><ele>8.0</ele><time>2026-04-22T10:52:58Z</time></trkpt><trkpt lat="35.688956141376075" lon="-5.936920576333085"><ele>8.0</ele><time>2026-04-22T10:52:59Z</time></trkpt><trkpt lat="35.6890525783259" lon="-5.937072605492014"><ele>8.0</ele><time>2026-04-22T10:53:00Z</time></trkpt><trkpt lat="35.68915670181963" lon="-5.93721933935084"><ele>8.0</ele><time>2026-04-22T10:53:01Z</time></trkpt><trkpt lat="35.68926746381259" lon="-5.9373633795546334"><ele>8.0</ele><time>2026-04-22T10:53:02Z</time></trkpt><trkpt lat="35.68938115146491" lon="-5.937506698432735"><ele>8.0</ele><time>2026-04-22T10:53:03Z</time></trkpt><trkpt lat="35.68949766034868" lon="-5.937648065470565"><ele>8.0</ele><time>2026-04-22T10:53:04Z</time></trkpt><trkpt lat="35.68961571826943" lon="-5.937787075221143"><ele>7.666666666666666</ele><time>2026-04-22T10:53:05Z</time></trkpt><trkpt lat="35.689736567842395" lon="-5.937918857960721"><ele>7.333333333333334</ele><time>2026-04-22T10:53:06Z</time></trkpt><trkpt lat="35.68986475142699" lon="-5.938049273023652"><ele>7.0</ele><time>2026-04-22T10:53:07Z</time></trkpt><trkpt lat="35.689998789012" lon="-5.938174978315105"><ele>7.0</ele><time>2026-04-22T10:53:08Z</time></trkpt><trkpt lat="35.69013737301512" lon="-5.93829350996863"><ele>7.0</ele><time>2026-04-22T10:53:09Z</time></trkpt><trkpt lat="35.69028139792188" lon="-5.938404476339349"><ele>7.0</ele><time>2026-04-22T10:53:10Z</time></trkpt><trkpt lat="35.690429291217704" lon="-5.938508131723554"><ele>6.666666666666667</ele><time>2026-04-22T10:53:11Z</time></trkpt><trkpt lat="35.690584579182854" lon="-5.938606620769576"><ele>6.333333333333334</ele><time>2026-04-22T10:53:12Z</time></trkpt><trkpt lat="35.69074087043534" lon="-5.938703972375833"><ele>6.0</ele><time>2026-04-22T10:53:13Z</time></trkpt><trkpt lat="35.69089705957699" lon="-5.938803452315489"><ele>6.0</ele><time>2026-04-22T10:53:14Z</time></trkpt><trkpt lat="35.691055039713135" lon="-5.938905762636103"><ele>6.0</ele><time>2026-04-22T10:53:15Z</time></trkpt><trkpt lat="35.69121223985634" lon="-5.93901162579937"><ele>6.0</ele><time>2026-04-22T10:53:16Z</time></trkpt><trkpt lat="35.69136999316846" lon="-5.939119440931916"><ele>5.0</ele><time>2026-04-22T10:53:17Z</time></trkpt><trkpt lat="35.691528146465934" lon="-5.939231772820601"><ele>4.0</ele><time>2026-04-22T10:53:18Z</time></trkpt><trkpt lat="35.69168318141261" lon="-5.939347932586305"><ele>3.0</ele><time>2026-04-22T10:53:19Z</time></trkpt><trkpt lat="35.691832228576786" lon="-5.939467141741044"><ele>4.666666666666666</ele><time>2026-04-22T10:53:20Z</time></trkpt><trkpt lat="35.69197497550638" lon="-5.939583592169158"><ele>6.333333333333333</ele><time>2026-04-22T10:53:21Z</time></trkpt><trkpt lat="35.69211595315449" lon="-5.939699945858145"><ele>8.0</ele><time>2026-04-22T10:53:22Z</time></trkpt><trkpt lat="35.692257549287476" lon="-5.939816402941023"><ele>8.0</ele><time>2026-04-22T10:53:23Z</time></trkpt><trkpt lat="35.6923920505225" lon="-5.939930671024033"><ele>8.0</ele><time>2026-04-22T10:53:24Z</time></trkpt><trkpt lat="35.69251545568944" lon="-5.9400367140152195"><ele>8.0</ele><time>2026-04-22T10:53:25Z</time></trkpt><trkpt lat="35.69263020977194" lon="-5.940140276219632"><ele>7.25</ele><time>2026-04-22T10:53:26Z</time></trkpt><trkpt lat="35.69274122928403" lon="-5.940243258226766"><ele>6.5</ele><time>2026-04-22T10:53:27Z</time></trkpt><trkpt lat="35.69285100760782" lon="-5.940346834509431"><ele>5.75</ele><time>2026-04-22T10:53:28Z</time></trkpt><trkpt lat="35.69295510938832" lon="-5.940444897258075"><ele>5.0</ele><time>2026-04-22T10:53:29Z</time></trkpt><trkpt lat="35.69304890471513" lon="-5.940536532385831"><ele>5.0</ele><time>2026-04-22T10:53:30Z</time></trkpt><trkpt lat="35.693134070073675" lon="-5.940622493154149"><ele>5.0</ele><time>2026-04-22T10:53:31Z</time></trkpt><trkpt lat="35.69321302656892" lon="-5.94070545140609"><ele>5.0</ele><time>2026-04-22T10:53:32Z</time></trkpt><trkpt lat="35.69329263134768" lon="-5.94078481450511"><ele>5.0</ele><time>2026-04-22T10:53:33Z</time></trkpt><trkpt lat="35.69337808504029" lon="-5.940863347208883"><ele>5.0</ele><time>2026-04-22T10:53:34Z</time></trkpt><trkpt lat="35.693472199040755" lon="-5.940943831380864"><ele>5.0</ele><time>2026-04-22T10:53:35Z</time></trkpt><trkpt lat="35.69357212573174" lon="-5.941026408053995"><ele>5.0</ele><time>2026-04-22T10:53:36Z</time></trkpt><trkpt lat="35.69367635105468" lon="-5.941111087516703"><ele>5.0</ele><time>2026-04-22T10:53:37Z</time></trkpt><trkpt lat="35.69378493276535" lon="-5.94119886351522"><ele>5.0</ele><time>2026-04-22T10:53:38Z</time></trkpt><trkpt lat="35.69389839064122" lon="-5.94128941033426"><ele>5.0</ele><time>2026-04-22T10:53:39Z</time></trkpt><trkpt lat="35.69401754069443" lon="-5.941380950958878"><ele>5.0</ele><time>2026-04-22T10:53:40Z</time></trkpt><trkpt lat="35.69414296046259" lon="-5.941474264697879"><ele>5.0</ele><time>2026-04-22T10:53:41Z</time></trkpt><trkpt lat="35.694273620376336" lon="-5.941569125610767"><ele>5.0</ele><time>2026-04-22T10:53:42Z</time></trkpt><trkpt lat="35.69440885636559" lon="-5.941665962513786"><ele>4.666666666666667</ele><time>2026-04-22T10:53:43Z</time></trkpt><trkpt lat="35.694544687139896" lon="-5.9417608642616075"><ele>4.333333333333333</ele><time>2026-04-22T10:53:44Z</time></trkpt><trkpt lat="35.69468282168435" lon="-5.94185364467684"><ele>4.0</ele><time>2026-04-22T10:53:45Z</time></trkpt><trkpt lat="35.694826864141824" lon="-5.94194398450527"><ele>4.0</ele><time>2026-04-22T10:53:46Z</time></trkpt><trkpt lat="35.694974589118985" lon="-5.9420303639160945"><ele>4.0</ele><time>2026-04-22T10:53:47Z</time></trkpt><trkpt lat="35.69512385736797" lon="-5.942116248151656"><ele>4.0</ele><time>2026-04-22T10:53:48Z</time></trkpt><trkpt lat="35.69527544713291" lon="-5.94220230856685"><ele>4.333333333333333</ele><time>2026-04-22T10:53:49Z</time></trkpt><trkpt lat="35.69542874161773" lon="-5.942288241415931"><ele>4.666666666666667</ele><time>2026-04-22T10:53:50Z</time></trkpt><trkpt lat="35.69558586297264" lon="-5.942373262224242"><ele>5.0</ele><time>2026-04-22T10:53:51Z</time></trkpt><trkpt lat="35.6957439009939" lon="-5.9424562968936785"><ele>5.0</ele><time>2026-04-22T10:53:52Z</time></trkpt><trkpt lat="35.69590232318345" lon="-5.942543342742225"><ele>5.0</ele><time>2026-04-22T10:53:53Z</time></trkpt><trkpt lat="35.6960597304972" lon="-5.942634395251997"><ele>5.0</ele><time>2026-04-22T10:53:54Z</time></trkpt><trkpt lat="35.69621933814016" lon="-5.942730294756736"><ele>4.333333333333334</ele><time>2026-04-22T10:53:55Z</time></trkpt><trkpt lat="35.696377611612185" lon="-5.942828636409576"><ele>3.666666666666667</ele><time>2026-04-22T10:53:56Z</time></trkpt><trkpt lat="35.69653762809262" lon="-5.942929516025486"><ele>3.0</ele><time>2026-04-22T10:53:57Z</time></trkpt><trkpt lat="35.69669813272965" lon="-5.9430328652513325"><ele>3.0</ele><time>2026-04-22T10:53:58Z</time></trkpt><trkpt lat="35.69685969540675" lon="-5.943139011956504"><ele>3.0</ele><time>2026-04-22T10:53:59Z</time></trkpt><trkpt lat="35.69702018192774" lon="-5.943249234355303"><ele>3.0</ele><time>2026-04-22T10:54:00Z</time></trkpt><trkpt lat="35.69717880746157" lon="-5.943363223689612"><ele>3.333333333333333</ele><time>2026-04-22T10:54:01Z</time></trkpt><trkpt lat="35.69733472634592" lon="-5.943479642759628"><ele>3.6666666666666665</ele><time>2026-04-22T10:54:02Z</time></trkpt><trkpt lat="35.69748773828759" lon="-5.943597383393648"><ele>4.0</ele><time>2026-04-22T10:54:03Z</time></trkpt><trkpt lat="35.69763800806288" lon="-5.943715099875665"><ele>5.333333333333333</ele><time>2026-04-22T10:54:04Z</time></trkpt><trkpt lat="35.69778582215903" lon="-5.94383160779592"><ele>6.666666666666666</ele><time>2026-04-22T10:54:05Z</time></trkpt><trkpt lat="35.697930560634006" lon="-5.943947174595985"><ele>8.0</ele><time>2026-04-22T10:54:06Z</time></trkpt><trkpt lat="35.698074495137725" lon="-5.944058819850823"><ele>8.0</ele><time>2026-04-22T10:54:07Z</time></trkpt><trkpt lat="35.69821622833749" lon="-5.944167565730127"><ele>8.0</ele><time>2026-04-22T10:54:08Z</time></trkpt><trkpt lat="35.69835627080101" lon="-5.944271193260266"><ele>8.0</ele><time>2026-04-22T10:54:09Z</time></trkpt><trkpt lat="35.69849966880963" lon="-5.944371245039408"><ele>7.0</ele><time>2026-04-22T10:54:10Z</time></trkpt><trkpt lat="35.698652677164915" lon="-5.944468462377334"><ele>6.0</ele><time>2026-04-22T10:54:11Z</time></trkpt><trkpt lat="35.69880799682557" lon="-5.944561380836451"><ele>5.0</ele><time>2026-04-22T10:54:12Z</time></trkpt><trkpt lat="35.69896434031733" lon="-5.944651260153824"><ele>5.0</ele><time>2026-04-22T10:54:13Z</time></trkpt><trkpt lat="35.69912295491843" lon="-5.944738806193928"><ele>5.0</ele><time>2026-04-22T10:54:14Z</time></trkpt><trkpt lat="35.69928499083269" lon="-5.944821729175871"><ele>5.0</ele><time>2026-04-22T10:54:15Z</time></trkpt><trkpt lat="35.699449084434185" lon="-5.944899593692362"><ele>5.666666666666667</ele><time>2026-04-22T10:54:16Z</time></trkpt><trkpt lat="35.699615995291104" lon="-5.944974089077264"><ele>6.333333333333334</ele><time>2026-04-22T10:54:17Z</time></trkpt><trkpt lat="35.69978493932902" lon="-5.945045659672491"><ele>7.0</ele><time>2026-04-22T10:54:18Z</time></trkpt><trkpt lat="35.69995646022774" lon="-5.945113692252175"><ele>6.0</ele><time>2026-04-22T10:54:19Z</time></trkpt><trkpt lat="35.70012372336826" lon="-5.94517299992832"><ele>5.0</ele><time>2026-04-22T10:54:20Z</time></trkpt><trkpt lat="35.70028258652519" lon="-5.945223042642826"><ele>4.0</ele><time>2026-04-22T10:54:21Z</time></trkpt><trkpt lat="35.700432619534986" lon="-5.945266888815515"><ele>4.0</ele><time>2026-04-22T10:54:22Z</time></trkpt><trkpt lat="35.70057508274678" lon="-5.945302987120078"><ele>4.0</ele><time>2026-04-22T10:54:23Z</time></trkpt><trkpt lat="35.70070734504145" lon="-5.945332167874869"><ele>4.0</ele><time>2026-04-22T10:54:24Z</time></trkpt><trkpt lat="35.700829137166004" lon="-5.945356462056333"><ele>4.0</ele><time>2026-04-22T10:54:25Z</time></trkpt><trkpt lat="35.70094033757503" lon="-5.945377665222185"><ele>4.0</ele><time>2026-04-22T10:54:26Z</time></trkpt><trkpt lat="35.70104819604565" lon="-5.9453969334128205"><ele>4.0</ele><time>2026-04-22T10:54:27Z</time></trkpt><trkpt lat="35.70115344582284" lon="-5.945413679041475"><ele>4.0</ele><time>2026-04-22T10:54:28Z</time></trkpt><trkpt lat="35.701269022119" lon="-5.945426876796806"><ele>4.0</ele><time>2026-04-22T10:54:29Z</time></trkpt><trkpt lat="35.701388176314715" lon="-5.9454439217081365"><ele>4.0</ele><time>2026-04-22T10:54:30Z</time></trkpt><trkpt lat="35.701517248082475" lon="-5.9454565448896455"><ele>4.0</ele><time>2026-04-22T10:54:31Z</time></trkpt><trkpt lat="35.70165128798927" lon="-5.945465875441683"><ele>4.0</ele><time>2026-04-22T10:54:32Z</time></trkpt><trkpt lat="35.70179347768287" lon="-5.945471684539065"><ele>4.0</ele><time>2026-04-22T10:54:33Z</time></trkpt><trkpt lat="35.70193889668825" lon="-5.94547083063318"><ele>4.0</ele><time>2026-04-22T10:54:34Z</time></trkpt><trkpt lat="35.70208677386025" lon="-5.94546710419331"><ele>4.0</ele><time>2026-04-22T10:54:35Z</time></trkpt><trkpt lat="35.702237764222716" lon="-5.9454633994601"><ele>4.0</ele><time>2026-04-22T10:54:36Z</time></trkpt><trkpt lat="35.70238877487067" lon="-5.945460133192432"><ele>4.0</ele><time>2026-04-22T10:54:37Z</time></trkpt><trkpt lat="35.70253895733997" lon="-5.945467206047654"><ele>4.0</ele><time>2026-04-22T10:54:38Z</time></trkpt><trkpt lat="35.702685410915" lon="-5.9454942739844565"><ele>4.0</ele><time>2026-04-22T10:54:39Z</time></trkpt><trkpt lat="35.70282743868717" lon="-5.945548809612357"><ele>4.0</ele><time>2026-04-22T10:54:40Z</time></trkpt><trkpt lat="35.70296287273984" lon="-5.945623332835283"><ele>3.75</ele><time>2026-04-22T10:54:41Z</time></trkpt><trkpt lat="35.70309770210535" lon="-5.945699468720009"><ele>3.5</ele><time>2026-04-22T10:54:42Z</time></trkpt><trkpt lat="35.703234662187484" lon="-5.9457754765599935"><ele>3.25</ele><time>2026-04-22T10:54:43Z</time></trkpt><trkpt lat="35.70336795702506" lon="-5.945857339658876"><ele>3.0</ele><time>2026-04-22T10:54:44Z</time></trkpt><trkpt lat="35.70349481763907" lon="-5.9459350967697535"><ele>2.75</ele><time>2026-04-22T10:54:45Z</time></trkpt><trkpt lat="35.70362104912667" lon="-5.945997836905711"><ele>2.5</ele><time>2026-04-22T10:54:46Z</time></trkpt><trkpt lat="35.70375729278099" lon="-5.946042543501343"><ele>2.25</ele><time>2026-04-22T10:54:47Z</time></trkpt><trkpt lat="35.70390184707345" lon="-5.946074515224439"><ele>2.0</ele><time>2026-04-22T10:54:48Z</time></trkpt><trkpt lat="35.704054568726185" lon="-5.946087430468596"><ele>2.0</ele><time>2026-04-22T10:54:49Z</time></trkpt><trkpt lat="35.70420706420836" lon="-5.946070376000459"><ele>2.0</ele><time>2026-04-22T10:54:50Z</time></trkpt><trkpt lat="35.70436193299582" lon="-5.946067242710415"><ele>2.0</ele><time>2026-04-22T10:54:51Z</time></trkpt><trkpt lat="35.70451906134104" lon="-5.946082242789148"><ele>2.6666666666666665</ele><time>2026-04-22T10:54:52Z</time></trkpt><trkpt lat="35.70467326719783" lon="-5.946071729336504"><ele>3.333333333333333</ele><time>2026-04-22T10:54:53Z</time></trkpt><trkpt lat="35.704824262597754" lon="-5.946063583837922"><ele>4.0</ele><time>2026-04-22T10:54:54Z</time></trkpt><trkpt lat="35.70497155237972" lon="-5.9460604125953"><ele>4.0</ele><time>2026-04-22T10:54:55Z</time></trkpt><trkpt lat="35.705117624220144" lon="-5.946058673736956"><ele>4.0</ele><time>2026-04-22T10:54:56Z</time></trkpt><trkpt lat="35.70525764087453" lon="-5.946053757744027"><ele>4.0</ele><time>2026-04-22T10:54:57Z</time></trkpt><trkpt lat="35.70539193543335" lon="-5.946047049511993"><ele>4.0</ele><time>2026-04-22T10:54:58Z</time></trkpt><trkpt lat="35.70551949120508" lon="-5.946040673845079"><ele>4.2</ele><time>2026-04-22T10:54:59Z</time></trkpt><trkpt lat="35.70563982971791" lon="-5.946030334820733"><ele>4.4</ele><time>2026-04-22T10:55:00Z</time></trkpt><trkpt lat="35.7057539013959" lon="-5.946012567763353"><ele>4.6</ele><time>2026-04-22T10:55:01Z</time></trkpt><trkpt lat="35.70586123716004" lon="-5.945983456730857"><ele>4.8</ele><time>2026-04-22T10:55:02Z</time></trkpt><trkpt lat="35.70595196657054" lon="-5.945949457326656"><ele>5.0</ele><time>2026-04-22T10:55:03Z</time></trkpt><trkpt lat="35.70603507195054" lon="-5.945923812412435"><ele>6.2</ele><time>2026-04-22T10:55:04Z</time></trkpt><trkpt lat="35.70611006019144" lon="-5.945897069674087"><ele>7.4</ele><time>2026-04-22T10:55:05Z</time></trkpt><trkpt lat="35.70619078266076" lon="-5.945909117019397"><ele>8.600000000000001</ele><time>2026-04-22T10:55:06Z</time></trkpt><trkpt lat="35.70624649364875" lon="-5.946016780749865"><ele>9.8</ele><time>2026-04-22T10:55:07Z</time></trkpt><trkpt lat="35.70631111164042" lon="-5.946105222708315"><ele>11.0</ele><time>2026-04-22T10:55:08Z</time></trkpt><trkpt lat="35.70639336537748" lon="-5.9461866739647915"><ele>11.0</ele><time>2026-04-22T10:55:09Z</time></trkpt><trkpt lat="35.706493770649445" lon="-5.946258941994471"><ele>11.0</ele><time>2026-04-22T10:55:10Z</time></trkpt><trkpt lat="35.706602882356236" lon="-5.946325469010646"><ele>11.0</ele><time>2026-04-22T10:55:11Z</time></trkpt><trkpt lat="35.70671973184688" lon="-5.946386988414408"><ele>11.0</ele><time>2026-04-22T10:55:12Z</time></trkpt><trkpt lat="35.70684370700885" lon="-5.946437959238257"><ele>12.25</ele><time>2026-04-22T10:55:13Z</time></trkpt><trkpt lat="35.70696982052767" lon="-5.946485387612149"><ele>13.5</ele><time>2026-04-22T10:55:14Z</time></trkpt><trkpt lat="35.70710148706832" lon="-5.9465347450314905"><ele>14.75</ele><time>2026-04-22T10:55:15Z</time></trkpt><trkpt lat="35.707234188823" lon="-5.946589061340776"><ele>16.0</ele><time>2026-04-22T10:55:16Z</time></trkpt><trkpt lat="35.70736722956171" lon="-5.946648424141823"><ele>16.0</ele><time>2026-04-22T10:55:17Z</time></trkpt><trkpt lat="35.70750553032564" lon="-5.946702625036926"><ele>16.0</ele><time>2026-04-22T10:55:18Z</time></trkpt><trkpt lat="35.70764583250226" lon="-5.946753773639516"><ele>16.0</ele><time>2026-04-22T10:55:19Z</time></trkpt><trkpt lat="35.70778272488287" lon="-5.946808120887698"><ele>16.0</ele><time>2026-04-22T10:55:20Z</time></trkpt><trkpt lat="35.70791597101542" lon="-5.946862229156917"><ele>15.0</ele><time>2026-04-22T10:55:21Z</time></trkpt><trkpt lat="35.70803801704436" lon="-5.946913171269213"><ele>14.000000000000002</ele><time>2026-04-22T10:55:22Z</time></trkpt><trkpt lat="35.70814796885011" lon="-5.946961321322046"><ele>13.0</ele><time>2026-04-22T10:55:23Z</time></trkpt><trkpt lat="35.70824875243032" lon="-5.947003927271277"><ele>12.0</ele><time>2026-04-22T10:55:24Z</time></trkpt><trkpt lat="35.70833437977772" lon="-5.947041578145936"><ele>11.0</ele><time>2026-04-22T10:55:25Z</time></trkpt><trkpt lat="35.70841577643164" lon="-5.947077210598363"><ele>11.0</ele><time>2026-04-22T10:55:26Z</time></trkpt><trkpt lat="35.70849651532203" lon="-5.947109123543407"><ele>11.0</ele><time>2026-04-22T10:55:27Z</time></trkpt><trkpt lat="35.7085780013881" lon="-5.947143157772259"><ele>11.0</ele><time>2026-04-22T10:55:28Z</time></trkpt><trkpt lat="35.70867470543444" lon="-5.947183805653621"><ele>11.0</ele><time>2026-04-22T10:55:29Z</time></trkpt><trkpt lat="35.708779783316366" lon="-5.9472235034656595"><ele>11.0</ele><time>2026-04-22T10:55:30Z</time></trkpt><trkpt lat="35.708893039665625" lon="-5.947266788383662"><ele>11.5</ele><time>2026-04-22T10:55:31Z</time></trkpt><trkpt lat="35.70901306089546" lon="-5.947311221859101"><ele>12.0</ele><time>2026-04-22T10:55:32Z</time></trkpt><trkpt lat="35.70913608673159" lon="-5.9473540501737485"><ele>12.5</ele><time>2026-04-22T10:55:33Z</time></trkpt><trkpt lat="35.70926485202416" lon="-5.947392742010909"><ele>13.0</ele><time>2026-04-22T10:55:34Z</time></trkpt><trkpt lat="35.70940327460369" lon="-5.947423616941151"><ele>14.5</ele><time>2026-04-22T10:55:35Z</time></trkpt><trkpt lat="35.709540505995285" lon="-5.947443968852605"><ele>16.0</ele><time>2026-04-22T10:55:36Z</time></trkpt><trkpt lat="35.70967670109954" lon="-5.947457751609083"><ele>17.5</ele><time>2026-04-22T10:55:37Z</time></trkpt><trkpt lat="35.70981183904496" lon="-5.947470323860021"><ele>19.0</ele><time>2026-04-22T10:55:38Z</time></trkpt><trkpt lat="35.70994067734691" lon="-5.947485153437344"><ele>19.0</ele><time>2026-04-22T10:55:39Z</time></trkpt><trkpt lat="35.71006376790586" lon="-5.947499041759604"><ele>19.0</ele><time>2026-04-22T10:55:40Z</time></trkpt><trkpt lat="35.71017427820291" lon="-5.947511860829265"><ele>19.0</ele><time>2026-04-22T10:55:41Z</time></trkpt><trkpt lat="35.71027124703681" lon="-5.947522794533068"><ele>19.0</ele><time>2026-04-22T10:55:42Z</time></trkpt><trkpt lat="35.7103628200501" lon="-5.9475336077831535"><ele>19.0</ele><time>2026-04-22T10:55:43Z</time></trkpt><trkpt lat="35.71045071081275" lon="-5.947542038507128"><ele>19.0</ele><time>2026-04-22T10:55:44Z</time></trkpt><trkpt lat="35.7105396076392" lon="-5.94755092418048"><ele>19.0</ele><time>2026-04-22T10:55:45Z</time></trkpt><trkpt lat="35.710636459404554" lon="-5.9475630300593325"><ele>19.0</ele><time>2026-04-22T10:55:46Z</time></trkpt><trkpt lat="35.71073716976873" lon="-5.947577820370377"><ele>19.0</ele><time>2026-04-22T10:55:47Z</time></trkpt><trkpt lat="35.710842148410634" lon="-5.947597131308121"><ele>19.0</ele><time>2026-04-22T10:55:48Z</time></trkpt><trkpt lat="35.710948433923456" lon="-5.947627105882336"><ele>19.0</ele><time>2026-04-22T10:55:49Z</time></trkpt><trkpt lat="35.71105370658766" lon="-5.947667722287668"><ele>19.0</ele><time>2026-04-22T10:55:50Z</time></trkpt><trkpt lat="35.71116187500285" lon="-5.947693133550905"><ele>19.0</ele><time>2026-04-22T10:55:51Z</time></trkpt><trkpt lat="35.711237136877244" lon="-5.947756581954195"><ele>19.0</ele><time>2026-04-22T10:55:52Z</time></trkpt><trkpt lat="35.71130962940166" lon="-5.947793904184083"><ele>19.0</ele><time>2026-04-22T10:55:53Z</time></trkpt><trkpt lat="35.71137248396596" lon="-5.94783368254838"><ele>18.666666666666664</ele><time>2026-04-22T10:55:54Z</time></trkpt><trkpt lat="35.71142860939747" lon="-5.947873564296971"><ele>18.333333333333332</ele><time>2026-04-22T10:55:55Z</time></trkpt><trkpt lat="35.71147942534794" lon="-5.947925406579025"><ele>18.0</ele><time>2026-04-22T10:55:56Z</time></trkpt><trkpt lat="35.71156179596821" lon="-5.948022560212886"><ele>17.666666666666668</ele><time>2026-04-22T10:55:58Z</time></trkpt><trkpt lat="35.711606422188346" lon="-5.94810588487944"><ele>17.333333333333336</ele><time>2026-04-22T10:56:00Z</time></trkpt><trkpt lat="35.71165319123982" lon="-5.948215223522571"><ele>17.0</ele><time>2026-04-22T10:56:41.999Z</time></trkpt><trkpt lat="35.71172069502657" lon="-5.948357091645842"><ele>17.2</ele><time>2026-04-22T10:56:43.999Z</time></trkpt><trkpt lat="35.71175911421844" lon="-5.9484408588363555"><ele>17.4</ele><time>2026-04-22T10:56:45Z</time></trkpt><trkpt lat="35.71180298491239" lon="-5.948538306876696"><ele>17.6</ele><time>2026-04-22T10:56:46Z</time></trkpt><trkpt lat="35.71184947460676" lon="-5.948639191210185"><ele>17.8</ele><time>2026-04-22T10:56:47Z</time></trkpt><trkpt lat="35.71189984145963" lon="-5.948751325526564"><ele>18.0</ele><time>2026-04-22T10:56:48Z</time></trkpt><trkpt lat="35.71195357507804" lon="-5.94887305641423"><ele>17.25</ele><time>2026-04-22T10:56:49Z</time></trkpt><trkpt lat="35.71201041062799" lon="-5.9490015871895885"><ele>16.5</ele><time>2026-04-22T10:56:50Z</time></trkpt><trkpt lat="35.71206959101285" lon="-5.949131664846004"><ele>15.75</ele><time>2026-04-22T10:56:51Z</time></trkpt><trkpt lat="35.71212929099685" lon="-5.949258828088459"><ele>15.0</ele><time>2026-04-22T10:56:52Z</time></trkpt><trkpt lat="35.71218980562183" lon="-5.949387055384255"><ele>14.75</ele><time>2026-04-22T10:56:53Z</time></trkpt><trkpt lat="35.71225467933422" lon="-5.94951400871833"><ele>14.5</ele><time>2026-04-22T10:56:54Z</time></trkpt><trkpt lat="35.712327845281415" lon="-5.949641900594421"><ele>14.25</ele><time>2026-04-22T10:56:55Z</time></trkpt><trkpt lat="35.71241349325463" lon="-5.9497599647735395"><ele>14.0</ele><time>2026-04-22T10:56:56Z</time></trkpt><trkpt lat="35.71251031143116" lon="-5.949866554830771"><ele>14.0</ele><time>2026-04-22T10:56:57Z</time></trkpt><trkpt lat="35.71261722045946" lon="-5.949957926499945"><ele>14.0</ele><time>2026-04-22T10:56:58Z</time></trkpt><trkpt lat="35.71273979782974" lon="-5.9500306460514"><ele>14.0</ele><time>2026-04-22T10:56:59Z</time></trkpt><trkpt lat="35.71287374210778" lon="-5.950090088757293"><ele>14.0</ele><time>2026-04-22T10:57:00Z</time></trkpt><trkpt lat="35.71301566310711" lon="-5.95013643646426"><ele>12.25</ele><time>2026-04-22T10:57:01Z</time></trkpt><trkpt lat="35.713165728042426" lon="-5.950165237359042"><ele>10.5</ele><time>2026-04-22T10:57:02Z</time></trkpt><trkpt lat="35.71331501162516" lon="-5.950171610286186"><ele>8.75</ele><time>2026-04-22T10:57:03Z</time></trkpt><trkpt lat="35.713452386083766" lon="-5.950164060190356"><ele>7.0</ele><time>2026-04-22T10:57:04Z</time></trkpt><trkpt lat="35.713579334181716" lon="-5.950144832524832"><ele>6.8</ele><time>2026-04-22T10:57:05Z</time></trkpt><trkpt lat="35.71369747861234" lon="-5.950114644523522"><ele>6.6</ele><time>2026-04-22T10:57:06Z</time></trkpt><trkpt lat="35.71380711779698" lon="-5.950077392530326"><ele>6.3999999999999995</ele><time>2026-04-22T10:57:07Z</time></trkpt><trkpt lat="35.71391133951934" lon="-5.950042026659394"><ele>6.199999999999999</ele><time>2026-04-22T10:57:08Z</time></trkpt><trkpt lat="35.714011847686045" lon="-5.950007739598437"><ele>6.0</ele><time>2026-04-22T10:57:09Z</time></trkpt><trkpt lat="35.714109888573354" lon="-5.949974000728828"><ele>6.0</ele><time>2026-04-22T10:57:10Z</time></trkpt><trkpt lat="35.7142075215889" lon="-5.949939657675481"><ele>6.0</ele><time>2026-04-22T10:57:11Z</time></trkpt><trkpt lat="35.71431135029729" lon="-5.949903376109541"><ele>6.0</ele><time>2026-04-22T10:57:12Z</time></trkpt><trkpt lat="35.71442459876309" lon="-5.949864904744497"><ele>6.0</ele><time>2026-04-22T10:57:13Z</time></trkpt><trkpt lat="35.714544962394775" lon="-5.949824044879705"><ele>5.0</ele><time>2026-04-22T10:57:14Z</time></trkpt><trkpt lat="35.71466930254673" lon="-5.949780630520239"><ele>4.0</ele><time>2026-04-22T10:57:15Z</time></trkpt><trkpt lat="35.714793369810586" lon="-5.949735753267276"><ele>3.0</ele><time>2026-04-22T10:57:16Z</time></trkpt><trkpt lat="35.714922862907386" lon="-5.949682958102258"><ele>2.0</ele><time>2026-04-22T10:57:17Z</time></trkpt><trkpt lat="35.71505920274711" lon="-5.949633967333704"><ele>2.0</ele><time>2026-04-22T10:57:18Z</time></trkpt><trkpt lat="35.71520000486165" lon="-5.949582339750604"><ele>2.0</ele><time>2026-04-22T10:57:19Z</time></trkpt><trkpt lat="35.71534202360984" lon="-5.9495309777138665"><ele>2.0</ele><time>2026-04-22T10:57:20Z</time></trkpt><trkpt lat="35.71548543048036" lon="-5.949476597545444"><ele>2.0</ele><time>2026-04-22T10:57:21Z</time></trkpt><trkpt lat="35.71563073051031" lon="-5.9494197515728695"><ele>2.0</ele><time>2026-04-22T10:57:22Z</time></trkpt><trkpt lat="35.715777966819836" lon="-5.94936481004619"><ele>2.0</ele><time>2026-04-22T10:57:23Z</time></trkpt><trkpt lat="35.71592843218827" lon="-5.949310440877486"><ele>2.0</ele><time>2026-04-22T10:57:24Z</time></trkpt><trkpt lat="35.716083266799814" lon="-5.949254920549367"><ele>4.333333333333333</ele><time>2026-04-22T10:57:25Z</time></trkpt><trkpt lat="35.71624130786958" lon="-5.949197746161821"><ele>6.666666666666667</ele><time>2026-04-22T10:57:26Z</time></trkpt><trkpt lat="35.71640114315733" lon="-5.949140095219005"><ele>9.0</ele><time>2026-04-22T10:57:27Z</time></trkpt><trkpt lat="35.71655660626281" lon="-5.949081372963535"><ele>9.0</ele><time>2026-04-22T10:57:28Z</time></trkpt><trkpt lat="35.71671346470758" lon="-5.949021507089095"><ele>9.0</ele><time>2026-04-22T10:57:29Z</time></trkpt><trkpt lat="35.716872969917326" lon="-5.948965800725795"><ele>9.0</ele><time>2026-04-22T10:57:30Z</time></trkpt><trkpt lat="35.71703195043" lon="-5.948910990772061"><ele>7.333333333333333</ele><time>2026-04-22T10:57:31Z</time></trkpt><trkpt lat="35.7171921831897" lon="-5.948856191898384"><ele>5.666666666666666</ele><time>2026-04-22T10:57:32Z</time></trkpt><trkpt lat="35.71734930835585" lon="-5.948802635475751"><ele>4.0</ele><time>2026-04-22T10:57:33Z</time></trkpt><trkpt lat="35.71750570203756" lon="-5.94874899207121"><ele>4.0</ele><time>2026-04-22T10:57:34Z</time></trkpt><trkpt lat="35.717662932685265" lon="-5.948697977982133"><ele>4.0</ele><time>2026-04-22T10:57:35Z</time></trkpt><trkpt lat="35.71782024225932" lon="-5.948645085416274"><ele>4.0</ele><time>2026-04-22T10:57:36Z</time></trkpt><trkpt lat="35.71797716883043" lon="-5.948593143183622"><ele>4.666666666666666</ele><time>2026-04-22T10:57:37Z</time></trkpt><trkpt lat="35.71813606288882" lon="-5.948543791145913"><ele>5.333333333333333</ele><time>2026-04-22T10:57:38Z</time></trkpt><trkpt lat="35.71829276633047" lon="-5.948497431274792"><ele>6.0</ele><time>2026-04-22T10:57:39Z</time></trkpt><trkpt lat="35.71845024879421" lon="-5.948450961612372"><ele>5.5</ele><time>2026-04-22T10:57:40Z</time></trkpt><trkpt lat="35.718601831059026" lon="-5.94840055082457"><ele>5.0</ele><time>2026-04-22T10:57:41Z</time></trkpt><trkpt lat="35.71874026965676" lon="-5.948352821929767"><ele>4.5</ele><time>2026-04-22T10:57:42Z</time></trkpt><trkpt lat="35.71886905813432" lon="-5.948312772778284"><ele>4.0</ele><time>2026-04-22T10:57:43Z</time></trkpt><trkpt lat="35.71898317425611" lon="-5.948279069025864"><ele>5.800000000000001</ele><time>2026-04-22T10:57:44Z</time></trkpt><trkpt lat="35.719086205168" lon="-5.948254808263563"><ele>7.6000000000000005</ele><time>2026-04-22T10:57:45Z</time></trkpt><trkpt lat="35.71917796286639" lon="-5.948235338171022"><ele>9.4</ele><time>2026-04-22T10:57:46Z</time></trkpt><trkpt lat="35.719270603999114" lon="-5.948215191858792"><ele>11.200000000000001</ele><time>2026-04-22T10:57:47Z</time></trkpt><trkpt lat="35.71936543177912" lon="-5.948196365471374"><ele>13.0</ele><time>2026-04-22T10:57:48Z</time></trkpt><trkpt lat="35.71946904509664" lon="-5.948180168490476"><ele>13.0</ele><time>2026-04-22T10:57:49Z</time></trkpt><trkpt lat="35.71957979064188" lon="-5.948157345441655"><ele>13.0</ele><time>2026-04-22T10:57:50Z</time></trkpt><trkpt lat="35.71969494193812" lon="-5.9481238847731195"><ele>13.0</ele><time>2026-04-22T10:57:51Z</time></trkpt><trkpt lat="35.71981103894344" lon="-5.948082363800352"><ele>13.0</ele><time>2026-04-22T10:57:52Z</time></trkpt><trkpt lat="35.71992773196686" lon="-5.948034857413193"><ele>13.0</ele><time>2026-04-22T10:57:53Z</time></trkpt><trkpt lat="35.72004561298518" lon="-5.947983883810159"><ele>13.0</ele><time>2026-04-22T10:57:54Z</time></trkpt><trkpt lat="35.72016133746764" lon="-5.9479273617031625"><ele>13.0</ele><time>2026-04-22T10:57:55Z</time></trkpt><trkpt lat="35.720273041316126" lon="-5.947868916624688"><ele>13.0</ele><time>2026-04-22T10:57:56Z</time></trkpt><trkpt lat="35.720377410081994" lon="-5.947810670274514"><ele>12.0</ele><time>2026-04-22T10:57:57Z</time></trkpt><trkpt lat="35.72047621786586" lon="-5.947754588311413"><ele>11.0</ele><time>2026-04-22T10:57:58Z</time></trkpt><trkpt lat="35.72056901129169" lon="-5.947700603106309"><ele>10.0</ele><time>2026-04-22T10:57:59Z</time></trkpt><trkpt lat="35.72065547876302" lon="-5.947652943206255"><ele>9.0</ele><time>2026-04-22T10:58:00Z</time></trkpt><trkpt lat="35.72073185420653" lon="-5.947608680994457"><ele>8.0</ele><time>2026-04-22T10:58:01Z</time></trkpt><trkpt lat="35.72079661076143" lon="-5.947569002402649"><ele>8.166666666666666</ele><time>2026-04-22T10:58:02Z</time></trkpt><trkpt lat="35.72085691718853" lon="-5.947531354650353"><ele>8.333333333333332</ele><time>2026-04-22T10:58:03Z</time></trkpt><trkpt lat="35.72091239160365" lon="-5.947489279670624"><ele>8.5</ele><time>2026-04-22T10:58:04Z</time></trkpt><trkpt lat="35.720995330527046" lon="-5.94739853553115"><ele>8.666666666666666</ele><time>2026-04-22T10:58:06Z</time></trkpt><trkpt lat="35.72104680638561" lon="-5.947322504047608"><ele>8.833333333333334</ele><time>2026-04-22T10:58:08Z</time></trkpt><trkpt lat="35.72111721791989" lon="-5.947239840563836"><ele>9.0</ele><time>2026-04-22T10:58:10Z</time></trkpt><trkpt lat="35.72116770942427" lon="-5.947192262169333"><ele>9.0</ele><time>2026-04-22T10:58:11Z</time></trkpt><trkpt lat="35.721249485082836" lon="-5.94721455491218"><ele>9.0</ele><time>2026-04-22T10:58:12Z</time></trkpt><trkpt lat="35.7213356561679" lon="-5.947213524347136"><ele>9.0</ele><time>2026-04-22T10:58:13Z</time></trkpt><trkpt lat="35.72142531419305" lon="-5.947196671487695"><ele>9.0</ele><time>2026-04-22T10:58:14Z</time></trkpt><trkpt lat="35.72151772507653" lon="-5.947156740337288"><ele>9.0</ele><time>2026-04-22T10:58:15Z</time></trkpt><trkpt lat="35.72161154651667" lon="-5.9471076776931495"><ele>9.0</ele><time>2026-04-22T10:58:16Z</time></trkpt><trkpt lat="35.72170936395018" lon="-5.947053361905625"><ele>9.0</ele><time>2026-04-22T10:58:17Z</time></trkpt><trkpt lat="35.72181107731565" lon="-5.946994265791647"><ele>9.0</ele><time>2026-04-22T10:58:18Z</time></trkpt><trkpt lat="35.72191713697354" lon="-5.946934352694055"><ele>9.0</ele><time>2026-04-22T10:58:19Z</time></trkpt><trkpt lat="35.722026252019226" lon="-5.9468732454983515"><ele>8.75</ele><time>2026-04-22T10:58:20Z</time></trkpt><trkpt lat="35.72213982901751" lon="-5.946807449472435"><ele>8.5</ele><time>2026-04-22T10:58:21Z</time></trkpt><trkpt lat="35.722257644730476" lon="-5.94674097486211"><ele>8.25</ele><time>2026-04-22T10:58:22Z</time></trkpt><trkpt lat="35.72237866676791" lon="-5.946673615301922"><ele>8.0</ele><time>2026-04-22T10:58:23Z</time></trkpt><trkpt lat="35.722500065346495" lon="-5.946606624044749"><ele>8.0</ele><time>2026-04-22T10:58:24Z</time></trkpt><trkpt lat="35.72262268925349" lon="-5.9465440324220715"><ele>8.0</ele><time>2026-04-22T10:58:25Z</time></trkpt><trkpt lat="35.72274048612805" lon="-5.946476676876444"><ele>8.0</ele><time>2026-04-22T10:58:26Z</time></trkpt><trkpt lat="35.722857885171436" lon="-5.946411730635142"><ele>8.0</ele><time>2026-04-22T10:58:27Z</time></trkpt><trkpt lat="35.722972650080386" lon="-5.94634978402694"><ele>7.800000000000001</ele><time>2026-04-22T10:58:28Z</time></trkpt><trkpt lat="35.723079613658626" lon="-5.946292046177678"><ele>7.6000000000000005</ele><time>2026-04-22T10:58:29Z</time></trkpt><trkpt lat="35.72317599856137" lon="-5.946237286397075"><ele>7.3999999999999995</ele><time>2026-04-22T10:58:30Z</time></trkpt><trkpt lat="35.72326895610693" lon="-5.946184075929975"><ele>7.199999999999999</ele><time>2026-04-22T10:58:31Z</time></trkpt><trkpt lat="35.72335616981047" lon="-5.946132649669025"><ele>7.0</ele><time>2026-04-22T10:58:32Z</time></trkpt><trkpt lat="35.72343743839585" lon="-5.946083225624695"><ele>7.0</ele><time>2026-04-22T10:58:32.999Z</time></trkpt><trkpt lat="35.723515962659015" lon="-5.946039599080128"><ele>6.999999999999999</ele><time>2026-04-22T10:58:33.999Z</time></trkpt><trkpt lat="35.72359175706514" lon="-5.945999022850625"><ele>6.999999999999999</ele><time>2026-04-22T10:58:34.999Z</time></trkpt><trkpt lat="35.72367017428925" lon="-5.945954563182599"><ele>7.0</ele><time>2026-04-22T10:58:35.999Z</time></trkpt><trkpt lat="35.72375757920096" lon="-5.945909161305015"><ele>7.0</ele><time>2026-04-22T10:58:36.999Z</time></trkpt><trkpt lat="35.72385225008787" lon="-5.945858561646922"><ele>7.5</ele><time>2026-04-22T10:58:37.999Z</time></trkpt><trkpt lat="35.72395448048328" lon="-5.9458068169916585"><ele>8.0</ele><time>2026-04-22T10:58:38.999Z</time></trkpt><trkpt lat="35.724061326406705" lon="-5.945750669342218"><ele>8.5</ele><time>2026-04-22T10:58:39.999Z</time></trkpt><trkpt lat="35.724170422456694" lon="-5.945691865206155"><ele>9.0</ele><time>2026-04-22T10:58:40.999Z</time></trkpt><trkpt lat="35.72428280190476" lon="-5.945634231394224"><ele>9.0</ele><time>2026-04-22T10:58:41.999Z</time></trkpt><trkpt lat="35.72439603614336" lon="-5.94557797905094"><ele>9.0</ele><time>2026-04-22T10:58:42.999Z</time></trkpt><trkpt lat="35.724507116456195" lon="-5.945517953727177"><ele>9.0</ele><time>2026-04-22T10:58:43.999Z</time></trkpt><trkpt lat="35.72461881021058" lon="-5.945458652511722"><ele>9.0</ele><time>2026-04-22T10:58:44.999Z</time></trkpt><trkpt lat="35.724729022911625" lon="-5.945405301082152"><ele>8.25</ele><time>2026-04-22T10:58:45.999Z</time></trkpt><trkpt lat="35.72483758179258" lon="-5.94534752897804"><ele>7.5</ele><time>2026-04-22T10:58:46.999Z</time></trkpt><trkpt lat="35.72494707236416" lon="-5.945290988275559"><ele>6.75</ele><time>2026-04-22T10:58:47.999Z</time></trkpt><trkpt lat="35.72505712459372" lon="-5.945235184589522"><ele>6.0</ele><time>2026-04-22T10:58:48.999Z</time></trkpt><trkpt lat="35.72516533378339" lon="-5.9451823652986135"><ele>6.4</ele><time>2026-04-22T10:58:49.999Z</time></trkpt><trkpt lat="35.72526736253989" lon="-5.945131147518671"><ele>6.8</ele><time>2026-04-22T10:58:51Z</time></trkpt><trkpt lat="35.72536246053657" lon="-5.945083640670365"><ele>7.200000000000001</ele><time>2026-04-22T10:58:52Z</time></trkpt><trkpt lat="35.72544696803707" lon="-5.945043921946532"><ele>7.6000000000000005</ele><time>2026-04-22T10:58:53Z</time></trkpt><trkpt lat="35.725524212865224" lon="-5.94500478543477"><ele>8.0</ele><time>2026-04-22T10:58:54Z</time></trkpt><trkpt lat="35.72559789092854" lon="-5.944968257049782"><ele>8.0</ele><time>2026-04-22T10:58:55Z</time></trkpt><trkpt lat="35.72568182565816" lon="-5.944928130009493"><ele>8.0</ele><time>2026-04-22T10:58:56Z</time></trkpt><trkpt lat="35.725768102948685" lon="-5.944881521731386"><ele>8.0</ele><time>2026-04-22T10:58:57Z</time></trkpt><trkpt lat="35.72585961718388" lon="-5.944831561251531"><ele>8.0</ele><time>2026-04-22T10:58:58Z</time></trkpt><trkpt lat="35.72595856783102" lon="-5.944780790633873"><ele>8.0</ele><time>2026-04-22T10:58:59Z</time></trkpt><trkpt lat="35.72606490430908" lon="-5.944727669293545"><ele>7.25</ele><time>2026-04-22T10:59:00Z</time></trkpt><trkpt lat="35.726175287424695" lon="-5.944675193433161"><ele>6.5</ele><time>2026-04-22T10:59:01Z</time></trkpt><trkpt lat="35.72629057479442" lon="-5.944620582821164"><ele>5.75</ele><time>2026-04-22T10:59:02Z</time></trkpt><trkpt lat="35.72640813223662" lon="-5.944564809615222"><ele>5.0</ele><time>2026-04-22T10:59:03Z</time></trkpt><trkpt lat="35.72652881105799" lon="-5.944506437266835"><ele>5.0</ele><time>2026-04-22T10:59:04Z</time></trkpt><trkpt lat="35.726650206169715" lon="-5.944445982031394"><ele>5.0</ele><time>2026-04-22T10:59:05Z</time></trkpt><trkpt lat="35.72676973394685" lon="-5.944388707806179"><ele>5.0</ele><time>2026-04-22T10:59:06Z</time></trkpt><trkpt lat="35.72688959272339" lon="-5.944331162256528"><ele>5.0</ele><time>2026-04-22T10:59:07Z</time></trkpt><trkpt lat="35.72700859813268" lon="-5.944276970212398"><ele>4.75</ele><time>2026-04-22T10:59:08Z</time></trkpt><trkpt lat="35.72712796366863" lon="-5.944220374735093"><ele>4.5</ele><time>2026-04-22T10:59:09Z</time></trkpt><trkpt lat="35.727244971862085" lon="-5.94415673695611"><ele>4.25</ele><time>2026-04-22T10:59:10Z</time></trkpt><trkpt lat="35.72736260252476" lon="-5.944094000038674"><ele>4.0</ele><time>2026-04-22T10:59:11Z</time></trkpt><trkpt lat="35.72748315193508" lon="-5.944031997936132"><ele>4.0</ele><time>2026-04-22T10:59:12Z</time></trkpt><trkpt lat="35.72760459660233" lon="-5.943966247583"><ele>4.0</ele><time>2026-04-22T10:59:13Z</time></trkpt><trkpt lat="35.727728689830805" lon="-5.943902820340028"><ele>4.0</ele><time>2026-04-22T10:59:14Z</time></trkpt><trkpt lat="35.72785419307875" lon="-5.943838754730769"><ele>4.0</ele><time>2026-04-22T10:59:15Z</time></trkpt><trkpt lat="35.72798102370134" lon="-5.943769922578468"><ele>4.0</ele><time>2026-04-22T10:59:16Z</time></trkpt><trkpt lat="35.728109743788366" lon="-5.943702524771654"><ele>4.0</ele><time>2026-04-22T10:59:17Z</time></trkpt><trkpt lat="35.72823993247311" lon="-5.94363344316152"><ele>4.0</ele><time>2026-04-22T10:59:18Z</time></trkpt><trkpt lat="35.72837314968591" lon="-5.9435638203788015"><ele>4.0</ele><time>2026-04-22T10:59:19Z</time></trkpt><trkpt lat="35.72850668664953" lon="-5.943493177037731"><ele>4.5</ele><time>2026-04-22T10:59:20Z</time></trkpt><trkpt lat="35.728641026225425" lon="-5.94342414797738"><ele>5.0</ele><time>2026-04-22T10:59:21Z</time></trkpt><trkpt lat="35.7287750699889" lon="-5.943355437594601"><ele>5.5</ele><time>2026-04-22T10:59:22Z</time></trkpt><trkpt lat="35.72891077138425" lon="-5.9432882047969064"><ele>6.0</ele><time>2026-04-22T10:59:23Z</time></trkpt><trkpt lat="35.72905076353388" lon="-5.943232130111325"><ele>6.0</ele><time>2026-04-22T10:59:24Z</time></trkpt><trkpt lat="35.72919632795897" lon="-5.943187442365428"><ele>6.0</ele><time>2026-04-22T10:59:25Z</time></trkpt><trkpt lat="35.72934598519715" lon="-5.943153223344655"><ele>6.0</ele><time>2026-04-22T10:59:26Z</time></trkpt><trkpt lat="35.72949707932392" lon="-5.943137289342408"><ele>5.666666666666667</ele><time>2026-04-22T10:59:27Z</time></trkpt><trkpt lat="35.72964984856491" lon="-5.943137487453481"><ele>5.333333333333334</ele><time>2026-04-22T10:59:28Z</time></trkpt><trkpt lat="35.72980402343335" lon="-5.943142388677691"><ele>5.0</ele><time>2026-04-22T10:59:29Z</time></trkpt><trkpt lat="35.729957305192194" lon="-5.94314665563189"><ele>5.0</ele><time>2026-04-22T10:59:30Z</time></trkpt><trkpt lat="35.73010781151738" lon="-5.943156283343427"><ele>5.0</ele><time>2026-04-22T10:59:31Z</time></trkpt><trkpt lat="35.730258336674446" lon="-5.943171420882178"><ele>5.0</ele><time>2026-04-22T10:59:32Z</time></trkpt><trkpt lat="35.73040843911309" lon="-5.943188791244211"><ele>5.0</ele><time>2026-04-22T10:59:33Z</time></trkpt><trkpt lat="35.730558225265234" lon="-5.9432105692532815"><ele>5.0</ele><time>2026-04-22T10:59:34Z</time></trkpt><trkpt lat="35.73070819009441" lon="-5.943241119113318"><ele>5.0</ele><time>2026-04-22T10:59:35Z</time></trkpt><trkpt lat="35.730859004051894" lon="-5.9432752180123325"><ele>5.0</ele><time>2026-04-22T10:59:36Z</time></trkpt><trkpt lat="35.73100740708393" lon="-5.943319162372794"><ele>5.0</ele><time>2026-04-22T10:59:37Z</time></trkpt><trkpt lat="35.73115774732516" lon="-5.943366133502962"><ele>5.0</ele><time>2026-04-22T10:59:38Z</time></trkpt><trkpt lat="35.731308900043466" lon="-5.943412428251086"><ele>4.333333333333334</ele><time>2026-04-22T10:59:39Z</time></trkpt><trkpt lat="35.73145882267855" lon="-5.943455867454944"><ele>3.666666666666667</ele><time>2026-04-22T10:59:40Z</time></trkpt><trkpt lat="35.73160823698531" lon="-5.943497839322208"><ele>3.0</ele><time>2026-04-22T10:59:41Z</time></trkpt><trkpt lat="35.731757197368" lon="-5.943541229785708"><ele>4.0</ele><time>2026-04-22T10:59:42Z</time></trkpt><trkpt lat="35.7319051160725" lon="-5.943585092171865"><ele>5.0</ele><time>2026-04-22T10:59:43Z</time></trkpt><trkpt lat="35.73205249750317" lon="-5.94362991831935"><ele>6.0</ele><time>2026-04-22T10:59:44Z</time></trkpt><trkpt lat="35.73219995222006" lon="-5.943676238447378"><ele>6.0</ele><time>2026-04-22T10:59:45Z</time></trkpt><trkpt lat="35.732344166717105" lon="-5.943724773705302"><ele>6.0</ele><time>2026-04-22T10:59:46Z</time></trkpt><trkpt lat="35.73249081047384" lon="-5.943769817937501"><ele>6.0</ele><time>2026-04-22T10:59:47Z</time></trkpt><trkpt lat="35.73263905589551" lon="-5.9438132154237024"><ele>5.666666666666667</ele><time>2026-04-22T10:59:48Z</time></trkpt><trkpt lat="35.73278985265539" lon="-5.943850974722149"><ele>5.333333333333334</ele><time>2026-04-22T10:59:49Z</time></trkpt><trkpt lat="35.73293906586771" lon="-5.94388864482341"><ele>5.0</ele><time>2026-04-22T10:59:50Z</time></trkpt><trkpt lat="35.73308904671223" lon="-5.943920940694326"><ele>5.0</ele><time>2026-04-22T10:59:51Z</time></trkpt><trkpt lat="35.73323882104169" lon="-5.9439392807996985"><ele>5.0</ele><time>2026-04-22T10:59:52Z</time></trkpt><trkpt lat="35.73338742619511" lon="-5.943940076611493"><ele>5.0</ele><time>2026-04-22T10:59:53Z</time></trkpt><trkpt lat="35.73353638550029" lon="-5.943928526706023"><ele>5.0</ele><time>2026-04-22T10:59:54Z</time></trkpt><trkpt lat="35.733685014847445" lon="-5.943909133519444"><ele>4.666666666666667</ele><time>2026-04-22T10:59:55Z</time></trkpt><trkpt lat="35.73383519740827" lon="-5.9438854983898"><ele>4.333333333333333</ele><time>2026-04-22T10:59:56Z</time></trkpt><trkpt lat="35.73398680283654" lon="-5.943862963943016"><ele>4.0</ele><time>2026-04-22T10:59:57Z</time></trkpt><trkpt lat="35.734138945034104" lon="-5.943834051126626"><ele>4.0</ele><time>2026-04-22T10:59:58Z</time></trkpt><trkpt lat="35.73429141503924" lon="-5.943800119150416"><ele>4.0</ele><time>2026-04-22T10:59:59Z</time></trkpt><trkpt lat="35.73444487843407" lon="-5.943767011351705"><ele>4.0</ele><time>2026-04-22T11:00:00Z</time></trkpt><trkpt lat="35.73459772115229" lon="-5.943739133415995"><ele>4.0</ele><time>2026-04-22T11:00:01Z</time></trkpt><trkpt lat="35.734749493687524" lon="-5.9437090799304215"><ele>4.0</ele><time>2026-04-22T11:00:02Z</time></trkpt><trkpt lat="35.73489824676576" lon="-5.943680204198077"><ele>4.0</ele><time>2026-04-22T11:00:03Z</time></trkpt><trkpt lat="35.735043563492376" lon="-5.943652730098606"><ele>4.0</ele><time>2026-04-22T11:00:04Z</time></trkpt><trkpt lat="35.73518432346648" lon="-5.943621132482721"><ele>4.0</ele><time>2026-04-22T11:00:05Z</time></trkpt><trkpt lat="35.73531613754931" lon="-5.943589573480295"><ele>4.0</ele><time>2026-04-22T11:00:06Z</time></trkpt><trkpt lat="35.735436998174016" lon="-5.94355743259222"><ele>4.0</ele><time>2026-04-22T11:00:07Z</time></trkpt><trkpt lat="35.735543648052776" lon="-5.943523865520284"><ele>3.8000000000000003</ele><time>2026-04-22T11:00:08Z</time></trkpt><trkpt lat="35.73564470601308" lon="-5.9434850310739025"><ele>3.6000000000000005</ele><time>2026-04-22T11:00:09Z</time></trkpt><trkpt lat="35.73573219906403" lon="-5.94343268709086"><ele>3.4</ele><time>2026-04-22T11:00:10Z</time></trkpt><trkpt lat="35.73581852253866" lon="-5.9433749981511275"><ele>3.2</ele><time>2026-04-22T11:00:11Z</time></trkpt><trkpt lat="35.73590123526013" lon="-5.943307550359671"><ele>3.0</ele><time>2026-04-22T11:00:12Z</time></trkpt><trkpt lat="35.735969868612386" lon="-5.943234531591611"><ele>3.5</ele><time>2026-04-22T11:00:13Z</time></trkpt><trkpt lat="35.73602469194458" lon="-5.943153834158517"><ele>4.0</ele><time>2026-04-22T11:00:14Z</time></trkpt><trkpt lat="35.73608133519098" lon="-5.9430751370963675"><ele>4.5</ele><time>2026-04-22T11:00:15Z</time></trkpt><trkpt lat="35.73610009380641" lon="-5.94297846674697"><ele>5.0</ele><time>2026-04-22T11:00:16Z</time></trkpt><trkpt lat="35.73615748744344" lon="-5.9429142234770005"><ele>5.5</ele><time>2026-04-22T11:00:17Z</time></trkpt><trkpt lat="35.73622866474039" lon="-5.9428787905129346"><ele>6.0</ele><time>2026-04-22T11:00:18Z</time></trkpt><trkpt lat="35.73631058834431" lon="-5.942865478939495"><ele>6.0</ele><time>2026-04-22T11:00:19Z</time></trkpt><trkpt lat="35.73640164094135" lon="-5.942859117629604"><ele>6.0</ele><time>2026-04-22T11:00:20Z</time></trkpt><trkpt lat="35.73649212359463" lon="-5.942813566825591"><ele>6.0</ele><time>2026-04-22T11:00:21Z</time></trkpt><trkpt lat="35.73657599794732" lon="-5.942732886105759"><ele>6.0</ele><time>2026-04-22T11:00:22Z</time></trkpt><trkpt lat="35.73666855159211" lon="-5.942650098294319"><ele>6.0</ele><time>2026-04-22T11:00:23Z</time></trkpt><trkpt lat="35.736769199081195" lon="-5.942567162263095"><ele>6.0</ele><time>2026-04-22T11:00:24Z</time></trkpt><trkpt lat="35.73687621334058" lon="-5.942484102439384"><ele>6.0</ele><time>2026-04-22T11:00:25Z</time></trkpt><trkpt lat="35.73698684553467" lon="-5.942401066794934"><ele>6.0</ele><time>2026-04-22T11:00:26Z</time></trkpt><trkpt lat="35.73709970693768" lon="-5.9423166705948915"><ele>6.0</ele><time>2026-04-22T11:00:27Z</time></trkpt><trkpt lat="35.737211850630345" lon="-5.942234987171375"><ele>6.0</ele><time>2026-04-22T11:00:28Z</time></trkpt><trkpt lat="35.737327513448435" lon="-5.942150940318622"><ele>6.0</ele><time>2026-04-22T11:00:29Z</time></trkpt><trkpt lat="35.737442656075984" lon="-5.942066407634123"><ele>6.0</ele><time>2026-04-22T11:00:30Z</time></trkpt><trkpt lat="35.737560188593626" lon="-5.941982796968021"><ele>6.0</ele><time>2026-04-22T11:00:31Z</time></trkpt><trkpt lat="35.73768151355504" lon="-5.941901555743706"><ele>5.25</ele><time>2026-04-22T11:00:32Z</time></trkpt><trkpt lat="35.73780782689517" lon="-5.941824982362574"><ele>4.5</ele><time>2026-04-22T11:00:33Z</time></trkpt><trkpt lat="35.73794024506985" lon="-5.9417470249139"><ele>3.75</ele><time>2026-04-22T11:00:34Z</time></trkpt><trkpt lat="35.738076456923345" lon="-5.9416695867762765"><ele>3.0</ele><time>2026-04-22T11:00:35Z</time></trkpt><trkpt lat="35.7382158407354" lon="-5.941593480915337"><ele>5.333333333333334</ele><time>2026-04-22T11:00:36Z</time></trkpt><trkpt lat="35.738356449802524" lon="-5.941517764478936"><ele>7.666666666666667</ele><time>2026-04-22T11:00:37Z</time></trkpt><trkpt lat="35.73849716407069" lon="-5.941441526057277"><ele>10.0</ele><time>2026-04-22T11:00:38Z</time></trkpt><trkpt lat="35.73863955365695" lon="-5.941363187436019"><ele>10.0</ele><time>2026-04-22T11:00:39Z</time></trkpt><trkpt lat="35.738783296129476" lon="-5.941285507926969"><ele>10.0</ele><time>2026-04-22T11:00:40Z</time></trkpt><trkpt lat="35.738926438767386" lon="-5.941212453184887"><ele>10.0</ele><time>2026-04-22T11:00:41Z</time></trkpt><trkpt lat="35.73907065564929" lon="-5.941140377604667"><ele>10.0</ele><time>2026-04-22T11:00:42Z</time></trkpt><trkpt lat="35.73921340547482" lon="-5.9410701330080995"><ele>10.0</ele><time>2026-04-22T11:00:43Z</time></trkpt><trkpt lat="35.739359024715405" lon="-5.941003996328399"><ele>10.0</ele><time>2026-04-22T11:00:44Z</time></trkpt><trkpt lat="35.73950533383367" lon="-5.940940571629753"><ele>11.0</ele><time>2026-04-22T11:00:45Z</time></trkpt><trkpt lat="35.73965377442739" lon="-5.9408770363051"><ele>12.0</ele><time>2026-04-22T11:00:46Z</time></trkpt><trkpt lat="35.73980306125268" lon="-5.940813130364759"><ele>13.0</ele><time>2026-04-22T11:00:47Z</time></trkpt><trkpt lat="35.73995456830981" lon="-5.940747539272714"><ele>13.0</ele><time>2026-04-22T11:00:48Z</time></trkpt><trkpt lat="35.74010693620435" lon="-5.9406812955213235"><ele>13.0</ele><time>2026-04-22T11:00:49Z</time></trkpt><trkpt lat="35.74026116088457" lon="-5.940614422040415"><ele>13.0</ele><time>2026-04-22T11:00:50Z</time></trkpt><trkpt lat="35.740418760819395" lon="-5.940546410658285"><ele>12.666666666666666</ele><time>2026-04-22T11:00:51Z</time></trkpt><trkpt lat="35.74057684295127" lon="-5.940479877550766"><ele>12.333333333333332</ele><time>2026-04-22T11:00:52Z</time></trkpt><trkpt lat="35.74072620719355" lon="-5.94041766949584"><ele>12.0</ele><time>2026-04-22T11:00:52.999Z</time></trkpt><trkpt lat="35.74087420096325" lon="-5.940361029343499"><ele>12.0</ele><time>2026-04-22T11:00:53.999Z</time></trkpt><trkpt lat="35.74101958966726" lon="-5.940304888094336"><ele>12.0</ele><time>2026-04-22T11:00:54.999Z</time></trkpt><trkpt lat="35.741162940693386" lon="-5.940249288093635"><ele>12.0</ele><time>2026-04-22T11:00:55.999Z</time></trkpt><trkpt lat="35.741305313468146" lon="-5.940192293404651"><ele>10.666666666666666</ele><time>2026-04-22T11:00:57Z</time></trkpt><trkpt lat="35.741448243716555" lon="-5.940137859849121"><ele>9.333333333333332</ele><time>2026-04-22T11:00:58Z</time></trkpt><trkpt lat="35.74159170497763" lon="-5.94007929105217"><ele>8.0</ele><time>2026-04-22T11:00:59Z</time></trkpt><trkpt lat="35.74173830899712" lon="-5.940015587220725"><ele>7.666666666666666</ele><time>2026-04-22T11:01:00Z</time></trkpt><trkpt lat="35.74188562097895" lon="-5.9399533583568935"><ele>7.333333333333334</ele><time>2026-04-22T11:01:01Z</time></trkpt><trkpt lat="35.74203252197164" lon="-5.939894909666193"><ele>7.0</ele><time>2026-04-22T11:01:02Z</time></trkpt><trkpt lat="35.74217667057224" lon="-5.939839328385618"><ele>7.0</ele><time>2026-04-22T11:01:03Z</time></trkpt><trkpt lat="35.74232207204225" lon="-5.939778024133142"><ele>7.0</ele><time>2026-04-22T11:01:04Z</time></trkpt><trkpt lat="35.74246981912088" lon="-5.939716476810994"><ele>7.0</ele><time>2026-04-22T11:01:05Z</time></trkpt><trkpt lat="35.74262037687542" lon="-5.939656640977532"><ele>7.0</ele><time>2026-04-22T11:01:06Z</time></trkpt><trkpt lat="35.74277406926134" lon="-5.9395951999566945"><ele>7.0</ele><time>2026-04-22T11:01:07Z</time></trkpt><trkpt lat="35.74292776767558" lon="-5.9395405157461045"><ele>7.0</ele><time>2026-04-22T11:01:08Z</time></trkpt><trkpt lat="35.74307922784593" lon="-5.939482870207301"><ele>7.0</ele><time>2026-04-22T11:01:09Z</time></trkpt><trkpt lat="35.74323101348326" lon="-5.939428442713146"><ele>7.0</ele><time>2026-04-22T11:01:10Z</time></trkpt><trkpt lat="35.7433822098212" lon="-5.939372147334087"><ele>7.0</ele><time>2026-04-22T11:01:11Z</time></trkpt><trkpt lat="35.743532241389346" lon="-5.939318696584625"><ele>7.75</ele><time>2026-04-22T11:01:12Z</time></trkpt><trkpt lat="35.743679548983515" lon="-5.9392671503174945"><ele>8.5</ele><time>2026-04-22T11:01:13Z</time></trkpt><trkpt lat="35.74382116967588" lon="-5.939220806207869"><ele>9.25</ele><time>2026-04-22T11:01:14Z</time></trkpt><trkpt lat="35.743952872344636" lon="-5.939181193179249"><ele>10.0</ele><time>2026-04-22T11:01:15Z</time></trkpt><trkpt lat="35.744075934214045" lon="-5.939144574173319"><ele>10.6</ele><time>2026-04-22T11:01:16Z</time></trkpt><trkpt lat="35.744187097936376" lon="-5.939117362021443"><ele>11.2</ele><time>2026-04-22T11:01:17Z</time></trkpt><trkpt lat="35.744280652072355" lon="-5.939096317816083"><ele>11.8</ele><time>2026-04-22T11:01:18Z</time></trkpt><trkpt lat="35.74436212455896" lon="-5.939080387569437"><ele>12.4</ele><time>2026-04-22T11:01:19Z</time></trkpt><trkpt lat="35.74443110605486" lon="-5.939067636079831"><ele>13.0</ele><time>2026-04-22T11:01:20Z</time></trkpt><trkpt lat="35.744545867554685" lon="-5.93903776261121"><ele>12.999999999999998</ele><time>2026-04-22T11:01:22Z</time></trkpt><trkpt lat="35.744653078937056" lon="-5.939005870841141"><ele>13.0</ele><time>2026-04-22T11:01:24Z</time></trkpt><trkpt lat="35.74471537951786" lon="-5.9389852749440655"><ele>13.0</ele><time>2026-04-22T11:01:25Z</time></trkpt><trkpt lat="35.7447875168327" lon="-5.9389646714761035"><ele>13.0</ele><time>2026-04-22T11:01:26Z</time></trkpt><trkpt lat="35.744870415561465" lon="-5.938927216727512"><ele>12.999999999999998</ele><time>2026-04-22T11:01:27Z</time></trkpt><trkpt lat="35.744969990504615" lon="-5.938899248728325"><ele>13.0</ele><time>2026-04-22T11:01:28Z</time></trkpt><trkpt lat="35.74508232564768" lon="-5.9388676967285825"><ele>13.0</ele><time>2026-04-22T11:01:29Z</time></trkpt><trkpt lat="35.74520472590852" lon="-5.938833108451918"><ele>13.0</ele><time>2026-04-22T11:01:30Z</time></trkpt><trkpt lat="35.74533205068423" lon="-5.938815818793672"><ele>13.0</ele><time>2026-04-22T11:01:31Z</time></trkpt><trkpt lat="35.74545590793742" lon="-5.938773169040692"><ele>13.0</ele><time>2026-04-22T11:01:32Z</time></trkpt><trkpt lat="35.745586087079346" lon="-5.93873375520678"><ele>12.5</ele><time>2026-04-22T11:01:33Z</time></trkpt><trkpt lat="35.74571959328453" lon="-5.9387005545862115"><ele>12.0</ele><time>2026-04-22T11:01:34Z</time></trkpt><trkpt lat="35.74585915007791" lon="-5.938663830813496"><ele>11.5</ele><time>2026-04-22T11:01:35Z</time></trkpt><trkpt lat="35.74599991395618" lon="-5.938624098423776"><ele>11.0</ele><time>2026-04-22T11:01:36Z</time></trkpt><trkpt lat="35.74613987466498" lon="-5.938579247092365"><ele>10.25</ele><time>2026-04-22T11:01:37Z</time></trkpt><trkpt lat="35.74628104762748" lon="-5.938530055139833"><ele>9.5</ele><time>2026-04-22T11:01:38Z</time></trkpt><trkpt lat="35.74642387872714" lon="-5.938479064560023"><ele>8.75</ele><time>2026-04-22T11:01:39Z</time></trkpt><trkpt lat="35.74656570752547" lon="-5.93842870217502"><ele>8.0</ele><time>2026-04-22T11:01:40Z</time></trkpt><trkpt lat="35.74671135159407" lon="-5.938382789708322"><ele>8.0</ele><time>2026-04-22T11:01:41Z</time></trkpt><trkpt lat="35.74685590856248" lon="-5.938339400568171"><ele>8.0</ele><time>2026-04-22T11:01:42Z</time></trkpt><trkpt lat="35.746999205195294" lon="-5.93829723803324"><ele>8.0</ele><time>2026-04-22T11:01:43Z</time></trkpt><trkpt lat="35.74714185060968" lon="-5.938254153120908"><ele>8.0</ele><time>2026-04-22T11:01:44Z</time></trkpt><trkpt lat="35.747286785477144" lon="-5.9382129378666075"><ele>7.0</ele><time>2026-04-22T11:01:45Z</time></trkpt><trkpt lat="35.747434107433556" lon="-5.938173345340988"><ele>6.0</ele><time>2026-04-22T11:01:46Z</time></trkpt><trkpt lat="35.74758249315739" lon="-5.938134307539476"><ele>5.0</ele><time>2026-04-22T11:01:47Z</time></trkpt><trkpt lat="35.747732303234436" lon="-5.9380963556923785"><ele>5.0</ele><time>2026-04-22T11:01:48Z</time></trkpt><trkpt lat="35.74787709561846" lon="-5.938059604861319"><ele>5.0</ele><time>2026-04-22T11:01:49Z</time></trkpt><trkpt lat="35.748017136681696" lon="-5.938021150450172"><ele>5.0</ele><time>2026-04-22T11:01:50Z</time></trkpt><trkpt lat="35.748149740243846" lon="-5.937980317830354"><ele>5.0</ele><time>2026-04-22T11:01:51Z</time></trkpt><trkpt lat="35.74827850179218" lon="-5.937946136832439"><ele>5.0</ele><time>2026-04-22T11:01:52Z</time></trkpt><trkpt lat="35.74840146137851" lon="-5.93790636176943"><ele>5.0</ele><time>2026-04-22T11:01:53Z</time></trkpt><trkpt lat="35.74852032665179" lon="-5.937852201966558"><ele>5.0</ele><time>2026-04-22T11:01:54Z</time></trkpt><trkpt lat="35.74863317610906" lon="-5.937784359125556"><ele>5.0</ele><time>2026-04-22T11:01:55Z</time></trkpt><trkpt lat="35.7487413228948" lon="-5.937703920885844"><ele>5.5</ele><time>2026-04-22T11:01:56Z</time></trkpt><trkpt lat="35.74884442147628" lon="-5.937611824314072"><ele>6.0</ele><time>2026-04-22T11:01:57Z</time></trkpt><trkpt lat="35.74894808117529" lon="-5.937513918949955"><ele>6.5</ele><time>2026-04-22T11:01:58Z</time></trkpt><trkpt lat="35.74905113798586" lon="-5.937413150546366"><ele>7.0</ele><time>2026-04-22T11:01:59Z</time></trkpt><trkpt lat="35.74915982729546" lon="-5.937323738988922"><ele>7.0</ele><time>2026-04-22T11:02:00Z</time></trkpt><trkpt lat="35.749273046806" lon="-5.937243193395117"><ele>7.0</ele><time>2026-04-22T11:02:01Z</time></trkpt><trkpt lat="35.74938807172163" lon="-5.937178018903955"><ele>7.0</ele><time>2026-04-22T11:02:02Z</time></trkpt><trkpt lat="35.74951005374048" lon="-5.937125337283441"><ele>7.0</ele><time>2026-04-22T11:02:03Z</time></trkpt><trkpt lat="35.74963519738237" lon="-5.937073141147027"><ele>7.25</ele><time>2026-04-22T11:02:04Z</time></trkpt><trkpt lat="35.749761406075784" lon="-5.937017347142647"><ele>7.5</ele><time>2026-04-22T11:02:05Z</time></trkpt><trkpt lat="35.74988840162103" lon="-5.936960176422865"><ele>7.75</ele><time>2026-04-22T11:02:06Z</time></trkpt><trkpt lat="35.75001909148198" lon="-5.936896413857619"><ele>8.0</ele><time>2026-04-22T11:02:07Z</time></trkpt><trkpt lat="35.75015016998848" lon="-5.936824127601446"><ele>8.0</ele><time>2026-04-22T11:02:08Z</time></trkpt><trkpt lat="35.75028241042151" lon="-5.93674695620014"><ele>8.0</ele><time>2026-04-22T11:02:09Z</time></trkpt><trkpt lat="35.75041614032597" lon="-5.936667615514533"><ele>8.0</ele><time>2026-04-22T11:02:10Z</time></trkpt><trkpt lat="35.75055360404441" lon="-5.936586619539669"><ele>8.0</ele><time>2026-04-22T11:02:11Z</time></trkpt><trkpt lat="35.75068821630641" lon="-5.936505625658931"><ele>8.5</ele><time>2026-04-22T11:02:12Z</time></trkpt><trkpt lat="35.750820516099445" lon="-5.936426023544698"><ele>9.0</ele><time>2026-04-22T11:02:13Z</time></trkpt><trkpt lat="35.75095236253961" lon="-5.936345376317445"><ele>9.5</ele><time>2026-04-22T11:02:14Z</time></trkpt><trkpt lat="35.75108347064164" lon="-5.936263234457109"><ele>10.0</ele><time>2026-04-22T11:02:15Z</time></trkpt><trkpt lat="35.75121391003273" lon="-5.936183797496732"><ele>10.0</ele><time>2026-04-22T11:02:16Z</time></trkpt><trkpt lat="35.751344964599554" lon="-5.936102285308158"><ele>10.0</ele><time>2026-04-22T11:02:17Z</time></trkpt><trkpt lat="35.75147735671107" lon="-5.936018971344513"><ele>10.0</ele><time>2026-04-22T11:02:18Z</time></trkpt><trkpt lat="35.751607821735924" lon="-5.935938484619749"><ele>10.0</ele><time>2026-04-22T11:02:19Z</time></trkpt><trkpt lat="35.75173855859353" lon="-5.935856948471426"><ele>10.0</ele><time>2026-04-22T11:02:20Z</time></trkpt><trkpt lat="35.75186738096752" lon="-5.935779325465715"><ele>10.0</ele><time>2026-04-22T11:02:21Z</time></trkpt><trkpt lat="35.751995105763775" lon="-5.935701026577202"><ele>10.0</ele><time>2026-04-22T11:02:22Z</time></trkpt><trkpt lat="35.75211929804327" lon="-5.935622788978193"><ele>10.0</ele><time>2026-04-22T11:02:23Z</time></trkpt><trkpt lat="35.75223939704241" lon="-5.93555001211183"><ele>10.0</ele><time>2026-04-22T11:02:24Z</time></trkpt><trkpt lat="35.752353507913845" lon="-5.935479944019513"><ele>10.0</ele><time>2026-04-22T11:02:25Z</time></trkpt><trkpt lat="35.75245711422356" lon="-5.935399010225559"><ele>10.0</ele><time>2026-04-22T11:02:26Z</time></trkpt><trkpt lat="35.752549317081225" lon="-5.935301555989045"><ele>10.0</ele><time>2026-04-22T11:02:27Z</time></trkpt><trkpt lat="35.75262737841395" lon="-5.935188913024427"><ele>10.0</ele><time>2026-04-22T11:02:28Z</time></trkpt><trkpt lat="35.75269069050646" lon="-5.935062961696171"><ele>10.0</ele><time>2026-04-22T11:02:29Z</time></trkpt><trkpt lat="35.75273477057088" lon="-5.934927318500382"><ele>10.0</ele><time>2026-04-22T11:02:30Z</time></trkpt><trkpt lat="35.752758057050116" lon="-5.934780209302173"><ele>10.0</ele><time>2026-04-22T11:02:31Z</time></trkpt><trkpt lat="35.75276440311979" lon="-5.934624512156913"><ele>10.0</ele><time>2026-04-22T11:02:32Z</time></trkpt><trkpt lat="35.75275827442286" lon="-5.934465525039914"><ele>10.0</ele><time>2026-04-22T11:02:33Z</time></trkpt><trkpt lat="35.75275629333741" lon="-5.934305777336119"><ele>10.0</ele><time>2026-04-22T11:02:34Z</time></trkpt><trkpt lat="35.75276161712455" lon="-5.934150301134584"><ele>10.0</ele><time>2026-04-22T11:02:35Z</time></trkpt><trkpt lat="35.75277680744685" lon="-5.933998955121001"><ele>10.0</ele><time>2026-04-22T11:02:36Z</time></trkpt><trkpt lat="35.75280881650381" lon="-5.933858239948698"><ele>10.0</ele><time>2026-04-22T11:02:37Z</time></trkpt><trkpt lat="35.75285655047928" lon="-5.933738000324889"><ele>10.0</ele><time>2026-04-22T11:02:38Z</time></trkpt><trkpt lat="35.75292429867281" lon="-5.933631381080474"><ele>10.0</ele><time>2026-04-22T11:02:39Z</time></trkpt><trkpt lat="35.75300621438834" lon="-5.933538766679486"><ele>10.0</ele><time>2026-04-22T11:02:40Z</time></trkpt><trkpt lat="35.75309346620632" lon="-5.933453423668356"><ele>10.0</ele><time>2026-04-22T11:02:41Z</time></trkpt><trkpt lat="35.75319227100217" lon="-5.933390235916212"><ele>10.0</ele><time>2026-04-22T11:02:42Z</time></trkpt><trkpt lat="35.753299963941615" lon="-5.933352983864689"><ele>10.0</ele><time>2026-04-22T11:02:43Z</time></trkpt><trkpt lat="35.7534153327744" lon="-5.933330947541556"><ele>10.0</ele><time>2026-04-22T11:02:44Z</time></trkpt><trkpt lat="35.753532423213066" lon="-5.933320797571138"><ele>11.8</ele><time>2026-04-22T11:02:45Z</time></trkpt><trkpt lat="35.75364796557855" lon="-5.933313576466385"><ele>13.6</ele><time>2026-04-22T11:02:46Z</time></trkpt><trkpt lat="35.75375893658161" lon="-5.933300688800533"><ele>15.399999999999999</ele><time>2026-04-22T11:02:47Z</time></trkpt><trkpt lat="35.7538653068634" lon="-5.933282154400429"><ele>17.2</ele><time>2026-04-22T11:02:48Z</time></trkpt><trkpt lat="35.75396877731065" lon="-5.93325190452393"><ele>19.0</ele><time>2026-04-22T11:02:49Z</time></trkpt><trkpt lat="35.75405877442517" lon="-5.933200572970411"><ele>19.0</ele><time>2026-04-22T11:02:50Z</time></trkpt><trkpt lat="35.75414278756817" lon="-5.933135830038979"><ele>19.0</ele><time>2026-04-22T11:02:51Z</time></trkpt><trkpt lat="35.754228392987834" lon="-5.933063062660133"><ele>19.0</ele><time>2026-04-22T11:02:52Z</time></trkpt><trkpt lat="35.75431862257728" lon="-5.9329804650644755"><ele>19.0</ele><time>2026-04-22T11:02:53Z</time></trkpt><trkpt lat="35.75441636237348" lon="-5.932898039759292"><ele>19.0</ele><time>2026-04-22T11:02:54Z</time></trkpt><trkpt lat="35.7545188629994" lon="-5.932814098819768"><ele>18.5</ele><time>2026-04-22T11:02:55Z</time></trkpt><trkpt lat="35.75462558787635" lon="-5.932724978489782"><ele>18.0</ele><time>2026-04-22T11:02:56Z</time></trkpt><trkpt lat="35.75473085568879" lon="-5.932636346515333"><ele>17.5</ele><time>2026-04-22T11:02:57Z</time></trkpt><trkpt lat="35.75484200925773" lon="-5.932546714116402"><ele>17.0</ele><time>2026-04-22T11:02:58Z</time></trkpt><trkpt lat="35.75495622413494" lon="-5.932452010755657"><ele>17.0</ele><time>2026-04-22T11:02:59Z</time></trkpt><trkpt lat="35.75507328352758" lon="-5.932354226667253"><ele>17.0</ele><time>2026-04-22T11:03:00Z</time></trkpt><trkpt lat="35.75519167447874" lon="-5.932254655715987"><ele>17.0</ele><time>2026-04-22T11:03:01Z</time></trkpt><trkpt lat="35.755312033971975" lon="-5.932152637826599"><ele>17.0</ele><time>2026-04-22T11:03:02Z</time></trkpt><trkpt lat="35.755430647386696" lon="-5.932051308257983"><ele>16.0</ele><time>2026-04-22T11:03:03Z</time></trkpt><trkpt lat="35.75555172570266" lon="-5.931951862983236"><ele>15.0</ele><time>2026-04-22T11:03:04Z</time></trkpt><trkpt lat="35.75567186939501" lon="-5.931856129970536"><ele>14.0</ele><time>2026-04-22T11:03:05Z</time></trkpt><trkpt lat="35.75579262461825" lon="-5.931760609088586"><ele>13.0</ele><time>2026-04-22T11:03:06Z</time></trkpt><trkpt lat="35.75590891733584" lon="-5.931666088733717"><ele>13.0</ele><time>2026-04-22T11:03:07Z</time></trkpt><trkpt lat="35.75602043546834" lon="-5.931574724727974"><ele>13.0</ele><time>2026-04-22T11:03:08Z</time></trkpt><trkpt lat="35.75613087025802" lon="-5.931491096202767"><ele>13.0</ele><time>2026-04-22T11:03:09Z</time></trkpt><trkpt lat="35.75623618822168" lon="-5.931405347994855"><ele>13.0</ele><time>2026-04-22T11:03:10Z</time></trkpt><trkpt lat="35.75633853240348" lon="-5.9313247516119905"><ele>13.4</ele><time>2026-04-22T11:03:11Z</time></trkpt><trkpt lat="35.756425690915606" lon="-5.931231364802012"><ele>13.8</ele><time>2026-04-22T11:03:12Z</time></trkpt><trkpt lat="35.75651666437769" lon="-5.931156116249246"><ele>14.2</ele><time>2026-04-22T11:03:13Z</time></trkpt><trkpt lat="35.756611926445416" lon="-5.931099809562455"><ele>14.6</ele><time>2026-04-22T11:03:14Z</time></trkpt><trkpt lat="35.75668659617479" lon="-5.931031298994769"><ele>15.0</ele><time>2026-04-22T11:03:15Z</time></trkpt><trkpt lat="35.75675589450458" lon="-5.930965097132626"><ele>15.0</ele><time>2026-04-22T11:03:16Z</time></trkpt><trkpt lat="35.7568165701938" lon="-5.930905706547671"><ele>15.0</ele><time>2026-04-22T11:03:17Z</time></trkpt><trkpt lat="35.756868882656235" lon="-5.930851790207367"><ele>15.0</ele><time>2026-04-22T11:03:18Z</time></trkpt><trkpt lat="35.756948533077455" lon="-5.9307546280717895"><ele>15.0</ele><time>2026-04-22T11:03:20Z</time></trkpt><trkpt lat="35.756998203265496" lon="-5.930660536035706"><ele>15.0</ele><time>2026-04-22T11:03:22Z</time></trkpt><trkpt lat="35.75705079083136" lon="-5.930552574451178"><ele>14.6</ele><time>2026-04-22T11:03:24Z</time></trkpt><trkpt lat="35.757147781098205" lon="-5.930485927915525"><ele>14.2</ele><time>2026-04-22T11:03:26Z</time></trkpt><trkpt lat="35.7572437515875" lon="-5.930513867459214"><ele>13.8</ele><time>2026-04-22T11:03:28Z</time></trkpt><trkpt lat="35.7572863345108" lon="-5.930642192753545"><ele>13.4</ele><time>2026-04-22T11:03:30Z</time></trkpt><trkpt lat="35.75729994924689" lon="-5.930731492671234"><ele>13.0</ele><time>2026-04-22T11:03:31Z</time></trkpt><trkpt lat="35.75723194556417" lon="-5.9308088743511345"><ele>13.2</ele><time>2026-04-22T11:03:32Z</time></trkpt><trkpt lat="35.75718163890119" lon="-5.93089126261866"><ele>13.4</ele><time>2026-04-22T11:03:33Z</time></trkpt><trkpt lat="35.75714552845078" lon="-5.930984298396143"><ele>13.599999999999998</ele><time>2026-04-22T11:03:34Z</time></trkpt><trkpt lat="35.757128795193566" lon="-5.931098742211218"><ele>13.799999999999999</ele><time>2026-04-22T11:03:35Z</time></trkpt><trkpt lat="35.75714220133781" lon="-5.931230464848819"><ele>14.0</ele><time>2026-04-22T11:03:36Z</time></trkpt><trkpt lat="35.75713715012772" lon="-5.931368341603872"><ele>14.0</ele><time>2026-04-22T11:03:37Z</time></trkpt><trkpt lat="35.75713176453675" lon="-5.931515345434143"><ele>14.0</ele><time>2026-04-22T11:03:38Z</time></trkpt><trkpt lat="35.757130671332355" lon="-5.931663233956684"><ele>14.0</ele><time>2026-04-22T11:03:39Z</time></trkpt><trkpt lat="35.757134643438135" lon="-5.93181735168887"><ele>14.0</ele><time>2026-04-22T11:03:40Z</time></trkpt><trkpt lat="35.75714183337473" lon="-5.9319740082378045"><ele>15.25</ele><time>2026-04-22T11:03:41Z</time></trkpt><trkpt lat="35.757138307088034" lon="-5.9321324319345825"><ele>16.5</ele><time>2026-04-22T11:03:42Z</time></trkpt><trkpt lat="35.75718011707538" lon="-5.932275155686769"><ele>17.75</ele><time>2026-04-22T11:03:43Z</time></trkpt><trkpt lat="35.757211165654226" lon="-5.932417219497809"><ele>19.0</ele><time>2026-04-22T11:03:44Z</time></trkpt><trkpt lat="35.75724045512709" lon="-5.932563535833811"><ele>20.25</ele><time>2026-04-22T11:03:45Z</time></trkpt><trkpt lat="35.75725913859035" lon="-5.93271369464035"><ele>21.5</ele><time>2026-04-22T11:03:46Z</time></trkpt><trkpt lat="35.757267611452" lon="-5.932864315280708"><ele>22.75</ele><time>2026-04-22T11:03:47Z</time></trkpt><trkpt lat="35.75725269501631" lon="-5.933023125442002"><ele>24.0</ele><time>2026-04-22T11:03:48Z</time></trkpt><trkpt lat="35.757240019861804" lon="-5.9331724354116435"><ele>24.0</ele><time>2026-04-22T11:03:49Z</time></trkpt><trkpt lat="35.75722735634665" lon="-5.933318815642767"><ele>24.0</ele><time>2026-04-22T11:03:50Z</time></trkpt><trkpt lat="35.757231173446684" lon="-5.933451191491139"><ele>24.0</ele><time>2026-04-22T11:03:51Z</time></trkpt><trkpt lat="35.7572440507001" lon="-5.933570797330364"><ele>24.0</ele><time>2026-04-22T11:03:52Z</time></trkpt><trkpt lat="35.75726726481876" lon="-5.933684010823421"><ele>24.0</ele><time>2026-04-22T11:03:53Z</time></trkpt><trkpt lat="35.757305456140784" lon="-5.933791433155378"><ele>23.5</ele><time>2026-04-22T11:03:54Z</time></trkpt><trkpt lat="35.75736363061546" lon="-5.933893667227605"><ele>23.0</ele><time>2026-04-22T11:03:55Z</time></trkpt><trkpt lat="35.75744762577826" lon="-5.9339842031155445"><ele>22.5</ele><time>2026-04-22T11:03:56Z</time></trkpt><trkpt lat="35.75754302118731" lon="-5.934072533864547"><ele>22.0</ele><time>2026-04-22T11:03:57Z</time></trkpt><trkpt lat="35.75764734732188" lon="-5.934159017142063"><ele>22.25</ele><time>2026-04-22T11:03:58Z</time></trkpt><trkpt lat="35.757753882912404" lon="-5.934248475010223"><ele>22.5</ele><time>2026-04-22T11:03:59Z</time></trkpt><trkpt lat="35.75785917666249" lon="-5.93433801976756"><ele>22.75</ele><time>2026-04-22T11:04:00Z</time></trkpt><trkpt lat="35.757964044993834" lon="-5.934428574335663"><ele>23.0</ele><time>2026-04-22T11:04:01Z</time></trkpt><trkpt lat="35.75806966604925" lon="-5.934519808506126"><ele>23.0</ele><time>2026-04-22T11:04:02Z</time></trkpt><trkpt lat="35.75817608323614" lon="-5.9346137436870166"><ele>23.0</ele><time>2026-04-22T11:04:03Z</time></trkpt><trkpt lat="35.75828083994779" lon="-5.934705707202582"><ele>23.0</ele><time>2026-04-22T11:04:04Z</time></trkpt><trkpt lat="35.75838412913064" lon="-5.934796383550101"><ele>23.0</ele><time>2026-04-22T11:04:05Z</time></trkpt><trkpt lat="35.75848365413937" lon="-5.934900622803493"><ele>23.5</ele><time>2026-04-22T11:04:06Z</time></trkpt><trkpt lat="35.758570901233156" lon="-5.935020859226895"><ele>24.0</ele><time>2026-04-22T11:04:07Z</time></trkpt><trkpt lat="35.7586436419085" lon="-5.935153990108515"><ele>24.5</ele><time>2026-04-22T11:04:08Z</time></trkpt><trkpt lat="35.75867241334704" lon="-5.935323550146912"><ele>25.0</ele><time>2026-04-22T11:04:09Z</time></trkpt><trkpt lat="35.758685246217546" lon="-5.935480967995001"><ele>25.5</ele><time>2026-04-22T11:04:10Z</time></trkpt><trkpt lat="35.758695866890115" lon="-5.9356351904205695"><ele>26.0</ele><time>2026-04-22T11:04:11Z</time></trkpt><trkpt lat="35.75871675650296" lon="-5.93578122640082"><ele>26.5</ele><time>2026-04-22T11:04:12Z</time></trkpt><trkpt lat="35.75875250503319" lon="-5.935923257658762"><ele>27.0</ele><time>2026-04-22T11:04:13Z</time></trkpt><trkpt lat="35.7587963447011" lon="-5.936068662104495"><ele>27.0</ele><time>2026-04-22T11:04:14Z</time></trkpt><trkpt lat="35.758841413964504" lon="-5.93621498570458"><ele>27.0</ele><time>2026-04-22T11:04:15Z</time></trkpt><trkpt lat="35.75888567830751" lon="-5.936363504107689"><ele>27.0</ele><time>2026-04-22T11:04:16Z</time></trkpt><trkpt lat="35.758930711585286" lon="-5.936510272471598"><ele>27.0</ele><time>2026-04-22T11:04:17Z</time></trkpt><trkpt lat="35.758974641476144" lon="-5.9366539173689095"><ele>26.6</ele><time>2026-04-22T11:04:18Z</time></trkpt><trkpt lat="35.75901638570855" lon="-5.936789770504524"><ele>26.200000000000003</ele><time>2026-04-22T11:04:19Z</time></trkpt><trkpt lat="35.75905458687638" lon="-5.936914093032246"><ele>25.8</ele><time>2026-04-22T11:04:20Z</time></trkpt><trkpt lat="35.759089912776226" lon="-5.937028531654122"><ele>25.4</ele><time>2026-04-22T11:04:21Z</time></trkpt><trkpt lat="35.759122097811556" lon="-5.9371337650109295"><ele>25.0</ele><time>2026-04-22T11:04:22Z</time></trkpt><trkpt lat="35.75915194122148" lon="-5.9372324337684885"><ele>25.0</ele><time>2026-04-22T11:04:23Z</time></trkpt><trkpt lat="35.759180880212966" lon="-5.93732721679325"><ele>25.0</ele><time>2026-04-22T11:04:24Z</time></trkpt><trkpt lat="35.759205993193916" lon="-5.937409820218446"><ele>25.0</ele><time>2026-04-22T11:04:25Z</time></trkpt><trkpt lat="35.759250123311126" lon="-5.937542455634745"><ele>25.0</ele><time>2026-04-22T11:04:27Z</time></trkpt><trkpt lat="35.7592964168527" lon="-5.937673943939173"><ele>25.0</ele><time>2026-04-22T11:04:29Z</time></trkpt><trkpt lat="35.75933448133383" lon="-5.9377804405989485"><ele>24.714285714285715</ele><time>2026-04-22T11:04:31Z</time></trkpt><trkpt lat="35.75936812128717" lon="-5.937861677145089"><ele>24.42857142857143</ele><time>2026-04-22T11:04:34Z</time></trkpt><trkpt lat="35.759437390917036" lon="-5.937877237472573"><ele>24.142857142857146</ele><time>2026-04-22T11:09:17.019Z</time></trkpt><trkpt lat="35.759365813523125" lon="-5.9379054975144365"><ele>23.857142857142858</ele><time>2026-04-22T11:09:53.999Z</time></trkpt><trkpt lat="35.75941549525867" lon="-5.937973117991744"><ele>23.57142857142857</ele><time>2026-04-22T11:10:56.999Z</time></trkpt><trkpt lat="35.759452924213605" lon="-5.938045156811731"><ele>23.28571428571429</ele><time>2026-04-22T11:11:01.999Z</time></trkpt><trkpt lat="35.75947999583681" lon="-5.938122926268171"><ele>23.0</ele><time>2026-04-22T11:11:06.999Z</time></trkpt><trkpt lat="35.7595167873018" lon="-5.938190484599351"><ele>22.714285714285715</ele><time>2026-04-22T11:11:11.999Z</time></trkpt><trkpt lat="35.759554875888526" lon="-5.938254718871182"><ele>22.428571428571427</ele><time>2026-04-22T11:11:18.999Z</time></trkpt><trkpt lat="35.759626448346346" lon="-5.93827651563075"><ele>22.142857142857142</ele><time>2026-04-22T11:11:24.999Z</time></trkpt><trkpt lat="35.759692871572504" lon="-5.938302592560886"><ele>21.857142857142858</ele><time>2026-04-22T11:11:30Z</time></trkpt><trkpt lat="35.75976624248344" lon="-5.938332260194241"><ele>21.57142857142857</ele><time>2026-04-22T11:11:35Z</time></trkpt><trkpt lat="35.75983461134436" lon="-5.938365934413278"><ele>21.285714285714285</ele><time>2026-04-22T11:11:40Z</time></trkpt><trkpt lat="35.75989106278443" lon="-5.938411053346007"><ele>21.0</ele><time>2026-04-22T11:11:45Z</time></trkpt><trkpt lat="35.75994852908794" lon="-5.938447943662041"><ele>20.0</ele><time>2026-04-22T11:11:50Z</time></trkpt><trkpt lat="35.76000289971416" lon="-5.938490481162369"><ele>19.0</ele><time>2026-04-22T11:11:56Z</time></trkpt><trkpt lat="35.76005495472975" lon="-5.938552298815838"><ele>18.0</ele><time>2026-04-22T11:12:02Z</time></trkpt><trkpt lat="35.76007894048738" lon="-5.938631550818087"><ele>17.0</ele><time>2026-04-22T11:12:07Z</time></trkpt><trkpt lat="35.7600935795737" lon="-5.938714105064915"><ele>16.0</ele><time>2026-04-22T11:12:13Z</time></trkpt><trkpt lat="35.76008787380041" lon="-5.938797440584737"><ele>15.0</ele><time>2026-04-22T11:12:19Z</time></trkpt><trkpt lat="35.760132999557186" lon="-5.938852844226347"><ele>14.0</ele><time>2026-04-22T11:12:25Z</time></trkpt><trkpt lat="35.760180587576905" lon="-5.938909700414105"><ele>14.0</ele><time>2026-04-22T11:12:30Z</time></trkpt><trkpt lat="35.760229639867106" lon="-5.938958724991162"><ele>14.0</ele><time>2026-04-22T11:12:36Z</time></trkpt><trkpt lat="35.760188329421894" lon="-5.939031881597205"><ele>14.0</ele><time>2026-04-22T11:12:42Z</time></trkpt><trkpt lat="35.7601260823451" lon="-5.9390721553637595"><ele>14.0</ele><time>2026-04-22T11:12:47Z</time></trkpt><trkpt lat="35.760053641647346" lon="-5.9390873366829835"><ele>14.0</ele><time>2026-04-22T11:12:53Z</time></trkpt><trkpt lat="35.75998275765915" lon="-5.939083725725405"><ele>14.0</ele><time>2026-04-22T11:12:59Z</time></trkpt><trkpt lat="35.76003031118771" lon="-5.939139153741637"><ele>14.0</ele><time>2026-04-22T11:13:20.999Z</time></trkpt><trkpt lat="35.760030613290574" lon="-5.93921757640724"><ele>14.000000000000002</ele><time>2026-04-22T11:13:27.999Z</time></trkpt><trkpt lat="35.759963855197654" lon="-5.939247981963172"><ele>14.0</ele><time>2026-04-22T11:13:39Z</time></trkpt><trkpt lat="35.75990328786276" lon="-5.93927466262631"><ele>14.0</ele><time>2026-04-22T11:13:50Z</time></trkpt><trkpt lat="35.7598876169614" lon="-5.9391918040629"><ele>14.0</ele><time>2026-04-22T11:14:16Z</time></trkpt><trkpt lat="35.75995175411542" lon="-5.939201146522826"><ele>14.000000000000002</ele><time>2026-04-22T11:16:35.999Z</time></trkpt><trkpt lat="35.75987264004117" lon="-5.9391560416539955"><ele>14.0</ele><time>2026-04-22T11:17:52.997Z</time></trkpt><trkpt lat="35.75988509661411" lon="-5.938985796381407"><ele>21.0</ele><time>2026-04-22T11:18:01.997Z</time></trkpt><trkpt lat="35.759989710980456" lon="-5.938345606336182"><ele>21.0</ele><time>2026-04-22T11:18:02.997Z</time></trkpt><trkpt lat="35.760141894725194" lon="-5.9383697368415245"><ele>21.0</ele><time>2026-04-22T11:18:04.062Z</time></trkpt><trkpt lat="35.76029839785805" lon="-5.938420765113481"><ele>21.0</ele><time>2026-04-22T11:18:06.057Z</time></trkpt><trkpt lat="35.760316990502915" lon="-5.9384958791922555"><ele>21.0</ele><time>2026-04-22T11:18:07.057Z</time></trkpt><trkpt lat="35.76036479492784" lon="-5.9385780735294995"><ele>18.666666666666668</ele><time>2026-04-22T11:18:08.059Z</time></trkpt><trkpt lat="35.76044453080036" lon="-5.93858013588931"><ele>16.333333333333336</ele><time>2026-04-22T11:18:09.058Z</time></trkpt><trkpt lat="35.760306385700815" lon="-5.938705035416741"><ele>14.0</ele><time>2026-04-22T11:18:10.058Z</time></trkpt><trkpt lat="35.760140118138274" lon="-5.939055204638523"><ele>14.0</ele><time>2026-04-22T11:20:06.011Z</time></trkpt><trkpt lat="35.7600675959668" lon="-5.939256606462874"><ele>14.0</ele><time>2026-04-22T11:20:08.01Z</time></trkpt><trkpt lat="35.75993799616023" lon="-5.939195442050059"><ele>14.0</ele><time>2026-04-22T11:20:12.999Z</time></trkpt><trkpt lat="35.759873178481065" lon="-5.939198799929512"><ele>14.0</ele><time>2026-04-22T11:20:16.998Z</time></trkpt><trkpt lat="35.75982247459844" lon="-5.9391199727045825"><ele>14.0</ele><time>2026-04-22T11:20:24.998Z</time></trkpt><trkpt lat="35.75982297568998" lon="-5.939014001799419"><ele>13.999999999999998</ele><time>2026-04-22T11:20:41.998Z</time></trkpt><trkpt lat="35.760015798718904" lon="-5.938954601589555"><ele>13.999999999999998</ele><time>2026-04-22T11:20:51.999Z</time></trkpt><trkpt lat="35.75997718556842" lon="-5.938882928534038"><ele>14.0</ele><time>2026-04-22T11:20:52.999Z</time></trkpt><trkpt lat="35.75995507200508" lon="-5.9389878815027055"><ele>14.0</ele><time>2026-04-22T11:20:53.999Z</time></trkpt><trkpt lat="35.759890551961256" lon="-5.93900915788393"><ele>14.0</ele><time>2026-04-22T11:20:54.999Z</time></trkpt><trkpt lat="35.75981061264209" lon="-5.938861383549382"><ele>14.0</ele><time>2026-04-22T11:21:01.999Z</time></trkpt><trkpt lat="35.75967661357101" lon="-5.938805239104775"><ele>14.0</ele><time>2026-04-22T11:21:03.999Z</time></trkpt><trkpt lat="35.75952628735798" lon="-5.938772151227579"><ele>14.0</ele><time>2026-04-22T11:21:04.999Z</time></trkpt><trkpt lat="35.75937505774688" lon="-5.938734763315381"><ele>14.0</ele><time>2026-04-22T11:21:05.999Z</time></trkpt><trkpt lat="35.75930993321898" lon="-5.938691852161869"><ele>14.0</ele><time>2026-04-22T11:21:08.059Z</time></trkpt><trkpt lat="35.75920879797909" lon="-5.938639013860918"><ele>14.0</ele><time>2026-04-22T11:21:10.058Z</time></trkpt><trkpt lat="35.75987646923299" lon="-5.939182964005741"><ele>14.0</ele><time>2026-04-22T11:21:25.904Z</time></trkpt><trkpt lat="35.75987158725151" lon="-5.939260517308418"><ele>14.0</ele><time>2026-04-22T11:28:27.998Z</time></trkpt><trkpt lat="35.75994127540749" lon="-5.939284481767377"><ele>14.0</ele><time>2026-04-22T11:28:36.999Z</time></trkpt><trkpt lat="35.75999335942716" lon="-5.939232636349584"><ele>14.0</ele><time>2026-04-22T11:28:43.999Z</time></trkpt><trkpt lat="35.76005627036135" lon="-5.939190141419204"><ele>14.0</ele><time>2026-04-22T11:32:03.002Z</time></trkpt><trkpt lat="35.76006434074405" lon="-5.93911307629586"><ele>14.0</ele><time>2026-04-22T11:32:08.002Z</time></trkpt><trkpt lat="35.760062345790466" lon="-5.939024824940961"><ele>14.0</ele><time>2026-04-22T11:32:13.002Z</time></trkpt><trkpt lat="35.76006980105565" lon="-5.938941508810389"><ele>14.0</ele><time>2026-04-22T11:32:18.002Z</time></trkpt><trkpt lat="35.760074068260124" lon="-5.9388518624394795"><ele>14.0</ele><time>2026-04-22T11:32:23.002Z</time></trkpt><trkpt lat="35.760098334243864" lon="-5.938763734077921"><ele>14.0</ele><time>2026-04-22T11:32:28.002Z</time></trkpt><trkpt lat="35.76004923888881" lon="-5.938687467366977"><ele>14.0</ele><time>2026-04-22T11:32:34.003Z</time></trkpt><trkpt lat="35.76001739840821" lon="-5.938608613869405"><ele>14.0</ele><time>2026-04-22T11:32:38.003Z</time></trkpt><trkpt lat="35.75997939439174" lon="-5.93854277947638"><ele>14.0</ele><time>2026-04-22T11:32:43.002Z</time></trkpt><trkpt lat="35.75991356062292" lon="-5.938491037617153"><ele>14.0</ele><time>2026-04-22T11:32:48.002Z</time></trkpt><trkpt lat="35.759850557131266" lon="-5.938449395783256"><ele>14.0</ele><time>2026-04-22T11:32:53.002Z</time></trkpt><trkpt lat="35.7597894895244" lon="-5.938411173909117"><ele>14.0</ele><time>2026-04-22T11:32:58.002Z</time></trkpt><trkpt lat="35.75972541793428" lon="-5.938369429467951"><ele>14.0</ele><time>2026-04-22T11:33:03.002Z</time></trkpt><trkpt lat="35.759659485899746" lon="-5.9383296933466765"><ele>14.0</ele><time>2026-04-22T11:33:08.002Z</time></trkpt><trkpt lat="35.75959724000152" lon="-5.938282210628158"><ele>14.0</ele><time>2026-04-22T11:33:13.002Z</time></trkpt><trkpt lat="35.759556170642256" lon="-5.938206615906515"><ele>14.0</ele><time>2026-04-22T11:33:18.002Z</time></trkpt><trkpt lat="35.75952110017753" lon="-5.938122736376563"><ele>14.0</ele><time>2026-04-22T11:33:23.002Z</time></trkpt><trkpt lat="35.759488556505296" lon="-5.9380450184878395"><ele>15.0</ele><time>2026-04-22T11:33:28.002Z</time></trkpt><trkpt lat="35.75946272812924" lon="-5.937960201998832"><ele>16.0</ele><time>2026-04-22T11:33:33.002Z</time></trkpt><trkpt lat="35.75941333388832" lon="-5.937904556395235"><ele>17.0</ele><time>2026-04-22T11:33:38.002Z</time></trkpt><trkpt lat="35.75939231378902" lon="-5.937995810719916"><ele>18.0</ele><time>2026-04-22T12:07:24.999Z</time></trkpt><trkpt lat="35.75932943833741" lon="-5.937973629324442"><ele>19.0</ele><time>2026-04-22T12:07:26.999Z</time></trkpt><trkpt lat="35.75931030627408" lon="-5.937895971821976"><ele>20.0</ele><time>2026-04-22T12:07:29.999Z</time></trkpt><trkpt lat="35.75926165600366" lon="-5.937789516791095"><ele>21.0</ele><time>2026-04-22T12:07:32.999Z</time></trkpt><trkpt lat="35.759236574042795" lon="-5.937699625326799"><ele>21.285714285714285</ele><time>2026-04-22T12:07:34.999Z</time></trkpt><trkpt lat="35.75920101997431" lon="-5.937623436980653"><ele>21.57142857142857</ele><time>2026-04-22T12:07:36.999Z</time></trkpt><trkpt lat="35.759162452751355" lon="-5.937523879808981"><ele>21.857142857142858</ele><time>2026-04-22T12:07:39.999Z</time></trkpt><trkpt lat="35.759142575363384" lon="-5.937443811212579"><ele>22.142857142857142</ele><time>2026-04-22T12:07:41.999Z</time></trkpt><trkpt lat="35.7591228726776" lon="-5.937365159165263"><ele>22.428571428571427</ele><time>2026-04-22T12:07:43.999Z</time></trkpt><trkpt lat="35.75909727579502" lon="-5.937287236717372"><ele>22.714285714285715</ele><time>2026-04-22T12:07:45.999Z</time></trkpt><trkpt lat="35.759059303884065" lon="-5.937196629299295"><ele>23.0</ele><time>2026-04-22T12:07:48.999Z</time></trkpt><trkpt lat="35.7590368875905" lon="-5.9371018447329105"><ele>23.333333333333336</ele><time>2026-04-22T12:08:12.997Z</time></trkpt><trkpt lat="35.75900218549181" lon="-5.936980494450205"><ele>23.666666666666668</ele><time>2026-04-22T12:08:14.997Z</time></trkpt><trkpt lat="35.75895871923716" lon="-5.936851441049494"><ele>24.0</ele><time>2026-04-22T12:08:16.997Z</time></trkpt><trkpt lat="35.75893766106594" lon="-5.936778016373424"><ele>24.333333333333336</ele><time>2026-04-22T12:08:17.997Z</time></trkpt><trkpt lat="35.75891325832717" lon="-5.936693066924697"><ele>24.666666666666668</ele><time>2026-04-22T12:08:18.997Z</time></trkpt><trkpt lat="35.758885882152796" lon="-5.936600102443108"><ele>25.0</ele><time>2026-04-22T12:08:19.997Z</time></trkpt><trkpt lat="35.75885765205435" lon="-5.936511344177625"><ele>25.333333333333336</ele><time>2026-04-22T12:08:20.998Z</time></trkpt><trkpt lat="35.75882674923048" lon="-5.936417287614818"><ele>25.666666666666668</ele><time>2026-04-22T12:08:21.998Z</time></trkpt><trkpt lat="35.75879593205725" lon="-5.93632032637116"><ele>26.0</ele><time>2026-04-22T12:08:22.998Z</time></trkpt><trkpt lat="35.75876485185717" lon="-5.936218558654247"><ele>26.333333333333336</ele><time>2026-04-22T12:08:23.998Z</time></trkpt><trkpt lat="35.75873431944521" lon="-5.93611193496807"><ele>26.666666666666668</ele><time>2026-04-22T12:08:24.998Z</time></trkpt><trkpt lat="35.75870242126073" lon="-5.936000144438006"><ele>27.0</ele><time>2026-04-22T12:08:25.998Z</time></trkpt><trkpt lat="35.75867038388503" lon="-5.935886808706476"><ele>27.200000000000003</ele><time>2026-04-22T12:08:26.998Z</time></trkpt><trkpt lat="35.75864301808983" lon="-5.9357738862575165"><ele>27.400000000000002</ele><time>2026-04-22T12:08:27.998Z</time></trkpt><trkpt lat="35.75862674749194" lon="-5.93565847474"><ele>27.599999999999998</ele><time>2026-04-22T12:08:28.998Z</time></trkpt><trkpt lat="35.75861717371452" lon="-5.935538770145446"><ele>27.799999999999997</ele><time>2026-04-22T12:08:29.998Z</time></trkpt><trkpt lat="35.75860948123329" lon="-5.935418927431286"><ele>28.0</ele><time>2026-04-22T12:08:30.998Z</time></trkpt><trkpt lat="35.75859216202787" lon="-5.9353019128157785"><ele>28.0</ele><time>2026-04-22T12:08:31.998Z</time></trkpt><trkpt lat="35.75856370881504" lon="-5.9351931518574"><ele>27.999999999999996</ele><time>2026-04-22T12:08:32.998Z</time></trkpt><trkpt lat="35.75851924564892" lon="-5.935093965412256"><ele>27.999999999999996</ele><time>2026-04-22T12:08:33.998Z</time></trkpt><trkpt lat="35.75846025939761" lon="-5.935010178428681"><ele>28.0</ele><time>2026-04-22T12:08:34.998Z</time></trkpt><trkpt lat="35.758397464915056" lon="-5.934931253794648"><ele>28.0</ele><time>2026-04-22T12:08:35.998Z</time></trkpt><trkpt lat="35.75833241775491" lon="-5.934855831143358"><ele>27.0</ele><time>2026-04-22T12:08:36.998Z</time></trkpt><trkpt lat="35.75826303112849" lon="-5.934789950443253"><ele>25.999999999999996</ele><time>2026-04-22T12:08:37.998Z</time></trkpt><trkpt lat="35.758190956562416" lon="-5.9347242182738595"><ele>25.0</ele><time>2026-04-22T12:08:38.998Z</time></trkpt><trkpt lat="35.758115869811746" lon="-5.9346598998819395"><ele>24.0</ele><time>2026-04-22T12:08:39.998Z</time></trkpt><trkpt lat="35.758039705916914" lon="-5.934593831182172"><ele>23.0</ele><time>2026-04-22T12:08:40.998Z</time></trkpt><trkpt lat="35.75796198830665" lon="-5.934527921342786"><ele>23.0</ele><time>2026-04-22T12:08:41.998Z</time></trkpt><trkpt lat="35.75788501307107" lon="-5.934461400023273"><ele>23.0</ele><time>2026-04-22T12:08:42.998Z</time></trkpt><trkpt lat="35.75780738554614" lon="-5.934398152405404"><ele>23.0</ele><time>2026-04-22T12:08:43.998Z</time></trkpt><trkpt lat="35.75773359866458" lon="-5.934336270357374"><ele>23.0</ele><time>2026-04-22T12:08:44.998Z</time></trkpt><trkpt lat="35.75766148523214" lon="-5.93427600387916"><ele>23.0</ele><time>2026-04-22T12:08:45.999Z</time></trkpt><trkpt lat="35.75759193431444" lon="-5.934216062691624"><ele>23.0</ele><time>2026-04-22T12:08:46.999Z</time></trkpt><trkpt lat="35.75752545782215" lon="-5.93415589626124"><ele>22.833333333333336</ele><time>2026-04-22T12:08:47.999Z</time></trkpt><trkpt lat="35.7574601795678" lon="-5.934095756165684"><ele>22.666666666666668</ele><time>2026-04-22T12:08:48.999Z</time></trkpt><trkpt lat="35.7573932526223" lon="-5.934032342046015"><ele>22.5</ele><time>2026-04-22T12:08:49.999Z</time></trkpt><trkpt lat="35.7573294003456" lon="-5.93397144899148"><ele>22.333333333333332</ele><time>2026-04-22T12:08:50.999Z</time></trkpt><trkpt lat="35.757277465693804" lon="-5.933900820949663"><ele>22.166666666666664</ele><time>2026-04-22T12:08:51.999Z</time></trkpt><trkpt lat="35.75723797659764" lon="-5.933824589577214"><ele>22.0</ele><time>2026-04-22T12:08:52.999Z</time></trkpt><trkpt lat="35.75720572999613" lon="-5.933746042377693"><ele>22.0</ele><time>2026-04-22T12:08:53.999Z</time></trkpt><trkpt lat="35.75718237402109" lon="-5.933665129001778"><ele>22.0</ele><time>2026-04-22T12:08:54.999Z</time></trkpt><trkpt lat="35.75716603878655" lon="-5.9335807580810025"><ele>22.0</ele><time>2026-04-22T12:08:55.999Z</time></trkpt><trkpt lat="35.757157955816204" lon="-5.933493233698617"><ele>22.0</ele><time>2026-04-22T12:08:56.999Z</time></trkpt><trkpt lat="35.75715671476507" lon="-5.933401905336507"><ele>22.0</ele><time>2026-04-22T12:08:57.999Z</time></trkpt><trkpt lat="35.757159512223716" lon="-5.933314182379093"><ele>22.0</ele><time>2026-04-22T12:08:58.999Z</time></trkpt><trkpt lat="35.75716632529246" lon="-5.933230116991491"><ele>22.0</ele><time>2026-04-22T12:08:59.999Z</time></trkpt><trkpt lat="35.7571740762842" lon="-5.9331454286169345"><ele>22.285714285714285</ele><time>2026-04-22T12:09:00.999Z</time></trkpt><trkpt lat="35.757181698898876" lon="-5.933060545666049"><ele>22.57142857142857</ele><time>2026-04-22T12:09:01.999Z</time></trkpt><trkpt lat="35.75718775366006" lon="-5.9329766547067795"><ele>22.857142857142854</ele><time>2026-04-22T12:09:02.999Z</time></trkpt><trkpt lat="35.757190913947134" lon="-5.9328877485918685"><ele>23.142857142857142</ele><time>2026-04-22T12:09:03.999Z</time></trkpt><trkpt lat="35.757190367003545" lon="-5.932793392976425"><ele>23.428571428571427</ele><time>2026-04-22T12:09:04.999Z</time></trkpt><trkpt lat="35.757185460362805" lon="-5.9326961047956335"><ele>23.71428571428571</ele><time>2026-04-22T12:09:05.999Z</time></trkpt><trkpt lat="35.75717359455213" lon="-5.932594832211953"><ele>24.0</ele><time>2026-04-22T12:09:06.999Z</time></trkpt><trkpt lat="35.75715001204567" lon="-5.932491334618207"><ele>23.166666666666668</ele><time>2026-04-22T12:09:07.999Z</time></trkpt><trkpt lat="35.75712554693318" lon="-5.932389056470821"><ele>22.333333333333332</ele><time>2026-04-22T12:09:08.999Z</time></trkpt><trkpt lat="35.75710416658616" lon="-5.932288281816424"><ele>21.5</ele><time>2026-04-22T12:09:09.999Z</time></trkpt><trkpt lat="35.75708756702616" lon="-5.932185762942284"><ele>20.666666666666664</ele><time>2026-04-22T12:09:10.999Z</time></trkpt><trkpt lat="35.757076999447" lon="-5.932080245320501"><ele>19.833333333333332</ele><time>2026-04-22T12:09:11.999Z</time></trkpt><trkpt lat="35.75707186486917" lon="-5.93197471844766"><ele>19.0</ele><time>2026-04-22T12:09:12.999Z</time></trkpt><trkpt lat="35.75706850899366" lon="-5.9318718483452155"><ele>19.0</ele><time>2026-04-22T12:09:13.999Z</time></trkpt><trkpt lat="35.757066024642086" lon="-5.931773228525767"><ele>19.0</ele><time>2026-04-22T12:09:14.999Z</time></trkpt><trkpt lat="35.757064403733914" lon="-5.931678424345482"><ele>19.0</ele><time>2026-04-22T12:09:15.999Z</time></trkpt><trkpt lat="35.75706321291124" lon="-5.931586516667603"><ele>19.0</ele><time>2026-04-22T12:09:16.999Z</time></trkpt><trkpt lat="35.757061503216036" lon="-5.9314997714397455"><ele>19.0</ele><time>2026-04-22T12:09:17.999Z</time></trkpt><trkpt lat="35.757060305668496" lon="-5.931418687739952"><ele>19.0</ele><time>2026-04-22T12:09:18.999Z</time></trkpt><trkpt lat="35.75706649614413" lon="-5.931273235075857"><ele>18.0</ele><time>2026-04-22T12:09:20.999Z</time></trkpt><trkpt lat="35.75708071705702" lon="-5.931143385116347"><ele>17.0</ele><time>2026-04-22T12:09:22.999Z</time></trkpt><trkpt lat="35.75709171638257" lon="-5.931026049757066"><ele>15.999999999999998</ele><time>2026-04-22T12:09:24.999Z</time></trkpt><trkpt lat="35.75712273556627" lon="-5.930914535648509"><ele>15.0</ele><time>2026-04-22T12:09:26.999Z</time></trkpt><trkpt lat="35.75706665679763" lon="-5.9308257287420085"><ele>14.0</ele><time>2026-04-22T12:09:28.999Z</time></trkpt><trkpt lat="35.75698381498781" lon="-5.930812099458259"><ele>14.000000000000002</ele><time>2026-04-22T12:09:30.999Z</time></trkpt><trkpt lat="35.75692964711766" lon="-5.930851887424391"><ele>14.0</ele><time>2026-04-22T12:09:31.999Z</time></trkpt><trkpt lat="35.75687555632607" lon="-5.930901579789792"><ele>14.0</ele><time>2026-04-22T12:09:32.999Z</time></trkpt><trkpt lat="35.75681158845656" lon="-5.930959731712231"><ele>14.0</ele><time>2026-04-22T12:09:33.999Z</time></trkpt><trkpt lat="35.756740373038156" lon="-5.9310200860679805"><ele>14.000000000000002</ele><time>2026-04-22T12:09:34.999Z</time></trkpt><trkpt lat="35.75666239920775" lon="-5.931080768899414"><ele>14.0</ele><time>2026-04-22T12:09:35.999Z</time></trkpt><trkpt lat="35.75658144712859" lon="-5.931143984458063"><ele>14.2</ele><time>2026-04-22T12:09:36.999Z</time></trkpt><trkpt lat="35.756497059032505" lon="-5.931211762698832"><ele>14.399999999999999</ele><time>2026-04-22T12:09:37.999Z</time></trkpt><trkpt lat="35.75640759296393" lon="-5.931285102763296"><ele>14.6</ele><time>2026-04-22T12:09:38.999Z</time></trkpt><trkpt lat="35.756312775328624" lon="-5.931360722999279"><ele>14.8</ele><time>2026-04-22T12:09:39.999Z</time></trkpt><trkpt lat="35.75621612033423" lon="-5.931434303672868"><ele>15.0</ele><time>2026-04-22T12:09:40.999Z</time></trkpt><trkpt lat="35.756125028622556" lon="-5.9315277105403705"><ele>14.5</ele><time>2026-04-22T12:09:41.999Z</time></trkpt><trkpt lat="35.75602274336375" lon="-5.931613602035674"><ele>14.0</ele><time>2026-04-22T12:09:42.999Z</time></trkpt><trkpt lat="35.75591866420736" lon="-5.93170099990682"><ele>13.5</ele><time>2026-04-22T12:09:43.999Z</time></trkpt><trkpt lat="35.75581278578957" lon="-5.931789030481358"><ele>13.0</ele><time>2026-04-22T12:09:44.999Z</time></trkpt><trkpt lat="35.75570277859716" lon="-5.9318737577175"><ele>12.75</ele><time>2026-04-22T12:09:45.999Z</time></trkpt><trkpt lat="35.75559176524258" lon="-5.9319529933105954"><ele>12.5</ele><time>2026-04-22T12:09:46.999Z</time></trkpt><trkpt lat="35.755488475923464" lon="-5.932049212728857"><ele>12.25</ele><time>2026-04-22T12:09:47.999Z</time></trkpt><trkpt lat="35.755381768328476" lon="-5.932145989584056"><ele>12.0</ele><time>2026-04-22T12:09:48.999Z</time></trkpt><trkpt lat="35.75527201082138" lon="-5.932240749179045"><ele>12.0</ele><time>2026-04-22T12:09:49.999Z</time></trkpt><trkpt lat="35.75516221238939" lon="-5.932331868047333"><ele>12.0</ele><time>2026-04-22T12:09:50.999Z</time></trkpt><trkpt lat="35.755048644647474" lon="-5.9324246847636815"><ele>12.0</ele><time>2026-04-22T12:09:51.999Z</time></trkpt><trkpt lat="35.75493699267837" lon="-5.932517774206276"><ele>12.0</ele><time>2026-04-22T12:09:52.999Z</time></trkpt><trkpt lat="35.75482349993732" lon="-5.932610452074783"><ele>12.0</ele><time>2026-04-22T12:09:53.999Z</time></trkpt><trkpt lat="35.754709261080755" lon="-5.932703796162071"><ele>12.0</ele><time>2026-04-22T12:09:54.999Z</time></trkpt><trkpt lat="35.75459564818155" lon="-5.932796691068534"><ele>12.0</ele><time>2026-04-22T12:09:55.999Z</time></trkpt><trkpt lat="35.75448416258218" lon="-5.932885701446862"><ele>12.0</ele><time>2026-04-22T12:09:56.999Z</time></trkpt><trkpt lat="35.75438043728303" lon="-5.932967841714194"><ele>13.75</ele><time>2026-04-22T12:09:57.999Z</time></trkpt><trkpt lat="35.754281847140255" lon="-5.933048316389307"><ele>15.5</ele><time>2026-04-22T12:09:58.999Z</time></trkpt><trkpt lat="35.75420214688183" lon="-5.933151805447993"><ele>17.25</ele><time>2026-04-22T12:09:59.999Z</time></trkpt><trkpt lat="35.75409976423993" lon="-5.933224822173001"><ele>19.0</ele><time>2026-04-22T12:10:00.999Z</time></trkpt><trkpt lat="35.75398742710038" lon="-5.93326719066865"><ele>19.0</ele><time>2026-04-22T12:10:01.999Z</time></trkpt><trkpt lat="35.75387492608822" lon="-5.9333137036702706"><ele>19.0</ele><time>2026-04-22T12:10:02.999Z</time></trkpt><trkpt lat="35.75375548987326" lon="-5.933339325045576"><ele>19.0</ele><time>2026-04-22T12:10:03.999Z</time></trkpt><trkpt lat="35.75362831184171" lon="-5.933353448787827"><ele>19.0</ele><time>2026-04-22T12:10:04.999Z</time></trkpt><trkpt lat="35.75349904663866" lon="-5.933364109952254"><ele>16.75</ele><time>2026-04-22T12:10:05.999Z</time></trkpt><trkpt lat="35.753374954903016" lon="-5.9333995380499"><ele>14.5</ele><time>2026-04-22T12:10:06.999Z</time></trkpt><trkpt lat="35.753249568380724" lon="-5.933404196903702"><ele>12.25</ele><time>2026-04-22T12:10:07.999Z</time></trkpt><trkpt lat="35.753133851379104" lon="-5.933460009863401"><ele>10.0</ele><time>2026-04-22T12:10:08.999Z</time></trkpt><trkpt lat="35.75303080763585" lon="-5.933537998899585"><ele>10.0</ele><time>2026-04-22T12:10:09.999Z</time></trkpt><trkpt lat="35.75294603689302" lon="-5.933637394383712"><ele>10.0</ele><time>2026-04-22T12:10:10.999Z</time></trkpt><trkpt lat="35.75287767404946" lon="-5.933750773785525"><ele>10.0</ele><time>2026-04-22T12:10:11.999Z</time></trkpt><trkpt lat="35.75282467178428" lon="-5.933876284682378"><ele>10.0</ele><time>2026-04-22T12:10:12.999Z</time></trkpt><trkpt lat="35.752792150783954" lon="-5.934013322322432"><ele>10.0</ele><time>2026-04-22T12:10:13.999Z</time></trkpt><trkpt lat="35.75277853665189" lon="-5.934157230223595"><ele>10.0</ele><time>2026-04-22T12:10:14.999Z</time></trkpt><trkpt lat="35.75277539172744" lon="-5.934303132163659"><ele>10.0</ele><time>2026-04-22T12:10:15.998Z</time></trkpt><trkpt lat="35.75277905410253" lon="-5.9344479541853685"><ele>10.0</ele><time>2026-04-22T12:10:16.998Z</time></trkpt><trkpt lat="35.75278587304648" lon="-5.9345884320143885"><ele>10.0</ele><time>2026-04-22T12:10:17.998Z</time></trkpt><trkpt lat="35.752787399597175" lon="-5.93472647918043"><ele>10.0</ele><time>2026-04-22T12:10:18.998Z</time></trkpt><trkpt lat="35.75277583057066" lon="-5.934866081885168"><ele>10.0</ele><time>2026-04-22T12:10:19.998Z</time></trkpt><trkpt lat="35.75274666838928" lon="-5.935004716294618"><ele>10.0</ele><time>2026-04-22T12:10:20.998Z</time></trkpt><trkpt lat="35.7526959253949" lon="-5.935138621133575"><ele>10.0</ele><time>2026-04-22T12:10:21.998Z</time></trkpt><trkpt lat="35.75262220279508" lon="-5.935262815247236"><ele>10.0</ele><time>2026-04-22T12:10:22.998Z</time></trkpt><trkpt lat="35.75253312087794" lon="-5.935375607044188"><ele>10.0</ele><time>2026-04-22T12:10:23.998Z</time></trkpt><trkpt lat="35.75242995238289" lon="-5.935469259614604"><ele>10.0</ele><time>2026-04-22T12:10:24.998Z</time></trkpt><trkpt lat="35.752315808036975" lon="-5.935548139574138"><ele>10.0</ele><time>2026-04-22T12:10:25.998Z</time></trkpt><trkpt lat="35.75219780709065" lon="-5.935622231571663"><ele>10.0</ele><time>2026-04-22T12:10:26.998Z</time></trkpt><trkpt lat="35.752077640089475" lon="-5.935698384249878"><ele>10.0</ele><time>2026-04-22T12:10:27.999Z</time></trkpt><trkpt lat="35.751957719915985" lon="-5.935775190937753"><ele>10.0</ele><time>2026-04-22T12:10:28.999Z</time></trkpt><trkpt lat="35.751834626232686" lon="-5.935850959963466"><ele>10.0</ele><time>2026-04-22T12:10:29.999Z</time></trkpt><trkpt lat="35.751708942780205" lon="-5.9359259405253555"><ele>10.0</ele><time>2026-04-22T12:10:30.999Z</time></trkpt><trkpt lat="35.75158199524793" lon="-5.936003123512444"><ele>10.0</ele><time>2026-04-22T12:10:31.999Z</time></trkpt><trkpt lat="35.75145320988776" lon="-5.936082213834344"><ele>10.0</ele><time>2026-04-22T12:10:32.999Z</time></trkpt><trkpt lat="35.751323631012035" lon="-5.936162683529023"><ele>10.0</ele><time>2026-04-22T12:10:33.999Z</time></trkpt><trkpt lat="35.75119246502192" lon="-5.9362463733202215"><ele>10.0</ele><time>2026-04-22T12:10:34.999Z</time></trkpt><trkpt lat="35.751062580059106" lon="-5.936328632865078"><ele>10.0</ele><time>2026-04-22T12:10:35.999Z</time></trkpt><trkpt lat="35.75093206579672" lon="-5.936407772236179"><ele>10.0</ele><time>2026-04-22T12:10:36.999Z</time></trkpt><trkpt lat="35.75080132865302" lon="-5.936486483024952"><ele>10.25</ele><time>2026-04-22T12:10:37.999Z</time></trkpt><trkpt lat="35.75066825926026" lon="-5.936564028930137"><ele>10.5</ele><time>2026-04-22T12:10:38.999Z</time></trkpt><trkpt lat="35.75053778058328" lon="-5.936640524591137"><ele>10.75</ele><time>2026-04-22T12:10:39.999Z</time></trkpt><trkpt lat="35.7504084915494" lon="-5.936719442151919"><ele>11.0</ele><time>2026-04-22T12:10:40.999Z</time></trkpt><trkpt lat="35.75028071191201" lon="-5.9367973395463824"><ele>10.25</ele><time>2026-04-22T12:10:41.999Z</time></trkpt><trkpt lat="35.75015222762711" lon="-5.936870464381854"><ele>9.5</ele><time>2026-04-22T12:10:42.999Z</time></trkpt><trkpt lat="35.7500227386201" lon="-5.936934738765649"><ele>8.75</ele><time>2026-04-22T12:10:43.999Z</time></trkpt><trkpt lat="35.74989601262945" lon="-5.936993941583371"><ele>8.0</ele><time>2026-04-22T12:10:44.999Z</time></trkpt><trkpt lat="35.74977006184741" lon="-5.937052145844177"><ele>8.0</ele><time>2026-04-22T12:10:45.999Z</time></trkpt><trkpt lat="35.74964759296396" lon="-5.9371069762323625"><ele>8.0</ele><time>2026-04-22T12:10:46.999Z</time></trkpt><trkpt lat="35.74952512239971" lon="-5.937160665607308"><ele>8.0</ele><time>2026-04-22T12:10:47.999Z</time></trkpt><trkpt lat="35.74940366076296" lon="-5.937217136940952"><ele>8.0</ele><time>2026-04-22T12:10:48.999Z</time></trkpt><trkpt lat="35.74928373928636" lon="-5.937284222056253"><ele>7.75</ele><time>2026-04-22T12:10:49.999Z</time></trkpt><trkpt lat="35.749169081940444" lon="-5.937366192307966"><ele>7.5</ele><time>2026-04-22T12:10:50.999Z</time></trkpt><trkpt lat="35.74905878510375" lon="-5.93745741030935"><ele>7.25</ele><time>2026-04-22T12:10:51.999Z</time></trkpt><trkpt lat="35.74894858034624" lon="-5.937554633807637"><ele>7.0</ele><time>2026-04-22T12:10:52.999Z</time></trkpt><trkpt lat="35.74883840898151" lon="-5.937653148667268"><ele>7.0</ele><time>2026-04-22T12:10:53.999Z</time></trkpt><trkpt lat="35.74873757423146" lon="-5.937763030975888"><ele>7.0</ele><time>2026-04-22T12:10:54.999Z</time></trkpt><trkpt lat="35.748626798331635" lon="-5.937857067625857"><ele>7.0</ele><time>2026-04-22T12:10:55.999Z</time></trkpt><trkpt lat="35.748503940116244" lon="-5.937929073961686"><ele>7.0</ele><time>2026-04-22T12:10:56.999Z</time></trkpt><trkpt lat="35.748371429551675" lon="-5.937958946218661"><ele>6.5</ele><time>2026-04-22T12:10:57.999Z</time></trkpt><trkpt lat="35.74824148536599" lon="-5.937996480238765"><ele>6.0</ele><time>2026-04-22T12:10:58.999Z</time></trkpt><trkpt lat="35.74811172921066" lon="-5.938034098181057"><ele>5.5</ele><time>2026-04-22T12:10:59.999Z</time></trkpt><trkpt lat="35.74798163192178" lon="-5.93806987636047"><ele>5.0</ele><time>2026-04-22T12:11:00.999Z</time></trkpt><trkpt lat="35.74784956930998" lon="-5.938105504075717"><ele>5.0</ele><time>2026-04-22T12:11:01.999Z</time></trkpt><trkpt lat="35.74771694802427" lon="-5.938141432237614"><ele>5.0</ele><time>2026-04-22T12:11:02.999Z</time></trkpt><trkpt lat="35.74758246485313" lon="-5.938177077420085"><ele>5.0</ele><time>2026-04-22T12:11:03.999Z</time></trkpt><trkpt lat="35.747445415656465" lon="-5.938214522391103"><ele>5.0</ele><time>2026-04-22T12:11:04.999Z</time></trkpt><trkpt lat="35.74730655549964" lon="-5.938255125784896"><ele>5.0</ele><time>2026-04-22T12:11:05.999Z</time></trkpt><trkpt lat="35.74716205047766" lon="-5.938299733223423"><ele>5.0</ele><time>2026-04-22T12:11:06.999Z</time></trkpt><trkpt lat="35.74702056337035" lon="-5.93834023186655"><ele>5.0</ele><time>2026-04-22T12:11:07.999Z</time></trkpt><trkpt lat="35.746882908747274" lon="-5.938376880556179"><ele>5.0</ele><time>2026-04-22T12:11:08.999Z</time></trkpt><trkpt lat="35.74674820018881" lon="-5.938414714373842"><ele>5.5</ele><time>2026-04-22T12:11:09.999Z</time></trkpt><trkpt lat="35.74661386234949" lon="-5.938457604734164"><ele>6.0</ele><time>2026-04-22T12:11:10.999Z</time></trkpt><trkpt lat="35.74647915546434" lon="-5.938500700551573"><ele>6.5</ele><time>2026-04-22T12:11:11.999Z</time></trkpt><trkpt lat="35.746344840997416" lon="-5.9385424516744525"><ele>7.0</ele><time>2026-04-22T12:11:12.999Z</time></trkpt><trkpt lat="35.746210374298556" lon="-5.9385826757026905"><ele>7.0</ele><time>2026-04-22T12:11:13.999Z</time></trkpt><trkpt lat="35.74607516391281" lon="-5.938623721201503"><ele>7.0</ele><time>2026-04-22T12:11:14.999Z</time></trkpt><trkpt lat="35.74593995001308" lon="-5.938664249367099"><ele>7.0</ele><time>2026-04-22T12:11:15.999Z</time></trkpt><trkpt lat="35.74580639090249" lon="-5.938703120488612"><ele>7.0</ele><time>2026-04-22T12:11:16.999Z</time></trkpt><trkpt lat="35.74567599770151" lon="-5.938741521012733"><ele>8.0</ele><time>2026-04-22T12:11:17.999Z</time></trkpt><trkpt lat="35.745549063795934" lon="-5.9387789379843925"><ele>9.0</ele><time>2026-04-22T12:11:18.999Z</time></trkpt><trkpt lat="35.74542598570888" lon="-5.938815253386802"><ele>10.0</ele><time>2026-04-22T12:11:19.999Z</time></trkpt><trkpt lat="35.74530905846953" lon="-5.938846839505933"><ele>11.0</ele><time>2026-04-22T12:11:20.999Z</time></trkpt><trkpt lat="35.74519656727095" lon="-5.9388760889404955"><ele>11.5</ele><time>2026-04-22T12:11:21.999Z</time></trkpt><trkpt lat="35.745082751680414" lon="-5.938906934285574"><ele>12.0</ele><time>2026-04-22T12:11:22.999Z</time></trkpt><trkpt lat="35.74496941165141" lon="-5.938938115365333"><ele>12.5</ele><time>2026-04-22T12:11:23.999Z</time></trkpt><trkpt lat="35.74485604548697" lon="-5.938968104978049"><ele>13.0</ele><time>2026-04-22T12:11:24.999Z</time></trkpt><trkpt lat="35.74474375849612" lon="-5.9389998450434796"><ele>13.0</ele><time>2026-04-22T12:11:25.999Z</time></trkpt><trkpt lat="35.74463236771618" lon="-5.939035611299635"><ele>13.0</ele><time>2026-04-22T12:11:26.999Z</time></trkpt><trkpt lat="35.7445190043408" lon="-5.939076315212736"><ele>13.0</ele><time>2026-04-22T12:11:27.999Z</time></trkpt><trkpt lat="35.744396903983535" lon="-5.9391182701632435"><ele>13.0</ele><time>2026-04-22T12:11:28.999Z</time></trkpt><trkpt lat="35.74426853576059" lon="-5.939158534157199"><ele>13.0</ele><time>2026-04-22T12:11:29.999Z</time></trkpt><trkpt lat="35.74413279158472" lon="-5.939198108908982"><ele>13.0</ele><time>2026-04-22T12:11:30.999Z</time></trkpt><trkpt lat="35.74399080156508" lon="-5.939241773036824"><ele>13.0</ele><time>2026-04-22T12:11:31.999Z</time></trkpt><trkpt lat="35.74384384312568" lon="-5.939289153870196"><ele>13.0</ele><time>2026-04-22T12:11:32.999Z</time></trkpt><trkpt lat="35.743695574835414" lon="-5.939340041533641"><ele>11.0</ele><time>2026-04-22T12:11:33.999Z</time></trkpt><trkpt lat="35.74354225347561" lon="-5.939394368754902"><ele>9.0</ele><time>2026-04-22T12:11:34.999Z</time></trkpt><trkpt lat="35.743391027044346" lon="-5.939449771616582"><ele>7.0</ele><time>2026-04-22T12:11:35.999Z</time></trkpt><trkpt lat="35.743236609315424" lon="-5.9395076553072395"><ele>7.0</ele><time>2026-04-22T12:11:36.999Z</time></trkpt><trkpt lat="35.74308137902334" lon="-5.939568300051986"><ele>7.0</ele><time>2026-04-22T12:11:37.999Z</time></trkpt><trkpt lat="35.74292504468612" lon="-5.939628565017582"><ele>7.0</ele><time>2026-04-22T12:11:38.999Z</time></trkpt><trkpt lat="35.74276638074603" lon="-5.939686434288509"><ele>7.0</ele><time>2026-04-22T12:11:39.999Z</time></trkpt><trkpt lat="35.74260727805406" lon="-5.939745795349081"><ele>7.0</ele><time>2026-04-22T12:11:40.999Z</time></trkpt><trkpt lat="35.742449578749806" lon="-5.939806544750084"><ele>7.0</ele><time>2026-04-22T12:11:41.999Z</time></trkpt><trkpt lat="35.742295852976355" lon="-5.939867169144187"><ele>7.0</ele><time>2026-04-22T12:11:43Z</time></trkpt><trkpt lat="35.74199135198048" lon="-5.939986387289891"><ele>7.0</ele><time>2026-04-22T12:11:45Z</time></trkpt><trkpt lat="35.74184172030053" lon="-5.940049080098507"><ele>7.0</ele><time>2026-04-22T12:11:46Z</time></trkpt><trkpt lat="35.74169224736894" lon="-5.940115859192036"><ele>7.0</ele><time>2026-04-22T12:11:47Z</time></trkpt><trkpt lat="35.741541267248216" lon="-5.940183814969284"><ele>7.0</ele><time>2026-04-22T12:11:48Z</time></trkpt><trkpt lat="35.741388571406645" lon="-5.94024981930142"><ele>7.0</ele><time>2026-04-22T12:11:49Z</time></trkpt><trkpt lat="35.74123746979069" lon="-5.940315534264473"><ele>7.0</ele><time>2026-04-22T12:11:50Z</time></trkpt><trkpt lat="35.74108673305977" lon="-5.940379497656136"><ele>7.0</ele><time>2026-04-22T12:11:51Z</time></trkpt><trkpt lat="35.74094332303395" lon="-5.9404407684935805"><ele>8.666666666666668</ele><time>2026-04-22T12:11:52Z</time></trkpt><trkpt lat="35.74079766278289" lon="-5.940502422428304"><ele>10.333333333333334</ele><time>2026-04-22T12:11:53Z</time></trkpt><trkpt lat="35.740648990191815" lon="-5.94056247314315"><ele>12.0</ele><time>2026-04-22T12:11:54Z</time></trkpt><trkpt lat="35.740496915059516" lon="-5.94062306887078"><ele>12.0</ele><time>2026-04-22T12:11:55Z</time></trkpt><trkpt lat="35.740342483803595" lon="-5.940686230928046"><ele>12.0</ele><time>2026-04-22T12:11:56Z</time></trkpt><trkpt lat="35.74018542780201" lon="-5.9407518164389055"><ele>12.0</ele><time>2026-04-22T12:11:57Z</time></trkpt><trkpt lat="35.74002924834224" lon="-5.940818482350694"><ele>11.0</ele><time>2026-04-22T12:11:58Z</time></trkpt><trkpt lat="35.73987472422929" lon="-5.94088871454113"><ele>10.0</ele><time>2026-04-22T12:11:59Z</time></trkpt><trkpt lat="35.739721099613" lon="-5.9409598204607486"><ele>9.0</ele><time>2026-04-22T12:12:00Z</time></trkpt><trkpt lat="35.73956502364833" lon="-5.941030130176646"><ele>9.0</ele><time>2026-04-22T12:12:01Z</time></trkpt><trkpt lat="35.73940957982021" lon="-5.941098788803601"><ele>9.0</ele><time>2026-04-22T12:12:02Z</time></trkpt><trkpt lat="35.739254015611465" lon="-5.941167953334405"><ele>9.0</ele><time>2026-04-22T12:12:03Z</time></trkpt><trkpt lat="35.73909808461128" lon="-5.941240528946532"><ele>9.333333333333334</ele><time>2026-04-22T12:12:04Z</time></trkpt><trkpt lat="35.738941826339385" lon="-5.941317162757934"><ele>9.666666666666668</ele><time>2026-04-22T12:12:05Z</time></trkpt><trkpt lat="35.73878584731763" lon="-5.941398526226377"><ele>10.0</ele><time>2026-04-22T12:12:06Z</time></trkpt><trkpt lat="35.738627135493424" lon="-5.9414845651343136"><ele>10.333333333333334</ele><time>2026-04-22T12:12:07Z</time></trkpt><trkpt lat="35.73846647056744" lon="-5.941572239633871"><ele>10.666666666666666</ele><time>2026-04-22T12:12:08Z</time></trkpt><trkpt lat="35.73830238860928" lon="-5.941660349662577"><ele>11.0</ele><time>2026-04-22T12:12:09Z</time></trkpt><trkpt lat="35.73813998739655" lon="-5.941748950642929"><ele>9.333333333333332</ele><time>2026-04-22T12:12:10Z</time></trkpt><trkpt lat="35.73798012868241" lon="-5.941840040851168"><ele>7.666666666666666</ele><time>2026-04-22T12:12:11Z</time></trkpt><trkpt lat="35.73782148539816" lon="-5.941934366287868"><ele>6.0</ele><time>2026-04-22T12:12:12Z</time></trkpt><trkpt lat="35.73766896968451" lon="-5.94202989973166"><ele>6.0</ele><time>2026-04-22T12:12:13Z</time></trkpt><trkpt lat="35.73752197830877" lon="-5.942129586969354"><ele>6.0</ele><time>2026-04-22T12:12:14Z</time></trkpt><trkpt lat="35.73738091671136" lon="-5.942231586494726"><ele>6.0</ele><time>2026-04-22T12:12:15Z</time></trkpt><trkpt lat="35.73724463555527" lon="-5.942336281317042"><ele>6.0</ele><time>2026-04-22T12:12:16Z</time></trkpt><trkpt lat="35.73711159454226" lon="-5.942442390066651"><ele>6.0</ele><time>2026-04-22T12:12:17Z</time></trkpt><trkpt lat="35.736985550162416" lon="-5.942544242583494"><ele>6.0</ele><time>2026-04-22T12:12:18Z</time></trkpt><trkpt lat="35.7368688757943" lon="-5.9426415207259735"><ele>6.0</ele><time>2026-04-22T12:12:19Z</time></trkpt><trkpt lat="35.736761983322666" lon="-5.942732223252623"><ele>6.0</ele><time>2026-04-22T12:12:20Z</time></trkpt><trkpt lat="35.73666561099832" lon="-5.942817045459039"><ele>6.0</ele><time>2026-04-22T12:12:21Z</time></trkpt><trkpt lat="35.736584249884345" lon="-5.94290031997997"><ele>6.0</ele><time>2026-04-22T12:12:21.999Z</time></trkpt><trkpt lat="35.736519758903064" lon="-5.942986279443688"><ele>6.0</ele><time>2026-04-22T12:12:22.999Z</time></trkpt><trkpt lat="35.736469211963914" lon="-5.943070431143988"><ele>6.0</ele><time>2026-04-22T12:12:23.999Z</time></trkpt><trkpt lat="35.73643298121094" lon="-5.943148746521751"><ele>6.0</ele><time>2026-04-22T12:12:24.999Z</time></trkpt><trkpt lat="35.736391685972535" lon="-5.943223164513382"><ele>6.0</ele><time>2026-04-22T12:12:25.999Z</time></trkpt><trkpt lat="35.73632959350599" lon="-5.943276965962483"><ele>6.0</ele><time>2026-04-22T12:12:26.999Z</time></trkpt><trkpt lat="35.73624472767737" lon="-5.943311088149294"><ele>6.0</ele><time>2026-04-22T12:12:27.999Z</time></trkpt><trkpt lat="35.736151700336876" lon="-5.943339515347362"><ele>6.0</ele><time>2026-04-22T12:12:28.999Z</time></trkpt><trkpt lat="35.73605383153819" lon="-5.943377686943972"><ele>5.3999999999999995</ele><time>2026-04-22T12:12:29.999Z</time></trkpt><trkpt lat="35.73595305982575" lon="-5.943432258997107"><ele>4.8</ele><time>2026-04-22T12:12:30.999Z</time></trkpt><trkpt lat="35.73585619686839" lon="-5.943490382995071"><ele>4.199999999999999</ele><time>2026-04-22T12:12:31.999Z</time></trkpt><trkpt lat="35.73576081480269" lon="-5.9435484145441615"><ele>3.5999999999999996</ele><time>2026-04-22T12:12:32.999Z</time></trkpt><trkpt lat="35.73566487622787" lon="-5.943597787608476"><ele>3.0</ele><time>2026-04-22T12:12:33.999Z</time></trkpt><trkpt lat="35.7355611195856" lon="-5.943637119828417"><ele>3.0</ele><time>2026-04-22T12:12:34.999Z</time></trkpt><trkpt lat="35.735451284435534" lon="-5.943672134185345"><ele>3.0</ele><time>2026-04-22T12:12:35.999Z</time></trkpt><trkpt lat="35.73533434668117" lon="-5.943701395480958"><ele>3.0</ele><time>2026-04-22T12:12:36.999Z</time></trkpt><trkpt lat="35.735217216192254" lon="-5.9437264485367844"><ele>3.0</ele><time>2026-04-22T12:12:37.999Z</time></trkpt><trkpt lat="35.73509759419541" lon="-5.943751479318153"><ele>3.25</ele><time>2026-04-22T12:12:38.999Z</time></trkpt><trkpt lat="35.73497136804794" lon="-5.943777569909022"><ele>3.5</ele><time>2026-04-22T12:12:39.999Z</time></trkpt><trkpt lat="35.73483972106467" lon="-5.943803922758206"><ele>3.75</ele><time>2026-04-22T12:12:40.999Z</time></trkpt><trkpt lat="35.73470145783712" lon="-5.94383157255526"><ele>4.0</ele><time>2026-04-22T12:12:41.999Z</time></trkpt><trkpt lat="35.73455677346221" lon="-5.9438594595265055"><ele>4.0</ele><time>2026-04-22T12:12:42.999Z</time></trkpt><trkpt lat="35.73440958936638" lon="-5.9438859583934285"><ele>4.0</ele><time>2026-04-22T12:12:43.999Z</time></trkpt><trkpt lat="35.73426343706793" lon="-5.943911843567301"><ele>4.0</ele><time>2026-04-22T12:12:44.999Z</time></trkpt><trkpt lat="35.73411590182695" lon="-5.943939494175498"><ele>4.0</ele><time>2026-04-22T12:12:45.999Z</time></trkpt><trkpt lat="35.73396709386893" lon="-5.943964975353457"><ele>4.0</ele><time>2026-04-22T12:12:46.999Z</time></trkpt><trkpt lat="35.733816168427744" lon="-5.943991517503928"><ele>4.0</ele><time>2026-04-22T12:12:47.999Z</time></trkpt><trkpt lat="35.73366160010618" lon="-5.944015656421292"><ele>4.0</ele><time>2026-04-22T12:12:48.999Z</time></trkpt><trkpt lat="35.733503377033756" lon="-5.944033660885694"><ele>4.333333333333333</ele><time>2026-04-22T12:12:49.999Z</time></trkpt><trkpt lat="35.73334458054126" lon="-5.944041883097006"><ele>4.666666666666667</ele><time>2026-04-22T12:12:51Z</time></trkpt><trkpt lat="35.73318360230174" lon="-5.944038257780758"><ele>5.0</ele><time>2026-04-22T12:12:52Z</time></trkpt><trkpt lat="35.733021289967375" lon="-5.944018632220637"><ele>5.0</ele><time>2026-04-22T12:12:53Z</time></trkpt><trkpt lat="35.7328616669691" lon="-5.943985194023598"><ele>5.0</ele><time>2026-04-22T12:12:54Z</time></trkpt><trkpt lat="35.732702683001826" lon="-5.943942345173253"><ele>5.0</ele><time>2026-04-22T12:12:55Z</time></trkpt><trkpt lat="35.73254092192809" lon="-5.943892898315005"><ele>5.333333333333334</ele><time>2026-04-22T12:12:56Z</time></trkpt><trkpt lat="35.7323777194711" lon="-5.943842734009555"><ele>5.666666666666667</ele><time>2026-04-22T12:12:57Z</time></trkpt><trkpt lat="35.73221342645903" lon="-5.943790869259624"><ele>6.0</ele><time>2026-04-22T12:12:58Z</time></trkpt><trkpt lat="35.73204622666681" lon="-5.943737382175281"><ele>5.0</ele><time>2026-04-22T12:12:59Z</time></trkpt><trkpt lat="35.73187609414553" lon="-5.943685143313656"><ele>4.0</ele><time>2026-04-22T12:13:00Z</time></trkpt><trkpt lat="35.731705234580176" lon="-5.943630974594856"><ele>3.0</ele><time>2026-04-22T12:13:01Z</time></trkpt><trkpt lat="35.731536145372615" lon="-5.943575732105611"><ele>3.0</ele><time>2026-04-22T12:13:02Z</time></trkpt><trkpt lat="35.73136746311227" lon="-5.943518894472459"><ele>3.0</ele><time>2026-04-22T12:13:03Z</time></trkpt><trkpt lat="35.73119661611421" lon="-5.943461581406394"><ele>3.0</ele><time>2026-04-22T12:13:04Z</time></trkpt><trkpt lat="35.731022698090506" lon="-5.943406803363402"><ele>3.666666666666667</ele><time>2026-04-22T12:13:05Z</time></trkpt><trkpt lat="35.73084559389838" lon="-5.943358324395711"><ele>4.333333333333334</ele><time>2026-04-22T12:13:06Z</time></trkpt><trkpt lat="35.73066385377254" lon="-5.943319699219366"><ele>5.0</ele><time>2026-04-22T12:13:07Z</time></trkpt><trkpt lat="35.730479676302124" lon="-5.943292872222993"><ele>5.0</ele><time>2026-04-22T12:13:08Z</time></trkpt><trkpt lat="35.73029283452641" lon="-5.943276380495397"><ele>5.0</ele><time>2026-04-22T12:13:09Z</time></trkpt><trkpt lat="35.73010526454537" lon="-5.943266018759333"><ele>5.0</ele><time>2026-04-22T12:13:10Z</time></trkpt><trkpt lat="35.72992007130728" lon="-5.94325881623016"><ele>5.0</ele><time>2026-04-22T12:13:11Z</time></trkpt><trkpt lat="35.72973737558367" lon="-5.943255832135559"><ele>5.0</ele><time>2026-04-22T12:13:12Z</time></trkpt><trkpt lat="35.72955728078907" lon="-5.9432615371379915"><ele>5.0</ele><time>2026-04-22T12:13:13Z</time></trkpt><trkpt lat="35.72937630651175" lon="-5.9432795130653195"><ele>5.333333333333334</ele><time>2026-04-22T12:13:14Z</time></trkpt><trkpt lat="35.72919687808565" lon="-5.943312912827513"><ele>5.666666666666667</ele><time>2026-04-22T12:13:15Z</time></trkpt><trkpt lat="35.7290222045336" lon="-5.943362449355064"><ele>6.0</ele><time>2026-04-22T12:13:16Z</time></trkpt><trkpt lat="35.7288539298238" lon="-5.943426458903613"><ele>6.666666666666666</ele><time>2026-04-22T12:13:17Z</time></trkpt><trkpt lat="35.72868767836268" lon="-5.943502012696269"><ele>7.333333333333333</ele><time>2026-04-22T12:13:18Z</time></trkpt><trkpt lat="35.72852379840664" lon="-5.943582630814559"><ele>8.0</ele><time>2026-04-22T12:13:19Z</time></trkpt><trkpt lat="35.7283587332863" lon="-5.9436665692771715"><ele>6.666666666666666</ele><time>2026-04-22T12:13:20Z</time></trkpt><trkpt lat="35.72819217239414" lon="-5.943749175802725"><ele>5.333333333333333</ele><time>2026-04-22T12:13:21Z</time></trkpt><trkpt lat="35.72802694961187" lon="-5.943830341972423"><ele>4.0</ele><time>2026-04-22T12:13:22Z</time></trkpt><trkpt lat="35.72786094701102" lon="-5.943917155014469"><ele>4.0</ele><time>2026-04-22T12:13:23Z</time></trkpt><trkpt lat="35.72769493732426" lon="-5.944007395467005"><ele>4.0</ele><time>2026-04-22T12:13:24Z</time></trkpt><trkpt lat="35.72752795795903" lon="-5.944097477030858"><ele>4.0</ele><time>2026-04-22T12:13:25Z</time></trkpt><trkpt lat="35.72736200400858" lon="-5.9441848593718944"><ele>4.0</ele><time>2026-04-22T12:13:26Z</time></trkpt><trkpt lat="35.72719588340675" lon="-5.944270532183387"><ele>4.0</ele><time>2026-04-22T12:13:27Z</time></trkpt><trkpt lat="35.72703031708113" lon="-5.9443549897433305"><ele>4.0</ele><time>2026-04-22T12:13:28Z</time></trkpt><trkpt lat="35.72686702131434" lon="-5.944438562335073"><ele>4.333333333333333</ele><time>2026-04-22T12:13:29Z</time></trkpt><trkpt lat="35.726703386574826" lon="-5.94452225401669"><ele>4.666666666666667</ele><time>2026-04-22T12:13:30Z</time></trkpt><trkpt lat="35.72653832040604" lon="-5.944607238765616"><ele>5.0</ele><time>2026-04-22T12:13:31Z</time></trkpt><trkpt lat="35.72638111782865" lon="-5.9446887691109715"><ele>5.0</ele><time>2026-04-22T12:13:32Z</time></trkpt><trkpt lat="35.726232807574064" lon="-5.94476356386607"><ele>5.0</ele><time>2026-04-22T12:13:33Z</time></trkpt><trkpt lat="35.72609552948826" lon="-5.944834319472114"><ele>5.0</ele><time>2026-04-22T12:13:34Z</time></trkpt><trkpt lat="35.72596908463017" lon="-5.944900619537344"><ele>5.0</ele><time>2026-04-22T12:13:35Z</time></trkpt><trkpt lat="35.725855054232696" lon="-5.944958687156665"><ele>5.5</ele><time>2026-04-22T12:13:36Z</time></trkpt><trkpt lat="35.72575161686047" lon="-5.945010208290377"><ele>6.0</ele><time>2026-04-22T12:13:37Z</time></trkpt><trkpt lat="35.7256609071259" lon="-5.945056394441712"><ele>6.5</ele><time>2026-04-22T12:13:38Z</time></trkpt><trkpt lat="35.725586440518626" lon="-5.945095028017049"><ele>7.0</ele><time>2026-04-22T12:13:39Z</time></trkpt><trkpt lat="35.7255252907564" lon="-5.945126448599285"><ele>7.499999999999999</ele><time>2026-04-22T12:13:40Z</time></trkpt><trkpt lat="35.72546692403267" lon="-5.945156701649503"><ele>8.0</ele><time>2026-04-22T12:13:41Z</time></trkpt><trkpt lat="35.72539523991542" lon="-5.9451936256961035"><ele>8.200000000000001</ele><time>2026-04-22T12:13:42Z</time></trkpt><trkpt lat="35.72530945730302" lon="-5.9452357675987315"><ele>8.4</ele><time>2026-04-22T12:13:43Z</time></trkpt><trkpt lat="35.725213175240576" lon="-5.945280636534091"><ele>8.600000000000001</ele><time>2026-04-22T12:13:44Z</time></trkpt><trkpt lat="35.72511132413677" lon="-5.945329296902316"><ele>8.8</ele><time>2026-04-22T12:13:45Z</time></trkpt><trkpt lat="35.725002860832646" lon="-5.945382213672402"><ele>9.0</ele><time>2026-04-22T12:13:46Z</time></trkpt><trkpt lat="35.724888774032394" lon="-5.945439450955659"><ele>8.25</ele><time>2026-04-22T12:13:47Z</time></trkpt><trkpt lat="35.72477109212031" lon="-5.945498766094489"><ele>7.5</ele><time>2026-04-22T12:13:48Z</time></trkpt><trkpt lat="35.724653643498186" lon="-5.945558867849855"><ele>6.75</ele><time>2026-04-22T12:13:49Z</time></trkpt><trkpt lat="35.72453348262831" lon="-5.94562042325484"><ele>6.0</ele><time>2026-04-22T12:13:50Z</time></trkpt><trkpt lat="35.72441487107296" lon="-5.945682747284297"><ele>6.5</ele><time>2026-04-22T12:13:51Z</time></trkpt><trkpt lat="35.72429413475713" lon="-5.945745952494361"><ele>7.0</ele><time>2026-04-22T12:13:52Z</time></trkpt><trkpt lat="35.724175088244436" lon="-5.945806770626397"><ele>7.5</ele><time>2026-04-22T12:13:53Z</time></trkpt><trkpt lat="35.72406128673718" lon="-5.945866165460832"><ele>8.0</ele><time>2026-04-22T12:13:54Z</time></trkpt><trkpt lat="35.72395471426609" lon="-5.945922686494328"><ele>7.999999999999999</ele><time>2026-04-22T12:13:55Z</time></trkpt><trkpt lat="35.72385761474201" lon="-5.945975202215414"><ele>8.0</ele><time>2026-04-22T12:13:56Z</time></trkpt><trkpt lat="35.72376936940935" lon="-5.946022396778425"><ele>8.0</ele><time>2026-04-22T12:13:57Z</time></trkpt><trkpt lat="35.723687686295186" lon="-5.9460671888359595"><ele>8.0</ele><time>2026-04-22T12:13:58Z</time></trkpt><trkpt lat="35.72361822465383" lon="-5.9461063325403485"><ele>7.999999999999999</ele><time>2026-04-22T12:13:59Z</time></trkpt><trkpt lat="35.72355020251009" lon="-5.946145659804962"><ele>8.0</ele><time>2026-04-22T12:14:00Z</time></trkpt><trkpt lat="35.72348422342836" lon="-5.946181657179762"><ele>7.800000000000001</ele><time>2026-04-22T12:14:01Z</time></trkpt><trkpt lat="35.72339951129233" lon="-5.946224603326224"><ele>7.6000000000000005</ele><time>2026-04-22T12:14:02Z</time></trkpt><trkpt lat="35.723309290123694" lon="-5.946271732153439"><ele>7.3999999999999995</ele><time>2026-04-22T12:14:03Z</time></trkpt><trkpt lat="35.723212143958385" lon="-5.9463223604379225"><ele>7.199999999999999</ele><time>2026-04-22T12:14:04Z</time></trkpt><trkpt lat="35.723109091444414" lon="-5.946377162752639"><ele>7.0</ele><time>2026-04-22T12:14:05Z</time></trkpt><trkpt lat="35.7230001026281" lon="-5.946434229933341"><ele>7.0</ele><time>2026-04-22T12:14:06Z</time></trkpt><trkpt lat="35.72288765020894" lon="-5.946494406202083"><ele>7.0</ele><time>2026-04-22T12:14:07Z</time></trkpt><trkpt lat="35.722777099794456" lon="-5.94655474361551"><ele>7.0</ele><time>2026-04-22T12:14:08Z</time></trkpt><trkpt lat="35.722664637196765" lon="-5.946614472672713"><ele>7.0</ele><time>2026-04-22T12:14:09Z</time></trkpt><trkpt lat="35.722551024701914" lon="-5.946675383988766"><ele>7.0</ele><time>2026-04-22T12:14:10Z</time></trkpt><trkpt lat="35.722436899133506" lon="-5.946738867632002"><ele>7.0</ele><time>2026-04-22T12:14:11Z</time></trkpt><trkpt lat="35.722324018467056" lon="-5.9468010337349915"><ele>7.0</ele><time>2026-04-22T12:14:12Z</time></trkpt><trkpt lat="35.72220999227997" lon="-5.946863888965199"><ele>7.0</ele><time>2026-04-22T12:14:13Z</time></trkpt><trkpt lat="35.7220966764639" lon="-5.946927846554541"><ele>7.0</ele><time>2026-04-22T12:14:14Z</time></trkpt><trkpt lat="35.72198211236823" lon="-5.94699303254958"><ele>7.0</ele><time>2026-04-22T12:14:15Z</time></trkpt><trkpt lat="35.72186838843309" lon="-5.947059250333226"><ele>7.0</ele><time>2026-04-22T12:14:16Z</time></trkpt><trkpt lat="35.72176232584764" lon="-5.947121762462585"><ele>7.0</ele><time>2026-04-22T12:14:17Z</time></trkpt><trkpt lat="35.72166626716952" lon="-5.947176659679255"><ele>7.3999999999999995</ele><time>2026-04-22T12:14:18Z</time></trkpt><trkpt lat="35.72157923801846" lon="-5.947225761336266"><ele>7.799999999999999</ele><time>2026-04-22T12:14:19Z</time></trkpt><trkpt lat="35.721510231773586" lon="-5.947269632884348"><ele>8.2</ele><time>2026-04-22T12:14:20Z</time></trkpt><trkpt lat="35.721410830484274" lon="-5.947346962871932"><ele>8.6</ele><time>2026-04-22T12:14:22Z</time></trkpt><trkpt lat="35.72133813214484" lon="-5.947443548380983"><ele>9.0</ele><time>2026-04-22T12:14:24Z</time></trkpt><trkpt lat="35.72124408078504" lon="-5.94753891638028"><ele>8.833333333333334</ele><time>2026-04-22T12:14:26Z</time></trkpt><trkpt lat="35.72117489676761" lon="-5.947561605706257"><ele>8.666666666666666</ele><time>2026-04-22T12:14:27Z</time></trkpt><trkpt lat="35.721098172068096" lon="-5.947564051950774"><ele>8.5</ele><time>2026-04-22T12:14:28Z</time></trkpt><trkpt lat="35.72101668878373" lon="-5.947565221148958"><ele>8.333333333333332</ele><time>2026-04-22T12:14:29Z</time></trkpt><trkpt lat="35.72093260850582" lon="-5.947592549725651"><ele>8.166666666666666</ele><time>2026-04-22T12:14:30Z</time></trkpt><trkpt lat="35.72083882042302" lon="-5.947633406291223"><ele>8.0</ele><time>2026-04-22T12:14:31Z</time></trkpt><trkpt lat="35.72073547793796" lon="-5.947680639254378"><ele>8.0</ele><time>2026-04-22T12:14:32Z</time></trkpt><trkpt lat="35.720623603757076" lon="-5.947740500695389"><ele>8.0</ele><time>2026-04-22T12:14:33Z</time></trkpt><trkpt lat="35.720502414420984" lon="-5.947807387142493"><ele>8.0</ele><time>2026-04-22T12:14:34Z</time></trkpt><trkpt lat="35.72038327297513" lon="-5.947876389156961"><ele>8.0</ele><time>2026-04-22T12:14:35Z</time></trkpt><trkpt lat="35.72025550739341" lon="-5.947946666442188"><ele>9.25</ele><time>2026-04-22T12:14:36Z</time></trkpt><trkpt lat="35.72012389059002" lon="-5.948014756094121"><ele>10.5</ele><time>2026-04-22T12:14:37Z</time></trkpt><trkpt lat="35.71999455197364" lon="-5.948076390302465"><ele>11.75</ele><time>2026-04-22T12:14:38Z</time></trkpt><trkpt lat="35.71986848029374" lon="-5.94813031302298"><ele>13.0</ele><time>2026-04-22T12:14:39Z</time></trkpt><trkpt lat="35.71974638966913" lon="-5.948174065301986"><ele>13.0</ele><time>2026-04-22T12:14:40Z</time></trkpt><trkpt lat="35.71962724862541" lon="-5.948213733134508"><ele>13.0</ele><time>2026-04-22T12:14:41Z</time></trkpt><trkpt lat="35.71951369617491" lon="-5.948248564914909"><ele>13.0</ele><time>2026-04-22T12:14:42Z</time></trkpt><trkpt lat="35.71940928461558" lon="-5.948275325416497"><ele>13.0</ele><time>2026-04-22T12:14:43Z</time></trkpt><trkpt lat="35.719313655277155" lon="-5.948296101216505"><ele>13.0</ele><time>2026-04-22T12:14:44Z</time></trkpt><trkpt lat="35.71922782324391" lon="-5.948311341299506"><ele>13.4</ele><time>2026-04-22T12:14:45Z</time></trkpt><trkpt lat="35.71914499927587" lon="-5.948327043900085"><ele>13.8</ele><time>2026-04-22T12:14:46Z</time></trkpt><trkpt lat="35.719058188471514" lon="-5.948344525795309"><ele>14.2</ele><time>2026-04-22T12:14:47Z</time></trkpt><trkpt lat="35.71895923358874" lon="-5.94836265170824"><ele>14.6</ele><time>2026-04-22T12:14:48Z</time></trkpt><trkpt lat="35.71884667901088" lon="-5.948391955977676"><ele>15.0</ele><time>2026-04-22T12:14:49Z</time></trkpt><trkpt lat="35.71872758279965" lon="-5.948429701289212"><ele>12.75</ele><time>2026-04-22T12:14:50Z</time></trkpt><trkpt lat="35.71860689199133" lon="-5.948469567576216"><ele>10.5</ele><time>2026-04-22T12:14:51Z</time></trkpt><trkpt lat="35.718474836959096" lon="-5.948515504207028"><ele>8.25</ele><time>2026-04-22T12:14:52Z</time></trkpt><trkpt lat="35.71834439080625" lon="-5.9485641106609375"><ele>6.0</ele><time>2026-04-22T12:14:53Z</time></trkpt><trkpt lat="35.71820726966374" lon="-5.9486161093091985"><ele>6.0</ele><time>2026-04-22T12:14:54Z</time></trkpt><trkpt lat="35.71806274470262" lon="-5.948669801714867"><ele>6.0</ele><time>2026-04-22T12:14:55Z</time></trkpt><trkpt lat="35.71791512837951" lon="-5.948725273563367"><ele>6.0</ele><time>2026-04-22T12:14:56Z</time></trkpt><trkpt lat="35.717767173399004" lon="-5.948778090801293"><ele>5.333333333333333</ele><time>2026-04-22T12:14:57Z</time></trkpt><trkpt lat="35.71761624752089" lon="-5.948828904379947"><ele>4.666666666666666</ele><time>2026-04-22T12:14:58Z</time></trkpt><trkpt lat="35.717462612866825" lon="-5.948885064895879"><ele>4.0</ele><time>2026-04-22T12:14:59Z</time></trkpt><trkpt lat="35.717305362672825" lon="-5.948940561268281"><ele>4.0</ele><time>2026-04-22T12:15:00Z</time></trkpt><trkpt lat="35.71714497774479" lon="-5.94899765942049"><ele>4.0</ele><time>2026-04-22T12:15:01Z</time></trkpt><trkpt lat="35.71698133835168" lon="-5.949055926627296"><ele>4.0</ele><time>2026-04-22T12:15:02Z</time></trkpt><trkpt lat="35.716818547565595" lon="-5.949114642191955"><ele>3.333333333333333</ele><time>2026-04-22T12:15:03Z</time></trkpt><trkpt lat="35.71665436629378" lon="-5.949173128722375"><ele>2.6666666666666665</ele><time>2026-04-22T12:15:04Z</time></trkpt><trkpt lat="35.7164879682169" lon="-5.949233054371798"><ele>2.0</ele><time>2026-04-22T12:15:05Z</time></trkpt><trkpt lat="35.71632191984781" lon="-5.949292396366473"><ele>2.0</ele><time>2026-04-22T12:15:06Z</time></trkpt><trkpt lat="35.71615534676172" lon="-5.949351104510235"><ele>2.0</ele><time>2026-04-22T12:15:07Z</time></trkpt><trkpt lat="35.71598908624128" lon="-5.949411366494801"><ele>2.0</ele><time>2026-04-22T12:15:08Z</time></trkpt><trkpt lat="35.71582467570142" lon="-5.949471389453564"><ele>2.6666666666666665</ele><time>2026-04-22T12:15:09Z</time></trkpt><trkpt lat="35.71566201557163" lon="-5.9495293207955875"><ele>3.333333333333333</ele><time>2026-04-22T12:15:10Z</time></trkpt><trkpt lat="35.71549990733497" lon="-5.949587278629145"><ele>4.0</ele><time>2026-04-22T12:15:11Z</time></trkpt><trkpt lat="35.71533988372429" lon="-5.949644556846135"><ele>3.333333333333333</ele><time>2026-04-22T12:15:12Z</time></trkpt><trkpt lat="35.71518334072594" lon="-5.94970202217444"><ele>2.6666666666666665</ele><time>2026-04-22T12:15:13Z</time></trkpt><trkpt lat="35.715028739085476" lon="-5.94975294083677"><ele>2.0</ele><time>2026-04-22T12:15:14Z</time></trkpt><trkpt lat="35.71487726992379" lon="-5.949807825866736"><ele>2.0</ele><time>2026-04-22T12:15:15Z</time></trkpt><trkpt lat="35.714731551552845" lon="-5.949860733603681"><ele>2.0</ele><time>2026-04-22T12:15:16Z</time></trkpt><trkpt lat="35.7145950893799" lon="-5.949912613603463"><ele>2.0</ele><time>2026-04-22T12:15:17Z</time></trkpt><trkpt lat="35.71446827723681" lon="-5.9499611432127075"><ele>2.0</ele><time>2026-04-22T12:15:18Z</time></trkpt><trkpt lat="35.71435706251012" lon="-5.9500021185207945"><ele>2.333333333333333</ele><time>2026-04-22T12:15:19Z</time></trkpt><trkpt lat="35.71426044514131" lon="-5.950036533506838"><ele>2.6666666666666665</ele><time>2026-04-22T12:15:20Z</time></trkpt><trkpt lat="35.714177085191054" lon="-5.950064891752634"><ele>3.0</ele><time>2026-04-22T12:15:21Z</time></trkpt><trkpt lat="35.71409945483382" lon="-5.9500916403733415"><ele>3.333333333333333</ele><time>2026-04-22T12:15:22Z</time></trkpt><trkpt lat="35.714029500675636" lon="-5.9501164611418975"><ele>3.6666666666666665</ele><time>2026-04-22T12:15:23Z</time></trkpt><trkpt lat="35.713953323619094" lon="-5.95014333856527"><ele>4.0</ele><time>2026-04-22T12:15:24Z</time></trkpt><trkpt lat="35.71385825903377" lon="-5.950177083235605"><ele>4.0</ele><time>2026-04-22T12:15:25Z</time></trkpt><trkpt lat="35.71374671799947" lon="-5.950210879787257"><ele>4.0</ele><time>2026-04-22T12:15:26Z</time></trkpt><trkpt lat="35.713623505520545" lon="-5.950238331970936"><ele>4.0</ele><time>2026-04-22T12:15:27Z</time></trkpt><trkpt lat="35.713505534667696" lon="-5.950251431552609"><ele>4.0</ele><time>2026-04-22T12:15:28Z</time></trkpt><trkpt lat="35.7133814185841" lon="-5.950259000478818"><ele>4.75</ele><time>2026-04-22T12:15:29Z</time></trkpt><trkpt lat="35.71325054084546" lon="-5.9502610977309764"><ele>5.5</ele><time>2026-04-22T12:15:30Z</time></trkpt><trkpt lat="35.71311950761357" lon="-5.95023983172927"><ele>6.25</ele><time>2026-04-22T12:15:31Z</time></trkpt><trkpt lat="35.712988526709466" lon="-5.950210725971228"><ele>7.0</ele><time>2026-04-22T12:15:32Z</time></trkpt><trkpt lat="35.712856945446525" lon="-5.950164642865096"><ele>7.75</ele><time>2026-04-22T12:15:33Z</time></trkpt><trkpt lat="35.7127259037298" lon="-5.950099734278018"><ele>8.5</ele><time>2026-04-22T12:15:34Z</time></trkpt><trkpt lat="35.712597519443065" lon="-5.950016486071906"><ele>9.25</ele><time>2026-04-22T12:15:35Z</time></trkpt><trkpt lat="35.71247471352027" lon="-5.949912727705824"><ele>10.0</ele><time>2026-04-22T12:15:36Z</time></trkpt><trkpt lat="35.71235640024947" lon="-5.9497948420051054"><ele>11.333333333333334</ele><time>2026-04-22T12:15:37Z</time></trkpt><trkpt lat="35.71224764158185" lon="-5.949663138730109"><ele>12.666666666666668</ele><time>2026-04-22T12:15:38Z</time></trkpt><trkpt lat="35.71215096673501" lon="-5.949515772665284"><ele>14.0</ele><time>2026-04-22T12:15:39Z</time></trkpt><trkpt lat="35.71206080483108" lon="-5.949358337907075"><ele>14.333333333333334</ele><time>2026-04-22T12:15:40Z</time></trkpt><trkpt lat="35.711975605860445" lon="-5.949190948978179"><ele>14.666666666666668</ele><time>2026-04-22T12:15:41Z</time></trkpt><trkpt lat="35.71189174221319" lon="-5.949017808189299"><ele>15.0</ele><time>2026-04-22T12:15:42Z</time></trkpt><trkpt lat="35.71180734067084" lon="-5.948837754283803"><ele>15.666666666666668</ele><time>2026-04-22T12:15:43Z</time></trkpt><trkpt lat="35.71171995035118" lon="-5.9486550406556225"><ele>16.333333333333336</ele><time>2026-04-22T12:15:44Z</time></trkpt><trkpt lat="35.71163544166342" lon="-5.948472057618947"><ele>17.0</ele><time>2026-04-22T12:15:45.001Z</time></trkpt><trkpt lat="35.71155277766013" lon="-5.948285472273663"><ele>17.0</ele><time>2026-04-22T12:15:46.001Z</time></trkpt><trkpt lat="35.71145955777716" lon="-5.948116710892375"><ele>17.0</ele><time>2026-04-22T12:15:47.001Z</time></trkpt><trkpt lat="35.71136296490316" lon="-5.947954943815535"><ele>17.0</ele><time>2026-04-22T12:15:48.001Z</time></trkpt><trkpt lat="35.711242086093705" lon="-5.947836201482032"><ele>17.0</ele><time>2026-04-22T12:15:49.001Z</time></trkpt><trkpt lat="35.71109779159419" lon="-5.947775547819685"><ele>17.0</ele><time>2026-04-22T12:15:50.001Z</time></trkpt><trkpt lat="35.71095661510088" lon="-5.947734631082218"><ele>17.0</ele><time>2026-04-22T12:15:51.001Z</time></trkpt><trkpt lat="35.71079400495348" lon="-5.947712300981069"><ele>17.5</ele><time>2026-04-22T12:15:52.001Z</time></trkpt><trkpt lat="35.71065629965561" lon="-5.947690811951612"><ele>18.0</ele><time>2026-04-22T12:15:53.001Z</time></trkpt><trkpt lat="35.710536743447584" lon="-5.94767507745435"><ele>18.5</ele><time>2026-04-22T12:15:54.001Z</time></trkpt><trkpt lat="35.71043458772978" lon="-5.947661211142452"><ele>19.0</ele><time>2026-04-22T12:15:55.001Z</time></trkpt><trkpt lat="35.71034500995099" lon="-5.947649447601979"><ele>19.0</ele><time>2026-04-22T12:15:56.001Z</time></trkpt><trkpt lat="35.71025469929719" lon="-5.94763735198351"><ele>19.0</ele><time>2026-04-22T12:15:57.001Z</time></trkpt><trkpt lat="35.71015337669393" lon="-5.947621126486731"><ele>19.0</ele><time>2026-04-22T12:15:58.001Z</time></trkpt><trkpt lat="35.710035160884765" lon="-5.947603810605816"><ele>19.0</ele><time>2026-04-22T12:15:59.001Z</time></trkpt><trkpt lat="35.70990644988739" lon="-5.947589089565029"><ele>19.0</ele><time>2026-04-22T12:16:00.001Z</time></trkpt><trkpt lat="35.70977308117088" lon="-5.9475722976440375"><ele>19.0</ele><time>2026-04-22T12:16:01.001Z</time></trkpt><trkpt lat="35.70963877784252" lon="-5.947551812758245"><ele>19.0</ele><time>2026-04-22T12:16:02.001Z</time></trkpt><trkpt lat="35.709501987941024" lon="-5.947527895041602"><ele>19.0</ele><time>2026-04-22T12:16:03.001Z</time></trkpt><trkpt lat="35.709365947822306" lon="-5.947502148321887"><ele>19.0</ele><time>2026-04-22T12:16:04.001Z</time></trkpt><trkpt lat="35.70923395260548" lon="-5.947470246275312"><ele>17.5</ele><time>2026-04-22T12:16:05.001Z</time></trkpt><trkpt lat="35.70910610924206" lon="-5.947429271197954"><ele>16.0</ele><time>2026-04-22T12:16:06.001Z</time></trkpt><trkpt lat="35.7089849551542" lon="-5.947386104412472"><ele>14.5</ele><time>2026-04-22T12:16:07.001Z</time></trkpt><trkpt lat="35.70887401624069" lon="-5.947339905153532"><ele>13.0</ele><time>2026-04-22T12:16:08.001Z</time></trkpt><trkpt lat="35.708769781139786" lon="-5.947293138446797"><ele>12.999999999999998</ele><time>2026-04-22T12:16:09.001Z</time></trkpt><trkpt lat="35.70867765729137" lon="-5.947252228307718"><ele>13.0</ele><time>2026-04-22T12:16:10.001Z</time></trkpt><trkpt lat="35.708588705658336" lon="-5.947215378847692"><ele>13.0</ele><time>2026-04-22T12:16:11.001Z</time></trkpt><trkpt lat="35.70850848802436" lon="-5.947184355336486"><ele>13.0</ele><time>2026-04-22T12:16:12.001Z</time></trkpt><trkpt lat="35.70843012305535" lon="-5.947158163225573"><ele>12.999999999999998</ele><time>2026-04-22T12:16:13.001Z</time></trkpt><trkpt lat="35.70835019169818" lon="-5.947130424241851"><ele>13.0</ele><time>2026-04-22T12:16:14.001Z</time></trkpt><trkpt lat="35.7082688297333" lon="-5.947099365504555"><ele>12.5</ele><time>2026-04-22T12:16:15.001Z</time></trkpt><trkpt lat="35.70817129229705" lon="-5.947060391463217"><ele>12.0</ele><time>2026-04-22T12:16:16.001Z</time></trkpt><trkpt lat="35.708064123962906" lon="-5.947018383398123"><ele>11.5</ele><time>2026-04-22T12:16:17.001Z</time></trkpt><trkpt lat="35.707949664082946" lon="-5.946973866922112"><ele>11.0</ele><time>2026-04-22T12:16:18.001Z</time></trkpt><trkpt lat="35.7078274712814" lon="-5.946925693017413"><ele>11.0</ele><time>2026-04-22T12:16:19.001Z</time></trkpt><trkpt lat="35.707707303446945" lon="-5.946876534235033"><ele>11.0</ele><time>2026-04-22T12:16:20.001Z</time></trkpt><trkpt lat="35.70758029154513" lon="-5.946825475760338"><ele>11.0</ele><time>2026-04-22T12:16:21.001Z</time></trkpt><trkpt lat="35.707450068670056" lon="-5.946775017125486"><ele>11.0</ele><time>2026-04-22T12:16:22.001Z</time></trkpt><trkpt lat="35.707318410821394" lon="-5.946724753934446"><ele>11.0</ele><time>2026-04-22T12:16:23.001Z</time></trkpt><trkpt lat="35.70718655121758" lon="-5.946671793274244"><ele>11.0</ele><time>2026-04-22T12:16:24.001Z</time></trkpt><trkpt lat="35.70705514398637" lon="-5.94661686255394"><ele>11.0</ele><time>2026-04-22T12:16:25.001Z</time></trkpt><trkpt lat="35.706926165463415" lon="-5.946563555534016"><ele>11.0</ele><time>2026-04-22T12:16:26.001Z</time></trkpt><trkpt lat="35.70679750177456" lon="-5.946511469409264"><ele>11.0</ele><time>2026-04-22T12:16:27.001Z</time></trkpt><trkpt lat="35.706672128219964" lon="-5.9464580221414645"><ele>11.0</ele><time>2026-04-22T12:16:28.001Z</time></trkpt><trkpt lat="35.70654961993606" lon="-5.946405727593473"><ele>11.0</ele><time>2026-04-22T12:16:29.001Z</time></trkpt><trkpt lat="35.70642928641492" lon="-5.946353319608229"><ele>11.0</ele><time>2026-04-22T12:16:30.001Z</time></trkpt><trkpt lat="35.706310674465854" lon="-5.9463010058440116"><ele>11.0</ele><time>2026-04-22T12:16:31.001Z</time></trkpt><trkpt lat="35.70619202656909" lon="-5.946258430944642"><ele>11.0</ele><time>2026-04-22T12:16:32.001Z</time></trkpt><trkpt lat="35.70607578665552" lon="-5.946212093312854"><ele>11.0</ele><time>2026-04-22T12:16:33.001Z</time></trkpt><trkpt lat="35.7059520943015" lon="-5.946164287396194"><ele>11.0</ele><time>2026-04-22T12:16:34.001Z</time></trkpt><trkpt lat="35.70582350974728" lon="-5.946140093257397"><ele>9.5</ele><time>2026-04-22T12:16:35.001Z</time></trkpt><trkpt lat="35.70568397262104" lon="-5.946131521798521"><ele>8.0</ele><time>2026-04-22T12:16:36.001Z</time></trkpt><trkpt lat="35.70553788795898" lon="-5.946131779879452"><ele>6.5</ele><time>2026-04-22T12:16:37.001Z</time></trkpt><trkpt lat="35.70538755137945" lon="-5.946134768549113"><ele>5.0</ele><time>2026-04-22T12:16:38.001Z</time></trkpt><trkpt lat="35.705228721897505" lon="-5.946138865214568"><ele>4.666666666666667</ele><time>2026-04-22T12:16:39.001Z</time></trkpt><trkpt lat="35.7050742367258" lon="-5.946147914099816"><ele>4.333333333333333</ele><time>2026-04-22T12:16:40.001Z</time></trkpt><trkpt lat="35.704917142664655" lon="-5.946151578278979"><ele>4.0</ele><time>2026-04-22T12:16:41.001Z</time></trkpt><trkpt lat="35.70475922209713" lon="-5.946154583357228"><ele>4.0</ele><time>2026-04-22T12:16:42.001Z</time></trkpt><trkpt lat="35.70459620780467" lon="-5.946158557960045"><ele>4.0</ele><time>2026-04-22T12:16:43.001Z</time></trkpt><trkpt lat="35.704438190430636" lon="-5.9461612357179945"><ele>4.0</ele><time>2026-04-22T12:16:44.001Z</time></trkpt><trkpt lat="35.70428217258542" lon="-5.946163291276237"><ele>3.333333333333333</ele><time>2026-04-22T12:16:45.001Z</time></trkpt><trkpt lat="35.70412573553246" lon="-5.946162899308496"><ele>2.6666666666666665</ele><time>2026-04-22T12:16:46.001Z</time></trkpt><trkpt lat="35.7039744976569" lon="-5.946156019198715"><ele>2.0</ele><time>2026-04-22T12:16:47.001Z</time></trkpt><trkpt lat="35.70382529886018" lon="-5.946142059792185"><ele>2.0</ele><time>2026-04-22T12:16:48.001Z</time></trkpt><trkpt lat="35.70367568456561" lon="-5.946101287476705"><ele>2.0</ele><time>2026-04-22T12:16:49.001Z</time></trkpt><trkpt lat="35.70353403852996" lon="-5.946038510407511"><ele>2.0</ele><time>2026-04-22T12:16:50.001Z</time></trkpt><trkpt lat="35.70338535177441" lon="-5.9459499140658725"><ele>2.333333333333333</ele><time>2026-04-22T12:16:51.001Z</time></trkpt><trkpt lat="35.7032459700623" lon="-5.945859014374834"><ele>2.6666666666666665</ele><time>2026-04-22T12:16:52.001Z</time></trkpt><trkpt lat="35.70310108083668" lon="-5.9457680916370075"><ele>3.0</ele><time>2026-04-22T12:16:53.001Z</time></trkpt><trkpt lat="35.7029550675283" lon="-5.945684313470709"><ele>3.0</ele><time>2026-04-22T12:16:54.001Z</time></trkpt><trkpt lat="35.70280810631519" lon="-5.945615983463514"><ele>3.0</ele><time>2026-04-22T12:16:55.001Z</time></trkpt><trkpt lat="35.70265841034158" lon="-5.945567704140579"><ele>3.0</ele><time>2026-04-22T12:16:56.001Z</time></trkpt><trkpt lat="35.7025019794074" lon="-5.945540829294365"><ele>3.333333333333333</ele><time>2026-04-22T12:16:57.001Z</time></trkpt><trkpt lat="35.702340057747165" lon="-5.94553735578467"><ele>3.6666666666666665</ele><time>2026-04-22T12:16:58.001Z</time></trkpt><trkpt lat="35.70217841596277" lon="-5.945550230614614"><ele>4.0</ele><time>2026-04-22T12:16:59.001Z</time></trkpt><trkpt lat="35.70202117556432" lon="-5.94556316530471"><ele>4.0</ele><time>2026-04-22T12:17:00.001Z</time></trkpt><trkpt lat="35.70186300164758" lon="-5.945561431071595"><ele>4.0</ele><time>2026-04-22T12:17:01.001Z</time></trkpt><trkpt lat="35.70171458146822" lon="-5.945555663413092"><ele>4.0</ele><time>2026-04-22T12:17:02.001Z</time></trkpt><trkpt lat="35.701571846399574" lon="-5.945549204267804"><ele>4.0</ele><time>2026-04-22T12:17:03.001Z</time></trkpt><trkpt lat="35.70143997848103" lon="-5.945541179974583"><ele>4.0</ele><time>2026-04-22T12:17:04.001Z</time></trkpt><trkpt lat="35.70132233928978" lon="-5.9455312745060755"><ele>4.0</ele><time>2026-04-22T12:17:05.001Z</time></trkpt><trkpt lat="35.70122117246085" lon="-5.945519486893291"><ele>4.0</ele><time>2026-04-22T12:17:06.001Z</time></trkpt><trkpt lat="35.701131432500524" lon="-5.945509021803673"><ele>4.0</ele><time>2026-04-22T12:17:07.001Z</time></trkpt><trkpt lat="35.70105224073723" lon="-5.945498432181541"><ele>4.0</ele><time>2026-04-22T12:17:08.001Z</time></trkpt><trkpt lat="35.7009709623428" lon="-5.945486838930265"><ele>4.0</ele><time>2026-04-22T12:17:09.001Z</time></trkpt><trkpt lat="35.70088177704516" lon="-5.9454686415601845"><ele>4.0</ele><time>2026-04-22T12:17:10.001Z</time></trkpt><trkpt lat="35.70077729556594" lon="-5.9454470915239375"><ele>4.0</ele><time>2026-04-22T12:17:11.001Z</time></trkpt><trkpt lat="35.70065723014959" lon="-5.94542154870325"><ele>4.0</ele><time>2026-04-22T12:17:12.001Z</time></trkpt><trkpt lat="35.70053020914136" lon="-5.945389770943699"><ele>4.0</ele><time>2026-04-22T12:17:13.001Z</time></trkpt><trkpt lat="35.70039264750391" lon="-5.945351405162355"><ele>4.0</ele><time>2026-04-22T12:17:14.001Z</time></trkpt><trkpt lat="35.70025532207219" lon="-5.945310723847916"><ele>4.0</ele><time>2026-04-22T12:17:15.001Z</time></trkpt><trkpt lat="35.70010867136921" lon="-5.94526634242952"><ele>4.0</ele><time>2026-04-22T12:17:16.001Z</time></trkpt><trkpt lat="35.69995605135168" lon="-5.94521753032692"><ele>3.0</ele><time>2026-04-22T12:17:17.001Z</time></trkpt><trkpt lat="35.69980413025716" lon="-5.945161946574702"><ele>2.0</ele><time>2026-04-22T12:17:18.001Z</time></trkpt><trkpt lat="35.69965522792899" lon="-5.945102807772679"><ele>1.0</ele><time>2026-04-22T12:17:19.001Z</time></trkpt><trkpt lat="35.699511245302695" lon="-5.945040076730524"><ele>2.3333333333333335</ele><time>2026-04-22T12:17:20.001Z</time></trkpt><trkpt lat="35.69936422529298" lon="-5.944973445968284"><ele>3.666666666666667</ele><time>2026-04-22T12:17:21.001Z</time></trkpt><trkpt lat="35.699211364605354" lon="-5.944899323059416"><ele>5.0</ele><time>2026-04-22T12:17:22.001Z</time></trkpt><trkpt lat="35.69905557409748" lon="-5.944818177083345"><ele>5.0</ele><time>2026-04-22T12:17:23.001Z</time></trkpt><trkpt lat="35.69889959533614" lon="-5.9447301542556685"><ele>5.0</ele><time>2026-04-22T12:17:24.001Z</time></trkpt><trkpt lat="35.6987438907815" lon="-5.9446368868101365"><ele>5.0</ele><time>2026-04-22T12:17:25.001Z</time></trkpt><trkpt lat="35.698586661185004" lon="-5.9445391552120075"><ele>4.333333333333334</ele><time>2026-04-22T12:17:26.001Z</time></trkpt><trkpt lat="35.69843164275157" lon="-5.94443605559526"><ele>3.666666666666667</ele><time>2026-04-22T12:17:27.001Z</time></trkpt><trkpt lat="35.69827847521709" lon="-5.944326825790658"><ele>3.0</ele><time>2026-04-22T12:17:28.001Z</time></trkpt><trkpt lat="35.69812891984919" lon="-5.944215178015717"><ele>3.333333333333333</ele><time>2026-04-22T12:17:29.001Z</time></trkpt><trkpt lat="35.69797730773341" lon="-5.9440993183126585"><ele>3.6666666666666665</ele><time>2026-04-22T12:17:30.001Z</time></trkpt><trkpt lat="35.697825785463955" lon="-5.94398216931236"><ele>4.0</ele><time>2026-04-22T12:17:31.001Z</time></trkpt><trkpt lat="35.697673136263106" lon="-5.943862325768177"><ele>4.0</ele><time>2026-04-22T12:17:32.001Z</time></trkpt><trkpt lat="35.697519164155395" lon="-5.943741084208796"><ele>4.0</ele><time>2026-04-22T12:17:33.001Z</time></trkpt><trkpt lat="35.69736278956827" lon="-5.943621464054323"><ele>4.0</ele><time>2026-04-22T12:17:34.001Z</time></trkpt><trkpt lat="35.697202961211005" lon="-5.943503974952035"><ele>4.0</ele><time>2026-04-22T12:17:35.001Z</time></trkpt><trkpt lat="35.69703897794761" lon="-5.943385422982837"><ele>4.0</ele><time>2026-04-22T12:17:36.001Z</time></trkpt><trkpt lat="35.69687070253157" lon="-5.943269017341816"><ele>4.0</ele><time>2026-04-22T12:17:37.001Z</time></trkpt><trkpt lat="35.696700685393076" lon="-5.9431548799265235"><ele>3.6666666666666665</ele><time>2026-04-22T12:17:38.001Z</time></trkpt><trkpt lat="35.6965293015739" lon="-5.943043225323235"><ele>3.333333333333333</ele><time>2026-04-22T12:17:39.001Z</time></trkpt><trkpt lat="35.696357929646865" lon="-5.9429344019276815"><ele>3.0</ele><time>2026-04-22T12:17:40.001Z</time></trkpt><trkpt lat="35.69618619858265" lon="-5.942827223718833"><ele>2.6666666666666665</ele><time>2026-04-22T12:17:41.001Z</time></trkpt><trkpt lat="35.69601415296683" lon="-5.942723950796241"><ele>2.333333333333333</ele><time>2026-04-22T12:17:42.001Z</time></trkpt><trkpt lat="35.69584084632374" lon="-5.942623234856814"><ele>2.0</ele><time>2026-04-22T12:17:43.001Z</time></trkpt><trkpt lat="35.695666527791616" lon="-5.942525663667807"><ele>2.6666666666666665</ele><time>2026-04-22T12:17:44.001Z</time></trkpt><trkpt lat="35.69549035351457" lon="-5.942430211201017"><ele>3.333333333333333</ele><time>2026-04-22T12:17:45.001Z</time></trkpt><trkpt lat="35.6953146538037" lon="-5.942334128679556"><ele>4.0</ele><time>2026-04-22T12:17:46.001Z</time></trkpt><trkpt lat="35.69513821784729" lon="-5.942232490487485"><ele>4.0</ele><time>2026-04-22T12:17:47.001Z</time></trkpt><trkpt lat="35.694961921065556" lon="-5.942125931906989"><ele>4.0</ele><time>2026-04-22T12:17:48.001Z</time></trkpt><trkpt lat="35.694784825587455" lon="-5.942016844383682"><ele>4.0</ele><time>2026-04-22T12:17:49.001Z</time></trkpt><trkpt lat="35.69460788051385" lon="-5.941902910789167"><ele>4.0</ele><time>2026-04-22T12:17:50.001Z</time></trkpt><trkpt lat="35.694438166452116" lon="-5.941786417159953"><ele>4.0</ele><time>2026-04-22T12:17:51.001Z</time></trkpt><trkpt lat="35.69427017687648" lon="-5.941666583766084"><ele>4.0</ele><time>2026-04-22T12:17:52.001Z</time></trkpt><trkpt lat="35.69410772918038" lon="-5.941546762365609"><ele>4.333333333333333</ele><time>2026-04-22T12:17:53.001Z</time></trkpt><trkpt lat="35.69395287903795" lon="-5.941429519365057"><ele>4.666666666666667</ele><time>2026-04-22T12:17:54.001Z</time></trkpt><trkpt lat="35.69380969213468" lon="-5.941317888195663"><ele>5.0</ele><time>2026-04-22T12:17:55.001Z</time></trkpt><trkpt lat="35.6936804674627" lon="-5.941211594999752"><ele>4.25</ele><time>2026-04-22T12:17:56.001Z</time></trkpt><trkpt lat="35.69356416772114" lon="-5.941113791779766"><ele>3.5</ele><time>2026-04-22T12:17:57.001Z</time></trkpt><trkpt lat="35.69346205887365" lon="-5.941025742569748"><ele>2.75</ele><time>2026-04-22T12:17:58.001Z</time></trkpt><trkpt lat="35.693374576828695" lon="-5.940949710904047"><ele>2.0</ele><time>2026-04-22T12:17:59.001Z</time></trkpt><trkpt lat="35.69330094878772" lon="-5.940885101714668"><ele>2.6</ele><time>2026-04-22T12:18:00.001Z</time></trkpt><trkpt lat="35.6932381840516" lon="-5.940829361478496"><ele>3.2</ele><time>2026-04-22T12:18:01.001Z</time></trkpt><trkpt lat="35.69317080975689" lon="-5.940768024542969"><ele>3.8</ele><time>2026-04-22T12:18:02.001Z</time></trkpt><trkpt lat="35.69309354706209" lon="-5.940694025736129"><ele>4.4</ele><time>2026-04-22T12:18:03.001Z</time></trkpt><trkpt lat="35.69301404218221" lon="-5.940617699110905"><ele>5.0</ele><time>2026-04-22T12:18:04.001Z</time></trkpt><trkpt lat="35.69292244032687" lon="-5.940530717007003"><ele>5.0</ele><time>2026-04-22T12:18:05.001Z</time></trkpt><trkpt lat="35.69282355176282" lon="-5.940432952446989"><ele>5.0</ele><time>2026-04-22T12:18:06.001Z</time></trkpt><trkpt lat="35.692717628354295" lon="-5.940328444944351"><ele>5.0</ele><time>2026-04-22T12:18:07.001Z</time></trkpt><trkpt lat="35.69262238322963" lon="-5.940229362623567"><ele>5.0</ele><time>2026-04-22T12:18:08.001Z</time></trkpt><trkpt lat="35.69252466761809" lon="-5.940131139642224"><ele>6.0</ele><time>2026-04-22T12:18:09.001Z</time></trkpt><trkpt lat="35.6924108803871" lon="-5.940031988888087"><ele>7.0</ele><time>2026-04-22T12:18:10.001Z</time></trkpt><trkpt lat="35.692283210813024" lon="-5.939922941931337"><ele>8.0</ele><time>2026-04-22T12:18:11.001Z</time></trkpt><trkpt lat="35.69215161232167" lon="-5.939810747089297"><ele>8.0</ele><time>2026-04-22T12:18:12.001Z</time></trkpt><trkpt lat="35.692014639717094" lon="-5.9396985510270595"><ele>8.0</ele><time>2026-04-22T12:18:13.001Z</time></trkpt><trkpt lat="35.691873097450326" lon="-5.939585359000849"><ele>8.0</ele><time>2026-04-22T12:18:14.001Z</time></trkpt><trkpt lat="35.69172812467125" lon="-5.939472121969461"><ele>8.333333333333332</ele><time>2026-04-22T12:18:15.001Z</time></trkpt><trkpt lat="35.69158083487562" lon="-5.93935933690551"><ele>8.666666666666666</ele><time>2026-04-22T12:18:16.001Z</time></trkpt><trkpt lat="35.69142986857638" lon="-5.939247994485623"><ele>9.0</ele><time>2026-04-22T12:18:17.001Z</time></trkpt><trkpt lat="35.6912792612568" lon="-5.939142816646426"><ele>9.0</ele><time>2026-04-22T12:18:18.001Z</time></trkpt><trkpt lat="35.6911273105619" lon="-5.939043786320618"><ele>9.0</ele><time>2026-04-22T12:18:19.001Z</time></trkpt><trkpt lat="35.69097474797131" lon="-5.938946207136993"><ele>9.0</ele><time>2026-04-22T12:18:20.001Z</time></trkpt><trkpt lat="35.69082371887799" lon="-5.938849657234904"><ele>8.0</ele><time>2026-04-22T12:18:21.001Z</time></trkpt><trkpt lat="35.690672679208454" lon="-5.938755791114924"><ele>7.0</ele><time>2026-04-22T12:18:22.001Z</time></trkpt><trkpt lat="35.69052049365665" lon="-5.938660762066333"><ele>6.0</ele><time>2026-04-22T12:18:23.001Z</time></trkpt><trkpt lat="35.69036756894813" lon="-5.938560048079035"><ele>6.333333333333334</ele><time>2026-04-22T12:18:24.001Z</time></trkpt><trkpt lat="35.690214900585" lon="-5.93844995829222"><ele>6.666666666666667</ele><time>2026-04-22T12:18:25.001Z</time></trkpt><trkpt lat="35.690064029642166" lon="-5.93832954612514"><ele>7.0</ele><time>2026-04-22T12:18:26.001Z</time></trkpt><trkpt lat="35.68991682374109" lon="-5.938194645024499"><ele>7.0</ele><time>2026-04-22T12:18:27.001Z</time></trkpt><trkpt lat="35.68977452230712" lon="-5.938047749456812"><ele>7.0</ele><time>2026-04-22T12:18:28.001Z</time></trkpt><trkpt lat="35.68963594855581" lon="-5.937896460546516"><ele>7.0</ele><time>2026-04-22T12:18:29.001Z</time></trkpt><trkpt lat="35.689501319356964" lon="-5.937738749939517"><ele>7.333333333333334</ele><time>2026-04-22T12:18:30.001Z</time></trkpt><trkpt lat="35.68937176183219" lon="-5.937578655675577"><ele>7.666666666666666</ele><time>2026-04-22T12:18:31.001Z</time></trkpt><trkpt lat="35.68924473889007" lon="-5.937419033057811"><ele>8.0</ele><time>2026-04-22T12:18:32.001Z</time></trkpt><trkpt lat="35.68911912921018" lon="-5.937257273786358"><ele>8.0</ele><time>2026-04-22T12:18:33.001Z</time></trkpt><trkpt lat="35.688996449959276" lon="-5.937093746645207"><ele>8.0</ele><time>2026-04-22T12:18:34.001Z</time></trkpt><trkpt lat="35.68888119876815" lon="-5.936923239959112"><ele>8.0</ele><time>2026-04-22T12:18:35.001Z</time></trkpt><trkpt lat="35.68877986910787" lon="-5.936746594871361"><ele>8.0</ele><time>2026-04-22T12:18:36.001Z</time></trkpt><trkpt lat="35.68869819088741" lon="-5.936571985837228"><ele>8.0</ele><time>2026-04-22T12:18:37.001Z</time></trkpt><trkpt lat="35.68863302335095" lon="-5.936402372657368"><ele>8.0</ele><time>2026-04-22T12:18:38.001Z</time></trkpt><trkpt lat="35.68858127337579" lon="-5.936241702562821"><ele>8.0</ele><time>2026-04-22T12:18:39.002Z</time></trkpt><trkpt lat="35.68854112091208" lon="-5.936093017747771"><ele>8.0</ele><time>2026-04-22T12:18:40.002Z</time></trkpt><trkpt lat="35.6885129638261" lon="-5.935956384921363"><ele>8.0</ele><time>2026-04-22T12:18:41.002Z</time></trkpt><trkpt lat="35.68849095639403" lon="-5.935833812179656"><ele>8.0</ele><time>2026-04-22T12:18:42.002Z</time></trkpt><trkpt lat="35.68847228779904" lon="-5.935731395329006"><ele>8.0</ele><time>2026-04-22T12:18:43.002Z</time></trkpt><trkpt lat="35.68845543947512" lon="-5.935629142500906"><ele>7.75</ele><time>2026-04-22T12:18:44.002Z</time></trkpt><trkpt lat="35.6884415854806" lon="-5.935514844463276"><ele>7.5</ele><time>2026-04-22T12:18:45.002Z</time></trkpt><trkpt lat="35.6884353995819" lon="-5.935380914931738"><ele>7.25</ele><time>2026-04-22T12:18:46.002Z</time></trkpt><trkpt lat="35.68842973608867" lon="-5.9352284687610055"><ele>7.0</ele><time>2026-04-22T12:18:47.002Z</time></trkpt><trkpt lat="35.68842353922904" lon="-5.935061496374909"><ele>7.0</ele><time>2026-04-22T12:18:48.002Z</time></trkpt><trkpt lat="35.68841835403048" lon="-5.934891622044695"><ele>7.0</ele><time>2026-04-22T12:18:49.002Z</time></trkpt><trkpt lat="35.6884113526372" lon="-5.934717506895674"><ele>7.0</ele><time>2026-04-22T12:18:50.002Z</time></trkpt><trkpt lat="35.68840310717707" lon="-5.934533716523166"><ele>7.0</ele><time>2026-04-22T12:18:51.001Z</time></trkpt><trkpt lat="35.68839600172277" lon="-5.934346166778864"><ele>6.333333333333334</ele><time>2026-04-22T12:18:52.001Z</time></trkpt><trkpt lat="35.688389576118965" lon="-5.9341524380883754"><ele>5.666666666666667</ele><time>2026-04-22T12:18:53.001Z</time></trkpt><trkpt lat="35.68838013643858" lon="-5.933954090138464"><ele>5.0</ele><time>2026-04-22T12:18:54.001Z</time></trkpt><trkpt lat="35.68836580590177" lon="-5.933753926994068"><ele>5.0</ele><time>2026-04-22T12:18:55.001Z</time></trkpt><trkpt lat="35.688344342347264" lon="-5.933551409022749"><ele>5.0</ele><time>2026-04-22T12:18:56.001Z</time></trkpt><trkpt lat="35.688316255672575" lon="-5.933345156381928"><ele>5.0</ele><time>2026-04-22T12:18:57.001Z</time></trkpt><trkpt lat="35.68828078987806" lon="-5.933132160427006"><ele>5.0</ele><time>2026-04-22T12:18:58.001Z</time></trkpt><trkpt lat="35.68824050427987" lon="-5.932924444630413"><ele>5.0</ele><time>2026-04-22T12:18:59.001Z</time></trkpt><trkpt lat="35.68819283539881" lon="-5.932717451134745"><ele>5.0</ele><time>2026-04-22T12:19:00.001Z</time></trkpt><trkpt lat="35.68813769383133" lon="-5.932510786039908"><ele>5.333333333333334</ele><time>2026-04-22T12:19:01.001Z</time></trkpt><trkpt lat="35.68807372184176" lon="-5.932308013311582"><ele>5.666666666666667</ele><time>2026-04-22T12:19:02.001Z</time></trkpt><trkpt lat="35.68800002552526" lon="-5.932107305503937"><ele>6.0</ele><time>2026-04-22T12:19:03.001Z</time></trkpt><trkpt lat="35.687924055109946" lon="-5.931920743473749"><ele>6.0</ele><time>2026-04-22T12:19:04.001Z</time></trkpt><trkpt lat="35.68784951445298" lon="-5.931748812389157"><ele>6.0</ele><time>2026-04-22T12:19:05.001Z</time></trkpt><trkpt lat="35.68777607229533" lon="-5.931587518199641"><ele>6.0</ele><time>2026-04-22T12:19:06.001Z</time></trkpt><trkpt lat="35.687706031019346" lon="-5.931440287203807"><ele>6.0</ele><time>2026-04-22T12:19:07.001Z</time></trkpt><trkpt lat="35.68763823683096" lon="-5.931300867326714"><ele>6.199999999999999</ele><time>2026-04-22T12:19:08.001Z</time></trkpt><trkpt lat="35.687575117857214" lon="-5.93117506552193"><ele>6.3999999999999995</ele><time>2026-04-22T12:19:09.001Z</time></trkpt><trkpt lat="35.68751594030169" lon="-5.9310604762344665"><ele>6.6</ele><time>2026-04-22T12:19:10.001Z</time></trkpt><trkpt lat="35.68746152958173" lon="-5.930955684761275"><ele>6.8</ele><time>2026-04-22T12:19:11.001Z</time></trkpt><trkpt lat="35.68741010234573" lon="-5.930858879337026"><ele>7.0</ele><time>2026-04-22T12:19:12.001Z</time></trkpt><trkpt lat="35.68736664835741" lon="-5.930777294142853"><ele>7.0</ele><time>2026-04-22T12:19:13.001Z</time></trkpt><trkpt lat="35.68732649275018" lon="-5.930702144402656"><ele>6.999999999999999</ele><time>2026-04-22T12:19:14.001Z</time></trkpt><trkpt lat="35.68727788611685" lon="-5.930611842683736"><ele>6.999999999999999</ele><time>2026-04-22T12:19:15.001Z</time></trkpt><trkpt lat="35.68721708866533" lon="-5.9305098881541145"><ele>7.0</ele><time>2026-04-22T12:19:16.001Z</time></trkpt><trkpt lat="35.68714456038032" lon="-5.9304065655601494"><ele>7.0</ele><time>2026-04-22T12:19:17.001Z</time></trkpt><trkpt lat="35.687058790109106" lon="-5.9303046722534765"><ele>7.0</ele><time>2026-04-22T12:19:18.001Z</time></trkpt><trkpt lat="35.686964508371915" lon="-5.930202716284583"><ele>7.0</ele><time>2026-04-22T12:19:19.001Z</time></trkpt><trkpt lat="35.68686528764781" lon="-5.930097970629538"><ele>7.0</ele><time>2026-04-22T12:19:20.001Z</time></trkpt><trkpt lat="35.686764650651924" lon="-5.929994506662738"><ele>7.0</ele><time>2026-04-22T12:19:21.001Z</time></trkpt><trkpt lat="35.68665895660451" lon="-5.92989081691998"><ele>7.25</ele><time>2026-04-22T12:19:22.001Z</time></trkpt><trkpt lat="35.68654567888987" lon="-5.929788541367714"><ele>7.5</ele><time>2026-04-22T12:19:23.001Z</time></trkpt><trkpt lat="35.686430481843416" lon="-5.92969553078883"><ele>7.75</ele><time>2026-04-22T12:19:24.001Z</time></trkpt><trkpt lat="35.686310039836115" lon="-5.929606089334185"><ele>8.0</ele><time>2026-04-22T12:19:25.001Z</time></trkpt><trkpt lat="35.68618876211457" lon="-5.9295188182642224"><ele>8.0</ele><time>2026-04-22T12:19:26.001Z</time></trkpt><trkpt lat="35.686070722559386" lon="-5.929433708434418"><ele>8.0</ele><time>2026-04-22T12:19:27.001Z</time></trkpt><trkpt lat="35.68595365154879" lon="-5.9293511801302605"><ele>8.0</ele><time>2026-04-22T12:19:28.001Z</time></trkpt><trkpt lat="35.68583933005123" lon="-5.929279055147352"><ele>8.0</ele><time>2026-04-22T12:19:29.001Z</time></trkpt><trkpt lat="35.68572885784679" lon="-5.929217380566392"><ele>8.0</ele><time>2026-04-22T12:19:30.001Z</time></trkpt><trkpt lat="35.685621970485" lon="-5.929160898021267"><ele>8.0</ele><time>2026-04-22T12:19:31.001Z</time></trkpt><trkpt lat="35.68551837803581" lon="-5.9291115103515475"><ele>8.0</ele><time>2026-04-22T12:19:32.001Z</time></trkpt><trkpt lat="35.6854180018999" lon="-5.929076575594651"><ele>8.0</ele><time>2026-04-22T12:19:33.001Z</time></trkpt><trkpt lat="35.68532475193973" lon="-5.929059445164454"><ele>8.0</ele><time>2026-04-22T12:19:34.001Z</time></trkpt><trkpt lat="35.68522993956424" lon="-5.929055228428217"><ele>8.0</ele><time>2026-04-22T12:19:35.001Z</time></trkpt><trkpt lat="35.68513424200205" lon="-5.929083482056085"><ele>8.0</ele><time>2026-04-22T12:19:36.001Z</time></trkpt><trkpt lat="35.685025948612065" lon="-5.929066978715868"><ele>8.0</ele><time>2026-04-22T12:19:37.001Z</time></trkpt><trkpt lat="35.68492572777154" lon="-5.929016739048138"><ele>8.0</ele><time>2026-04-22T12:19:38.001Z</time></trkpt><trkpt lat="35.684822968867756" lon="-5.92894972892353"><ele>8.0</ele><time>2026-04-22T12:19:39.001Z</time></trkpt><trkpt lat="35.684706832331045" lon="-5.928920891830468"><ele>8.0</ele><time>2026-04-22T12:19:40.001Z</time></trkpt><trkpt lat="35.68457366725144" lon="-5.928979553995635"><ele>8.0</ele><time>2026-04-22T12:19:41.001Z</time></trkpt><trkpt lat="35.68444736972883" lon="-5.9289785604963505"><ele>8.0</ele><time>2026-04-22T12:19:42.001Z</time></trkpt><trkpt lat="35.684322656847584" lon="-5.928975403165987"><ele>8.0</ele><time>2026-04-22T12:19:43.001Z</time></trkpt><trkpt lat="35.68420173727306" lon="-5.928968022219116"><ele>8.0</ele><time>2026-04-22T12:19:44.001Z</time></trkpt><trkpt lat="35.684086955384686" lon="-5.928957617028704"><ele>8.0</ele><time>2026-04-22T12:19:45.001Z</time></trkpt><trkpt lat="35.683977771436" lon="-5.9289439294679624"><ele>8.0</ele><time>2026-04-22T12:19:46.001Z</time></trkpt><trkpt lat="35.68387421930434" lon="-5.928916889501144"><ele>8.0</ele><time>2026-04-22T12:19:47.001Z</time></trkpt><trkpt lat="35.68377308747535" lon="-5.928868130767855"><ele>8.0</ele><time>2026-04-22T12:19:48.001Z</time></trkpt><trkpt lat="35.683673165172934" lon="-5.928797248052301"><ele>8.25</ele><time>2026-04-22T12:19:49.001Z</time></trkpt><trkpt lat="35.68357000670016" lon="-5.928717974604777"><ele>8.5</ele><time>2026-04-22T12:19:50.001Z</time></trkpt><trkpt lat="35.68346796340573" lon="-5.92863538600438"><ele>8.75</ele><time>2026-04-22T12:19:51.001Z</time></trkpt><trkpt lat="35.68336930254154" lon="-5.928552860755462"><ele>9.0</ele><time>2026-04-22T12:19:52.001Z</time></trkpt><trkpt lat="35.68327465281472" lon="-5.928474453895282"><ele>9.0</ele><time>2026-04-22T12:19:53.001Z</time></trkpt><trkpt lat="35.683187076992375" lon="-5.928402808929869"><ele>9.0</ele><time>2026-04-22T12:19:54.001Z</time></trkpt><trkpt lat="35.683108322363246" lon="-5.928336213009839"><ele>9.0</ele><time>2026-04-22T12:19:55.001Z</time></trkpt><trkpt lat="35.683038293664445" lon="-5.928276957880603"><ele>9.0</ele><time>2026-04-22T12:19:56.001Z</time></trkpt><trkpt lat="35.68297955121353" lon="-5.928228392554734"><ele>9.0</ele><time>2026-04-22T12:19:57.001Z</time></trkpt><trkpt lat="35.68289049750003" lon="-5.928156452855156"><ele>9.2</ele><time>2026-04-22T12:19:59.001Z</time></trkpt><trkpt lat="35.68283748526177" lon="-5.928110804125543"><ele>9.4</ele><time>2026-04-22T12:20:01.001Z</time></trkpt><trkpt lat="35.68277275991908" lon="-5.928032722343657"><ele>9.6</ele><time>2026-04-22T12:20:04.001Z</time></trkpt><trkpt lat="35.68268771419972" lon="-5.9279057916176265"><ele>9.8</ele><time>2026-04-22T12:20:06.001Z</time></trkpt><trkpt lat="35.68263643216847" lon="-5.927820828651991"><ele>10.0</ele><time>2026-04-22T12:20:07.001Z</time></trkpt><trkpt lat="35.68258260377586" lon="-5.927724042243652"><ele>10.6</ele><time>2026-04-22T12:20:08.001Z</time></trkpt><trkpt lat="35.68253032254694" lon="-5.927618467881257"><ele>11.2</ele><time>2026-04-22T12:20:09.001Z</time></trkpt><trkpt lat="35.68247591347836" lon="-5.9275080717673125"><ele>11.8</ele><time>2026-04-22T12:20:10.001Z</time></trkpt><trkpt lat="35.68241865545598" lon="-5.9273930771295955"><ele>12.4</ele><time>2026-04-22T12:20:11.001Z</time></trkpt><trkpt lat="35.68236138534869" lon="-5.927273728523243"><ele>13.0</ele><time>2026-04-22T12:20:12.001Z</time></trkpt><trkpt lat="35.68230459223812" lon="-5.9271550502977615"><ele>13.0</ele><time>2026-04-22T12:20:13.001Z</time></trkpt><trkpt lat="35.682251344906874" lon="-5.927043120060512"><ele>13.0</ele><time>2026-04-22T12:20:14.001Z</time></trkpt><trkpt lat="35.68220452890841" lon="-5.926938830029389"><ele>13.0</ele><time>2026-04-22T12:20:15.001Z</time></trkpt><trkpt lat="35.682164323799356" lon="-5.926842736084216"><ele>13.0</ele><time>2026-04-22T12:20:16.001Z</time></trkpt><trkpt lat="35.68212511861155" lon="-5.926750955653086"><ele>13.0</ele><time>2026-04-22T12:20:17.001Z</time></trkpt><trkpt lat="35.682085174800605" lon="-5.926659442101004"><ele>12.999999999999998</ele><time>2026-04-22T12:20:18.001Z</time></trkpt><trkpt lat="35.682041632541306" lon="-5.926574146656024"><ele>13.0</ele><time>2026-04-22T12:20:19.001Z</time></trkpt><trkpt lat="35.68198885791995" lon="-5.926497819402079"><ele>13.0</ele><time>2026-04-22T12:20:20.001Z</time></trkpt><trkpt lat="35.68193538471445" lon="-5.926422854615565"><ele>13.0</ele><time>2026-04-22T12:20:21.001Z</time></trkpt><trkpt lat="35.68188907460239" lon="-5.926337239389458"><ele>12.999999999999998</ele><time>2026-04-22T12:20:22.001Z</time></trkpt><trkpt lat="35.68185589598431" lon="-5.926234476639456"><ele>13.0</ele><time>2026-04-22T12:20:23.001Z</time></trkpt><trkpt lat="35.68183511456518" lon="-5.92611663556884"><ele>12.8</ele><time>2026-04-22T12:20:24.001Z</time></trkpt><trkpt lat="35.68182619623876" lon="-5.925988372857945"><ele>12.600000000000001</ele><time>2026-04-22T12:20:25.001Z</time></trkpt><trkpt lat="35.681811827379995" lon="-5.925857448967678"><ele>12.399999999999999</ele><time>2026-04-22T12:20:26.001Z</time></trkpt><trkpt lat="35.681785443863674" lon="-5.925720366436056"><ele>12.2</ele><time>2026-04-22T12:20:27.001Z</time></trkpt><trkpt lat="35.68175233104379" lon="-5.925583883226055"><ele>12.0</ele><time>2026-04-22T12:20:28.001Z</time></trkpt><trkpt lat="35.68171855080829" lon="-5.925447211125023"><ele>12.0</ele><time>2026-04-22T12:20:29.001Z</time></trkpt><trkpt lat="35.6816894563714" lon="-5.9253134218295145"><ele>12.0</ele><time>2026-04-22T12:20:30.001Z</time></trkpt><trkpt lat="35.68166623886243" lon="-5.9251891134797425"><ele>12.0</ele><time>2026-04-22T12:20:31.001Z</time></trkpt><trkpt lat="35.681646621597366" lon="-5.92507139470763"><ele>12.0</ele><time>2026-04-22T12:20:32.001Z</time></trkpt><trkpt lat="35.6816287220293" lon="-5.924959331605755"><ele>12.0</ele><time>2026-04-22T12:20:33.001Z</time></trkpt><trkpt lat="35.68161139095492" lon="-5.924853632711053"><ele>12.333333333333334</ele><time>2026-04-22T12:20:34.001Z</time></trkpt><trkpt lat="35.681596883558846" lon="-5.924760602761165"><ele>12.666666666666668</ele><time>2026-04-22T12:20:35.001Z</time></trkpt><trkpt lat="35.68158224890318" lon="-5.924678883374755"><ele>13.0</ele><time>2026-04-22T12:20:36.001Z</time></trkpt><trkpt lat="35.68154565171655" lon="-5.924546330677384"><ele>13.333333333333334</ele><time>2026-04-22T12:20:38.001Z</time></trkpt><trkpt lat="35.68151668619526" lon="-5.9244490462556305"><ele>13.666666666666668</ele><time>2026-04-22T12:20:40.001Z</time></trkpt><trkpt lat="35.681423576599016" lon="-5.924400627119166"><ele>14.0</ele><time>2026-04-22T12:20:42.001Z</time></trkpt><trkpt lat="35.68135481276662" lon="-5.9243032699274405"><ele>14.6</ele><time>2026-04-22T12:20:44.001Z</time></trkpt><trkpt lat="35.68132584128442" lon="-5.924171977517912"><ele>15.2</ele><time>2026-04-22T12:20:46.002Z</time></trkpt><trkpt lat="35.68136396643682" lon="-5.924059633731133"><ele>15.799999999999999</ele><time>2026-04-22T12:20:48.002Z</time></trkpt><trkpt lat="35.68146479196288" lon="-5.923996325168076"><ele>16.4</ele><time>2026-04-22T12:20:50.002Z</time></trkpt><trkpt lat="35.68153362452552" lon="-5.9239790439075595"><ele>17.0</ele><time>2026-04-22T12:20:51.002Z</time></trkpt><trkpt lat="35.68160044902029" lon="-5.923959247105089"><ele>16.999999999999996</ele><time>2026-04-22T12:20:52.002Z</time></trkpt><trkpt lat="35.681664132554324" lon="-5.923932617491469"><ele>17.0</ele><time>2026-04-22T12:20:53.002Z</time></trkpt><trkpt lat="35.68172569454562" lon="-5.923891930764933"><ele>17.0</ele><time>2026-04-22T12:20:54.001Z</time></trkpt><trkpt lat="35.681782029136805" lon="-5.9238413418135245"><ele>17.0</ele><time>2026-04-22T12:20:55.001Z</time></trkpt><trkpt lat="35.68183277318314" lon="-5.923777074363741"><ele>17.0</ele><time>2026-04-22T12:20:56.001Z</time></trkpt><trkpt lat="35.68188488846128" lon="-5.923700866877739"><ele>16.999999999999996</ele><time>2026-04-22T12:20:57.001Z</time></trkpt><trkpt lat="35.681933438545414" lon="-5.923613018302087"><ele>17.0</ele><time>2026-04-22T12:20:58.001Z</time></trkpt><trkpt lat="35.681974737651004" lon="-5.923518529314214"><ele>17.5</ele><time>2026-04-22T12:20:59.001Z</time></trkpt><trkpt lat="35.68200783463025" lon="-5.923422581269576"><ele>18.0</ele><time>2026-04-22T12:21:00.001Z</time></trkpt><trkpt lat="35.68203718129304" lon="-5.923326046907784"><ele>18.5</ele><time>2026-04-22T12:21:01.001Z</time></trkpt><trkpt lat="35.68205894725563" lon="-5.923227424666115"><ele>19.0</ele><time>2026-04-22T12:21:02.001Z</time></trkpt><trkpt lat="35.682076784078596" lon="-5.923126729209098"><ele>19.5</ele><time>2026-04-22T12:21:03.001Z</time></trkpt><trkpt lat="35.682084964432" lon="-5.923024216573754"><ele>20.0</ele><time>2026-04-22T12:21:04.001Z</time></trkpt><trkpt lat="35.68208936474321" lon="-5.922921820510026"><ele>20.166666666666668</ele><time>2026-04-22T12:21:05.001Z</time></trkpt><trkpt lat="35.68208837321508" lon="-5.9228187087697926"><ele>20.333333333333336</ele><time>2026-04-22T12:21:06.001Z</time></trkpt><trkpt lat="35.68208335019348" lon="-5.922715222677885"><ele>20.5</ele><time>2026-04-22T12:21:07.001Z</time></trkpt><trkpt lat="35.68207584591354" lon="-5.922612091850549"><ele>20.666666666666668</ele><time>2026-04-22T12:21:08.001Z</time></trkpt><trkpt lat="35.68206020118343" lon="-5.922508670535352"><ele>20.833333333333332</ele><time>2026-04-22T12:21:09.001Z</time></trkpt><trkpt lat="35.6820381542172" lon="-5.922407002426384"><ele>21.0</ele><time>2026-04-22T12:21:10.001Z</time></trkpt><trkpt lat="35.68201336599124" lon="-5.922307936178185"><ele>20.571428571428573</ele><time>2026-04-22T12:21:11.001Z</time></trkpt><trkpt lat="35.681982803404104" lon="-5.922215247777967"><ele>20.142857142857142</ele><time>2026-04-22T12:21:12.001Z</time></trkpt><trkpt lat="35.68195132840152" lon="-5.922126996836357"><ele>19.714285714285715</ele><time>2026-04-22T12:21:13.001Z</time></trkpt><trkpt lat="35.68192064303207" lon="-5.9220462025189216"><ele>19.285714285714285</ele><time>2026-04-22T12:21:14.001Z</time></trkpt><trkpt lat="35.68188728095268" lon="-5.921969088470032"><ele>18.857142857142858</ele><time>2026-04-22T12:21:15.001Z</time></trkpt><trkpt lat="35.681850048805764" lon="-5.921896683828158"><ele>18.42857142857143</ele><time>2026-04-22T12:21:16.001Z</time></trkpt><trkpt lat="35.68181031882143" lon="-5.9218283630046455"><ele>18.0</ele><time>2026-04-22T12:21:17.001Z</time></trkpt><trkpt lat="35.68174600865668" lon="-5.9217404850693"><ele>17.8</ele><time>2026-04-22T12:21:19.001Z</time></trkpt><trkpt lat="35.681681019704065" lon="-5.9216771362566245"><ele>17.6</ele><time>2026-04-22T12:21:23.001Z</time></trkpt><trkpt lat="35.681607862732356" lon="-5.921662816028466"><ele>17.4</ele><time>2026-04-22T12:21:25.001Z</time></trkpt><trkpt lat="35.68150109204144" lon="-5.921759547548226"><ele>17.2</ele><time>2026-04-22T12:21:27.001Z</time></trkpt><trkpt lat="35.681445571224884" lon="-5.921830867650582"><ele>17.0</ele><time>2026-04-22T12:21:28.001Z</time></trkpt><trkpt lat="35.68138699249877" lon="-5.921915833179306"><ele>16.8</ele><time>2026-04-22T12:21:29.001Z</time></trkpt><trkpt lat="35.681328701897904" lon="-5.922008334357288"><ele>16.6</ele><time>2026-04-22T12:21:30.001Z</time></trkpt><trkpt lat="35.68127026280825" lon="-5.922113817480517"><ele>16.400000000000002</ele><time>2026-04-22T12:21:31.001Z</time></trkpt><trkpt lat="35.68120780841988" lon="-5.922224856405023"><ele>16.2</ele><time>2026-04-22T12:21:32.001Z</time></trkpt><trkpt lat="35.68114517864832" lon="-5.922337534834391"><ele>16.0</ele><time>2026-04-22T12:21:33.001Z</time></trkpt><trkpt lat="35.68108057219162" lon="-5.922456137656017"><ele>16.5</ele><time>2026-04-22T12:21:34.001Z</time></trkpt><trkpt lat="35.68101598740397" lon="-5.922572423419727"><ele>17.0</ele><time>2026-04-22T12:21:35.001Z</time></trkpt><trkpt lat="35.68095101232397" lon="-5.922690685176177"><ele>17.5</ele><time>2026-04-22T12:21:36.001Z</time></trkpt><trkpt lat="35.68088565199958" lon="-5.922808736499065"><ele>18.0</ele><time>2026-04-22T12:21:37.001Z</time></trkpt><trkpt lat="35.68082159177902" lon="-5.922927005839949"><ele>18.0</ele><time>2026-04-22T12:21:38.001Z</time></trkpt><trkpt lat="35.68075898720481" lon="-5.923044552291224"><ele>18.0</ele><time>2026-04-22T12:21:39.001Z</time></trkpt><trkpt lat="35.68069614184052" lon="-5.923159734814371"><ele>18.0</ele><time>2026-04-22T12:21:40.001Z</time></trkpt><trkpt lat="35.68063358638477" lon="-5.92327393806345"><ele>18.0</ele><time>2026-04-22T12:21:41.001Z</time></trkpt><trkpt lat="35.68057087671352" lon="-5.923389438641638"><ele>17.5</ele><time>2026-04-22T12:21:42.001Z</time></trkpt><trkpt lat="35.680507712166836" lon="-5.9235053503412844"><ele>17.0</ele><time>2026-04-22T12:21:43.001Z</time></trkpt><trkpt lat="35.68044478833185" lon="-5.923625438685076"><ele>16.5</ele><time>2026-04-22T12:21:44.001Z</time></trkpt><trkpt lat="35.68038187002577" lon="-5.923746410429237"><ele>16.0</ele><time>2026-04-22T12:21:45.001Z</time></trkpt><trkpt lat="35.680318026846415" lon="-5.923866749410303"><ele>15.75</ele><time>2026-04-22T12:21:46.001Z</time></trkpt><trkpt lat="35.68025833576587" lon="-5.923987418467212"><ele>15.5</ele><time>2026-04-22T12:21:47.001Z</time></trkpt><trkpt lat="35.68019777764715" lon="-5.924113542302903"><ele>15.25</ele><time>2026-04-22T12:21:48.001Z</time></trkpt><trkpt lat="35.68013246564598" lon="-5.924241718963396"><ele>15.0</ele><time>2026-04-22T12:21:49.001Z</time></trkpt><trkpt lat="35.680064260939666" lon="-5.924370994643053"><ele>15.0</ele><time>2026-04-22T12:21:50.001Z</time></trkpt><trkpt lat="35.6799927737437" lon="-5.924505171692151"><ele>15.0</ele><time>2026-04-22T12:21:51.001Z</time></trkpt><trkpt lat="35.67991155330302" lon="-5.92466179540335"><ele>15.0</ele><time>2026-04-22T12:21:52.001Z</time></trkpt><trkpt lat="35.6798238952034" lon="-5.924824911928478"><ele>15.0</ele><time>2026-04-22T12:21:53.001Z</time></trkpt><trkpt lat="35.67973772539699" lon="-5.924984766243137"><ele>15.0</ele><time>2026-04-22T12:21:54.001Z</time></trkpt><trkpt lat="35.67965237219225" lon="-5.925140541065953"><ele>15.0</ele><time>2026-04-22T12:21:55.001Z</time></trkpt><trkpt lat="35.67957110062972" lon="-5.9252922019774505"><ele>15.0</ele><time>2026-04-22T12:21:56.001Z</time></trkpt><trkpt lat="35.67949307191784" lon="-5.925442324228612"><ele>15.0</ele><time>2026-04-22T12:21:57.001Z</time></trkpt><trkpt lat="35.67941687244437" lon="-5.925591369525968"><ele>15.0</ele><time>2026-04-22T12:21:58.001Z</time></trkpt><trkpt lat="35.67934244692146" lon="-5.925737785431522"><ele>15.0</ele><time>2026-04-22T12:21:59.001Z</time></trkpt><trkpt lat="35.679267926808905" lon="-5.925883855174843"><ele>15.0</ele><time>2026-04-22T12:22:00.001Z</time></trkpt><trkpt lat="35.67919443954694" lon="-5.926029738444557"><ele>15.0</ele><time>2026-04-22T12:22:01Z</time></trkpt><trkpt lat="35.67911971158996" lon="-5.9261729791073625"><ele>15.75</ele><time>2026-04-22T12:22:02Z</time></trkpt><trkpt lat="35.67904430697605" lon="-5.926314735103497"><ele>16.5</ele><time>2026-04-22T12:22:03Z</time></trkpt><trkpt lat="35.67897259248032" lon="-5.926452098544545"><ele>17.25</ele><time>2026-04-22T12:22:04Z</time></trkpt><trkpt lat="35.67890094193967" lon="-5.926585718517376"><ele>18.0</ele><time>2026-04-22T12:22:05Z</time></trkpt><trkpt lat="35.67883450154469" lon="-5.9267125480127305"><ele>18.2</ele><time>2026-04-22T12:22:06Z</time></trkpt><trkpt lat="35.678771609431905" lon="-5.926833191008494"><ele>18.4</ele><time>2026-04-22T12:22:07Z</time></trkpt><trkpt lat="35.678711740446914" lon="-5.9269460805549885"><ele>18.599999999999998</ele><time>2026-04-22T12:22:08Z</time></trkpt><trkpt lat="35.67865370764541" lon="-5.927050856690641"><ele>18.8</ele><time>2026-04-22T12:22:09Z</time></trkpt><trkpt lat="35.67860000056795" lon="-5.9271472446629145"><ele>19.0</ele><time>2026-04-22T12:22:10Z</time></trkpt><trkpt lat="35.67854647161165" lon="-5.92724276800731"><ele>19.333333333333332</ele><time>2026-04-22T12:22:11Z</time></trkpt><trkpt lat="35.6784951812374" lon="-5.927334759253768"><ele>19.666666666666664</ele><time>2026-04-22T12:22:12Z</time></trkpt><trkpt lat="35.678450616420385" lon="-5.92741332404338"><ele>20.0</ele><time>2026-04-22T12:22:13Z</time></trkpt><trkpt lat="35.67840990003873" lon="-5.927489592716932"><ele>20.333333333333332</ele><time>2026-04-22T12:22:14Z</time></trkpt><trkpt lat="35.67834802992488" lon="-5.9276007043587295"><ele>20.666666666666668</ele><time>2026-04-22T12:22:16Z</time></trkpt><trkpt lat="35.678309053713164" lon="-5.927668504758267"><ele>21.0</ele><time>2026-04-22T12:22:18Z</time></trkpt><trkpt lat="35.67826413441197" lon="-5.927756143392754"><ele>21.0</ele><time>2026-04-22T12:22:33Z</time></trkpt><trkpt lat="35.67820406530672" lon="-5.927893369883058"><ele>21.0</ele><time>2026-04-22T12:22:35Z</time></trkpt><trkpt lat="35.67816299118029" lon="-5.927980530381894"><ele>21.0</ele><time>2026-04-22T12:22:36Z</time></trkpt><trkpt lat="35.67810786450488" lon="-5.928053068573794"><ele>21.0</ele><time>2026-04-22T12:22:37Z</time></trkpt><trkpt lat="35.67805609295046" lon="-5.928143631701965"><ele>21.0</ele><time>2026-04-22T12:22:38Z</time></trkpt><trkpt lat="35.6779984514324" lon="-5.9282416944050595"><ele>21.0</ele><time>2026-04-22T12:22:39Z</time></trkpt><trkpt lat="35.67794358297563" lon="-5.928335052091655"><ele>21.0</ele><time>2026-04-22T12:22:40Z</time></trkpt><trkpt lat="35.6778967235803" lon="-5.928414782496955"><ele>21.0</ele><time>2026-04-22T12:22:41Z</time></trkpt><trkpt lat="35.677842768016184" lon="-5.92850658691353"><ele>21.0</ele><time>2026-04-22T12:22:43Z</time></trkpt><trkpt lat="35.67783073447931" lon="-5.928590325966832"><ele>21.0</ele><time>2026-04-22T12:23:20Z</time></trkpt><trkpt lat="35.677767746422965" lon="-5.928664967122815"><ele>21.0</ele><time>2026-04-22T12:23:22Z</time></trkpt><trkpt lat="35.67768099129063" lon="-5.928787249130401"><ele>20.8</ele><time>2026-04-22T12:23:24Z</time></trkpt><trkpt lat="35.677626353388135" lon="-5.928866049806698"><ele>20.6</ele><time>2026-04-22T12:23:25Z</time></trkpt><trkpt lat="35.67756875667316" lon="-5.928956096567313"><ele>20.4</ele><time>2026-04-22T12:23:26Z</time></trkpt><trkpt lat="35.67750894368473" lon="-5.929048570208"><ele>20.2</ele><time>2026-04-22T12:23:27Z</time></trkpt><trkpt lat="35.67744284477501" lon="-5.929151874571952"><ele>20.0</ele><time>2026-04-22T12:23:28Z</time></trkpt><trkpt lat="35.677366315596984" lon="-5.929277864948302"><ele>20.0</ele><time>2026-04-22T12:23:29Z</time></trkpt><trkpt lat="35.67728982647471" lon="-5.9294016057764045"><ele>20.0</ele><time>2026-04-22T12:23:30Z</time></trkpt><trkpt lat="35.67720992407765" lon="-5.929532591983913"><ele>20.0</ele><time>2026-04-22T12:23:31Z</time></trkpt><trkpt lat="35.67712729534042" lon="-5.929665099025085"><ele>20.0</ele><time>2026-04-22T12:23:32Z</time></trkpt><trkpt lat="35.677039725383715" lon="-5.9298022071248555"><ele>20.0</ele><time>2026-04-22T12:23:33Z</time></trkpt><trkpt lat="35.676950538632674" lon="-5.9299450195252446"><ele>20.0</ele><time>2026-04-22T12:23:34Z</time></trkpt><trkpt lat="35.676862381599044" lon="-5.930089997664987"><ele>20.0</ele><time>2026-04-22T12:23:35Z</time></trkpt><trkpt lat="35.676770353192026" lon="-5.930234439729568"><ele>20.0</ele><time>2026-04-22T12:23:36Z</time></trkpt><trkpt lat="35.67667863917714" lon="-5.930378864238824"><ele>20.333333333333336</ele><time>2026-04-22T12:23:37Z</time></trkpt><trkpt lat="35.67658106964326" lon="-5.930531389633664"><ele>20.666666666666668</ele><time>2026-04-22T12:23:38Z</time></trkpt><trkpt lat="35.67647769817957" lon="-5.930688122450334"><ele>21.0</ele><time>2026-04-22T12:23:39Z</time></trkpt><trkpt lat="35.676372761744744" lon="-5.9308500034733305"><ele>21.0</ele><time>2026-04-22T12:23:40Z</time></trkpt><trkpt lat="35.676262551061136" lon="-5.931018387308812"><ele>21.0</ele><time>2026-04-22T12:23:41Z</time></trkpt><trkpt lat="35.67614871662911" lon="-5.931192008612534"><ele>21.0</ele><time>2026-04-22T12:23:42Z</time></trkpt><trkpt lat="35.676027458991975" lon="-5.931375440455032"><ele>21.0</ele><time>2026-04-22T12:23:43Z</time></trkpt><trkpt lat="35.675897156761984" lon="-5.931567804935405"><ele>21.0</ele><time>2026-04-22T12:23:44Z</time></trkpt><trkpt lat="35.67576280445548" lon="-5.931768131803723"><ele>21.0</ele><time>2026-04-22T12:23:45Z</time></trkpt><trkpt lat="35.675621314778354" lon="-5.931971052511049"><ele>20.5</ele><time>2026-04-22T12:23:46Z</time></trkpt><trkpt lat="35.6754730726022" lon="-5.932175697566454"><ele>20.0</ele><time>2026-04-22T12:23:47Z</time></trkpt><trkpt lat="35.67532093113987" lon="-5.9323855827671945"><ele>20.0</ele><time>2026-04-22T12:23:48Z</time></trkpt><trkpt lat="35.67516234989728" lon="-5.932599902946945"><ele>20.0</ele><time>2026-04-22T12:23:49Z</time></trkpt><trkpt lat="35.674998740368466" lon="-5.932816894942594"><ele>20.0</ele><time>2026-04-22T12:23:50Z</time></trkpt><trkpt lat="35.674832970150746" lon="-5.933035120433859"><ele>20.0</ele><time>2026-04-22T12:23:51Z</time></trkpt><trkpt lat="35.67466005431005" lon="-5.9332590966591"><ele>20.5</ele><time>2026-04-22T12:23:52Z</time></trkpt><trkpt lat="35.674486127326794" lon="-5.933486810796627"><ele>21.0</ele><time>2026-04-22T12:23:53Z</time></trkpt><trkpt lat="35.67430748727967" lon="-5.93370628253406"><ele>22.0</ele><time>2026-04-22T12:23:54Z</time></trkpt><trkpt lat="35.67412586125288" lon="-5.933923959461274"><ele>23.0</ele><time>2026-04-22T12:23:55Z</time></trkpt><trkpt lat="35.673940449240014" lon="-5.9341380913926995"><ele>22.5</ele><time>2026-04-22T12:23:56Z</time></trkpt><trkpt lat="35.673752627325676" lon="-5.9343520430744805"><ele>22.0</ele><time>2026-04-22T12:23:57Z</time></trkpt><trkpt lat="35.673565524295945" lon="-5.934563988632263"><ele>23.5</ele><time>2026-04-22T12:23:58Z</time></trkpt><trkpt lat="35.673373187066716" lon="-5.934775208153882"><ele>25.0</ele><time>2026-04-22T12:23:59Z</time></trkpt><trkpt lat="35.673181979132295" lon="-5.934983078621094"><ele>24.0</ele><time>2026-04-22T12:24:00Z</time></trkpt><trkpt lat="35.67298847685167" lon="-5.935188388995266"><ele>23.0</ele><time>2026-04-22T12:24:01Z</time></trkpt><trkpt lat="35.67279407060034" lon="-5.935390736807664"><ele>22.0</ele><time>2026-04-22T12:24:02Z</time></trkpt><trkpt lat="35.67259940646445" lon="-5.935593640494288"><ele>21.0</ele><time>2026-04-22T12:24:03Z</time></trkpt><trkpt lat="35.6724042784671" lon="-5.935799773989943"><ele>23.0</ele><time>2026-04-22T12:24:04Z</time></trkpt><trkpt lat="35.67220643240139" lon="-5.93600646035284"><ele>25.0</ele><time>2026-04-22T12:24:05Z</time></trkpt><trkpt lat="35.67200405952419" lon="-5.936214916150621"><ele>23.0</ele><time>2026-04-22T12:24:06Z</time></trkpt><trkpt lat="35.67179873546399" lon="-5.936424702067406"><ele>21.0</ele><time>2026-04-22T12:24:07Z</time></trkpt><trkpt lat="35.67159566738355" lon="-5.936634593826428"><ele>21.5</ele><time>2026-04-22T12:24:08Z</time></trkpt><trkpt lat="35.671390981391816" lon="-5.9368460147203805"><ele>22.0</ele><time>2026-04-22T12:24:09Z</time></trkpt><trkpt lat="35.67118485644302" lon="-5.937058841128946"><ele>20.5</ele><time>2026-04-22T12:24:10Z</time></trkpt><trkpt lat="35.67097806882415" lon="-5.9372730452941935"><ele>19.0</ele><time>2026-04-22T12:24:11Z</time></trkpt><trkpt lat="35.67076965249386" lon="-5.9374871431660505"><ele>21.0</ele><time>2026-04-22T12:24:12Z</time></trkpt><trkpt lat="35.67055905345449" lon="-5.9377023379242315"><ele>23.0</ele><time>2026-04-22T12:24:13Z</time></trkpt><trkpt lat="35.67034508956219" lon="-5.937919688460884"><ele>23.0</ele><time>2026-04-22T12:24:14Z</time></trkpt><trkpt lat="35.67012678724339" lon="-5.938137653674166"><ele>23.0</ele><time>2026-04-22T12:24:15Z</time></trkpt><trkpt lat="35.669908449509954" lon="-5.938355814104821"><ele>25.0</ele><time>2026-04-22T12:24:16Z</time></trkpt><trkpt lat="35.669690844495506" lon="-5.938577973906107"><ele>27.0</ele><time>2026-04-22T12:24:17Z</time></trkpt><trkpt lat="35.66947147743228" lon="-5.9388006019886"><ele>27.0</ele><time>2026-04-22T12:24:18Z</time></trkpt><trkpt lat="35.66925411471986" lon="-5.939029819494044"><ele>27.0</ele><time>2026-04-22T12:24:19Z</time></trkpt><trkpt lat="35.66903032679303" lon="-5.93925608294164"><ele>27.0</ele><time>2026-04-22T12:24:20Z</time></trkpt><trkpt lat="35.668805206746605" lon="-5.939482962664129"><ele>27.0</ele><time>2026-04-22T12:24:21Z</time></trkpt><trkpt lat="35.66857851134771" lon="-5.939710004592486"><ele>26.0</ele><time>2026-04-22T12:24:22Z</time></trkpt><trkpt lat="35.668352592850525" lon="-5.939940836229485"><ele>25.0</ele><time>2026-04-22T12:24:23Z</time></trkpt><trkpt lat="35.66812795368036" lon="-5.940167242381512"><ele>25.0</ele><time>2026-04-22T12:24:24Z</time></trkpt><trkpt lat="35.6679089501179" lon="-5.940392421418267"><ele>25.0</ele><time>2026-04-22T12:24:25Z</time></trkpt><trkpt lat="35.66769112777346" lon="-5.940618116367913"><ele>25.0</ele><time>2026-04-22T12:24:26Z</time></trkpt><trkpt lat="35.66746912566438" lon="-5.940838411185796"><ele>25.0</ele><time>2026-04-22T12:24:27Z</time></trkpt><trkpt lat="35.66725049536771" lon="-5.941062693880253"><ele>25.0</ele><time>2026-04-22T12:24:28Z</time></trkpt><trkpt lat="35.66702740023726" lon="-5.9412809298732085"><ele>25.0</ele><time>2026-04-22T12:24:29Z</time></trkpt><trkpt lat="35.66680335706646" lon="-5.9414984653082765"><ele>24.0</ele><time>2026-04-22T12:24:30Z</time></trkpt><trkpt lat="35.66657940175455" lon="-5.941719229726395"><ele>23.0</ele><time>2026-04-22T12:24:31Z</time></trkpt><trkpt lat="35.6663545645741" lon="-5.941939207648429"><ele>23.0</ele><time>2026-04-22T12:24:32Z</time></trkpt><trkpt lat="35.66613350457986" lon="-5.942163993665279"><ele>23.0</ele><time>2026-04-22T12:24:33Z</time></trkpt><trkpt lat="35.66590685965929" lon="-5.942382438143435"><ele>22.5</ele><time>2026-04-22T12:24:34Z</time></trkpt><trkpt lat="35.66568186899196" lon="-5.942604886365063"><ele>22.0</ele><time>2026-04-22T12:24:35Z</time></trkpt><trkpt lat="35.66545522919" lon="-5.942826430905518"><ele>22.5</ele><time>2026-04-22T12:24:36Z</time></trkpt><trkpt lat="35.66523041429354" lon="-5.9430488331463955"><ele>23.0</ele><time>2026-04-22T12:24:37Z</time></trkpt><trkpt lat="35.665004910721976" lon="-5.943276566606788"><ele>21.5</ele><time>2026-04-22T12:24:38Z</time></trkpt><trkpt lat="35.664779060436636" lon="-5.9435046342518705"><ele>20.0</ele><time>2026-04-22T12:24:39Z</time></trkpt><trkpt lat="35.66455324076263" lon="-5.943732433767058"><ele>21.0</ele><time>2026-04-22T12:24:40Z</time></trkpt><trkpt lat="35.66432854429232" lon="-5.943956869337382"><ele>22.0</ele><time>2026-04-22T12:24:41Z</time></trkpt><trkpt lat="35.66410241434175" lon="-5.944186591666064"><ele>21.5</ele><time>2026-04-22T12:24:42Z</time></trkpt><trkpt lat="35.66387716027755" lon="-5.944414455792005"><ele>21.0</ele><time>2026-04-22T12:24:43Z</time></trkpt><trkpt lat="35.66365537569261" lon="-5.944640531776905"><ele>21.0</ele><time>2026-04-22T12:24:44Z</time></trkpt><trkpt lat="35.663431432324025" lon="-5.944867820033389"><ele>21.0</ele><time>2026-04-22T12:24:45Z</time></trkpt><trkpt lat="35.66320917883805" lon="-5.94509560099371"><ele>21.5</ele><time>2026-04-22T12:24:46Z</time></trkpt><trkpt lat="35.66298694833016" lon="-5.945324772836304"><ele>22.0</ele><time>2026-04-22T12:24:47Z</time></trkpt><trkpt lat="35.662763078916534" lon="-5.945552398209985"><ele>22.0</ele><time>2026-04-22T12:24:48Z</time></trkpt><trkpt lat="35.66253842586387" lon="-5.945781511662342"><ele>22.0</ele><time>2026-04-22T12:24:49Z</time></trkpt><trkpt lat="35.66231242750053" lon="-5.946004733338156"><ele>22.0</ele><time>2026-04-22T12:24:50Z</time></trkpt><trkpt lat="35.662088492904914" lon="-5.946230717811941"><ele>22.0</ele><time>2026-04-22T12:24:51Z</time></trkpt><trkpt lat="35.66186270601205" lon="-5.946458475436114"><ele>21.5</ele><time>2026-04-22T12:24:52Z</time></trkpt><trkpt lat="35.661639111736406" lon="-5.9466889218807735"><ele>21.0</ele><time>2026-04-22T12:24:53Z</time></trkpt><trkpt lat="35.66141473891654" lon="-5.946917348122533"><ele>21.0</ele><time>2026-04-22T12:24:54Z</time></trkpt><trkpt lat="35.661188505864594" lon="-5.9471470357753295"><ele>21.0</ele><time>2026-04-22T12:24:55Z</time></trkpt><trkpt lat="35.660962319575745" lon="-5.947375696366077"><ele>23.0</ele><time>2026-04-22T12:24:56.001Z</time></trkpt><trkpt lat="35.6607343572901" lon="-5.947601522691893"><ele>25.0</ele><time>2026-04-22T12:24:57.001Z</time></trkpt><trkpt lat="35.66051052477327" lon="-5.9478256662085895"><ele>25.0</ele><time>2026-04-22T12:24:58.001Z</time></trkpt><trkpt lat="35.660286673626146" lon="-5.948045958092956"><ele>25.0</ele><time>2026-04-22T12:24:59.001Z</time></trkpt><trkpt lat="35.660077258930244" lon="-5.948269017680528"><ele>25.5</ele><time>2026-04-22T12:25:00.001Z</time></trkpt><trkpt lat="35.65987133596686" lon="-5.948477215716558"><ele>26.0</ele><time>2026-04-22T12:25:01.001Z</time></trkpt><trkpt lat="35.65966916693868" lon="-5.948677297167921"><ele>26.0</ele><time>2026-04-22T12:25:02.001Z</time></trkpt><trkpt lat="35.65947346878386" lon="-5.948872727871398"><ele>26.0</ele><time>2026-04-22T12:25:03.001Z</time></trkpt><trkpt lat="35.65928343173378" lon="-5.9490621616579515"><ele>26.0</ele><time>2026-04-22T12:25:04.001Z</time></trkpt><trkpt lat="35.65909667752441" lon="-5.949251732860878"><ele>26.0</ele><time>2026-04-22T12:25:05.001Z</time></trkpt><trkpt lat="35.658915622526685" lon="-5.949437786282503"><ele>26.0</ele><time>2026-04-22T12:25:06.001Z</time></trkpt><trkpt lat="35.65873574744728" lon="-5.949619911971294"><ele>26.0</ele><time>2026-04-22T12:25:07.001Z</time></trkpt><trkpt lat="35.65855645448219" lon="-5.949799174141055"><ele>26.5</ele><time>2026-04-22T12:25:08.001Z</time></trkpt><trkpt lat="35.65837421220577" lon="-5.949982687668573"><ele>27.0</ele><time>2026-04-22T12:25:09.001Z</time></trkpt><trkpt lat="35.65818052815017" lon="-5.950171154857944"><ele>30.5</ele><time>2026-04-22T12:25:10Z</time></trkpt><trkpt lat="35.65798189078475" lon="-5.950365288707374"><ele>34.0</ele><time>2026-04-22T12:25:11Z</time></trkpt><trkpt lat="35.65777635807389" lon="-5.950570608942797"><ele>34.0</ele><time>2026-04-22T12:25:12Z</time></trkpt><trkpt lat="35.657567192555476" lon="-5.950788538944985"><ele>34.0</ele><time>2026-04-22T12:25:13Z</time></trkpt><trkpt lat="35.657352272100795" lon="-5.95100858600466"><ele>33.5</ele><time>2026-04-22T12:25:14Z</time></trkpt><trkpt lat="35.65713632682059" lon="-5.951229740705188"><ele>33.0</ele><time>2026-04-22T12:25:15Z</time></trkpt><trkpt lat="35.656918167449064" lon="-5.9514503749644305"><ele>32.5</ele><time>2026-04-22T12:25:16Z</time></trkpt><trkpt lat="35.656699605779096" lon="-5.951675418364788"><ele>32.0</ele><time>2026-04-22T12:25:17Z</time></trkpt><trkpt lat="35.656477167114495" lon="-5.9519002088547515"><ele>32.0</ele><time>2026-04-22T12:25:18Z</time></trkpt><trkpt lat="35.656252658197516" lon="-5.952124447083015"><ele>32.0</ele><time>2026-04-22T12:25:19Z</time></trkpt><trkpt lat="35.65602812562423" lon="-5.952351408387273"><ele>32.5</ele><time>2026-04-22T12:25:20Z</time></trkpt><trkpt lat="35.655803296236925" lon="-5.952578427410148"><ele>33.0</ele><time>2026-04-22T12:25:21Z</time></trkpt><trkpt lat="35.65557765188864" lon="-5.952805785761239"><ele>33.0</ele><time>2026-04-22T12:25:22Z</time></trkpt><trkpt lat="35.65535261991899" lon="-5.953034109835828"><ele>33.0</ele><time>2026-04-22T12:25:23Z</time></trkpt><trkpt lat="35.65512856194003" lon="-5.9532621552426574"><ele>32.5</ele><time>2026-04-22T12:25:24Z</time></trkpt><trkpt lat="35.65490320127081" lon="-5.953489662519694"><ele>32.0</ele><time>2026-04-22T12:25:25Z</time></trkpt><trkpt lat="35.654681784731316" lon="-5.953721518068742"><ele>32.0</ele><time>2026-04-22T12:25:26Z</time></trkpt><trkpt lat="35.654458232214196" lon="-5.953951424991024"><ele>32.0</ele><time>2026-04-22T12:25:27Z</time></trkpt><trkpt lat="35.6542369531872" lon="-5.954182708150979"><ele>29.0</ele><time>2026-04-22T12:25:28Z</time></trkpt><trkpt lat="35.65401494344425" lon="-5.954408798570964"><ele>26.0</ele><time>2026-04-22T12:25:29Z</time></trkpt><trkpt lat="35.65379197682237" lon="-5.9546362333347105"><ele>26.5</ele><time>2026-04-22T12:25:30Z</time></trkpt><trkpt lat="35.65356494238602" lon="-5.954857784267346"><ele>27.0</ele><time>2026-04-22T12:25:31Z</time></trkpt><trkpt lat="35.653337689445415" lon="-5.955073239515064"><ele>27.0</ele><time>2026-04-22T12:25:32Z</time></trkpt><trkpt lat="35.65310464329504" lon="-5.955284374286114"><ele>27.0</ele><time>2026-04-22T12:25:33Z</time></trkpt><trkpt lat="35.652869171048394" lon="-5.955493723754341"><ele>26.5</ele><time>2026-04-22T12:25:34Z</time></trkpt><trkpt lat="35.65262825344179" lon="-5.955694368101206"><ele>26.0</ele><time>2026-04-22T12:25:35Z</time></trkpt><trkpt lat="35.65238596877238" lon="-5.955892802551667"><ele>25.5</ele><time>2026-04-22T12:25:36Z</time></trkpt><trkpt lat="35.65213856683632" lon="-5.956079916131153"><ele>25.0</ele><time>2026-04-22T12:25:37Z</time></trkpt><trkpt lat="35.65188956385023" lon="-5.95626844049025"><ele>24.5</ele><time>2026-04-22T12:25:38Z</time></trkpt><trkpt lat="35.65163902843411" lon="-5.956454735364158"><ele>24.0</ele><time>2026-04-22T12:25:39Z</time></trkpt><trkpt lat="35.65138841644418" lon="-5.95663402601791"><ele>23.5</ele><time>2026-04-22T12:25:40Z</time></trkpt><trkpt lat="35.651133569004664" lon="-5.956808774121645"><ele>23.0</ele><time>2026-04-22T12:25:41Z</time></trkpt><trkpt lat="35.65087453206582" lon="-5.956967610609267"><ele>21.0</ele><time>2026-04-22T12:25:42Z</time></trkpt><trkpt lat="35.650617864671844" lon="-5.957123351361193"><ele>19.0</ele><time>2026-04-22T12:25:43Z</time></trkpt><trkpt lat="35.6503515854585" lon="-5.9572770135803035"><ele>17.0</ele><time>2026-04-22T12:25:44Z</time></trkpt><trkpt lat="35.65008920343017" lon="-5.957423609749645"><ele>15.0</ele><time>2026-04-22T12:25:45Z</time></trkpt><trkpt lat="35.64982336414556" lon="-5.957567169501511"><ele>13.0</ele><time>2026-04-22T12:25:46Z</time></trkpt><trkpt lat="35.6495548191342" lon="-5.95770732988677"><ele>11.0</ele><time>2026-04-22T12:25:47Z</time></trkpt><trkpt lat="35.64928799701057" lon="-5.957848563874073"><ele>9.5</ele><time>2026-04-22T12:25:48Z</time></trkpt><trkpt lat="35.64901620572353" lon="-5.957981791831998"><ele>8.0</ele><time>2026-04-22T12:25:49Z</time></trkpt><trkpt lat="35.648742978539445" lon="-5.958103700245643"><ele>6.5</ele><time>2026-04-22T12:25:50Z</time></trkpt><trkpt lat="35.64847025530322" lon="-5.9582193899847065"><ele>5.0</ele><time>2026-04-22T12:25:51Z</time></trkpt><trkpt lat="35.648196743842014" lon="-5.958333750615012"><ele>4.5</ele><time>2026-04-22T12:25:52Z</time></trkpt><trkpt lat="35.64792094614643" lon="-5.958443723973248"><ele>4.0</ele><time>2026-04-22T12:25:53Z</time></trkpt><trkpt lat="35.64764500108506" lon="-5.958550038544239"><ele>2.5</ele><time>2026-04-22T12:25:54Z</time></trkpt><trkpt lat="35.64736553042138" lon="-5.958647739048169"><ele>1.0</ele><time>2026-04-22T12:25:55Z</time></trkpt><trkpt lat="35.6470854507792" lon="-5.958741870123961"><ele>0.5</ele><time>2026-04-22T12:25:56Z</time></trkpt><trkpt lat="35.646804405977605" lon="-5.9588288260263385"><ele>0.0</ele><time>2026-04-22T12:25:57Z</time></trkpt><trkpt lat="35.646522286227714" lon="-5.958908101643738"><ele>0.0</ele><time>2026-04-22T12:25:58Z</time></trkpt><trkpt lat="35.646239974864585" lon="-5.958980470728022"><ele>0.0</ele><time>2026-04-22T12:25:59Z</time></trkpt><trkpt lat="35.645956183946026" lon="-5.95904740767505"><ele>0.5</ele><time>2026-04-22T12:26:00Z</time></trkpt><trkpt lat="35.64567130117772" lon="-5.959108968628478"><ele>1.0</ele><time>2026-04-22T12:26:01Z</time></trkpt><trkpt lat="35.64538551032352" lon="-5.959168593310846"><ele>1.5</ele><time>2026-04-22T12:26:02Z</time></trkpt><trkpt lat="35.64509905425195" lon="-5.959227399261335"><ele>2.0</ele><time>2026-04-22T12:26:03Z</time></trkpt><trkpt lat="35.64481249282653" lon="-5.959283037228477"><ele>2.0</ele><time>2026-04-22T12:26:04Z</time></trkpt><trkpt lat="35.644524914979506" lon="-5.959340145066515"><ele>2.0</ele><time>2026-04-22T12:26:05Z</time></trkpt><trkpt lat="35.644238868759096" lon="-5.959397231991484"><ele>2.5</ele><time>2026-04-22T12:26:06Z</time></trkpt><trkpt lat="35.64395183726326" lon="-5.959448842041687"><ele>3.0</ele><time>2026-04-22T12:26:07Z</time></trkpt><trkpt lat="35.6436630182235" lon="-5.95950078802112"><ele>2.5</ele><time>2026-04-22T12:26:08Z</time></trkpt><trkpt lat="35.64337497510498" lon="-5.959551147623974"><ele>2.0</ele><time>2026-04-22T12:26:09Z</time></trkpt><trkpt lat="35.64308763490095" lon="-5.959604305121252"><ele>2.0</ele><time>2026-04-22T12:26:10Z</time></trkpt><trkpt lat="35.64279877533205" lon="-5.959655422444167"><ele>2.0</ele><time>2026-04-22T12:26:11Z</time></trkpt><trkpt lat="35.64251039758187" lon="-5.959705036396189"><ele>3.0</ele><time>2026-04-22T12:26:12Z</time></trkpt><trkpt lat="35.642222543413986" lon="-5.959757698586021"><ele>4.0</ele><time>2026-04-22T12:26:13Z</time></trkpt><trkpt lat="35.641934279123404" lon="-5.959808601514869"><ele>4.0</ele><time>2026-04-22T12:26:14Z</time></trkpt><trkpt lat="35.64164553432341" lon="-5.959861341085948"><ele>4.0</ele><time>2026-04-22T12:26:15Z</time></trkpt><trkpt lat="35.64135614051745" lon="-5.959911674790683"><ele>3.5</ele><time>2026-04-22T12:26:16Z</time></trkpt><trkpt lat="35.64106743122475" lon="-5.959962765592554"><ele>3.0</ele><time>2026-04-22T12:26:17Z</time></trkpt><trkpt lat="35.64077916791034" lon="-5.960011723677207"><ele>3.5</ele><time>2026-04-22T12:26:18Z</time></trkpt><trkpt lat="35.64049045369219" lon="-5.960066462802551"><ele>4.0</ele><time>2026-04-22T12:26:19Z</time></trkpt><trkpt lat="35.640203257561275" lon="-5.9601229719436155"><ele>4.0</ele><time>2026-04-22T12:26:20Z</time></trkpt><trkpt lat="35.63991408174554" lon="-5.960177569378684"><ele>4.0</ele><time>2026-04-22T12:26:21Z</time></trkpt><trkpt lat="35.63962541529769" lon="-5.9602350896003005"><ele>2.5</ele><time>2026-04-22T12:26:22Z</time></trkpt><trkpt lat="35.63933546614147" lon="-5.960289873464681"><ele>1.0</ele><time>2026-04-22T12:26:23Z</time></trkpt><trkpt lat="35.63904664856268" lon="-5.960342405163397"><ele>1.0</ele><time>2026-04-22T12:26:24Z</time></trkpt><trkpt lat="35.63875929511222" lon="-5.960394545311325"><ele>1.0</ele><time>2026-04-22T12:26:25Z</time></trkpt><trkpt lat="35.63847087170987" lon="-5.960448576003096"><ele>0.0</ele><time>2026-04-22T12:26:26Z</time></trkpt><trkpt lat="35.63818302525398" lon="-5.960501656928574"><ele>-1.0</ele><time>2026-04-22T12:26:27Z</time></trkpt><trkpt lat="35.63789470147155" lon="-5.960552621338051"><ele>0.0</ele><time>2026-04-22T12:26:28Z</time></trkpt><trkpt lat="35.637607959540475" lon="-5.960602223309824"><ele>1.0</ele><time>2026-04-22T12:26:29Z</time></trkpt><trkpt lat="35.6373189540738" lon="-5.9606522350999604"><ele>1.0</ele><time>2026-04-22T12:26:30Z</time></trkpt><trkpt lat="35.63703106224803" lon="-5.960700669197588"><ele>1.0</ele><time>2026-04-22T12:26:31Z</time></trkpt><trkpt lat="35.6367419063085" lon="-5.960749435396395"><ele>1.5</ele><time>2026-04-22T12:26:32Z</time></trkpt><trkpt lat="35.63645280067" lon="-5.960794222432635"><ele>2.0</ele><time>2026-04-22T12:26:33Z</time></trkpt><trkpt lat="35.63616338980097" lon="-5.960836429717031"><ele>2.0</ele><time>2026-04-22T12:26:34Z</time></trkpt><trkpt lat="35.63587383731982" lon="-5.960872682637451"><ele>2.0</ele><time>2026-04-22T12:26:35Z</time></trkpt><trkpt lat="35.6355847195916" lon="-5.960900339317419"><ele>3.0</ele><time>2026-04-22T12:26:36Z</time></trkpt><trkpt lat="35.6352951474215" lon="-5.960918752976263"><ele>4.0</ele><time>2026-04-22T12:26:37Z</time></trkpt><trkpt lat="35.63500498171032" lon="-5.960925404130739"><ele>4.0</ele><time>2026-04-22T12:26:38Z</time></trkpt><trkpt lat="35.63471683432483" lon="-5.960935736631593"><ele>4.0</ele><time>2026-04-22T12:26:39Z</time></trkpt><trkpt lat="35.6344274637317" lon="-5.960937447892821"><ele>5.5</ele><time>2026-04-22T12:26:40Z</time></trkpt><trkpt lat="35.63413993612779" lon="-5.960928879240427"><ele>7.0</ele><time>2026-04-22T12:26:41Z</time></trkpt><trkpt lat="35.633851117384474" lon="-5.9609182103423946"><ele>9.5</ele><time>2026-04-22T12:26:42Z</time></trkpt><trkpt lat="35.63356248888187" lon="-5.960905491607164"><ele>12.0</ele><time>2026-04-22T12:26:43Z</time></trkpt><trkpt lat="35.633273254009964" lon="-5.960884905997628"><ele>12.0</ele><time>2026-04-22T12:26:44Z</time></trkpt><trkpt lat="35.63298434038385" lon="-5.96086135037856"><ele>12.0</ele><time>2026-04-22T12:26:45Z</time></trkpt><trkpt lat="35.63269496282955" lon="-5.960831891743446"><ele>12.0</ele><time>2026-04-22T12:26:46Z</time></trkpt><trkpt lat="35.6324076340404" lon="-5.960793825689782"><ele>12.0</ele><time>2026-04-22T12:26:47Z</time></trkpt><trkpt lat="35.63211953567602" lon="-5.960749325389176"><ele>15.5</ele><time>2026-04-22T12:26:48Z</time></trkpt><trkpt lat="35.6318318812889" lon="-5.96069860539822"><ele>19.0</ele><time>2026-04-22T12:26:49Z</time></trkpt><trkpt lat="35.63154611043662" lon="-5.9606450073704655"><ele>19.0</ele><time>2026-04-22T12:26:49.999Z</time></trkpt><trkpt lat="35.63126111154384" lon="-5.96058959273625"><ele>19.0</ele><time>2026-04-22T12:26:50.999Z</time></trkpt><trkpt lat="35.63099432807417" lon="-5.9605415063300216"><ele>18.0</ele><time>2026-04-22T12:26:51.999Z</time></trkpt><trkpt lat="35.6307375449873" lon="-5.960494015034896"><ele>17.0</ele><time>2026-04-22T12:26:52.999Z</time></trkpt><trkpt lat="35.630483793259394" lon="-5.960443515414631"><ele>13.5</ele><time>2026-04-22T12:26:53.999Z</time></trkpt><trkpt lat="35.63022411843826" lon="-5.960389538784432"><ele>10.0</ele><time>2026-04-22T12:26:54.999Z</time></trkpt><trkpt lat="35.62995690159118" lon="-5.960333706532641"><ele>10.0</ele><time>2026-04-22T12:26:55.999Z</time></trkpt><trkpt lat="35.62968246867269" lon="-5.960280557870653"><ele>10.0</ele><time>2026-04-22T12:26:56.999Z</time></trkpt><trkpt lat="35.62940435229208" lon="-5.960228422291643"><ele>13.0</ele><time>2026-04-22T12:26:57.999Z</time></trkpt><trkpt lat="35.62912354900513" lon="-5.960174093137154"><ele>16.0</ele><time>2026-04-22T12:26:58.999Z</time></trkpt><trkpt lat="35.62883966273882" lon="-5.96012678712589"><ele>24.0</ele><time>2026-04-22T12:26:59.999Z</time></trkpt><trkpt lat="35.628554700501724" lon="-5.960079600381527"><ele>32.0</ele><time>2026-04-22T12:27:00.999Z</time></trkpt><trkpt lat="35.62826880459489" lon="-5.960025284435867"><ele>32.0</ele><time>2026-04-22T12:27:02Z</time></trkpt><trkpt lat="35.62798328208204" lon="-5.959972335049499"><ele>32.0</ele><time>2026-04-22T12:27:03Z</time></trkpt><trkpt lat="35.627697390875944" lon="-5.959920012583517"><ele>38.5</ele><time>2026-04-22T12:27:04Z</time></trkpt><trkpt lat="35.62740930542305" lon="-5.959872069863687"><ele>45.0</ele><time>2026-04-22T12:27:05Z</time></trkpt><trkpt lat="35.62712157179384" lon="-5.959822817900933"><ele>48.5</ele><time>2026-04-22T12:27:06Z</time></trkpt><trkpt lat="35.626834835304464" lon="-5.959770433100595"><ele>52.0</ele><time>2026-04-22T12:27:07Z</time></trkpt><trkpt lat="35.626546178617446" lon="-5.959718566137117"><ele>52.0</ele><time>2026-04-22T12:27:08Z</time></trkpt><trkpt lat="35.62625818022576" lon="-5.959666643483024"><ele>52.0</ele><time>2026-04-22T12:27:09Z</time></trkpt><trkpt lat="35.62596894704646" lon="-5.959613733451829"><ele>53.0</ele><time>2026-04-22T12:27:10Z</time></trkpt><trkpt lat="35.62568000756589" lon="-5.959562004384668"><ele>54.0</ele><time>2026-04-22T12:27:11Z</time></trkpt><trkpt lat="35.62539000153969" lon="-5.959511528347163"><ele>55.5</ele><time>2026-04-22T12:27:12Z</time></trkpt><trkpt lat="35.625101606362755" lon="-5.959466884888963"><ele>57.0</ele><time>2026-04-22T12:27:13Z</time></trkpt><trkpt lat="35.62481156261411" lon="-5.959427869853851"><ele>57.0</ele><time>2026-04-22T12:27:14Z</time></trkpt><trkpt lat="35.62452021580658" lon="-5.959395598582601"><ele>57.0</ele><time>2026-04-22T12:27:15Z</time></trkpt><trkpt lat="35.62422946660011" lon="-5.9593680296397755"><ele>58.5</ele><time>2026-04-22T12:27:16Z</time></trkpt><trkpt lat="35.62393793441889" lon="-5.959344221024518"><ele>60.0</ele><time>2026-04-22T12:27:17Z</time></trkpt><trkpt lat="35.623648954668" lon="-5.959328533550458"><ele>60.0</ele><time>2026-04-22T12:27:18Z</time></trkpt><trkpt lat="35.62335890850105" lon="-5.959316474705908"><ele>60.0</ele><time>2026-04-22T12:27:19Z</time></trkpt><trkpt lat="35.62306755652361" lon="-5.959309115090155"><ele>59.5</ele><time>2026-04-22T12:27:20Z</time></trkpt><trkpt lat="35.62277605402578" lon="-5.959305163483489"><ele>59.0</ele><time>2026-04-22T12:27:21Z</time></trkpt><trkpt lat="35.62248351392407" lon="-5.9593071198190755"><ele>59.0</ele><time>2026-04-22T12:27:22Z</time></trkpt><trkpt lat="35.62219239470631" lon="-5.959320024976938"><ele>59.0</ele><time>2026-04-22T12:27:23Z</time></trkpt><trkpt lat="35.62190156874192" lon="-5.9593409965675095"><ele>58.5</ele><time>2026-04-22T12:27:24Z</time></trkpt><trkpt lat="35.62162546435798" lon="-5.959367466430474"><ele>58.0</ele><time>2026-04-22T12:27:25Z</time></trkpt><trkpt lat="35.621348367721495" lon="-5.959397884243205"><ele>54.5</ele><time>2026-04-22T12:27:26Z</time></trkpt><trkpt lat="35.62107683062219" lon="-5.959435494373551"><ele>51.0</ele><time>2026-04-22T12:27:27Z</time></trkpt><trkpt lat="35.620809613131804" lon="-5.9594767583573995"><ele>51.0</ele><time>2026-04-22T12:27:28Z</time></trkpt><trkpt lat="35.62054103164636" lon="-5.959521873046918"><ele>51.0</ele><time>2026-04-22T12:27:29Z</time></trkpt><trkpt lat="35.62026775907388" lon="-5.959578969244339"><ele>50.0</ele><time>2026-04-22T12:27:30Z</time></trkpt><trkpt lat="35.61999082717282" lon="-5.959641367749422"><ele>49.0</ele><time>2026-04-22T12:27:31Z</time></trkpt><trkpt lat="35.61971464965241" lon="-5.959712913154764"><ele>47.5</ele><time>2026-04-22T12:27:32Z</time></trkpt><trkpt lat="35.61943819228019" lon="-5.959786889909651"><ele>46.0</ele><time>2026-04-22T12:27:33Z</time></trkpt><trkpt lat="35.619169154759014" lon="-5.959862270375759"><ele>46.0</ele><time>2026-04-22T12:27:34Z</time></trkpt><trkpt lat="35.61890228303606" lon="-5.959941717877386"><ele>46.0</ele><time>2026-04-22T12:27:35Z</time></trkpt><trkpt lat="35.61864107521775" lon="-5.960020730071754"><ele>46.5</ele><time>2026-04-22T12:27:36Z</time></trkpt><trkpt lat="35.61838204216221" lon="-5.960100917962862"><ele>47.0</ele><time>2026-04-22T12:27:37Z</time></trkpt><trkpt lat="35.61812743827657" lon="-5.960176841709367"><ele>47.0</ele><time>2026-04-22T12:27:38Z</time></trkpt><trkpt lat="35.61787418637197" lon="-5.960251751035663"><ele>47.0</ele><time>2026-04-22T12:27:39Z</time></trkpt><trkpt lat="35.617625276653214" lon="-5.960320467439766"><ele>47.5</ele><time>2026-04-22T12:27:40Z</time></trkpt><trkpt lat="35.617377492998436" lon="-5.96039231580967"><ele>48.0</ele><time>2026-04-22T12:27:41Z</time></trkpt><trkpt lat="35.617128204918174" lon="-5.960462292914959"><ele>47.5</ele><time>2026-04-22T12:27:42Z</time></trkpt><trkpt lat="35.61687799519628" lon="-5.960531077745443"><ele>47.0</ele><time>2026-04-22T12:27:43Z</time></trkpt><trkpt lat="35.6166300664472" lon="-5.960598252207056"><ele>47.0</ele><time>2026-04-22T12:27:44Z</time></trkpt><trkpt lat="35.61638378044602" lon="-5.960667178308183"><ele>47.0</ele><time>2026-04-22T12:27:45Z</time></trkpt><trkpt lat="35.61613694364229" lon="-5.9607372979480875"><ele>48.5</ele><time>2026-04-22T12:27:46Z</time></trkpt><trkpt lat="35.615888723059854" lon="-5.960802552105285"><ele>50.0</ele><time>2026-04-22T12:27:47Z</time></trkpt><trkpt lat="35.615639918455216" lon="-5.960865522114508"><ele>49.5</ele><time>2026-04-22T12:27:48Z</time></trkpt><trkpt lat="35.61539145778405" lon="-5.96092452326653"><ele>49.0</ele><time>2026-04-22T12:27:49Z</time></trkpt><trkpt lat="35.61514251700632" lon="-5.960982085779018"><ele>51.0</ele><time>2026-04-22T12:27:50Z</time></trkpt><trkpt lat="35.614893117322715" lon="-5.961036383736831"><ele>53.0</ele><time>2026-04-22T12:27:51Z</time></trkpt><trkpt lat="35.61463829117732" lon="-5.961089263746202"><ele>52.5</ele><time>2026-04-22T12:27:52Z</time></trkpt><trkpt lat="35.61437277381785" lon="-5.961141008332466"><ele>52.0</ele><time>2026-04-22T12:27:53Z</time></trkpt><trkpt lat="35.61409822248405" lon="-5.961192601332937"><ele>52.0</ele><time>2026-04-22T12:27:54Z</time></trkpt><trkpt lat="35.61381801082259" lon="-5.961242511834735"><ele>52.0</ele><time>2026-04-22T12:27:55Z</time></trkpt><trkpt lat="35.613535156326584" lon="-5.961289792113934"><ele>51.5</ele><time>2026-04-22T12:27:56Z</time></trkpt><trkpt lat="35.61325211458611" lon="-5.961340111451385"><ele>51.0</ele><time>2026-04-22T12:27:57Z</time></trkpt><trkpt lat="35.61296737771959" lon="-5.961385363128947"><ele>51.0</ele><time>2026-04-22T12:27:58Z</time></trkpt><trkpt lat="35.61268190200951" lon="-5.961428187568161"><ele>51.0</ele><time>2026-04-22T12:27:59Z</time></trkpt><trkpt lat="35.61239326313643" lon="-5.961461671678064"><ele>51.0</ele><time>2026-04-22T12:28:00Z</time></trkpt><trkpt lat="35.61210590611297" lon="-5.961496659011811"><ele>51.0</ele><time>2026-04-22T12:28:00.999Z</time></trkpt><trkpt lat="35.61181620026456" lon="-5.961530561068434"><ele>52.0</ele><time>2026-04-22T12:28:01.999Z</time></trkpt><trkpt lat="35.6115266166288" lon="-5.961562430640826"><ele>53.0</ele><time>2026-04-22T12:28:02.999Z</time></trkpt><trkpt lat="35.61123724413796" lon="-5.961587901709329"><ele>52.0</ele><time>2026-04-22T12:28:03.999Z</time></trkpt><trkpt lat="35.61094720967066" lon="-5.961606317120394"><ele>51.0</ele><time>2026-04-22T12:28:04.999Z</time></trkpt><trkpt lat="35.6106573721788" lon="-5.961627451851581"><ele>51.0</ele><time>2026-04-22T12:28:05.999Z</time></trkpt><trkpt lat="35.610365754440785" lon="-5.961646222227399"><ele>51.0</ele><time>2026-04-22T12:28:06.999Z</time></trkpt><trkpt lat="35.61007423200706" lon="-5.96165616042318"><ele>49.0</ele><time>2026-04-22T12:28:07.999Z</time></trkpt><trkpt lat="35.60978407927791" lon="-5.961664718105034"><ele>47.0</ele><time>2026-04-22T12:28:08.999Z</time></trkpt><trkpt lat="35.60949312125391" lon="-5.961671636484645"><ele>40.5</ele><time>2026-04-22T12:28:09.999Z</time></trkpt><trkpt lat="35.609202179383914" lon="-5.961679747874381"><ele>34.0</ele><time>2026-04-22T12:28:10.999Z</time></trkpt><trkpt lat="35.608910660274674" lon="-5.961681987074613"><ele>27.0</ele><time>2026-04-22T12:28:11.999Z</time></trkpt><trkpt lat="35.6086193655006" lon="-5.961683330167015"><ele>20.0</ele><time>2026-04-22T12:28:12.999Z</time></trkpt><trkpt lat="35.60832846662223" lon="-5.961680495698172"><ele>20.0</ele><time>2026-04-22T12:28:13.999Z</time></trkpt><trkpt lat="35.608038561181715" lon="-5.96167898504848"><ele>20.0</ele><time>2026-04-22T12:28:14.999Z</time></trkpt><trkpt lat="35.60774811973167" lon="-5.961676794880687"><ele>13.5</ele><time>2026-04-22T12:28:15.999Z</time></trkpt><trkpt lat="35.60745822134482" lon="-5.961671447333836"><ele>7.0</ele><time>2026-04-22T12:28:16.999Z</time></trkpt><trkpt lat="35.60716854614696" lon="-5.961665678689895"><ele>4.5</ele><time>2026-04-22T12:28:17.999Z</time></trkpt><trkpt lat="35.60687829634369" lon="-5.961661821109365"><ele>2.0</ele><time>2026-04-22T12:28:18.999Z</time></trkpt><trkpt lat="35.606587938804914" lon="-5.9616574775451"><ele>2.0</ele><time>2026-04-22T12:28:19.999Z</time></trkpt><trkpt lat="35.60629846709147" lon="-5.96165204321944"><ele>2.0</ele><time>2026-04-22T12:28:20.999Z</time></trkpt><trkpt lat="35.60600996942192" lon="-5.961645803862735"><ele>2.0</ele><time>2026-04-22T12:28:21.999Z</time></trkpt><trkpt lat="35.60573644094725" lon="-5.961640884253449"><ele>2.0</ele><time>2026-04-22T12:28:22.999Z</time></trkpt><trkpt lat="35.60547003849173" lon="-5.96163322070804"><ele>2.5</ele><time>2026-04-22T12:28:23.999Z</time></trkpt><trkpt lat="35.60520853553253" lon="-5.961633873340466"><ele>3.0</ele><time>2026-04-22T12:28:24.999Z</time></trkpt><trkpt lat="35.60494387881019" lon="-5.961624390122983"><ele>3.0</ele><time>2026-04-22T12:28:25.999Z</time></trkpt><trkpt lat="35.60468090803014" lon="-5.961613389919707"><ele>3.0</ele><time>2026-04-22T12:28:26.999Z</time></trkpt><trkpt lat="35.604415050546784" lon="-5.961603975159935"><ele>2.5</ele><time>2026-04-22T12:28:27.999Z</time></trkpt><trkpt lat="35.60414288776212" lon="-5.9615930270058035"><ele>2.0</ele><time>2026-04-22T12:28:28.999Z</time></trkpt><trkpt lat="35.603866955645195" lon="-5.961584690041838"><ele>1.5</ele><time>2026-04-22T12:28:29.999Z</time></trkpt><trkpt lat="35.60358565417346" lon="-5.96157995853322"><ele>1.0</ele><time>2026-04-22T12:28:30.999Z</time></trkpt><trkpt lat="35.603302794783176" lon="-5.961576025874912"><ele>1.0</ele><time>2026-04-22T12:28:31.999Z</time></trkpt><trkpt lat="35.603016613057505" lon="-5.961572296196752"><ele>1.0</ele><time>2026-04-22T12:28:32.999Z</time></trkpt><trkpt lat="35.602734350781404" lon="-5.961568020460866"><ele>2.5</ele><time>2026-04-22T12:28:33.999Z</time></trkpt><trkpt lat="35.60245185293316" lon="-5.9615659900932565"><ele>4.0</ele><time>2026-04-22T12:28:34.999Z</time></trkpt><trkpt lat="35.60216891323325" lon="-5.961563341560042"><ele>3.5</ele><time>2026-04-22T12:28:35.999Z</time></trkpt><trkpt lat="35.60188467544513" lon="-5.961559729624533"><ele>3.0</ele><time>2026-04-22T12:28:36.999Z</time></trkpt><trkpt lat="35.60159562658924" lon="-5.9615596688736705"><ele>3.0</ele><time>2026-04-22T12:28:37.999Z</time></trkpt><trkpt lat="35.60130126971894" lon="-5.961552556119273"><ele>3.0</ele><time>2026-04-22T12:28:38.999Z</time></trkpt><trkpt lat="35.60100893104563" lon="-5.961546076909073"><ele>1.0</ele><time>2026-04-22T12:28:39.999Z</time></trkpt><trkpt lat="35.600714860063526" lon="-5.961539047523755"><ele>-1.0</ele><time>2026-04-22T12:28:40.999Z</time></trkpt><trkpt lat="35.60042180415779" lon="-5.961536014124336"><ele>-0.5</ele><time>2026-04-22T12:28:41.999Z</time></trkpt><trkpt lat="35.60013105292862" lon="-5.961533479021476"><ele>0.0</ele><time>2026-04-22T12:28:42.999Z</time></trkpt><trkpt lat="35.5998476561609" lon="-5.961532735506316"><ele>0.0</ele><time>2026-04-22T12:28:43.999Z</time></trkpt><trkpt lat="35.59957065174523" lon="-5.961533069254264"><ele>0.0</ele><time>2026-04-22T12:28:44.999Z</time></trkpt><trkpt lat="35.59929513466673" lon="-5.961538945020225"><ele>0.0</ele><time>2026-04-22T12:28:45.999Z</time></trkpt><trkpt lat="35.59902212026095" lon="-5.961543104514003"><ele>0.0</ele><time>2026-04-22T12:28:46.999Z</time></trkpt><trkpt lat="35.59875161036872" lon="-5.961545291580211"><ele>-0.5</ele><time>2026-04-22T12:28:47.999Z</time></trkpt><trkpt lat="35.598485501548986" lon="-5.961546777767675"><ele>-1.0</ele><time>2026-04-22T12:28:48.999Z</time></trkpt><trkpt lat="35.59821842694126" lon="-5.961545391282884"><ele>-1.0</ele><time>2026-04-22T12:28:49.999Z</time></trkpt><trkpt lat="35.59795501966264" lon="-5.9615440801108015"><ele>-1.0</ele><time>2026-04-22T12:28:50.999Z</time></trkpt><trkpt lat="35.59769387524242" lon="-5.961538916933729"><ele>-2.0</ele><time>2026-04-22T12:28:51.999Z</time></trkpt><trkpt lat="35.59743564742234" lon="-5.961534545028376"><ele>-3.0</ele><time>2026-04-22T12:28:52.999Z</time></trkpt><trkpt lat="35.59718145071116" lon="-5.961528286527002"><ele>-2.5</ele><time>2026-04-22T12:28:53.999Z</time></trkpt><trkpt lat="35.59693094537286" lon="-5.96152668032765"><ele>-2.0</ele><time>2026-04-22T12:28:54.999Z</time></trkpt><trkpt lat="35.59668332242517" lon="-5.961527074254152"><ele>-2.0</ele><time>2026-04-22T12:28:55.999Z</time></trkpt><trkpt lat="35.596439575035625" lon="-5.961526806203386"><ele>-2.0</ele><time>2026-04-22T12:28:56.999Z</time></trkpt><trkpt lat="35.59619905807387" lon="-5.9615249594941595"><ele>7.0</ele><time>2026-04-22T12:28:57.999Z</time></trkpt><trkpt lat="35.595961217096466" lon="-5.961523373097583"><ele>16.0</ele><time>2026-04-22T12:28:58.999Z</time></trkpt><trkpt lat="35.59573046069053" lon="-5.9615171052951395"><ele>16.0</ele><time>2026-04-22T12:28:59.999Z</time></trkpt><trkpt lat="35.595497101788816" lon="-5.96151311201817"><ele>16.0</ele><time>2026-04-22T12:29:00.999Z</time></trkpt><trkpt lat="35.59526492637125" lon="-5.961505269590762"><ele>19.5</ele><time>2026-04-22T12:29:01.999Z</time></trkpt><trkpt lat="35.59503565227461" lon="-5.961498003260908"><ele>23.0</ele><time>2026-04-22T12:29:02.999Z</time></trkpt><trkpt lat="35.59480463941007" lon="-5.9614820951649845"><ele>23.0</ele><time>2026-04-22T12:29:03.999Z</time></trkpt><trkpt lat="35.594575703399904" lon="-5.961459757015582"><ele>23.0</ele><time>2026-04-22T12:29:04.999Z</time></trkpt><trkpt lat="35.594343454135014" lon="-5.961430796956536"><ele>18.0</ele><time>2026-04-22T12:29:05.999Z</time></trkpt><trkpt lat="35.594113390843376" lon="-5.961394687719847"><ele>13.0</ele><time>2026-04-22T12:29:06.999Z</time></trkpt><trkpt lat="35.593885107722954" lon="-5.961351771888948"><ele>11.5</ele><time>2026-04-22T12:29:08Z</time></trkpt><trkpt lat="35.593656807802915" lon="-5.961300866923836"><ele>10.0</ele><time>2026-04-22T12:29:09Z</time></trkpt><trkpt lat="35.59343050599365" lon="-5.961242293154325"><ele>10.0</ele><time>2026-04-22T12:29:10Z</time></trkpt><trkpt lat="35.59320705165665" lon="-5.961175761919623"><ele>10.0</ele><time>2026-04-22T12:29:11Z</time></trkpt><trkpt lat="35.5929857066866" lon="-5.961103331201173"><ele>8.0</ele><time>2026-04-22T12:29:12Z</time></trkpt><trkpt lat="35.5927665506488" lon="-5.961025606969755"><ele>6.0</ele><time>2026-04-22T12:29:13Z</time></trkpt><trkpt lat="35.592550767101436" lon="-5.960941644452167"><ele>7.0</ele><time>2026-04-22T12:29:14Z</time></trkpt><trkpt lat="35.59233947185512" lon="-5.960852034004058"><ele>8.0</ele><time>2026-04-22T12:29:15Z</time></trkpt><trkpt lat="35.592129677839495" lon="-5.9607539821290185"><ele>9.0</ele><time>2026-04-22T12:29:16Z</time></trkpt><trkpt lat="35.591922526121515" lon="-5.960651708662657"><ele>9.0</ele><time>2026-04-22T12:29:17Z</time></trkpt><trkpt lat="35.591721489108636" lon="-5.960543193876412"><ele>9.0</ele><time>2026-04-22T12:29:18Z</time></trkpt><trkpt lat="35.591525421540844" lon="-5.960431182975261"><ele>9.0</ele><time>2026-04-22T12:29:19Z</time></trkpt><trkpt lat="35.59133093497874" lon="-5.960315164848635"><ele>8.666666666666666</ele><time>2026-04-22T12:29:20Z</time></trkpt><trkpt lat="35.5911438265139" lon="-5.960194920529582"><ele>8.333333333333332</ele><time>2026-04-22T12:29:21Z</time></trkpt><trkpt lat="35.59097059483995" lon="-5.960078250282638"><ele>8.0</ele><time>2026-04-22T12:29:22Z</time></trkpt><trkpt lat="35.59080738786615" lon="-5.959961324720536"><ele>8.0</ele><time>2026-04-22T12:29:23Z</time></trkpt><trkpt lat="35.590653371340814" lon="-5.959848553317625"><ele>8.0</ele><time>2026-04-22T12:29:24Z</time></trkpt><trkpt lat="35.590506289749804" lon="-5.959737318957106"><ele>8.0</ele><time>2026-04-22T12:29:25Z</time></trkpt><trkpt lat="35.590365808605426" lon="-5.959625903533931"><ele>6.0</ele><time>2026-04-22T12:29:26Z</time></trkpt><trkpt lat="35.590228758549806" lon="-5.959510148932961"><ele>4.0</ele><time>2026-04-22T12:29:27Z</time></trkpt><trkpt lat="35.59009479429177" lon="-5.9593938931566655"><ele>2.0</ele><time>2026-04-22T12:29:28Z</time></trkpt><trkpt lat="35.589964568635764" lon="-5.9592768599335"><ele>4.0</ele><time>2026-04-22T12:29:29Z</time></trkpt><trkpt lat="35.5898389995998" lon="-5.959168494809648"><ele>6.0</ele><time>2026-04-22T12:29:30Z</time></trkpt><trkpt lat="35.58972394736909" lon="-5.959063180250294"><ele>8.0</ele><time>2026-04-22T12:29:31Z</time></trkpt><trkpt lat="35.589617310696305" lon="-5.958963735742854"><ele>10.0</ele><time>2026-04-22T12:29:32Z</time></trkpt><trkpt lat="35.58951235885171" lon="-5.95886794499004"><ele>9.75</ele><time>2026-04-22T12:29:33Z</time></trkpt><trkpt lat="35.589409102937665" lon="-5.958776308072322"><ele>9.5</ele><time>2026-04-22T12:29:34Z</time></trkpt><trkpt lat="35.58930679597686" lon="-5.958684884030842"><ele>9.25</ele><time>2026-04-22T12:29:35Z</time></trkpt><trkpt lat="35.589204470934476" lon="-5.958592380228316"><ele>9.0</ele><time>2026-04-22T12:29:36Z</time></trkpt><trkpt lat="35.58909695998726" lon="-5.958497915053508"><ele>9.0</ele><time>2026-04-22T12:29:37Z</time></trkpt><trkpt lat="35.588989486891016" lon="-5.958410918410482"><ele>9.0</ele><time>2026-04-22T12:29:38Z</time></trkpt><trkpt lat="35.58888397095847" lon="-5.9583247586148955"><ele>9.0</ele><time>2026-04-22T12:29:39Z</time></trkpt><trkpt lat="35.5887808811899" lon="-5.95824114697589"><ele>9.0</ele><time>2026-04-22T12:29:40Z</time></trkpt><trkpt lat="35.588678512429475" lon="-5.958161488519295"><ele>14.5</ele><time>2026-04-22T12:29:41Z</time></trkpt><trkpt lat="35.58857258185065" lon="-5.9580819095354425"><ele>20.0</ele><time>2026-04-22T12:29:42Z</time></trkpt><trkpt lat="35.58846335678975" lon="-5.958004259573525"><ele>25.5</ele><time>2026-04-22T12:29:43Z</time></trkpt><trkpt lat="35.588350485353466" lon="-5.957925111065081"><ele>31.0</ele><time>2026-04-22T12:29:44Z</time></trkpt><trkpt lat="35.58823527339593" lon="-5.9578438698290785"><ele>31.0</ele><time>2026-04-22T12:29:45Z</time></trkpt><trkpt lat="35.58811452991193" lon="-5.957762041430498"><ele>31.0</ele><time>2026-04-22T12:29:46Z</time></trkpt><trkpt lat="35.58798983906655" lon="-5.957682299746108"><ele>31.0</ele><time>2026-04-22T12:29:47Z</time></trkpt><trkpt lat="35.58786258223871" lon="-5.957604585060376"><ele>31.0</ele><time>2026-04-22T12:29:48Z</time></trkpt><trkpt lat="35.58773489287272" lon="-5.9575272186069785"><ele>33.0</ele><time>2026-04-22T12:29:49Z</time></trkpt><trkpt lat="35.58760251355375" lon="-5.957452373865034"><ele>35.0</ele><time>2026-04-22T12:29:50Z</time></trkpt><trkpt lat="35.58746933617778" lon="-5.9573810522531625"><ele>37.0</ele><time>2026-04-22T12:29:51Z</time></trkpt><trkpt lat="35.58733617530477" lon="-5.957313324804029"><ele>39.0</ele><time>2026-04-22T12:29:52Z</time></trkpt><trkpt lat="35.58720115256998" lon="-5.957245924190427"><ele>39.0</ele><time>2026-04-22T12:29:53Z</time></trkpt><trkpt lat="35.587063998042844" lon="-5.957180311259823"><ele>39.0</ele><time>2026-04-22T12:29:54Z</time></trkpt><trkpt lat="35.58692370839828" lon="-5.957116656874297"><ele>39.0</ele><time>2026-04-22T12:29:55Z</time></trkpt><trkpt lat="35.58677988632574" lon="-5.957055590099635"><ele>39.0</ele><time>2026-04-22T12:29:56Z</time></trkpt><trkpt lat="35.58663513550134" lon="-5.956999623846211"><ele>38.0</ele><time>2026-04-22T12:29:57Z</time></trkpt><trkpt lat="35.58649031519283" lon="-5.9569444816935535"><ele>37.0</ele><time>2026-04-22T12:29:58Z</time></trkpt><trkpt lat="35.58634454904908" lon="-5.956889567021614"><ele>36.0</ele><time>2026-04-22T12:29:59Z</time></trkpt><trkpt lat="35.58619828289383" lon="-5.9568417116412125"><ele>36.666666666666664</ele><time>2026-04-22T12:30:00Z</time></trkpt><trkpt lat="35.586050152850184" lon="-5.956794348238609"><ele>37.33333333333333</ele><time>2026-04-22T12:30:01Z</time></trkpt><trkpt lat="35.58590246069708" lon="-5.956750890095495"><ele>38.0</ele><time>2026-04-22T12:30:02Z</time></trkpt><trkpt lat="35.58575596261041" lon="-5.956711870456048"><ele>39.5</ele><time>2026-04-22T12:30:02.999Z</time></trkpt><trkpt lat="35.585609629299654" lon="-5.956674334590141"><ele>41.0</ele><time>2026-04-22T12:30:03.999Z</time></trkpt><trkpt lat="35.58547058647797" lon="-5.9566124470865045"><ele>42.5</ele><time>2026-04-22T12:30:04.999Z</time></trkpt><trkpt lat="35.585328596255074" lon="-5.956569065727067"><ele>44.0</ele><time>2026-04-22T12:30:05.999Z</time></trkpt><trkpt lat="35.58517401101802" lon="-5.956583821140503"><ele>45.33333333333333</ele><time>2026-04-22T12:30:06.999Z</time></trkpt><trkpt lat="35.585023751353454" lon="-5.9565590984946875"><ele>46.666666666666664</ele><time>2026-04-22T12:30:07.999Z</time></trkpt><trkpt lat="35.584868750678076" lon="-5.956538140592409"><ele>48.0</ele><time>2026-04-22T12:30:08.999Z</time></trkpt><trkpt lat="35.5847106918223" lon="-5.956518535914608"><ele>48.0</ele><time>2026-04-22T12:30:09.999Z</time></trkpt><trkpt lat="35.584553267402356" lon="-5.9565030202630656"><ele>48.0</ele><time>2026-04-22T12:30:10.999Z</time></trkpt><trkpt lat="35.58439433597731" lon="-5.956489390633279"><ele>48.0</ele><time>2026-04-22T12:30:11.999Z</time></trkpt><trkpt lat="35.584234070785676" lon="-5.956479482497445"><ele>47.666666666666664</ele><time>2026-04-22T12:30:12.999Z</time></trkpt><trkpt lat="35.58407013831324" lon="-5.956471878666321"><ele>47.33333333333333</ele><time>2026-04-22T12:30:13.999Z</time></trkpt><trkpt lat="35.58390247000531" lon="-5.956470289912676"><ele>47.0</ele><time>2026-04-22T12:30:14.999Z</time></trkpt><trkpt lat="35.58373197781249" lon="-5.956471234436066"><ele>45.33333333333333</ele><time>2026-04-22T12:30:15.999Z</time></trkpt><trkpt lat="35.58355940915919" lon="-5.956479413677119"><ele>43.666666666666664</ele><time>2026-04-22T12:30:16.999Z</time></trkpt><trkpt lat="35.583381261489215" lon="-5.956491423840955"><ele>42.0</ele><time>2026-04-22T12:30:17.999Z</time></trkpt><trkpt lat="35.583201434419756" lon="-5.956507436507049"><ele>42.0</ele><time>2026-04-22T12:30:18.999Z</time></trkpt><trkpt lat="35.58302228649846" lon="-5.956527487547795"><ele>42.0</ele><time>2026-04-22T12:30:19.999Z</time></trkpt><trkpt lat="35.5828449789229" lon="-5.956551588044427"><ele>42.0</ele><time>2026-04-22T12:30:20.999Z</time></trkpt><trkpt lat="35.582665387591796" lon="-5.956580997951568"><ele>44.33333333333333</ele><time>2026-04-22T12:30:21.999Z</time></trkpt><trkpt lat="35.5824869683485" lon="-5.956612684450193"><ele>46.666666666666664</ele><time>2026-04-22T12:30:22.999Z</time></trkpt><trkpt lat="35.58230926628231" lon="-5.956649813010669"><ele>49.0</ele><time>2026-04-22T12:30:23.999Z</time></trkpt><trkpt lat="35.58213293406278" lon="-5.9566926642057085"><ele>52.0</ele><time>2026-04-22T12:30:24.999Z</time></trkpt><trkpt lat="35.58195379720914" lon="-5.956738503209636"><ele>55.0</ele><time>2026-04-22T12:30:25.999Z</time></trkpt><trkpt lat="35.581773571429075" lon="-5.956791540716851"><ele>58.0</ele><time>2026-04-22T12:30:26.999Z</time></trkpt><trkpt lat="35.58158789871583" lon="-5.956850921648115"><ele>58.0</ele><time>2026-04-22T12:30:27.999Z</time></trkpt><trkpt lat="35.58140026875164" lon="-5.956915660086749"><ele>58.0</ele><time>2026-04-22T12:30:28.999Z</time></trkpt><trkpt lat="35.581213149094765" lon="-5.956988990830487"><ele>58.0</ele><time>2026-04-22T12:30:29.999Z</time></trkpt><trkpt lat="35.58102402975454" lon="-5.957066949473201"><ele>59.666666666666664</ele><time>2026-04-22T12:30:30.999Z</time></trkpt><trkpt lat="35.580834857623685" lon="-5.9571471464311605"><ele>61.33333333333333</ele><time>2026-04-22T12:30:31.999Z</time></trkpt><trkpt lat="35.58064501475296" lon="-5.957229957095967"><ele>63.0</ele><time>2026-04-22T12:30:32.999Z</time></trkpt><trkpt lat="35.58045885157433" lon="-5.95732299833547"><ele>62.33333333333333</ele><time>2026-04-22T12:30:33.999Z</time></trkpt><trkpt lat="35.58027886539925" lon="-5.957418348255475"><ele>61.666666666666664</ele><time>2026-04-22T12:30:34.999Z</time></trkpt><trkpt lat="35.580107933781676" lon="-5.957513566577533"><ele>61.0</ele><time>2026-04-22T12:30:35.999Z</time></trkpt><trkpt lat="35.57994424401549" lon="-5.957610656315967"><ele>61.0</ele><time>2026-04-22T12:30:36.999Z</time></trkpt><trkpt lat="35.5797860857116" lon="-5.957711517519171"><ele>61.0</ele><time>2026-04-22T12:30:37.999Z</time></trkpt><trkpt lat="35.579625380180296" lon="-5.9578163736526335"><ele>61.0</ele><time>2026-04-22T12:30:38.999Z</time></trkpt><trkpt lat="35.579454354005115" lon="-5.9579312661665265"><ele>59.33333333333333</ele><time>2026-04-22T12:30:39.999Z</time></trkpt><trkpt lat="35.57928397685385" lon="-5.9580570162834166"><ele>57.66666666666667</ele><time>2026-04-22T12:30:40.999Z</time></trkpt><trkpt lat="35.57911709337736" lon="-5.958183355123595"><ele>56.0</ele><time>2026-04-22T12:30:41.999Z</time></trkpt><trkpt lat="35.578955520334304" lon="-5.95831072962865"><ele>56.66666666666667</ele><time>2026-04-22T12:30:42.999Z</time></trkpt><trkpt lat="35.57879787957988" lon="-5.958439564938764"><ele>57.33333333333333</ele><time>2026-04-22T12:30:43.999Z</time></trkpt><trkpt lat="35.57864631005307" lon="-5.958569820165653"><ele>58.0</ele><time>2026-04-22T12:30:44.999Z</time></trkpt><trkpt lat="35.57849682896538" lon="-5.958705554784408"><ele>58.0</ele><time>2026-04-22T12:30:45.999Z</time></trkpt><trkpt lat="35.57834906052728" lon="-5.958841926955363"><ele>58.0</ele><time>2026-04-22T12:30:46.999Z</time></trkpt><trkpt lat="35.578204811235096" lon="-5.958975863458188"><ele>58.0</ele><time>2026-04-22T12:30:47.999Z</time></trkpt><trkpt lat="35.578062256332316" lon="-5.959104001037285"><ele>58.0</ele><time>2026-04-22T12:30:48.999Z</time></trkpt><trkpt lat="35.577922303903435" lon="-5.95923195412591"><ele>58.0</ele><time>2026-04-22T12:30:49.999Z</time></trkpt><trkpt lat="35.57778366066025" lon="-5.959360900765839"><ele>58.0</ele><time>2026-04-22T12:30:50.999Z</time></trkpt><trkpt lat="35.57764372056607" lon="-5.959490657396289"><ele>58.0</ele><time>2026-04-22T12:30:51.999Z</time></trkpt><trkpt lat="35.577501736319746" lon="-5.959622974044368"><ele>58.0</ele><time>2026-04-22T12:30:52.999Z</time></trkpt><trkpt lat="35.577357747890204" lon="-5.959756058602168"><ele>58.0</ele><time>2026-04-22T12:30:53.999Z</time></trkpt><trkpt lat="35.57721416676575" lon="-5.959888290260105"><ele>58.0</ele><time>2026-04-22T12:30:54.999Z</time></trkpt><trkpt lat="35.57706916951232" lon="-5.960019148838025"><ele>58.0</ele><time>2026-04-22T12:30:55.999Z</time></trkpt><trkpt lat="35.576922203070836" lon="-5.960152568997088"><ele>58.0</ele><time>2026-04-22T12:30:56.999Z</time></trkpt><trkpt lat="35.57677281648112" lon="-5.960288629323595"><ele>59.0</ele><time>2026-04-22T12:30:57.999Z</time></trkpt><trkpt lat="35.57662164170533" lon="-5.96042771546207"><ele>60.0</ele><time>2026-04-22T12:30:58.999Z</time></trkpt><trkpt lat="35.57646930438126" lon="-5.960569453991102"><ele>61.0</ele><time>2026-04-22T12:30:59.999Z</time></trkpt><trkpt lat="35.57631557941798" lon="-5.960713938221514"><ele>60.666666666666664</ele><time>2026-04-22T12:31:00.999Z</time></trkpt><trkpt lat="35.57615964178744" lon="-5.9608585801663185"><ele>60.33333333333333</ele><time>2026-04-22T12:31:01.999Z</time></trkpt><trkpt lat="35.576001617711846" lon="-5.961004481853299"><ele>60.0</ele><time>2026-04-22T12:31:02.999Z</time></trkpt><trkpt lat="35.57584270978812" lon="-5.96115055465566"><ele>60.0</ele><time>2026-04-22T12:31:03.999Z</time></trkpt><trkpt lat="35.57568641751453" lon="-5.961295424465087"><ele>60.0</ele><time>2026-04-22T12:31:04.999Z</time></trkpt><trkpt lat="35.5755305876006" lon="-5.9614409563717095"><ele>60.0</ele><time>2026-04-22T12:31:05.999Z</time></trkpt><trkpt lat="35.575374132001194" lon="-5.961584158121698"><ele>59.33333333333333</ele><time>2026-04-22T12:31:06.999Z</time></trkpt><trkpt lat="35.57521980621946" lon="-5.961728439201307"><ele>58.666666666666664</ele><time>2026-04-22T12:31:07.999Z</time></trkpt><trkpt lat="35.575065779401534" lon="-5.961873641961902"><ele>58.0</ele><time>2026-04-22T12:31:08.999Z</time></trkpt><trkpt lat="35.5749105833216" lon="-5.962017100191034"><ele>58.0</ele><time>2026-04-22T12:31:09.999Z</time></trkpt><trkpt lat="35.5747548256358" lon="-5.962158908029491"><ele>58.0</ele><time>2026-04-22T12:31:10.999Z</time></trkpt><trkpt lat="35.574599596595895" lon="-5.962301698774704"><ele>58.0</ele><time>2026-04-22T12:31:11.999Z</time></trkpt><trkpt lat="35.57444352064805" lon="-5.962445806689399"><ele>57.0</ele><time>2026-04-22T12:31:12.999Z</time></trkpt><trkpt lat="35.57428750499152" lon="-5.96258817080251"><ele>56.0</ele><time>2026-04-22T12:31:14Z</time></trkpt><trkpt lat="35.57413073353719" lon="-5.962729073754102"><ele>55.0</ele><time>2026-04-22T12:31:15Z</time></trkpt><trkpt lat="35.57397404543758" lon="-5.962871587356004"><ele>55.0</ele><time>2026-04-22T12:31:16Z</time></trkpt><trkpt lat="35.57381869417931" lon="-5.963014504610657"><ele>55.0</ele><time>2026-04-22T12:31:17Z</time></trkpt><trkpt lat="35.57366592354225" lon="-5.963155637468993"><ele>55.0</ele><time>2026-04-22T12:31:18Z</time></trkpt><trkpt lat="35.57351908015129" lon="-5.963301155710139"><ele>55.666666666666664</ele><time>2026-04-22T12:31:19Z</time></trkpt><trkpt lat="35.573370302817594" lon="-5.963440802726811"><ele>56.33333333333333</ele><time>2026-04-22T12:31:20Z</time></trkpt><trkpt lat="35.57322328174166" lon="-5.963575989039458"><ele>57.0</ele><time>2026-04-22T12:31:21Z</time></trkpt><trkpt lat="35.573078930075866" lon="-5.963710193996376"><ele>57.0</ele><time>2026-04-22T12:31:22Z</time></trkpt><trkpt lat="35.57293597526244" lon="-5.963840623772653"><ele>57.0</ele><time>2026-04-22T12:31:23Z</time></trkpt><trkpt lat="35.572794185812405" lon="-5.9639698337159235"><ele>57.0</ele><time>2026-04-22T12:31:24Z</time></trkpt><trkpt lat="35.57265354573628" lon="-5.96409788530427"><ele>56.0</ele><time>2026-04-22T12:31:25Z</time></trkpt><trkpt lat="35.57250210736425" lon="-5.964210591778939"><ele>55.0</ele><time>2026-04-22T12:31:26Z</time></trkpt><trkpt lat="35.572355998579084" lon="-5.964341023560313"><ele>54.0</ele><time>2026-04-22T12:31:27Z</time></trkpt><trkpt lat="35.57220694511931" lon="-5.964472192949191"><ele>54.0</ele><time>2026-04-22T12:31:28Z</time></trkpt><trkpt lat="35.57205581404668" lon="-5.964605190517464"><ele>54.0</ele><time>2026-04-22T12:31:29Z</time></trkpt><trkpt lat="35.57190296039161" lon="-5.96473970413021"><ele>54.0</ele><time>2026-04-22T12:31:30Z</time></trkpt><trkpt lat="35.57175048862772" lon="-5.9648738815618"><ele>54.33333333333333</ele><time>2026-04-22T12:31:31Z</time></trkpt><trkpt lat="35.57159751780024" lon="-5.96500849825367"><ele>54.666666666666664</ele><time>2026-04-22T12:31:32Z</time></trkpt><trkpt lat="35.571443467517255" lon="-5.965144064892091"><ele>55.0</ele><time>2026-04-22T12:31:33Z</time></trkpt><trkpt lat="35.57128829148639" lon="-5.965281176407476"><ele>54.33333333333333</ele><time>2026-04-22T12:31:34Z</time></trkpt><trkpt lat="35.57113227396721" lon="-5.965419624978989"><ele>53.66666666666667</ele><time>2026-04-22T12:31:35Z</time></trkpt><trkpt lat="35.5709763525498" lon="-5.965557988304269"><ele>53.0</ele><time>2026-04-22T12:31:36Z</time></trkpt><trkpt lat="35.570819310231954" lon="-5.965701582926254"><ele>53.0</ele><time>2026-04-22T12:31:37Z</time></trkpt><trkpt lat="35.57066531372432" lon="-5.965848605906057"><ele>53.0</ele><time>2026-04-22T12:31:38Z</time></trkpt><trkpt lat="35.57051091572234" lon="-5.965996012274455"><ele>53.0</ele><time>2026-04-22T12:31:39Z</time></trkpt><trkpt lat="35.570355588758424" lon="-5.966144305655786"><ele>50.333333333333336</ele><time>2026-04-22T12:31:40Z</time></trkpt><trkpt lat="35.57020037219453" lon="-5.966292493156608"><ele>47.66666666666667</ele><time>2026-04-22T12:31:41Z</time></trkpt><trkpt lat="35.570046667299486" lon="-5.966439237828267"><ele>45.0</ele><time>2026-04-22T12:31:42Z</time></trkpt><trkpt lat="35.56989374657964" lon="-5.966585233782427"><ele>43.333333333333336</ele><time>2026-04-22T12:31:43Z</time></trkpt><trkpt lat="35.56974168406206" lon="-5.966730410539411"><ele>41.66666666666667</ele><time>2026-04-22T12:31:44Z</time></trkpt><trkpt lat="35.56958910527861" lon="-5.966879625655546"><ele>40.0</ele><time>2026-04-22T12:31:45Z</time></trkpt><trkpt lat="35.5694357285947" lon="-5.967031623712627"><ele>37.66666666666667</ele><time>2026-04-22T12:31:46Z</time></trkpt><trkpt lat="35.56928874996152" lon="-5.9671959886165125"><ele>35.333333333333336</ele><time>2026-04-22T12:31:47Z</time></trkpt><trkpt lat="35.569130697374646" lon="-5.96733901622245"><ele>33.0</ele><time>2026-04-22T12:31:48Z</time></trkpt><trkpt lat="35.56897272318099" lon="-5.967482150228927"><ele>30.0</ele><time>2026-04-22T12:31:49Z</time></trkpt><trkpt lat="35.56881541223606" lon="-5.967624341726683"><ele>27.0</ele><time>2026-04-22T12:31:50Z</time></trkpt><trkpt lat="35.5686560839627" lon="-5.967770538555634"><ele>24.0</ele><time>2026-04-22T12:31:51Z</time></trkpt><trkpt lat="35.56849573218683" lon="-5.9679191210739235"><ele>21.333333333333332</ele><time>2026-04-22T12:31:52Z</time></trkpt><trkpt lat="35.568333432541706" lon="-5.968068909441178"><ele>18.666666666666664</ele><time>2026-04-22T12:31:53Z</time></trkpt><trkpt lat="35.568168447802755" lon="-5.968219829105869"><ele>16.0</ele><time>2026-04-22T12:31:54Z</time></trkpt><trkpt lat="35.56800269603151" lon="-5.968371566663737"><ele>11.333333333333332</ele><time>2026-04-22T12:31:55Z</time></trkpt><trkpt lat="35.56783829298499" lon="-5.9685232103925365"><ele>6.666666666666666</ele><time>2026-04-22T12:31:56Z</time></trkpt><trkpt lat="35.56767386090231" lon="-5.968673920243989"><ele>2.0</ele><time>2026-04-22T12:31:57Z</time></trkpt><trkpt lat="35.56750970930091" lon="-5.968824912593024"><ele>2.0</ele><time>2026-04-22T12:31:58Z</time></trkpt><trkpt lat="35.5673452722183" lon="-5.968978711273072"><ele>2.0</ele><time>2026-04-22T12:31:59Z</time></trkpt><trkpt lat="35.567180016673696" lon="-5.969131919659967"><ele>2.0</ele><time>2026-04-22T12:32:00Z</time></trkpt><trkpt lat="35.56701378945209" lon="-5.969285026224547"><ele>1.6666666666666665</ele><time>2026-04-22T12:32:01Z</time></trkpt><trkpt lat="35.566846320608065" lon="-5.969433335773915"><ele>1.3333333333333333</ele><time>2026-04-22T12:32:02Z</time></trkpt><trkpt lat="35.56667919525672" lon="-5.969584218088749"><ele>1.0</ele><time>2026-04-22T12:32:03Z</time></trkpt><trkpt lat="35.56651155782261" lon="-5.969737718220509"><ele>1.0</ele><time>2026-04-22T12:32:04Z</time></trkpt><trkpt lat="35.56634423993541" lon="-5.969892904734163"><ele>1.0</ele><time>2026-04-22T12:32:04.999Z</time></trkpt><trkpt lat="35.566175725593" lon="-5.970047878016788"><ele>1.0</ele><time>2026-04-22T12:32:05.999Z</time></trkpt><trkpt lat="35.566007790360175" lon="-5.970206829533393"><ele>1.0</ele><time>2026-04-22T12:32:06.999Z</time></trkpt><trkpt lat="35.56584120216323" lon="-5.970365922395448"><ele>1.0</ele><time>2026-04-22T12:32:07.999Z</time></trkpt><trkpt lat="35.565673085140745" lon="-5.970521600515447"><ele>1.0</ele><time>2026-04-22T12:32:08.999Z</time></trkpt><trkpt lat="35.56550409251514" lon="-5.970674759313225"><ele>1.0</ele><time>2026-04-22T12:32:09.999Z</time></trkpt><trkpt lat="35.565336374392245" lon="-5.970826411019659"><ele>1.0</ele><time>2026-04-22T12:32:10.999Z</time></trkpt><trkpt lat="35.56517031404414" lon="-5.970978470262124"><ele>1.0</ele><time>2026-04-22T12:32:11.999Z</time></trkpt><trkpt lat="35.565004200236395" lon="-5.971131429738156"><ele>1.0</ele><time>2026-04-22T12:32:12.999Z</time></trkpt><trkpt lat="35.56483541788174" lon="-5.971285974754821"><ele>1.0</ele><time>2026-04-22T12:32:13.999Z</time></trkpt><trkpt lat="35.564665832208284" lon="-5.971443690864012"><ele>1.0</ele><time>2026-04-22T12:32:14.999Z</time></trkpt><trkpt lat="35.56449440744036" lon="-5.9716029728560285"><ele>1.0</ele><time>2026-04-22T12:32:15.999Z</time></trkpt><trkpt lat="35.56432322987819" lon="-5.971761288086319"><ele>1.0</ele><time>2026-04-22T12:32:16.999Z</time></trkpt><trkpt lat="35.56415108062311" lon="-5.971919615113731"><ele>1.0</ele><time>2026-04-22T12:32:17.999Z</time></trkpt><trkpt lat="35.563978361157474" lon="-5.972078350055817"><ele>1.0</ele><time>2026-04-22T12:32:18.999Z</time></trkpt><trkpt lat="35.563804846194316" lon="-5.972239117102608"><ele>1.0</ele><time>2026-04-22T12:32:19.999Z</time></trkpt><trkpt lat="35.563631399202585" lon="-5.972400258094109"><ele>1.0</ele><time>2026-04-22T12:32:20.999Z</time></trkpt><trkpt lat="35.56345516800081" lon="-5.972560435439687"><ele>1.0</ele><time>2026-04-22T12:32:21.999Z</time></trkpt><trkpt lat="35.56327437486862" lon="-5.972723700746461"><ele>1.0</ele><time>2026-04-22T12:32:22.999Z</time></trkpt><trkpt lat="35.563088372301706" lon="-5.972893401170703"><ele>1.0</ele><time>2026-04-22T12:32:23.999Z</time></trkpt><trkpt lat="35.56289457804569" lon="-5.973067379996745"><ele>1.0</ele><time>2026-04-22T12:32:24.999Z</time></trkpt><trkpt lat="35.56269822975407" lon="-5.9732474388713515"><ele>1.0</ele><time>2026-04-22T12:32:25.999Z</time></trkpt><trkpt lat="35.56249798525582" lon="-5.97343293908952"><ele>1.0</ele><time>2026-04-22T12:32:26.999Z</time></trkpt><trkpt lat="35.562293534879515" lon="-5.973620407754894"><ele>1.0</ele><time>2026-04-22T12:32:27.999Z</time></trkpt><trkpt lat="35.56208608126365" lon="-5.973810987205541"><ele>1.0</ele><time>2026-04-22T12:32:28.999Z</time></trkpt><trkpt lat="35.56187495585889" lon="-5.974001856492466"><ele>1.5</ele><time>2026-04-22T12:32:29.999Z</time></trkpt><trkpt lat="35.561665145118354" lon="-5.974195558792457"><ele>2.0</ele><time>2026-04-22T12:32:30.999Z</time></trkpt><trkpt lat="35.56145607114353" lon="-5.974390848710558"><ele>2.0</ele><time>2026-04-22T12:32:31.999Z</time></trkpt><trkpt lat="35.56124490477122" lon="-5.9745847709978825"><ele>2.0</ele><time>2026-04-22T12:32:32.999Z</time></trkpt><trkpt lat="35.561034159438954" lon="-5.9747812219579055"><ele>2.0</ele><time>2026-04-22T12:32:33.999Z</time></trkpt><trkpt lat="35.560821780168766" lon="-5.974973945639655"><ele>2.0</ele><time>2026-04-22T12:32:34.999Z</time></trkpt><trkpt lat="35.560608558818" lon="-5.975168522123288"><ele>2.0</ele><time>2026-04-22T12:32:35.999Z</time></trkpt><trkpt lat="35.5603933115219" lon="-5.975360706929259"><ele>2.0</ele><time>2026-04-22T12:32:36.999Z</time></trkpt><trkpt lat="35.560174260588624" lon="-5.975551350328791"><ele>2.0</ele><time>2026-04-22T12:32:37.999Z</time></trkpt><trkpt lat="35.55995297523725" lon="-5.97573822224095"><ele>2.0</ele><time>2026-04-22T12:32:38.999Z</time></trkpt><trkpt lat="35.55972749524787" lon="-5.9759203305883135"><ele>1.5</ele><time>2026-04-22T12:32:39.999Z</time></trkpt><trkpt lat="35.55949666893751" lon="-5.9760982704761645"><ele>1.0</ele><time>2026-04-22T12:32:40.999Z</time></trkpt><trkpt lat="35.559262784489064" lon="-5.976270634805678"><ele>1.0</ele><time>2026-04-22T12:32:41.999Z</time></trkpt><trkpt lat="35.559025754108305" lon="-5.9764383131544925"><ele>1.0</ele><time>2026-04-22T12:32:42.999Z</time></trkpt><trkpt lat="35.55878503302467" lon="-5.976603168321428"><ele>1.0</ele><time>2026-04-22T12:32:43.999Z</time></trkpt><trkpt lat="35.55854009407059" lon="-5.976766498845694"><ele>1.0</ele><time>2026-04-22T12:32:44.999Z</time></trkpt><trkpt lat="35.55828731926501" lon="-5.976926717006835"><ele>1.0</ele><time>2026-04-22T12:32:45.999Z</time></trkpt><trkpt lat="35.55802768884312" lon="-5.9770807534168275"><ele>1.0</ele><time>2026-04-22T12:32:46.999Z</time></trkpt><trkpt lat="35.55776519602979" lon="-5.977239881986492"><ele>1.0</ele><time>2026-04-22T12:32:47.999Z</time></trkpt><trkpt lat="35.55750057955168" lon="-5.977393218400556"><ele>1.0</ele><time>2026-04-22T12:32:48.999Z</time></trkpt><trkpt lat="35.557235437046266" lon="-5.977542079670522"><ele>1.0</ele><time>2026-04-22T12:32:49.999Z</time></trkpt><trkpt lat="35.5569705250674" lon="-5.977685471855537"><ele>1.0</ele><time>2026-04-22T12:32:50.999Z</time></trkpt><trkpt lat="35.55670648132987" lon="-5.977828087822681"><ele>1.0</ele><time>2026-04-22T12:32:51.999Z</time></trkpt><trkpt lat="35.55643999641082" lon="-5.977968994508223"><ele>1.0</ele><time>2026-04-22T12:32:52.999Z</time></trkpt><trkpt lat="35.55617301200223" lon="-5.978108090791069"><ele>1.0</ele><time>2026-04-22T12:32:53.999Z</time></trkpt><trkpt lat="35.555904881718526" lon="-5.978247146807569"><ele>1.0</ele><time>2026-04-22T12:32:54.999Z</time></trkpt><trkpt lat="35.5556352288635" lon="-5.978381141855689"><ele>0.0</ele><time>2026-04-22T12:32:55.999Z</time></trkpt><trkpt lat="35.55536700887675" lon="-5.97851514401347"><ele>-1.0</ele><time>2026-04-22T12:32:56.999Z</time></trkpt><trkpt lat="35.55509808593148" lon="-5.978648357898906"><ele>-1.0</ele><time>2026-04-22T12:32:57.999Z</time></trkpt><trkpt lat="35.55482766523999" lon="-5.978780344368656"><ele>-1.0</ele><time>2026-04-22T12:32:58.999Z</time></trkpt><trkpt lat="35.554558858526185" lon="-5.978912670686922"><ele>0.5</ele><time>2026-04-22T12:32:59.999Z</time></trkpt><trkpt lat="35.55428964854914" lon="-5.979048291731321"><ele>2.0</ele><time>2026-04-22T12:33:00.999Z</time></trkpt><trkpt lat="35.55401980392078" lon="-5.979180385468368"><ele>1.5</ele><time>2026-04-22T12:33:01.999Z</time></trkpt><trkpt lat="35.553750243684" lon="-5.979312214276537"><ele>1.0</ele><time>2026-04-22T12:33:02.999Z</time></trkpt><trkpt lat="35.55348065775691" lon="-5.979443907482413"><ele>0.5</ele><time>2026-04-22T12:33:03.999Z</time></trkpt><trkpt lat="35.55321047717175" lon="-5.979575570263226"><ele>0.0</ele><time>2026-04-22T12:33:04.999Z</time></trkpt><trkpt lat="35.55294063669939" lon="-5.979705795345774"><ele>-0.5</ele><time>2026-04-22T12:33:05.999Z</time></trkpt><trkpt lat="35.55267071935624" lon="-5.9798373968109395"><ele>-1.0</ele><time>2026-04-22T12:33:06.999Z</time></trkpt><trkpt lat="35.552401641520426" lon="-5.979971703934289"><ele>0.5</ele><time>2026-04-22T12:33:07.999Z</time></trkpt><trkpt lat="35.55213190844634" lon="-5.9801051583060385"><ele>2.0</ele><time>2026-04-22T12:33:08.999Z</time></trkpt><trkpt lat="35.551862321751756" lon="-5.980238377100199"><ele>2.5</ele><time>2026-04-22T12:33:09.999Z</time></trkpt><trkpt lat="35.551592079236414" lon="-5.980367275161723"><ele>3.0</ele><time>2026-04-22T12:33:10.999Z</time></trkpt><trkpt lat="35.55132152450258" lon="-5.980500662223712"><ele>3.0</ele><time>2026-04-22T12:33:11.999Z</time></trkpt><trkpt lat="35.55105303293293" lon="-5.980632600499899"><ele>3.0</ele><time>2026-04-22T12:33:12.999Z</time></trkpt><trkpt lat="35.55078363887592" lon="-5.980763931257822"><ele>3.5</ele><time>2026-04-22T12:33:13.999Z</time></trkpt><trkpt lat="35.55051162301041" lon="-5.980897068009113"><ele>4.0</ele><time>2026-04-22T12:33:14.999Z</time></trkpt><trkpt lat="35.5502421562345" lon="-5.981029404154518"><ele>3.0</ele><time>2026-04-22T12:33:15.999Z</time></trkpt><trkpt lat="35.54997217683171" lon="-5.981161242895506"><ele>2.0</ele><time>2026-04-22T12:33:16.999Z</time></trkpt><trkpt lat="35.549701453848506" lon="-5.981294554023339"><ele>2.0</ele><time>2026-04-22T12:33:17.999Z</time></trkpt><trkpt lat="35.54943044123532" lon="-5.98142778760975"><ele>2.0</ele><time>2026-04-22T12:33:18.999Z</time></trkpt><trkpt lat="35.5491590128788" lon="-5.981556948599833"><ele>3.0</ele><time>2026-04-22T12:33:20Z</time></trkpt><trkpt lat="35.54888751797117" lon="-5.981683275819679"><ele>4.0</ele><time>2026-04-22T12:33:21Z</time></trkpt><trkpt lat="35.54861458328042" lon="-5.981812699526936"><ele>2.0</ele><time>2026-04-22T12:33:22Z</time></trkpt><trkpt lat="35.54834231288645" lon="-5.981942887547653"><ele>0.0</ele><time>2026-04-22T12:33:23Z</time></trkpt><trkpt lat="35.54807179787208" lon="-5.982073740003227"><ele>0.5</ele><time>2026-04-22T12:33:24Z</time></trkpt><trkpt lat="35.547801510981934" lon="-5.9822036461003405"><ele>1.0</ele><time>2026-04-22T12:33:25Z</time></trkpt><trkpt lat="35.547529888622" lon="-5.98233464557118"><ele>1.0</ele><time>2026-04-22T12:33:26Z</time></trkpt><trkpt lat="35.54725773639972" lon="-5.982462097396494"><ele>1.0</ele><time>2026-04-22T12:33:27Z</time></trkpt><trkpt lat="35.5469869590239" lon="-5.982591718538865"><ele>1.0</ele><time>2026-04-22T12:33:28Z</time></trkpt><trkpt lat="35.54671336817632" lon="-5.9827217781338895"><ele>1.0</ele><time>2026-04-22T12:33:29Z</time></trkpt><trkpt lat="35.546440409693275" lon="-5.98285208257715"><ele>0.5</ele><time>2026-04-22T12:33:30Z</time></trkpt><trkpt lat="35.54616762342261" lon="-5.9829840507382555"><ele>0.0</ele><time>2026-04-22T12:33:31Z</time></trkpt><trkpt lat="35.54589549256288" lon="-5.9831160762407105"><ele>0.0</ele><time>2026-04-22T12:33:32Z</time></trkpt><trkpt lat="35.54562270063943" lon="-5.983249353896689"><ele>0.0</ele><time>2026-04-22T12:33:33Z</time></trkpt><trkpt lat="35.54535322390783" lon="-5.9833840010633"><ele>0.0</ele><time>2026-04-22T12:33:34Z</time></trkpt><trkpt lat="35.545081794215236" lon="-5.983519327293328"><ele>0.0</ele><time>2026-04-22T12:33:35Z</time></trkpt><trkpt lat="35.544812146850866" lon="-5.983652863733814"><ele>0.0</ele><time>2026-04-22T12:33:36Z</time></trkpt><trkpt lat="35.54454058828514" lon="-5.983783314830199"><ele>0.0</ele><time>2026-04-22T12:33:37Z</time></trkpt><trkpt lat="35.544270435129874" lon="-5.983915827326675"><ele>0.0</ele><time>2026-04-22T12:33:38Z</time></trkpt><trkpt lat="35.544001205715624" lon="-5.9840488217348025"><ele>0.0</ele><time>2026-04-22T12:33:39Z</time></trkpt><trkpt lat="35.54373317798279" lon="-5.984179800812642"><ele>0.0</ele><time>2026-04-22T12:33:40Z</time></trkpt><trkpt lat="35.543464626021134" lon="-5.984312053089434"><ele>0.0</ele><time>2026-04-22T12:33:41Z</time></trkpt><trkpt lat="35.543195145319224" lon="-5.984448136313301"><ele>0.0</ele><time>2026-04-22T12:33:42Z</time></trkpt><trkpt lat="35.54292503342935" lon="-5.984583718465909"><ele>0.0</ele><time>2026-04-22T12:33:43Z</time></trkpt><trkpt lat="35.54265256069088" lon="-5.984714102835424"><ele>0.0</ele><time>2026-04-22T12:33:44Z</time></trkpt><trkpt lat="35.54238114437459" lon="-5.984843088842148"><ele>0.0</ele><time>2026-04-22T12:33:45Z</time></trkpt><trkpt lat="35.542109577019545" lon="-5.984972890637548"><ele>0.0</ele><time>2026-04-22T12:33:46Z</time></trkpt><trkpt lat="35.54183947993779" lon="-5.985103785099563"><ele>0.0</ele><time>2026-04-22T12:33:47Z</time></trkpt><trkpt lat="35.54156862338674" lon="-5.985241722658486"><ele>0.0</ele><time>2026-04-22T12:33:48Z</time></trkpt><trkpt lat="35.54130194477429" lon="-5.985381481426439"><ele>0.0</ele><time>2026-04-22T12:33:49Z</time></trkpt><trkpt lat="35.541036204778855" lon="-5.985516157171991"><ele>2.5</ele><time>2026-04-22T12:33:50Z</time></trkpt><trkpt lat="35.54077031707191" lon="-5.9856469015948095"><ele>5.0</ele><time>2026-04-22T12:33:51Z</time></trkpt><trkpt lat="35.54050806026831" lon="-5.985778712368363"><ele>5.0</ele><time>2026-04-22T12:33:52Z</time></trkpt><trkpt lat="35.540241157251316" lon="-5.985907087173111"><ele>5.0</ele><time>2026-04-22T12:33:53Z</time></trkpt><trkpt lat="35.53997354439223" lon="-5.986030487460806"><ele>5.0</ele><time>2026-04-22T12:33:54Z</time></trkpt><trkpt lat="35.539705313605786" lon="-5.9861556008207595"><ele>5.0</ele><time>2026-04-22T12:33:55Z</time></trkpt><trkpt lat="35.53943736533712" lon="-5.98628707593478"><ele>6.0</ele><time>2026-04-22T12:33:56Z</time></trkpt><trkpt lat="35.5391686928133" lon="-5.986418258235698"><ele>7.0</ele><time>2026-04-22T12:33:57Z</time></trkpt><trkpt lat="35.5389018596545" lon="-5.986555481146074"><ele>7.5</ele><time>2026-04-22T12:33:58Z</time></trkpt><trkpt lat="35.53863586952441" lon="-5.986698785945818"><ele>8.0</ele><time>2026-04-22T12:33:59Z</time></trkpt><trkpt lat="35.538368102955815" lon="-5.986841442292148"><ele>8.0</ele><time>2026-04-22T12:33:59.999Z</time></trkpt><trkpt lat="35.53810185636848" lon="-5.986978709461911"><ele>8.0</ele><time>2026-04-22T12:34:00.999Z</time></trkpt><trkpt lat="35.537838379698805" lon="-5.987107882659372"><ele>6.0</ele><time>2026-04-22T12:34:01.999Z</time></trkpt><trkpt lat="35.5375757859407" lon="-5.987231270459736"><ele>4.0</ele><time>2026-04-22T12:34:02.999Z</time></trkpt><trkpt lat="35.53731756910314" lon="-5.9873554783116845"><ele>4.0</ele><time>2026-04-22T12:34:03.999Z</time></trkpt><trkpt lat="35.53706210928574" lon="-5.987479759286153"><ele>4.0</ele><time>2026-04-22T12:34:04.999Z</time></trkpt><trkpt lat="35.53681079293004" lon="-5.987600286093142"><ele>3.5</ele><time>2026-04-22T12:34:05.999Z</time></trkpt><trkpt lat="35.53655773237318" lon="-5.987721585162023"><ele>3.0</ele><time>2026-04-22T12:34:06.999Z</time></trkpt><trkpt lat="35.53630816716154" lon="-5.9878410098803965"><ele>3.0</ele><time>2026-04-22T12:34:07.999Z</time></trkpt><trkpt lat="35.536056943512484" lon="-5.987960130289933"><ele>3.0</ele><time>2026-04-22T12:34:08.999Z</time></trkpt><trkpt lat="35.535800317256985" lon="-5.988082391931953"><ele>3.0</ele><time>2026-04-22T12:34:09.999Z</time></trkpt><trkpt lat="35.53553982127256" lon="-5.988208640430891"><ele>3.0</ele><time>2026-04-22T12:34:10.999Z</time></trkpt><trkpt lat="35.53529333973069" lon="-5.988332162410823"><ele>3.5</ele><time>2026-04-22T12:34:11.999Z</time></trkpt><trkpt lat="35.53503529368306" lon="-5.988458393834952"><ele>4.0</ele><time>2026-04-22T12:34:12.999Z</time></trkpt><trkpt lat="35.53477269127889" lon="-5.9885827917108125"><ele>3.5</ele><time>2026-04-22T12:34:13.999Z</time></trkpt><trkpt lat="35.53450699735479" lon="-5.988707682638509"><ele>3.0</ele><time>2026-04-22T12:34:14.999Z</time></trkpt><trkpt lat="35.5342394304045" lon="-5.98883780856873"><ele>3.0</ele><time>2026-04-22T12:34:15.999Z</time></trkpt><trkpt lat="35.53397169586433" lon="-5.988969281236129"><ele>3.0</ele><time>2026-04-22T12:34:16.999Z</time></trkpt><trkpt lat="35.53370653843328" lon="-5.989106976532582"><ele>4.0</ele><time>2026-04-22T12:34:17.999Z</time></trkpt><trkpt lat="35.533437224586635" lon="-5.989235492869101"><ele>5.0</ele><time>2026-04-22T12:34:18.999Z</time></trkpt><trkpt lat="35.53316902137809" lon="-5.9893625441601515"><ele>5.0</ele><time>2026-04-22T12:34:19.999Z</time></trkpt><trkpt lat="35.53289745615212" lon="-5.989489690728923"><ele>5.0</ele><time>2026-04-22T12:34:20.999Z</time></trkpt><trkpt lat="35.53262615453492" lon="-5.989609660621431"><ele>5.5</ele><time>2026-04-22T12:34:21.999Z</time></trkpt><trkpt lat="35.53235265817464" lon="-5.989730621845587"><ele>6.0</ele><time>2026-04-22T12:34:22.999Z</time></trkpt><trkpt lat="35.53207985109432" lon="-5.9898498769350645"><ele>6.0</ele><time>2026-04-22T12:34:23.999Z</time></trkpt><trkpt lat="35.531805806336386" lon="-5.989969319637658"><ele>6.0</ele><time>2026-04-22T12:34:24.999Z</time></trkpt><trkpt lat="35.53152963483682" lon="-5.990082876883776"><ele>6.0</ele><time>2026-04-22T12:34:25.999Z</time></trkpt><trkpt lat="35.53125484235509" lon="-5.990189887416395"><ele>6.0</ele><time>2026-04-22T12:34:26.999Z</time></trkpt><trkpt lat="35.53097907311095" lon="-5.990293705368788"><ele>6.0</ele><time>2026-04-22T12:34:27.999Z</time></trkpt><trkpt lat="35.53070195974102" lon="-5.990396990841333"><ele>6.0</ele><time>2026-04-22T12:34:28.999Z</time></trkpt><trkpt lat="35.53042295623402" lon="-5.990493241410584"><ele>6.5</ele><time>2026-04-22T12:34:29.999Z</time></trkpt><trkpt lat="35.5301429403317" lon="-5.990582720466596"><ele>7.0</ele><time>2026-04-22T12:34:30.999Z</time></trkpt><trkpt lat="35.52986381604472" lon="-5.9906671475896625"><ele>7.0</ele><time>2026-04-22T12:34:31.999Z</time></trkpt><trkpt lat="35.529582625914095" lon="-5.990746075455729"><ele>7.0</ele><time>2026-04-22T12:34:32.999Z</time></trkpt><trkpt lat="35.529301780913435" lon="-5.990824935549833"><ele>8.5</ele><time>2026-04-22T12:34:33.999Z</time></trkpt><trkpt lat="35.52901917818134" lon="-5.99090077327475"><ele>10.0</ele><time>2026-04-22T12:34:34.999Z</time></trkpt><trkpt lat="35.528735492778125" lon="-5.990969157957547"><ele>9.0</ele><time>2026-04-22T12:34:35.999Z</time></trkpt><trkpt lat="35.52845040838836" lon="-5.9910368576163275"><ele>8.0</ele><time>2026-04-22T12:34:36.999Z</time></trkpt><trkpt lat="35.528164687521844" lon="-5.991098087394774"><ele>9.0</ele><time>2026-04-22T12:34:37.999Z</time></trkpt><trkpt lat="35.52787924906103" lon="-5.991156248014772"><ele>10.0</ele><time>2026-04-22T12:34:38.999Z</time></trkpt><trkpt lat="35.527592911853375" lon="-5.991210436265592"><ele>10.0</ele><time>2026-04-22T12:34:39.999Z</time></trkpt><trkpt lat="35.527305798966" lon="-5.991262042657057"><ele>10.0</ele><time>2026-04-22T12:34:40.999Z</time></trkpt><trkpt lat="35.52701862662155" lon="-5.991310597892738"><ele>12.5</ele><time>2026-04-22T12:34:41.999Z</time></trkpt><trkpt lat="35.52672894853904" lon="-5.991356487262927"><ele>15.0</ele><time>2026-04-22T12:34:42.999Z</time></trkpt><trkpt lat="35.52643872772797" lon="-5.991396340505927"><ele>15.5</ele><time>2026-04-22T12:34:43.999Z</time></trkpt><trkpt lat="35.52614887913604" lon="-5.991428442819744"><ele>16.0</ele><time>2026-04-22T12:34:44.999Z</time></trkpt><trkpt lat="35.525858153965515" lon="-5.991457481247234"><ele>16.0</ele><time>2026-04-22T12:34:45.999Z</time></trkpt><trkpt lat="35.525567659958014" lon="-5.9914775662593405"><ele>16.0</ele><time>2026-04-22T12:34:46.999Z</time></trkpt><trkpt lat="35.52527591765037" lon="-5.99149367970965"><ele>19.0</ele><time>2026-04-22T12:34:47.999Z</time></trkpt><trkpt lat="35.524986633891054" lon="-5.991505590040396"><ele>22.0</ele><time>2026-04-22T12:34:48.999Z</time></trkpt><trkpt lat="35.52469705460216" lon="-5.991508302202785"><ele>23.5</ele><time>2026-04-22T12:34:49.999Z</time></trkpt><trkpt lat="35.52440640629998" lon="-5.991509647992422"><ele>25.0</ele><time>2026-04-22T12:34:50.999Z</time></trkpt><trkpt lat="35.52411695100807" lon="-5.991506682524801"><ele>25.0</ele><time>2026-04-22T12:34:51.999Z</time></trkpt><trkpt lat="35.523825580194334" lon="-5.991500484723588"><ele>25.0</ele><time>2026-04-22T12:34:52.999Z</time></trkpt><trkpt lat="35.52353439106887" lon="-5.99148627704326"><ele>23.0</ele><time>2026-04-22T12:34:53.999Z</time></trkpt><trkpt lat="35.523244899211605" lon="-5.991466556192126"><ele>21.0</ele><time>2026-04-22T12:34:54.999Z</time></trkpt><trkpt lat="35.5229553259147" lon="-5.991442400356926"><ele>21.5</ele><time>2026-04-22T12:34:55.999Z</time></trkpt><trkpt lat="35.52266356713114" lon="-5.991415041328565"><ele>22.0</ele><time>2026-04-22T12:34:56.999Z</time></trkpt><trkpt lat="35.522372462479666" lon="-5.991382739833574"><ele>22.0</ele><time>2026-04-22T12:34:57.999Z</time></trkpt><trkpt lat="35.52208166271756" lon="-5.991346971779633"><ele>22.0</ele><time>2026-04-22T12:34:58.999Z</time></trkpt><trkpt lat="35.52179072973464" lon="-5.991307712072292"><ele>24.0</ele><time>2026-04-22T12:34:59.999Z</time></trkpt><trkpt lat="35.521501677039474" lon="-5.991263834134701"><ele>26.0</ele><time>2026-04-22T12:35:00.999Z</time></trkpt><trkpt lat="35.52121334925581" lon="-5.991216314427115"><ele>26.5</ele><time>2026-04-22T12:35:01.999Z</time></trkpt><trkpt lat="35.52092671481411" lon="-5.991165000896799"><ele>27.0</ele><time>2026-04-22T12:35:02.999Z</time></trkpt><trkpt lat="35.52063868340484" lon="-5.991111143204259"><ele>28.0</ele><time>2026-04-22T12:35:03.999Z</time></trkpt><trkpt lat="35.52035361233825" lon="-5.991049793804197"><ele>29.0</ele><time>2026-04-22T12:35:04.999Z</time></trkpt><trkpt lat="35.52006724225385" lon="-5.9909851306812225"><ele>29.0</ele><time>2026-04-22T12:35:05.999Z</time></trkpt><trkpt lat="35.51978160979316" lon="-5.990919391596643"><ele>29.0</ele><time>2026-04-22T12:35:06.999Z</time></trkpt><trkpt lat="35.51949540252018" lon="-5.990849853455308"><ele>31.5</ele><time>2026-04-22T12:35:07.999Z</time></trkpt><trkpt lat="35.51920860076098" lon="-5.990783203483537"><ele>34.0</ele><time>2026-04-22T12:35:08.999Z</time></trkpt><trkpt lat="35.51892073979305" lon="-5.990717574349589"><ele>34.5</ele><time>2026-04-22T12:35:09.999Z</time></trkpt><trkpt lat="35.51863295993068" lon="-5.990649786784906"><ele>35.0</ele><time>2026-04-22T12:35:10.999Z</time></trkpt><trkpt lat="35.51834809827113" lon="-5.990583318499629"><ele>35.0</ele><time>2026-04-22T12:35:11.999Z</time></trkpt><trkpt lat="35.518062822053885" lon="-5.990516432479018"><ele>35.0</ele><time>2026-04-22T12:35:12.999Z</time></trkpt><trkpt lat="35.51777665692213" lon="-5.990448714090751"><ele>35.0</ele><time>2026-04-22T12:35:13.999Z</time></trkpt><trkpt lat="35.51749122632978" lon="-5.990377668338057"><ele>35.0</ele><time>2026-04-22T12:35:14.999Z</time></trkpt><trkpt lat="35.51720511218255" lon="-5.99030663087365"><ele>37.5</ele><time>2026-04-22T12:35:15.999Z</time></trkpt><trkpt lat="35.51691892911617" lon="-5.990235360743851"><ele>40.0</ele><time>2026-04-22T12:35:16.999Z</time></trkpt><trkpt lat="35.51663150916274" lon="-5.990164951741024"><ele>40.0</ele><time>2026-04-22T12:35:17.999Z</time></trkpt><trkpt lat="35.51634435706128" lon="-5.990096505810483"><ele>40.0</ele><time>2026-04-22T12:35:18.999Z</time></trkpt><trkpt lat="35.516056896579826" lon="-5.990029226418829"><ele>41.5</ele><time>2026-04-22T12:35:19.999Z</time></trkpt><trkpt lat="35.51576805423885" lon="-5.989961888683474"><ele>43.0</ele><time>2026-04-22T12:35:20.999Z</time></trkpt><trkpt lat="35.51547848739118" lon="-5.989894229588117"><ele>46.0</ele><time>2026-04-22T12:35:21.999Z</time></trkpt><trkpt lat="35.5151892448827" lon="-5.989826880632132"><ele>49.0</ele><time>2026-04-22T12:35:22.999Z</time></trkpt><trkpt lat="35.514900335299956" lon="-5.9897560919971315"><ele>49.0</ele><time>2026-04-22T12:35:23.999Z</time></trkpt><trkpt lat="35.51461200794581" lon="-5.989682779220703"><ele>49.0</ele><time>2026-04-22T12:35:24.999Z</time></trkpt><trkpt lat="35.5143253804868" lon="-5.989607459040202"><ele>50.0</ele><time>2026-04-22T12:35:26Z</time></trkpt><trkpt lat="35.514037199169266" lon="-5.989535027045584"><ele>51.0</ele><time>2026-04-22T12:35:27Z</time></trkpt><trkpt lat="35.51374972388847" lon="-5.989463297687303"><ele>49.0</ele><time>2026-04-22T12:35:28Z</time></trkpt><trkpt lat="35.513462054366634" lon="-5.989391736556587"><ele>47.0</ele><time>2026-04-22T12:35:29Z</time></trkpt><trkpt lat="35.51317508178786" lon="-5.9893219460432405"><ele>43.5</ele><time>2026-04-22T12:35:30Z</time></trkpt><trkpt lat="35.51288787631717" lon="-5.989252230175071"><ele>40.0</ele><time>2026-04-22T12:35:31Z</time></trkpt><trkpt lat="35.51259953317952" lon="-5.989182729827819"><ele>40.0</ele><time>2026-04-22T12:35:32Z</time></trkpt><trkpt lat="35.51231171576103" lon="-5.989114800346557"><ele>40.0</ele><time>2026-04-22T12:35:33Z</time></trkpt><trkpt lat="35.51202372264983" lon="-5.989047726821578"><ele>40.0</ele><time>2026-04-22T12:35:34Z</time></trkpt><trkpt lat="35.51173914434102" lon="-5.98897796260816"><ele>40.0</ele><time>2026-04-22T12:35:35Z</time></trkpt><trkpt lat="35.511453073559096" lon="-5.988907620625709"><ele>36.0</ele><time>2026-04-22T12:35:36Z</time></trkpt><trkpt lat="35.511168419465896" lon="-5.988838000261256"><ele>32.0</ele><time>2026-04-22T12:35:37Z</time></trkpt><trkpt lat="35.51088352337771" lon="-5.988771557354165"><ele>32.0</ele><time>2026-04-22T12:35:38Z</time></trkpt><trkpt lat="35.51059926017295" lon="-5.988704202790123"><ele>32.0</ele><time>2026-04-22T12:35:39Z</time></trkpt><trkpt lat="35.51031206405854" lon="-5.988636763122254"><ele>27.5</ele><time>2026-04-22T12:35:40Z</time></trkpt><trkpt lat="35.51002558264265" lon="-5.98857132792169"><ele>23.0</ele><time>2026-04-22T12:35:41Z</time></trkpt><trkpt lat="35.50973678653386" lon="-5.9885063114398855"><ele>20.5</ele><time>2026-04-22T12:35:42Z</time></trkpt><trkpt lat="35.50945181273162" lon="-5.988439963289675"><ele>18.0</ele><time>2026-04-22T12:35:43Z</time></trkpt><trkpt lat="35.50916811358677" lon="-5.988374174701073"><ele>19.0</ele><time>2026-04-22T12:35:44Z</time></trkpt><trkpt lat="35.50888043111517" lon="-5.988311852085288"><ele>20.0</ele><time>2026-04-22T12:35:45Z</time></trkpt><trkpt lat="35.508595451630654" lon="-5.9882499164944365"><ele>21.0</ele><time>2026-04-22T12:35:46Z</time></trkpt><trkpt lat="35.508309853628155" lon="-5.988185757733698"><ele>22.0</ele><time>2026-04-22T12:35:47Z</time></trkpt><trkpt lat="35.50802478028978" lon="-5.988124864854243"><ele>25.5</ele><time>2026-04-22T12:35:48Z</time></trkpt><trkpt lat="35.507737428237164" lon="-5.988065622180633"><ele>29.0</ele><time>2026-04-22T12:35:49Z</time></trkpt><trkpt lat="35.507451025153344" lon="-5.988008381868175"><ele>29.0</ele><time>2026-04-22T12:35:50Z</time></trkpt><trkpt lat="35.50716446375252" lon="-5.987949248226104"><ele>29.0</ele><time>2026-04-22T12:35:51Z</time></trkpt><trkpt lat="35.506879145184975" lon="-5.9878860060497"><ele>27.0</ele><time>2026-04-22T12:35:52Z</time></trkpt><trkpt lat="35.506594640248785" lon="-5.987817801593817"><ele>25.0</ele><time>2026-04-22T12:35:53Z</time></trkpt><trkpt lat="35.506311460980676" lon="-5.987743596741467"><ele>19.5</ele><time>2026-04-22T12:35:54Z</time></trkpt><trkpt lat="35.506030762699375" lon="-5.987696560775978"><ele>14.0</ele><time>2026-04-22T12:35:55Z</time></trkpt><trkpt lat="35.50573866892204" lon="-5.987622602989841"><ele>14.0</ele><time>2026-04-22T12:35:56Z</time></trkpt><trkpt lat="35.50545497583685" lon="-5.98755614432912"><ele>14.0</ele><time>2026-04-22T12:35:57Z</time></trkpt><trkpt lat="35.50516911991226" lon="-5.987494556302516"><ele>10.0</ele><time>2026-04-22T12:35:58Z</time></trkpt><trkpt lat="35.50488222283405" lon="-5.9874383617936875"><ele>6.0</ele><time>2026-04-22T12:35:59Z</time></trkpt><trkpt lat="35.50459497616836" lon="-5.987384603222506"><ele>5.5</ele><time>2026-04-22T12:36:00Z</time></trkpt><trkpt lat="35.50430773615052" lon="-5.987334253076084"><ele>5.0</ele><time>2026-04-22T12:36:01Z</time></trkpt><trkpt lat="35.504020043976325" lon="-5.987287730042964"><ele>5.0</ele><time>2026-04-22T12:36:01.999Z</time></trkpt><trkpt lat="35.503731861612735" lon="-5.987244712902183"><ele>5.0</ele><time>2026-04-22T12:36:02.999Z</time></trkpt><trkpt lat="35.50344288333848" lon="-5.987203247390708"><ele>5.0</ele><time>2026-04-22T12:36:03.999Z</time></trkpt><trkpt lat="35.503154688616114" lon="-5.987166777427054"><ele>5.0</ele><time>2026-04-22T12:36:04.999Z</time></trkpt><trkpt lat="35.50286589940467" lon="-5.987134860452923"><ele>4.0</ele><time>2026-04-22T12:36:05.999Z</time></trkpt><trkpt lat="35.502577390897834" lon="-5.987107181125747"><ele>3.0</ele><time>2026-04-22T12:36:06.999Z</time></trkpt><trkpt lat="35.50228885535622" lon="-5.987084938168303"><ele>3.0</ele><time>2026-04-22T12:36:07.999Z</time></trkpt><trkpt lat="35.50200016876259" lon="-5.987065582309529"><ele>3.0</ele><time>2026-04-22T12:36:08.999Z</time></trkpt><trkpt lat="35.50171126357388" lon="-5.98704774536944"><ele>3.0</ele><time>2026-04-22T12:36:09.999Z</time></trkpt><trkpt lat="35.501422132539446" lon="-5.987033944058411"><ele>3.0</ele><time>2026-04-22T12:36:10.999Z</time></trkpt><trkpt lat="35.5011333156318" lon="-5.9870280766409865"><ele>3.0</ele><time>2026-04-22T12:36:11.999Z</time></trkpt><trkpt lat="35.500842889880246" lon="-5.987029003861943"><ele>3.0</ele><time>2026-04-22T12:36:12.999Z</time></trkpt><trkpt lat="35.500552113555486" lon="-5.987032075053707"><ele>3.5</ele><time>2026-04-22T12:36:13.999Z</time></trkpt><trkpt lat="35.50026281735893" lon="-5.987037750823145"><ele>4.0</ele><time>2026-04-22T12:36:14.999Z</time></trkpt><trkpt lat="35.49997325883131" lon="-5.987047281012125"><ele>4.0</ele><time>2026-04-22T12:36:15.999Z</time></trkpt><trkpt lat="35.49968333004806" lon="-5.987059857366688"><ele>4.0</ele><time>2026-04-22T12:36:16.999Z</time></trkpt><trkpt lat="35.4993922876402" lon="-5.987076228111265"><ele>4.0</ele><time>2026-04-22T12:36:17.999Z</time></trkpt><trkpt lat="35.499102346309535" lon="-5.9870992543779336"><ele>4.0</ele><time>2026-04-22T12:36:18.999Z</time></trkpt><trkpt lat="35.49881412091267" lon="-5.98712818173295"><ele>4.5</ele><time>2026-04-22T12:36:19.999Z</time></trkpt><trkpt lat="35.498525899107506" lon="-5.987164307901365"><ele>5.0</ele><time>2026-04-22T12:36:20.999Z</time></trkpt><trkpt lat="35.49823840716104" lon="-5.987206772641185"><ele>5.0</ele><time>2026-04-22T12:36:21.999Z</time></trkpt><trkpt lat="35.497950088925975" lon="-5.98725276002086"><ele>5.0</ele><time>2026-04-22T12:36:22.999Z</time></trkpt><trkpt lat="35.49766200648039" lon="-5.98730212022814"><ele>4.0</ele><time>2026-04-22T12:36:23.999Z</time></trkpt><trkpt lat="35.49737598579939" lon="-5.9873513930782885"><ele>3.0</ele><time>2026-04-22T12:36:24.999Z</time></trkpt><trkpt lat="35.49709131910855" lon="-5.987408668935824"><ele>5.0</ele><time>2026-04-22T12:36:25.999Z</time></trkpt><trkpt lat="35.49680702348776" lon="-5.987472135367987"><ele>7.0</ele><time>2026-04-22T12:36:26.999Z</time></trkpt><trkpt lat="35.49652398149572" lon="-5.9875389514132165"><ele>9.5</ele><time>2026-04-22T12:36:27.999Z</time></trkpt><trkpt lat="35.49624139938604" lon="-5.98761273520636"><ele>12.0</ele><time>2026-04-22T12:36:28.999Z</time></trkpt><trkpt lat="35.495957433954324" lon="-5.987693150279483"><ele>12.0</ele><time>2026-04-22T12:36:29.999Z</time></trkpt><trkpt lat="35.495673793479405" lon="-5.9877782255176015"><ele>12.0</ele><time>2026-04-22T12:36:30.999Z</time></trkpt><trkpt lat="35.495390510712795" lon="-5.987865391024105"><ele>8.0</ele><time>2026-04-22T12:36:31.999Z</time></trkpt><trkpt lat="35.49510792541543" lon="-5.987957276671795"><ele>4.0</ele><time>2026-04-22T12:36:32.999Z</time></trkpt><trkpt lat="35.49482551551342" lon="-5.988051065258471"><ele>3.0</ele><time>2026-04-22T12:36:33.999Z</time></trkpt><trkpt lat="35.494544694875096" lon="-5.988147003793329"><ele>2.0</ele><time>2026-04-22T12:36:34.999Z</time></trkpt><trkpt lat="35.49426395943395" lon="-5.988245681230524"><ele>2.0</ele><time>2026-04-22T12:36:35.999Z</time></trkpt><trkpt lat="35.493985608740665" lon="-5.988348858686777"><ele>2.0</ele><time>2026-04-22T12:36:36.999Z</time></trkpt><trkpt lat="35.493704477905084" lon="-5.988452666333463"><ele>2.0</ele><time>2026-04-22T12:36:37.999Z</time></trkpt><trkpt lat="35.493424190428684" lon="-5.988554047741629"><ele>2.0</ele><time>2026-04-22T12:36:38.999Z</time></trkpt><trkpt lat="35.493145258465546" lon="-5.988659806689288"><ele>3.0</ele><time>2026-04-22T12:36:39.999Z</time></trkpt><trkpt lat="35.492866442298705" lon="-5.988764522301718"><ele>4.0</ele><time>2026-04-22T12:36:40.999Z</time></trkpt><trkpt lat="35.492586236839905" lon="-5.988868723711333"><ele>4.0</ele><time>2026-04-22T12:36:41.999Z</time></trkpt><trkpt lat="35.49230575869576" lon="-5.988971392547645"><ele>4.0</ele><time>2026-04-22T12:36:42.999Z</time></trkpt><trkpt lat="35.492025542405095" lon="-5.989075009775183"><ele>4.0</ele><time>2026-04-22T12:36:43.999Z</time></trkpt><trkpt lat="35.49174619877692" lon="-5.989175063479309"><ele>4.0</ele><time>2026-04-22T12:36:44.999Z</time></trkpt><trkpt lat="35.491469771074634" lon="-5.98927742368269"><ele>4.0</ele><time>2026-04-22T12:36:45.999Z</time></trkpt><trkpt lat="35.49119514216833" lon="-5.989378383662133"><ele>4.0</ele><time>2026-04-22T12:36:46.999Z</time></trkpt><trkpt lat="35.49092097818276" lon="-5.989487158665239"><ele>4.0</ele><time>2026-04-22T12:36:47.999Z</time></trkpt><trkpt lat="35.490644986309974" lon="-5.989593436185576"><ele>4.0</ele><time>2026-04-22T12:36:48.999Z</time></trkpt><trkpt lat="35.49037184713274" lon="-5.989706888262498"><ele>5.0</ele><time>2026-04-22T12:36:49.999Z</time></trkpt><trkpt lat="35.490095281104445" lon="-5.989816265283405"><ele>6.0</ele><time>2026-04-22T12:36:50.999Z</time></trkpt><trkpt lat="35.489818884125604" lon="-5.989925110468233"><ele>5.5</ele><time>2026-04-22T12:36:51.999Z</time></trkpt><trkpt lat="35.489542412080354" lon="-5.990033882645981"><ele>5.0</ele><time>2026-04-22T12:36:52.999Z</time></trkpt><trkpt lat="35.489264599593774" lon="-5.990139820708474"><ele>5.0</ele><time>2026-04-22T12:36:53.999Z</time></trkpt><trkpt lat="35.48898773006704" lon="-5.990245526229736"><ele>5.0</ele><time>2026-04-22T12:36:54.999Z</time></trkpt><trkpt lat="35.48870886591446" lon="-5.990351211369241"><ele>4.5</ele><time>2026-04-22T12:36:55.999Z</time></trkpt><trkpt lat="35.488429753412426" lon="-5.9904550356220545"><ele>4.0</ele><time>2026-04-22T12:36:56.999Z</time></trkpt><trkpt lat="35.48815141008361" lon="-5.990560867418893"><ele>4.0</ele><time>2026-04-22T12:36:57.999Z</time></trkpt><trkpt lat="35.48787356594163" lon="-5.990667393044678"><ele>4.0</ele><time>2026-04-22T12:36:58.999Z</time></trkpt><trkpt lat="35.48759499179825" lon="-5.990773813009056"><ele>3.5</ele><time>2026-04-22T12:36:59.999Z</time></trkpt><trkpt lat="35.48731650726891" lon="-5.990878136261859"><ele>3.0</ele><time>2026-04-22T12:37:00.999Z</time></trkpt><trkpt lat="35.48703740379558" lon="-5.990981916946083"><ele>4.0</ele><time>2026-04-22T12:37:01.999Z</time></trkpt><trkpt lat="35.48675887068825" lon="-5.991086552858708"><ele>5.0</ele><time>2026-04-22T12:37:02.999Z</time></trkpt><trkpt lat="35.486481061967304" lon="-5.991192009987342"><ele>4.5</ele><time>2026-04-22T12:37:03.999Z</time></trkpt><trkpt lat="35.48620356942922" lon="-5.991299855783415"><ele>4.0</ele><time>2026-04-22T12:37:04.999Z</time></trkpt><trkpt lat="35.48592485526935" lon="-5.991405215874754"><ele>4.0</ele><time>2026-04-22T12:37:05.999Z</time></trkpt><trkpt lat="35.48564643030456" lon="-5.991506614212471"><ele>4.0</ele><time>2026-04-22T12:37:06.999Z</time></trkpt><trkpt lat="35.485369699579564" lon="-5.99160717021308"><ele>4.5</ele><time>2026-04-22T12:37:07.999Z</time></trkpt><trkpt lat="35.48509075355183" lon="-5.991709287216315"><ele>5.0</ele><time>2026-04-22T12:37:08.999Z</time></trkpt><trkpt lat="35.48481129449049" lon="-5.991813514406548"><ele>3.5</ele><time>2026-04-22T12:37:09.999Z</time></trkpt><trkpt lat="35.484531355935424" lon="-5.991917887670167"><ele>2.0</ele><time>2026-04-22T12:37:10.999Z</time></trkpt><trkpt lat="35.48425024443816" lon="-5.992021154090202"><ele>2.0</ele><time>2026-04-22T12:37:11.999Z</time></trkpt><trkpt lat="35.48397096173207" lon="-5.992125792065452"><ele>2.0</ele><time>2026-04-22T12:37:12.999Z</time></trkpt><trkpt lat="35.483691719441836" lon="-5.992229076927504"><ele>2.5</ele><time>2026-04-22T12:37:13.999Z</time></trkpt><trkpt lat="35.483412829917484" lon="-5.992332423883091"><ele>3.0</ele><time>2026-04-22T12:37:14.999Z</time></trkpt><trkpt lat="35.4831327831913" lon="-5.99243692245526"><ele>3.5</ele><time>2026-04-22T12:37:15.999Z</time></trkpt><trkpt lat="35.48285321487748" lon="-5.99253981827828"><ele>4.0</ele><time>2026-04-22T12:37:16.999Z</time></trkpt><trkpt lat="35.482575315704686" lon="-5.992646307964787"><ele>4.0</ele><time>2026-04-22T12:37:17.999Z</time></trkpt><trkpt lat="35.482297426418654" lon="-5.992750395308933"><ele>4.0</ele><time>2026-04-22T12:37:18.999Z</time></trkpt><trkpt lat="35.48201979744679" lon="-5.9928566778917824"><ele>3.5</ele><time>2026-04-22T12:37:19.999Z</time></trkpt><trkpt lat="35.481741406784955" lon="-5.992959057766259"><ele>3.0</ele><time>2026-04-22T12:37:20.999Z</time></trkpt><trkpt lat="35.48146370764482" lon="-5.993063258814711"><ele>3.0</ele><time>2026-04-22T12:37:21.999Z</time></trkpt><trkpt lat="35.48118621489343" lon="-5.993166595907851"><ele>3.0</ele><time>2026-04-22T12:37:22.999Z</time></trkpt><trkpt lat="35.48090870155601" lon="-5.993269820439002"><ele>3.0</ele><time>2026-04-22T12:37:23.999Z</time></trkpt><trkpt lat="35.480631338273795" lon="-5.993373270399185"><ele>3.0</ele><time>2026-04-22T12:37:24.999Z</time></trkpt><trkpt lat="35.48035479503659" lon="-5.9934778969727684"><ele>5.0</ele><time>2026-04-22T12:37:25.999Z</time></trkpt><trkpt lat="35.480077232542286" lon="-5.993583742614392"><ele>7.0</ele><time>2026-04-22T12:37:26.999Z</time></trkpt><trkpt lat="35.479801390352094" lon="-5.993694190801328"><ele>7.0</ele><time>2026-04-22T12:37:27.999Z</time></trkpt><trkpt lat="35.47952774751113" lon="-5.993809522898051"><ele>7.0</ele><time>2026-04-22T12:37:28.999Z</time></trkpt><trkpt lat="35.47925704240557" lon="-5.9939300752120985"><ele>7.0</ele><time>2026-04-22T12:37:29.999Z</time></trkpt><trkpt lat="35.47898520514889" lon="-5.994046829062786"><ele>7.0</ele><time>2026-04-22T12:37:30.999Z</time></trkpt><trkpt lat="35.478716311799545" lon="-5.994174073124127"><ele>9.5</ele><time>2026-04-22T12:37:32Z</time></trkpt><trkpt lat="35.47844726803121" lon="-5.994304628126243"><ele>12.0</ele><time>2026-04-22T12:37:33Z</time></trkpt><trkpt lat="35.4781827537305" lon="-5.994446145594528"><ele>17.5</ele><time>2026-04-22T12:37:34Z</time></trkpt><trkpt lat="35.47792088253004" lon="-5.994592776962385"><ele>23.0</ele><time>2026-04-22T12:37:35Z</time></trkpt><trkpt lat="35.47765871921872" lon="-5.99474359398755"><ele>23.0</ele><time>2026-04-22T12:37:36Z</time></trkpt><trkpt lat="35.47739913599266" lon="-5.994901450581996"><ele>23.0</ele><time>2026-04-22T12:37:37Z</time></trkpt><trkpt lat="35.47714324115828" lon="-5.9950637792131225"><ele>25.5</ele><time>2026-04-22T12:37:38Z</time></trkpt><trkpt lat="35.47688787505573" lon="-5.995229475639047"><ele>28.0</ele><time>2026-04-22T12:37:39Z</time></trkpt><trkpt lat="35.47663553044677" lon="-5.995398736459179"><ele>28.0</ele><time>2026-04-22T12:37:40Z</time></trkpt><trkpt lat="35.47638196564215" lon="-5.995571208147325"><ele>28.0</ele><time>2026-04-22T12:37:41Z</time></trkpt><trkpt lat="35.47613590533998" lon="-5.9957514056663666"><ele>30.5</ele><time>2026-04-22T12:37:42Z</time></trkpt><trkpt lat="35.47588888910806" lon="-5.995934154522301"><ele>33.0</ele><time>2026-04-22T12:37:43Z</time></trkpt><trkpt lat="35.47564526616348" lon="-5.996122203787357"><ele>36.0</ele><time>2026-04-22T12:37:44Z</time></trkpt><trkpt lat="35.475405278643066" lon="-5.996316790194397"><ele>39.0</ele><time>2026-04-22T12:37:45Z</time></trkpt><trkpt lat="35.47516835446089" lon="-5.996518231306173"><ele>35.5</ele><time>2026-04-22T12:37:46Z</time></trkpt><trkpt lat="35.47493615171188" lon="-5.996728289673954"><ele>32.0</ele><time>2026-04-22T12:37:47Z</time></trkpt><trkpt lat="35.47470622372045" lon="-5.996942655801518"><ele>32.5</ele><time>2026-04-22T12:37:48Z</time></trkpt><trkpt lat="35.474479027399866" lon="-5.997161526085034"><ele>33.0</ele><time>2026-04-22T12:37:49Z</time></trkpt><trkpt lat="35.47425080015381" lon="-5.997380735103244"><ele>26.0</ele><time>2026-04-22T12:37:50Z</time></trkpt><trkpt lat="35.47402820821287" lon="-5.997607258840913"><ele>19.0</ele><time>2026-04-22T12:37:51Z</time></trkpt><trkpt lat="35.47380785920833" lon="-5.997837734778751"><ele>20.0</ele><time>2026-04-22T12:37:52Z</time></trkpt><trkpt lat="35.47359101707036" lon="-5.99807594797843"><ele>21.0</ele><time>2026-04-22T12:37:53Z</time></trkpt><trkpt lat="35.47337713500493" lon="-5.9983166544996065"><ele>18.0</ele><time>2026-04-22T12:37:54Z</time></trkpt><trkpt lat="35.47316864500769" lon="-5.998562107480317"><ele>15.0</ele><time>2026-04-22T12:37:55Z</time></trkpt><trkpt lat="35.47296128049157" lon="-5.998821763449347"><ele>17.5</ele><time>2026-04-22T12:37:56Z</time></trkpt><trkpt lat="35.47275077630685" lon="-5.999089231349596"><ele>20.0</ele><time>2026-04-22T12:37:57Z</time></trkpt><trkpt lat="35.47254900243982" lon="-5.999366703292507"><ele>24.0</ele><time>2026-04-22T12:37:58Z</time></trkpt><trkpt lat="35.472353190319815" lon="-5.9996501851308155"><ele>28.0</ele><time>2026-04-22T12:37:59Z</time></trkpt><trkpt lat="35.47216451514628" lon="-5.999930897473799"><ele>31.5</ele><time>2026-04-22T12:38:00Z</time></trkpt><trkpt lat="35.471984214368675" lon="-6.000191874825415"><ele>35.0</ele><time>2026-04-22T12:38:01Z</time></trkpt><trkpt lat="35.47181702055326" lon="-6.000428530597203"><ele>35.0</ele><time>2026-04-22T12:38:02Z</time></trkpt><trkpt lat="35.47166119544645" lon="-6.000651432528974"><ele>35.0</ele><time>2026-04-22T12:38:03Z</time></trkpt><trkpt lat="35.4715173432924" lon="-6.000861069826072"><ele>34.666666666666664</ele><time>2026-04-22T12:38:03.999Z</time></trkpt><trkpt lat="35.471388461087045" lon="-6.001051586674833"><ele>34.333333333333336</ele><time>2026-04-22T12:38:04.999Z</time></trkpt><trkpt lat="35.47128348468633" lon="-6.001223228579257"><ele>34.0</ele><time>2026-04-22T12:38:05.999Z</time></trkpt><trkpt lat="35.47119489889258" lon="-6.001387060316873"><ele>34.0</ele><time>2026-04-22T12:38:06.999Z</time></trkpt><trkpt lat="35.47111951194867" lon="-6.001548831077453"><ele>34.0</ele><time>2026-04-22T12:38:07.999Z</time></trkpt><trkpt lat="35.471029656820335" lon="-6.001707061618212"><ele>34.0</ele><time>2026-04-22T12:38:08.999Z</time></trkpt><trkpt lat="35.470966906082914" lon="-6.001878152552966"><ele>35.75</ele><time>2026-04-22T12:38:09.999Z</time></trkpt><trkpt lat="35.47090609388304" lon="-6.002041441501525"><ele>37.5</ele><time>2026-04-22T12:38:10.999Z</time></trkpt><trkpt lat="35.47084669802789" lon="-6.002200516555992"><ele>39.25</ele><time>2026-04-22T12:38:11.999Z</time></trkpt><trkpt lat="35.47078879016719" lon="-6.002350336357842"><ele>41.0</ele><time>2026-04-22T12:38:12.999Z</time></trkpt><trkpt lat="35.47072456058863" lon="-6.002490659958446"><ele>42.25</ele><time>2026-04-22T12:38:13.999Z</time></trkpt><trkpt lat="35.470659996789244" lon="-6.002620851398207"><ele>43.5</ele><time>2026-04-22T12:38:14.999Z</time></trkpt><trkpt lat="35.47058602233947" lon="-6.002740391605103"><ele>44.75</ele><time>2026-04-22T12:38:15.999Z</time></trkpt><trkpt lat="35.47051371739661" lon="-6.002855567992746"><ele>46.0</ele><time>2026-04-22T12:38:16.999Z</time></trkpt><trkpt lat="35.47044416729539" lon="-6.002962066570095"><ele>46.66666666666667</ele><time>2026-04-22T12:38:17.999Z</time></trkpt><trkpt lat="35.47038233502799" lon="-6.003039206072805"><ele>47.333333333333336</ele><time>2026-04-22T12:38:18.999Z</time></trkpt><trkpt lat="35.47032469293338" lon="-6.003110006129985"><ele>48.0</ele><time>2026-04-22T12:38:19.999Z</time></trkpt><trkpt lat="35.470277595093705" lon="-6.003172862039956"><ele>48.66666666666667</ele><time>2026-04-22T12:38:20.999Z</time></trkpt><trkpt lat="35.470231998184516" lon="-6.0032328848900915"><ele>49.333333333333336</ele><time>2026-04-22T12:38:21.999Z</time></trkpt><trkpt lat="35.47023911657201" lon="-6.003337836084417"><ele>50.0</ele><time>2026-04-22T12:38:22.999Z</time></trkpt><trkpt lat="35.470194432997666" lon="-6.003470232328355"><ele>50.00000000000001</ele><time>2026-04-22T12:38:24.999Z</time></trkpt><trkpt lat="35.47017762586235" lon="-6.003545599337339"><ele>50.0</ele><time>2026-04-22T12:38:25.999Z</time></trkpt><trkpt lat="35.470194154363504" lon="-6.003637450561546"><ele>50.0</ele><time>2026-04-22T12:38:26.999Z</time></trkpt><trkpt lat="35.4701730326218" lon="-6.003721261446877"><ele>50.0</ele><time>2026-04-22T12:38:27.999Z</time></trkpt><trkpt lat="35.47008656907206" lon="-6.0037786628271625"><ele>50.00000000000001</ele><time>2026-04-22T12:38:28.999Z</time></trkpt><trkpt lat="35.470050078138065" lon="-6.003854174577354"><ele>50.0</ele><time>2026-04-22T12:38:29.999Z</time></trkpt><trkpt lat="35.47001596683307" lon="-6.0039295546716165"><ele>50.0</ele><time>2026-04-22T12:38:30.999Z</time></trkpt><trkpt lat="35.47006973780133" lon="-6.0041003343810635"><ele>50.0</ele><time>2026-04-22T12:38:32.999Z</time></trkpt><trkpt lat="35.47004275303262" lon="-6.004184886164818"><ele>50.0</ele><time>2026-04-22T12:38:34.999Z</time></trkpt><trkpt lat="35.46991013964754" lon="-6.00416361747352"><ele>50.0</ele><time>2026-04-22T12:38:35.999Z</time></trkpt><trkpt lat="35.46986694208186" lon="-6.004223045253564"><ele>50.0</ele><time>2026-04-22T12:38:38.999Z</time></trkpt><trkpt lat="35.469638848950034" lon="-6.004011256620579"><ele>50.0</ele><time>2026-04-22T12:38:40.999Z</time></trkpt><trkpt lat="35.46959395040132" lon="-6.004070221082932"><ele>50.0</ele><time>2026-04-22T12:38:44.999Z</time></trkpt><trkpt lat="35.46954779874465" lon="-6.004131062083159"><ele>50.0</ele><time>2026-04-22T12:40:55Z</time></trkpt><trkpt lat="35.46950253470975" lon="-6.00419170979844"><ele>50.0</ele><time>2026-04-22T12:41:12Z</time></trkpt><trkpt lat="35.46971192624498" lon="-6.004461172938376"><ele>49.57142857142858</ele><time>2026-04-22T12:41:18Z</time></trkpt><trkpt lat="35.469748826181515" lon="-6.00452593165011"><ele>49.142857142857146</ele><time>2026-04-22T12:41:25Z</time></trkpt><trkpt lat="35.469760313907656" lon="-6.004603667767567"><ele>48.714285714285715</ele><time>2026-04-22T12:41:49.001Z</time></trkpt><trkpt lat="35.469697454248895" lon="-6.004572164889819"><ele>48.28571428571429</ele><time>2026-04-22T12:42:27Z</time></trkpt><trkpt lat="35.46969632067299" lon="-6.004492589659896"><ele>47.857142857142854</ele><time>2026-04-22T12:42:35Z</time></trkpt><trkpt lat="35.469669355563475" lon="-6.004409651058777"><ele>47.42857142857143</ele><time>2026-04-22T12:42:43Z</time></trkpt><trkpt lat="35.46971880949256" lon="-6.0044616221758025"><ele>47.0</ele><time>2026-04-22T13:43:08.999Z</time></trkpt><trkpt lat="35.46968004324976" lon="-6.0045388103225035"><ele>47.0</ele><time>2026-04-22T13:43:13.999Z</time></trkpt><trkpt lat="35.46962864764021" lon="-6.004589696982695"><ele>47.0</ele><time>2026-04-22T13:43:21.999Z</time></trkpt><trkpt lat="35.46960203350262" lon="-6.004665496935866"><ele>47.0</ele><time>2026-04-22T13:43:25.999Z</time></trkpt><trkpt lat="35.46959313175726" lon="-6.004753851700318"><ele>47.0</ele><time>2026-04-22T13:43:30.999Z</time></trkpt><trkpt lat="35.469584527417624" lon="-6.004832274557539"><ele>47.0</ele><time>2026-04-22T13:43:34.999Z</time></trkpt><trkpt lat="35.46955501984119" lon="-6.0049044100219975"><ele>47.0</ele><time>2026-04-22T13:43:40.999Z</time></trkpt><trkpt lat="35.469520733235306" lon="-6.004972091255071"><ele>47.0</ele><time>2026-04-22T13:43:44.999Z</time></trkpt><trkpt lat="35.46959790982928" lon="-6.004936343568215"><ele>47.0</ele><time>2026-04-22T13:43:53.999Z</time></trkpt><trkpt lat="35.469649577266324" lon="-6.004802496409278"><ele>47.0</ele><time>2026-04-22T13:45:04.015Z</time></trkpt><trkpt lat="35.46961000896159" lon="-6.004741543389679"><ele>47.0</ele><time>2026-04-22T13:45:50.997Z</time></trkpt><trkpt lat="35.46968153577036" lon="-6.004715922418471"><ele>47.0</ele><time>2026-04-22T13:46:02.999Z</time></trkpt><trkpt lat="35.469727014985985" lon="-6.004659525226131"><ele>47.0</ele><time>2026-04-22T13:46:08.999Z</time></trkpt><trkpt lat="35.46973669511438" lon="-6.004582141989483"><ele>47.0</ele><time>2026-04-22T13:46:18.999Z</time></trkpt><trkpt lat="35.46972204361439" lon="-6.004479185664999"><ele>47.0</ele><time>2026-04-22T13:46:23.999Z</time></trkpt><trkpt lat="35.469683829209295" lon="-6.004410507721303"><ele>47.0</ele><time>2026-04-22T13:46:26.999Z</time></trkpt><trkpt lat="35.469746443708964" lon="-6.004395047753377"><ele>47.0</ele><time>2026-04-22T13:52:16.999Z</time></trkpt><trkpt lat="35.46979016277465" lon="-6.004338063134547"><ele>47.0</ele><time>2026-04-22T13:52:21.999Z</time></trkpt><trkpt lat="35.469791077230674" lon="-6.0042165512800985"><ele>47.0</ele><time>2026-04-22T14:05:51Z</time></trkpt><trkpt lat="35.46972070917114" lon="-6.0041868795600495"><ele>47.0</ele><time>2026-04-22T14:05:53Z</time></trkpt><trkpt lat="35.46965308171161" lon="-6.004176530809872"><ele>47.0</ele><time>2026-04-22T14:05:54Z</time></trkpt><trkpt lat="35.46955083746781" lon="-6.00419433335026"><ele>47.33333333333333</ele><time>2026-04-22T14:05:56Z</time></trkpt><trkpt lat="35.46944522886585" lon="-6.00427028526636"><ele>47.666666666666664</ele><time>2026-04-22T14:05:58Z</time></trkpt><trkpt lat="35.469399718968546" lon="-6.004332686620028"><ele>48.0</ele><time>2026-04-22T14:05:59Z</time></trkpt><trkpt lat="35.46935008653018" lon="-6.004400740509948"><ele>48.33333333333333</ele><time>2026-04-22T14:06:00Z</time></trkpt><trkpt lat="35.469295730913025" lon="-6.004473099238085"><ele>48.666666666666664</ele><time>2026-04-22T14:06:01Z</time></trkpt><trkpt lat="35.46923992638833" lon="-6.004547756273537"><ele>49.0</ele><time>2026-04-22T14:06:02Z</time></trkpt><trkpt lat="35.46919993299028" lon="-6.004638928291589"><ele>49.0</ele><time>2026-04-22T14:06:03Z</time></trkpt><trkpt lat="35.46914067918618" lon="-6.004716313662275"><ele>49.0</ele><time>2026-04-22T14:06:04Z</time></trkpt><trkpt lat="35.469080339720904" lon="-6.004799086977118"><ele>49.0</ele><time>2026-04-22T14:06:05Z</time></trkpt><trkpt lat="35.46901797570676" lon="-6.004884578566546"><ele>49.0</ele><time>2026-04-22T14:06:06Z</time></trkpt><trkpt lat="35.46895504509891" lon="-6.004970917011748"><ele>49.0</ele><time>2026-04-22T14:06:07Z</time></trkpt><trkpt lat="35.46888986737495" lon="-6.005058023763064"><ele>48.800000000000004</ele><time>2026-04-22T14:06:08Z</time></trkpt><trkpt lat="35.468823574053694" lon="-6.005143489143358"><ele>48.6</ele><time>2026-04-22T14:06:09Z</time></trkpt><trkpt lat="35.46875691183489" lon="-6.005229554902864"><ele>48.4</ele><time>2026-04-22T14:06:10Z</time></trkpt><trkpt lat="35.468688995497565" lon="-6.005318032506975"><ele>48.2</ele><time>2026-04-22T14:06:11Z</time></trkpt><trkpt lat="35.46861899853987" lon="-6.0054073076872045"><ele>48.0</ele><time>2026-04-22T14:06:12Z</time></trkpt><trkpt lat="35.46854798367562" lon="-6.005497970731139"><ele>48.0</ele><time>2026-04-22T14:06:13Z</time></trkpt><trkpt lat="35.468475265204134" lon="-6.005591479832789"><ele>48.0</ele><time>2026-04-22T14:06:14Z</time></trkpt><trkpt lat="35.46840048694799" lon="-6.005687393683864"><ele>48.0</ele><time>2026-04-22T14:06:15Z</time></trkpt><trkpt lat="35.46832331008795" lon="-6.005785524306784"><ele>48.0</ele><time>2026-04-22T14:06:16Z</time></trkpt><trkpt lat="35.46823669725469" lon="-6.0058842686707115"><ele>48.0</ele><time>2026-04-22T14:06:17Z</time></trkpt><trkpt lat="35.46813945126191" lon="-6.005973878278416"><ele>48.25</ele><time>2026-04-22T14:06:18Z</time></trkpt><trkpt lat="35.46803296574837" lon="-6.006056627489175"><ele>48.5</ele><time>2026-04-22T14:06:19Z</time></trkpt><trkpt lat="35.467918429155525" lon="-6.006136225428917"><ele>48.75</ele><time>2026-04-22T14:06:20Z</time></trkpt><trkpt lat="35.46780005531981" lon="-6.006215461148532"><ele>49.0</ele><time>2026-04-22T14:06:21Z</time></trkpt><trkpt lat="35.46767792684165" lon="-6.006294618087827"><ele>49.0</ele><time>2026-04-22T14:06:22Z</time></trkpt><trkpt lat="35.46755108240061" lon="-6.006371757920173"><ele>49.0</ele><time>2026-04-22T14:06:23Z</time></trkpt><trkpt lat="35.467423810436024" lon="-6.006459958193392"><ele>49.0</ele><time>2026-04-22T14:06:24Z</time></trkpt><trkpt lat="35.46729927040222" lon="-6.006558866492099"><ele>49.0</ele><time>2026-04-22T14:06:25Z</time></trkpt><trkpt lat="35.46718020031236" lon="-6.006671117477989"><ele>47.0</ele><time>2026-04-22T14:06:26Z</time></trkpt><trkpt lat="35.467068358117" lon="-6.006795646078407"><ele>45.0</ele><time>2026-04-22T14:06:27Z</time></trkpt><trkpt lat="35.46696063805896" lon="-6.006929895240244"><ele>43.0</ele><time>2026-04-22T14:06:28Z</time></trkpt><trkpt lat="35.46685116522595" lon="-6.007071264024452"><ele>43.0</ele><time>2026-04-22T14:06:29Z</time></trkpt><trkpt lat="35.46673971577021" lon="-6.007221216543592"><ele>43.0</ele><time>2026-04-22T14:06:30Z</time></trkpt><trkpt lat="35.46661973977903" lon="-6.007374589858742"><ele>43.0</ele><time>2026-04-22T14:06:31Z</time></trkpt><trkpt lat="35.4664965989447" lon="-6.007535653025132"><ele>42.0</ele><time>2026-04-22T14:06:32Z</time></trkpt><trkpt lat="35.46637376300355" lon="-6.007696135004814"><ele>41.0</ele><time>2026-04-22T14:06:33Z</time></trkpt><trkpt lat="35.46624572729998" lon="-6.007864009365673"><ele>40.0</ele><time>2026-04-22T14:06:34Z</time></trkpt><trkpt lat="35.4661121426064" lon="-6.008037967520086"><ele>40.0</ele><time>2026-04-22T14:06:35Z</time></trkpt><trkpt lat="35.46597595191872" lon="-6.008214447525563"><ele>40.0</ele><time>2026-04-22T14:06:36Z</time></trkpt><trkpt lat="35.465837119171184" lon="-6.008394440642866"><ele>40.0</ele><time>2026-04-22T14:06:37Z</time></trkpt><trkpt lat="35.46569305705518" lon="-6.008577124339732"><ele>40.333333333333336</ele><time>2026-04-22T14:06:38Z</time></trkpt><trkpt lat="35.46554800701352" lon="-6.0087696591101265"><ele>40.666666666666664</ele><time>2026-04-22T14:06:39Z</time></trkpt><trkpt lat="35.465398263591396" lon="-6.008969150402712"><ele>41.0</ele><time>2026-04-22T14:06:40Z</time></trkpt><trkpt lat="35.465244605575656" lon="-6.0091721579536985"><ele>41.0</ele><time>2026-04-22T14:06:41Z</time></trkpt><trkpt lat="35.465087001185594" lon="-6.009380299393385"><ele>41.0</ele><time>2026-04-22T14:06:42Z</time></trkpt><trkpt lat="35.46492463925615" lon="-6.009595049514726"><ele>41.0</ele><time>2026-04-22T14:06:43Z</time></trkpt><trkpt lat="35.4647611620015" lon="-6.009810410794785"><ele>41.0</ele><time>2026-04-22T14:06:44Z</time></trkpt><trkpt lat="35.46459710735212" lon="-6.010028309853856"><ele>38.0</ele><time>2026-04-22T14:06:45Z</time></trkpt><trkpt lat="35.4644282805047" lon="-6.010248044650017"><ele>35.0</ele><time>2026-04-22T14:06:46Z</time></trkpt><trkpt lat="35.46425647428963" lon="-6.010469240743308"><ele>35.0</ele><time>2026-04-22T14:06:47Z</time></trkpt><trkpt lat="35.46408443089508" lon="-6.010696532903001"><ele>35.0</ele><time>2026-04-22T14:06:48Z</time></trkpt><trkpt lat="35.463906361177955" lon="-6.010925452248379"><ele>31.0</ele><time>2026-04-22T14:06:49Z</time></trkpt><trkpt lat="35.46372371948145" lon="-6.011160807226888"><ele>27.0</ele><time>2026-04-22T14:06:50Z</time></trkpt><trkpt lat="35.46354034452717" lon="-6.011402707397048"><ele>27.0</ele><time>2026-04-22T14:06:51Z</time></trkpt><trkpt lat="35.463355031759214" lon="-6.01165151125241"><ele>27.0</ele><time>2026-04-22T14:06:52Z</time></trkpt><trkpt lat="35.46316546579369" lon="-6.011899232261407"><ele>23.5</ele><time>2026-04-22T14:06:53Z</time></trkpt><trkpt lat="35.46295764031554" lon="-6.012131610965186"><ele>20.0</ele><time>2026-04-22T14:06:54Z</time></trkpt><trkpt lat="35.4627571414625" lon="-6.012382305942163"><ele>16.5</ele><time>2026-04-22T14:06:55Z</time></trkpt><trkpt lat="35.46256543574252" lon="-6.012647612476976"><ele>13.0</ele><time>2026-04-22T14:06:56Z</time></trkpt><trkpt lat="35.46235994806464" lon="-6.012892921583701"><ele>13.0</ele><time>2026-04-22T14:06:57Z</time></trkpt><trkpt lat="35.46215140484991" lon="-6.013133372022559"><ele>13.0</ele><time>2026-04-22T14:06:58Z</time></trkpt><trkpt lat="35.4619483015963" lon="-6.013374531678361"><ele>11.0</ele><time>2026-04-22T14:06:59Z</time></trkpt><trkpt lat="35.46172893894075" lon="-6.013600361366059"><ele>9.0</ele><time>2026-04-22T14:07:00Z</time></trkpt><trkpt lat="35.46152967781738" lon="-6.013851127894438"><ele>9.0</ele><time>2026-04-22T14:07:01Z</time></trkpt><trkpt lat="35.46131711442602" lon="-6.0140846418652405"><ele>9.0</ele><time>2026-04-22T14:07:02Z</time></trkpt><trkpt lat="35.46109783917675" lon="-6.014306522889843"><ele>8.0</ele><time>2026-04-22T14:07:03Z</time></trkpt><trkpt lat="35.460882352566166" lon="-6.0145351421168245"><ele>7.0</ele><time>2026-04-22T14:07:04Z</time></trkpt><trkpt lat="35.46066553017875" lon="-6.0147644781253184"><ele>7.5</ele><time>2026-04-22T14:07:05Z</time></trkpt><trkpt lat="35.46044998491242" lon="-6.01499761051946"><ele>8.0</ele><time>2026-04-22T14:07:06Z</time></trkpt><trkpt lat="35.46023926136505" lon="-6.015235473042358"><ele>10.5</ele><time>2026-04-22T14:07:07Z</time></trkpt><trkpt lat="35.460031020124525" lon="-6.015478811562336"><ele>13.0</ele><time>2026-04-22T14:07:08Z</time></trkpt><trkpt lat="35.45980902562369" lon="-6.015703111017233"><ele>21.0</ele><time>2026-04-22T14:07:09Z</time></trkpt><trkpt lat="35.45958752979373" lon="-6.015927814831375"><ele>29.0</ele><time>2026-04-22T14:07:10Z</time></trkpt><trkpt lat="35.459365051993096" lon="-6.016151067709595"><ele>29.0</ele><time>2026-04-22T14:07:11Z</time></trkpt><trkpt lat="35.45913788092337" lon="-6.016367136702592"><ele>29.0</ele><time>2026-04-22T14:07:12Z</time></trkpt><trkpt lat="35.45890809261029" lon="-6.016580079310712"><ele>36.0</ele><time>2026-04-22T14:07:13Z</time></trkpt><trkpt lat="35.45867802640845" lon="-6.016789863661901"><ele>43.0</ele><time>2026-04-22T14:07:14Z</time></trkpt><trkpt lat="35.45844481867338" lon="-6.016997447593754"><ele>43.0</ele><time>2026-04-22T14:07:15Z</time></trkpt><trkpt lat="35.458211221156795" lon="-6.017201691633121"><ele>43.0</ele><time>2026-04-22T14:07:16Z</time></trkpt><trkpt lat="35.45797636115778" lon="-6.017407646222199"><ele>46.5</ele><time>2026-04-22T14:07:17Z</time></trkpt><trkpt lat="35.457739274975836" lon="-6.017612444717371"><ele>50.0</ele><time>2026-04-22T14:07:18Z</time></trkpt><trkpt lat="35.45750218163831" lon="-6.0178128308030825"><ele>50.0</ele><time>2026-04-22T14:07:19Z</time></trkpt><trkpt lat="35.4572631222484" lon="-6.018006762510417"><ele>50.0</ele><time>2026-04-22T14:07:20Z</time></trkpt><trkpt lat="35.45702366722648" lon="-6.018204994608402"><ele>49.5</ele><time>2026-04-22T14:07:21Z</time></trkpt><trkpt lat="35.456780523958" lon="-6.0183943847688015"><ele>49.0</ele><time>2026-04-22T14:07:22Z</time></trkpt><trkpt lat="35.4565328918365" lon="-6.018576314695128"><ele>46.0</ele><time>2026-04-22T14:07:23Z</time></trkpt><trkpt lat="35.456283920091046" lon="-6.018754544346376"><ele>43.0</ele><time>2026-04-22T14:07:24Z</time></trkpt><trkpt lat="35.45603329810772" lon="-6.018928146808285"><ele>43.0</ele><time>2026-04-22T14:07:25Z</time></trkpt><trkpt lat="35.45578135561032" lon="-6.019102423738268"><ele>43.0</ele><time>2026-04-22T14:07:26Z</time></trkpt><trkpt lat="35.45553031793548" lon="-6.019278027194156"><ele>44.5</ele><time>2026-04-22T14:07:27Z</time></trkpt><trkpt lat="35.45527691842099" lon="-6.019450291881499"><ele>46.0</ele><time>2026-04-22T14:07:28Z</time></trkpt><trkpt lat="35.45502164039143" lon="-6.019619302845134"><ele>46.0</ele><time>2026-04-22T14:07:29Z</time></trkpt><trkpt lat="35.45476729706447" lon="-6.01978969234129"><ele>46.0</ele><time>2026-04-22T14:07:30Z</time></trkpt><trkpt lat="35.45451058654464" lon="-6.019955424534103"><ele>49.0</ele><time>2026-04-22T14:07:31Z</time></trkpt><trkpt lat="35.45425247206954" lon="-6.020118420851017"><ele>52.0</ele><time>2026-04-22T14:07:32Z</time></trkpt><trkpt lat="35.45399367950182" lon="-6.020277067542532"><ele>52.0</ele><time>2026-04-22T14:07:33Z</time></trkpt><trkpt lat="35.453730842863195" lon="-6.020421595754413"><ele>52.0</ele><time>2026-04-22T14:07:34Z</time></trkpt><trkpt lat="35.45346643662074" lon="-6.0205652102197575"><ele>52.0</ele><time>2026-04-22T14:07:35Z</time></trkpt><trkpt lat="35.453200648052025" lon="-6.020702825688662"><ele>52.0</ele><time>2026-04-22T14:07:36Z</time></trkpt><trkpt lat="35.45293258239864" lon="-6.020839060269189"><ele>53.0</ele><time>2026-04-22T14:07:37Z</time></trkpt><trkpt lat="35.452662737586415" lon="-6.020975898348761"><ele>54.0</ele><time>2026-04-22T14:07:38Z</time></trkpt><trkpt lat="35.452393290682885" lon="-6.02111535782296"><ele>54.0</ele><time>2026-04-22T14:07:39Z</time></trkpt><trkpt lat="35.45212464088279" lon="-6.021256343255334"><ele>54.0</ele><time>2026-04-22T14:07:40Z</time></trkpt><trkpt lat="35.451856194367345" lon="-6.021395060036004"><ele>55.0</ele><time>2026-04-22T14:07:41Z</time></trkpt><trkpt lat="35.45158669283132" lon="-6.021530049281092"><ele>56.0</ele><time>2026-04-22T14:07:42Z</time></trkpt><trkpt lat="35.45131516129778" lon="-6.021658860936493"><ele>57.5</ele><time>2026-04-22T14:07:43Z</time></trkpt><trkpt lat="35.451042554230824" lon="-6.021784284138254"><ele>59.0</ele><time>2026-04-22T14:07:44Z</time></trkpt><trkpt lat="35.450769639335896" lon="-6.021907100959414"><ele>59.0</ele><time>2026-04-22T14:07:45Z</time></trkpt><trkpt lat="35.45049534262289" lon="-6.02202692016947"><ele>59.0</ele><time>2026-04-22T14:07:46Z</time></trkpt><trkpt lat="35.45021953257726" lon="-6.0221420340241"><ele>59.0</ele><time>2026-04-22T14:07:47Z</time></trkpt><trkpt lat="35.44994292219522" lon="-6.022251300550563"><ele>59.0</ele><time>2026-04-22T14:07:48Z</time></trkpt><trkpt lat="35.44966545605912" lon="-6.022356802486974"><ele>59.5</ele><time>2026-04-22T14:07:49Z</time></trkpt><trkpt lat="35.44938549419225" lon="-6.02245977218939"><ele>60.0</ele><time>2026-04-22T14:07:50Z</time></trkpt><trkpt lat="35.44910548993282" lon="-6.0225606239422556"><ele>60.0</ele><time>2026-04-22T14:07:51Z</time></trkpt><trkpt lat="35.44882492405767" lon="-6.022660965112316"><ele>60.0</ele><time>2026-04-22T14:07:52Z</time></trkpt><trkpt lat="35.44854428326379" lon="-6.022760507899851"><ele>61.5</ele><time>2026-04-22T14:07:53Z</time></trkpt><trkpt lat="35.44826269235926" lon="-6.022862413813331"><ele>63.0</ele><time>2026-04-22T14:07:54Z</time></trkpt><trkpt lat="35.44798293929543" lon="-6.022964149495378"><ele>63.5</ele><time>2026-04-22T14:07:55Z</time></trkpt><trkpt lat="35.44770218618134" lon="-6.023066277057553"><ele>64.0</ele><time>2026-04-22T14:07:56Z</time></trkpt><trkpt lat="35.44742165100856" lon="-6.023167781785564"><ele>64.0</ele><time>2026-04-22T14:07:57Z</time></trkpt><trkpt lat="35.44714073596738" lon="-6.023266460966737"><ele>64.0</ele><time>2026-04-22T14:07:58Z</time></trkpt><trkpt lat="35.44685950106459" lon="-6.023362088239931"><ele>64.0</ele><time>2026-04-22T14:07:59Z</time></trkpt><trkpt lat="35.4465796167184" lon="-6.023457358785257"><ele>64.0</ele><time>2026-04-22T14:08:00Z</time></trkpt><trkpt lat="35.44630292723542" lon="-6.023552008643082"><ele>63.5</ele><time>2026-04-22T14:08:01Z</time></trkpt><trkpt lat="35.44604288205978" lon="-6.023642511794027"><ele>63.0</ele><time>2026-04-22T14:08:02Z</time></trkpt><trkpt lat="35.44577791995423" lon="-6.023736332437046"><ele>63.0</ele><time>2026-04-22T14:08:03Z</time></trkpt><trkpt lat="35.445506009296814" lon="-6.023835817879339"><ele>63.0</ele><time>2026-04-22T14:08:04Z</time></trkpt><trkpt lat="35.44523259162987" lon="-6.0239374646059245"><ele>63.0</ele><time>2026-04-22T14:08:05Z</time></trkpt><trkpt lat="35.44495748621478" lon="-6.024039328690192"><ele>63.0</ele><time>2026-04-22T14:08:06Z</time></trkpt><trkpt lat="35.44468238165685" lon="-6.024140195789215"><ele>66.5</ele><time>2026-04-22T14:08:07Z</time></trkpt><trkpt lat="35.44440491427406" lon="-6.024240956895986"><ele>70.0</ele><time>2026-04-22T14:08:08Z</time></trkpt><trkpt lat="35.44412787327295" lon="-6.024340601593976"><ele>70.0</ele><time>2026-04-22T14:08:09Z</time></trkpt><trkpt lat="35.443849150264334" lon="-6.024437777854158"><ele>70.0</ele><time>2026-04-22T14:08:10Z</time></trkpt><trkpt lat="35.443570128469226" lon="-6.024533980827622"><ele>72.0</ele><time>2026-04-22T14:08:11Z</time></trkpt><trkpt lat="35.4432906378856" lon="-6.024631351841225"><ele>74.0</ele><time>2026-04-22T14:08:12Z</time></trkpt><trkpt lat="35.44301150601157" lon="-6.024728968643935"><ele>71.0</ele><time>2026-04-22T14:08:13Z</time></trkpt><trkpt lat="35.44273255208777" lon="-6.024825761844998"><ele>68.0</ele><time>2026-04-22T14:08:14Z</time></trkpt><trkpt lat="35.44245403399309" lon="-6.024924172471394"><ele>69.0</ele><time>2026-04-22T14:08:15Z</time></trkpt><trkpt lat="35.44217480633586" lon="-6.025024040214116"><ele>70.0</ele><time>2026-04-22T14:08:16Z</time></trkpt><trkpt lat="35.44189548081486" lon="-6.025124111096245"><ele>66.0</ele><time>2026-04-22T14:08:17Z</time></trkpt><trkpt lat="35.441615538098475" lon="-6.025221790501322"><ele>62.0</ele><time>2026-04-22T14:08:18Z</time></trkpt><trkpt lat="35.44133425492389" lon="-6.025321257958948"><ele>62.0</ele><time>2026-04-22T14:08:19Z</time></trkpt><trkpt lat="35.44105427357731" lon="-6.025424862121305"><ele>62.0</ele><time>2026-04-22T14:08:20Z</time></trkpt><trkpt lat="35.440775186735856" lon="-6.025527164560628"><ele>62.0</ele><time>2026-04-22T14:08:21Z</time></trkpt><trkpt lat="35.44049648811241" lon="-6.025630962798424"><ele>62.0</ele><time>2026-04-22T14:08:22Z</time></trkpt><trkpt lat="35.440218086692646" lon="-6.025738511432977"><ele>65.5</ele><time>2026-04-22T14:08:23Z</time></trkpt><trkpt lat="35.43993923498135" lon="-6.025842456515356"><ele>69.0</ele><time>2026-04-22T14:08:24Z</time></trkpt><trkpt lat="35.43965962879871" lon="-6.025943386524901"><ele>68.0</ele><time>2026-04-22T14:08:25Z</time></trkpt><trkpt lat="35.43938011176402" lon="-6.026040954421157"><ele>67.0</ele><time>2026-04-22T14:08:26Z</time></trkpt><trkpt lat="35.43910049575198" lon="-6.0261406974949585"><ele>67.0</ele><time>2026-04-22T14:08:27Z</time></trkpt><trkpt lat="35.438821727683845" lon="-6.026237248164491"><ele>67.0</ele><time>2026-04-22T14:08:28Z</time></trkpt><trkpt lat="35.43854368042358" lon="-6.026337256976016"><ele>66.5</ele><time>2026-04-22T14:08:29Z</time></trkpt><trkpt lat="35.438265425675525" lon="-6.026429608603158"><ele>66.0</ele><time>2026-04-22T14:08:30Z</time></trkpt><trkpt lat="35.437984603016005" lon="-6.026522163381853"><ele>67.0</ele><time>2026-04-22T14:08:31Z</time></trkpt><trkpt lat="35.43770095011465" lon="-6.026609096334318"><ele>68.0</ele><time>2026-04-22T14:08:32Z</time></trkpt><trkpt lat="35.437418071019735" lon="-6.026691949094237"><ele>70.5</ele><time>2026-04-22T14:08:33Z</time></trkpt><trkpt lat="35.437132279271154" lon="-6.026765293893296"><ele>73.0</ele><time>2026-04-22T14:08:34Z</time></trkpt><trkpt lat="35.43684514093613" lon="-6.026833134750548"><ele>73.0</ele><time>2026-04-22T14:08:35Z</time></trkpt><trkpt lat="35.436557945365074" lon="-6.026897746067574"><ele>73.0</ele><time>2026-04-22T14:08:35.999Z</time></trkpt><trkpt lat="35.436270834411445" lon="-6.0269565869300274"><ele>70.5</ele><time>2026-04-22T14:08:36.999Z</time></trkpt><trkpt lat="35.43598329702004" lon="-6.027009570404683"><ele>68.0</ele><time>2026-04-22T14:08:37.999Z</time></trkpt><trkpt lat="35.435693096635525" lon="-6.027061403054028"><ele>68.0</ele><time>2026-04-22T14:08:38.999Z</time></trkpt><trkpt lat="35.4354042041683" lon="-6.027111124638453"><ele>68.0</ele><time>2026-04-22T14:08:39.999Z</time></trkpt><trkpt lat="35.43511554252014" lon="-6.027158133816726"><ele>68.0</ele><time>2026-04-22T14:08:40.999Z</time></trkpt><trkpt lat="35.43482639151332" lon="-6.027200442421796"><ele>68.0</ele><time>2026-04-22T14:08:41.999Z</time></trkpt><trkpt lat="35.43453809361701" lon="-6.027236098143098"><ele>69.0</ele><time>2026-04-22T14:08:42.999Z</time></trkpt><trkpt lat="35.43424802500195" lon="-6.027268376704686"><ele>70.0</ele><time>2026-04-22T14:08:43.999Z</time></trkpt><trkpt lat="35.433957805293055" lon="-6.027300629717859"><ele>70.0</ele><time>2026-04-22T14:08:44.999Z</time></trkpt><trkpt lat="35.433667997464504" lon="-6.0273310051264914"><ele>70.0</ele><time>2026-04-22T14:08:45.999Z</time></trkpt><trkpt lat="35.4333778658086" lon="-6.027358229400404"><ele>70.0</ele><time>2026-04-22T14:08:46.999Z</time></trkpt><trkpt lat="35.4330863548134" lon="-6.027383035731399"><ele>70.0</ele><time>2026-04-22T14:08:47.999Z</time></trkpt><trkpt lat="35.43279401946884" lon="-6.027405280417209"><ele>71.0</ele><time>2026-04-22T14:08:48.999Z</time></trkpt><trkpt lat="35.43250194450809" lon="-6.027424851922348"><ele>72.0</ele><time>2026-04-22T14:08:49.999Z</time></trkpt><trkpt lat="35.43220989063581" lon="-6.027439890564046"><ele>74.5</ele><time>2026-04-22T14:08:50.999Z</time></trkpt><trkpt lat="35.43191861255491" lon="-6.027443537176814"><ele>77.0</ele><time>2026-04-22T14:08:51.999Z</time></trkpt><trkpt lat="35.43162773241183" lon="-6.027442388540303"><ele>77.0</ele><time>2026-04-22T14:08:52.999Z</time></trkpt><trkpt lat="35.43133675695416" lon="-6.027438229929481"><ele>77.0</ele><time>2026-04-22T14:08:53.999Z</time></trkpt><trkpt lat="35.431044985647496" lon="-6.027425398503399"><ele>79.0</ele><time>2026-04-22T14:08:54.999Z</time></trkpt><trkpt lat="35.430752265795185" lon="-6.027411297473394"><ele>81.0</ele><time>2026-04-22T14:08:56Z</time></trkpt><trkpt lat="35.43046003767079" lon="-6.027395328475183"><ele>81.0</ele><time>2026-04-22T14:08:57Z</time></trkpt><trkpt lat="35.430168252905865" lon="-6.027374964297968"><ele>81.0</ele><time>2026-04-22T14:08:58Z</time></trkpt><trkpt lat="35.42987628616727" lon="-6.02735223927739"><ele>78.0</ele><time>2026-04-22T14:08:59Z</time></trkpt><trkpt lat="35.42958568630271" lon="-6.027320145952224"><ele>75.0</ele><time>2026-04-22T14:09:00Z</time></trkpt><trkpt lat="35.42929562512553" lon="-6.027286258175199"><ele>75.0</ele><time>2026-04-22T14:09:01Z</time></trkpt><trkpt lat="35.429005800888206" lon="-6.0272498241287416"><ele>75.0</ele><time>2026-04-22T14:09:02Z</time></trkpt><trkpt lat="35.428715727962164" lon="-6.0272073516989115"><ele>73.0</ele><time>2026-04-22T14:09:03Z</time></trkpt><trkpt lat="35.42842554606052" lon="-6.027161197264656"><ele>71.0</ele><time>2026-04-22T14:09:04Z</time></trkpt><trkpt lat="35.42813654755047" lon="-6.027113262918862"><ele>69.0</ele><time>2026-04-22T14:09:05Z</time></trkpt><trkpt lat="35.427847406655275" lon="-6.02705964039385"><ele>67.0</ele><time>2026-04-22T14:09:06Z</time></trkpt><trkpt lat="35.427559340285924" lon="-6.026999573863671"><ele>67.0</ele><time>2026-04-22T14:09:07Z</time></trkpt><trkpt lat="35.427270528342355" lon="-6.026937292149879"><ele>67.0</ele><time>2026-04-22T14:09:08Z</time></trkpt><trkpt lat="35.426984947683316" lon="-6.02686666937664"><ele>65.0</ele><time>2026-04-22T14:09:09Z</time></trkpt><trkpt lat="35.426700231201366" lon="-6.026794155479243"><ele>63.0</ele><time>2026-04-22T14:09:10Z</time></trkpt><trkpt lat="35.42641524218533" lon="-6.026720325616796"><ele>61.0</ele><time>2026-04-22T14:09:11Z</time></trkpt><trkpt lat="35.426130322489456" lon="-6.026644554452362"><ele>59.0</ele><time>2026-04-22T14:09:12Z</time></trkpt><trkpt lat="35.42584558692905" lon="-6.026569477043442"><ele>53.5</ele><time>2026-04-22T14:09:13Z</time></trkpt><trkpt lat="35.42556216449347" lon="-6.026489379300941"><ele>48.0</ele><time>2026-04-22T14:09:14Z</time></trkpt><trkpt lat="35.42527784381959" lon="-6.026409991520664"><ele>45.5</ele><time>2026-04-22T14:09:15Z</time></trkpt><trkpt lat="35.42499436738866" lon="-6.0263310968879455"><ele>43.0</ele><time>2026-04-22T14:09:16Z</time></trkpt><trkpt lat="35.42471152499455" lon="-6.026249832421017"><ele>38.0</ele><time>2026-04-22T14:09:17Z</time></trkpt><trkpt lat="35.42442631914669" lon="-6.026172024836297"><ele>33.0</ele><time>2026-04-22T14:09:18Z</time></trkpt><trkpt lat="35.42414673321484" lon="-6.0260736104419665"><ele>33.0</ele><time>2026-04-22T14:09:19Z</time></trkpt><trkpt lat="35.423864659489766" lon="-6.025989494526231"><ele>33.0</ele><time>2026-04-22T14:09:20Z</time></trkpt><trkpt lat="35.42358330495399" lon="-6.0259093163223385"><ele>33.0</ele><time>2026-04-22T14:09:21Z</time></trkpt><trkpt lat="35.42330191544393" lon="-6.0258287738942276"><ele>33.0</ele><time>2026-04-22T14:09:22Z</time></trkpt><trkpt lat="35.423021114957116" lon="-6.025749606429248"><ele>32.5</ele><time>2026-04-22T14:09:23Z</time></trkpt><trkpt lat="35.42274059675471" lon="-6.025670316435651"><ele>32.0</ele><time>2026-04-22T14:09:24Z</time></trkpt><trkpt lat="35.42246044848491" lon="-6.02558997969551"><ele>32.0</ele><time>2026-04-22T14:09:25Z</time></trkpt><trkpt lat="35.422179114133264" lon="-6.025512841231457"><ele>32.0</ele><time>2026-04-22T14:09:26Z</time></trkpt><trkpt lat="35.42189691494492" lon="-6.025436246442903"><ele>31.5</ele><time>2026-04-22T14:09:27Z</time></trkpt><trkpt lat="35.421614456860034" lon="-6.02535923821049"><ele>31.0</ele><time>2026-04-22T14:09:28Z</time></trkpt><trkpt lat="35.42133268708428" lon="-6.025282475372371"><ele>32.0</ele><time>2026-04-22T14:09:29Z</time></trkpt><trkpt lat="35.42105058967937" lon="-6.025205234455285"><ele>33.0</ele><time>2026-04-22T14:09:30Z</time></trkpt><trkpt lat="35.420765295337276" lon="-6.025131910269717"><ele>35.0</ele><time>2026-04-22T14:09:31Z</time></trkpt><trkpt lat="35.42048017041753" lon="-6.025060849001799"><ele>37.0</ele><time>2026-04-22T14:09:32Z</time></trkpt><trkpt lat="35.42019219953006" lon="-6.0250053160075225"><ele>37.5</ele><time>2026-04-22T14:09:33Z</time></trkpt><trkpt lat="35.419907245212904" lon="-6.024930061531266"><ele>38.0</ele><time>2026-04-22T14:09:34Z</time></trkpt><trkpt lat="35.419622879609726" lon="-6.024851695546451"><ele>38.5</ele><time>2026-04-22T14:09:35Z</time></trkpt><trkpt lat="35.41933578757516" lon="-6.02477211002238"><ele>39.0</ele><time>2026-04-22T14:09:36Z</time></trkpt><trkpt lat="35.419052704446756" lon="-6.024692030210622"><ele>39.0</ele><time>2026-04-22T14:09:37Z</time></trkpt><trkpt lat="35.41877055582409" lon="-6.024612185551257"><ele>39.0</ele><time>2026-04-22T14:09:38Z</time></trkpt><trkpt lat="35.41848603716536" lon="-6.0245349507008115"><ele>39.0</ele><time>2026-04-22T14:09:39Z</time></trkpt><trkpt lat="35.41820107918246" lon="-6.02445755836138"><ele>39.0</ele><time>2026-04-22T14:09:40Z</time></trkpt><trkpt lat="35.417916628285056" lon="-6.024376679697136"><ele>38.5</ele><time>2026-04-22T14:09:41Z</time></trkpt><trkpt lat="35.41763271288528" lon="-6.0242971795971965"><ele>38.0</ele><time>2026-04-22T14:09:42Z</time></trkpt><trkpt lat="35.41734868739113" lon="-6.024220959155953"><ele>42.0</ele><time>2026-04-22T14:09:43Z</time></trkpt><trkpt lat="35.41706378197743" lon="-6.024146563104448"><ele>46.0</ele><time>2026-04-22T14:09:44Z</time></trkpt><trkpt lat="35.416780245596684" lon="-6.0240641302939775"><ele>46.0</ele><time>2026-04-22T14:09:45Z</time></trkpt><trkpt lat="35.41649526752808" lon="-6.023983217393994"><ele>46.0</ele><time>2026-04-22T14:09:46Z</time></trkpt><trkpt lat="35.416211584070545" lon="-6.0239031062885635"><ele>46.0</ele><time>2026-04-22T14:09:47Z</time></trkpt><trkpt lat="35.41592573904893" lon="-6.023823550129869"><ele>46.0</ele><time>2026-04-22T14:09:48Z</time></trkpt><trkpt lat="35.415640173192585" lon="-6.023746008268197"><ele>44.5</ele><time>2026-04-22T14:09:49Z</time></trkpt><trkpt lat="35.41535507112487" lon="-6.023671439629646"><ele>43.0</ele><time>2026-04-22T14:09:50Z</time></trkpt><trkpt lat="35.41506906088832" lon="-6.023592168392335"><ele>43.0</ele><time>2026-04-22T14:09:51Z</time></trkpt><trkpt lat="35.41478583800562" lon="-6.0235087905965585"><ele>43.0</ele><time>2026-04-22T14:09:52Z</time></trkpt><trkpt lat="35.41450310053307" lon="-6.023431792740732"><ele>43.0</ele><time>2026-04-22T14:09:53Z</time></trkpt><trkpt lat="35.41421943610485" lon="-6.023353136881853"><ele>43.0</ele><time>2026-04-22T14:09:54Z</time></trkpt><trkpt lat="35.41393612375287" lon="-6.0232774056995035"><ele>44.0</ele><time>2026-04-22T14:09:55Z</time></trkpt><trkpt lat="35.41365301061389" lon="-6.023201174739881"><ele>45.0</ele><time>2026-04-22T14:09:56Z</time></trkpt><trkpt lat="35.41336997877679" lon="-6.023125365989921"><ele>45.0</ele><time>2026-04-22T14:09:57Z</time></trkpt><trkpt lat="35.41308656532884" lon="-6.023047935284642"><ele>45.0</ele><time>2026-04-22T14:09:58Z</time></trkpt><trkpt lat="35.41280453277512" lon="-6.022968943533899"><ele>45.5</ele><time>2026-04-22T14:09:59Z</time></trkpt><trkpt lat="35.41252088904826" lon="-6.022893009301773"><ele>46.0</ele><time>2026-04-22T14:10:00Z</time></trkpt><trkpt lat="35.412238107447685" lon="-6.022814632680868"><ele>45.5</ele><time>2026-04-22T14:10:01Z</time></trkpt><trkpt lat="35.41195561544148" lon="-6.022734645970151"><ele>45.0</ele><time>2026-04-22T14:10:02Z</time></trkpt><trkpt lat="35.41167267006298" lon="-6.022653553799791"><ele>45.0</ele><time>2026-04-22T14:10:03Z</time></trkpt><trkpt lat="35.41139121662827" lon="-6.022575792987671"><ele>45.0</ele><time>2026-04-22T14:10:04Z</time></trkpt><trkpt lat="35.41110769803924" lon="-6.022497445421912"><ele>46.0</ele><time>2026-04-22T14:10:05Z</time></trkpt><trkpt lat="35.410824342447235" lon="-6.022419229037639"><ele>47.0</ele><time>2026-04-22T14:10:06Z</time></trkpt><trkpt lat="35.41053990703461" lon="-6.022341140794582"><ele>46.0</ele><time>2026-04-22T14:10:07Z</time></trkpt><trkpt lat="35.410255113753955" lon="-6.022265165828408"><ele>45.0</ele><time>2026-04-22T14:10:08Z</time></trkpt><trkpt lat="35.409971116052326" lon="-6.022190331357808"><ele>45.0</ele><time>2026-04-22T14:10:09Z</time></trkpt><trkpt lat="35.409687130362364" lon="-6.02211440412469"><ele>45.0</ele><time>2026-04-22T14:10:10Z</time></trkpt><trkpt lat="35.40940366927082" lon="-6.022032456043129"><ele>44.5</ele><time>2026-04-22T14:10:11Z</time></trkpt><trkpt lat="35.40911889210069" lon="-6.021955281232814"><ele>44.0</ele><time>2026-04-22T14:10:12Z</time></trkpt><trkpt lat="35.40883408943554" lon="-6.021875110351894"><ele>43.5</ele><time>2026-04-22T14:10:13Z</time></trkpt><trkpt lat="35.40854994787683" lon="-6.021794510426674"><ele>43.0</ele><time>2026-04-22T14:10:14Z</time></trkpt><trkpt lat="35.40826500408966" lon="-6.021716032550856"><ele>44.0</ele><time>2026-04-22T14:10:15Z</time></trkpt><trkpt lat="35.407980923451056" lon="-6.021636759751498"><ele>45.0</ele><time>2026-04-22T14:10:16Z</time></trkpt><trkpt lat="35.407695802674915" lon="-6.0215570127616775"><ele>45.0</ele><time>2026-04-22T14:10:17Z</time></trkpt><trkpt lat="35.407411244046976" lon="-6.021479072850128"><ele>45.0</ele><time>2026-04-22T14:10:18Z</time></trkpt><trkpt lat="35.40712555882839" lon="-6.021400292997525"><ele>45.0</ele><time>2026-04-22T14:10:19Z</time></trkpt><trkpt lat="35.40684010815367" lon="-6.021322526424374"><ele>45.0</ele><time>2026-04-22T14:10:20Z</time></trkpt><trkpt lat="35.40655552893967" lon="-6.0212430434186155"><ele>46.0</ele><time>2026-04-22T14:10:21Z</time></trkpt><trkpt lat="35.406270425261134" lon="-6.021166669402443"><ele>47.0</ele><time>2026-04-22T14:10:22Z</time></trkpt><trkpt lat="35.405984218362384" lon="-6.021091108192549"><ele>47.0</ele><time>2026-04-22T14:10:23Z</time></trkpt><trkpt lat="35.40569962256848" lon="-6.021015586868228"><ele>47.0</ele><time>2026-04-22T14:10:24Z</time></trkpt><trkpt lat="35.40541532905838" lon="-6.020939537943639"><ele>47.5</ele><time>2026-04-22T14:10:25Z</time></trkpt><trkpt lat="35.40512954601934" lon="-6.02086779340678"><ele>48.0</ele><time>2026-04-22T14:10:26Z</time></trkpt><trkpt lat="35.404844008181115" lon="-6.020804716623337"><ele>50.0</ele><time>2026-04-22T14:10:27Z</time></trkpt><trkpt lat="35.404558928589" lon="-6.020751020590255"><ele>52.0</ele><time>2026-04-22T14:10:28Z</time></trkpt><trkpt lat="35.40427274331966" lon="-6.020690654200938"><ele>52.0</ele><time>2026-04-22T14:10:29Z</time></trkpt><trkpt lat="35.40398645297403" lon="-6.020632518278831"><ele>52.0</ele><time>2026-04-22T14:10:30Z</time></trkpt><trkpt lat="35.40369841183994" lon="-6.0205853641221285"><ele>52.5</ele><time>2026-04-22T14:10:31Z</time></trkpt><trkpt lat="35.40341044905962" lon="-6.020542724839013"><ele>53.0</ele><time>2026-04-22T14:10:32Z</time></trkpt><trkpt lat="35.40312136944058" lon="-6.020503380409641"><ele>53.0</ele><time>2026-04-22T14:10:33Z</time></trkpt><trkpt lat="35.40283175149528" lon="-6.020470419524647"><ele>53.0</ele><time>2026-04-22T14:10:34Z</time></trkpt><trkpt lat="35.40254111122461" lon="-6.020446139129925"><ele>53.0</ele><time>2026-04-22T14:10:35Z</time></trkpt><trkpt lat="35.402249851957315" lon="-6.020432228456129"><ele>53.0</ele><time>2026-04-22T14:10:36Z</time></trkpt><trkpt lat="35.40195949594969" lon="-6.020428886641427"><ele>54.5</ele><time>2026-04-22T14:10:37Z</time></trkpt><trkpt lat="35.40167048978533" lon="-6.02043505134645"><ele>56.0</ele><time>2026-04-22T14:10:38Z</time></trkpt><trkpt lat="35.40137982537008" lon="-6.020446833946192"><ele>56.0</ele><time>2026-04-22T14:10:39Z</time></trkpt><trkpt lat="35.40108925574276" lon="-6.020457173194818"><ele>56.0</ele><time>2026-04-22T14:10:40Z</time></trkpt><trkpt lat="35.40079786684624" lon="-6.020471803025047"><ele>56.0</ele><time>2026-04-22T14:10:41Z</time></trkpt><trkpt lat="35.400506828395706" lon="-6.020485791402117"><ele>56.0</ele><time>2026-04-22T14:10:41.999Z</time></trkpt><trkpt lat="35.40021643890019" lon="-6.020508984638991"><ele>56.0</ele><time>2026-04-22T14:10:42.999Z</time></trkpt><trkpt lat="35.399925884275234" lon="-6.020540428651363"><ele>56.0</ele><time>2026-04-22T14:10:43.999Z</time></trkpt><trkpt lat="35.39963668290353" lon="-6.020575400727335"><ele>56.0</ele><time>2026-04-22T14:10:44.999Z</time></trkpt><trkpt lat="35.399345934475136" lon="-6.02061594048416"><ele>56.0</ele><time>2026-04-22T14:10:45.999Z</time></trkpt><trkpt lat="35.39905594298954" lon="-6.020663633510486"><ele>55.0</ele><time>2026-04-22T14:10:46.999Z</time></trkpt><trkpt lat="35.398768497455364" lon="-6.020718887736013"><ele>54.0</ele><time>2026-04-22T14:10:47.999Z</time></trkpt><trkpt lat="35.39848221441676" lon="-6.020781734985272"><ele>53.0</ele><time>2026-04-22T14:10:48.999Z</time></trkpt><trkpt lat="35.398195342466686" lon="-6.020843435048187"><ele>52.0</ele><time>2026-04-22T14:10:49.999Z</time></trkpt><trkpt lat="35.39790990505327" lon="-6.020913746816166"><ele>51.0</ele><time>2026-04-22T14:10:50.999Z</time></trkpt><trkpt lat="35.3976259381305" lon="-6.020990463664868"><ele>50.0</ele><time>2026-04-22T14:10:51.999Z</time></trkpt><trkpt lat="35.39734281558094" lon="-6.021070773190379"><ele>50.5</ele><time>2026-04-22T14:10:52.999Z</time></trkpt><trkpt lat="35.39706168292634" lon="-6.021157326799361"><ele>51.0</ele><time>2026-04-22T14:10:53.999Z</time></trkpt><trkpt lat="35.39678099373066" lon="-6.02124684617622"><ele>51.0</ele><time>2026-04-22T14:10:54.999Z</time></trkpt><trkpt lat="35.39650131323678" lon="-6.021346305567564"><ele>51.0</ele><time>2026-04-22T14:10:55.999Z</time></trkpt><trkpt lat="35.39622587610252" lon="-6.021450506630109"><ele>51.0</ele><time>2026-04-22T14:10:56.999Z</time></trkpt><trkpt lat="35.39595036977191" lon="-6.02155902863124"><ele>51.0</ele><time>2026-04-22T14:10:57.999Z</time></trkpt><trkpt lat="35.39567522910751" lon="-6.0216726471803526"><ele>51.0</ele><time>2026-04-22T14:10:58.999Z</time></trkpt><trkpt lat="35.39539985561181" lon="-6.021786498040711"><ele>51.0</ele><time>2026-04-22T14:10:59.999Z</time></trkpt><trkpt lat="35.39512358082629" lon="-6.021898921183562"><ele>51.0</ele><time>2026-04-22T14:11:00.999Z</time></trkpt><trkpt lat="35.39484866990299" lon="-6.022013939276108"><ele>51.0</ele><time>2026-04-22T14:11:02Z</time></trkpt><trkpt lat="35.39457469061204" lon="-6.022130428779642"><ele>52.5</ele><time>2026-04-22T14:11:03Z</time></trkpt><trkpt lat="35.394299465234496" lon="-6.022247639602726"><ele>54.0</ele><time>2026-04-22T14:11:04Z</time></trkpt><trkpt lat="35.3940251996083" lon="-6.022360706233465"><ele>54.0</ele><time>2026-04-22T14:11:05Z</time></trkpt><trkpt lat="35.39374928137746" lon="-6.022472839879711"><ele>54.0</ele><time>2026-04-22T14:11:06Z</time></trkpt><trkpt lat="35.39347268524168" lon="-6.022581791044031"><ele>54.5</ele><time>2026-04-22T14:11:07Z</time></trkpt><trkpt lat="35.39319354274135" lon="-6.02268958921941"><ele>55.0</ele><time>2026-04-22T14:11:08Z</time></trkpt><trkpt lat="35.39291559029599" lon="-6.022791163593449"><ele>55.0</ele><time>2026-04-22T14:11:09Z</time></trkpt><trkpt lat="35.392636249902026" lon="-6.022890361964674"><ele>55.0</ele><time>2026-04-22T14:11:10Z</time></trkpt><trkpt lat="35.39235428234778" lon="-6.022979212101434"><ele>56.5</ele><time>2026-04-22T14:11:11Z</time></trkpt><trkpt lat="35.39207220741014" lon="-6.023059678629771"><ele>58.0</ele><time>2026-04-22T14:11:12Z</time></trkpt><trkpt lat="35.39178868100821" lon="-6.023134066992819"><ele>58.0</ele><time>2026-04-22T14:11:13Z</time></trkpt><trkpt lat="35.39150456154173" lon="-6.02320449592076"><ele>58.0</ele><time>2026-04-22T14:11:14Z</time></trkpt><trkpt lat="35.39121797426997" lon="-6.023264773901112"><ele>56.0</ele><time>2026-04-22T14:11:15Z</time></trkpt><trkpt lat="35.39093081108956" lon="-6.023324632346802"><ele>54.0</ele><time>2026-04-22T14:11:16Z</time></trkpt><trkpt lat="35.39064498805833" lon="-6.023381760662393"><ele>54.0</ele><time>2026-04-22T14:11:17Z</time></trkpt><trkpt lat="35.39036135788483" lon="-6.023435368638477"><ele>54.0</ele><time>2026-04-22T14:11:18Z</time></trkpt><trkpt lat="35.39007559234035" lon="-6.023478234073764"><ele>54.0</ele><time>2026-04-22T14:11:19Z</time></trkpt><trkpt lat="35.38979165753628" lon="-6.023516149307017"><ele>54.0</ele><time>2026-04-22T14:11:20Z</time></trkpt><trkpt lat="35.38950960503058" lon="-6.023550345966829"><ele>55.0</ele><time>2026-04-22T14:11:21Z</time></trkpt><trkpt lat="35.38922986989194" lon="-6.023582099566507"><ele>56.0</ele><time>2026-04-22T14:11:22Z</time></trkpt><trkpt lat="35.38895190872488" lon="-6.023603016960626"><ele>58.5</ele><time>2026-04-22T14:11:23Z</time></trkpt><trkpt lat="35.38867486773964" lon="-6.023611768596723"><ele>61.0</ele><time>2026-04-22T14:11:24Z</time></trkpt><trkpt lat="35.38839654080402" lon="-6.023616267799579"><ele>61.0</ele><time>2026-04-22T14:11:25Z</time></trkpt><trkpt lat="35.388111670807675" lon="-6.023617245526217"><ele>61.0</ele><time>2026-04-22T14:11:26Z</time></trkpt><trkpt lat="35.38782705958652" lon="-6.023612651696091"><ele>60.5</ele><time>2026-04-22T14:11:27Z</time></trkpt><trkpt lat="35.38753892538954" lon="-6.023612232070963"><ele>60.0</ele><time>2026-04-22T14:11:28Z</time></trkpt><trkpt lat="35.38725016737945" lon="-6.023603774197962"><ele>59.5</ele><time>2026-04-22T14:11:29Z</time></trkpt><trkpt lat="35.38696101365381" lon="-6.023584962349949"><ele>59.0</ele><time>2026-04-22T14:11:30Z</time></trkpt><trkpt lat="35.38667418187257" lon="-6.023559034322061"><ele>59.0</ele><time>2026-04-22T14:11:31Z</time></trkpt><trkpt lat="35.386385381696705" lon="-6.023529968431675"><ele>59.0</ele><time>2026-04-22T14:11:32Z</time></trkpt><trkpt lat="35.38609744416058" lon="-6.023493234925621"><ele>58.5</ele><time>2026-04-22T14:11:33Z</time></trkpt><trkpt lat="35.38581018009312" lon="-6.0234490204414906"><ele>58.0</ele><time>2026-04-22T14:11:34Z</time></trkpt><trkpt lat="35.38552508168121" lon="-6.02339877460466"><ele>59.0</ele><time>2026-04-22T14:11:35Z</time></trkpt><trkpt lat="35.38523770291377" lon="-6.023347317638848"><ele>60.0</ele><time>2026-04-22T14:11:36Z</time></trkpt><trkpt lat="35.384951540126345" lon="-6.023288764428975"><ele>64.0</ele><time>2026-04-22T14:11:37Z</time></trkpt><trkpt lat="35.38466436290417" lon="-6.023228835858308"><ele>68.0</ele><time>2026-04-22T14:11:38Z</time></trkpt><trkpt lat="35.38437698973142" lon="-6.023165122798646"><ele>68.0</ele><time>2026-04-22T14:11:39Z</time></trkpt><trkpt lat="35.38409266346312" lon="-6.023094125848047"><ele>68.0</ele><time>2026-04-22T14:11:40Z</time></trkpt><trkpt lat="35.383808755106706" lon="-6.023016289106829"><ele>72.0</ele><time>2026-04-22T14:11:41Z</time></trkpt><trkpt lat="35.38352473631114" lon="-6.022930751669726"><ele>76.0</ele><time>2026-04-22T14:11:42Z</time></trkpt><trkpt lat="35.38324451989184" lon="-6.02283646193219"><ele>82.0</ele><time>2026-04-22T14:11:43Z</time></trkpt><trkpt lat="35.382963751929886" lon="-6.022738856767503"><ele>88.0</ele><time>2026-04-22T14:11:44Z</time></trkpt><trkpt lat="35.382683128586464" lon="-6.022642105376404"><ele>88.0</ele><time>2026-04-22T14:11:45Z</time></trkpt><trkpt lat="35.38240014088414" lon="-6.022552687772376"><ele>88.0</ele><time>2026-04-22T14:11:46Z</time></trkpt><trkpt lat="35.38212110265018" lon="-6.022431567795504"><ele>91.5</ele><time>2026-04-22T14:11:47Z</time></trkpt><trkpt lat="35.381841066522114" lon="-6.022326970076226"><ele>95.0</ele><time>2026-04-22T14:11:48Z</time></trkpt><trkpt lat="35.38156131401305" lon="-6.022220743045387"><ele>101.0</ele><time>2026-04-22T14:11:49Z</time></trkpt><trkpt lat="35.381280695326815" lon="-6.022113089523788"><ele>107.0</ele><time>2026-04-22T14:11:50Z</time></trkpt><trkpt lat="35.38100077699021" lon="-6.022006545639562"><ele>107.0</ele><time>2026-04-22T14:11:51Z</time></trkpt><trkpt lat="35.380720818542834" lon="-6.0219030935916855"><ele>107.0</ele><time>2026-04-22T14:11:52Z</time></trkpt><trkpt lat="35.380441477111916" lon="-6.021798378033512"><ele>110.5</ele><time>2026-04-22T14:11:53Z</time></trkpt><trkpt lat="35.38016295438062" lon="-6.02169289063596"><ele>114.0</ele><time>2026-04-22T14:11:54Z</time></trkpt><trkpt lat="35.37988329462567" lon="-6.021587788118609"><ele>113.5</ele><time>2026-04-22T14:11:55Z</time></trkpt><trkpt lat="35.37960411953268" lon="-6.021480304010312"><ele>113.0</ele><time>2026-04-22T14:11:56Z</time></trkpt><trkpt lat="35.37932644466476" lon="-6.021373254268449"><ele>113.0</ele><time>2026-04-22T14:11:57Z</time></trkpt><trkpt lat="35.37904838150092" lon="-6.0212677491087225"><ele>113.0</ele><time>2026-04-22T14:11:58Z</time></trkpt><trkpt lat="35.37876994187623" lon="-6.02116437660089"><ele>104.0</ele><time>2026-04-22T14:11:59Z</time></trkpt><trkpt lat="35.37849045631696" lon="-6.021062042498389"><ele>95.0</ele><time>2026-04-22T14:12:00Z</time></trkpt><trkpt lat="35.37821046682744" lon="-6.0209605296580655"><ele>89.0</ele><time>2026-04-22T14:12:01Z</time></trkpt><trkpt lat="35.37793089940188" lon="-6.020856918148987"><ele>83.0</ele><time>2026-04-22T14:12:02Z</time></trkpt><trkpt lat="35.37765156302663" lon="-6.020753109566797"><ele>83.0</ele><time>2026-04-22T14:12:03Z</time></trkpt><trkpt lat="35.377371739636374" lon="-6.020650178143996"><ele>83.0</ele><time>2026-04-22T14:12:04Z</time></trkpt><trkpt lat="35.37709135514084" lon="-6.020546509253348"><ele>79.5</ele><time>2026-04-22T14:12:05Z</time></trkpt><trkpt lat="35.37681173241741" lon="-6.0204433096876295"><ele>76.0</ele><time>2026-04-22T14:12:06Z</time></trkpt><trkpt lat="35.376532451762266" lon="-6.020337985028082"><ele>76.0</ele><time>2026-04-22T14:12:07Z</time></trkpt><trkpt lat="35.37625346001459" lon="-6.020231700083722"><ele>76.0</ele><time>2026-04-22T14:12:08Z</time></trkpt><trkpt lat="35.3759744764472" lon="-6.020126809199953"><ele>76.0</ele><time>2026-04-22T14:12:09Z</time></trkpt><trkpt lat="35.375697597687484" lon="-6.020023293092072"><ele>76.0</ele><time>2026-04-22T14:12:10Z</time></trkpt><trkpt lat="35.375420638807554" lon="-6.019920899184955"><ele>79.0</ele><time>2026-04-22T14:12:11Z</time></trkpt><trkpt lat="35.37514347462954" lon="-6.0198170072875525"><ele>82.0</ele><time>2026-04-22T14:12:12Z</time></trkpt><trkpt lat="35.37486846030119" lon="-6.019711272742086"><ele>86.5</ele><time>2026-04-22T14:12:13Z</time></trkpt><trkpt lat="35.37459306911648" lon="-6.019605077531771"><ele>91.0</ele><time>2026-04-22T14:12:14Z</time></trkpt><trkpt lat="35.374317168235685" lon="-6.019500886727923"><ele>91.0</ele><time>2026-04-22T14:12:15Z</time></trkpt><trkpt lat="35.374039697880804" lon="-6.01940247551458"><ele>91.0</ele><time>2026-04-22T14:12:16Z</time></trkpt><trkpt lat="35.37376190091684" lon="-6.019309463736423"><ele>91.5</ele><time>2026-04-22T14:12:17Z</time></trkpt><trkpt lat="35.373482428068094" lon="-6.019221793178327"><ele>92.0</ele><time>2026-04-22T14:12:18Z</time></trkpt><trkpt lat="35.37320260071698" lon="-6.0191349118441915"><ele>94.0</ele><time>2026-04-22T14:12:19Z</time></trkpt><trkpt lat="35.37292171298587" lon="-6.019046636961383"><ele>96.0</ele><time>2026-04-22T14:12:20Z</time></trkpt><trkpt lat="35.37263773208795" lon="-6.018967302392546"><ele>96.0</ele><time>2026-04-22T14:12:21Z</time></trkpt><trkpt lat="35.372353126973486" lon="-6.018886529531135"><ele>96.0</ele><time>2026-04-22T14:12:22Z</time></trkpt><trkpt lat="35.37206712920699" lon="-6.018807793607718"><ele>99.0</ele><time>2026-04-22T14:12:23Z</time></trkpt><trkpt lat="35.37178124589922" lon="-6.018732328433261"><ele>102.0</ele><time>2026-04-22T14:12:24Z</time></trkpt><trkpt lat="35.37149614432602" lon="-6.018656550226979"><ele>103.0</ele><time>2026-04-22T14:12:25Z</time></trkpt><trkpt lat="35.371208999872316" lon="-6.01858601570712"><ele>104.0</ele><time>2026-04-22T14:12:26Z</time></trkpt><trkpt lat="35.37092118830745" lon="-6.018517533893536"><ele>104.0</ele><time>2026-04-22T14:12:27Z</time></trkpt><trkpt lat="35.37063368034988" lon="-6.018453920313308"><ele>104.0</ele><time>2026-04-22T14:12:28Z</time></trkpt><trkpt lat="35.37034612488852" lon="-6.018391424869496"><ele>104.5</ele><time>2026-04-22T14:12:29Z</time></trkpt><trkpt lat="35.37005840187052" lon="-6.018329828326654"><ele>105.0</ele><time>2026-04-22T14:12:30Z</time></trkpt><trkpt lat="35.36977113584457" lon="-6.018272472236072"><ele>104.5</ele><time>2026-04-22T14:12:31Z</time></trkpt><trkpt lat="35.36948369039699" lon="-6.018214127589866"><ele>104.0</ele><time>2026-04-22T14:12:32Z</time></trkpt><trkpt lat="35.36919521496716" lon="-6.0181626882681005"><ele>104.0</ele><time>2026-04-22T14:12:33Z</time></trkpt><trkpt lat="35.36890558766417" lon="-6.018114429281672"><ele>104.0</ele><time>2026-04-22T14:12:34Z</time></trkpt><trkpt lat="35.36861630283746" lon="-6.018068224038787"><ele>104.0</ele><time>2026-04-22T14:12:35Z</time></trkpt><trkpt lat="35.36832749550244" lon="-6.018021995025405"><ele>104.0</ele><time>2026-04-22T14:12:36Z</time></trkpt><trkpt lat="35.368038841458564" lon="-6.017979316677674"><ele>103.5</ele><time>2026-04-22T14:12:37Z</time></trkpt><trkpt lat="35.36774748873986" lon="-6.017940104029855"><ele>103.0</ele><time>2026-04-22T14:12:38Z</time></trkpt><trkpt lat="35.36745808671249" lon="-6.017906098961132"><ele>103.0</ele><time>2026-04-22T14:12:39Z</time></trkpt><trkpt lat="35.3671671432832" lon="-6.017872979898636"><ele>103.0</ele><time>2026-04-22T14:12:40Z</time></trkpt><trkpt lat="35.36687653282452" lon="-6.017843510318661"><ele>103.0</ele><time>2026-04-22T14:12:41Z</time></trkpt><trkpt lat="35.36658487283363" lon="-6.017818106611791"><ele>103.0</ele><time>2026-04-22T14:12:42Z</time></trkpt><trkpt lat="35.36629282572781" lon="-6.017797614469246"><ele>101.5</ele><time>2026-04-22T14:12:43Z</time></trkpt><trkpt lat="35.3659999783371" lon="-6.017776858648472"><ele>100.0</ele><time>2026-04-22T14:12:44Z</time></trkpt><trkpt lat="35.36570756528532" lon="-6.017753542720101"><ele>99.5</ele><time>2026-04-22T14:12:45Z</time></trkpt><trkpt lat="35.36541504757588" lon="-6.017731846520069"><ele>99.0</ele><time>2026-04-22T14:12:46Z</time></trkpt><trkpt lat="35.36512157509777" lon="-6.017713215604273"><ele>99.0</ele><time>2026-04-22T14:12:47Z</time></trkpt><trkpt lat="35.364829915712626" lon="-6.017690490210014"><ele>99.0</ele><time>2026-04-22T14:12:48Z</time></trkpt><trkpt lat="35.36453961287487" lon="-6.017667786234169"><ele>97.5</ele><time>2026-04-22T14:12:49Z</time></trkpt><trkpt lat="35.36424906474045" lon="-6.017644430198223"><ele>96.0</ele><time>2026-04-22T14:12:50Z</time></trkpt><trkpt lat="35.36395758324055" lon="-6.017622420250042"><ele>96.5</ele><time>2026-04-22T14:12:51Z</time></trkpt><trkpt lat="35.36366588904878" lon="-6.017600415169573"><ele>97.0</ele><time>2026-04-22T14:12:52Z</time></trkpt><trkpt lat="35.363375247321194" lon="-6.017575965262867"><ele>97.0</ele><time>2026-04-22T14:12:53Z</time></trkpt><trkpt lat="35.363084262405486" lon="-6.017552059014989"><ele>97.0</ele><time>2026-04-22T14:12:54Z</time></trkpt><trkpt lat="35.36279228871847" lon="-6.017527721485662"><ele>97.5</ele><time>2026-04-22T14:12:55Z</time></trkpt><trkpt lat="35.36249981411656" lon="-6.017505916173667"><ele>98.0</ele><time>2026-04-22T14:12:56Z</time></trkpt><trkpt lat="35.362208518986044" lon="-6.017486517592037"><ele>99.5</ele><time>2026-04-22T14:12:57Z</time></trkpt><trkpt lat="35.361916073527645" lon="-6.017465183144388"><ele>101.0</ele><time>2026-04-22T14:12:58Z</time></trkpt><trkpt lat="35.361624228150575" lon="-6.0174399567167045"><ele>100.5</ele><time>2026-04-22T14:12:59Z</time></trkpt><trkpt lat="35.3613335507266" lon="-6.017413888371225"><ele>100.0</ele><time>2026-04-22T14:13:00Z</time></trkpt><trkpt lat="35.361041820755226" lon="-6.017394765628307"><ele>100.0</ele><time>2026-04-22T14:13:01Z</time></trkpt><trkpt lat="35.36075017129491" lon="-6.017374056450279"><ele>100.0</ele><time>2026-04-22T14:13:02Z</time></trkpt><trkpt lat="35.36045699383008" lon="-6.017348289318495"><ele>99.0</ele><time>2026-04-22T14:13:03Z</time></trkpt><trkpt lat="35.36016848552123" lon="-6.017315373241903"><ele>98.0</ele><time>2026-04-22T14:13:04Z</time></trkpt><trkpt lat="35.35987754176908" lon="-6.017283627191219"><ele>97.0</ele><time>2026-04-22T14:13:05Z</time></trkpt><trkpt lat="35.35958914202547" lon="-6.01724670779556"><ele>96.0</ele><time>2026-04-22T14:13:06Z</time></trkpt><trkpt lat="35.359299977887" lon="-6.017210643115149"><ele>96.0</ele><time>2026-04-22T14:13:07Z</time></trkpt><trkpt lat="35.35900949257704" lon="-6.017170356714091"><ele>96.0</ele><time>2026-04-22T14:13:08Z</time></trkpt><trkpt lat="35.358720809571935" lon="-6.017128913478959"><ele>95.0</ele><time>2026-04-22T14:13:09Z</time></trkpt><trkpt lat="35.3584324071621" lon="-6.017082290113066"><ele>94.0</ele><time>2026-04-22T14:13:10Z</time></trkpt><trkpt lat="35.35814321714384" lon="-6.01703425171797"><ele>94.0</ele><time>2026-04-22T14:13:11Z</time></trkpt><trkpt lat="35.35785621129059" lon="-6.016978902031376"><ele>94.0</ele><time>2026-04-22T14:13:12Z</time></trkpt><trkpt lat="35.35756895200215" lon="-6.016922460893441"><ele>94.0</ele><time>2026-04-22T14:13:13Z</time></trkpt><trkpt lat="35.35728141030586" lon="-6.016860890523077"><ele>94.0</ele><time>2026-04-22T14:13:14Z</time></trkpt><trkpt lat="35.356995700649065" lon="-6.016798253841147"><ele>93.5</ele><time>2026-04-22T14:13:15Z</time></trkpt><trkpt lat="35.35670870368913" lon="-6.016728500991368"><ele>93.0</ele><time>2026-04-22T14:13:16Z</time></trkpt><trkpt lat="35.35642251550574" lon="-6.0166559794766705"><ele>91.0</ele><time>2026-04-22T14:13:17Z</time></trkpt><trkpt lat="35.356136079507735" lon="-6.0165796311003"><ele>89.0</ele><time>2026-04-22T14:13:18Z</time></trkpt><trkpt lat="35.35584993518808" lon="-6.016502678020861"><ele>89.0</ele><time>2026-04-22T14:13:19Z</time></trkpt><trkpt lat="35.35556559551137" lon="-6.016425379042049"><ele>89.0</ele><time>2026-04-22T14:13:20Z</time></trkpt><trkpt lat="35.355278249135935" lon="-6.016355047400792"><ele>89.5</ele><time>2026-04-22T14:13:21Z</time></trkpt><trkpt lat="35.35499233438044" lon="-6.016281932730264"><ele>90.0</ele><time>2026-04-22T14:13:22Z</time></trkpt><trkpt lat="35.35470856486845" lon="-6.01620687534418"><ele>90.0</ele><time>2026-04-22T14:13:23Z</time></trkpt><trkpt lat="35.35442256252744" lon="-6.0161366455470136"><ele>90.0</ele><time>2026-04-22T14:13:24Z</time></trkpt><trkpt lat="35.35413636569436" lon="-6.016069183202215"><ele>90.0</ele><time>2026-04-22T14:13:25Z</time></trkpt><trkpt lat="35.353850666241684" lon="-6.016003287252503"><ele>90.0</ele><time>2026-04-22T14:13:26Z</time></trkpt><trkpt lat="35.35356472182275" lon="-6.015940437214922"><ele>90.0</ele><time>2026-04-22T14:13:27Z</time></trkpt><trkpt lat="35.35328079884892" lon="-6.015872185857651"><ele>90.0</ele><time>2026-04-22T14:13:28Z</time></trkpt><trkpt lat="35.352995348662596" lon="-6.015801827496216"><ele>90.0</ele><time>2026-04-22T14:13:29Z</time></trkpt><trkpt lat="35.35271114245553" lon="-6.015725898922648"><ele>90.0</ele><time>2026-04-22T14:13:30Z</time></trkpt><trkpt lat="35.352426642513144" lon="-6.015653098111038"><ele>91.5</ele><time>2026-04-22T14:13:31Z</time></trkpt><trkpt lat="35.35214231305044" lon="-6.01558357896328"><ele>93.0</ele><time>2026-04-22T14:13:32Z</time></trkpt><trkpt lat="35.35185741815941" lon="-6.015510814976126"><ele>93.0</ele><time>2026-04-22T14:13:33Z</time></trkpt><trkpt lat="35.351572374961464" lon="-6.01543882945727"><ele>93.0</ele><time>2026-04-22T14:13:34Z</time></trkpt><trkpt lat="35.35128697115262" lon="-6.015365428789181"><ele>94.5</ele><time>2026-04-22T14:13:35Z</time></trkpt><trkpt lat="35.35100040293199" lon="-6.015291753893371"><ele>96.0</ele><time>2026-04-22T14:13:36Z</time></trkpt><trkpt lat="35.35071644185086" lon="-6.015217586345898"><ele>95.5</ele><time>2026-04-22T14:13:37Z</time></trkpt><trkpt lat="35.350430014167955" lon="-6.0151469364333785"><ele>95.0</ele><time>2026-04-22T14:13:38Z</time></trkpt><trkpt lat="35.35014557527342" lon="-6.015071904520598"><ele>95.0</ele><time>2026-04-22T14:13:39Z</time></trkpt><trkpt lat="35.34985993342965" lon="-6.015000934374556"><ele>95.0</ele><time>2026-04-22T14:13:40Z</time></trkpt><trkpt lat="35.34957504162576" lon="-6.014929590618708"><ele>95.5</ele><time>2026-04-22T14:13:41Z</time></trkpt><trkpt lat="35.34928997841375" lon="-6.014860281617151"><ele>96.0</ele><time>2026-04-22T14:13:42Z</time></trkpt><trkpt lat="35.349004164011" lon="-6.014794000181822"><ele>94.5</ele><time>2026-04-22T14:13:43Z</time></trkpt><trkpt lat="35.34871744070531" lon="-6.014732975689416"><ele>93.0</ele><time>2026-04-22T14:13:44Z</time></trkpt><trkpt lat="35.348431350070946" lon="-6.014672108368622"><ele>93.0</ele><time>2026-04-22T14:13:45Z</time></trkpt><trkpt lat="35.34814673332765" lon="-6.014611133802311"><ele>93.0</ele><time>2026-04-22T14:13:46Z</time></trkpt><trkpt lat="35.34786017213686" lon="-6.014547744857688"><ele>91.0</ele><time>2026-04-22T14:13:47Z</time></trkpt><trkpt lat="35.34757515338654" lon="-6.014488030953028"><ele>89.0</ele><time>2026-04-22T14:13:48Z</time></trkpt><trkpt lat="35.34728829581718" lon="-6.0144341695143515"><ele>87.0</ele><time>2026-04-22T14:13:49Z</time></trkpt><trkpt lat="35.34700228637591" lon="-6.014380413049413"><ele>85.0</ele><time>2026-04-22T14:13:50Z</time></trkpt><trkpt lat="35.34671489461056" lon="-6.014331389237439"><ele>85.0</ele><time>2026-04-22T14:13:51Z</time></trkpt><trkpt lat="35.34642682963573" lon="-6.014285794291335"><ele>85.0</ele><time>2026-04-22T14:13:52Z</time></trkpt><trkpt lat="35.346141498280865" lon="-6.0142434105456335"><ele>86.0</ele><time>2026-04-22T14:13:53Z</time></trkpt><trkpt lat="35.345852997615225" lon="-6.014202465008154"><ele>87.0</ele><time>2026-04-22T14:13:54Z</time></trkpt><trkpt lat="35.345564816307785" lon="-6.01416285378816"><ele>88.0</ele><time>2026-04-22T14:13:55Z</time></trkpt><trkpt lat="35.34527760665972" lon="-6.014127224939881"><ele>89.0</ele><time>2026-04-22T14:13:56Z</time></trkpt><trkpt lat="35.34498914389469" lon="-6.014088767287469"><ele>90.0</ele><time>2026-04-22T14:13:57Z</time></trkpt><trkpt lat="35.3447010845137" lon="-6.014054029034254"><ele>91.0</ele><time>2026-04-22T14:13:58Z</time></trkpt><trkpt lat="35.344412269231036" lon="-6.014019817707525"><ele>91.0</ele><time>2026-04-22T14:13:59Z</time></trkpt><trkpt lat="35.34412388609943" lon="-6.013988796823939"><ele>91.0</ele><time>2026-04-22T14:14:00Z</time></trkpt><trkpt lat="35.34383545275774" lon="-6.013959632683713"><ele>92.0</ele><time>2026-04-22T14:14:01Z</time></trkpt><trkpt lat="35.34354688204252" lon="-6.013933137181572"><ele>93.0</ele><time>2026-04-22T14:14:02Z</time></trkpt><trkpt lat="35.34325994617611" lon="-6.013907984776308"><ele>95.0</ele><time>2026-04-22T14:14:03Z</time></trkpt><trkpt lat="35.34297216529803" lon="-6.013885402377824"><ele>97.0</ele><time>2026-04-22T14:14:04Z</time></trkpt><trkpt lat="35.34268377961552" lon="-6.013865004551966"><ele>97.0</ele><time>2026-04-22T14:14:05Z</time></trkpt><trkpt lat="35.3423944091914" lon="-6.01384121316072"><ele>97.0</ele><time>2026-04-22T14:14:06Z</time></trkpt><trkpt lat="35.34210490763796" lon="-6.013820036957392"><ele>98.0</ele><time>2026-04-22T14:14:07Z</time></trkpt><trkpt lat="35.34181477990689" lon="-6.0137975911614125"><ele>99.0</ele><time>2026-04-22T14:14:08Z</time></trkpt><trkpt lat="35.34152416749506" lon="-6.013773570202274"><ele>100.0</ele><time>2026-04-22T14:14:09Z</time></trkpt><trkpt lat="35.34123563688225" lon="-6.013742720185002"><ele>101.0</ele><time>2026-04-22T14:14:10Z</time></trkpt><trkpt lat="35.340946638341336" lon="-6.013712178571525"><ele>101.0</ele><time>2026-04-22T14:14:11Z</time></trkpt><trkpt lat="35.34065728150554" lon="-6.013681327564585"><ele>101.0</ele><time>2026-04-22T14:14:12Z</time></trkpt><trkpt lat="35.34036654666083" lon="-6.013652717649088"><ele>102.0</ele><time>2026-04-22T14:14:13Z</time></trkpt><trkpt lat="35.3400748241484" lon="-6.013626535952069"><ele>103.0</ele><time>2026-04-22T14:14:14Z</time></trkpt><trkpt lat="35.33978766041632" lon="-6.0135988261259605"><ele>104.0</ele><time>2026-04-22T14:14:15Z</time></trkpt><trkpt lat="35.3395509964786" lon="-6.013581531469616"><ele>105.0</ele><time>2026-04-22T14:14:16Z</time></trkpt><trkpt lat="35.33935068052332" lon="-6.0135665608798545"><ele>106.0</ele><time>2026-04-22T14:14:17Z</time></trkpt><trkpt lat="35.339135924873055" lon="-6.013543739034058"><ele>106.0</ele><time>2026-04-22T14:14:18Z</time></trkpt><trkpt lat="35.33890235085285" lon="-6.013522938677499"><ele>106.0</ele><time>2026-04-22T14:14:19Z</time></trkpt><trkpt lat="35.338652307642164" lon="-6.013503780077545"><ele>106.0</ele><time>2026-04-22T14:14:20Z</time></trkpt><trkpt lat="35.33838881894173" lon="-6.013484675424041"><ele>106.0</ele><time>2026-04-22T14:14:21Z</time></trkpt><trkpt lat="35.33811817334643" lon="-6.013464707110836"><ele>105.5</ele><time>2026-04-22T14:14:22Z</time></trkpt><trkpt lat="35.337839671842566" lon="-6.0134446544776665"><ele>105.0</ele><time>2026-04-22T14:14:23Z</time></trkpt><trkpt lat="35.3375532759879" lon="-6.01342432604222"><ele>105.0</ele><time>2026-04-22T14:14:24Z</time></trkpt><trkpt lat="35.33725952739742" lon="-6.013403291540657"><ele>105.0</ele><time>2026-04-22T14:14:25Z</time></trkpt><trkpt lat="35.33696543642559" lon="-6.013380200767408"><ele>105.5</ele><time>2026-04-22T14:14:26Z</time></trkpt><trkpt lat="35.33667272124383" lon="-6.013356325761073"><ele>106.0</ele><time>2026-04-22T14:14:27Z</time></trkpt><trkpt lat="35.33637877212123" lon="-6.013331505160147"><ele>105.5</ele><time>2026-04-22T14:14:28Z</time></trkpt><trkpt lat="35.33608370828116" lon="-6.013306846938289"><ele>105.0</ele><time>2026-04-22T14:14:29Z</time></trkpt><trkpt lat="35.33578968213993" lon="-6.0132812213078894"><ele>105.0</ele><time>2026-04-22T14:14:30Z</time></trkpt><trkpt lat="35.335496091361605" lon="-6.013257338922477"><ele>105.0</ele><time>2026-04-22T14:14:31Z</time></trkpt><trkpt lat="35.33520344004901" lon="-6.013235031674485"><ele>105.0</ele><time>2026-04-22T14:14:32Z</time></trkpt><trkpt lat="35.33491086113399" lon="-6.013214644859211"><ele>105.0</ele><time>2026-04-22T14:14:33Z</time></trkpt><trkpt lat="35.33461794789383" lon="-6.013193828996425"><ele>104.5</ele><time>2026-04-22T14:14:34Z</time></trkpt><trkpt lat="35.33432660599081" lon="-6.013171386762132"><ele>104.0</ele><time>2026-04-22T14:14:35Z</time></trkpt><trkpt lat="35.33403503317116" lon="-6.013145634123849"><ele>104.5</ele><time>2026-04-22T14:14:36Z</time></trkpt><trkpt lat="35.33374469474859" lon="-6.013117550054119"><ele>105.0</ele><time>2026-04-22T14:14:37Z</time></trkpt><trkpt lat="35.33345380733299" lon="-6.013089633642678"><ele>105.0</ele><time>2026-04-22T14:14:38Z</time></trkpt><trkpt lat="35.33316296447974" lon="-6.013063027944377"><ele>105.0</ele><time>2026-04-22T14:14:39Z</time></trkpt><trkpt lat="35.33287249185714" lon="-6.013038610243616"><ele>107.0</ele><time>2026-04-22T14:14:40Z</time></trkpt><trkpt lat="35.33258221818489" lon="-6.01301546694295"><ele>109.0</ele><time>2026-04-22T14:14:41Z</time></trkpt><trkpt lat="35.33229137863114" lon="-6.0129922182901465"><ele>108.5</ele><time>2026-04-22T14:14:42Z</time></trkpt><trkpt lat="35.3320010150505" lon="-6.012969376602518"><ele>108.0</ele><time>2026-04-22T14:14:43Z</time></trkpt><trkpt lat="35.33170954404139" lon="-6.012945907928029"><ele>108.0</ele><time>2026-04-22T14:14:44Z</time></trkpt><trkpt lat="35.33141904064024" lon="-6.012921265102275"><ele>108.0</ele><time>2026-04-22T14:14:45Z</time></trkpt><trkpt lat="35.33112820982658" lon="-6.012895188055733"><ele>108.0</ele><time>2026-04-22T14:14:46Z</time></trkpt><trkpt lat="35.33083752647593" lon="-6.012867977078868"><ele>108.0</ele><time>2026-04-22T14:14:47Z</time></trkpt><trkpt lat="35.330547305076976" lon="-6.012841957433583"><ele>109.5</ele><time>2026-04-22T14:14:48Z</time></trkpt><trkpt lat="35.330257650375636" lon="-6.012814182404106"><ele>111.0</ele><time>2026-04-22T14:14:49Z</time></trkpt><trkpt lat="35.32996677702187" lon="-6.012787633719313"><ele>111.5</ele><time>2026-04-22T14:14:50Z</time></trkpt><trkpt lat="35.32967643399892" lon="-6.012767635138058"><ele>112.0</ele><time>2026-04-22T14:14:51Z</time></trkpt><trkpt lat="35.329386661587634" lon="-6.012748051239722"><ele>112.0</ele><time>2026-04-22T14:14:52Z</time></trkpt><trkpt lat="35.3290962039198" lon="-6.012727273290554"><ele>112.0</ele><time>2026-04-22T14:14:53Z</time></trkpt><trkpt lat="35.32880559195963" lon="-6.012703847567489"><ele>111.5</ele><time>2026-04-22T14:14:54Z</time></trkpt><trkpt lat="35.32851433527707" lon="-6.012681865174468"><ele>111.0</ele><time>2026-04-22T14:14:55Z</time></trkpt><trkpt lat="35.32822405520177" lon="-6.012657232647905"><ele>110.0</ele><time>2026-04-22T14:14:56Z</time></trkpt><trkpt lat="35.32793302644327" lon="-6.012636128803229"><ele>109.0</ele><time>2026-04-22T14:14:57Z</time></trkpt><trkpt lat="35.32764264275228" lon="-6.012612363126139"><ele>109.0</ele><time>2026-04-22T14:14:58Z</time></trkpt><trkpt lat="35.327352113035346" lon="-6.01258820126028"><ele>109.0</ele><time>2026-04-22T14:14:59Z</time></trkpt><trkpt lat="35.327061274541556" lon="-6.012567490957932"><ele>110.0</ele><time>2026-04-22T14:15:00Z</time></trkpt><trkpt lat="35.32677109392062" lon="-6.012541183128101"><ele>111.0</ele><time>2026-04-22T14:15:01Z</time></trkpt><trkpt lat="35.32648164588217" lon="-6.012516727827199"><ele>110.0</ele><time>2026-04-22T14:15:02Z</time></trkpt><trkpt lat="35.32619236280244" lon="-6.012493778263396"><ele>109.0</ele><time>2026-04-22T14:15:03Z</time></trkpt><trkpt lat="35.32590212150136" lon="-6.012471868306027"><ele>109.0</ele><time>2026-04-22T14:15:03.999Z</time></trkpt><trkpt lat="35.32561104580902" lon="-6.01244664475174"><ele>109.0</ele><time>2026-04-22T14:15:04.999Z</time></trkpt><trkpt lat="35.32532146933061" lon="-6.012424359101693"><ele>109.5</ele><time>2026-04-22T14:15:05.999Z</time></trkpt><trkpt lat="35.32503094473303" lon="-6.0124002514310755"><ele>110.0</ele><time>2026-04-22T14:15:06.999Z</time></trkpt><trkpt lat="35.32474120281145" lon="-6.012377216798013"><ele>111.5</ele><time>2026-04-22T14:15:07.999Z</time></trkpt><trkpt lat="35.32445052933981" lon="-6.012356632680142"><ele>113.0</ele><time>2026-04-22T14:15:08.999Z</time></trkpt><trkpt lat="35.32415961605272" lon="-6.012333489048913"><ele>114.5</ele><time>2026-04-22T14:15:09.999Z</time></trkpt><trkpt lat="35.32387036928174" lon="-6.012308923213292"><ele>116.0</ele><time>2026-04-22T14:15:10.999Z</time></trkpt><trkpt lat="35.32357891726158" lon="-6.012289897065498"><ele>116.0</ele><time>2026-04-22T14:15:11.999Z</time></trkpt><trkpt lat="35.323287346728954" lon="-6.012270156294"><ele>116.0</ele><time>2026-04-22T14:15:12.999Z</time></trkpt><trkpt lat="35.322996517396376" lon="-6.012253153599229"><ele>118.0</ele><time>2026-04-22T14:15:14Z</time></trkpt><trkpt lat="35.322704722710824" lon="-6.012240533457164"><ele>120.0</ele><time>2026-04-22T14:15:15Z</time></trkpt><trkpt lat="35.32241462544999" lon="-6.012232345641335"><ele>122.5</ele><time>2026-04-22T14:15:16Z</time></trkpt><trkpt lat="35.32212476593351" lon="-6.012228024376441"><ele>125.0</ele><time>2026-04-22T14:15:17Z</time></trkpt><trkpt lat="35.32183490959049" lon="-6.012231330998472"><ele>125.0</ele><time>2026-04-22T14:15:18Z</time></trkpt><trkpt lat="35.32154576119858" lon="-6.012237876670943"><ele>125.0</ele><time>2026-04-22T14:15:19Z</time></trkpt><trkpt lat="35.32125658239924" lon="-6.012251186734543"><ele>124.5</ele><time>2026-04-22T14:15:20Z</time></trkpt><trkpt lat="35.32096855182693" lon="-6.01227288145455"><ele>124.0</ele><time>2026-04-22T14:15:21Z</time></trkpt><trkpt lat="35.32067993755519" lon="-6.012299081932482"><ele>124.5</ele><time>2026-04-22T14:15:22Z</time></trkpt><trkpt lat="35.320391676404505" lon="-6.012332957494937"><ele>125.0</ele><time>2026-04-22T14:15:23Z</time></trkpt><trkpt lat="35.32010247146763" lon="-6.012377208906213"><ele>125.0</ele><time>2026-04-22T14:15:24Z</time></trkpt><trkpt lat="35.319813052432615" lon="-6.012419368401727"><ele>125.0</ele><time>2026-04-22T14:15:25Z</time></trkpt><trkpt lat="35.31952373103603" lon="-6.0124675127903195"><ele>122.5</ele><time>2026-04-22T14:15:26Z</time></trkpt><trkpt lat="35.31923544337952" lon="-6.012515673908744"><ele>120.0</ele><time>2026-04-22T14:15:27Z</time></trkpt><trkpt lat="35.318949242808095" lon="-6.012574158048454"><ele>122.0</ele><time>2026-04-22T14:15:28Z</time></trkpt><trkpt lat="35.31866465575793" lon="-6.0126371905072915"><ele>124.0</ele><time>2026-04-22T14:15:29Z</time></trkpt><trkpt lat="35.31838036169855" lon="-6.012705973711688"><ele>124.0</ele><time>2026-04-22T14:15:30Z</time></trkpt><trkpt lat="35.318095986768654" lon="-6.012780309308678"><ele>124.0</ele><time>2026-04-22T14:15:31Z</time></trkpt><trkpt lat="35.31781204638749" lon="-6.012856549454089"><ele>126.0</ele><time>2026-04-22T14:15:32Z</time></trkpt><trkpt lat="35.31753090832935" lon="-6.012939912526328"><ele>128.0</ele><time>2026-04-22T14:15:33Z</time></trkpt><trkpt lat="35.31724927898482" lon="-6.013023521580288"><ele>128.0</ele><time>2026-04-22T14:15:34Z</time></trkpt><trkpt lat="35.31696734019202" lon="-6.013116370895188"><ele>128.0</ele><time>2026-04-22T14:15:35Z</time></trkpt><trkpt lat="35.31668874439671" lon="-6.013210742657326"><ele>128.0</ele><time>2026-04-22T14:15:36Z</time></trkpt><trkpt lat="35.31640999266114" lon="-6.013309903847392"><ele>128.0</ele><time>2026-04-22T14:15:37Z</time></trkpt><trkpt lat="35.31613259159785" lon="-6.013412601521985"><ele>127.0</ele><time>2026-04-22T14:15:38Z</time></trkpt><trkpt lat="35.315856958210006" lon="-6.013522045574591"><ele>126.0</ele><time>2026-04-22T14:15:39Z</time></trkpt><trkpt lat="35.31558136692618" lon="-6.013637673998887"><ele>127.0</ele><time>2026-04-22T14:15:40Z</time></trkpt><trkpt lat="35.31530707945198" lon="-6.013753896080893"><ele>128.0</ele><time>2026-04-22T14:15:41Z</time></trkpt><trkpt lat="35.31503602718831" lon="-6.01388190216437"><ele>128.0</ele><time>2026-04-22T14:15:42Z</time></trkpt><trkpt lat="35.314765193209176" lon="-6.014014006668194"><ele>128.0</ele><time>2026-04-22T14:15:43Z</time></trkpt><trkpt lat="35.31449522256688" lon="-6.014148838235463"><ele>128.5</ele><time>2026-04-22T14:15:44Z</time></trkpt><trkpt lat="35.31422790424016" lon="-6.0142896396828425"><ele>129.0</ele><time>2026-04-22T14:15:45Z</time></trkpt><trkpt lat="35.31396112368822" lon="-6.014435826510341"><ele>129.5</ele><time>2026-04-22T14:15:46Z</time></trkpt><trkpt lat="35.31369608674759" lon="-6.014587730274271"><ele>130.0</ele><time>2026-04-22T14:15:47Z</time></trkpt><trkpt lat="35.313431846202825" lon="-6.014743019551668"><ele>130.0</ele><time>2026-04-22T14:15:48Z</time></trkpt><trkpt lat="35.3131689329646" lon="-6.014902972470804"><ele>130.0</ele><time>2026-04-22T14:15:49Z</time></trkpt><trkpt lat="35.31290834991" lon="-6.015066374532199"><ele>128.5</ele><time>2026-04-22T14:15:50Z</time></trkpt><trkpt lat="35.312649432418546" lon="-6.015235597632189"><ele>127.0</ele><time>2026-04-22T14:15:51Z</time></trkpt><trkpt lat="35.312393875218646" lon="-6.015409771001989"><ele>126.5</ele><time>2026-04-22T14:15:52Z</time></trkpt><trkpt lat="35.31214188083311" lon="-6.015588761706017"><ele>126.0</ele><time>2026-04-22T14:15:53Z</time></trkpt><trkpt lat="35.31189112150655" lon="-6.015770661485318"><ele>126.0</ele><time>2026-04-22T14:15:54Z</time></trkpt><trkpt lat="35.311641211806624" lon="-6.01595457435305"><ele>126.0</ele><time>2026-04-22T14:15:55Z</time></trkpt><trkpt lat="35.311396010871576" lon="-6.016144723636088"><ele>125.0</ele><time>2026-04-22T14:15:56Z</time></trkpt><trkpt lat="35.31115488170443" lon="-6.016340568165185"><ele>124.0</ele><time>2026-04-22T14:15:57Z</time></trkpt><trkpt lat="35.31091557768905" lon="-6.0165406006710205"><ele>123.5</ele><time>2026-04-22T14:15:58Z</time></trkpt><trkpt lat="35.31067791992526" lon="-6.01674663707102"><ele>123.0</ele><time>2026-04-22T14:15:59Z</time></trkpt><trkpt lat="35.310442879932495" lon="-6.016956829363044"><ele>121.5</ele><time>2026-04-22T14:16:00Z</time></trkpt><trkpt lat="35.31020945731087" lon="-6.017167412860026"><ele>120.0</ele><time>2026-04-22T14:16:01Z</time></trkpt><trkpt lat="35.30997804070335" lon="-6.017377957686159"><ele>120.0</ele><time>2026-04-22T14:16:02Z</time></trkpt><trkpt lat="35.30974902150944" lon="-6.017595206605901"><ele>120.0</ele><time>2026-04-22T14:16:03Z</time></trkpt><trkpt lat="35.309521813192134" lon="-6.017818649403756"><ele>119.0</ele><time>2026-04-22T14:16:04Z</time></trkpt><trkpt lat="35.30929805391931" lon="-6.018047714632847"><ele>118.0</ele><time>2026-04-22T14:16:05Z</time></trkpt><trkpt lat="35.309079908450755" lon="-6.018283585844718"><ele>117.5</ele><time>2026-04-22T14:16:06Z</time></trkpt><trkpt lat="35.308863371727924" lon="-6.01852040096715"><ele>117.0</ele><time>2026-04-22T14:16:07Z</time></trkpt><trkpt lat="35.30864775981082" lon="-6.018758909899376"><ele>117.0</ele><time>2026-04-22T14:16:08Z</time></trkpt><trkpt lat="35.30843510522677" lon="-6.018999637760111"><ele>117.0</ele><time>2026-04-22T14:16:09Z</time></trkpt><trkpt lat="35.30822862248761" lon="-6.019245364284106"><ele>117.0</ele><time>2026-04-22T14:16:10Z</time></trkpt><trkpt lat="35.30802425630854" lon="-6.019495932827039"><ele>117.0</ele><time>2026-04-22T14:16:11Z</time></trkpt><trkpt lat="35.30782417860457" lon="-6.019749447680871"><ele>118.5</ele><time>2026-04-22T14:16:12Z</time></trkpt><trkpt lat="35.3076236267882" lon="-6.020001653373202"><ele>120.0</ele><time>2026-04-22T14:16:13Z</time></trkpt><trkpt lat="35.30742790973669" lon="-6.0202627237328326"><ele>121.0</ele><time>2026-04-22T14:16:14Z</time></trkpt><trkpt lat="35.3072268711302" lon="-6.020516832638662"><ele>122.0</ele><time>2026-04-22T14:16:15Z</time></trkpt><trkpt lat="35.30702889931588" lon="-6.020772553294031"><ele>124.0</ele><time>2026-04-22T14:16:16Z</time></trkpt><trkpt lat="35.306831651315235" lon="-6.021033739395015"><ele>126.0</ele><time>2026-04-22T14:16:17Z</time></trkpt><trkpt lat="35.306636914444134" lon="-6.021293320474948"><ele>126.0</ele><time>2026-04-22T14:16:18Z</time></trkpt><trkpt lat="35.30644055750421" lon="-6.021554085631532"><ele>126.0</ele><time>2026-04-22T14:16:19Z</time></trkpt><trkpt lat="35.30624354879753" lon="-6.021816376858866"><ele>128.0</ele><time>2026-04-22T14:16:20Z</time></trkpt><trkpt lat="35.306048556588124" lon="-6.022079734237852"><ele>130.0</ele><time>2026-04-22T14:16:21Z</time></trkpt><trkpt lat="35.305855801325585" lon="-6.022344478894697"><ele>130.0</ele><time>2026-04-22T14:16:22Z</time></trkpt><trkpt lat="35.30566211803283" lon="-6.022608511143738"><ele>130.0</ele><time>2026-04-22T14:16:23Z</time></trkpt><trkpt lat="35.30546758805301" lon="-6.022870409427327"><ele>130.0</ele><time>2026-04-22T14:16:24Z</time></trkpt><trkpt lat="35.305273056802584" lon="-6.023132568808433"><ele>130.0</ele><time>2026-04-22T14:16:25Z</time></trkpt><trkpt lat="35.305076719003864" lon="-6.0233904207800535"><ele>131.0</ele><time>2026-04-22T14:16:26Z</time></trkpt><trkpt lat="35.304880250342414" lon="-6.02364986086706"><ele>132.0</ele><time>2026-04-22T14:16:27Z</time></trkpt><trkpt lat="35.304682241002816" lon="-6.023907849231811"><ele>134.0</ele><time>2026-04-22T14:16:28Z</time></trkpt><trkpt lat="35.30448071183397" lon="-6.024159728775278"><ele>136.0</ele><time>2026-04-22T14:16:29Z</time></trkpt><trkpt lat="35.304275729252396" lon="-6.02440779974394"><ele>136.0</ele><time>2026-04-22T14:16:30Z</time></trkpt><trkpt lat="35.304064801074695" lon="-6.024649242603059"><ele>136.0</ele><time>2026-04-22T14:16:31Z</time></trkpt><trkpt lat="35.303849564008814" lon="-6.024885704687578"><ele>137.5</ele><time>2026-04-22T14:16:32Z</time></trkpt><trkpt lat="35.30362901519353" lon="-6.025115289060682"><ele>139.0</ele><time>2026-04-22T14:16:33Z</time></trkpt><trkpt lat="35.30340582557637" lon="-6.025338984614239"><ele>139.0</ele><time>2026-04-22T14:16:34Z</time></trkpt><trkpt lat="35.303177787141635" lon="-6.025556598977892"><ele>139.0</ele><time>2026-04-22T14:16:35Z</time></trkpt><trkpt lat="35.302944808846206" lon="-6.0257678493660345"><ele>141.0</ele><time>2026-04-22T14:16:36Z</time></trkpt><trkpt lat="35.30270869602502" lon="-6.025970705104914"><ele>143.0</ele><time>2026-04-22T14:16:37Z</time></trkpt><trkpt lat="35.30246357109946" lon="-6.02616206375302"><ele>143.0</ele><time>2026-04-22T14:16:38Z</time></trkpt><trkpt lat="35.30221744714465" lon="-6.026343760220833"><ele>143.0</ele><time>2026-04-22T14:16:39Z</time></trkpt><trkpt lat="35.30196444608909" lon="-6.026514965221172"><ele>147.0</ele><time>2026-04-22T14:16:40Z</time></trkpt><trkpt lat="35.30170838818047" lon="-6.026679069680329"><ele>151.0</ele><time>2026-04-22T14:16:41Z</time></trkpt><trkpt lat="35.30144949280648" lon="-6.026836020424603"><ele>149.5</ele><time>2026-04-22T14:16:42Z</time></trkpt><trkpt lat="35.301187362731255" lon="-6.0269873337127144"><ele>148.0</ele><time>2026-04-22T14:16:43Z</time></trkpt><trkpt lat="35.30092430129061" lon="-6.027128680073279"><ele>148.0</ele><time>2026-04-22T14:16:44Z</time></trkpt><trkpt lat="35.30065769246708" lon="-6.027258218859726"><ele>148.0</ele><time>2026-04-22T14:16:45Z</time></trkpt><trkpt lat="35.300386860476955" lon="-6.027385158546397"><ele>152.5</ele><time>2026-04-22T14:16:46Z</time></trkpt><trkpt lat="35.30011712731226" lon="-6.027509274343301"><ele>157.0</ele><time>2026-04-22T14:16:47Z</time></trkpt><trkpt lat="35.29984826309809" lon="-6.027633159785605"><ele>157.5</ele><time>2026-04-22T14:16:48Z</time></trkpt><trkpt lat="35.29957381352491" lon="-6.0277487776213095"><ele>158.0</ele><time>2026-04-22T14:16:49Z</time></trkpt><trkpt lat="35.29930239352696" lon="-6.02786665665111"><ele>158.0</ele><time>2026-04-22T14:16:50Z</time></trkpt><trkpt lat="35.29902848585322" lon="-6.027981937197748"><ele>158.0</ele><time>2026-04-22T14:16:51Z</time></trkpt><trkpt lat="35.29875177552701" lon="-6.028096301182178"><ele>160.0</ele><time>2026-04-22T14:16:52Z</time></trkpt><trkpt lat="35.29847703465831" lon="-6.028212528024669"><ele>162.0</ele><time>2026-04-22T14:16:53Z</time></trkpt><trkpt lat="35.298198209989685" lon="-6.02832629962123"><ele>167.5</ele><time>2026-04-22T14:16:54Z</time></trkpt><trkpt lat="35.297921191730744" lon="-6.028444749587459"><ele>173.0</ele><time>2026-04-22T14:16:55Z</time></trkpt><trkpt lat="35.29765002636651" lon="-6.0285687382579844"><ele>173.0</ele><time>2026-04-22T14:16:56Z</time></trkpt><trkpt lat="35.297376144020575" lon="-6.028693629542649"><ele>173.0</ele><time>2026-04-22T14:16:57Z</time></trkpt><trkpt lat="35.29710424859654" lon="-6.0288221469166405"><ele>175.5</ele><time>2026-04-22T14:16:58Z</time></trkpt><trkpt lat="35.29683451247643" lon="-6.028960652522355"><ele>178.0</ele><time>2026-04-22T14:16:59Z</time></trkpt><trkpt lat="35.29656671203173" lon="-6.029101254280324"><ele>180.0</ele><time>2026-04-22T14:17:00Z</time></trkpt><trkpt lat="35.29630537310785" lon="-6.029248146074298"><ele>182.0</ele><time>2026-04-22T14:17:01Z</time></trkpt><trkpt lat="35.29605057856329" lon="-6.029404278938805"><ele>182.0</ele><time>2026-04-22T14:17:02Z</time></trkpt><trkpt lat="35.29579895343539" lon="-6.02956004569174"><ele>182.0</ele><time>2026-04-22T14:17:03Z</time></trkpt><trkpt lat="35.29555040217807" lon="-6.029717945242643"><ele>184.0</ele><time>2026-04-22T14:17:04Z</time></trkpt><trkpt lat="35.29531222331817" lon="-6.029878990683208"><ele>186.0</ele><time>2026-04-22T14:17:05Z</time></trkpt><trkpt lat="35.29509041081717" lon="-6.03003172294734"><ele>186.0</ele><time>2026-04-22T14:17:06Z</time></trkpt><trkpt lat="35.29487782066691" lon="-6.03018442965096"><ele>186.0</ele><time>2026-04-22T14:17:07Z</time></trkpt><trkpt lat="35.29466473021259" lon="-6.030346966402458"><ele>191.0</ele><time>2026-04-22T14:17:08Z</time></trkpt><trkpt lat="35.294451446163414" lon="-6.030513347861991"><ele>196.0</ele><time>2026-04-22T14:17:09Z</time></trkpt><trkpt lat="35.294241690397115" lon="-6.0306836694745"><ele>196.0</ele><time>2026-04-22T14:17:10Z</time></trkpt><trkpt lat="35.2940349056872" lon="-6.030858720636726"><ele>196.0</ele><time>2026-04-22T14:17:11Z</time></trkpt><trkpt lat="35.29383064003891" lon="-6.031036215848569"><ele>196.0</ele><time>2026-04-22T14:17:12Z</time></trkpt><trkpt lat="35.2936373429867" lon="-6.03120753083716"><ele>196.0</ele><time>2026-04-22T14:17:13Z</time></trkpt><trkpt lat="35.29345113230419" lon="-6.03137561194664"><ele>196.0</ele><time>2026-04-22T14:17:14Z</time></trkpt><trkpt lat="35.293274449404095" lon="-6.031542370764491"><ele>196.0</ele><time>2026-04-22T14:17:15Z</time></trkpt><trkpt lat="35.2931027481074" lon="-6.031709191863854"><ele>196.0</ele><time>2026-04-22T14:17:16Z</time></trkpt><trkpt lat="35.29293263203643" lon="-6.031878972465633"><ele>192.5</ele><time>2026-04-22T14:17:17Z</time></trkpt><trkpt lat="35.292760316112464" lon="-6.032056899563649"><ele>189.0</ele><time>2026-04-22T14:17:18Z</time></trkpt><trkpt lat="35.29258638434212" lon="-6.0322432234604495"><ele>189.0</ele><time>2026-04-22T14:17:19Z</time></trkpt><trkpt lat="35.29241126715436" lon="-6.032435674004768"><ele>189.0</ele><time>2026-04-22T14:17:20Z</time></trkpt><trkpt lat="35.29222890425917" lon="-6.032636674095296"><ele>185.0</ele><time>2026-04-22T14:17:21Z</time></trkpt><trkpt lat="35.292044483896255" lon="-6.0328480764716925"><ele>181.0</ele><time>2026-04-22T14:17:22Z</time></trkpt><trkpt lat="35.291858077154146" lon="-6.033068400141011"><ele>181.0</ele><time>2026-04-22T14:17:23Z</time></trkpt><trkpt lat="35.29167418557973" lon="-6.033299959652084"><ele>181.0</ele><time>2026-04-22T14:17:24Z</time></trkpt><trkpt lat="35.29149061164717" lon="-6.033536971551857"><ele>177.0</ele><time>2026-04-22T14:17:25Z</time></trkpt><trkpt lat="35.29130677602778" lon="-6.033779913817601"><ele>173.0</ele><time>2026-04-22T14:17:26Z</time></trkpt><trkpt lat="35.29112018348069" lon="-6.034033954166637"><ele>177.5</ele><time>2026-04-22T14:17:27Z</time></trkpt><trkpt lat="35.29093137569025" lon="-6.034293724858619"><ele>182.0</ele><time>2026-04-22T14:17:28Z</time></trkpt><trkpt lat="35.29074757710746" lon="-6.034565109837341"><ele>181.5</ele><time>2026-04-22T14:17:29Z</time></trkpt><trkpt lat="35.29056927360108" lon="-6.03484307312246"><ele>181.0</ele><time>2026-04-22T14:17:30Z</time></trkpt><trkpt lat="35.29039300868325" lon="-6.035126421868278"><ele>181.0</ele><time>2026-04-22T14:17:31Z</time></trkpt><trkpt lat="35.290219575017915" lon="-6.035412897904072"><ele>181.0</ele><time>2026-04-22T14:17:32Z</time></trkpt><trkpt lat="35.290046645367354" lon="-6.035703110397307"><ele>184.0</ele><time>2026-04-22T14:17:33Z</time></trkpt><trkpt lat="35.28987647135022" lon="-6.035993861919957"><ele>187.0</ele><time>2026-04-22T14:17:34Z</time></trkpt><trkpt lat="35.28970903460374" lon="-6.03628954264074"><ele>187.0</ele><time>2026-04-22T14:17:35Z</time></trkpt><trkpt lat="35.28954153053784" lon="-6.036584261627838"><ele>187.0</ele><time>2026-04-22T14:17:36Z</time></trkpt><trkpt lat="35.289376156848036" lon="-6.036881529920496"><ele>189.5</ele><time>2026-04-22T14:17:37Z</time></trkpt><trkpt lat="35.28920746910597" lon="-6.037174732695085"><ele>192.0</ele><time>2026-04-22T14:17:38Z</time></trkpt><trkpt lat="35.289037081869154" lon="-6.037464917470887"><ele>191.0</ele><time>2026-04-22T14:17:39Z</time></trkpt><trkpt lat="35.28886798655481" lon="-6.037757560061479"><ele>190.0</ele><time>2026-04-22T14:17:40Z</time></trkpt><trkpt lat="35.2886974181292" lon="-6.03804577396072"><ele>193.5</ele><time>2026-04-22T14:17:41Z</time></trkpt><trkpt lat="35.28852987486908" lon="-6.038334753978757"><ele>197.0</ele><time>2026-04-22T14:17:42Z</time></trkpt><trkpt lat="35.28836110646246" lon="-6.038622244103872"><ele>197.0</ele><time>2026-04-22T14:17:43Z</time></trkpt><trkpt lat="35.2881921187504" lon="-6.038909612405409"><ele>197.0</ele><time>2026-04-22T14:17:44Z</time></trkpt><trkpt lat="35.28802120450576" lon="-6.039196624418035"><ele>193.0</ele><time>2026-04-22T14:17:45Z</time></trkpt><trkpt lat="35.28785088315394" lon="-6.039483718702606"><ele>189.0</ele><time>2026-04-22T14:17:46Z</time></trkpt><trkpt lat="35.287683172956456" lon="-6.039772793375908"><ele>191.5</ele><time>2026-04-22T14:17:47Z</time></trkpt><trkpt lat="35.28751475682803" lon="-6.040061462440479"><ele>194.0</ele><time>2026-04-22T14:17:48Z</time></trkpt><trkpt lat="35.28734410921431" lon="-6.040349164113124"><ele>194.5</ele><time>2026-04-22T14:17:49Z</time></trkpt><trkpt lat="35.28717203704254" lon="-6.040637151380574"><ele>195.0</ele><time>2026-04-22T14:17:50Z</time></trkpt><trkpt lat="35.28700207225112" lon="-6.040926635263022"><ele>195.0</ele><time>2026-04-22T14:17:51Z</time></trkpt><trkpt lat="35.28683223477917" lon="-6.041215145267548"><ele>195.0</ele><time>2026-04-22T14:17:51.999Z</time></trkpt><trkpt lat="35.28666204103391" lon="-6.041503811161613"><ele>196.5</ele><time>2026-04-22T14:17:52.999Z</time></trkpt><trkpt lat="35.28649165486803" lon="-6.041791536032362"><ele>198.0</ele><time>2026-04-22T14:17:53.999Z</time></trkpt><trkpt lat="35.286322775865884" lon="-6.042081347177654"><ele>194.5</ele><time>2026-04-22T14:17:54.999Z</time></trkpt><trkpt lat="35.28615559122756" lon="-6.042370888933563"><ele>191.0</ele><time>2026-04-22T14:17:55.999Z</time></trkpt><trkpt lat="35.285995988777564" lon="-6.04266697185778"><ele>191.0</ele><time>2026-04-22T14:17:56.999Z</time></trkpt><trkpt lat="35.28584330509861" lon="-6.042968098266768"><ele>191.0</ele><time>2026-04-22T14:17:57.999Z</time></trkpt><trkpt lat="35.28569901692605" lon="-6.043274898446267"><ele>192.0</ele><time>2026-04-22T14:17:58.999Z</time></trkpt><trkpt lat="35.28556532937006" lon="-6.043588344753235"><ele>193.0</ele><time>2026-04-22T14:17:59.999Z</time></trkpt><trkpt lat="35.285438984378786" lon="-6.043906311000689"><ele>195.5</ele><time>2026-04-22T14:18:00.999Z</time></trkpt><trkpt lat="35.285320316827786" lon="-6.044228331953035"><ele>198.0</ele><time>2026-04-22T14:18:01.999Z</time></trkpt><trkpt lat="35.28520828557624" lon="-6.044553803533618"><ele>198.0</ele><time>2026-04-22T14:18:02.999Z</time></trkpt><trkpt lat="35.28510417496001" lon="-6.044883493189711"><ele>198.0</ele><time>2026-04-22T14:18:03.999Z</time></trkpt><trkpt lat="35.28501138388072" lon="-6.0452180458647575"><ele>198.0</ele><time>2026-04-22T14:18:04.999Z</time></trkpt><trkpt lat="35.284927451782806" lon="-6.045556440125346"><ele>198.0</ele><time>2026-04-22T14:18:05.999Z</time></trkpt><trkpt lat="35.2848537494577" lon="-6.045899219563461"><ele>196.0</ele><time>2026-04-22T14:18:06.999Z</time></trkpt><trkpt lat="35.28478933169669" lon="-6.046245469929738"><ele>194.0</ele><time>2026-04-22T14:18:07.999Z</time></trkpt><trkpt lat="35.28473496968466" lon="-6.046594829382702"><ele>192.0</ele><time>2026-04-22T14:18:08.999Z</time></trkpt><trkpt lat="35.28468786225388" lon="-6.046947297865706"><ele>190.0</ele><time>2026-04-22T14:18:09.999Z</time></trkpt><trkpt lat="35.28464785535943" lon="-6.047300149477856"><ele>190.5</ele><time>2026-04-22T14:18:10.999Z</time></trkpt><trkpt lat="35.284622190087326" lon="-6.0476526436838745"><ele>191.0</ele><time>2026-04-22T14:18:11.999Z</time></trkpt><trkpt lat="35.28460502672365" lon="-6.048007617661821"><ele>191.5</ele><time>2026-04-22T14:18:12.999Z</time></trkpt><trkpt lat="35.28459606055714" lon="-6.048360281271445"><ele>192.0</ele><time>2026-04-22T14:18:13.999Z</time></trkpt><trkpt lat="35.284596775576354" lon="-6.048714320647405"><ele>192.0</ele><time>2026-04-22T14:18:14.999Z</time></trkpt><trkpt lat="35.2846063108966" lon="-6.049069388305297"><ele>192.0</ele><time>2026-04-22T14:18:15.999Z</time></trkpt><trkpt lat="35.28462215629186" lon="-6.049422733683918"><ele>192.0</ele><time>2026-04-22T14:18:16.999Z</time></trkpt><trkpt lat="35.284653276021345" lon="-6.049774496500795"><ele>192.0</ele><time>2026-04-22T14:18:17.999Z</time></trkpt><trkpt lat="35.284691132897315" lon="-6.05012494379663"><ele>192.0</ele><time>2026-04-22T14:18:18.999Z</time></trkpt><trkpt lat="35.2847365050725" lon="-6.0504752829291215"><ele>192.0</ele><time>2026-04-22T14:18:19.999Z</time></trkpt><trkpt lat="35.284790266416536" lon="-6.050825652907164"><ele>194.5</ele><time>2026-04-22T14:18:20.999Z</time></trkpt><trkpt lat="35.28484783071521" lon="-6.051175398513155"><ele>197.0</ele><time>2026-04-22T14:18:21.999Z</time></trkpt><trkpt lat="35.28490860304505" lon="-6.051526076752633"><ele>196.5</ele><time>2026-04-22T14:18:22.999Z</time></trkpt><trkpt lat="35.284966748471525" lon="-6.051875306202338"><ele>196.0</ele><time>2026-04-22T14:18:23.999Z</time></trkpt><trkpt lat="35.28502354948824" lon="-6.052223209184774"><ele>195.5</ele><time>2026-04-22T14:18:24.999Z</time></trkpt><trkpt lat="35.28506758692052" lon="-6.052573266040453"><ele>195.0</ele><time>2026-04-22T14:18:25.999Z</time></trkpt><trkpt lat="35.285110660153705" lon="-6.052925489435948"><ele>195.0</ele><time>2026-04-22T14:18:26.999Z</time></trkpt><trkpt lat="35.28514455241982" lon="-6.053276543064848"><ele>195.0</ele><time>2026-04-22T14:18:27.999Z</time></trkpt><trkpt lat="35.28516333254612" lon="-6.0536219103416835"><ele>195.5</ele><time>2026-04-22T14:18:28.999Z</time></trkpt><trkpt lat="35.285175299702765" lon="-6.053967229742286"><ele>196.0</ele><time>2026-04-22T14:18:29.999Z</time></trkpt><trkpt lat="35.28517921689057" lon="-6.054317135764928"><ele>197.0</ele><time>2026-04-22T14:18:30.999Z</time></trkpt><trkpt lat="35.2851731569424" lon="-6.0546678681014505"><ele>198.0</ele><time>2026-04-22T14:18:31.999Z</time></trkpt><trkpt lat="35.285158377508324" lon="-6.055018346290865"><ele>198.5</ele><time>2026-04-22T14:18:32.999Z</time></trkpt><trkpt lat="35.285133657556514" lon="-6.055368794881922"><ele>199.0</ele><time>2026-04-22T14:18:33.999Z</time></trkpt><trkpt lat="35.285100908009476" lon="-6.0557177867725605"><ele>199.5</ele><time>2026-04-22T14:18:34.999Z</time></trkpt><trkpt lat="35.285059692074334" lon="-6.056067014241715"><ele>200.0</ele><time>2026-04-22T14:18:35.999Z</time></trkpt><trkpt lat="35.28501018193362" lon="-6.056414042830271"><ele>201.0</ele><time>2026-04-22T14:18:36.999Z</time></trkpt><trkpt lat="35.284952451141535" lon="-6.056761346778469"><ele>202.0</ele><time>2026-04-22T14:18:37.999Z</time></trkpt><trkpt lat="35.28488443713787" lon="-6.057105810924426"><ele>202.0</ele><time>2026-04-22T14:18:38.999Z</time></trkpt><trkpt lat="35.28480687835016" lon="-6.057447392455607"><ele>202.0</ele><time>2026-04-22T14:18:39.999Z</time></trkpt><trkpt lat="35.28472059448369" lon="-6.057784511146178"><ele>203.5</ele><time>2026-04-22T14:18:40.999Z</time></trkpt><trkpt lat="35.28462565402002" lon="-6.058118747846241"><ele>205.0</ele><time>2026-04-22T14:18:41.999Z</time></trkpt><trkpt lat="35.2845224615791" lon="-6.058450664936402"><ele>205.5</ele><time>2026-04-22T14:18:42.999Z</time></trkpt><trkpt lat="35.28441245732604" lon="-6.058779557104822"><ele>206.0</ele><time>2026-04-22T14:18:43.999Z</time></trkpt><trkpt lat="35.28429155728889" lon="-6.059103948858538"><ele>204.5</ele><time>2026-04-22T14:18:44.999Z</time></trkpt><trkpt lat="35.28416421984272" lon="-6.059424373336051"><ele>203.0</ele><time>2026-04-22T14:18:45.999Z</time></trkpt><trkpt lat="35.284027346957856" lon="-6.059737103881492"><ele>204.5</ele><time>2026-04-22T14:18:46.999Z</time></trkpt><trkpt lat="35.283882076794136" lon="-6.0600451886233255"><ele>206.0</ele><time>2026-04-22T14:18:47.999Z</time></trkpt><trkpt lat="35.283727416678026" lon="-6.060346099258264"><ele>206.0</ele><time>2026-04-22T14:18:48.999Z</time></trkpt><trkpt lat="35.28356346791099" lon="-6.060639371304309"><ele>206.0</ele><time>2026-04-22T14:18:49.999Z</time></trkpt><trkpt lat="35.28339189071489" lon="-6.0609271375384655"><ele>205.5</ele><time>2026-04-22T14:18:50.999Z</time></trkpt><trkpt lat="35.28321338789201" lon="-6.061209589986383"><ele>205.0</ele><time>2026-04-22T14:18:51.999Z</time></trkpt><trkpt lat="35.28302704552545" lon="-6.061486392161537"><ele>202.5</ele><time>2026-04-22T14:18:52.999Z</time></trkpt><trkpt lat="35.28283350535008" lon="-6.061754238599256"><ele>200.0</ele><time>2026-04-22T14:18:53.999Z</time></trkpt><trkpt lat="35.28263457515334" lon="-6.062016624369527"><ele>200.0</ele><time>2026-04-22T14:18:54.999Z</time></trkpt><trkpt lat="35.28242916129053" lon="-6.062271542103895"><ele>200.0</ele><time>2026-04-22T14:18:55.999Z</time></trkpt><trkpt lat="35.28221838072492" lon="-6.0625194653395456"><ele>197.0</ele><time>2026-04-22T14:18:56.999Z</time></trkpt><trkpt lat="35.28200328456705" lon="-6.062761299350239"><ele>194.0</ele><time>2026-04-22T14:18:57.999Z</time></trkpt><trkpt lat="35.281785971908555" lon="-6.0630000469222525"><ele>194.0</ele><time>2026-04-22T14:18:58.999Z</time></trkpt><trkpt lat="35.28156813699962" lon="-6.06323975174723"><ele>194.0</ele><time>2026-04-22T14:18:59.999Z</time></trkpt><trkpt lat="35.281351184780384" lon="-6.063481925757945"><ele>194.0</ele><time>2026-04-22T14:19:00.999Z</time></trkpt><trkpt lat="35.28113569401364" lon="-6.0637233160950945"><ele>194.0</ele><time>2026-04-22T14:19:01.999Z</time></trkpt><trkpt lat="35.28091819257892" lon="-6.063962743907785"><ele>196.5</ele><time>2026-04-22T14:19:02.999Z</time></trkpt><trkpt lat="35.280699056843" lon="-6.064199156617525"><ele>199.0</ele><time>2026-04-22T14:19:03.999Z</time></trkpt><trkpt lat="35.28048032123383" lon="-6.064436395788875"><ele>199.0</ele><time>2026-04-22T14:19:04.999Z</time></trkpt><trkpt lat="35.28025856016297" lon="-6.064668167768749"><ele>199.0</ele><time>2026-04-22T14:19:05.999Z</time></trkpt><trkpt lat="35.28003941334167" lon="-6.064903822832879"><ele>200.0</ele><time>2026-04-22T14:19:06.999Z</time></trkpt><trkpt lat="35.27982157300228" lon="-6.065139277590259"><ele>201.0</ele><time>2026-04-22T14:19:07.999Z</time></trkpt><trkpt lat="35.27959890895123" lon="-6.0653656406575545"><ele>204.0</ele><time>2026-04-22T14:19:08.999Z</time></trkpt><trkpt lat="35.279373295286625" lon="-6.065586018299532"><ele>207.0</ele><time>2026-04-22T14:19:09.999Z</time></trkpt><trkpt lat="35.2791426005158" lon="-6.065797451741296"><ele>203.5</ele><time>2026-04-22T14:19:10.999Z</time></trkpt><trkpt lat="35.278907273050535" lon="-6.066003859250786"><ele>200.0</ele><time>2026-04-22T14:19:11.999Z</time></trkpt><trkpt lat="35.27866429976958" lon="-6.066197643917175"><ele>200.0</ele><time>2026-04-22T14:19:12.999Z</time></trkpt><trkpt lat="35.27841744501688" lon="-6.066384948957305"><ele>200.0</ele><time>2026-04-22T14:19:13.999Z</time></trkpt><trkpt lat="35.27816418776798" lon="-6.0665622273335185"><ele>196.5</ele><time>2026-04-22T14:19:14.999Z</time></trkpt><trkpt lat="35.27790776974767" lon="-6.066731984434774"><ele>193.0</ele><time>2026-04-22T14:19:15.999Z</time></trkpt><trkpt lat="35.27764598424601" lon="-6.066892685191584"><ele>193.0</ele><time>2026-04-22T14:19:16.999Z</time></trkpt><trkpt lat="35.277381312909135" lon="-6.067043995584397"><ele>193.0</ele><time>2026-04-22T14:19:17.999Z</time></trkpt><trkpt lat="35.27711152400725" lon="-6.067183969281221"><ele>190.5</ele><time>2026-04-22T14:19:18.999Z</time></trkpt><trkpt lat="35.276839997358394" lon="-6.06731381693384"><ele>188.0</ele><time>2026-04-22T14:19:19.999Z</time></trkpt><trkpt lat="35.276565785535524" lon="-6.067436118623329"><ele>186.0</ele><time>2026-04-22T14:19:20.999Z</time></trkpt><trkpt lat="35.276288431065126" lon="-6.067546656019577"><ele>184.0</ele><time>2026-04-22T14:19:21.999Z</time></trkpt><trkpt lat="35.27601054232452" lon="-6.0676524660584406"><ele>184.0</ele><time>2026-04-22T14:19:22.999Z</time></trkpt><trkpt lat="35.27572900081245" lon="-6.067744728372254"><ele>184.0</ele><time>2026-04-22T14:19:23.998Z</time></trkpt><trkpt lat="35.27544503420648" lon="-6.067827878532601"><ele>183.0</ele><time>2026-04-22T14:19:24.998Z</time></trkpt><trkpt lat="35.275158779370386" lon="-6.067901317553093"><ele>182.0</ele><time>2026-04-22T14:19:25.999Z</time></trkpt><trkpt lat="35.274872239754295" lon="-6.067965284458608"><ele>184.5</ele><time>2026-04-22T14:19:26.999Z</time></trkpt><trkpt lat="35.27458367280999" lon="-6.068017182918228"><ele>187.0</ele><time>2026-04-22T14:19:27.999Z</time></trkpt><trkpt lat="35.27429392909954" lon="-6.068058158190903"><ele>187.0</ele><time>2026-04-22T14:19:28.999Z</time></trkpt><trkpt lat="35.274003803206654" lon="-6.068087185894307"><ele>187.0</ele><time>2026-04-22T14:19:30Z</time></trkpt><trkpt lat="35.2737136012547" lon="-6.068111156642102"><ele>188.0</ele><time>2026-04-22T14:19:30.999Z</time></trkpt><trkpt lat="35.2734219858767" lon="-6.068132536381146"><ele>189.0</ele><time>2026-04-22T14:19:32Z</time></trkpt><trkpt lat="35.273129580622566" lon="-6.0681479751517955"><ele>189.5</ele><time>2026-04-22T14:19:33Z</time></trkpt><trkpt lat="35.2728368474833" lon="-6.068164724156533"><ele>190.0</ele><time>2026-04-22T14:19:34Z</time></trkpt><trkpt lat="35.27254394329633" lon="-6.06818222864786"><ele>191.0</ele><time>2026-04-22T14:19:35Z</time></trkpt><trkpt lat="35.27225199738606" lon="-6.068199162250943"><ele>192.0</ele><time>2026-04-22T14:19:36Z</time></trkpt><trkpt lat="35.27196028542515" lon="-6.0682203379767214"><ele>192.0</ele><time>2026-04-22T14:19:37Z</time></trkpt><trkpt lat="35.271668503022056" lon="-6.06824236443701"><ele>192.0</ele><time>2026-04-22T14:19:38Z</time></trkpt><trkpt lat="35.27137856677246" lon="-6.068273203877897"><ele>192.5</ele><time>2026-04-22T14:19:39Z</time></trkpt><trkpt lat="35.271088131874166" lon="-6.068307638949637"><ele>193.0</ele><time>2026-04-22T14:19:40Z</time></trkpt><trkpt lat="35.27079825803027" lon="-6.068351308135513"><ele>191.0</ele><time>2026-04-22T14:19:41Z</time></trkpt><trkpt lat="35.270510565621265" lon="-6.0684012403928245"><ele>189.0</ele><time>2026-04-22T14:19:42Z</time></trkpt><trkpt lat="35.2702234332794" lon="-6.068457325843415"><ele>189.0</ele><time>2026-04-22T14:19:43Z</time></trkpt><trkpt lat="35.269936741852845" lon="-6.068519011626737"><ele>189.0</ele><time>2026-04-22T14:19:44Z</time></trkpt><trkpt lat="35.269650771320244" lon="-6.068584744762917"><ele>189.0</ele><time>2026-04-22T14:19:45Z</time></trkpt><trkpt lat="35.26936623250597" lon="-6.068657216131816"><ele>189.0</ele><time>2026-04-22T14:19:46Z</time></trkpt><trkpt lat="35.269084374084954" lon="-6.0687382287223315"><ele>188.5</ele><time>2026-04-22T14:19:47Z</time></trkpt><trkpt lat="35.268803213036506" lon="-6.068828363171076"><ele>188.0</ele><time>2026-04-22T14:19:48Z</time></trkpt><trkpt lat="35.268522719770765" lon="-6.068923031793639"><ele>188.0</ele><time>2026-04-22T14:19:49Z</time></trkpt><trkpt lat="35.26824302083601" lon="-6.06902409172546"><ele>188.0</ele><time>2026-04-22T14:19:50Z</time></trkpt><trkpt lat="35.2679639361053" lon="-6.069128756451017"><ele>187.0</ele><time>2026-04-22T14:19:51Z</time></trkpt><trkpt lat="35.267685618706615" lon="-6.0692369695034944"><ele>186.0</ele><time>2026-04-22T14:19:52Z</time></trkpt><trkpt lat="35.26740847384632" lon="-6.069348259062079"><ele>186.0</ele><time>2026-04-22T14:19:53Z</time></trkpt><trkpt lat="35.267134543104305" lon="-6.0694640820726615"><ele>186.0</ele><time>2026-04-22T14:19:54Z</time></trkpt><trkpt lat="35.26686076590085" lon="-6.069585501939406"><ele>186.0</ele><time>2026-04-22T14:19:55Z</time></trkpt><trkpt lat="35.266590167386255" lon="-6.069714684390836"><ele>186.0</ele><time>2026-04-22T14:19:56Z</time></trkpt><trkpt lat="35.26631987831092" lon="-6.069849163038496"><ele>186.0</ele><time>2026-04-22T14:19:57Z</time></trkpt><trkpt lat="35.26605018604565" lon="-6.069988034235765"><ele>186.0</ele><time>2026-04-22T14:19:58Z</time></trkpt><trkpt lat="35.26578087047923" lon="-6.0701291645386135"><ele>186.0</ele><time>2026-04-22T14:19:59Z</time></trkpt><trkpt lat="35.26551419310805" lon="-6.070274176377508"><ele>186.0</ele><time>2026-04-22T14:20:00Z</time></trkpt><trkpt lat="35.26524901145545" lon="-6.070421931221027"><ele>186.0</ele><time>2026-04-22T14:20:01Z</time></trkpt><trkpt lat="35.264984305875615" lon="-6.070571968730542"><ele>186.0</ele><time>2026-04-22T14:20:02Z</time></trkpt><trkpt lat="35.26472138446035" lon="-6.070721389851458"><ele>185.0</ele><time>2026-04-22T14:20:03Z</time></trkpt><trkpt lat="35.26446027591548" lon="-6.07086856196465"><ele>184.0</ele><time>2026-04-22T14:20:04Z</time></trkpt><trkpt lat="35.264203021043" lon="-6.071016665015584"><ele>183.0</ele><time>2026-04-22T14:20:05Z</time></trkpt><trkpt lat="35.26394490769813" lon="-6.07116096630455"><ele>182.0</ele><time>2026-04-22T14:20:06Z</time></trkpt><trkpt lat="35.26369280771663" lon="-6.071297235468476"><ele>182.0</ele><time>2026-04-22T14:20:07Z</time></trkpt><trkpt lat="35.263432955134824" lon="-6.071441479660469"><ele>182.0</ele><time>2026-04-22T14:20:08Z</time></trkpt><trkpt lat="35.26317130382656" lon="-6.071582924350581"><ele>181.5</ele><time>2026-04-22T14:20:09Z</time></trkpt><trkpt lat="35.26290878243366" lon="-6.0717228218945305"><ele>181.0</ele><time>2026-04-22T14:20:10Z</time></trkpt><trkpt lat="35.26264542478017" lon="-6.071862228146924"><ele>181.0</ele><time>2026-04-22T14:20:11Z</time></trkpt><trkpt lat="35.262379007959865" lon="-6.07199991589159"><ele>181.0</ele><time>2026-04-22T14:20:12Z</time></trkpt><trkpt lat="35.26211012241243" lon="-6.07213142985732"><ele>180.5</ele><time>2026-04-22T14:20:13Z</time></trkpt><trkpt lat="35.26184078041162" lon="-6.072256500905647"><ele>180.0</ele><time>2026-04-22T14:20:14Z</time></trkpt><trkpt lat="35.26156925135196" lon="-6.072378288501018"><ele>182.0</ele><time>2026-04-22T14:20:15Z</time></trkpt><trkpt lat="35.26129676532812" lon="-6.072495717847882"><ele>184.0</ele><time>2026-04-22T14:20:16Z</time></trkpt><trkpt lat="35.26102103242895" lon="-6.072609334383418"><ele>184.0</ele><time>2026-04-22T14:20:17Z</time></trkpt><trkpt lat="35.26074374984623" lon="-6.072716342798395"><ele>184.0</ele><time>2026-04-22T14:20:18Z</time></trkpt><trkpt lat="35.26046425369937" lon="-6.072815562024249"><ele>186.0</ele><time>2026-04-22T14:20:19Z</time></trkpt><trkpt lat="35.260182685592675" lon="-6.072909100463254"><ele>188.0</ele><time>2026-04-22T14:20:20Z</time></trkpt><trkpt lat="35.259898769605364" lon="-6.072996359601673"><ele>188.5</ele><time>2026-04-22T14:20:21Z</time></trkpt><trkpt lat="35.25961397756847" lon="-6.0730766862724845"><ele>189.0</ele><time>2026-04-22T14:20:22Z</time></trkpt><trkpt lat="35.25932894617046" lon="-6.073150762343915"><ele>189.0</ele><time>2026-04-22T14:20:23Z</time></trkpt><trkpt lat="35.25904307385411" lon="-6.073217937662993"><ele>189.0</ele><time>2026-04-22T14:20:24Z</time></trkpt><trkpt lat="35.25875604539935" lon="-6.073277496179588"><ele>183.5</ele><time>2026-04-22T14:20:25Z</time></trkpt><trkpt lat="35.25846880431902" lon="-6.073329820392468"><ele>178.0</ele><time>2026-04-22T14:20:26Z</time></trkpt><trkpt lat="35.25818095268234" lon="-6.073375014921717"><ele>177.5</ele><time>2026-04-22T14:20:27Z</time></trkpt><trkpt lat="35.25789204109516" lon="-6.073414236357882"><ele>177.0</ele><time>2026-04-22T14:20:28Z</time></trkpt><trkpt lat="35.25760133674865" lon="-6.0734498986347045"><ele>177.0</ele><time>2026-04-22T14:20:29Z</time></trkpt><trkpt lat="35.2573102207874" lon="-6.073480975186865"><ele>177.0</ele><time>2026-04-22T14:20:30Z</time></trkpt><trkpt lat="35.257019565306955" lon="-6.073506466775559"><ele>176.0</ele><time>2026-04-22T14:20:31Z</time></trkpt><trkpt lat="35.256728538443426" lon="-6.073522779856709"><ele>175.0</ele><time>2026-04-22T14:20:32Z</time></trkpt><trkpt lat="35.256436869731395" lon="-6.073532090683589"><ele>174.5</ele><time>2026-04-22T14:20:33Z</time></trkpt><trkpt lat="35.2561450835883" lon="-6.073536654604133"><ele>174.0</ele><time>2026-04-22T14:20:34Z</time></trkpt><trkpt lat="35.25585269572205" lon="-6.073533839259829"><ele>172.0</ele><time>2026-04-22T14:20:35Z</time></trkpt><trkpt lat="35.255561742653434" lon="-6.073523987801513"><ele>170.0</ele><time>2026-04-22T14:20:36Z</time></trkpt><trkpt lat="35.255270806691556" lon="-6.0735105636348585"><ele>170.0</ele><time>2026-04-22T14:20:37Z</time></trkpt><trkpt lat="35.25498048067598" lon="-6.073487963070331"><ele>170.0</ele><time>2026-04-22T14:20:38Z</time></trkpt><trkpt lat="35.254689237659086" lon="-6.073463537327366"><ele>169.5</ele><time>2026-04-22T14:20:39Z</time></trkpt><trkpt lat="35.2544001972737" lon="-6.073431833534881"><ele>169.0</ele><time>2026-04-22T14:20:40Z</time></trkpt><trkpt lat="35.25411126650489" lon="-6.073396978954482"><ele>171.5</ele><time>2026-04-22T14:20:41Z</time></trkpt><trkpt lat="35.25382214176316" lon="-6.0733543211784085"><ele>174.0</ele><time>2026-04-22T14:20:42Z</time></trkpt><trkpt lat="35.25353579737577" lon="-6.073303002069032"><ele>174.5</ele><time>2026-04-22T14:20:43Z</time></trkpt><trkpt lat="35.25324780224998" lon="-6.073241468059786"><ele>175.0</ele><time>2026-04-22T14:20:44Z</time></trkpt><trkpt lat="35.2529601703195" lon="-6.073178095761314"><ele>175.0</ele><time>2026-04-22T14:20:45Z</time></trkpt><trkpt lat="35.25267337893739" lon="-6.073108299028734"><ele>175.0</ele><time>2026-04-22T14:20:46Z</time></trkpt><trkpt lat="35.252388181906525" lon="-6.073034980382803"><ele>176.0</ele><time>2026-04-22T14:20:47Z</time></trkpt><trkpt lat="35.25210355866427" lon="-6.0729537806035605"><ele>177.0</ele><time>2026-04-22T14:20:48Z</time></trkpt><trkpt lat="35.2518205236309" lon="-6.072866826376132"><ele>177.0</ele><time>2026-04-22T14:20:49Z</time></trkpt><trkpt lat="35.2515365184256" lon="-6.072775421483651"><ele>177.0</ele><time>2026-04-22T14:20:50Z</time></trkpt><trkpt lat="35.251254535444296" lon="-6.072679754113028"><ele>176.5</ele><time>2026-04-22T14:20:51Z</time></trkpt><trkpt lat="35.25097246570214" lon="-6.072587484251152"><ele>176.0</ele><time>2026-04-22T14:20:52Z</time></trkpt><trkpt lat="35.25069189698259" lon="-6.072488072844969"><ele>177.0</ele><time>2026-04-22T14:20:53Z</time></trkpt><trkpt lat="35.250409443783916" lon="-6.072397621648316"><ele>178.0</ele><time>2026-04-22T14:20:54Z</time></trkpt><trkpt lat="35.250128503905685" lon="-6.072300581587175"><ele>178.0</ele><time>2026-04-22T14:20:55Z</time></trkpt><trkpt lat="35.249846005532945" lon="-6.072207546811866"><ele>178.0</ele><time>2026-04-22T14:20:56Z</time></trkpt><trkpt lat="35.249565442857616" lon="-6.072111379785158"><ele>177.5</ele><time>2026-04-22T14:20:57Z</time></trkpt><trkpt lat="35.24928586542264" lon="-6.0720142092726785"><ele>177.0</ele><time>2026-04-22T14:20:58Z</time></trkpt><trkpt lat="35.249003420684154" lon="-6.071918130390783"><ele>178.0</ele><time>2026-04-22T14:20:59Z</time></trkpt><trkpt lat="35.248721474150905" lon="-6.071822834862556"><ele>179.0</ele><time>2026-04-22T14:21:00Z</time></trkpt><trkpt lat="35.248438907710224" lon="-6.071727905343529"><ele>179.0</ele><time>2026-04-22T14:21:01Z</time></trkpt><trkpt lat="35.24815648404463" lon="-6.071632259637124"><ele>179.0</ele><time>2026-04-22T14:21:02Z</time></trkpt><trkpt lat="35.247876761654815" lon="-6.071539337890142"><ele>179.0</ele><time>2026-04-22T14:21:03Z</time></trkpt><trkpt lat="35.24760147586619" lon="-6.071436277106545"><ele>179.0</ele><time>2026-04-22T14:21:04Z</time></trkpt><trkpt lat="35.24732467943091" lon="-6.071336517299518"><ele>176.0</ele><time>2026-04-22T14:21:05Z</time></trkpt><trkpt lat="35.247046322823735" lon="-6.071236412482645"><ele>173.0</ele><time>2026-04-22T14:21:06Z</time></trkpt><trkpt lat="35.246764801870015" lon="-6.071143163813149"><ele>173.0</ele><time>2026-04-22T14:21:07Z</time></trkpt><trkpt lat="35.24648363743219" lon="-6.071054760488165"><ele>173.0</ele><time>2026-04-22T14:21:08Z</time></trkpt><trkpt lat="35.24620195091314" lon="-6.0709680627345755"><ele>172.0</ele><time>2026-04-22T14:21:09Z</time></trkpt><trkpt lat="35.2459184086211" lon="-6.070888551164455"><ele>171.0</ele><time>2026-04-22T14:21:10Z</time></trkpt><trkpt lat="35.245633366504656" lon="-6.070817212823165"><ele>171.0</ele><time>2026-04-22T14:21:11Z</time></trkpt><trkpt lat="35.24534800485812" lon="-6.0707531337770195"><ele>171.0</ele><time>2026-04-22T14:21:12Z</time></trkpt><trkpt lat="35.24506004843676" lon="-6.070696400576203"><ele>169.5</ele><time>2026-04-22T14:21:13Z</time></trkpt><trkpt lat="35.24477066253028" lon="-6.0706439212401735"><ele>168.0</ele><time>2026-04-22T14:21:14Z</time></trkpt><trkpt lat="35.24448055357221" lon="-6.070595728935115"><ele>168.0</ele><time>2026-04-22T14:21:15Z</time></trkpt><trkpt lat="35.244191276956734" lon="-6.070553837598666"><ele>168.0</ele><time>2026-04-22T14:21:16Z</time></trkpt><trkpt lat="35.24390165359716" lon="-6.070518495990776"><ele>167.5</ele><time>2026-04-22T14:21:17Z</time></trkpt><trkpt lat="35.243612234747296" lon="-6.070492847365959"><ele>167.0</ele><time>2026-04-22T14:21:18Z</time></trkpt><trkpt lat="35.24332100093874" lon="-6.070473279320905"><ele>164.5</ele><time>2026-04-22T14:21:19Z</time></trkpt><trkpt lat="35.24302927773777" lon="-6.070461444202161"><ele>162.0</ele><time>2026-04-22T14:21:20Z</time></trkpt><trkpt lat="35.24273829078036" lon="-6.070455926028507"><ele>162.0</ele><time>2026-04-22T14:21:21Z</time></trkpt><trkpt lat="35.242447102084824" lon="-6.070453949569313"><ele>162.0</ele><time>2026-04-22T14:21:22Z</time></trkpt><trkpt lat="35.24215504240415" lon="-6.070458676139219"><ele>158.0</ele><time>2026-04-22T14:21:23Z</time></trkpt><trkpt lat="35.24186454369377" lon="-6.070457448026026"><ele>154.0</ele><time>2026-04-22T14:21:24Z</time></trkpt><trkpt lat="35.24157090105795" lon="-6.070463966902423"><ele>152.0</ele><time>2026-04-22T14:21:25Z</time></trkpt><trkpt lat="35.24127967777648" lon="-6.07046142202126"><ele>150.0</ele><time>2026-04-22T14:21:25.999Z</time></trkpt><trkpt lat="35.24098852521713" lon="-6.070464093321892"><ele>150.0</ele><time>2026-04-22T14:21:26.999Z</time></trkpt><trkpt lat="35.240697318861045" lon="-6.0704655199244195"><ele>150.0</ele><time>2026-04-22T14:21:27.999Z</time></trkpt><trkpt lat="35.24040612922473" lon="-6.070464139520794"><ele>146.0</ele><time>2026-04-22T14:21:28.999Z</time></trkpt><trkpt lat="35.24011482585791" lon="-6.070455481526716"><ele>142.0</ele><time>2026-04-22T14:21:29.999Z</time></trkpt><trkpt lat="35.23982548390237" lon="-6.070436699712497"><ele>141.0</ele><time>2026-04-22T14:21:30.999Z</time></trkpt><trkpt lat="35.239534943352545" lon="-6.070413200958508"><ele>140.0</ele><time>2026-04-22T14:21:32Z</time></trkpt><trkpt lat="35.23924743351815" lon="-6.070377838109801"><ele>141.0</ele><time>2026-04-22T14:21:33Z</time></trkpt><trkpt lat="35.23896031472204" lon="-6.070334905331154"><ele>142.0</ele><time>2026-04-22T14:21:34Z</time></trkpt><trkpt lat="35.238673032653004" lon="-6.070286952759988"><ele>142.0</ele><time>2026-04-22T14:21:35Z</time></trkpt><trkpt lat="35.238386172845175" lon="-6.070230693837652"><ele>142.0</ele><time>2026-04-22T14:21:36Z</time></trkpt><trkpt lat="35.23810103114759" lon="-6.0701694686997145"><ele>141.0</ele><time>2026-04-22T14:21:37Z</time></trkpt><trkpt lat="35.2378166210449" lon="-6.070099510139986"><ele>140.0</ele><time>2026-04-22T14:21:38Z</time></trkpt><trkpt lat="35.237533166423226" lon="-6.070022752107031"><ele>140.5</ele><time>2026-04-22T14:21:39Z</time></trkpt><trkpt lat="35.237250217204064" lon="-6.0699433189188055"><ele>141.0</ele><time>2026-04-22T14:21:40Z</time></trkpt><trkpt lat="35.236967119207335" lon="-6.069859760491043"><ele>142.0</ele><time>2026-04-22T14:21:41Z</time></trkpt><trkpt lat="35.236686150282594" lon="-6.069766520094485"><ele>143.0</ele><time>2026-04-22T14:21:42Z</time></trkpt><trkpt lat="35.23640763773132" lon="-6.069665842954716"><ele>141.0</ele><time>2026-04-22T14:21:43Z</time></trkpt><trkpt lat="35.236128875113295" lon="-6.0695610388173575"><ele>139.0</ele><time>2026-04-22T14:21:44Z</time></trkpt><trkpt lat="35.235854784388884" lon="-6.069447894370507"><ele>137.5</ele><time>2026-04-22T14:21:45Z</time></trkpt><trkpt lat="35.23558497738382" lon="-6.069324948371472"><ele>136.0</ele><time>2026-04-22T14:21:46Z</time></trkpt><trkpt lat="35.235314948196326" lon="-6.069195732343842"><ele>136.5</ele><time>2026-04-22T14:21:47Z</time></trkpt><trkpt lat="35.23504942113797" lon="-6.069055443784581"><ele>137.0</ele><time>2026-04-22T14:21:48Z</time></trkpt><trkpt lat="35.23478679253242" lon="-6.068909325240086"><ele>135.5</ele><time>2026-04-22T14:21:49Z</time></trkpt><trkpt lat="35.23452373738515" lon="-6.0687552246095775"><ele>134.0</ele><time>2026-04-22T14:21:50Z</time></trkpt><trkpt lat="35.234262711195726" lon="-6.068597281451294"><ele>134.0</ele><time>2026-04-22T14:21:51Z</time></trkpt><trkpt lat="35.23400476728565" lon="-6.068427896121796"><ele>134.0</ele><time>2026-04-22T14:21:52Z</time></trkpt><trkpt lat="35.23375047508911" lon="-6.068251762457173"><ele>133.0</ele><time>2026-04-22T14:21:53Z</time></trkpt><trkpt lat="35.23349806211455" lon="-6.06806949768863"><ele>132.0</ele><time>2026-04-22T14:21:54Z</time></trkpt><trkpt lat="35.233248796343986" lon="-6.06788241868958"><ele>131.0</ele><time>2026-04-22T14:21:55Z</time></trkpt><trkpt lat="35.233002379211214" lon="-6.067689993633339"><ele>130.0</ele><time>2026-04-22T14:21:56Z</time></trkpt><trkpt lat="35.23276018988457" lon="-6.067494212645328"><ele>131.0</ele><time>2026-04-22T14:21:57Z</time></trkpt><trkpt lat="35.23251990079803" lon="-6.067293985164379"><ele>132.0</ele><time>2026-04-22T14:21:58Z</time></trkpt><trkpt lat="35.232281444708896" lon="-6.067094527862549"><ele>132.0</ele><time>2026-04-22T14:21:59Z</time></trkpt><trkpt lat="35.232043630913964" lon="-6.066892035165525"><ele>132.0</ele><time>2026-04-22T14:22:00Z</time></trkpt><trkpt lat="35.23180391808339" lon="-6.066690448031932"><ele>132.0</ele><time>2026-04-22T14:22:01Z</time></trkpt><trkpt lat="35.231564259030975" lon="-6.066491786191526"><ele>132.0</ele><time>2026-04-22T14:22:02Z</time></trkpt><trkpt lat="35.231325263409495" lon="-6.06629048101522"><ele>130.5</ele><time>2026-04-22T14:22:03Z</time></trkpt><trkpt lat="35.23108359068395" lon="-6.066093112923459"><ele>129.0</ele><time>2026-04-22T14:22:04Z</time></trkpt><trkpt lat="35.23083745212162" lon="-6.06590202335413"><ele>128.5</ele><time>2026-04-22T14:22:05Z</time></trkpt><trkpt lat="35.23058807045781" lon="-6.065716901849404"><ele>128.0</ele><time>2026-04-22T14:22:06Z</time></trkpt><trkpt lat="35.23033830244992" lon="-6.065535382700499"><ele>128.0</ele><time>2026-04-22T14:22:07Z</time></trkpt><trkpt lat="35.230086001372534" lon="-6.0653582196678"><ele>128.0</ele><time>2026-04-22T14:22:08Z</time></trkpt><trkpt lat="35.22983073836789" lon="-6.065185109302785"><ele>126.5</ele><time>2026-04-22T14:22:09Z</time></trkpt><trkpt lat="35.22957694240069" lon="-6.065017400513831"><ele>125.0</ele><time>2026-04-22T14:22:10Z</time></trkpt><trkpt lat="35.22932014445843" lon="-6.064854062203324"><ele>125.0</ele><time>2026-04-22T14:22:11Z</time></trkpt><trkpt lat="35.229059972912374" lon="-6.064695498236064"><ele>125.0</ele><time>2026-04-22T14:22:12Z</time></trkpt><trkpt lat="35.22879913590479" lon="-6.064541834800756"><ele>124.5</ele><time>2026-04-22T14:22:13Z</time></trkpt><trkpt lat="35.22853364505942" lon="-6.064397242968922"><ele>124.0</ele><time>2026-04-22T14:22:14Z</time></trkpt><trkpt lat="35.22826826405486" lon="-6.06425523393796"><ele>123.5</ele><time>2026-04-22T14:22:15Z</time></trkpt><trkpt lat="35.22800184608106" lon="-6.064121293745437"><ele>123.0</ele><time>2026-04-22T14:22:16Z</time></trkpt><trkpt lat="35.22773417359108" lon="-6.063990258551821"><ele>122.5</ele><time>2026-04-22T14:22:17Z</time></trkpt><trkpt lat="35.22746172339709" lon="-6.06386510537004"><ele>122.0</ele><time>2026-04-22T14:22:18Z</time></trkpt><trkpt lat="35.22718797198222" lon="-6.063744961328295"><ele>122.0</ele><time>2026-04-22T14:22:19Z</time></trkpt><trkpt lat="35.22691133118563" lon="-6.063629297340002"><ele>122.0</ele><time>2026-04-22T14:22:20Z</time></trkpt><trkpt lat="35.22663400003948" lon="-6.06351841690785"><ele>122.5</ele><time>2026-04-22T14:22:21Z</time></trkpt><trkpt lat="35.2263546942605" lon="-6.063410213358574"><ele>123.0</ele><time>2026-04-22T14:22:22Z</time></trkpt><trkpt lat="35.226075599346636" lon="-6.0633054999075"><ele>122.0</ele><time>2026-04-22T14:22:23Z</time></trkpt><trkpt lat="35.22579651402313" lon="-6.0632041938832675"><ele>121.0</ele><time>2026-04-22T14:22:24Z</time></trkpt><trkpt lat="35.225515208682054" lon="-6.063101779975338"><ele>119.5</ele><time>2026-04-22T14:22:25Z</time></trkpt><trkpt lat="35.225238488126756" lon="-6.062996734172193"><ele>118.0</ele><time>2026-04-22T14:22:26Z</time></trkpt><trkpt lat="35.22495936115789" lon="-6.062895241199097"><ele>116.5</ele><time>2026-04-22T14:22:27Z</time></trkpt><trkpt lat="35.22468147691831" lon="-6.062796305853421"><ele>115.0</ele><time>2026-04-22T14:22:28Z</time></trkpt><trkpt lat="35.22440208738881" lon="-6.062693359596054"><ele>115.0</ele><time>2026-04-22T14:22:29Z</time></trkpt><trkpt lat="35.22412388690512" lon="-6.062592412944688"><ele>115.0</ele><time>2026-04-22T14:22:30Z</time></trkpt><trkpt lat="35.22384554660738" lon="-6.062487229923501"><ele>111.0</ele><time>2026-04-22T14:22:31Z</time></trkpt><trkpt lat="35.22356688389157" lon="-6.0623825161572675"><ele>107.0</ele><time>2026-04-22T14:22:32Z</time></trkpt><trkpt lat="35.223287208904765" lon="-6.062280982361727"><ele>110.5</ele><time>2026-04-22T14:22:33Z</time></trkpt><trkpt lat="35.22300774892861" lon="-6.062180009852543"><ele>114.0</ele><time>2026-04-22T14:22:34Z</time></trkpt><trkpt lat="35.222729762230756" lon="-6.062077895248344"><ele>114.0</ele><time>2026-04-22T14:22:35Z</time></trkpt><trkpt lat="35.22245198139973" lon="-6.061976856079969"><ele>114.0</ele><time>2026-04-22T14:22:36Z</time></trkpt><trkpt lat="35.22217407020598" lon="-6.06187456255039"><ele>112.5</ele><time>2026-04-22T14:22:37Z</time></trkpt><trkpt lat="35.22189485522739" lon="-6.061774341243066"><ele>111.0</ele><time>2026-04-22T14:22:38Z</time></trkpt><trkpt lat="35.221615206428886" lon="-6.061675027502973"><ele>111.5</ele><time>2026-04-22T14:22:39Z</time></trkpt><trkpt lat="35.22133709763366" lon="-6.061574822298945"><ele>112.0</ele><time>2026-04-22T14:22:40Z</time></trkpt><trkpt lat="35.221057373797514" lon="-6.061481352060747"><ele>112.0</ele><time>2026-04-22T14:22:41Z</time></trkpt><trkpt lat="35.22077524670949" lon="-6.061394593625842"><ele>112.0</ele><time>2026-04-22T14:22:42Z</time></trkpt><trkpt lat="35.220490697417134" lon="-6.061320600666174"><ele>111.5</ele><time>2026-04-22T14:22:43Z</time></trkpt><trkpt lat="35.220205972984886" lon="-6.0612563199037375"><ele>111.0</ele><time>2026-04-22T14:22:44Z</time></trkpt><trkpt lat="35.2199199507764" lon="-6.061201628432769"><ele>111.5</ele><time>2026-04-22T14:22:45Z</time></trkpt><trkpt lat="35.21963164130713" lon="-6.06115526504293"><ele>112.0</ele><time>2026-04-22T14:22:46Z</time></trkpt><trkpt lat="35.219344087894406" lon="-6.061120210389441"><ele>112.0</ele><time>2026-04-22T14:22:47Z</time></trkpt><trkpt lat="35.21905528097632" lon="-6.0610889806487735"><ele>112.0</ele><time>2026-04-22T14:22:48Z</time></trkpt><trkpt lat="35.21876636866144" lon="-6.06106236280326"><ele>113.0</ele><time>2026-04-22T14:22:49Z</time></trkpt><trkpt lat="35.21847649407817" lon="-6.061048086969898"><ele>114.0</ele><time>2026-04-22T14:22:50Z</time></trkpt><trkpt lat="35.218185224266634" lon="-6.061045806208172"><ele>114.0</ele><time>2026-04-22T14:22:51Z</time></trkpt><trkpt lat="35.21789551909293" lon="-6.061053641985905"><ele>114.0</ele><time>2026-04-22T14:22:52Z</time></trkpt><trkpt lat="35.21760416881483" lon="-6.061068476861847"><ele>113.0</ele><time>2026-04-22T14:22:53Z</time></trkpt><trkpt lat="35.21731406063968" lon="-6.061089116098584"><ele>112.0</ele><time>2026-04-22T14:22:54Z</time></trkpt><trkpt lat="35.21702307170646" lon="-6.061122309761464"><ele>112.0</ele><time>2026-04-22T14:22:55Z</time></trkpt><trkpt lat="35.21673262214064" lon="-6.061160487140817"><ele>112.0</ele><time>2026-04-22T14:22:56Z</time></trkpt><trkpt lat="35.21644254967003" lon="-6.061212739528323"><ele>109.0</ele><time>2026-04-22T14:22:57Z</time></trkpt><trkpt lat="35.21615420785878" lon="-6.061269556891686"><ele>106.0</ele><time>2026-04-22T14:22:58Z</time></trkpt><trkpt lat="35.215866991780594" lon="-6.061334843279257"><ele>105.0</ele><time>2026-04-22T14:22:59Z</time></trkpt><trkpt lat="35.215580995959726" lon="-6.061408519111356"><ele>104.0</ele><time>2026-04-22T14:23:00Z</time></trkpt><trkpt lat="35.21529670174705" lon="-6.061490990527283"><ele>104.0</ele><time>2026-04-22T14:23:01Z</time></trkpt><trkpt lat="35.21501316145012" lon="-6.061584526698506"><ele>104.0</ele><time>2026-04-22T14:23:02Z</time></trkpt><trkpt lat="35.21473213986415" lon="-6.061690439343206"><ele>104.5</ele><time>2026-04-22T14:23:03Z</time></trkpt><trkpt lat="35.21445486895942" lon="-6.061803456984064"><ele>105.0</ele><time>2026-04-22T14:23:04Z</time></trkpt><trkpt lat="35.2141797564026" lon="-6.061924811729408"><ele>105.5</ele><time>2026-04-22T14:23:05Z</time></trkpt><trkpt lat="35.21390797730194" lon="-6.062051231690492"><ele>106.0</ele><time>2026-04-22T14:23:06Z</time></trkpt><trkpt lat="35.21363699230105" lon="-6.062185213601534"><ele>106.0</ele><time>2026-04-22T14:23:07Z</time></trkpt><trkpt lat="35.213368354208704" lon="-6.062329221549793"><ele>106.0</ele><time>2026-04-22T14:23:08Z</time></trkpt><trkpt lat="35.213103549247464" lon="-6.062480245460303"><ele>103.0</ele><time>2026-04-22T14:23:09Z</time></trkpt><trkpt lat="35.21284319093113" lon="-6.062638828559354"><ele>100.0</ele><time>2026-04-22T14:23:10Z</time></trkpt><trkpt lat="35.21258513801115" lon="-6.062806216880333"><ele>100.0</ele><time>2026-04-22T14:23:11Z</time></trkpt><trkpt lat="35.212331343037754" lon="-6.062982110644782"><ele>100.0</ele><time>2026-04-22T14:23:12Z</time></trkpt><trkpt lat="35.21207842046823" lon="-6.063161668033295"><ele>98.0</ele><time>2026-04-22T14:23:13Z</time></trkpt><trkpt lat="35.211830554923175" lon="-6.063346230976181"><ele>96.0</ele><time>2026-04-22T14:23:14Z</time></trkpt><trkpt lat="35.21158975898404" lon="-6.063546248415473"><ele>96.0</ele><time>2026-04-22T14:23:15Z</time></trkpt><trkpt lat="35.211353629977594" lon="-6.063756793770251"><ele>96.0</ele><time>2026-04-22T14:23:16Z</time></trkpt><trkpt lat="35.21112271525964" lon="-6.063971190590062"><ele>95.5</ele><time>2026-04-22T14:23:17Z</time></trkpt><trkpt lat="35.21089530236632" lon="-6.064191865184567"><ele>95.0</ele><time>2026-04-22T14:23:17.999Z</time></trkpt><trkpt lat="35.21067133154331" lon="-6.064416368169423"><ele>95.0</ele><time>2026-04-22T14:23:18.999Z</time></trkpt><trkpt lat="35.21045121091214" lon="-6.064646134325009"><ele>95.0</ele><time>2026-04-22T14:23:19.999Z</time></trkpt><trkpt lat="35.21023304067295" lon="-6.064882361474619"><ele>95.5</ele><time>2026-04-22T14:23:20.999Z</time></trkpt><trkpt lat="35.2100192159317" lon="-6.065120536438853"><ele>96.0</ele><time>2026-04-22T14:23:21.999Z</time></trkpt><trkpt lat="35.20980551018526" lon="-6.065361995984882"><ele>96.0</ele><time>2026-04-22T14:23:22.999Z</time></trkpt><trkpt lat="35.20959432351301" lon="-6.065607405066799"><ele>96.0</ele><time>2026-04-22T14:23:23.999Z</time></trkpt><trkpt lat="35.209379962115634" lon="-6.065848045702904"><ele>94.0</ele><time>2026-04-22T14:23:24.999Z</time></trkpt><trkpt lat="35.209163870223506" lon="-6.066080740729508"><ele>92.0</ele><time>2026-04-22T14:23:25.999Z</time></trkpt><trkpt lat="35.20894774853437" lon="-6.066312055717617"><ele>92.0</ele><time>2026-04-22T14:23:26.999Z</time></trkpt><trkpt lat="35.20872632206106" lon="-6.0665286910725795"><ele>92.0</ele><time>2026-04-22T14:23:27.999Z</time></trkpt><trkpt lat="35.20849764405708" lon="-6.066740276333518"><ele>92.5</ele><time>2026-04-22T14:23:28.999Z</time></trkpt><trkpt lat="35.20826452072486" lon="-6.0669528568286974"><ele>93.0</ele><time>2026-04-22T14:23:29.999Z</time></trkpt><trkpt lat="35.20802613966436" lon="-6.067159925308039"><ele>93.0</ele><time>2026-04-22T14:23:30.999Z</time></trkpt><trkpt lat="35.20778332592033" lon="-6.067362537473351"><ele>93.0</ele><time>2026-04-22T14:23:31.999Z</time></trkpt><trkpt lat="35.207537504651405" lon="-6.067556537226352"><ele>91.5</ele><time>2026-04-22T14:23:32.999Z</time></trkpt><trkpt lat="35.20728787496774" lon="-6.067740095956813"><ele>90.0</ele><time>2026-04-22T14:23:33.999Z</time></trkpt><trkpt lat="35.20703542172178" lon="-6.067919295722378"><ele>90.0</ele><time>2026-04-22T14:23:34.999Z</time></trkpt><trkpt lat="35.20678084547529" lon="-6.068095607364093"><ele>90.0</ele><time>2026-04-22T14:23:35.999Z</time></trkpt><trkpt lat="35.20652454303622" lon="-6.068267370492533"><ele>86.0</ele><time>2026-04-22T14:23:36.999Z</time></trkpt><trkpt lat="35.2062645840193" lon="-6.068432600618377"><ele>82.0</ele><time>2026-04-22T14:23:38Z</time></trkpt><trkpt lat="35.206001077823835" lon="-6.068585820489756"><ele>82.0</ele><time>2026-04-22T14:23:39Z</time></trkpt><trkpt lat="35.20573419093736" lon="-6.068730622451962"><ele>82.0</ele><time>2026-04-22T14:23:40Z</time></trkpt><trkpt lat="35.20546403974113" lon="-6.06886653957254"><ele>82.0</ele><time>2026-04-22T14:23:41Z</time></trkpt><trkpt lat="35.20519148531132" lon="-6.068991811088767"><ele>82.0</ele><time>2026-04-22T14:23:42Z</time></trkpt><trkpt lat="35.20491475196622" lon="-6.069106133119439"><ele>75.5</ele><time>2026-04-22T14:23:43Z</time></trkpt><trkpt lat="35.20463707848669" lon="-6.069208067232815"><ele>69.0</ele><time>2026-04-22T14:23:44Z</time></trkpt><trkpt lat="35.204355186265474" lon="-6.0693033842516675"><ele>69.0</ele><time>2026-04-22T14:23:45Z</time></trkpt><trkpt lat="35.20407250452455" lon="-6.069393639264617"><ele>69.0</ele><time>2026-04-22T14:23:46Z</time></trkpt><trkpt lat="35.20378725934821" lon="-6.069474656768117"><ele>66.5</ele><time>2026-04-22T14:23:47Z</time></trkpt><trkpt lat="35.20350050201902" lon="-6.06954607570502"><ele>64.0</ele><time>2026-04-22T14:23:48Z</time></trkpt><trkpt lat="35.20321054673076" lon="-6.069615671769522"><ele>62.5</ele><time>2026-04-22T14:23:49Z</time></trkpt><trkpt lat="35.20292178998734" lon="-6.069681855702993"><ele>61.0</ele><time>2026-04-22T14:23:50Z</time></trkpt><trkpt lat="35.2026336626532" lon="-6.0697430737185085"><ele>61.0</ele><time>2026-04-22T14:23:51Z</time></trkpt><trkpt lat="35.20234223900982" lon="-6.069805437963379"><ele>61.0</ele><time>2026-04-22T14:23:52Z</time></trkpt><trkpt lat="35.20205228834064" lon="-6.069865990178686"><ele>61.5</ele><time>2026-04-22T14:23:53Z</time></trkpt><trkpt lat="35.20176229228939" lon="-6.069928653517733"><ele>62.0</ele><time>2026-04-22T14:23:54Z</time></trkpt><trkpt lat="35.20147467724454" lon="-6.069994621405761"><ele>54.5</ele><time>2026-04-22T14:23:55Z</time></trkpt><trkpt lat="35.201188630878676" lon="-6.070069276182746"><ele>47.0</ele><time>2026-04-22T14:23:56Z</time></trkpt><trkpt lat="35.20090718752984" lon="-6.0701583282618525"><ele>49.5</ele><time>2026-04-22T14:23:57Z</time></trkpt><trkpt lat="35.20062369743516" lon="-6.070247785556366"><ele>52.0</ele><time>2026-04-22T14:23:58Z</time></trkpt><trkpt lat="35.200343683440714" lon="-6.070349037363562"><ele>52.0</ele><time>2026-04-22T14:23:59Z</time></trkpt><trkpt lat="35.20006709254829" lon="-6.070462343033453"><ele>52.0</ele><time>2026-04-22T14:24:00Z</time></trkpt><trkpt lat="35.199794531619375" lon="-6.070582630332786"><ele>53.5</ele><time>2026-04-22T14:24:01Z</time></trkpt><trkpt lat="35.19952125828667" lon="-6.0707111946658925"><ele>55.0</ele><time>2026-04-22T14:24:02Z</time></trkpt><trkpt lat="35.19925167072727" lon="-6.070851347996803"><ele>48.5</ele><time>2026-04-22T14:24:03Z</time></trkpt><trkpt lat="35.19898676836415" lon="-6.071001610965009"><ele>42.0</ele><time>2026-04-22T14:24:04Z</time></trkpt><trkpt lat="35.1987319308444" lon="-6.071161200654578"><ele>42.0</ele><time>2026-04-22T14:24:05Z</time></trkpt><trkpt lat="35.19848097542284" lon="-6.071335458596967"><ele>42.0</ele><time>2026-04-22T14:24:06Z</time></trkpt><trkpt lat="35.198231628591834" lon="-6.071515773590032"><ele>35.0</ele><time>2026-04-22T14:24:07Z</time></trkpt><trkpt lat="35.19798741457881" lon="-6.071701170125267"><ele>28.0</ele><time>2026-04-22T14:24:08Z</time></trkpt><trkpt lat="35.19775090812286" lon="-6.071896861137064"><ele>28.0</ele><time>2026-04-22T14:24:09Z</time></trkpt><trkpt lat="35.19751673426372" lon="-6.072100169978776"><ele>28.0</ele><time>2026-04-22T14:24:10Z</time></trkpt><trkpt lat="35.19728411453745" lon="-6.07230265230797"><ele>26.5</ele><time>2026-04-22T14:24:11Z</time></trkpt><trkpt lat="35.197054824463386" lon="-6.072515910876887"><ele>25.0</ele><time>2026-04-22T14:24:12Z</time></trkpt><trkpt lat="35.19683177241523" lon="-6.072735193246742"><ele>25.0</ele><time>2026-04-22T14:24:13Z</time></trkpt><trkpt lat="35.19661288144616" lon="-6.07296478944243"><ele>25.0</ele><time>2026-04-22T14:24:14Z</time></trkpt><trkpt lat="35.1963993133206" lon="-6.0732011274708455"><ele>24.0</ele><time>2026-04-22T14:24:15Z</time></trkpt><trkpt lat="35.1961954339152" lon="-6.073444718547964"><ele>23.0</ele><time>2026-04-22T14:24:16Z</time></trkpt><trkpt lat="35.19598847646301" lon="-6.073696846569171"><ele>23.0</ele><time>2026-04-22T14:24:17Z</time></trkpt><trkpt lat="35.19578732674744" lon="-6.073950804760196"><ele>23.0</ele><time>2026-04-22T14:24:18Z</time></trkpt><trkpt lat="35.195588678202085" lon="-6.07420857703943"><ele>20.0</ele><time>2026-04-22T14:24:19Z</time></trkpt><trkpt lat="35.19539304681151" lon="-6.074472999890462"><ele>17.0</ele><time>2026-04-22T14:24:20Z</time></trkpt><trkpt lat="35.19520746383628" lon="-6.074744513397512"><ele>16.0</ele><time>2026-04-22T14:24:21Z</time></trkpt><trkpt lat="35.1950261088391" lon="-6.0750216695439665"><ele>15.0</ele><time>2026-04-22T14:24:22Z</time></trkpt><trkpt lat="35.194845356264075" lon="-6.075302154241192"><ele>15.0</ele><time>2026-04-22T14:24:23Z</time></trkpt><trkpt lat="35.19466687244248" lon="-6.075580182383558"><ele>15.0</ele><time>2026-04-22T14:24:24Z</time></trkpt><trkpt lat="35.1944882277035" lon="-6.0758635564727275"><ele>15.0</ele><time>2026-04-22T14:24:25Z</time></trkpt><trkpt lat="35.19430906560735" lon="-6.076143977218441"><ele>15.0</ele><time>2026-04-22T14:24:26Z</time></trkpt><trkpt lat="35.19413126776006" lon="-6.076426737012909"><ele>14.5</ele><time>2026-04-22T14:24:27Z</time></trkpt><trkpt lat="35.19395174427985" lon="-6.07670242121473"><ele>14.0</ele><time>2026-04-22T14:24:28Z</time></trkpt><trkpt lat="35.19377245024851" lon="-6.076979334771011"><ele>14.0</ele><time>2026-04-22T14:24:29Z</time></trkpt><trkpt lat="35.19359222080067" lon="-6.077258505052083"><ele>14.0</ele><time>2026-04-22T14:24:30Z</time></trkpt><trkpt lat="35.19341226114681" lon="-6.077537680952722"><ele>13.5</ele><time>2026-04-22T14:24:31Z</time></trkpt><trkpt lat="35.19323368110327" lon="-6.077816011974457"><ele>13.0</ele><time>2026-04-22T14:24:32Z</time></trkpt><trkpt lat="35.1930547856994" lon="-6.078094442939723"><ele>14.0</ele><time>2026-04-22T14:24:33Z</time></trkpt><trkpt lat="35.19287473341248" lon="-6.078367743860942"><ele>15.0</ele><time>2026-04-22T14:24:34Z</time></trkpt><trkpt lat="35.19269444330203" lon="-6.078644904156286"><ele>15.0</ele><time>2026-04-22T14:24:35Z</time></trkpt><trkpt lat="35.19251621351889" lon="-6.078925573449255"><ele>15.0</ele><time>2026-04-22T14:24:36Z</time></trkpt><trkpt lat="35.192336822266526" lon="-6.079204832448301"><ele>14.5</ele><time>2026-04-22T14:24:37Z</time></trkpt><trkpt lat="35.1921580731696" lon="-6.079482571000849"><ele>14.0</ele><time>2026-04-22T14:24:38Z</time></trkpt><trkpt lat="35.19197852974998" lon="-6.079760048203975"><ele>13.0</ele><time>2026-04-22T14:24:39Z</time></trkpt><trkpt lat="35.19179957718416" lon="-6.080037704426284"><ele>12.0</ele><time>2026-04-22T14:24:40Z</time></trkpt><trkpt lat="35.19161890071619" lon="-6.080313900872327"><ele>11.5</ele><time>2026-04-22T14:24:41Z</time></trkpt><trkpt lat="35.19143724325421" lon="-6.0805934240284385"><ele>11.0</ele><time>2026-04-22T14:24:42Z</time></trkpt><trkpt lat="35.191254154459806" lon="-6.080868436380336"><ele>11.0</ele><time>2026-04-22T14:24:43Z</time></trkpt><trkpt lat="35.19106991513475" lon="-6.081146846758149"><ele>11.0</ele><time>2026-04-22T14:24:44Z</time></trkpt><trkpt lat="35.19088512649327" lon="-6.0814216975692"><ele>10.5</ele><time>2026-04-22T14:24:45Z</time></trkpt><trkpt lat="35.19070432857721" lon="-6.081699422251065"><ele>10.0</ele><time>2026-04-22T14:24:46Z</time></trkpt><trkpt lat="35.190522833075256" lon="-6.08197941164782"><ele>9.5</ele><time>2026-04-22T14:24:47Z</time></trkpt><trkpt lat="35.19034116258934" lon="-6.08225557875399"><ele>9.0</ele><time>2026-04-22T14:24:48Z</time></trkpt><trkpt lat="35.190154697859874" lon="-6.082535604462312"><ele>9.0</ele><time>2026-04-22T14:24:49Z</time></trkpt><trkpt lat="35.1899725084602" lon="-6.082810678317496"><ele>9.0</ele><time>2026-04-22T14:24:50Z</time></trkpt><trkpt lat="35.18979329512611" lon="-6.083095452472207"><ele>7.5</ele><time>2026-04-22T14:24:51Z</time></trkpt><trkpt lat="35.189616343694816" lon="-6.0833715261873555"><ele>6.0</ele><time>2026-04-22T14:24:52Z</time></trkpt><trkpt lat="35.18943622491803" lon="-6.083651463146342"><ele>6.0</ele><time>2026-04-22T14:24:53Z</time></trkpt><trkpt lat="35.189259498762674" lon="-6.083930598582041"><ele>6.0</ele><time>2026-04-22T14:24:54Z</time></trkpt><trkpt lat="35.18907940266316" lon="-6.084207601052088"><ele>4.0</ele><time>2026-04-22T14:24:55Z</time></trkpt><trkpt lat="35.18889781444655" lon="-6.084486066650773"><ele>2.0</ele><time>2026-04-22T14:24:56Z</time></trkpt><trkpt lat="35.188715520854174" lon="-6.084761208448201"><ele>3.5</ele><time>2026-04-22T14:24:57Z</time></trkpt><trkpt lat="35.18853801079582" lon="-6.085038763965918"><ele>5.0</ele><time>2026-04-22T14:24:58Z</time></trkpt><trkpt lat="35.18836049976625" lon="-6.085318451953736"><ele>5.0</ele><time>2026-04-22T14:24:59Z</time></trkpt><trkpt lat="35.1881796235303" lon="-6.085591401283024"><ele>5.0</ele><time>2026-04-22T14:25:00Z</time></trkpt><trkpt lat="35.1879973700949" lon="-6.085864791808839"><ele>4.5</ele><time>2026-04-22T14:25:01Z</time></trkpt><trkpt lat="35.18781877563878" lon="-6.0861415589187695"><ele>4.0</ele><time>2026-04-22T14:25:02Z</time></trkpt><trkpt lat="35.187639800424996" lon="-6.086419795718281"><ele>4.5</ele><time>2026-04-22T14:25:03Z</time></trkpt><trkpt lat="35.18746358131552" lon="-6.086695165389599"><ele>5.0</ele><time>2026-04-22T14:25:04Z</time></trkpt><trkpt lat="35.18728664681571" lon="-6.086967320568007"><ele>5.0</ele><time>2026-04-22T14:25:05Z</time></trkpt><trkpt lat="35.18711398514894" lon="-6.087247018808711"><ele>5.0</ele><time>2026-04-22T14:25:06Z</time></trkpt><trkpt lat="35.18693975077391" lon="-6.087528374220015"><ele>5.0</ele><time>2026-04-22T14:25:07Z</time></trkpt><trkpt lat="35.18676547938448" lon="-6.0878106768819915"><ele>5.0</ele><time>2026-04-22T14:25:08Z</time></trkpt><trkpt lat="35.18659076434725" lon="-6.088093021696654"><ele>5.0</ele><time>2026-04-22T14:25:09Z</time></trkpt><trkpt lat="35.18641193832135" lon="-6.088371586376545"><ele>5.0</ele><time>2026-04-22T14:25:10Z</time></trkpt><trkpt lat="35.186232588132206" lon="-6.088649382747056"><ele>5.0</ele><time>2026-04-22T14:25:11Z</time></trkpt><trkpt lat="35.186054173681974" lon="-6.088927432265019"><ele>5.0</ele><time>2026-04-22T14:25:12Z</time></trkpt><trkpt lat="35.18587536609135" lon="-6.089204512326268"><ele>4.5</ele><time>2026-04-22T14:25:13Z</time></trkpt><trkpt lat="35.18569720905013" lon="-6.089483635501831"><ele>4.0</ele><time>2026-04-22T14:25:14Z</time></trkpt><trkpt lat="35.18551818263701" lon="-6.089760582844012"><ele>3.5</ele><time>2026-04-22T14:25:15Z</time></trkpt><trkpt lat="35.18533789018317" lon="-6.090034669714975"><ele>3.0</ele><time>2026-04-22T14:25:16Z</time></trkpt><trkpt lat="35.185159715621666" lon="-6.090311600768493"><ele>3.0</ele><time>2026-04-22T14:25:17Z</time></trkpt><trkpt lat="35.18498157668759" lon="-6.090589661739037"><ele>3.0</ele><time>2026-04-22T14:25:18Z</time></trkpt><trkpt lat="35.18480454861409" lon="-6.090869669681377"><ele>4.0</ele><time>2026-04-22T14:25:19Z</time></trkpt><trkpt lat="35.18462612569237" lon="-6.091148872223009"><ele>5.0</ele><time>2026-04-22T14:25:20Z</time></trkpt><trkpt lat="35.184445593620254" lon="-6.091427210036275"><ele>4.5</ele><time>2026-04-22T14:25:21Z</time></trkpt><trkpt lat="35.18426547972332" lon="-6.091704522663864"><ele>4.0</ele><time>2026-04-22T14:25:22Z</time></trkpt><trkpt lat="35.184086390564794" lon="-6.091984308989331"><ele>4.5</ele><time>2026-04-22T14:25:23Z</time></trkpt><trkpt lat="35.18390524282318" lon="-6.092262147476548"><ele>5.0</ele><time>2026-04-22T14:25:24Z</time></trkpt><trkpt lat="35.183722893301976" lon="-6.092536927538671"><ele>5.0</ele><time>2026-04-22T14:25:24.999Z</time></trkpt><trkpt lat="35.18354292307837" lon="-6.092816447292166"><ele>5.0</ele><time>2026-04-22T14:25:25.999Z</time></trkpt><trkpt lat="35.18336134447573" lon="-6.09309349216069"><ele>4.5</ele><time>2026-04-22T14:25:26.999Z</time></trkpt><trkpt lat="35.18318101491882" lon="-6.09337037049224"><ele>4.0</ele><time>2026-04-22T14:25:27.999Z</time></trkpt><trkpt lat="35.183001099240514" lon="-6.0936476990407735"><ele>4.5</ele><time>2026-04-22T14:25:28.999Z</time></trkpt><trkpt lat="35.18282254535042" lon="-6.093925897198769"><ele>5.0</ele><time>2026-04-22T14:25:29.999Z</time></trkpt><trkpt lat="35.18264444837631" lon="-6.094205745991289"><ele>5.0</ele><time>2026-04-22T14:25:30.999Z</time></trkpt><trkpt lat="35.182463571938946" lon="-6.094483676914239"><ele>5.0</ele><time>2026-04-22T14:25:31.999Z</time></trkpt><trkpt lat="35.182284480289304" lon="-6.094760851123539"><ele>4.0</ele><time>2026-04-22T14:25:32.999Z</time></trkpt><trkpt lat="35.18210451353688" lon="-6.095038980821971"><ele>3.0</ele><time>2026-04-22T14:25:33.999Z</time></trkpt><trkpt lat="35.181926499759626" lon="-6.095322273396184"><ele>3.0</ele><time>2026-04-22T14:25:34.999Z</time></trkpt><trkpt lat="35.18174656624657" lon="-6.095606306758264"><ele>3.0</ele><time>2026-04-22T14:25:35.999Z</time></trkpt><trkpt lat="35.18156392871769" lon="-6.095886948457199"><ele>2.0</ele><time>2026-04-22T14:25:36.999Z</time></trkpt><trkpt lat="35.18138473071543" lon="-6.096165174685468"><ele>1.0</ele><time>2026-04-22T14:25:37.999Z</time></trkpt><trkpt lat="35.18120322628545" lon="-6.096445553097704"><ele>2.5</ele><time>2026-04-22T14:25:38.999Z</time></trkpt><trkpt lat="35.181021828798144" lon="-6.096725636004182"><ele>4.0</ele><time>2026-04-22T14:25:39.999Z</time></trkpt><trkpt lat="35.18085421314397" lon="-6.097017922499698"><ele>3.5</ele><time>2026-04-22T14:25:40.999Z</time></trkpt><trkpt lat="35.18067443613778" lon="-6.097299793366348"><ele>3.0</ele><time>2026-04-22T14:25:41.999Z</time></trkpt><trkpt lat="35.18050692220517" lon="-6.097589957932886"><ele>3.0</ele><time>2026-04-22T14:25:42.999Z</time></trkpt><trkpt lat="35.180342398978425" lon="-6.0978846910768265"><ele>3.0</ele><time>2026-04-22T14:25:44Z</time></trkpt><trkpt lat="35.18018268619412" lon="-6.098179765254645"><ele>3.5</ele><time>2026-04-22T14:25:45Z</time></trkpt><trkpt lat="35.18002758676736" lon="-6.098478106389002"><ele>4.0</ele><time>2026-04-22T14:25:46Z</time></trkpt><trkpt lat="35.179877389951656" lon="-6.098780291167149"><ele>5.0</ele><time>2026-04-22T14:25:47Z</time></trkpt><trkpt lat="35.17973171321302" lon="-6.099085710616828"><ele>6.0</ele><time>2026-04-22T14:25:48Z</time></trkpt><trkpt lat="35.179588435423184" lon="-6.099393174072335"><ele>6.0</ele><time>2026-04-22T14:25:49Z</time></trkpt><trkpt lat="35.17944820519398" lon="-6.099704025977209"><ele>6.0</ele><time>2026-04-22T14:25:50Z</time></trkpt><trkpt lat="35.179313459500015" lon="-6.100014477997572"><ele>6.5</ele><time>2026-04-22T14:25:51Z</time></trkpt><trkpt lat="35.17918067658919" lon="-6.100328721986967"><ele>7.0</ele><time>2026-04-22T14:25:52Z</time></trkpt><trkpt lat="35.179053452637646" lon="-6.100647140563601"><ele>5.5</ele><time>2026-04-22T14:25:53Z</time></trkpt><trkpt lat="35.17893112759934" lon="-6.100967401197441"><ele>4.0</ele><time>2026-04-22T14:25:54Z</time></trkpt><trkpt lat="35.17881141491562" lon="-6.101289188543968"><ele>4.0</ele><time>2026-04-22T14:25:55Z</time></trkpt><trkpt lat="35.178696041183976" lon="-6.101612673901771"><ele>4.0</ele><time>2026-04-22T14:25:56Z</time></trkpt><trkpt lat="35.17858520993821" lon="-6.101937334369853"><ele>4.0</ele><time>2026-04-22T14:25:57Z</time></trkpt><trkpt lat="35.17848033629547" lon="-6.1022644536692985"><ele>4.0</ele><time>2026-04-22T14:25:58Z</time></trkpt><trkpt lat="35.17838060116323" lon="-6.102595214958754"><ele>4.0</ele><time>2026-04-22T14:25:59Z</time></trkpt><trkpt lat="35.178284680735025" lon="-6.102926722271286"><ele>4.0</ele><time>2026-04-22T14:26:00Z</time></trkpt><trkpt lat="35.17819217312775" lon="-6.10325978159604"><ele>4.0</ele><time>2026-04-22T14:26:01Z</time></trkpt><trkpt lat="35.178105341273714" lon="-6.103595705935848"><ele>4.0</ele><time>2026-04-22T14:26:02Z</time></trkpt><trkpt lat="35.178022118408414" lon="-6.103933197656476"><ele>4.0</ele><time>2026-04-22T14:26:03Z</time></trkpt><trkpt lat="35.17794350594375" lon="-6.104271927005296"><ele>4.0</ele><time>2026-04-22T14:26:04Z</time></trkpt><trkpt lat="35.177868424395776" lon="-6.104612639266029"><ele>3.5</ele><time>2026-04-22T14:26:05Z</time></trkpt><trkpt lat="35.17779529569827" lon="-6.104953603346293"><ele>3.0</ele><time>2026-04-22T14:26:06Z</time></trkpt><trkpt lat="35.177722149462824" lon="-6.105297003755122"><ele>3.0</ele><time>2026-04-22T14:26:07Z</time></trkpt><trkpt lat="35.177652195462706" lon="-6.1056416490526155"><ele>3.0</ele><time>2026-04-22T14:26:08Z</time></trkpt><trkpt lat="35.177585979390884" lon="-6.105988085156625"><ele>3.5</ele><time>2026-04-22T14:26:09Z</time></trkpt><trkpt lat="35.17752027065523" lon="-6.106334361812245"><ele>4.0</ele><time>2026-04-22T14:26:10Z</time></trkpt><trkpt lat="35.17745434507587" lon="-6.106680809550211"><ele>4.0</ele><time>2026-04-22T14:26:11Z</time></trkpt><trkpt lat="35.17738251412763" lon="-6.107023871949353"><ele>4.0</ele><time>2026-04-22T14:26:12Z</time></trkpt><trkpt lat="35.17731610440938" lon="-6.107368465491333"><ele>5.0</ele><time>2026-04-22T14:26:13Z</time></trkpt><trkpt lat="35.17724934196746" lon="-6.107713234984363"><ele>6.0</ele><time>2026-04-22T14:26:14Z</time></trkpt><trkpt lat="35.177181940050275" lon="-6.108058384406227"><ele>5.0</ele><time>2026-04-22T14:26:15Z</time></trkpt><trkpt lat="35.177112901633976" lon="-6.108401470316393"><ele>4.0</ele><time>2026-04-22T14:26:16Z</time></trkpt><trkpt lat="35.177040402640536" lon="-6.108737621046952"><ele>4.0</ele><time>2026-04-22T14:26:17Z</time></trkpt><trkpt lat="35.17696457330668" lon="-6.1090671687840885"><ele>4.0</ele><time>2026-04-22T14:26:18Z</time></trkpt><trkpt lat="35.17689128045468" lon="-6.109401821428253"><ele>4.5</ele><time>2026-04-22T14:26:19Z</time></trkpt><trkpt lat="35.176810505633796" lon="-6.109741314125391"><ele>5.0</ele><time>2026-04-22T14:26:20Z</time></trkpt><trkpt lat="35.176735608645224" lon="-6.110082067367406"><ele>5.5</ele><time>2026-04-22T14:26:21Z</time></trkpt><trkpt lat="35.176655766899295" lon="-6.1104268259439625"><ele>6.0</ele><time>2026-04-22T14:26:22Z</time></trkpt><trkpt lat="35.17657076372577" lon="-6.110768202359819"><ele>4.5</ele><time>2026-04-22T14:26:23Z</time></trkpt><trkpt lat="35.17647673060182" lon="-6.11110366214727"><ele>3.0</ele><time>2026-04-22T14:26:24Z</time></trkpt><trkpt lat="35.17637900755528" lon="-6.111436422816928"><ele>4.0</ele><time>2026-04-22T14:26:25Z</time></trkpt><trkpt lat="35.17627671023823" lon="-6.111770977703268"><ele>5.0</ele><time>2026-04-22T14:26:26Z</time></trkpt><trkpt lat="35.17617303603026" lon="-6.112104882507528"><ele>6.5</ele><time>2026-04-22T14:26:27Z</time></trkpt><trkpt lat="35.17606642992883" lon="-6.112428099390422"><ele>8.0</ele><time>2026-04-22T14:26:28Z</time></trkpt><trkpt lat="35.175958017749636" lon="-6.112753068469202"><ele>8.0</ele><time>2026-04-22T14:26:29Z</time></trkpt><trkpt lat="35.17584851370761" lon="-6.113077747001711"><ele>8.0</ele><time>2026-04-22T14:26:30Z</time></trkpt><trkpt lat="35.175736908593365" lon="-6.11340156328533"><ele>10.5</ele><time>2026-04-22T14:26:31Z</time></trkpt><trkpt lat="35.17562109108291" lon="-6.113721134506533"><ele>13.0</ele><time>2026-04-22T14:26:32Z</time></trkpt><trkpt lat="35.17550022998928" lon="-6.1140390191304075"><ele>14.0</ele><time>2026-04-22T14:26:33Z</time></trkpt><trkpt lat="35.17537571745836" lon="-6.114353062592194"><ele>15.0</ele><time>2026-04-22T14:26:34Z</time></trkpt><trkpt lat="35.175246227112005" lon="-6.114664152707237"><ele>16.0</ele><time>2026-04-22T14:26:35Z</time></trkpt><trkpt lat="35.17511115641891" lon="-6.114971510196891"><ele>17.0</ele><time>2026-04-22T14:26:36Z</time></trkpt><trkpt lat="35.1749709387924" lon="-6.115276106928727"><ele>23.0</ele><time>2026-04-22T14:26:37Z</time></trkpt><trkpt lat="35.17482730161758" lon="-6.115579640754317"><ele>29.0</ele><time>2026-04-22T14:26:38Z</time></trkpt><trkpt lat="35.17467883310318" lon="-6.115880113926479"><ele>31.0</ele><time>2026-04-22T14:26:39Z</time></trkpt><trkpt lat="35.17452567452205" lon="-6.1161795870008815"><ele>33.0</ele><time>2026-04-22T14:26:40Z</time></trkpt><trkpt lat="35.17436737892236" lon="-6.116476347439853"><ele>33.0</ele><time>2026-04-22T14:26:41Z</time></trkpt><trkpt lat="35.17420140689417" lon="-6.116769364800801"><ele>33.0</ele><time>2026-04-22T14:26:42Z</time></trkpt><trkpt lat="35.17403096720369" lon="-6.117056022435433"><ele>35.5</ele><time>2026-04-22T14:26:43Z</time></trkpt><trkpt lat="35.173855765071494" lon="-6.1173386250843915"><ele>38.0</ele><time>2026-04-22T14:26:44Z</time></trkpt><trkpt lat="35.173677356669835" lon="-6.117618889975269"><ele>38.0</ele><time>2026-04-22T14:26:45Z</time></trkpt><trkpt lat="35.173498627626266" lon="-6.117892495895066"><ele>38.0</ele><time>2026-04-22T14:26:46Z</time></trkpt><trkpt lat="35.17332146142934" lon="-6.118155259603635"><ele>39.0</ele><time>2026-04-22T14:26:47Z</time></trkpt><trkpt lat="35.17314756092623" lon="-6.118405802732211"><ele>40.0</ele><time>2026-04-22T14:26:48Z</time></trkpt><trkpt lat="35.17297845177254" lon="-6.118640441042244"><ele>40.0</ele><time>2026-04-22T14:26:49Z</time></trkpt><trkpt lat="35.17281588266041" lon="-6.118860490788149"><ele>40.0</ele><time>2026-04-22T14:26:50Z</time></trkpt><trkpt lat="35.172656242698274" lon="-6.119069952638632"><ele>39.0</ele><time>2026-04-22T14:26:51Z</time></trkpt><trkpt lat="35.17248922363302" lon="-6.119282402439058"><ele>38.0</ele><time>2026-04-22T14:26:52Z</time></trkpt><trkpt lat="35.172307553592965" lon="-6.1195044235341856"><ele>38.0</ele><time>2026-04-22T14:26:53Z</time></trkpt><trkpt lat="35.17212199610989" lon="-6.119734033366364"><ele>38.0</ele><time>2026-04-22T14:26:54Z</time></trkpt><trkpt lat="35.17192679829883" lon="-6.119966899056113"><ele>39.0</ele><time>2026-04-22T14:26:55Z</time></trkpt><trkpt lat="35.17172327372899" lon="-6.120200846685922"><ele>40.0</ele><time>2026-04-22T14:26:56Z</time></trkpt><trkpt lat="35.171514812484126" lon="-6.12043255931602"><ele>40.0</ele><time>2026-04-22T14:26:57Z</time></trkpt><trkpt lat="35.17130188420855" lon="-6.120664652919479"><ele>40.0</ele><time>2026-04-22T14:26:58Z</time></trkpt><trkpt lat="35.17108868647615" lon="-6.120899830606135"><ele>41.0</ele><time>2026-04-22T14:26:59Z</time></trkpt><trkpt lat="35.170866550263185" lon="-6.121123594880491"><ele>42.0</ele><time>2026-04-22T14:27:00Z</time></trkpt><trkpt lat="35.1706408367217" lon="-6.1213429684333756"><ele>43.5</ele><time>2026-04-22T14:27:01Z</time></trkpt><trkpt lat="35.17041197978103" lon="-6.121556945000108"><ele>45.0</ele><time>2026-04-22T14:27:02Z</time></trkpt><trkpt lat="35.17018243643831" lon="-6.121774163249203"><ele>45.0</ele><time>2026-04-22T14:27:03Z</time></trkpt><trkpt lat="35.16995992900302" lon="-6.121985036703701"><ele>45.0</ele><time>2026-04-22T14:27:04Z</time></trkpt><trkpt lat="35.16971476420205" lon="-6.122191807759022"><ele>46.5</ele><time>2026-04-22T14:27:05Z</time></trkpt><trkpt lat="35.169472563940246" lon="-6.122387869858089"><ele>48.0</ele><time>2026-04-22T14:27:06Z</time></trkpt><trkpt lat="35.16922753347236" lon="-6.1225802303734085"><ele>53.0</ele><time>2026-04-22T14:27:07Z</time></trkpt><trkpt lat="35.16898056896511" lon="-6.122767086299416"><ele>58.0</ele><time>2026-04-22T14:27:08Z</time></trkpt><trkpt lat="35.1687320766429" lon="-6.122948752445805"><ele>58.0</ele><time>2026-04-22T14:27:09Z</time></trkpt><trkpt lat="35.16848363521708" lon="-6.123126555590694"><ele>58.0</ele><time>2026-04-22T14:27:10Z</time></trkpt><trkpt lat="35.168232523468255" lon="-6.123300990994065"><ele>57.0</ele><time>2026-04-22T14:27:11Z</time></trkpt><trkpt lat="35.16798030919597" lon="-6.1234730339817744"><ele>56.0</ele><time>2026-04-22T14:27:12Z</time></trkpt><trkpt lat="35.16772693820412" lon="-6.12364044143373"><ele>56.0</ele><time>2026-04-22T14:27:13Z</time></trkpt><trkpt lat="35.16747137905103" lon="-6.123805620593713"><ele>56.0</ele><time>2026-04-22T14:27:14Z</time></trkpt><trkpt lat="35.167211721736315" lon="-6.123965282931674"><ele>58.0</ele><time>2026-04-22T14:27:15Z</time></trkpt><trkpt lat="35.166949264338115" lon="-6.124115470241969"><ele>60.0</ele><time>2026-04-22T14:27:16Z</time></trkpt><trkpt lat="35.16668575000295" lon="-6.124262783594954"><ele>62.0</ele><time>2026-04-22T14:27:16.999Z</time></trkpt><trkpt lat="35.166421285802855" lon="-6.124409357189733"><ele>64.0</ele><time>2026-04-22T14:27:17.999Z</time></trkpt><trkpt lat="35.16615842736759" lon="-6.124557063564439"><ele>64.0</ele><time>2026-04-22T14:27:18.999Z</time></trkpt><trkpt lat="35.16589374217883" lon="-6.124704720834392"><ele>64.0</ele><time>2026-04-22T14:27:19.999Z</time></trkpt><trkpt lat="35.16562822262278" lon="-6.124849916536941"><ele>63.0</ele><time>2026-04-22T14:27:20.999Z</time></trkpt><trkpt lat="35.16536198386081" lon="-6.124992997489619"><ele>62.0</ele><time>2026-04-22T14:27:21.999Z</time></trkpt><trkpt lat="35.165095056837586" lon="-6.125135408379235"><ele>61.5</ele><time>2026-04-22T14:27:22.999Z</time></trkpt><trkpt lat="35.16482640809012" lon="-6.125279971287054"><ele>61.0</ele><time>2026-04-22T14:27:23.999Z</time></trkpt><trkpt lat="35.16455737867521" lon="-6.125425392431835"><ele>61.0</ele><time>2026-04-22T14:27:24.999Z</time></trkpt><trkpt lat="35.16428789558431" lon="-6.125571078567756"><ele>61.0</ele><time>2026-04-22T14:27:25.999Z</time></trkpt><trkpt lat="35.16401856597638" lon="-6.125716176860803"><ele>60.0</ele><time>2026-04-22T14:27:26.999Z</time></trkpt><trkpt lat="35.16374971775782" lon="-6.12586278648396"><ele>59.0</ele><time>2026-04-22T14:27:27.999Z</time></trkpt><trkpt lat="35.16348153008292" lon="-6.126011086142881"><ele>59.0</ele><time>2026-04-22T14:27:28.999Z</time></trkpt><trkpt lat="35.16321406798093" lon="-6.126156981476396"><ele>59.0</ele><time>2026-04-22T14:27:29.999Z</time></trkpt><trkpt lat="35.162944571838146" lon="-6.126298983894717"><ele>58.0</ele><time>2026-04-22T14:27:30.999Z</time></trkpt><trkpt lat="35.162674910354085" lon="-6.126439702808474"><ele>57.0</ele><time>2026-04-22T14:27:31.999Z</time></trkpt><trkpt lat="35.162405276125966" lon="-6.126580778460479"><ele>54.5</ele><time>2026-04-22T14:27:32.999Z</time></trkpt><trkpt lat="35.16213610656077" lon="-6.126722961950449"><ele>52.0</ele><time>2026-04-22T14:27:33.999Z</time></trkpt><trkpt lat="35.161869026462234" lon="-6.126866596353459"><ele>52.0</ele><time>2026-04-22T14:27:34.999Z</time></trkpt><trkpt lat="35.16160205522137" lon="-6.127010135117725"><ele>52.0</ele><time>2026-04-22T14:27:35.999Z</time></trkpt><trkpt lat="35.16133456469405" lon="-6.12715293806524"><ele>52.5</ele><time>2026-04-22T14:27:36.999Z</time></trkpt><trkpt lat="35.161068904071925" lon="-6.127295634087236"><ele>53.0</ele><time>2026-04-22T14:27:37.999Z</time></trkpt><trkpt lat="35.160802661705844" lon="-6.127440276680485"><ele>51.5</ele><time>2026-04-22T14:27:38.999Z</time></trkpt><trkpt lat="35.160538052839264" lon="-6.127589684535533"><ele>50.0</ele><time>2026-04-22T14:27:39.999Z</time></trkpt><trkpt lat="35.16027393994215" lon="-6.127740151492392"><ele>50.0</ele><time>2026-04-22T14:27:40.999Z</time></trkpt><trkpt lat="35.16001107247161" lon="-6.127888556205868"><ele>50.0</ele><time>2026-04-22T14:27:41.999Z</time></trkpt><trkpt lat="35.159747416122194" lon="-6.128037976064079"><ele>50.0</ele><time>2026-04-22T14:27:42.999Z</time></trkpt><trkpt lat="35.15948469252338" lon="-6.128187842736308"><ele>50.0</ele><time>2026-04-22T14:27:43.999Z</time></trkpt><trkpt lat="35.159222794858294" lon="-6.12833796713335"><ele>49.5</ele><time>2026-04-22T14:27:44.999Z</time></trkpt><trkpt lat="35.158959302055266" lon="-6.128488160347306"><ele>49.0</ele><time>2026-04-22T14:27:45.999Z</time></trkpt><trkpt lat="35.15869465391497" lon="-6.128638519364929"><ele>49.0</ele><time>2026-04-22T14:27:46.999Z</time></trkpt><trkpt lat="35.15843093926348" lon="-6.12878637961103"><ele>49.0</ele><time>2026-04-22T14:27:47.999Z</time></trkpt><trkpt lat="35.15816710877938" lon="-6.128934326287896"><ele>47.5</ele><time>2026-04-22T14:27:48.999Z</time></trkpt><trkpt lat="35.15790298688788" lon="-6.129086718058246"><ele>46.0</ele><time>2026-04-22T14:27:50Z</time></trkpt><trkpt lat="35.157641464540276" lon="-6.12924265302613"><ele>46.0</ele><time>2026-04-22T14:27:51Z</time></trkpt><trkpt lat="35.15738083262352" lon="-6.129402851503607"><ele>46.0</ele><time>2026-04-22T14:27:52Z</time></trkpt><trkpt lat="35.15712155231161" lon="-6.129566504770943"><ele>45.5</ele><time>2026-04-22T14:27:53Z</time></trkpt><trkpt lat="35.156864222776015" lon="-6.129734480379079"><ele>45.0</ele><time>2026-04-22T14:27:54Z</time></trkpt><trkpt lat="35.15660959165644" lon="-6.129908520853152"><ele>42.5</ele><time>2026-04-22T14:27:55Z</time></trkpt><trkpt lat="35.15635853249555" lon="-6.130089663597276"><ele>40.0</ele><time>2026-04-22T14:27:56Z</time></trkpt><trkpt lat="35.156110408421306" lon="-6.13027629186212"><ele>40.0</ele><time>2026-04-22T14:27:57Z</time></trkpt><trkpt lat="35.15586439474411" lon="-6.130468553827262"><ele>40.0</ele><time>2026-04-22T14:27:58Z</time></trkpt><trkpt lat="35.1556194885484" lon="-6.130661525216963"><ele>38.0</ele><time>2026-04-22T14:27:59Z</time></trkpt><trkpt lat="35.155377311870474" lon="-6.130861283415246"><ele>36.0</ele><time>2026-04-22T14:28:00Z</time></trkpt><trkpt lat="35.15513647911876" lon="-6.131062916344818"><ele>36.0</ele><time>2026-04-22T14:28:01Z</time></trkpt><trkpt lat="35.15489936456673" lon="-6.131269099996526"><ele>36.0</ele><time>2026-04-22T14:28:02Z</time></trkpt><trkpt lat="35.15466637588849" lon="-6.13148150544265"><ele>34.5</ele><time>2026-04-22T14:28:03Z</time></trkpt><trkpt lat="35.154434956976914" lon="-6.1316985702513005"><ele>33.0</ele><time>2026-04-22T14:28:04Z</time></trkpt><trkpt lat="35.15420834797828" lon="-6.131920204680983"><ele>34.5</ele><time>2026-04-22T14:28:05Z</time></trkpt><trkpt lat="35.15398423590896" lon="-6.132146925039303"><ele>36.0</ele><time>2026-04-22T14:28:06Z</time></trkpt><trkpt lat="35.1537620204934" lon="-6.132375472618006"><ele>35.0</ele><time>2026-04-22T14:28:07Z</time></trkpt><trkpt lat="35.153543120074985" lon="-6.1326074406772255"><ele>34.0</ele><time>2026-04-22T14:28:08Z</time></trkpt><trkpt lat="35.15332313692898" lon="-6.132840871447086"><ele>35.0</ele><time>2026-04-22T14:28:09Z</time></trkpt><trkpt lat="35.15310748492734" lon="-6.133080328408473"><ele>36.0</ele><time>2026-04-22T14:28:10Z</time></trkpt><trkpt lat="35.15289247185774" lon="-6.133320091579782"><ele>34.0</ele><time>2026-04-22T14:28:11Z</time></trkpt><trkpt lat="35.15268338609081" lon="-6.133568411369273"><ele>32.0</ele><time>2026-04-22T14:28:12Z</time></trkpt><trkpt lat="35.152483517537966" lon="-6.133825698699358"><ele>31.0</ele><time>2026-04-22T14:28:13Z</time></trkpt><trkpt lat="35.152286232873685" lon="-6.134084361168454"><ele>30.0</ele><time>2026-04-22T14:28:14Z</time></trkpt><trkpt lat="35.152082526254" lon="-6.134339434181188"><ele>30.0</ele><time>2026-04-22T14:28:15Z</time></trkpt><trkpt lat="35.15188491203743" lon="-6.1345925850242224"><ele>30.0</ele><time>2026-04-22T14:28:16Z</time></trkpt><trkpt lat="35.15168647154689" lon="-6.134849503086717"><ele>29.0</ele><time>2026-04-22T14:28:17Z</time></trkpt><trkpt lat="35.15148816526715" lon="-6.1351073886180565"><ele>28.0</ele><time>2026-04-22T14:28:18Z</time></trkpt><trkpt lat="35.15129225762724" lon="-6.135366527967025"><ele>28.0</ele><time>2026-04-22T14:28:19Z</time></trkpt><trkpt lat="35.151097378166575" lon="-6.135627505537104"><ele>28.0</ele><time>2026-04-22T14:28:20Z</time></trkpt><trkpt lat="35.15090326623348" lon="-6.135887134603757"><ele>28.0</ele><time>2026-04-22T14:28:21Z</time></trkpt><trkpt lat="35.15070940398826" lon="-6.136145735623316"><ele>28.0</ele><time>2026-04-22T14:28:22Z</time></trkpt><trkpt lat="35.15051500910376" lon="-6.136404912735402"><ele>26.5</ele><time>2026-04-22T14:28:23Z</time></trkpt><trkpt lat="35.15031997764085" lon="-6.136665527641728"><ele>25.0</ele><time>2026-04-22T14:28:24Z</time></trkpt><trkpt lat="35.15012532127486" lon="-6.136925303300585"><ele>25.0</ele><time>2026-04-22T14:28:25Z</time></trkpt><trkpt lat="35.149930340875365" lon="-6.137188554452326"><ele>25.0</ele><time>2026-04-22T14:28:26Z</time></trkpt><trkpt lat="35.14973572317586" lon="-6.137450635505298"><ele>25.0</ele><time>2026-04-22T14:28:27Z</time></trkpt><trkpt lat="35.149540387245146" lon="-6.137710429655767"><ele>25.0</ele><time>2026-04-22T14:28:28Z</time></trkpt><trkpt lat="35.14934407803911" lon="-6.137969082361585"><ele>24.5</ele><time>2026-04-22T14:28:29Z</time></trkpt><trkpt lat="35.14914750878616" lon="-6.1382281907538525"><ele>24.0</ele><time>2026-04-22T14:28:30Z</time></trkpt><trkpt lat="35.1489517641606" lon="-6.138484729888211"><ele>24.0</ele><time>2026-04-22T14:28:31Z</time></trkpt><trkpt lat="35.148754817301686" lon="-6.13874171991711"><ele>24.0</ele><time>2026-04-22T14:28:32Z</time></trkpt><trkpt lat="35.148556633407516" lon="-6.138999961125225"><ele>23.5</ele><time>2026-04-22T14:28:33Z</time></trkpt><trkpt lat="35.14835895959841" lon="-6.139258057996134"><ele>23.0</ele><time>2026-04-22T14:28:34Z</time></trkpt><trkpt lat="35.14816068587345" lon="-6.139514430803912"><ele>23.5</ele><time>2026-04-22T14:28:35Z</time></trkpt><trkpt lat="35.14796395873687" lon="-6.139772691023848"><ele>24.0</ele><time>2026-04-22T14:28:36Z</time></trkpt><trkpt lat="35.1477665336662" lon="-6.140031209504588"><ele>24.0</ele><time>2026-04-22T14:28:37Z</time></trkpt><trkpt lat="35.147567414365824" lon="-6.140286484695757"><ele>24.0</ele><time>2026-04-22T14:28:38Z</time></trkpt><trkpt lat="35.147365656267525" lon="-6.14053783401857"><ele>23.5</ele><time>2026-04-22T14:28:39Z</time></trkpt><trkpt lat="35.14716247529515" lon="-6.1407837362152335"><ele>23.0</ele><time>2026-04-22T14:28:40Z</time></trkpt><trkpt lat="35.14695608996558" lon="-6.141027843408214"><ele>23.0</ele><time>2026-04-22T14:28:41Z</time></trkpt><trkpt lat="35.14674683967201" lon="-6.1412692882086475"><ele>23.0</ele><time>2026-04-22T14:28:42Z</time></trkpt><trkpt lat="35.14653461505179" lon="-6.141508857908706"><ele>23.0</ele><time>2026-04-22T14:28:43Z</time></trkpt><trkpt lat="35.146317949732754" lon="-6.141746540517575"><ele>23.0</ele><time>2026-04-22T14:28:44Z</time></trkpt><trkpt lat="35.146097835637526" lon="-6.1419744951218815"><ele>23.0</ele><time>2026-04-22T14:28:45Z</time></trkpt><trkpt lat="35.14587364594258" lon="-6.142197337608441"><ele>23.0</ele><time>2026-04-22T14:28:46Z</time></trkpt><trkpt lat="35.14564182052593" lon="-6.142414533285696"><ele>24.0</ele><time>2026-04-22T14:28:47Z</time></trkpt><trkpt lat="35.14541173293706" lon="-6.14263153855593"><ele>25.0</ele><time>2026-04-22T14:28:48Z</time></trkpt><trkpt lat="35.145177285444355" lon="-6.1428450330618025"><ele>25.0</ele><time>2026-04-22T14:28:49Z</time></trkpt><trkpt lat="35.14494440122047" lon="-6.143052401039399"><ele>25.0</ele><time>2026-04-22T14:28:50Z</time></trkpt><trkpt lat="35.14421912396506" lon="-6.143654478058406"><ele>27.0</ele><time>2026-04-22T14:28:53Z</time></trkpt><trkpt lat="35.14397346884704" lon="-6.14385062645917"><ele>29.0</ele><time>2026-04-22T14:28:54Z</time></trkpt><trkpt lat="35.143726177302284" lon="-6.144042612142729"><ele>28.5</ele><time>2026-04-22T14:28:55Z</time></trkpt><trkpt lat="35.14347786135963" lon="-6.144228779803389"><ele>28.0</ele><time>2026-04-22T14:28:56Z</time></trkpt><trkpt lat="35.143227449867766" lon="-6.144409632129078"><ele>28.5</ele><time>2026-04-22T14:28:57Z</time></trkpt><trkpt lat="35.14297598696693" lon="-6.144585138466394"><ele>29.0</ele><time>2026-04-22T14:28:58Z</time></trkpt><trkpt lat="35.14272145064989" lon="-6.144753903587208"><ele>27.5</ele><time>2026-04-22T14:28:59Z</time></trkpt><trkpt lat="35.142464983933884" lon="-6.1449185125283226"><ele>26.0</ele><time>2026-04-22T14:29:00Z</time></trkpt><trkpt lat="35.14220651924294" lon="-6.145074262201446"><ele>26.0</ele><time>2026-04-22T14:29:01Z</time></trkpt><trkpt lat="35.14194427484065" lon="-6.145224888562621"><ele>26.0</ele><time>2026-04-22T14:29:02Z</time></trkpt><trkpt lat="35.141681606739205" lon="-6.14536846957036"><ele>27.0</ele><time>2026-04-22T14:29:03Z</time></trkpt><trkpt lat="35.141417407197586" lon="-6.1455093605473134"><ele>28.0</ele><time>2026-04-22T14:29:04Z</time></trkpt><trkpt lat="35.141151798695965" lon="-6.14564617713621"><ele>26.5</ele><time>2026-04-22T14:29:05Z</time></trkpt><trkpt lat="35.1408819807451" lon="-6.145777439603875"><ele>25.0</ele><time>2026-04-22T14:29:06Z</time></trkpt><trkpt lat="35.14061171003335" lon="-6.145901021467602"><ele>25.0</ele><time>2026-04-22T14:29:06.999Z</time></trkpt><trkpt lat="35.14033731932806" lon="-6.146019352527034"><ele>25.0</ele><time>2026-04-22T14:29:07.999Z</time></trkpt><trkpt lat="35.14006075435574" lon="-6.146134479146859"><ele>25.5</ele><time>2026-04-22T14:29:08.999Z</time></trkpt><trkpt lat="35.13978274762825" lon="-6.146245514920097"><ele>26.0</ele><time>2026-04-22T14:29:09.999Z</time></trkpt><trkpt lat="35.13950367923091" lon="-6.146350871515372"><ele>26.0</ele><time>2026-04-22T14:29:10.999Z</time></trkpt><trkpt lat="35.13922221922588" lon="-6.1464498610817655"><ele>26.0</ele><time>2026-04-22T14:29:11.999Z</time></trkpt><trkpt lat="35.13893938844589" lon="-6.1465406860276515"><ele>26.5</ele><time>2026-04-22T14:29:12.999Z</time></trkpt><trkpt lat="35.13865674209479" lon="-6.146623525563603"><ele>27.0</ele><time>2026-04-22T14:29:13.999Z</time></trkpt><trkpt lat="35.13837312588475" lon="-6.146702937195042"><ele>27.5</ele><time>2026-04-22T14:29:14.999Z</time></trkpt><trkpt lat="35.13808737064901" lon="-6.146778815156798"><ele>28.0</ele><time>2026-04-22T14:29:15.999Z</time></trkpt><trkpt lat="35.13780242438059" lon="-6.1468499039075635"><ele>28.0</ele><time>2026-04-22T14:29:16.999Z</time></trkpt><trkpt lat="35.13751696736218" lon="-6.146916788911097"><ele>28.0</ele><time>2026-04-22T14:29:17.999Z</time></trkpt><trkpt lat="35.137230751035275" lon="-6.146975764873344"><ele>27.5</ele><time>2026-04-22T14:29:18.999Z</time></trkpt><trkpt lat="35.13694502572485" lon="-6.147024365782913"><ele>27.0</ele><time>2026-04-22T14:29:19.999Z</time></trkpt><trkpt lat="35.13665810489474" lon="-6.147067499027674"><ele>27.0</ele><time>2026-04-22T14:29:20.999Z</time></trkpt><trkpt lat="35.136370123774" lon="-6.147105401404033"><ele>27.0</ele><time>2026-04-22T14:29:21.999Z</time></trkpt><trkpt lat="35.13608160697678" lon="-6.1471379952142655"><ele>27.0</ele><time>2026-04-22T14:29:22.999Z</time></trkpt><trkpt lat="35.13579224413418" lon="-6.147168786608799"><ele>27.0</ele><time>2026-04-22T14:29:23.999Z</time></trkpt><trkpt lat="35.13550213738704" lon="-6.14719455276308"><ele>26.0</ele><time>2026-04-22T14:29:24.999Z</time></trkpt><trkpt lat="35.135211701396706" lon="-6.147214453869119"><ele>25.0</ele><time>2026-04-22T14:29:25.999Z</time></trkpt><trkpt lat="35.13492127942773" lon="-6.147227978383034"><ele>25.0</ele><time>2026-04-22T14:29:26.999Z</time></trkpt><trkpt lat="35.13462939462819" lon="-6.14723690440634"><ele>25.0</ele><time>2026-04-22T14:29:27.999Z</time></trkpt><trkpt lat="35.13433750760478" lon="-6.1472396048075915"><ele>24.0</ele><time>2026-04-22T14:29:28.999Z</time></trkpt><trkpt lat="35.1340471126767" lon="-6.147236127459671"><ele>23.0</ele><time>2026-04-22T14:29:29.999Z</time></trkpt><trkpt lat="35.13375670195179" lon="-6.1472248437353745"><ele>23.0</ele><time>2026-04-22T14:29:30.999Z</time></trkpt><trkpt lat="35.13346611078991" lon="-6.147208411605279"><ele>23.0</ele><time>2026-04-22T14:29:31.999Z</time></trkpt><trkpt lat="35.13317452484253" lon="-6.1471875634701485"><ele>23.0</ele><time>2026-04-22T14:29:32.999Z</time></trkpt><trkpt lat="35.13288205142922" lon="-6.147161590451369"><ele>23.0</ele><time>2026-04-22T14:29:33.999Z</time></trkpt><trkpt lat="35.13259139086865" lon="-6.147128902422795"><ele>23.5</ele><time>2026-04-22T14:29:34.999Z</time></trkpt><trkpt lat="35.132301238455426" lon="-6.14709213975912"><ele>24.0</ele><time>2026-04-22T14:29:35.999Z</time></trkpt><trkpt lat="35.13201363090959" lon="-6.147049996313925"><ele>24.0</ele><time>2026-04-22T14:29:36.999Z</time></trkpt><trkpt lat="35.13172386586001" lon="-6.147002662478642"><ele>24.0</ele><time>2026-04-22T14:29:37.999Z</time></trkpt><trkpt lat="35.13143464600727" lon="-6.146950381204172"><ele>24.0</ele><time>2026-04-22T14:29:38.999Z</time></trkpt><trkpt lat="35.13114696930443" lon="-6.14689150776317"><ele>24.0</ele><time>2026-04-22T14:29:39.999Z</time></trkpt><trkpt lat="35.13086055165673" lon="-6.146825888814608"><ele>25.0</ele><time>2026-04-22T14:29:40.999Z</time></trkpt><trkpt lat="35.13057518311605" lon="-6.146752915202922"><ele>26.0</ele><time>2026-04-22T14:29:41.999Z</time></trkpt><trkpt lat="35.13029131048988" lon="-6.146674604751473"><ele>26.0</ele><time>2026-04-22T14:29:42.999Z</time></trkpt><trkpt lat="35.130007681432055" lon="-6.14659114504215"><ele>26.0</ele><time>2026-04-22T14:29:43.999Z</time></trkpt><trkpt lat="35.1297255003226" lon="-6.146502275837457"><ele>27.0</ele><time>2026-04-22T14:29:44.999Z</time></trkpt><trkpt lat="35.129444148998346" lon="-6.146408932873181"><ele>28.0</ele><time>2026-04-22T14:29:45.999Z</time></trkpt><trkpt lat="35.129163490185626" lon="-6.146312560548301"><ele>28.5</ele><time>2026-04-22T14:29:46.999Z</time></trkpt><trkpt lat="35.12888243050919" lon="-6.146214604870935"><ele>29.0</ele><time>2026-04-22T14:29:47.999Z</time></trkpt><trkpt lat="35.12860244110316" lon="-6.146115575129926"><ele>29.0</ele><time>2026-04-22T14:29:48.999Z</time></trkpt><trkpt lat="35.12832117236753" lon="-6.146018229978678"><ele>29.0</ele><time>2026-04-22T14:29:49.999Z</time></trkpt><trkpt lat="35.12803962410618" lon="-6.145922440086035"><ele>27.0</ele><time>2026-04-22T14:29:50.999Z</time></trkpt><trkpt lat="35.12775786319973" lon="-6.145831406821846"><ele>25.0</ele><time>2026-04-22T14:29:51.999Z</time></trkpt><trkpt lat="35.12747484940941" lon="-6.145740789478604"><ele>27.0</ele><time>2026-04-22T14:29:52.999Z</time></trkpt><trkpt lat="35.12719251812766" lon="-6.145649236303759"><ele>29.0</ele><time>2026-04-22T14:29:53.999Z</time></trkpt><trkpt lat="35.126910685872396" lon="-6.145555699438923"><ele>29.0</ele><time>2026-04-22T14:29:54.999Z</time></trkpt><trkpt lat="35.12662968181747" lon="-6.145460854574247"><ele>29.0</ele><time>2026-04-22T14:29:56Z</time></trkpt><trkpt lat="35.126348989809095" lon="-6.145365458301793"><ele>28.5</ele><time>2026-04-22T14:29:57Z</time></trkpt><trkpt lat="35.12606814031017" lon="-6.14526689124049"><ele>28.0</ele><time>2026-04-22T14:29:58Z</time></trkpt><trkpt lat="35.12578869770386" lon="-6.145169151731522"><ele>27.5</ele><time>2026-04-22T14:29:59Z</time></trkpt><trkpt lat="35.1255100017683" lon="-6.145072980170743"><ele>27.0</ele><time>2026-04-22T14:30:00Z</time></trkpt><trkpt lat="35.12523012048654" lon="-6.1449770620420825"><ele>27.0</ele><time>2026-04-22T14:30:01Z</time></trkpt><trkpt lat="35.12494917182904" lon="-6.144880674933854"><ele>27.0</ele><time>2026-04-22T14:30:02Z</time></trkpt><trkpt lat="35.12466861471552" lon="-6.144784537901609"><ele>27.0</ele><time>2026-04-22T14:30:03Z</time></trkpt><trkpt lat="35.12438678927923" lon="-6.14468832705022"><ele>27.0</ele><time>2026-04-22T14:30:04Z</time></trkpt><trkpt lat="35.12410557173814" lon="-6.144593327415531"><ele>27.0</ele><time>2026-04-22T14:30:05Z</time></trkpt><trkpt lat="35.12382291645391" lon="-6.144498743846301"><ele>27.0</ele><time>2026-04-22T14:30:06Z</time></trkpt><trkpt lat="35.12354275254574" lon="-6.1444034902841675"><ele>27.0</ele><time>2026-04-22T14:30:07Z</time></trkpt><trkpt lat="35.12326426131115" lon="-6.144306646580618"><ele>27.0</ele><time>2026-04-22T14:30:08Z</time></trkpt><trkpt lat="35.122985607665484" lon="-6.144208535826553"><ele>28.0</ele><time>2026-04-22T14:30:09Z</time></trkpt><trkpt lat="35.12270697971688" lon="-6.144110746176581"><ele>29.0</ele><time>2026-04-22T14:30:10Z</time></trkpt><trkpt lat="35.12242720674328" lon="-6.144012909972575"><ele>28.5</ele><time>2026-04-22T14:30:11Z</time></trkpt><trkpt lat="35.12214659840944" lon="-6.1439150523383805"><ele>28.0</ele><time>2026-04-22T14:30:12Z</time></trkpt><trkpt lat="35.12186548413738" lon="-6.1438182080187005"><ele>28.0</ele><time>2026-04-22T14:30:13Z</time></trkpt><trkpt lat="35.121585000141" lon="-6.143721972730489"><ele>28.0</ele><time>2026-04-22T14:30:14Z</time></trkpt><trkpt lat="35.12130650644742" lon="-6.143625937738292"><ele>27.5</ele><time>2026-04-22T14:30:15Z</time></trkpt><trkpt lat="35.12102741835829" lon="-6.143530185372097"><ele>27.0</ele><time>2026-04-22T14:30:16Z</time></trkpt><trkpt lat="35.12074748070375" lon="-6.143434829918405"><ele>28.0</ele><time>2026-04-22T14:30:17Z</time></trkpt><trkpt lat="35.120466200259656" lon="-6.143341996508753"><ele>29.0</ele><time>2026-04-22T14:30:18Z</time></trkpt><trkpt lat="35.12018296033187" lon="-6.143254951837896"><ele>30.0</ele><time>2026-04-22T14:30:19Z</time></trkpt><trkpt lat="35.119898781127276" lon="-6.143173774236049"><ele>31.0</ele><time>2026-04-22T14:30:20Z</time></trkpt><trkpt lat="35.119614101795506" lon="-6.143098046739186"><ele>31.0</ele><time>2026-04-22T14:30:21Z</time></trkpt><trkpt lat="35.119329207069676" lon="-6.143025644111288"><ele>31.0</ele><time>2026-04-22T14:30:22Z</time></trkpt><trkpt lat="35.11904563976511" lon="-6.142954960719015"><ele>30.5</ele><time>2026-04-22T14:30:23Z</time></trkpt><trkpt lat="35.118760083899524" lon="-6.142885968057349"><ele>30.0</ele><time>2026-04-22T14:30:24Z</time></trkpt><trkpt lat="35.11847464089228" lon="-6.142818875665576"><ele>29.5</ele><time>2026-04-22T14:30:25Z</time></trkpt><trkpt lat="35.11819102804129" lon="-6.142755133614468"><ele>29.0</ele><time>2026-04-22T14:30:26Z</time></trkpt><trkpt lat="35.117905103471315" lon="-6.1426926363032806"><ele>29.0</ele><time>2026-04-22T14:30:27Z</time></trkpt><trkpt lat="35.11761797716131" lon="-6.142634042262201"><ele>29.0</ele><time>2026-04-22T14:30:28Z</time></trkpt><trkpt lat="35.117331758401896" lon="-6.142583016954475"><ele>30.5</ele><time>2026-04-22T14:30:29Z</time></trkpt><trkpt lat="35.11704517871885" lon="-6.1425368736159704"><ele>32.0</ele><time>2026-04-22T14:30:30Z</time></trkpt><trkpt lat="35.1167574876775" lon="-6.142495210810234"><ele>32.0</ele><time>2026-04-22T14:30:31Z</time></trkpt><trkpt lat="35.11646844986012" lon="-6.142458102565485"><ele>32.0</ele><time>2026-04-22T14:30:32Z</time></trkpt><trkpt lat="35.11617955732954" lon="-6.142425995131746"><ele>32.0</ele><time>2026-04-22T14:30:33Z</time></trkpt><trkpt lat="35.11589141066024" lon="-6.14239774662172"><ele>32.0</ele><time>2026-04-22T14:30:34Z</time></trkpt><trkpt lat="35.11560270219682" lon="-6.142373345432251"><ele>31.5</ele><time>2026-04-22T14:30:35Z</time></trkpt><trkpt lat="35.11531284578118" lon="-6.142352715494114"><ele>31.0</ele><time>2026-04-22T14:30:36Z</time></trkpt><trkpt lat="35.11502295550048" lon="-6.142336859149586"><ele>31.0</ele><time>2026-04-22T14:30:37Z</time></trkpt><trkpt lat="35.114733711226975" lon="-6.142324005928319"><ele>31.0</ele><time>2026-04-22T14:30:38Z</time></trkpt><trkpt lat="35.11444298207801" lon="-6.14231543294369"><ele>31.0</ele><time>2026-04-22T14:30:39Z</time></trkpt><trkpt lat="35.11415332076533" lon="-6.142310522652259"><ele>31.0</ele><time>2026-04-22T14:30:40Z</time></trkpt><trkpt lat="35.11386228769637" lon="-6.142309211791174"><ele>30.5</ele><time>2026-04-22T14:30:41Z</time></trkpt><trkpt lat="35.113571895731894" lon="-6.142310433002281"><ele>30.0</ele><time>2026-04-22T14:30:42Z</time></trkpt><trkpt lat="35.11328094672716" lon="-6.142316472787242"><ele>31.0</ele><time>2026-04-22T14:30:43Z</time></trkpt><trkpt lat="35.112991778856085" lon="-6.14232540876556"><ele>32.0</ele><time>2026-04-22T14:30:44Z</time></trkpt><trkpt lat="35.112702927251526" lon="-6.142339852899175"><ele>32.0</ele><time>2026-04-22T14:30:45Z</time></trkpt><trkpt lat="35.112412761020984" lon="-6.142357141396528"><ele>32.0</ele><time>2026-04-22T14:30:46Z</time></trkpt><trkpt lat="35.11212270201744" lon="-6.1423771376584355"><ele>33.5</ele><time>2026-04-22T14:30:47Z</time></trkpt><trkpt lat="35.11183094686891" lon="-6.142402761201666"><ele>35.0</ele><time>2026-04-22T14:30:48Z</time></trkpt><trkpt lat="35.11153743733012" lon="-6.142430327091179"><ele>35.0</ele><time>2026-04-22T14:30:49Z</time></trkpt><trkpt lat="35.111248254078546" lon="-6.142461336518957"><ele>35.0</ele><time>2026-04-22T14:30:50Z</time></trkpt><trkpt lat="35.110961989302005" lon="-6.142500463294844"><ele>34.5</ele><time>2026-04-22T14:30:51Z</time></trkpt><trkpt lat="35.11067534757552" lon="-6.14254361916082"><ele>34.0</ele><time>2026-04-22T14:30:52Z</time></trkpt><trkpt lat="35.110387355456545" lon="-6.1425906568015645"><ele>34.0</ele><time>2026-04-22T14:30:53Z</time></trkpt><trkpt lat="35.11010242832778" lon="-6.142645713872626"><ele>34.0</ele><time>2026-04-22T14:30:54Z</time></trkpt><trkpt lat="35.10981702206479" lon="-6.142707856498284"><ele>33.5</ele><time>2026-04-22T14:30:55Z</time></trkpt><trkpt lat="35.10953239999193" lon="-6.142777017723704"><ele>33.0</ele><time>2026-04-22T14:30:56Z</time></trkpt><trkpt lat="35.10924838064158" lon="-6.142841970186052"><ele>34.0</ele><time>2026-04-22T14:30:57Z</time></trkpt><trkpt lat="35.10896273874626" lon="-6.14290581445258"><ele>35.0</ele><time>2026-04-22T14:30:58Z</time></trkpt><trkpt lat="35.10867653673328" lon="-6.142969743260742"><ele>35.0</ele><time>2026-04-22T14:30:58.999Z</time></trkpt><trkpt lat="35.10838953307493" lon="-6.143034830448303"><ele>35.0</ele><time>2026-04-22T14:30:59.999Z</time></trkpt><trkpt lat="35.108103455255325" lon="-6.143099070653288"><ele>34.0</ele><time>2026-04-22T14:31:00.999Z</time></trkpt><trkpt lat="35.10781714655842" lon="-6.143163215002026"><ele>33.0</ele><time>2026-04-22T14:31:01.999Z</time></trkpt><trkpt lat="35.10753128190832" lon="-6.143227083913029"><ele>33.0</ele><time>2026-04-22T14:31:02.999Z</time></trkpt><trkpt lat="35.10724681056212" lon="-6.143289735432021"><ele>33.0</ele><time>2026-04-22T14:31:03.999Z</time></trkpt><trkpt lat="35.10696707384294" lon="-6.143352251112813"><ele>33.0</ele><time>2026-04-22T14:31:04.999Z</time></trkpt><trkpt lat="35.10669206116516" lon="-6.14341106394925"><ele>33.0</ele><time>2026-04-22T14:31:05.999Z</time></trkpt><trkpt lat="35.10642066854832" lon="-6.143466820105133"><ele>33.5</ele><time>2026-04-22T14:31:06.999Z</time></trkpt><trkpt lat="35.10614371128882" lon="-6.143521500117512"><ele>34.0</ele><time>2026-04-22T14:31:07.999Z</time></trkpt><trkpt lat="35.10586245110455" lon="-6.14357553895396"><ele>35.0</ele><time>2026-04-22T14:31:08.999Z</time></trkpt><trkpt lat="35.105581303690606" lon="-6.143638563307889"><ele>36.0</ele><time>2026-04-22T14:31:09.999Z</time></trkpt><trkpt lat="35.105299643448106" lon="-6.143705008257119"><ele>36.0</ele><time>2026-04-22T14:31:10.999Z</time></trkpt><trkpt lat="35.105016313798785" lon="-6.143774027815882"><ele>36.0</ele><time>2026-04-22T14:31:11.999Z</time></trkpt><trkpt lat="35.104730949748145" lon="-6.143842197354268"><ele>37.5</ele><time>2026-04-22T14:31:12.999Z</time></trkpt><trkpt lat="35.10444649635773" lon="-6.143908486412771"><ele>39.0</ele><time>2026-04-22T14:31:13.999Z</time></trkpt><trkpt lat="35.104161231976704" lon="-6.143975026116928"><ele>39.0</ele><time>2026-04-22T14:31:14.999Z</time></trkpt><trkpt lat="35.103876261116866" lon="-6.144042123652978"><ele>39.0</ele><time>2026-04-22T14:31:15.999Z</time></trkpt><trkpt lat="35.10359219931293" lon="-6.144111697474096"><ele>39.0</ele><time>2026-04-22T14:31:16.999Z</time></trkpt><trkpt lat="35.10330820493997" lon="-6.144183162501784"><ele>39.0</ele><time>2026-04-22T14:31:17.999Z</time></trkpt><trkpt lat="35.1030232935178" lon="-6.144255709158339"><ele>38.5</ele><time>2026-04-22T14:31:18.999Z</time></trkpt><trkpt lat="35.10273806853843" lon="-6.144325910892599"><ele>38.0</ele><time>2026-04-22T14:31:19.999Z</time></trkpt><trkpt lat="35.10245294091215" lon="-6.144393380823236"><ele>38.0</ele><time>2026-04-22T14:31:20.999Z</time></trkpt><trkpt lat="35.102167475068676" lon="-6.144459353672383"><ele>38.0</ele><time>2026-04-22T14:31:21.999Z</time></trkpt><trkpt lat="35.101882438293984" lon="-6.1445270380988966"><ele>38.0</ele><time>2026-04-22T14:31:22.999Z</time></trkpt><trkpt lat="35.101596675806796" lon="-6.144597167123783"><ele>38.0</ele><time>2026-04-22T14:31:23.999Z</time></trkpt><trkpt lat="35.101311985649644" lon="-6.144667879945407"><ele>37.0</ele><time>2026-04-22T14:31:24.999Z</time></trkpt><trkpt lat="35.10102844697464" lon="-6.144742957240585"><ele>36.0</ele><time>2026-04-22T14:31:25.999Z</time></trkpt><trkpt lat="35.10074631983214" lon="-6.144822364232355"><ele>38.5</ele><time>2026-04-22T14:31:26.999Z</time></trkpt><trkpt lat="35.10046419219233" lon="-6.1449046164169"><ele>41.0</ele><time>2026-04-22T14:31:27.999Z</time></trkpt><trkpt lat="35.10018287642198" lon="-6.144989098488628"><ele>40.5</ele><time>2026-04-22T14:31:28.999Z</time></trkpt><trkpt lat="35.099902707214156" lon="-6.145076847151056"><ele>40.0</ele><time>2026-04-22T14:31:29.999Z</time></trkpt><trkpt lat="35.099623271943514" lon="-6.145167734623208"><ele>40.0</ele><time>2026-04-22T14:31:30.999Z</time></trkpt><trkpt lat="35.09934476677982" lon="-6.145260661856595"><ele>40.0</ele><time>2026-04-22T14:31:31.999Z</time></trkpt><trkpt lat="35.099066362966724" lon="-6.145356141832093"><ele>40.5</ele><time>2026-04-22T14:31:32.999Z</time></trkpt><trkpt lat="35.09878834143928" lon="-6.1454555031908225"><ele>41.0</ele><time>2026-04-22T14:31:33.999Z</time></trkpt><trkpt lat="35.09851172533259" lon="-6.145557246053773"><ele>42.0</ele><time>2026-04-22T14:31:34.999Z</time></trkpt><trkpt lat="35.098234563774376" lon="-6.1456626058225545"><ele>43.0</ele><time>2026-04-22T14:31:35.999Z</time></trkpt><trkpt lat="35.09795828941505" lon="-6.145770252254342"><ele>43.0</ele><time>2026-04-22T14:31:36.999Z</time></trkpt><trkpt lat="35.09768313871687" lon="-6.145880525537669"><ele>43.0</ele><time>2026-04-22T14:31:37.999Z</time></trkpt><trkpt lat="35.09740912117153" lon="-6.145995295526625"><ele>43.0</ele><time>2026-04-22T14:31:38.999Z</time></trkpt><trkpt lat="35.097135933098016" lon="-6.146116109887559"><ele>43.0</ele><time>2026-04-22T14:31:39.999Z</time></trkpt><trkpt lat="35.09686310913847" lon="-6.146238201530349"><ele>43.0</ele><time>2026-04-22T14:31:40.999Z</time></trkpt><trkpt lat="35.096589430489175" lon="-6.14636243048569"><ele>43.0</ele><time>2026-04-22T14:31:41.999Z</time></trkpt><trkpt lat="35.09631641332058" lon="-6.146490722374439"><ele>44.5</ele><time>2026-04-22T14:31:42.999Z</time></trkpt><trkpt lat="35.09604488651412" lon="-6.146622805136652"><ele>46.0</ele><time>2026-04-22T14:31:43.999Z</time></trkpt><trkpt lat="35.09577513744342" lon="-6.1467571986762035"><ele>45.0</ele><time>2026-04-22T14:31:44.999Z</time></trkpt><trkpt lat="35.09550615760295" lon="-6.146892346423918"><ele>44.0</ele><time>2026-04-22T14:31:45.999Z</time></trkpt><trkpt lat="35.095239311128495" lon="-6.147032185796785"><ele>44.0</ele><time>2026-04-22T14:31:46.999Z</time></trkpt><trkpt lat="35.09497468959957" lon="-6.147176771629866"><ele>44.0</ele><time>2026-04-22T14:31:47.999Z</time></trkpt><trkpt lat="35.09471063293968" lon="-6.147325207011128"><ele>44.5</ele><time>2026-04-22T14:31:48.999Z</time></trkpt><trkpt lat="35.09444687628503" lon="-6.14747502966013"><ele>45.0</ele><time>2026-04-22T14:31:49.999Z</time></trkpt><trkpt lat="35.09418343017548" lon="-6.147625279889813"><ele>45.5</ele><time>2026-04-22T14:31:50.999Z</time></trkpt><trkpt lat="35.09391953719835" lon="-6.1477811031465786"><ele>46.0</ele><time>2026-04-22T14:31:51.999Z</time></trkpt><trkpt lat="35.09365883291623" lon="-6.147939319211554"><ele>46.0</ele><time>2026-04-22T14:31:52.999Z</time></trkpt><trkpt lat="35.093399457080544" lon="-6.14809939835254"><ele>46.0</ele><time>2026-04-22T14:31:53.999Z</time></trkpt><trkpt lat="35.09314022229896" lon="-6.148261512609419"><ele>46.0</ele><time>2026-04-22T14:31:54.999Z</time></trkpt><trkpt lat="35.092881498938596" lon="-6.148424069461344"><ele>46.0</ele><time>2026-04-22T14:31:55.999Z</time></trkpt><trkpt lat="35.09262276347026" lon="-6.148586153144687"><ele>46.5</ele><time>2026-04-22T14:31:56.999Z</time></trkpt><trkpt lat="35.09236440499219" lon="-6.148748850528189"><ele>47.0</ele><time>2026-04-22T14:31:57.999Z</time></trkpt><trkpt lat="35.092105995445486" lon="-6.1489118221006915"><ele>47.5</ele><time>2026-04-22T14:31:58.999Z</time></trkpt><trkpt lat="35.091847043588736" lon="-6.149075304059528"><ele>48.0</ele><time>2026-04-22T14:31:59.999Z</time></trkpt><trkpt lat="35.09158698759958" lon="-6.149239459020244"><ele>48.0</ele><time>2026-04-22T14:32:00.999Z</time></trkpt><trkpt lat="35.091326278261654" lon="-6.149404914716452"><ele>48.0</ele><time>2026-04-22T14:32:02Z</time></trkpt><trkpt lat="35.09106506483422" lon="-6.149568975006854"><ele>48.0</ele><time>2026-04-22T14:32:03Z</time></trkpt><trkpt lat="35.090804498636" lon="-6.1497339050243"><ele>48.0</ele><time>2026-04-22T14:32:04Z</time></trkpt><trkpt lat="35.09054545835726" lon="-6.1498975416379285"><ele>48.5</ele><time>2026-04-22T14:32:05Z</time></trkpt><trkpt lat="35.09028654358961" lon="-6.150061538386875"><ele>49.0</ele><time>2026-04-22T14:32:06Z</time></trkpt><trkpt lat="35.09002824118435" lon="-6.150224773480064"><ele>48.0</ele><time>2026-04-22T14:32:07Z</time></trkpt><trkpt lat="35.08976993309518" lon="-6.150387173613062"><ele>47.0</ele><time>2026-04-22T14:32:08Z</time></trkpt><trkpt lat="35.089512139294285" lon="-6.1505500675128895"><ele>47.5</ele><time>2026-04-22T14:32:09Z</time></trkpt><trkpt lat="35.08925411847148" lon="-6.150713455796415"><ele>48.0</ele><time>2026-04-22T14:32:10Z</time></trkpt><trkpt lat="35.088995888923655" lon="-6.150875114188319"><ele>48.5</ele><time>2026-04-22T14:32:11Z</time></trkpt><trkpt lat="35.088738372856525" lon="-6.151035215193064"><ele>49.0</ele><time>2026-04-22T14:32:12Z</time></trkpt><trkpt lat="35.088483112204" lon="-6.151194012037385"><ele>48.5</ele><time>2026-04-22T14:32:13Z</time></trkpt><trkpt lat="35.08823415538466" lon="-6.151348115939097"><ele>48.0</ele><time>2026-04-22T14:32:14Z</time></trkpt><trkpt lat="35.08799830897762" lon="-6.15149697701253"><ele>49.5</ele><time>2026-04-22T14:32:15Z</time></trkpt><trkpt lat="35.08776979357844" lon="-6.151641732357837"><ele>51.0</ele><time>2026-04-22T14:32:16Z</time></trkpt><trkpt lat="35.08754524824055" lon="-6.151784229212062"><ele>50.0</ele><time>2026-04-22T14:32:17Z</time></trkpt><trkpt lat="35.087323524287946" lon="-6.151923865528078"><ele>49.0</ele><time>2026-04-22T14:32:18Z</time></trkpt><trkpt lat="35.0871046133523" lon="-6.152060781375142"><ele>49.0</ele><time>2026-04-22T14:32:19Z</time></trkpt><trkpt lat="35.08688698620661" lon="-6.152198330712275"><ele>49.0</ele><time>2026-04-22T14:32:20Z</time></trkpt><trkpt lat="35.086669922389405" lon="-6.1523348679599215"><ele>50.0</ele><time>2026-04-22T14:32:21Z</time></trkpt><trkpt lat="35.08645411212478" lon="-6.152470755441933"><ele>51.0</ele><time>2026-04-22T14:32:22Z</time></trkpt><trkpt lat="35.08623828973242" lon="-6.152607267933846"><ele>51.0</ele><time>2026-04-22T14:32:23Z</time></trkpt><trkpt lat="35.086023322683786" lon="-6.152741928646816"><ele>51.0</ele><time>2026-04-22T14:32:24Z</time></trkpt><trkpt lat="35.08580805915015" lon="-6.152878242189463"><ele>50.5</ele><time>2026-04-22T14:32:25Z</time></trkpt><trkpt lat="35.08559431796428" lon="-6.153015536432839"><ele>50.0</ele><time>2026-04-22T14:32:26Z</time></trkpt><trkpt lat="35.08537958733091" lon="-6.1531542446598735"><ele>50.0</ele><time>2026-04-22T14:32:27Z</time></trkpt><trkpt lat="35.08516504368289" lon="-6.153293029858943"><ele>50.0</ele><time>2026-04-22T14:32:28Z</time></trkpt><trkpt lat="35.084949619277594" lon="-6.153429962378051"><ele>50.5</ele><time>2026-04-22T14:32:29Z</time></trkpt><trkpt lat="35.08473432014605" lon="-6.153565298728063"><ele>51.0</ele><time>2026-04-22T14:32:30Z</time></trkpt><trkpt lat="35.08451827279267" lon="-6.153699742987409"><ele>51.0</ele><time>2026-04-22T14:32:31Z</time></trkpt><trkpt lat="35.08430327377155" lon="-6.153835866568294"><ele>51.0</ele><time>2026-04-22T14:32:32Z</time></trkpt><trkpt lat="35.08408821958196" lon="-6.153971629878185"><ele>52.0</ele><time>2026-04-22T14:32:33Z</time></trkpt><trkpt lat="35.08387354822563" lon="-6.154104621678679"><ele>53.0</ele><time>2026-04-22T14:32:34Z</time></trkpt><trkpt lat="35.08365813707354" lon="-6.154238452811748"><ele>53.0</ele><time>2026-04-22T14:32:35Z</time></trkpt><trkpt lat="35.08344209671091" lon="-6.1543742944812925"><ele>53.0</ele><time>2026-04-22T14:32:36Z</time></trkpt><trkpt lat="35.083226641578044" lon="-6.154509579727122"><ele>54.0</ele><time>2026-04-22T14:32:37Z</time></trkpt><trkpt lat="35.08301064522242" lon="-6.15464509060386"><ele>55.0</ele><time>2026-04-22T14:32:38Z</time></trkpt><trkpt lat="35.08279577158516" lon="-6.154780790251012"><ele>54.5</ele><time>2026-04-22T14:32:39Z</time></trkpt><trkpt lat="35.08258031170562" lon="-6.154916705255211"><ele>54.0</ele><time>2026-04-22T14:32:40Z</time></trkpt><trkpt lat="35.08236486760775" lon="-6.155052000750508"><ele>53.5</ele><time>2026-04-22T14:32:41Z</time></trkpt><trkpt lat="35.08214871873157" lon="-6.155185661744466"><ele>53.0</ele><time>2026-04-22T14:32:42Z</time></trkpt><trkpt lat="35.0819339741433" lon="-6.1553180633053675"><ele>53.0</ele><time>2026-04-22T14:32:43Z</time></trkpt><trkpt lat="35.08171934372368" lon="-6.155452318506745"><ele>53.0</ele><time>2026-04-22T14:32:44Z</time></trkpt><trkpt lat="35.08150522472196" lon="-6.155586590865917"><ele>53.5</ele><time>2026-04-22T14:32:45Z</time></trkpt><trkpt lat="35.081290527491944" lon="-6.155721123994303"><ele>54.0</ele><time>2026-04-22T14:32:46Z</time></trkpt><trkpt lat="35.08107655454003" lon="-6.155855486506213"><ele>54.0</ele><time>2026-04-22T14:32:47Z</time></trkpt><trkpt lat="35.080863088628455" lon="-6.155989853994139"><ele>54.0</ele><time>2026-04-22T14:32:48Z</time></trkpt><trkpt lat="35.080649201385704" lon="-6.156126415970652"><ele>54.5</ele><time>2026-04-22T14:32:49Z</time></trkpt><trkpt lat="35.08043552780133" lon="-6.156262405426367"><ele>55.0</ele><time>2026-04-22T14:32:50Z</time></trkpt><trkpt lat="35.08021997698934" lon="-6.156399009387706"><ele>55.0</ele><time>2026-04-22T14:32:51Z</time></trkpt><trkpt lat="35.08000552513559" lon="-6.15653600161751"><ele>55.0</ele><time>2026-04-22T14:32:52Z</time></trkpt><trkpt lat="35.07979146864731" lon="-6.156672353119325"><ele>56.0</ele><time>2026-04-22T14:32:53Z</time></trkpt><trkpt lat="35.07957679251099" lon="-6.156807279785851"><ele>57.0</ele><time>2026-04-22T14:32:54Z</time></trkpt><trkpt lat="35.079361661639865" lon="-6.1569407895708705"><ele>57.0</ele><time>2026-04-22T14:32:55Z</time></trkpt><trkpt lat="35.079146137552556" lon="-6.157075360944279"><ele>57.0</ele><time>2026-04-22T14:32:56Z</time></trkpt><trkpt lat="35.078930823272636" lon="-6.157211123832831"><ele>56.5</ele><time>2026-04-22T14:32:57Z</time></trkpt><trkpt lat="35.07871519075171" lon="-6.157347071240968"><ele>56.0</ele><time>2026-04-22T14:32:58Z</time></trkpt><trkpt lat="35.07849939202083" lon="-6.157483921781111"><ele>56.5</ele><time>2026-04-22T14:32:59Z</time></trkpt><trkpt lat="35.07828620424913" lon="-6.157620832320731"><ele>57.0</ele><time>2026-04-22T14:33:00Z</time></trkpt><trkpt lat="35.078073383016374" lon="-6.157760360224306"><ele>57.0</ele><time>2026-04-22T14:33:01Z</time></trkpt><trkpt lat="35.077864080654955" lon="-6.157902931390763"><ele>57.0</ele><time>2026-04-22T14:33:02Z</time></trkpt><trkpt lat="35.07765531073248" lon="-6.158046392646808"><ele>57.0</ele><time>2026-04-22T14:33:02.999Z</time></trkpt><trkpt lat="35.07744604780497" lon="-6.158192575198786"><ele>57.0</ele><time>2026-04-22T14:33:03.999Z</time></trkpt><trkpt lat="35.07723756395147" lon="-6.158339908700204"><ele>59.0</ele><time>2026-04-22T14:33:04.999Z</time></trkpt><trkpt lat="35.0770276993465" lon="-6.158487667466893"><ele>61.0</ele><time>2026-04-22T14:33:05.999Z</time></trkpt><trkpt lat="35.076819564076054" lon="-6.158635942306339"><ele>61.0</ele><time>2026-04-22T14:33:06.999Z</time></trkpt><trkpt lat="35.076613053500466" lon="-6.158786423406944"><ele>61.0</ele><time>2026-04-22T14:33:07.999Z</time></trkpt><trkpt lat="35.07640748308759" lon="-6.158937439331851"><ele>60.5</ele><time>2026-04-22T14:33:08.999Z</time></trkpt><trkpt lat="35.07620219595919" lon="-6.159090468747852"><ele>60.0</ele><time>2026-04-22T14:33:09.999Z</time></trkpt><trkpt lat="35.0759978184348" lon="-6.15924650156821"><ele>60.0</ele><time>2026-04-22T14:33:10.999Z</time></trkpt><trkpt lat="35.07579505942506" lon="-6.159404723677992"><ele>60.0</ele><time>2026-04-22T14:33:11.999Z</time></trkpt><trkpt lat="35.075592008760125" lon="-6.159565136446119"><ele>59.5</ele><time>2026-04-22T14:33:12.999Z</time></trkpt><trkpt lat="35.07538885625313" lon="-6.1597259621787135"><ele>59.0</ele><time>2026-04-22T14:33:13.999Z</time></trkpt><trkpt lat="35.07518555696525" lon="-6.159887363018855"><ele>59.0</ele><time>2026-04-22T14:33:14.999Z</time></trkpt><trkpt lat="35.074981892517386" lon="-6.160047958207182"><ele>59.0</ele><time>2026-04-22T14:33:15.999Z</time></trkpt><trkpt lat="35.07477771237408" lon="-6.16020666398715"><ele>59.0</ele><time>2026-04-22T14:33:16.999Z</time></trkpt><trkpt lat="35.074573666612366" lon="-6.160366427879342"><ele>59.0</ele><time>2026-04-22T14:33:17.999Z</time></trkpt><trkpt lat="35.074369482875674" lon="-6.160523681323837"><ele>59.0</ele><time>2026-04-22T14:33:18.999Z</time></trkpt><trkpt lat="35.07416440556277" lon="-6.1606827999466685"><ele>59.0</ele><time>2026-04-22T14:33:19.999Z</time></trkpt><trkpt lat="35.07396165269743" lon="-6.160844441696851"><ele>59.0</ele><time>2026-04-22T14:33:20.999Z</time></trkpt><trkpt lat="35.07375854236833" lon="-6.161005879632034"><ele>59.0</ele><time>2026-04-22T14:33:21.999Z</time></trkpt><trkpt lat="35.073554818555436" lon="-6.161165287244626"><ele>59.0</ele><time>2026-04-22T14:33:22.999Z</time></trkpt><trkpt lat="35.073351208035774" lon="-6.161325320060752"><ele>59.0</ele><time>2026-04-22T14:33:23.999Z</time></trkpt><trkpt lat="35.07314768671811" lon="-6.16148481421937"><ele>59.5</ele><time>2026-04-22T14:33:24.999Z</time></trkpt><trkpt lat="35.07294548261979" lon="-6.1616446401762"><ele>60.0</ele><time>2026-04-22T14:33:25.999Z</time></trkpt><trkpt lat="35.07274221299476" lon="-6.161804932326107"><ele>60.0</ele><time>2026-04-22T14:33:26.999Z</time></trkpt><trkpt lat="35.07253966494724" lon="-6.161965061580428"><ele>60.0</ele><time>2026-04-22T14:33:27.999Z</time></trkpt><trkpt lat="35.07233563466881" lon="-6.16212298466492"><ele>59.5</ele><time>2026-04-22T14:33:28.999Z</time></trkpt><trkpt lat="35.07213033860712" lon="-6.162279481695738"><ele>59.0</ele><time>2026-04-22T14:33:29.999Z</time></trkpt><trkpt lat="35.07192591717146" lon="-6.16243881822807"><ele>59.0</ele><time>2026-04-22T14:33:30.999Z</time></trkpt><trkpt lat="35.071721510085446" lon="-6.162597021489201"><ele>59.0</ele><time>2026-04-22T14:33:31.999Z</time></trkpt><trkpt lat="35.071517479692446" lon="-6.162755990277365"><ele>61.0</ele><time>2026-04-22T14:33:32.999Z</time></trkpt><trkpt lat="35.07131270687117" lon="-6.16291302529968"><ele>63.0</ele><time>2026-04-22T14:33:33.999Z</time></trkpt><trkpt lat="35.07110906798437" lon="-6.1630722591228935"><ele>63.5</ele><time>2026-04-22T14:33:34.999Z</time></trkpt><trkpt lat="35.070905777975135" lon="-6.1632319241454505"><ele>64.0</ele><time>2026-04-22T14:33:35.999Z</time></trkpt><trkpt lat="35.07070306521495" lon="-6.163392523986113"><ele>64.0</ele><time>2026-04-22T14:33:36.999Z</time></trkpt><trkpt lat="35.07049942197178" lon="-6.163550097490289"><ele>64.0</ele><time>2026-04-22T14:33:37.999Z</time></trkpt><trkpt lat="35.07029610690795" lon="-6.1637081352738745"><ele>64.0</ele><time>2026-04-22T14:33:38.999Z</time></trkpt><trkpt lat="35.070092248042" lon="-6.163865565216958"><ele>64.0</ele><time>2026-04-22T14:33:39.999Z</time></trkpt><trkpt lat="35.069889098138" lon="-6.164024162539817"><ele>64.0</ele><time>2026-04-22T14:33:40.999Z</time></trkpt><trkpt lat="35.06968544875558" lon="-6.1641824174127295"><ele>64.0</ele><time>2026-04-22T14:33:41.999Z</time></trkpt><trkpt lat="35.06948414589733" lon="-6.164343953335264"><ele>64.0</ele><time>2026-04-22T14:33:42.999Z</time></trkpt><trkpt lat="35.069280388852825" lon="-6.164502762702225"><ele>64.0</ele><time>2026-04-22T14:33:43.999Z</time></trkpt><trkpt lat="35.06907609118806" lon="-6.164663971332375"><ele>63.0</ele><time>2026-04-22T14:33:44.999Z</time></trkpt><trkpt lat="35.06887297583" lon="-6.164825596755161"><ele>62.0</ele><time>2026-04-22T14:33:45.999Z</time></trkpt><trkpt lat="35.068668260660594" lon="-6.1649852859543275"><ele>62.0</ele><time>2026-04-22T14:33:46.999Z</time></trkpt><trkpt lat="35.068463135462665" lon="-6.165144242724109"><ele>62.0</ele><time>2026-04-22T14:33:47.999Z</time></trkpt><trkpt lat="35.06825867984348" lon="-6.165302778659419"><ele>61.5</ele><time>2026-04-22T14:33:48.999Z</time></trkpt><trkpt lat="35.06805266191244" lon="-6.165460622530737"><ele>61.0</ele><time>2026-04-22T14:33:49.999Z</time></trkpt><trkpt lat="35.06784868595904" lon="-6.165619104296749"><ele>61.5</ele><time>2026-04-22T14:33:50.999Z</time></trkpt><trkpt lat="35.06764452309367" lon="-6.165777163029102"><ele>62.0</ele><time>2026-04-22T14:33:51.999Z</time></trkpt><trkpt lat="35.0674391738754" lon="-6.165934910826577"><ele>62.5</ele><time>2026-04-22T14:33:52.999Z</time></trkpt><trkpt lat="35.067233746476845" lon="-6.166088252926555"><ele>63.0</ele><time>2026-04-22T14:33:53.999Z</time></trkpt><trkpt lat="35.06702665019185" lon="-6.1662372908339105"><ele>63.0</ele><time>2026-04-22T14:33:54.999Z</time></trkpt><trkpt lat="35.066819318085535" lon="-6.166387451039719"><ele>63.0</ele><time>2026-04-22T14:33:55.999Z</time></trkpt><trkpt lat="35.066610914866104" lon="-6.166536743925483"><ele>63.5</ele><time>2026-04-22T14:33:56.999Z</time></trkpt><trkpt lat="35.0664022154624" lon="-6.1666849819649485"><ele>64.0</ele><time>2026-04-22T14:33:57.999Z</time></trkpt><trkpt lat="35.06619198810816" lon="-6.166830694821348"><ele>64.0</ele><time>2026-04-22T14:33:58.999Z</time></trkpt><trkpt lat="35.0659803383997" lon="-6.1669724967275545"><ele>64.0</ele><time>2026-04-22T14:33:59.999Z</time></trkpt><trkpt lat="35.06576808316591" lon="-6.167112355189763"><ele>64.0</ele><time>2026-04-22T14:34:00.999Z</time></trkpt><trkpt lat="35.065555218480746" lon="-6.167249289388856"><ele>64.0</ele><time>2026-04-22T14:34:01.999Z</time></trkpt><trkpt lat="35.06534258642126" lon="-6.167389001857186"><ele>64.5</ele><time>2026-04-22T14:34:02.999Z</time></trkpt><trkpt lat="35.06513002039277" lon="-6.167526829096433"><ele>65.0</ele><time>2026-04-22T14:34:03.999Z</time></trkpt><trkpt lat="35.0649136470372" lon="-6.167657936903583"><ele>65.0</ele><time>2026-04-22T14:34:04.999Z</time></trkpt><trkpt lat="35.06469715459944" lon="-6.167788922203599"><ele>65.0</ele><time>2026-04-22T14:34:05.999Z</time></trkpt><trkpt lat="35.064480675938576" lon="-6.167919492941454"><ele>65.0</ele><time>2026-04-22T14:34:06.999Z</time></trkpt><trkpt lat="35.06426370834815" lon="-6.168050729331135"><ele>65.0</ele><time>2026-04-22T14:34:08Z</time></trkpt><trkpt lat="35.0640468017904" lon="-6.16817785123448"><ele>65.5</ele><time>2026-04-22T14:34:09Z</time></trkpt><trkpt lat="35.06382892037841" lon="-6.168300409102413"><ele>66.0</ele><time>2026-04-22T14:34:10Z</time></trkpt><trkpt lat="35.063611190844234" lon="-6.168421283095072"><ele>66.0</ele><time>2026-04-22T14:34:11Z</time></trkpt><trkpt lat="35.06339065835546" lon="-6.168538581991268"><ele>66.0</ele><time>2026-04-22T14:34:12Z</time></trkpt><trkpt lat="35.0631699370864" lon="-6.168655755097708"><ele>66.0</ele><time>2026-04-22T14:34:13Z</time></trkpt><trkpt lat="35.0629485320597" lon="-6.168772392272769"><ele>66.0</ele><time>2026-04-22T14:34:14Z</time></trkpt><trkpt lat="35.06272704614154" lon="-6.168888139649405"><ele>66.0</ele><time>2026-04-22T14:34:15Z</time></trkpt><trkpt lat="35.06250493984578" lon="-6.1690024241487595"><ele>66.0</ele><time>2026-04-22T14:34:16Z</time></trkpt><trkpt lat="35.06228096012156" lon="-6.169114376372742"><ele>65.5</ele><time>2026-04-22T14:34:17Z</time></trkpt><trkpt lat="35.062056581970744" lon="-6.1692234191795325"><ele>65.0</ele><time>2026-04-22T14:34:18Z</time></trkpt><trkpt lat="35.06183212931082" lon="-6.169331660363706"><ele>65.5</ele><time>2026-04-22T14:34:19Z</time></trkpt><trkpt lat="35.06160661959724" lon="-6.169437045864574"><ele>66.0</ele><time>2026-04-22T14:34:20Z</time></trkpt><trkpt lat="35.0613817729584" lon="-6.169543477190444"><ele>66.0</ele><time>2026-04-22T14:34:21Z</time></trkpt><trkpt lat="35.06115744352204" lon="-6.169652542977233"><ele>66.0</ele><time>2026-04-22T14:34:22Z</time></trkpt><trkpt lat="35.060931677819035" lon="-6.169760107854388"><ele>67.5</ele><time>2026-04-22T14:34:23Z</time></trkpt><trkpt lat="35.060704803890815" lon="-6.169869640416925"><ele>69.0</ele><time>2026-04-22T14:34:24Z</time></trkpt><trkpt lat="35.06047891623981" lon="-6.169979325447915"><ele>69.0</ele><time>2026-04-22T14:34:25Z</time></trkpt><trkpt lat="35.0602520191985" lon="-6.170088015854619"><ele>69.0</ele><time>2026-04-22T14:34:26Z</time></trkpt><trkpt lat="35.060026566905876" lon="-6.170197439791586"><ele>68.0</ele><time>2026-04-22T14:34:27Z</time></trkpt><trkpt lat="35.059803057199666" lon="-6.170304297558399"><ele>67.0</ele><time>2026-04-22T14:34:28Z</time></trkpt><trkpt lat="35.05958045463359" lon="-6.170408198085787"><ele>67.0</ele><time>2026-04-22T14:34:29Z</time></trkpt><trkpt lat="35.05935585541797" lon="-6.170513416667091"><ele>67.0</ele><time>2026-04-22T14:34:30Z</time></trkpt><trkpt lat="35.05913245252508" lon="-6.170623422663859"><ele>68.5</ele><time>2026-04-22T14:34:31Z</time></trkpt><trkpt lat="35.05890918952343" lon="-6.170733286619453"><ele>70.0</ele><time>2026-04-22T14:34:32Z</time></trkpt><trkpt lat="35.058685369577724" lon="-6.170842437680673"><ele>70.0</ele><time>2026-04-22T14:34:33Z</time></trkpt><trkpt lat="35.05846080472619" lon="-6.170954312626995"><ele>70.0</ele><time>2026-04-22T14:34:34Z</time></trkpt><trkpt lat="35.05823600845769" lon="-6.171061319923201"><ele>70.0</ele><time>2026-04-22T14:34:35Z</time></trkpt><trkpt lat="35.05800937470917" lon="-6.17117001951277"><ele>70.0</ele><time>2026-04-22T14:34:36Z</time></trkpt><trkpt lat="35.05778682871457" lon="-6.1712775706544045"><ele>70.0</ele><time>2026-04-22T14:34:37Z</time></trkpt><trkpt lat="35.05756257462854" lon="-6.171384305875742"><ele>70.0</ele><time>2026-04-22T14:34:38Z</time></trkpt><trkpt lat="35.05734055956737" lon="-6.171492699946565"><ele>71.0</ele><time>2026-04-22T14:34:39Z</time></trkpt><trkpt lat="35.05711822933409" lon="-6.1716017166822965"><ele>72.0</ele><time>2026-04-22T14:34:40Z</time></trkpt><trkpt lat="35.056897828071754" lon="-6.171711104776399"><ele>72.0</ele><time>2026-04-22T14:34:41Z</time></trkpt><trkpt lat="35.05667822273153" lon="-6.1718272607307965"><ele>72.0</ele><time>2026-04-22T14:34:42Z</time></trkpt><trkpt lat="35.05645729658384" lon="-6.171943787112789"><ele>72.0</ele><time>2026-04-22T14:34:43Z</time></trkpt><trkpt lat="35.05623795415327" lon="-6.172061466181797"><ele>72.0</ele><time>2026-04-22T14:34:44Z</time></trkpt><trkpt lat="35.05601630641491" lon="-6.172177793309878"><ele>72.0</ele><time>2026-04-22T14:34:45Z</time></trkpt><trkpt lat="35.05579518068772" lon="-6.172293681457965"><ele>72.0</ele><time>2026-04-22T14:34:46Z</time></trkpt><trkpt lat="35.05557325724674" lon="-6.172405628194293"><ele>73.0</ele><time>2026-04-22T14:34:47Z</time></trkpt><trkpt lat="35.05535013129821" lon="-6.172518293916243"><ele>74.0</ele><time>2026-04-22T14:34:48Z</time></trkpt><trkpt lat="35.055126577387306" lon="-6.172628359603671"><ele>73.5</ele><time>2026-04-22T14:34:49Z</time></trkpt><trkpt lat="35.05490313333947" lon="-6.172735071929711"><ele>73.0</ele><time>2026-04-22T14:34:50Z</time></trkpt><trkpt lat="35.054678367483035" lon="-6.172842422550511"><ele>73.0</ele><time>2026-04-22T14:34:51Z</time></trkpt><trkpt lat="35.05445403716603" lon="-6.172951115290805"><ele>73.0</ele><time>2026-04-22T14:34:52Z</time></trkpt><trkpt lat="35.05422969880897" lon="-6.17306214054416"><ele>74.0</ele><time>2026-04-22T14:34:53Z</time></trkpt><trkpt lat="35.054006816073155" lon="-6.17317447668804"><ele>75.0</ele><time>2026-04-22T14:34:54Z</time></trkpt><trkpt lat="35.053782480175265" lon="-6.173285777278828"><ele>75.0</ele><time>2026-04-22T14:34:55Z</time></trkpt><trkpt lat="35.05355918225781" lon="-6.173397691638856"><ele>75.0</ele><time>2026-04-22T14:34:56Z</time></trkpt><trkpt lat="35.05333453647801" lon="-6.173510299349699"><ele>74.5</ele><time>2026-04-22T14:34:57Z</time></trkpt><trkpt lat="35.05311214091439" lon="-6.173622551456424"><ele>74.0</ele><time>2026-04-22T14:34:58Z</time></trkpt><trkpt lat="35.052887330965945" lon="-6.173737096597812"><ele>74.0</ele><time>2026-04-22T14:34:59Z</time></trkpt><trkpt lat="35.05266436674857" lon="-6.173853023089739"><ele>74.0</ele><time>2026-04-22T14:35:00Z</time></trkpt><trkpt lat="35.05244223590927" lon="-6.173972118153189"><ele>76.0</ele><time>2026-04-22T14:35:01Z</time></trkpt><trkpt lat="35.05221975938149" lon="-6.1740923694095855"><ele>78.0</ele><time>2026-04-22T14:35:02Z</time></trkpt><trkpt lat="35.05199898815099" lon="-6.174213990036553"><ele>78.0</ele><time>2026-04-22T14:35:03Z</time></trkpt><trkpt lat="35.05177934874763" lon="-6.174338442014072"><ele>78.0</ele><time>2026-04-22T14:35:04Z</time></trkpt><trkpt lat="35.05155900000831" lon="-6.174460608624129"><ele>77.5</ele><time>2026-04-22T14:35:05Z</time></trkpt><trkpt lat="35.05133909477136" lon="-6.174586329549736"><ele>77.0</ele><time>2026-04-22T14:35:06Z</time></trkpt><trkpt lat="35.051120810743896" lon="-6.174715722498566"><ele>77.0</ele><time>2026-04-22T14:35:07Z</time></trkpt><trkpt lat="35.050904478078294" lon="-6.174846364279884"><ele>77.0</ele><time>2026-04-22T14:35:08Z</time></trkpt><trkpt lat="35.05068721378166" lon="-6.174978931171664"><ele>78.5</ele><time>2026-04-22T14:35:09Z</time></trkpt><trkpt lat="35.050469849140114" lon="-6.17511201096708"><ele>80.0</ele><time>2026-04-22T14:35:10Z</time></trkpt><trkpt lat="35.05025335569451" lon="-6.175245696308016"><ele>80.0</ele><time>2026-04-22T14:35:11Z</time></trkpt><trkpt lat="35.05003677501332" lon="-6.175381841814654"><ele>80.0</ele><time>2026-04-22T14:35:12Z</time></trkpt><trkpt lat="35.04981999981132" lon="-6.175517646403049"><ele>80.5</ele><time>2026-04-22T14:35:13Z</time></trkpt><trkpt lat="35.049604651002234" lon="-6.175656706138004"><ele>81.0</ele><time>2026-04-22T14:35:14Z</time></trkpt><trkpt lat="35.04938800871024" lon="-6.175790152393161"><ele>82.0</ele><time>2026-04-22T14:35:14.999Z</time></trkpt><trkpt lat="35.04917146438095" lon="-6.1759217053990465"><ele>83.0</ele><time>2026-04-22T14:35:15.999Z</time></trkpt><trkpt lat="35.04895548784044" lon="-6.176060428885819"><ele>83.5</ele><time>2026-04-22T14:35:16.999Z</time></trkpt><trkpt lat="35.04874033779432" lon="-6.176195342476384"><ele>84.0</ele><time>2026-04-22T14:35:17.999Z</time></trkpt><trkpt lat="35.04852628148383" lon="-6.1763306756488925"><ele>84.0</ele><time>2026-04-22T14:35:18.999Z</time></trkpt><trkpt lat="35.04831111387296" lon="-6.1764636318727"><ele>84.0</ele><time>2026-04-22T14:35:19.999Z</time></trkpt><trkpt lat="35.04809524019491" lon="-6.176596838025391"><ele>83.0</ele><time>2026-04-22T14:35:20.999Z</time></trkpt><trkpt lat="35.04788020386814" lon="-6.176732155492836"><ele>82.0</ele><time>2026-04-22T14:35:21.999Z</time></trkpt><trkpt lat="35.0476652118993" lon="-6.176866915257032"><ele>82.5</ele><time>2026-04-22T14:35:22.999Z</time></trkpt><trkpt lat="35.04745028297319" lon="-6.177000394119065"><ele>83.0</ele><time>2026-04-22T14:35:23.999Z</time></trkpt><trkpt lat="35.047233984813154" lon="-6.17713377069883"><ele>83.0</ele><time>2026-04-22T14:35:24.999Z</time></trkpt><trkpt lat="35.04701714682235" lon="-6.17726745534338"><ele>83.0</ele><time>2026-04-22T14:35:25.999Z</time></trkpt><trkpt lat="35.04680365595316" lon="-6.177401476865284"><ele>84.5</ele><time>2026-04-22T14:35:26.999Z</time></trkpt><trkpt lat="35.04658801882937" lon="-6.177536450146051"><ele>86.0</ele><time>2026-04-22T14:35:27.999Z</time></trkpt><trkpt lat="35.04637110495744" lon="-6.177671940806994"><ele>86.0</ele><time>2026-04-22T14:35:28.999Z</time></trkpt><trkpt lat="35.04615488247325" lon="-6.177807894370983"><ele>86.0</ele><time>2026-04-22T14:35:29.999Z</time></trkpt><trkpt lat="35.045938043435136" lon="-6.177943592446482"><ele>86.5</ele><time>2026-04-22T14:35:30.999Z</time></trkpt><trkpt lat="35.04572131980863" lon="-6.178077246059349"><ele>87.0</ele><time>2026-04-22T14:35:31.999Z</time></trkpt><trkpt lat="35.045506566178766" lon="-6.178209222438313"><ele>87.0</ele><time>2026-04-22T14:35:32.999Z</time></trkpt><trkpt lat="35.04529175992893" lon="-6.178343243699585"><ele>87.0</ele><time>2026-04-22T14:35:33.999Z</time></trkpt><trkpt lat="35.04507960945263" lon="-6.178479943459087"><ele>87.0</ele><time>2026-04-22T14:35:34.999Z</time></trkpt><trkpt lat="35.04486675586516" lon="-6.1786185405674265"><ele>87.0</ele><time>2026-04-22T14:35:35.999Z</time></trkpt><trkpt lat="35.04465307542713" lon="-6.178752614835312"><ele>87.0</ele><time>2026-04-22T14:35:36.999Z</time></trkpt><trkpt lat="35.04443924474628" lon="-6.178888617051874"><ele>87.0</ele><time>2026-04-22T14:35:37.999Z</time></trkpt><trkpt lat="35.044225317464345" lon="-6.179025496615251"><ele>86.0</ele><time>2026-04-22T14:35:38.999Z</time></trkpt><trkpt lat="35.04401128296671" lon="-6.179159244947668"><ele>85.0</ele><time>2026-04-22T14:35:39.999Z</time></trkpt><trkpt lat="35.04379618127129" lon="-6.179291222439433"><ele>85.0</ele><time>2026-04-22T14:35:40.999Z</time></trkpt><trkpt lat="35.04358192096454" lon="-6.179428290740576"><ele>85.0</ele><time>2026-04-22T14:35:41.999Z</time></trkpt><trkpt lat="35.04336776614112" lon="-6.179564699031942"><ele>84.0</ele><time>2026-04-22T14:35:42.999Z</time></trkpt><trkpt lat="35.043150679362824" lon="-6.179700154786849"><ele>83.0</ele><time>2026-04-22T14:35:43.999Z</time></trkpt><trkpt lat="35.04292575528015" lon="-6.1798411764312"><ele>84.0</ele><time>2026-04-22T14:35:44.999Z</time></trkpt><trkpt lat="35.04269562577767" lon="-6.179983382766441"><ele>85.0</ele><time>2026-04-22T14:35:45.999Z</time></trkpt><trkpt lat="35.04246344124858" lon="-6.180124015901616"><ele>85.0</ele><time>2026-04-22T14:35:46.999Z</time></trkpt><trkpt lat="35.04222981298841" lon="-6.180268737361358"><ele>85.0</ele><time>2026-04-22T14:35:47.999Z</time></trkpt><trkpt lat="35.041995185086996" lon="-6.180414325689861"><ele>85.0</ele><time>2026-04-22T14:35:48.999Z</time></trkpt><trkpt lat="35.04176188762848" lon="-6.180564068475769"><ele>85.0</ele><time>2026-04-22T14:35:49.999Z</time></trkpt><trkpt lat="35.041526641687796" lon="-6.180710052346315"><ele>87.0</ele><time>2026-04-22T14:35:50.999Z</time></trkpt><trkpt lat="35.041291000140895" lon="-6.180859298116857"><ele>89.0</ele><time>2026-04-22T14:35:51.999Z</time></trkpt><trkpt lat="35.041055348604175" lon="-6.181011342856805"><ele>89.0</ele><time>2026-04-22T14:35:52.999Z</time></trkpt><trkpt lat="35.04081556816369" lon="-6.181165888929799"><ele>89.0</ele><time>2026-04-22T14:35:53.999Z</time></trkpt><trkpt lat="35.0405687129758" lon="-6.181325161613896"><ele>88.0</ele><time>2026-04-22T14:35:54.999Z</time></trkpt><trkpt lat="35.040317479856526" lon="-6.181483547876813"><ele>87.0</ele><time>2026-04-22T14:35:55.999Z</time></trkpt><trkpt lat="35.040065007256494" lon="-6.181647626592776"><ele>87.0</ele><time>2026-04-22T14:35:56.999Z</time></trkpt><trkpt lat="35.03981042968677" lon="-6.1818093984764175"><ele>87.0</ele><time>2026-04-22T14:35:57.999Z</time></trkpt><trkpt lat="35.039552529874655" lon="-6.181971014961252"><ele>87.0</ele><time>2026-04-22T14:35:58.999Z</time></trkpt><trkpt lat="35.03929339176166" lon="-6.18213496566236"><ele>87.0</ele><time>2026-04-22T14:35:59.999Z</time></trkpt><trkpt lat="35.03903384810053" lon="-6.182296283248359"><ele>86.5</ele><time>2026-04-22T14:36:00.999Z</time></trkpt><trkpt lat="35.03877430152656" lon="-6.182456295109087"><ele>86.0</ele><time>2026-04-22T14:36:01.999Z</time></trkpt><trkpt lat="35.038512037782866" lon="-6.182610714774946"><ele>85.5</ele><time>2026-04-22T14:36:02.999Z</time></trkpt><trkpt lat="35.038246765469296" lon="-6.182759361095252"><ele>85.0</ele><time>2026-04-22T14:36:03.999Z</time></trkpt><trkpt lat="35.037979240217" lon="-6.182904301110507"><ele>85.0</ele><time>2026-04-22T14:36:04.999Z</time></trkpt><trkpt lat="35.037710965096494" lon="-6.183044021660302"><ele>85.0</ele><time>2026-04-22T14:36:05.999Z</time></trkpt><trkpt lat="35.03744208743127" lon="-6.183181188599503"><ele>83.5</ele><time>2026-04-22T14:36:06.999Z</time></trkpt><trkpt lat="35.03717298294826" lon="-6.183315347833677"><ele>82.0</ele><time>2026-04-22T14:36:07.999Z</time></trkpt><trkpt lat="35.03689977263341" lon="-6.183447600888897"><ele>81.0</ele><time>2026-04-22T14:36:08.999Z</time></trkpt><trkpt lat="35.03662450971207" lon="-6.183569041660161"><ele>80.0</ele><time>2026-04-22T14:36:09.999Z</time></trkpt><trkpt lat="35.03634787691443" lon="-6.1836887385423775"><ele>80.0</ele><time>2026-04-22T14:36:10.999Z</time></trkpt><trkpt lat="35.036073669845635" lon="-6.183808601981459"><ele>80.0</ele><time>2026-04-22T14:36:11.999Z</time></trkpt><trkpt lat="35.03579799194328" lon="-6.183925946962647"><ele>79.0</ele><time>2026-04-22T14:36:12.999Z</time></trkpt><trkpt lat="35.03551915987328" lon="-6.184041269767189"><ele>78.0</ele><time>2026-04-22T14:36:14Z</time></trkpt><trkpt lat="35.03524153409815" lon="-6.184150882302798"><ele>76.5</ele><time>2026-04-22T14:36:15Z</time></trkpt><trkpt lat="35.03496336274945" lon="-6.184259583875214"><ele>75.0</ele><time>2026-04-22T14:36:16Z</time></trkpt><trkpt lat="35.0346850034022" lon="-6.184362815692002"><ele>75.0</ele><time>2026-04-22T14:36:17Z</time></trkpt><trkpt lat="35.0344042234942" lon="-6.184464294757917"><ele>75.0</ele><time>2026-04-22T14:36:18Z</time></trkpt><trkpt lat="35.034123591235236" lon="-6.184562398798076"><ele>75.0</ele><time>2026-04-22T14:36:19Z</time></trkpt><trkpt lat="35.03384093171266" lon="-6.18465603505311"><ele>75.0</ele><time>2026-04-22T14:36:20Z</time></trkpt><trkpt lat="35.03355840590266" lon="-6.18474710440662"><ele>74.0</ele><time>2026-04-22T14:36:21Z</time></trkpt><trkpt lat="35.033274892979776" lon="-6.18483103938649"><ele>73.0</ele><time>2026-04-22T14:36:22Z</time></trkpt><trkpt lat="35.032989101407544" lon="-6.184910922737036"><ele>72.5</ele><time>2026-04-22T14:36:23Z</time></trkpt><trkpt lat="35.032704070333246" lon="-6.184985787873953"><ele>72.0</ele><time>2026-04-22T14:36:24Z</time></trkpt><trkpt lat="35.03241949112497" lon="-6.185059505829646"><ele>70.5</ele><time>2026-04-22T14:36:25Z</time></trkpt><trkpt lat="35.032139673582584" lon="-6.185124387104513"><ele>69.0</ele><time>2026-04-22T14:36:26Z</time></trkpt><trkpt lat="35.03187581898472" lon="-6.1851877859666455"><ele>68.0</ele><time>2026-04-22T14:36:27Z</time></trkpt><trkpt lat="35.031611758107076" lon="-6.185247856431722"><ele>67.0</ele><time>2026-04-22T14:36:28Z</time></trkpt><trkpt lat="35.03134319615448" lon="-6.18529927463038"><ele>67.0</ele><time>2026-04-22T14:36:29Z</time></trkpt><trkpt lat="35.031075782137854" lon="-6.18535647347125"><ele>67.0</ele><time>2026-04-22T14:36:30Z</time></trkpt><trkpt lat="35.03080458467671" lon="-6.185413227693379"><ele>66.5</ele><time>2026-04-22T14:36:31Z</time></trkpt><trkpt lat="35.030529100307696" lon="-6.18547107176578"><ele>66.0</ele><time>2026-04-22T14:36:32Z</time></trkpt><trkpt lat="35.03025153128765" lon="-6.1855265312662775"><ele>64.5</ele><time>2026-04-22T14:36:33Z</time></trkpt><trkpt lat="35.02996887696313" lon="-6.185576382898868"><ele>63.0</ele><time>2026-04-22T14:36:34Z</time></trkpt><trkpt lat="35.02968375117137" lon="-6.185625743362111"><ele>63.0</ele><time>2026-04-22T14:36:35Z</time></trkpt><trkpt lat="35.029397983535695" lon="-6.185680542819911"><ele>63.0</ele><time>2026-04-22T14:36:36Z</time></trkpt><trkpt lat="35.02910851845028" lon="-6.1857374654430055"><ele>62.5</ele><time>2026-04-22T14:36:37Z</time></trkpt><trkpt lat="35.02882549959915" lon="-6.185799898740945"><ele>62.0</ele><time>2026-04-22T14:36:38Z</time></trkpt><trkpt lat="35.02854044430437" lon="-6.185862211175521"><ele>62.0</ele><time>2026-04-22T14:36:39Z</time></trkpt><trkpt lat="35.02825347608667" lon="-6.1859242493332145"><ele>62.0</ele><time>2026-04-22T14:36:40Z</time></trkpt><trkpt lat="35.027965345962755" lon="-6.185983151192603"><ele>62.0</ele><time>2026-04-22T14:36:41Z</time></trkpt><trkpt lat="35.02767949647074" lon="-6.186041494139889"><ele>62.0</ele><time>2026-04-22T14:36:42Z</time></trkpt><trkpt lat="35.027393003933085" lon="-6.186096516526605"><ele>60.0</ele><time>2026-04-22T14:36:43Z</time></trkpt><trkpt lat="35.02710730372916" lon="-6.186151231250698"><ele>58.0</ele><time>2026-04-22T14:36:44Z</time></trkpt><trkpt lat="35.02682056158515" lon="-6.18620493900865"><ele>58.0</ele><time>2026-04-22T14:36:45Z</time></trkpt><trkpt lat="35.026533593303036" lon="-6.186261256280199"><ele>58.0</ele><time>2026-04-22T14:36:46Z</time></trkpt><trkpt lat="35.026246378289805" lon="-6.1863190434405455"><ele>58.0</ele><time>2026-04-22T14:36:47Z</time></trkpt><trkpt lat="35.02595775716897" lon="-6.186376882917317"><ele>58.0</ele><time>2026-04-22T14:36:48Z</time></trkpt><trkpt lat="35.025670235606796" lon="-6.186431235371184"><ele>57.5</ele><time>2026-04-22T14:36:49Z</time></trkpt><trkpt lat="35.02538193528571" lon="-6.1864905748599766"><ele>57.0</ele><time>2026-04-22T14:36:50Z</time></trkpt><trkpt lat="35.02509305672312" lon="-6.186544633078207"><ele>54.5</ele><time>2026-04-22T14:36:51Z</time></trkpt><trkpt lat="35.02480539550774" lon="-6.186600052673214"><ele>52.0</ele><time>2026-04-22T14:36:52Z</time></trkpt><trkpt lat="35.02451850664995" lon="-6.186652538730064"><ele>52.0</ele><time>2026-04-22T14:36:53Z</time></trkpt><trkpt lat="35.02422938906635" lon="-6.186708300806386"><ele>52.0</ele><time>2026-04-22T14:36:54Z</time></trkpt><trkpt lat="35.02394336307477" lon="-6.186766689497389"><ele>53.0</ele><time>2026-04-22T14:36:55Z</time></trkpt><trkpt lat="35.023656490466315" lon="-6.1868262211466405"><ele>54.0</ele><time>2026-04-22T14:36:56Z</time></trkpt><trkpt lat="35.02336931420957" lon="-6.1868851113054575"><ele>53.0</ele><time>2026-04-22T14:36:57Z</time></trkpt><trkpt lat="35.02308139446223" lon="-6.186936872716056"><ele>52.0</ele><time>2026-04-22T14:36:58Z</time></trkpt><trkpt lat="35.02279401975653" lon="-6.186988980321138"><ele>52.0</ele><time>2026-04-22T14:36:59Z</time></trkpt><trkpt lat="35.02250738734203" lon="-6.187043171573542"><ele>52.0</ele><time>2026-04-22T14:37:00Z</time></trkpt><trkpt lat="35.0222201525079" lon="-6.187097937627998"><ele>51.5</ele><time>2026-04-22T14:37:01Z</time></trkpt><trkpt lat="35.02193449180021" lon="-6.1871504866299905"><ele>51.0</ele><time>2026-04-22T14:37:02Z</time></trkpt><trkpt lat="35.02164843459324" lon="-6.187203363911473"><ele>52.0</ele><time>2026-04-22T14:37:03Z</time></trkpt><trkpt lat="35.02136168831827" lon="-6.187257752833243"><ele>53.0</ele><time>2026-04-22T14:37:04Z</time></trkpt><trkpt lat="35.02107701843609" lon="-6.187316058356868"><ele>52.0</ele><time>2026-04-22T14:37:05Z</time></trkpt><trkpt lat="35.0207912107447" lon="-6.187371421080945"><ele>51.0</ele><time>2026-04-22T14:37:06Z</time></trkpt><trkpt lat="35.02050862128894" lon="-6.18743830052083"><ele>51.0</ele><time>2026-04-22T14:37:07Z</time></trkpt><trkpt lat="35.020223217707176" lon="-6.1875028465362965"><ele>51.0</ele><time>2026-04-22T14:37:08Z</time></trkpt><trkpt lat="35.01993905769966" lon="-6.187559421412682"><ele>51.5</ele><time>2026-04-22T14:37:09Z</time></trkpt><trkpt lat="35.019653174917515" lon="-6.187610918310026"><ele>52.0</ele><time>2026-04-22T14:37:10Z</time></trkpt><trkpt lat="35.019366908911195" lon="-6.187666862463817"><ele>52.0</ele><time>2026-04-22T14:37:11Z</time></trkpt><trkpt lat="35.019080893401004" lon="-6.1877243876854635"><ele>52.0</ele><time>2026-04-22T14:37:12Z</time></trkpt><trkpt lat="35.0187952351782" lon="-6.187779633542925"><ele>52.0</ele><time>2026-04-22T14:37:13Z</time></trkpt><trkpt lat="35.0185081778793" lon="-6.187839515471787"><ele>52.0</ele><time>2026-04-22T14:37:14Z</time></trkpt><trkpt lat="35.01822164353032" lon="-6.187903011252309"><ele>52.0</ele><time>2026-04-22T14:37:15Z</time></trkpt><trkpt lat="35.01793576757013" lon="-6.187967633987242"><ele>52.0</ele><time>2026-04-22T14:37:16Z</time></trkpt><trkpt lat="35.01764920606543" lon="-6.1880308790018566"><ele>51.5</ele><time>2026-04-22T14:37:17Z</time></trkpt><trkpt lat="35.017361984479614" lon="-6.18808891786764"><ele>51.0</ele><time>2026-04-22T14:37:18Z</time></trkpt><trkpt lat="35.01707471168724" lon="-6.1881457679833405"><ele>51.0</ele><time>2026-04-22T14:37:19Z</time></trkpt><trkpt lat="35.01678567542795" lon="-6.188202043937982"><ele>51.0</ele><time>2026-04-22T14:37:20Z</time></trkpt><trkpt lat="35.01649837898301" lon="-6.188255851417767"><ele>51.5</ele><time>2026-04-22T14:37:21Z</time></trkpt><trkpt lat="35.016210144263184" lon="-6.1883131895421215"><ele>52.0</ele><time>2026-04-22T14:37:22Z</time></trkpt><trkpt lat="35.01592333658882" lon="-6.188369138229659"><ele>52.5</ele><time>2026-04-22T14:37:22.999Z</time></trkpt><trkpt lat="35.015636262107385" lon="-6.1884260177695865"><ele>53.0</ele><time>2026-04-22T14:37:23.999Z</time></trkpt><trkpt lat="35.01534879717154" lon="-6.188481905713668"><ele>53.0</ele><time>2026-04-22T14:37:24.999Z</time></trkpt><trkpt lat="35.015060393889684" lon="-6.188540278953715"><ele>53.0</ele><time>2026-04-22T14:37:25.999Z</time></trkpt><trkpt lat="35.01477428010483" lon="-6.188601420915268"><ele>52.5</ele><time>2026-04-22T14:37:26.999Z</time></trkpt><trkpt lat="35.014486317630116" lon="-6.188655850152298"><ele>52.0</ele><time>2026-04-22T14:37:27.999Z</time></trkpt><trkpt lat="35.01419879360808" lon="-6.188711180739392"><ele>53.5</ele><time>2026-04-22T14:37:28.999Z</time></trkpt><trkpt lat="35.013910126728405" lon="-6.188767419327825"><ele>55.0</ele><time>2026-04-22T14:37:29.999Z</time></trkpt><trkpt lat="35.01362198989193" lon="-6.188826792848081"><ele>55.0</ele><time>2026-04-22T14:37:30.999Z</time></trkpt><trkpt lat="35.01333355233628" lon="-6.188885695603407"><ele>55.0</ele><time>2026-04-22T14:37:31.999Z</time></trkpt><trkpt lat="35.013047397299765" lon="-6.18894765697047"><ele>54.5</ele><time>2026-04-22T14:37:32.999Z</time></trkpt><trkpt lat="35.01275873477902" lon="-6.18901241421922"><ele>54.0</ele><time>2026-04-22T14:37:33.999Z</time></trkpt><trkpt lat="35.01247265169456" lon="-6.1890810529733455"><ele>54.0</ele><time>2026-04-22T14:37:34.999Z</time></trkpt><trkpt lat="35.01218553818506" lon="-6.189149448434761"><ele>54.0</ele><time>2026-04-22T14:37:35.999Z</time></trkpt><trkpt lat="35.01189928433242" lon="-6.189220654698991"><ele>54.5</ele><time>2026-04-22T14:37:36.999Z</time></trkpt><trkpt lat="35.01161284132373" lon="-6.189293113361369"><ele>55.0</ele><time>2026-04-22T14:37:37.999Z</time></trkpt><trkpt lat="35.01132724176832" lon="-6.189368712584686"><ele>55.0</ele><time>2026-04-22T14:37:38.999Z</time></trkpt><trkpt lat="35.011042303413085" lon="-6.189445047863212"><ele>55.0</ele><time>2026-04-22T14:37:39.999Z</time></trkpt><trkpt lat="35.0107570571305" lon="-6.189523809970588"><ele>54.5</ele><time>2026-04-22T14:37:40.999Z</time></trkpt><trkpt lat="35.010474218346005" lon="-6.189602817351145"><ele>54.0</ele><time>2026-04-22T14:37:41.999Z</time></trkpt><trkpt lat="35.010190918749004" lon="-6.189689329098709"><ele>54.0</ele><time>2026-04-22T14:37:42.999Z</time></trkpt><trkpt lat="35.009911377009885" lon="-6.189777302248424"><ele>54.0</ele><time>2026-04-22T14:37:43.999Z</time></trkpt><trkpt lat="35.00963137790087" lon="-6.1898703114899165"><ele>54.0</ele><time>2026-04-22T14:37:44.999Z</time></trkpt><trkpt lat="35.00935187880861" lon="-6.189961733560084"><ele>54.0</ele><time>2026-04-22T14:37:45.999Z</time></trkpt><trkpt lat="35.00907258218145" lon="-6.190057661547555"><ele>54.5</ele><time>2026-04-22T14:37:46.999Z</time></trkpt><trkpt lat="35.0087962251964" lon="-6.190159453005634"><ele>55.0</ele><time>2026-04-22T14:37:47.999Z</time></trkpt><trkpt lat="35.00852250567367" lon="-6.190265916629412"><ele>55.0</ele><time>2026-04-22T14:37:48.999Z</time></trkpt><trkpt lat="35.00824747832958" lon="-6.1903731961678"><ele>55.0</ele><time>2026-04-22T14:37:49.999Z</time></trkpt><trkpt lat="35.007972695835065" lon="-6.190480488548684"><ele>55.0</ele><time>2026-04-22T14:37:50.999Z</time></trkpt><trkpt lat="35.00769660216616" lon="-6.190594085211932"><ele>55.0</ele><time>2026-04-22T14:37:51.999Z</time></trkpt><trkpt lat="35.00742157283027" lon="-6.190706580558384"><ele>56.5</ele><time>2026-04-22T14:37:52.999Z</time></trkpt><trkpt lat="35.00714651781837" lon="-6.190820059624024"><ele>58.0</ele><time>2026-04-22T14:37:53.999Z</time></trkpt><trkpt lat="35.006869725651775" lon="-6.1909352072661274"><ele>57.5</ele><time>2026-04-22T14:37:54.999Z</time></trkpt><trkpt lat="35.00659619143915" lon="-6.19105340883338"><ele>57.0</ele><time>2026-04-22T14:37:55.999Z</time></trkpt><trkpt lat="35.00632287627331" lon="-6.191173161328953"><ele>57.0</ele><time>2026-04-22T14:37:56.999Z</time></trkpt><trkpt lat="35.006049619917036" lon="-6.191297727380114"><ele>57.0</ele><time>2026-04-22T14:37:57.999Z</time></trkpt><trkpt lat="35.00577749187927" lon="-6.1914242393652765"><ele>58.0</ele><time>2026-04-22T14:37:58.999Z</time></trkpt><trkpt lat="35.005504826789156" lon="-6.191553508744048"><ele>59.0</ele><time>2026-04-22T14:37:59.999Z</time></trkpt><trkpt lat="35.00523239227507" lon="-6.191684670651456"><ele>58.5</ele><time>2026-04-22T14:38:00.999Z</time></trkpt><trkpt lat="35.00496048948135" lon="-6.1918158984885725"><ele>58.0</ele><time>2026-04-22T14:38:01.999Z</time></trkpt><trkpt lat="35.00468917460207" lon="-6.19195054214678"><ele>58.0</ele><time>2026-04-22T14:38:02.999Z</time></trkpt><trkpt lat="35.00441947599483" lon="-6.192083658819591"><ele>58.0</ele><time>2026-04-22T14:38:03.999Z</time></trkpt><trkpt lat="35.00415137440712" lon="-6.192226015927297"><ele>58.0</ele><time>2026-04-22T14:38:04.999Z</time></trkpt><trkpt lat="35.00388374962633" lon="-6.192372605757478"><ele>58.0</ele><time>2026-04-22T14:38:05.999Z</time></trkpt><trkpt lat="35.003617809263595" lon="-6.1925180395701735"><ele>58.0</ele><time>2026-04-22T14:38:06.999Z</time></trkpt><trkpt lat="35.003352758472076" lon="-6.192665727321095"><ele>58.0</ele><time>2026-04-22T14:38:07.999Z</time></trkpt><trkpt lat="35.003087802400174" lon="-6.192816191460337"><ele>58.0</ele><time>2026-04-22T14:38:08.999Z</time></trkpt><trkpt lat="35.00281986220815" lon="-6.192960995950119"><ele>58.0</ele><time>2026-04-22T14:38:09.999Z</time></trkpt><trkpt lat="35.00255345179047" lon="-6.193103194393247"><ele>57.5</ele><time>2026-04-22T14:38:10.999Z</time></trkpt><trkpt lat="35.002288158852814" lon="-6.193248371534689"><ele>57.0</ele><time>2026-04-22T14:38:11.999Z</time></trkpt><trkpt lat="35.00202127382148" lon="-6.193395634943092"><ele>57.0</ele><time>2026-04-22T14:38:12.999Z</time></trkpt><trkpt lat="35.0017550982453" lon="-6.193540467268201"><ele>57.0</ele><time>2026-04-22T14:38:13.999Z</time></trkpt><trkpt lat="35.001487825532216" lon="-6.193683978339898"><ele>56.0</ele><time>2026-04-22T14:38:14.999Z</time></trkpt><trkpt lat="35.00122006420996" lon="-6.193826933359932"><ele>55.0</ele><time>2026-04-22T14:38:15.999Z</time></trkpt><trkpt lat="35.00095225199663" lon="-6.193970385345484"><ele>54.5</ele><time>2026-04-22T14:38:16.999Z</time></trkpt><trkpt lat="35.00068574904385" lon="-6.194115051792921"><ele>54.0</ele><time>2026-04-22T14:38:17.999Z</time></trkpt><trkpt lat="35.00041822580394" lon="-6.19425982498366"><ele>54.0</ele><time>2026-04-22T14:38:19Z</time></trkpt><trkpt lat="35.00015251789434" lon="-6.194404021139104"><ele>54.0</ele><time>2026-04-22T14:38:20Z</time></trkpt><trkpt lat="34.99988558573573" lon="-6.194547756322557"><ele>54.0</ele><time>2026-04-22T14:38:21Z</time></trkpt><trkpt lat="34.999620970682294" lon="-6.194694102443819"><ele>54.0</ele><time>2026-04-22T14:38:22Z</time></trkpt><trkpt lat="34.999351741400446" lon="-6.194833345402537"><ele>52.5</ele><time>2026-04-22T14:38:23Z</time></trkpt><trkpt lat="34.99908452155143" lon="-6.194970692396408"><ele>51.0</ele><time>2026-04-22T14:38:24Z</time></trkpt><trkpt lat="34.99881494312056" lon="-6.195105497712477"><ele>51.0</ele><time>2026-04-22T14:38:25Z</time></trkpt><trkpt lat="34.998545726596284" lon="-6.1952402692521895"><ele>51.0</ele><time>2026-04-22T14:38:26Z</time></trkpt><trkpt lat="34.99827586796875" lon="-6.19537076144084"><ele>50.0</ele><time>2026-04-22T14:38:27Z</time></trkpt><trkpt lat="34.998005101548536" lon="-6.1954972400204875"><ele>49.0</ele><time>2026-04-22T14:38:28Z</time></trkpt><trkpt lat="34.9977322285671" lon="-6.195625894672706"><ele>47.5</ele><time>2026-04-22T14:38:29Z</time></trkpt><trkpt lat="34.9974592506702" lon="-6.195748605313149"><ele>46.0</ele><time>2026-04-22T14:38:30Z</time></trkpt><trkpt lat="34.99718575255626" lon="-6.195870314098474"><ele>46.0</ele><time>2026-04-22T14:38:31Z</time></trkpt><trkpt lat="34.99691091286841" lon="-6.195985762488096"><ele>46.0</ele><time>2026-04-22T14:38:32Z</time></trkpt><trkpt lat="34.99663623367879" lon="-6.196099445109208"><ele>45.5</ele><time>2026-04-22T14:38:33Z</time></trkpt><trkpt lat="34.996360224460545" lon="-6.196212842724223"><ele>45.0</ele><time>2026-04-22T14:38:34Z</time></trkpt><trkpt lat="34.996083226129706" lon="-6.19632183971819"><ele>45.5</ele><time>2026-04-22T14:38:35Z</time></trkpt><trkpt lat="34.995805017577815" lon="-6.1964280705582135"><ele>46.0</ele><time>2026-04-22T14:38:36Z</time></trkpt><trkpt lat="34.995528043326885" lon="-6.1965313582001516"><ele>46.0</ele><time>2026-04-22T14:38:37Z</time></trkpt><trkpt lat="34.99524871231186" lon="-6.1966360689760185"><ele>46.0</ele><time>2026-04-22T14:38:38Z</time></trkpt><trkpt lat="34.99497194694544" lon="-6.196743497422328"><ele>47.0</ele><time>2026-04-22T14:38:39Z</time></trkpt><trkpt lat="34.99469434367197" lon="-6.1968511507343225"><ele>48.0</ele><time>2026-04-22T14:38:40Z</time></trkpt><trkpt lat="34.99441535951892" lon="-6.196951732236209"><ele>47.5</ele><time>2026-04-22T14:38:41Z</time></trkpt><trkpt lat="34.99413817168126" lon="-6.197054041310939"><ele>47.0</ele><time>2026-04-22T14:38:42Z</time></trkpt><trkpt lat="34.99385926145639" lon="-6.197153968359038"><ele>47.0</ele><time>2026-04-22T14:38:43Z</time></trkpt><trkpt lat="34.993579748065144" lon="-6.197255886576617"><ele>47.0</ele><time>2026-04-22T14:38:44Z</time></trkpt><trkpt lat="34.993302063139176" lon="-6.197358290181921"><ele>45.0</ele><time>2026-04-22T14:38:45Z</time></trkpt><trkpt lat="34.99302397084448" lon="-6.197463262498664"><ele>43.0</ele><time>2026-04-22T14:38:46Z</time></trkpt><trkpt lat="34.99274655435689" lon="-6.197568449200415"><ele>41.0</ele><time>2026-04-22T14:38:47Z</time></trkpt><trkpt lat="34.9924679839698" lon="-6.19767377235737"><ele>39.0</ele><time>2026-04-22T14:38:48Z</time></trkpt><trkpt lat="34.99219104088858" lon="-6.1977821477069845"><ele>39.0</ele><time>2026-04-22T14:38:49Z</time></trkpt><trkpt lat="34.991916756502924" lon="-6.197896774693647"><ele>39.0</ele><time>2026-04-22T14:38:50Z</time></trkpt><trkpt lat="34.99164086714386" lon="-6.198009979171166"><ele>38.0</ele><time>2026-04-22T14:38:51Z</time></trkpt><trkpt lat="34.99136463901492" lon="-6.198115391918409"><ele>37.0</ele><time>2026-04-22T14:38:52Z</time></trkpt><trkpt lat="34.99108910390301" lon="-6.19821808348516"><ele>40.0</ele><time>2026-04-22T14:38:53Z</time></trkpt><trkpt lat="34.990813326093864" lon="-6.198323503077505"><ele>43.0</ele><time>2026-04-22T14:38:54Z</time></trkpt><trkpt lat="34.990538433014216" lon="-6.198431635651105"><ele>43.0</ele><time>2026-04-22T14:38:55Z</time></trkpt><trkpt lat="34.99026335406725" lon="-6.198542448027019"><ele>43.0</ele><time>2026-04-22T14:38:56Z</time></trkpt><trkpt lat="34.98998637524637" lon="-6.198650474319533"><ele>44.5</ele><time>2026-04-22T14:38:57Z</time></trkpt><trkpt lat="34.98970937933479" lon="-6.198754939253692"><ele>46.0</ele><time>2026-04-22T14:38:58Z</time></trkpt><trkpt lat="34.98943171838219" lon="-6.19885483121671"><ele>47.0</ele><time>2026-04-22T14:38:59Z</time></trkpt><trkpt lat="34.989152653490656" lon="-6.198947716911575"><ele>48.0</ele><time>2026-04-22T14:39:00Z</time></trkpt><trkpt lat="34.988871899457884" lon="-6.199033495432665"><ele>48.0</ele><time>2026-04-22T14:39:01Z</time></trkpt><trkpt lat="34.98858852316794" lon="-6.199109035081638"><ele>48.0</ele><time>2026-04-22T14:39:02Z</time></trkpt><trkpt lat="34.98830369130314" lon="-6.19917847799686"><ele>47.0</ele><time>2026-04-22T14:39:03Z</time></trkpt><trkpt lat="34.988018709116275" lon="-6.199244820899389"><ele>46.0</ele><time>2026-04-22T14:39:04Z</time></trkpt><trkpt lat="34.987732062599534" lon="-6.199307206540649"><ele>45.5</ele><time>2026-04-22T14:39:05Z</time></trkpt><trkpt lat="34.987445516440445" lon="-6.199369671367898"><ele>45.0</ele><time>2026-04-22T14:39:06Z</time></trkpt><trkpt lat="34.98715899640332" lon="-6.19943095782483"><ele>45.0</ele><time>2026-04-22T14:39:07Z</time></trkpt><trkpt lat="34.986872968085535" lon="-6.199488132961929"><ele>45.0</ele><time>2026-04-22T14:39:08Z</time></trkpt><trkpt lat="34.986585377902465" lon="-6.199543305289911"><ele>44.5</ele><time>2026-04-22T14:39:09Z</time></trkpt><trkpt lat="34.9862959031893" lon="-6.199590586708862"><ele>44.0</ele><time>2026-04-22T14:39:10Z</time></trkpt><trkpt lat="34.98600753884617" lon="-6.19962430858933"><ele>44.0</ele><time>2026-04-22T14:39:11Z</time></trkpt><trkpt lat="34.98571882332512" lon="-6.199644959058023"><ele>44.0</ele><time>2026-04-22T14:39:12Z</time></trkpt><trkpt lat="34.9854281716883" lon="-6.199662549017226"><ele>44.0</ele><time>2026-04-22T14:39:13Z</time></trkpt><trkpt lat="34.98513755819272" lon="-6.199672196163549"><ele>44.0</ele><time>2026-04-22T14:39:14Z</time></trkpt><trkpt lat="34.984847642505464" lon="-6.199679293298876"><ele>44.5</ele><time>2026-04-22T14:39:15Z</time></trkpt><trkpt lat="34.98455594461239" lon="-6.199684327578712"><ele>45.0</ele><time>2026-04-22T14:39:16Z</time></trkpt><trkpt lat="34.98426548302392" lon="-6.199680462752186"><ele>45.0</ele><time>2026-04-22T14:39:17Z</time></trkpt><trkpt lat="34.98397391250877" lon="-6.199672699114377"><ele>45.0</ele><time>2026-04-22T14:39:18Z</time></trkpt><trkpt lat="34.98368381799966" lon="-6.199660089793331"><ele>45.0</ele><time>2026-04-22T14:39:19Z</time></trkpt><trkpt lat="34.98339389955437" lon="-6.199644771013165"><ele>45.0</ele><time>2026-04-22T14:39:20Z</time></trkpt><trkpt lat="34.98310162832391" lon="-6.199631045744179"><ele>44.5</ele><time>2026-04-22T14:39:20.999Z</time></trkpt><trkpt lat="34.98281000145278" lon="-6.199615993911519"><ele>44.0</ele><time>2026-04-22T14:39:21.999Z</time></trkpt><trkpt lat="34.9825197168104" lon="-6.199605162924895"><ele>43.5</ele><time>2026-04-22T14:39:22.999Z</time></trkpt><trkpt lat="34.98222869645926" lon="-6.199589864309428"><ele>43.0</ele><time>2026-04-22T14:39:23.999Z</time></trkpt><trkpt lat="34.98193613525444" lon="-6.199576928027277"><ele>43.5</ele><time>2026-04-22T14:39:24.999Z</time></trkpt><trkpt lat="34.98164676308487" lon="-6.199564105005254"><ele>44.0</ele><time>2026-04-22T14:39:25.999Z</time></trkpt><trkpt lat="34.98135508442231" lon="-6.19955167511046"><ele>44.0</ele><time>2026-04-22T14:39:26.999Z</time></trkpt><trkpt lat="34.98106494075663" lon="-6.199542715535282"><ele>44.0</ele><time>2026-04-22T14:39:27.999Z</time></trkpt><trkpt lat="34.980772685751006" lon="-6.199530989529014"><ele>44.0</ele><time>2026-04-22T14:39:28.999Z</time></trkpt><trkpt lat="34.980480297222655" lon="-6.199519920757894"><ele>44.0</ele><time>2026-04-22T14:39:29.999Z</time></trkpt><trkpt lat="34.9801898643275" lon="-6.199508415388011"><ele>44.0</ele><time>2026-04-22T14:39:30.999Z</time></trkpt><trkpt lat="34.97989957322863" lon="-6.199498080264236"><ele>44.0</ele><time>2026-04-22T14:39:31.999Z</time></trkpt><trkpt lat="34.979607750866876" lon="-6.199486948453918"><ele>44.0</ele><time>2026-04-22T14:39:32.999Z</time></trkpt><trkpt lat="34.97931672630608" lon="-6.1994758714377864"><ele>44.0</ele><time>2026-04-22T14:39:33.999Z</time></trkpt><trkpt lat="34.97902472414531" lon="-6.1994632682008435"><ele>45.5</ele><time>2026-04-22T14:39:34.999Z</time></trkpt><trkpt lat="34.9787353179035" lon="-6.199449690653415"><ele>47.0</ele><time>2026-04-22T14:39:35.999Z</time></trkpt><trkpt lat="34.978444247447484" lon="-6.199436349883698"><ele>46.0</ele><time>2026-04-22T14:39:36.999Z</time></trkpt><trkpt lat="34.97815260581605" lon="-6.19942211141423"><ele>45.0</ele><time>2026-04-22T14:39:37.999Z</time></trkpt><trkpt lat="34.97786286191056" lon="-6.199412627472292"><ele>45.0</ele><time>2026-04-22T14:39:38.999Z</time></trkpt><trkpt lat="34.97757220601106" lon="-6.19940190994444"><ele>45.0</ele><time>2026-04-22T14:39:39.999Z</time></trkpt><trkpt lat="34.97727993741659" lon="-6.199394692274951"><ele>45.5</ele><time>2026-04-22T14:39:40.999Z</time></trkpt><trkpt lat="34.97698822861931" lon="-6.199390845823697"><ele>46.0</ele><time>2026-04-22T14:39:41.999Z</time></trkpt><trkpt lat="34.97669718375525" lon="-6.199387463717405"><ele>47.0</ele><time>2026-04-22T14:39:42.999Z</time></trkpt><trkpt lat="34.97640716710752" lon="-6.199384004341577"><ele>48.0</ele><time>2026-04-22T14:39:43.999Z</time></trkpt><trkpt lat="34.97611663095714" lon="-6.199391045927829"><ele>47.0</ele><time>2026-04-22T14:39:44.999Z</time></trkpt><trkpt lat="34.97583215398777" lon="-6.19941071248831"><ele>46.0</ele><time>2026-04-22T14:39:45.999Z</time></trkpt><trkpt lat="34.97553784661847" lon="-6.199406459250069"><ele>46.0</ele><time>2026-04-22T14:39:46.999Z</time></trkpt><trkpt lat="34.975248016946445" lon="-6.199416516254899"><ele>46.0</ele><time>2026-04-22T14:39:47.999Z</time></trkpt><trkpt lat="34.97495760124979" lon="-6.199428388162915"><ele>47.0</ele><time>2026-04-22T14:39:48.999Z</time></trkpt><trkpt lat="34.974667172234135" lon="-6.199441863811028"><ele>48.0</ele><time>2026-04-22T14:39:49.999Z</time></trkpt><trkpt lat="34.974377006471364" lon="-6.199458463874568"><ele>48.0</ele><time>2026-04-22T14:39:50.999Z</time></trkpt><trkpt lat="34.97408805979465" lon="-6.1994782679951355"><ele>48.0</ele><time>2026-04-22T14:39:51.999Z</time></trkpt><trkpt lat="34.97379970748686" lon="-6.199501345321074"><ele>48.0</ele><time>2026-04-22T14:39:52.999Z</time></trkpt><trkpt lat="34.9735114840819" lon="-6.199527854973071"><ele>48.0</ele><time>2026-04-22T14:39:53.999Z</time></trkpt><trkpt lat="34.973222872387076" lon="-6.199555433014627"><ele>48.0</ele><time>2026-04-22T14:39:54.999Z</time></trkpt><trkpt lat="34.97293220466759" lon="-6.199582829901499"><ele>48.0</ele><time>2026-04-22T14:39:55.999Z</time></trkpt><trkpt lat="34.972641799527345" lon="-6.19961061675854"><ele>48.0</ele><time>2026-04-22T14:39:56.999Z</time></trkpt><trkpt lat="34.97235182852178" lon="-6.199640533318118"><ele>48.0</ele><time>2026-04-22T14:39:57.999Z</time></trkpt><trkpt lat="34.972062265611875" lon="-6.199670643477452"><ele>48.0</ele><time>2026-04-22T14:39:58.999Z</time></trkpt><trkpt lat="34.97177365032294" lon="-6.199698177460818"><ele>48.0</ele><time>2026-04-22T14:39:59.999Z</time></trkpt><trkpt lat="34.97148489225522" lon="-6.199723950602379"><ele>49.5</ele><time>2026-04-22T14:40:00.999Z</time></trkpt><trkpt lat="34.97119577635518" lon="-6.199752167031555"><ele>51.0</ele><time>2026-04-22T14:40:01.999Z</time></trkpt><trkpt lat="34.97090697376467" lon="-6.199784092680372"><ele>51.0</ele><time>2026-04-22T14:40:02.999Z</time></trkpt><trkpt lat="34.970617939800555" lon="-6.199814597055936"><ele>51.0</ele><time>2026-04-22T14:40:03.999Z</time></trkpt><trkpt lat="34.970328330348686" lon="-6.199843613267261"><ele>51.0</ele><time>2026-04-22T14:40:04.999Z</time></trkpt><trkpt lat="34.97003853662512" lon="-6.199871409828204"><ele>51.0</ele><time>2026-04-22T14:40:05.999Z</time></trkpt><trkpt lat="34.9697495601521" lon="-6.199904994181092"><ele>52.0</ele><time>2026-04-22T14:40:06.999Z</time></trkpt><trkpt lat="34.969460934344426" lon="-6.199939658532759"><ele>53.0</ele><time>2026-04-22T14:40:07.999Z</time></trkpt><trkpt lat="34.96917225415243" lon="-6.19997021855828"><ele>53.5</ele><time>2026-04-22T14:40:08.999Z</time></trkpt><trkpt lat="34.968883119134794" lon="-6.200001036839224"><ele>54.0</ele><time>2026-04-22T14:40:09.999Z</time></trkpt><trkpt lat="34.96859258759179" lon="-6.200033001143013"><ele>55.0</ele><time>2026-04-22T14:40:10.999Z</time></trkpt><trkpt lat="34.968302776807185" lon="-6.200065024342419"><ele>56.0</ele><time>2026-04-22T14:40:11.999Z</time></trkpt><trkpt lat="34.968012263292906" lon="-6.200095664211936"><ele>56.0</ele><time>2026-04-22T14:40:12.999Z</time></trkpt><trkpt lat="34.96772128526424" lon="-6.20012545581852"><ele>56.0</ele><time>2026-04-22T14:40:13.999Z</time></trkpt><trkpt lat="34.967431874225504" lon="-6.2001527271878825"><ele>55.5</ele><time>2026-04-22T14:40:14.999Z</time></trkpt><trkpt lat="34.96714073997722" lon="-6.200178202570808"><ele>55.0</ele><time>2026-04-22T14:40:15.999Z</time></trkpt><trkpt lat="34.96684885780759" lon="-6.2002051439658175"><ele>56.0</ele><time>2026-04-22T14:40:16.999Z</time></trkpt><trkpt lat="34.96655700807177" lon="-6.200234006161344"><ele>57.0</ele><time>2026-04-22T14:40:17.999Z</time></trkpt><trkpt lat="34.966264483527446" lon="-6.200263952053066"><ele>57.0</ele><time>2026-04-22T14:40:18.999Z</time></trkpt><trkpt lat="34.965972683662734" lon="-6.20029554433779"><ele>57.0</ele><time>2026-04-22T14:40:19.999Z</time></trkpt><trkpt lat="34.96568195378289" lon="-6.200326849949337"><ele>57.5</ele><time>2026-04-22T14:40:20.999Z</time></trkpt><trkpt lat="34.96539157204619" lon="-6.200358657159019"><ele>58.0</ele><time>2026-04-22T14:40:21.999Z</time></trkpt><trkpt lat="34.96510185093265" lon="-6.200388624218448"><ele>58.0</ele><time>2026-04-22T14:40:22.999Z</time></trkpt><trkpt lat="34.96481292931" lon="-6.200417493830493"><ele>58.0</ele><time>2026-04-22T14:40:23.999Z</time></trkpt><trkpt lat="34.964523685017355" lon="-6.2004470928653985"><ele>58.0</ele><time>2026-04-22T14:40:25Z</time></trkpt><trkpt lat="34.964234633747054" lon="-6.2004783445877525"><ele>58.0</ele><time>2026-04-22T14:40:26Z</time></trkpt><trkpt lat="34.96394627138167" lon="-6.200510150725553"><ele>58.0</ele><time>2026-04-22T14:40:27Z</time></trkpt><trkpt lat="34.963657959506655" lon="-6.200540212704339"><ele>58.0</ele><time>2026-04-22T14:40:28Z</time></trkpt><trkpt lat="34.96336975603429" lon="-6.200567917539357"><ele>60.0</ele><time>2026-04-22T14:40:29Z</time></trkpt><trkpt lat="34.9630823062525" lon="-6.200594640802817"><ele>62.0</ele><time>2026-04-22T14:40:30Z</time></trkpt><trkpt lat="34.96279299679291" lon="-6.200622778752626"><ele>63.0</ele><time>2026-04-22T14:40:31Z</time></trkpt><trkpt lat="34.96250258085408" lon="-6.200652064500704"><ele>64.0</ele><time>2026-04-22T14:40:32Z</time></trkpt><trkpt lat="34.96221251047959" lon="-6.200682175312524"><ele>64.0</ele><time>2026-04-22T14:40:33Z</time></trkpt><trkpt lat="34.96192265212339" lon="-6.2007105030218"><ele>64.0</ele><time>2026-04-22T14:40:34Z</time></trkpt><trkpt lat="34.96163197855656" lon="-6.200739378657394"><ele>64.5</ele><time>2026-04-22T14:40:35Z</time></trkpt><trkpt lat="34.961341889513875" lon="-6.200768707799817"><ele>65.0</ele><time>2026-04-22T14:40:36Z</time></trkpt><trkpt lat="34.96105066782529" lon="-6.200798668043598"><ele>66.0</ele><time>2026-04-22T14:40:37Z</time></trkpt><trkpt lat="34.96075896736536" lon="-6.200830854997913"><ele>67.0</ele><time>2026-04-22T14:40:38Z</time></trkpt><trkpt lat="34.96046736689029" lon="-6.200861822237978"><ele>67.0</ele><time>2026-04-22T14:40:39Z</time></trkpt><trkpt lat="34.96017606032297" lon="-6.2008873263711815"><ele>67.0</ele><time>2026-04-22T14:40:40Z</time></trkpt><trkpt lat="34.95988482001762" lon="-6.200913412733092"><ele>67.0</ele><time>2026-04-22T14:40:41Z</time></trkpt><trkpt lat="34.959593965351935" lon="-6.2009416155159585"><ele>67.0</ele><time>2026-04-22T14:40:42Z</time></trkpt><trkpt lat="34.95930338687362" lon="-6.200973459970571"><ele>67.0</ele><time>2026-04-22T14:40:43Z</time></trkpt><trkpt lat="34.95901284512086" lon="-6.201000249699307"><ele>67.0</ele><time>2026-04-22T14:40:44Z</time></trkpt><trkpt lat="34.9587216932338" lon="-6.201030845463835"><ele>67.0</ele><time>2026-04-22T14:40:45Z</time></trkpt><trkpt lat="34.95843098005369" lon="-6.201062712287883"><ele>67.0</ele><time>2026-04-22T14:40:46Z</time></trkpt><trkpt lat="34.95814048694005" lon="-6.201090823764336"><ele>68.0</ele><time>2026-04-22T14:40:47Z</time></trkpt><trkpt lat="34.95784971867382" lon="-6.201121167711737"><ele>69.0</ele><time>2026-04-22T14:40:48Z</time></trkpt><trkpt lat="34.957558921780986" lon="-6.201152407655825"><ele>69.0</ele><time>2026-04-22T14:40:49Z</time></trkpt><trkpt lat="34.957268141570516" lon="-6.201182269642671"><ele>69.0</ele><time>2026-04-22T14:40:50Z</time></trkpt><trkpt lat="34.95697685465409" lon="-6.201212286428761"><ele>69.0</ele><time>2026-04-22T14:40:51Z</time></trkpt><trkpt lat="34.95668537998917" lon="-6.201243391640806"><ele>69.0</ele><time>2026-04-22T14:40:52Z</time></trkpt><trkpt lat="34.956393662575394" lon="-6.20127342271355"><ele>69.0</ele><time>2026-04-22T14:40:53Z</time></trkpt><trkpt lat="34.95610255746773" lon="-6.201302869110883"><ele>69.0</ele><time>2026-04-22T14:40:54Z</time></trkpt><trkpt lat="34.95581203824836" lon="-6.201332524881202"><ele>70.0</ele><time>2026-04-22T14:40:55Z</time></trkpt><trkpt lat="34.95552400524897" lon="-6.2013640404900805"><ele>71.0</ele><time>2026-04-22T14:40:56Z</time></trkpt><trkpt lat="34.95523585923037" lon="-6.20139423909282"><ele>70.5</ele><time>2026-04-22T14:40:57Z</time></trkpt><trkpt lat="34.95494705566163" lon="-6.201424664022238"><ele>70.0</ele><time>2026-04-22T14:40:58Z</time></trkpt><trkpt lat="34.954658938731434" lon="-6.201455158781828"><ele>70.0</ele><time>2026-04-22T14:40:59Z</time></trkpt><trkpt lat="34.954368550725206" lon="-6.2014843202947505"><ele>70.0</ele><time>2026-04-22T14:41:00Z</time></trkpt><trkpt lat="34.95407924493543" lon="-6.201511734409722"><ele>70.5</ele><time>2026-04-22T14:41:01Z</time></trkpt><trkpt lat="34.95378963301254" lon="-6.201542899697403"><ele>71.0</ele><time>2026-04-22T14:41:02Z</time></trkpt><trkpt lat="34.95349956214416" lon="-6.201574958829357"><ele>72.0</ele><time>2026-04-22T14:41:03Z</time></trkpt><trkpt lat="34.953210707384315" lon="-6.201602227834069"><ele>73.0</ele><time>2026-04-22T14:41:04Z</time></trkpt><trkpt lat="34.95292209385859" lon="-6.201635453911281"><ele>73.0</ele><time>2026-04-22T14:41:05Z</time></trkpt><trkpt lat="34.952632951500775" lon="-6.201665853784716"><ele>73.0</ele><time>2026-04-22T14:41:06Z</time></trkpt><trkpt lat="34.952343468877665" lon="-6.201694791919396"><ele>73.5</ele><time>2026-04-22T14:41:07Z</time></trkpt><trkpt lat="34.95205413757613" lon="-6.201723448265234"><ele>74.0</ele><time>2026-04-22T14:41:08Z</time></trkpt><trkpt lat="34.95176479639003" lon="-6.20175032997873"><ele>74.5</ele><time>2026-04-22T14:41:09Z</time></trkpt><trkpt lat="34.95147636228788" lon="-6.2017788279103545"><ele>75.0</ele><time>2026-04-22T14:41:10Z</time></trkpt><trkpt lat="34.95118537778084" lon="-6.201807405628526"><ele>75.0</ele><time>2026-04-22T14:41:11Z</time></trkpt><trkpt lat="34.95089427288196" lon="-6.201839272957326"><ele>75.0</ele><time>2026-04-22T14:41:12Z</time></trkpt><trkpt lat="34.95060451079218" lon="-6.201866802802748"><ele>76.5</ele><time>2026-04-22T14:41:13Z</time></trkpt><trkpt lat="34.95031499690516" lon="-6.201888326170994"><ele>78.0</ele><time>2026-04-22T14:41:14Z</time></trkpt><trkpt lat="34.95002631410188" lon="-6.201912259175175"><ele>78.5</ele><time>2026-04-22T14:41:15Z</time></trkpt><trkpt lat="34.949735858431424" lon="-6.20193823913428"><ele>79.0</ele><time>2026-04-22T14:41:16Z</time></trkpt><trkpt lat="34.94944748488629" lon="-6.201969461013765"><ele>79.5</ele><time>2026-04-22T14:41:17Z</time></trkpt><trkpt lat="34.949158573367434" lon="-6.201998163971704"><ele>80.0</ele><time>2026-04-22T14:41:18Z</time></trkpt><trkpt lat="34.948870480114" lon="-6.202028181816197"><ele>80.0</ele><time>2026-04-22T14:41:19Z</time></trkpt><trkpt lat="34.94858148571386" lon="-6.202060964046449"><ele>80.0</ele><time>2026-04-22T14:41:20Z</time></trkpt><trkpt lat="34.94829096175626" lon="-6.20208333441192"><ele>79.0</ele><time>2026-04-22T14:41:21Z</time></trkpt><trkpt lat="34.948002123364354" lon="-6.202101034388042"><ele>78.0</ele><time>2026-04-22T14:41:22Z</time></trkpt><trkpt lat="34.947711990707674" lon="-6.202121014352094"><ele>78.5</ele><time>2026-04-22T14:41:23Z</time></trkpt><trkpt lat="34.94741980909821" lon="-6.202145436194491"><ele>79.0</ele><time>2026-04-22T14:41:23.999Z</time></trkpt><trkpt lat="34.94712853684048" lon="-6.202172566394071"><ele>79.0</ele><time>2026-04-22T14:41:24.999Z</time></trkpt><trkpt lat="34.9468372726214" lon="-6.202202309636634"><ele>79.0</ele><time>2026-04-22T14:41:25.999Z</time></trkpt><trkpt lat="34.94654659119853" lon="-6.202234634255727"><ele>79.0</ele><time>2026-04-22T14:41:26.999Z</time></trkpt><trkpt lat="34.94625429535795" lon="-6.2022667086014"><ele>79.0</ele><time>2026-04-22T14:41:27.999Z</time></trkpt><trkpt lat="34.945962220249925" lon="-6.202295923317656"><ele>79.0</ele><time>2026-04-22T14:41:28.999Z</time></trkpt><trkpt lat="34.94567261917411" lon="-6.202323004823913"><ele>79.0</ele><time>2026-04-22T14:41:29.999Z</time></trkpt><trkpt lat="34.945382635825645" lon="-6.202350354972477"><ele>79.0</ele><time>2026-04-22T14:41:30.999Z</time></trkpt><trkpt lat="34.94509324763302" lon="-6.202381466826901"><ele>79.0</ele><time>2026-04-22T14:41:31.999Z</time></trkpt><trkpt lat="34.9448044776512" lon="-6.2024128546503805"><ele>79.5</ele><time>2026-04-22T14:41:32.999Z</time></trkpt><trkpt lat="34.94451664042993" lon="-6.20244492069207"><ele>80.0</ele><time>2026-04-22T14:41:33.999Z</time></trkpt><trkpt lat="34.94422891371357" lon="-6.202478873066073"><ele>79.5</ele><time>2026-04-22T14:41:34.999Z</time></trkpt><trkpt lat="34.943940549094464" lon="-6.202514451776072"><ele>79.0</ele><time>2026-04-22T14:41:35.999Z</time></trkpt><trkpt lat="34.94365203026191" lon="-6.202549529464976"><ele>80.0</ele><time>2026-04-22T14:41:36.999Z</time></trkpt><trkpt lat="34.94336366062496" lon="-6.202583722909731"><ele>81.0</ele><time>2026-04-22T14:41:37.999Z</time></trkpt><trkpt lat="34.94307541667352" lon="-6.2026148314756195"><ele>81.0</ele><time>2026-04-22T14:41:38.999Z</time></trkpt><trkpt lat="34.94278656845421" lon="-6.202641680456512"><ele>81.0</ele><time>2026-04-22T14:41:39.999Z</time></trkpt><trkpt lat="34.94249712038694" lon="-6.202664761986037"><ele>82.0</ele><time>2026-04-22T14:41:40.999Z</time></trkpt><trkpt lat="34.942207124453155" lon="-6.202682319541113"><ele>83.0</ele><time>2026-04-22T14:41:41.999Z</time></trkpt><trkpt lat="34.941916081079235" lon="-6.202694068121778"><ele>83.0</ele><time>2026-04-22T14:41:42.999Z</time></trkpt><trkpt lat="34.94162644077954" lon="-6.2027030495831355"><ele>83.0</ele><time>2026-04-22T14:41:43.999Z</time></trkpt><trkpt lat="34.94133563781033" lon="-6.202706330403844"><ele>83.0</ele><time>2026-04-22T14:41:44.999Z</time></trkpt><trkpt lat="34.94104575901199" lon="-6.202705846530746"><ele>83.0</ele><time>2026-04-22T14:41:45.999Z</time></trkpt><trkpt lat="34.9407560753062" lon="-6.202702291055839"><ele>81.5</ele><time>2026-04-22T14:41:46.999Z</time></trkpt><trkpt lat="34.94046672386002" lon="-6.202696556184791"><ele>80.0</ele><time>2026-04-22T14:41:47.999Z</time></trkpt><trkpt lat="34.94017683121974" lon="-6.202687590447307"><ele>81.5</ele><time>2026-04-22T14:41:48.999Z</time></trkpt><trkpt lat="34.9398864643508" lon="-6.202673946258218"><ele>83.0</ele><time>2026-04-22T14:41:49.999Z</time></trkpt><trkpt lat="34.93959618301631" lon="-6.202657403844077"><ele>83.0</ele><time>2026-04-22T14:41:50.999Z</time></trkpt><trkpt lat="34.93930592682688" lon="-6.202639273888385"><ele>83.0</ele><time>2026-04-22T14:41:51.999Z</time></trkpt><trkpt lat="34.939014821543566" lon="-6.2026156366355485"><ele>83.0</ele><time>2026-04-22T14:41:52.999Z</time></trkpt><trkpt lat="34.93872482222414" lon="-6.202591898938835"><ele>83.0</ele><time>2026-04-22T14:41:53.999Z</time></trkpt><trkpt lat="34.938435413933696" lon="-6.202565159468985"><ele>84.0</ele><time>2026-04-22T14:41:54.999Z</time></trkpt><trkpt lat="34.9381447587762" lon="-6.202544788282978"><ele>85.0</ele><time>2026-04-22T14:41:55.999Z</time></trkpt><trkpt lat="34.93785431606682" lon="-6.202521161925696"><ele>85.0</ele><time>2026-04-22T14:41:56.999Z</time></trkpt><trkpt lat="34.93756143180595" lon="-6.202506466744511"><ele>85.0</ele><time>2026-04-22T14:41:57.999Z</time></trkpt><trkpt lat="34.93726835003391" lon="-6.202488212403903"><ele>84.5</ele><time>2026-04-22T14:41:58.999Z</time></trkpt><trkpt lat="34.93697557665318" lon="-6.202471355642653"><ele>84.0</ele><time>2026-04-22T14:41:59.999Z</time></trkpt><trkpt lat="34.936684313510554" lon="-6.20245068612124"><ele>85.5</ele><time>2026-04-22T14:42:00.999Z</time></trkpt><trkpt lat="34.936393190050424" lon="-6.202433063596519"><ele>87.0</ele><time>2026-04-22T14:42:01.999Z</time></trkpt><trkpt lat="34.93610110243521" lon="-6.202413462377891"><ele>89.0</ele><time>2026-04-22T14:42:02.999Z</time></trkpt><trkpt lat="34.935809152979765" lon="-6.202396376578951"><ele>91.0</ele><time>2026-04-22T14:42:03.999Z</time></trkpt><trkpt lat="34.935518885556306" lon="-6.202381512816762"><ele>91.0</ele><time>2026-04-22T14:42:04.999Z</time></trkpt><trkpt lat="34.935229124057116" lon="-6.202364700191118"><ele>91.0</ele><time>2026-04-22T14:42:05.999Z</time></trkpt><trkpt lat="34.934936951842936" lon="-6.202348434783951"><ele>91.0</ele><time>2026-04-22T14:42:06.999Z</time></trkpt><trkpt lat="34.934646362082056" lon="-6.202331464489245"><ele>91.0</ele><time>2026-04-22T14:42:07.999Z</time></trkpt><trkpt lat="34.934354635610035" lon="-6.202313237585782"><ele>89.5</ele><time>2026-04-22T14:42:08.999Z</time></trkpt><trkpt lat="34.934062990772745" lon="-6.202300390438462"><ele>88.0</ele><time>2026-04-22T14:42:09.999Z</time></trkpt><trkpt lat="34.93377182936733" lon="-6.202294280774784"><ele>88.0</ele><time>2026-04-22T14:42:10.999Z</time></trkpt><trkpt lat="34.9334793214899" lon="-6.202288422512213"><ele>88.0</ele><time>2026-04-22T14:42:11.999Z</time></trkpt><trkpt lat="34.93318634653403" lon="-6.202287219255208"><ele>88.5</ele><time>2026-04-22T14:42:12.999Z</time></trkpt><trkpt lat="34.932894057252966" lon="-6.20228728802862"><ele>89.0</ele><time>2026-04-22T14:42:13.999Z</time></trkpt><trkpt lat="34.93260179972194" lon="-6.2022904929779274"><ele>90.0</ele><time>2026-04-22T14:42:14.999Z</time></trkpt><trkpt lat="34.932310826588086" lon="-6.202302919953071"><ele>91.0</ele><time>2026-04-22T14:42:15.999Z</time></trkpt><trkpt lat="34.932019421411816" lon="-6.202314482039466"><ele>89.5</ele><time>2026-04-22T14:42:16.999Z</time></trkpt><trkpt lat="34.93172844692134" lon="-6.20233184899748"><ele>88.0</ele><time>2026-04-22T14:42:17.999Z</time></trkpt><trkpt lat="34.931435996626405" lon="-6.202355292748505"><ele>87.5</ele><time>2026-04-22T14:42:18.999Z</time></trkpt><trkpt lat="34.93114531238921" lon="-6.20238127422915"><ele>87.0</ele><time>2026-04-22T14:42:19.999Z</time></trkpt><trkpt lat="34.93085343082665" lon="-6.202405361598246"><ele>87.0</ele><time>2026-04-22T14:42:20.999Z</time></trkpt><trkpt lat="34.930561693650795" lon="-6.2024363023703515"><ele>87.0</ele><time>2026-04-22T14:42:21.999Z</time></trkpt><trkpt lat="34.93027005478671" lon="-6.202475141134201"><ele>86.0</ele><time>2026-04-22T14:42:22.999Z</time></trkpt><trkpt lat="34.929977194681896" lon="-6.202510852426903"><ele>85.0</ele><time>2026-04-22T14:42:23.999Z</time></trkpt><trkpt lat="34.92968535363408" lon="-6.202545192957116"><ele>85.0</ele><time>2026-04-22T14:42:24.999Z</time></trkpt><trkpt lat="34.92939416086331" lon="-6.2025820748991585"><ele>85.0</ele><time>2026-04-22T14:42:25.999Z</time></trkpt><trkpt lat="34.929102939052214" lon="-6.202620014678699"><ele>84.5</ele><time>2026-04-22T14:42:26.999Z</time></trkpt><trkpt lat="34.92881335689517" lon="-6.2026534393363635"><ele>84.0</ele><time>2026-04-22T14:42:27.999Z</time></trkpt><trkpt lat="34.928523722204936" lon="-6.202687619680566"><ele>82.0</ele><time>2026-04-22T14:42:28.999Z</time></trkpt><trkpt lat="34.92823456416127" lon="-6.202717282018675"><ele>80.0</ele><time>2026-04-22T14:42:29.999Z</time></trkpt><trkpt lat="34.927944645500446" lon="-6.2027525202850535"><ele>80.0</ele><time>2026-04-22T14:42:31Z</time></trkpt><trkpt lat="34.92765543715014" lon="-6.202788771048862"><ele>80.0</ele><time>2026-04-22T14:42:32Z</time></trkpt><trkpt lat="34.92736472711675" lon="-6.202824465848782"><ele>80.0</ele><time>2026-04-22T14:42:33Z</time></trkpt><trkpt lat="34.92707452931021" lon="-6.202859527873732"><ele>80.0</ele><time>2026-04-22T14:42:34Z</time></trkpt><trkpt lat="34.92678704491228" lon="-6.202893568198406"><ele>78.0</ele><time>2026-04-22T14:42:35Z</time></trkpt><trkpt lat="34.92649923737062" lon="-6.202927200443008"><ele>76.0</ele><time>2026-04-22T14:42:36Z</time></trkpt><trkpt lat="34.92620901136327" lon="-6.202964604484661"><ele>76.0</ele><time>2026-04-22T14:42:37Z</time></trkpt><trkpt lat="34.92591660982559" lon="-6.202999297251998"><ele>76.0</ele><time>2026-04-22T14:42:38Z</time></trkpt><trkpt lat="34.92562660555514" lon="-6.20303229032692"><ele>74.5</ele><time>2026-04-22T14:42:39Z</time></trkpt><trkpt lat="34.92533598497431" lon="-6.203065844174172"><ele>73.0</ele><time>2026-04-22T14:42:40Z</time></trkpt><trkpt lat="34.92504444077766" lon="-6.203101712092235"><ele>72.5</ele><time>2026-04-22T14:42:41Z</time></trkpt><trkpt lat="34.92475282184231" lon="-6.203134090756126"><ele>72.0</ele><time>2026-04-22T14:42:42Z</time></trkpt><trkpt lat="34.924461394600115" lon="-6.20317015475892"><ele>70.0</ele><time>2026-04-22T14:42:43Z</time></trkpt><trkpt lat="34.92417105603972" lon="-6.203205959648834"><ele>68.0</ele><time>2026-04-22T14:42:44Z</time></trkpt><trkpt lat="34.923881760140645" lon="-6.203239866285378"><ele>68.0</ele><time>2026-04-22T14:42:45Z</time></trkpt><trkpt lat="34.92359203731822" lon="-6.203275862507597"><ele>68.0</ele><time>2026-04-22T14:42:46Z</time></trkpt><trkpt lat="34.923301863071856" lon="-6.203309713534348"><ele>68.0</ele><time>2026-04-22T14:42:47Z</time></trkpt><trkpt lat="34.923011926705186" lon="-6.20334477346958"><ele>68.0</ele><time>2026-04-22T14:42:48Z</time></trkpt><trkpt lat="34.9227203655909" lon="-6.203384422287758"><ele>67.0</ele><time>2026-04-22T14:42:49Z</time></trkpt><trkpt lat="34.92242770117124" lon="-6.203417340728287"><ele>66.0</ele><time>2026-04-22T14:42:50Z</time></trkpt><trkpt lat="34.92213503077104" lon="-6.203452332445628"><ele>66.0</ele><time>2026-04-22T14:42:51Z</time></trkpt><trkpt lat="34.921845382248904" lon="-6.203486281197335"><ele>66.0</ele><time>2026-04-22T14:42:52Z</time></trkpt><trkpt lat="34.92155706205159" lon="-6.203524431957746"><ele>64.5</ele><time>2026-04-22T14:42:53Z</time></trkpt><trkpt lat="34.921269068176464" lon="-6.203566085196589"><ele>63.0</ele><time>2026-04-22T14:42:54Z</time></trkpt><trkpt lat="34.9209834170698" lon="-6.203611767156246"><ele>62.5</ele><time>2026-04-22T14:42:55Z</time></trkpt><trkpt lat="34.92069789202435" lon="-6.203654266892435"><ele>62.0</ele><time>2026-04-22T14:42:56Z</time></trkpt><trkpt lat="34.9204101267688" lon="-6.203703861868211"><ele>62.0</ele><time>2026-04-22T14:42:57Z</time></trkpt><trkpt lat="34.92012256934274" lon="-6.203759869003129"><ele>62.0</ele><time>2026-04-22T14:42:58Z</time></trkpt><trkpt lat="34.91983763215317" lon="-6.203817310403421"><ele>62.0</ele><time>2026-04-22T14:42:59Z</time></trkpt><trkpt lat="34.91955195944687" lon="-6.203876519730548"><ele>62.0</ele><time>2026-04-22T14:43:00Z</time></trkpt><trkpt lat="34.919264623132065" lon="-6.203937944008394"><ele>61.5</ele><time>2026-04-22T14:43:01Z</time></trkpt><trkpt lat="34.91897913385076" lon="-6.2040044571359765"><ele>61.0</ele><time>2026-04-22T14:43:02Z</time></trkpt><trkpt lat="34.91869175994364" lon="-6.204073428161894"><ele>61.0</ele><time>2026-04-22T14:43:03Z</time></trkpt><trkpt lat="34.91840569512141" lon="-6.204142286938241"><ele>61.0</ele><time>2026-04-22T14:43:04Z</time></trkpt><trkpt lat="34.91811916651268" lon="-6.2042158402275485"><ele>60.0</ele><time>2026-04-22T14:43:05Z</time></trkpt><trkpt lat="34.91783514311656" lon="-6.2042911358865265"><ele>59.0</ele><time>2026-04-22T14:43:06Z</time></trkpt><trkpt lat="34.91755139216515" lon="-6.204366831310556"><ele>58.5</ele><time>2026-04-22T14:43:07Z</time></trkpt><trkpt lat="34.917268311834704" lon="-6.204444256592074"><ele>58.0</ele><time>2026-04-22T14:43:08Z</time></trkpt><trkpt lat="34.91698599000281" lon="-6.204526069659023"><ele>58.5</ele><time>2026-04-22T14:43:09Z</time></trkpt><trkpt lat="34.916703251660486" lon="-6.204608263599784"><ele>59.0</ele><time>2026-04-22T14:43:10Z</time></trkpt><trkpt lat="34.916420994089336" lon="-6.204691663364858"><ele>59.0</ele><time>2026-04-22T14:43:11Z</time></trkpt><trkpt lat="34.91613879680694" lon="-6.204772695224565"><ele>59.0</ele><time>2026-04-22T14:43:12Z</time></trkpt><trkpt lat="34.91585741608411" lon="-6.204857963813809"><ele>58.0</ele><time>2026-04-22T14:43:13Z</time></trkpt><trkpt lat="34.91557833372333" lon="-6.204945438436862"><ele>57.0</ele><time>2026-04-22T14:43:14Z</time></trkpt><trkpt lat="34.915297607099696" lon="-6.205032718389887"><ele>55.5</ele><time>2026-04-22T14:43:15Z</time></trkpt><trkpt lat="34.91501762254247" lon="-6.20512231163072"><ele>54.0</ele><time>2026-04-22T14:43:16Z</time></trkpt><trkpt lat="34.9147362195451" lon="-6.20521198490689"><ele>54.0</ele><time>2026-04-22T14:43:17Z</time></trkpt><trkpt lat="34.91445611041739" lon="-6.2053011483696565"><ele>54.0</ele><time>2026-04-22T14:43:18Z</time></trkpt><trkpt lat="34.914175265929394" lon="-6.205387324254881"><ele>54.0</ele><time>2026-04-22T14:43:19Z</time></trkpt><trkpt lat="34.913894457347915" lon="-6.205473236105538"><ele>54.0</ele><time>2026-04-22T14:43:20Z</time></trkpt><trkpt lat="34.91361431873331" lon="-6.205559931264029"><ele>54.0</ele><time>2026-04-22T14:43:21Z</time></trkpt><trkpt lat="34.91333268890206" lon="-6.205648018539119"><ele>54.0</ele><time>2026-04-22T14:43:22Z</time></trkpt><trkpt lat="34.913051642576626" lon="-6.20573604518931"><ele>52.5</ele><time>2026-04-22T14:43:23Z</time></trkpt><trkpt lat="34.912770179702974" lon="-6.205823685017051"><ele>51.0</ele><time>2026-04-22T14:43:24Z</time></trkpt><trkpt lat="34.91248884059068" lon="-6.205911123874013"><ele>51.0</ele><time>2026-04-22T14:43:25Z</time></trkpt><trkpt lat="34.91220492285685" lon="-6.2059955851525475"><ele>51.0</ele><time>2026-04-22T14:43:26Z</time></trkpt><trkpt lat="34.9119228260944" lon="-6.20608317846984"><ele>51.0</ele><time>2026-04-22T14:43:27Z</time></trkpt><trkpt lat="34.91163905979943" lon="-6.206173540145703"><ele>51.0</ele><time>2026-04-22T14:43:28Z</time></trkpt><trkpt lat="34.911355971240845" lon="-6.206264669040731"><ele>51.0</ele><time>2026-04-22T14:43:29Z</time></trkpt><trkpt lat="34.911072120851" lon="-6.206354392493338"><ele>51.0</ele><time>2026-04-22T14:43:30Z</time></trkpt><trkpt lat="34.910790010224055" lon="-6.2064426505014705"><ele>51.5</ele><time>2026-04-22T14:43:31Z</time></trkpt><trkpt lat="34.910508769043766" lon="-6.206530157865605"><ele>52.0</ele><time>2026-04-22T14:43:32Z</time></trkpt><trkpt lat="34.910228966690475" lon="-6.206613246072403"><ele>51.5</ele><time>2026-04-22T14:43:33Z</time></trkpt><trkpt lat="34.90994869130684" lon="-6.206697822500016"><ele>51.0</ele><time>2026-04-22T14:43:33.999Z</time></trkpt><trkpt lat="34.9096692918238" lon="-6.206782885669774"><ele>51.0</ele><time>2026-04-22T14:43:34.999Z</time></trkpt><trkpt lat="34.90939079327772" lon="-6.206871133185291"><ele>51.0</ele><time>2026-04-22T14:43:35.999Z</time></trkpt><trkpt lat="34.9091101519535" lon="-6.2069556533395005"><ele>50.0</ele><time>2026-04-22T14:43:36.999Z</time></trkpt><trkpt lat="34.90883095007032" lon="-6.207042582023223"><ele>49.0</ele><time>2026-04-22T14:43:37.999Z</time></trkpt><trkpt lat="34.90855187866597" lon="-6.207129707937461"><ele>48.5</ele><time>2026-04-22T14:43:38.999Z</time></trkpt><trkpt lat="34.90827144024131" lon="-6.207215090602559"><ele>48.0</ele><time>2026-04-22T14:43:39.999Z</time></trkpt><trkpt lat="34.907991144714806" lon="-6.20730198607514"><ele>47.5</ele><time>2026-04-22T14:43:40.999Z</time></trkpt><trkpt lat="34.90770945085101" lon="-6.207388533788226"><ele>47.0</ele><time>2026-04-22T14:43:41.999Z</time></trkpt><trkpt lat="34.907427776197174" lon="-6.207475980845612"><ele>46.5</ele><time>2026-04-22T14:43:42.999Z</time></trkpt><trkpt lat="34.90714528720483" lon="-6.207559998522018"><ele>46.0</ele><time>2026-04-22T14:43:43.999Z</time></trkpt><trkpt lat="34.9068645200406" lon="-6.207650260642797"><ele>46.5</ele><time>2026-04-22T14:43:44.999Z</time></trkpt><trkpt lat="34.90658167430421" lon="-6.207737105313809"><ele>47.0</ele><time>2026-04-22T14:43:45.999Z</time></trkpt><trkpt lat="34.90629914690227" lon="-6.207824581937242"><ele>47.0</ele><time>2026-04-22T14:43:46.999Z</time></trkpt><trkpt lat="34.906015524089" lon="-6.207906343863879"><ele>47.0</ele><time>2026-04-22T14:43:47.999Z</time></trkpt><trkpt lat="34.905731820230066" lon="-6.207988179971212"><ele>46.5</ele><time>2026-04-22T14:43:48.999Z</time></trkpt><trkpt lat="34.90544628579706" lon="-6.208067801271683"><ele>46.0</ele><time>2026-04-22T14:43:49.999Z</time></trkpt><trkpt lat="34.90516112499348" lon="-6.2081445629598155"><ele>45.0</ele><time>2026-04-22T14:43:50.999Z</time></trkpt><trkpt lat="34.904875727101896" lon="-6.20821617772532"><ele>44.0</ele><time>2026-04-22T14:43:51.999Z</time></trkpt><trkpt lat="34.90458943259461" lon="-6.208286488407778"><ele>44.0</ele><time>2026-04-22T14:43:52.999Z</time></trkpt><trkpt lat="34.904302790631924" lon="-6.208355245581939"><ele>44.0</ele><time>2026-04-22T14:43:53.999Z</time></trkpt><trkpt lat="34.90401453050829" lon="-6.208420081616115"><ele>43.5</ele><time>2026-04-22T14:43:54.999Z</time></trkpt><trkpt lat="34.903725796943576" lon="-6.208479753936695"><ele>43.0</ele><time>2026-04-22T14:43:55.999Z</time></trkpt><trkpt lat="34.90343689418119" lon="-6.208540489746469"><ele>42.0</ele><time>2026-04-22T14:43:56.999Z</time></trkpt><trkpt lat="34.90314513622301" lon="-6.208594123351894"><ele>41.0</ele><time>2026-04-22T14:43:57.999Z</time></trkpt><trkpt lat="34.90285372555732" lon="-6.208644606645298"><ele>41.0</ele><time>2026-04-22T14:43:58.999Z</time></trkpt><trkpt lat="34.90256408893953" lon="-6.208694348234371"><ele>41.0</ele><time>2026-04-22T14:43:59.999Z</time></trkpt><trkpt lat="34.902273678651824" lon="-6.208746386339939"><ele>41.0</ele><time>2026-04-22T14:44:00.999Z</time></trkpt><trkpt lat="34.90198309334996" lon="-6.208796629501194"><ele>41.0</ele><time>2026-04-22T14:44:01.999Z</time></trkpt><trkpt lat="34.90169546257461" lon="-6.208844768690433"><ele>40.5</ele><time>2026-04-22T14:44:02.999Z</time></trkpt><trkpt lat="34.9014136580461" lon="-6.208887245510343"><ele>40.0</ele><time>2026-04-22T14:44:03.999Z</time></trkpt><trkpt lat="34.90113945955328" lon="-6.208929277268604"><ele>39.5</ele><time>2026-04-22T14:44:04.999Z</time></trkpt><trkpt lat="34.90087259448739" lon="-6.208968492874449"><ele>39.0</ele><time>2026-04-22T14:44:05.999Z</time></trkpt><trkpt lat="34.90061441350365" lon="-6.2089977221769725"><ele>39.0</ele><time>2026-04-22T14:44:06.999Z</time></trkpt><trkpt lat="34.90036428954502" lon="-6.2090300617564385"><ele>39.0</ele><time>2026-04-22T14:44:07.999Z</time></trkpt><trkpt lat="34.900120671764924" lon="-6.209062318889025"><ele>39.0</ele><time>2026-04-22T14:44:08.999Z</time></trkpt><trkpt lat="34.89988301638368" lon="-6.20909151510462"><ele>39.0</ele><time>2026-04-22T14:44:09.999Z</time></trkpt><trkpt lat="34.899650044351205" lon="-6.2091159083981715"><ele>39.0</ele><time>2026-04-22T14:44:10.999Z</time></trkpt><trkpt lat="34.8994185697247" lon="-6.209141941037847"><ele>39.0</ele><time>2026-04-22T14:44:11.999Z</time></trkpt><trkpt lat="34.89919084400279" lon="-6.209167102138197"><ele>38.666666666666664</ele><time>2026-04-22T14:44:12.999Z</time></trkpt><trkpt lat="34.89896846350149" lon="-6.20918910346126"><ele>38.33333333333333</ele><time>2026-04-22T14:44:13.999Z</time></trkpt><trkpt lat="34.898747755857194" lon="-6.209211775055287"><ele>38.0</ele><time>2026-04-22T14:44:14.999Z</time></trkpt><trkpt lat="34.89852838389875" lon="-6.20923654157522"><ele>38.33333333333333</ele><time>2026-04-22T14:44:15.999Z</time></trkpt><trkpt lat="34.898310741319854" lon="-6.20926137862273"><ele>38.666666666666664</ele><time>2026-04-22T14:44:16.999Z</time></trkpt><trkpt lat="34.898094272997696" lon="-6.209281680560875"><ele>39.0</ele><time>2026-04-22T14:44:17.999Z</time></trkpt><trkpt lat="34.89787930310375" lon="-6.209305430234141"><ele>39.0</ele><time>2026-04-22T14:44:18.999Z</time></trkpt><trkpt lat="34.89766541029689" lon="-6.209329896459076"><ele>39.0</ele><time>2026-04-22T14:44:19.999Z</time></trkpt><trkpt lat="34.89745067808104" lon="-6.209354438156963"><ele>39.0</ele><time>2026-04-22T14:44:20.999Z</time></trkpt><trkpt lat="34.89723814515524" lon="-6.2093778168437535"><ele>39.0</ele><time>2026-04-22T14:44:21.999Z</time></trkpt><trkpt lat="34.89702217737552" lon="-6.209400564843685"><ele>39.0</ele><time>2026-04-22T14:44:22.999Z</time></trkpt><trkpt lat="34.89679410486589" lon="-6.209424268529508"><ele>39.0</ele><time>2026-04-22T14:44:23.999Z</time></trkpt><trkpt lat="34.89655637506674" lon="-6.2094491982290885"><ele>38.0</ele><time>2026-04-22T14:44:24.999Z</time></trkpt><trkpt lat="34.89630699759847" lon="-6.20947472591307"><ele>37.0</ele><time>2026-04-22T14:44:25.999Z</time></trkpt><trkpt lat="34.89604725530823" lon="-6.209502729640987"><ele>37.0</ele><time>2026-04-22T14:44:26.999Z</time></trkpt><trkpt lat="34.895775948357006" lon="-6.209529881385282"><ele>37.0</ele><time>2026-04-22T14:44:27.999Z</time></trkpt><trkpt lat="34.89549702942307" lon="-6.20956069241727"><ele>37.0</ele><time>2026-04-22T14:44:28.999Z</time></trkpt><trkpt lat="34.89521730702524" lon="-6.20958524913416"><ele>37.0</ele><time>2026-04-22T14:44:29.999Z</time></trkpt><trkpt lat="34.89492887135695" lon="-6.209608061201507"><ele>36.5</ele><time>2026-04-22T14:44:30.999Z</time></trkpt><trkpt lat="34.89464387968494" lon="-6.209638968376054"><ele>36.0</ele><time>2026-04-22T14:44:31.999Z</time></trkpt><trkpt lat="34.89435564753659" lon="-6.20967437265465"><ele>36.0</ele><time>2026-04-22T14:44:32.999Z</time></trkpt><trkpt lat="34.89406596739646" lon="-6.209712940951932"><ele>36.0</ele><time>2026-04-22T14:44:33.999Z</time></trkpt><trkpt lat="34.89377545546885" lon="-6.209750965096605"><ele>36.0</ele><time>2026-04-22T14:44:34.999Z</time></trkpt><trkpt lat="34.8934848144119" lon="-6.209787024566579"><ele>36.0</ele><time>2026-04-22T14:44:35.999Z</time></trkpt><trkpt lat="34.89319376003003" lon="-6.209821173865365"><ele>37.0</ele><time>2026-04-22T14:44:37Z</time></trkpt><trkpt lat="34.89290307477434" lon="-6.209852941165328"><ele>38.0</ele><time>2026-04-22T14:44:38Z</time></trkpt><trkpt lat="34.8926125398039" lon="-6.209882891794471"><ele>39.5</ele><time>2026-04-22T14:44:39Z</time></trkpt><trkpt lat="34.89232137935219" lon="-6.209913735125733"><ele>41.0</ele><time>2026-04-22T14:44:40Z</time></trkpt><trkpt lat="34.892030321529106" lon="-6.209945676656178"><ele>41.5</ele><time>2026-04-22T14:44:41Z</time></trkpt><trkpt lat="34.89173906007808" lon="-6.209977658656448"><ele>42.0</ele><time>2026-04-22T14:44:42Z</time></trkpt><trkpt lat="34.89144667838195" lon="-6.210010275504407"><ele>42.0</ele><time>2026-04-22T14:44:43Z</time></trkpt><trkpt lat="34.89115302910298" lon="-6.2100438987005475"><ele>42.0</ele><time>2026-04-22T14:44:44Z</time></trkpt><trkpt lat="34.890861519621744" lon="-6.2100776089576994"><ele>41.5</ele><time>2026-04-22T14:44:45Z</time></trkpt><trkpt lat="34.890570134568286" lon="-6.21010913762938"><ele>41.0</ele><time>2026-04-22T14:44:46Z</time></trkpt><trkpt lat="34.89027918512959" lon="-6.210138975405692"><ele>40.5</ele><time>2026-04-22T14:44:47Z</time></trkpt><trkpt lat="34.88998917102188" lon="-6.210170377976509"><ele>40.0</ele><time>2026-04-22T14:44:48Z</time></trkpt><trkpt lat="34.889700769549776" lon="-6.210202621983254"><ele>40.0</ele><time>2026-04-22T14:44:49Z</time></trkpt><trkpt lat="34.88941087509134" lon="-6.210233713815062"><ele>40.0</ele><time>2026-04-22T14:44:50Z</time></trkpt><trkpt lat="34.889122263908625" lon="-6.210263755294949"><ele>39.5</ele><time>2026-04-22T14:44:51Z</time></trkpt><trkpt lat="34.88883263863206" lon="-6.210293607344256"><ele>39.0</ele><time>2026-04-22T14:44:52Z</time></trkpt><trkpt lat="34.8885427270105" lon="-6.210323364923479"><ele>37.0</ele><time>2026-04-22T14:44:53Z</time></trkpt><trkpt lat="34.88825325550794" lon="-6.21035274507785"><ele>35.0</ele><time>2026-04-22T14:44:54Z</time></trkpt><trkpt lat="34.88796415786733" lon="-6.210382804826298"><ele>35.0</ele><time>2026-04-22T14:44:55Z</time></trkpt><trkpt lat="34.88767387189062" lon="-6.210410722657028"><ele>35.0</ele><time>2026-04-22T14:44:56Z</time></trkpt><trkpt lat="34.88738381869982" lon="-6.210439437542974"><ele>33.0</ele><time>2026-04-22T14:44:57Z</time></trkpt><trkpt lat="34.88709319523508" lon="-6.210470432899726"><ele>31.0</ele><time>2026-04-22T14:44:58Z</time></trkpt><trkpt lat="34.88680277911858" lon="-6.210505179882984"><ele>31.5</ele><time>2026-04-22T14:44:59Z</time></trkpt><trkpt lat="34.88651170483979" lon="-6.210542658155974"><ele>32.0</ele><time>2026-04-22T14:45:00Z</time></trkpt><trkpt lat="34.8862211857189" lon="-6.210581807548105"><ele>32.0</ele><time>2026-04-22T14:45:01Z</time></trkpt><trkpt lat="34.88593118484605" lon="-6.210627348180639"><ele>32.0</ele><time>2026-04-22T14:45:02Z</time></trkpt><trkpt lat="34.88564395048634" lon="-6.210677518608417"><ele>32.0</ele><time>2026-04-22T14:45:03Z</time></trkpt><trkpt lat="34.88535592800923" lon="-6.2107271831819535"><ele>32.0</ele><time>2026-04-22T14:45:04Z</time></trkpt><trkpt lat="34.885069033175604" lon="-6.210777729887392"><ele>31.0</ele><time>2026-04-22T14:45:05Z</time></trkpt><trkpt lat="34.884780962220304" lon="-6.21083164016242"><ele>30.0</ele><time>2026-04-22T14:45:06Z</time></trkpt><trkpt lat="34.88449403541016" lon="-6.210888508348845"><ele>29.5</ele><time>2026-04-22T14:45:07Z</time></trkpt><trkpt lat="34.88420737480364" lon="-6.210948792883887"><ele>29.0</ele><time>2026-04-22T14:45:08Z</time></trkpt><trkpt lat="34.88392147044338" lon="-6.211012175697739"><ele>29.0</ele><time>2026-04-22T14:45:09Z</time></trkpt><trkpt lat="34.88363657208489" lon="-6.211081786409276"><ele>29.0</ele><time>2026-04-22T14:45:10Z</time></trkpt><trkpt lat="34.88335133471176" lon="-6.211150931197559"><ele>30.0</ele><time>2026-04-22T14:45:11Z</time></trkpt><trkpt lat="34.88306753349841" lon="-6.21122739555786"><ele>31.0</ele><time>2026-04-22T14:45:12Z</time></trkpt><trkpt lat="34.882784038509456" lon="-6.211305459921628"><ele>30.0</ele><time>2026-04-22T14:45:13Z</time></trkpt><trkpt lat="34.88250157804821" lon="-6.211390254932636"><ele>29.0</ele><time>2026-04-22T14:45:14Z</time></trkpt><trkpt lat="34.88222064785816" lon="-6.21147722717849"><ele>29.0</ele><time>2026-04-22T14:45:15Z</time></trkpt><trkpt lat="34.88193813732973" lon="-6.211570381394994"><ele>29.0</ele><time>2026-04-22T14:45:16Z</time></trkpt><trkpt lat="34.881656234039035" lon="-6.21166465236934"><ele>28.5</ele><time>2026-04-22T14:45:17Z</time></trkpt><trkpt lat="34.88137757778719" lon="-6.211758833949732"><ele>28.0</ele><time>2026-04-22T14:45:18Z</time></trkpt><trkpt lat="34.88109900007893" lon="-6.211855602575573"><ele>29.0</ele><time>2026-04-22T14:45:19Z</time></trkpt><trkpt lat="34.88082154895096" lon="-6.211958840126314"><ele>30.0</ele><time>2026-04-22T14:45:20Z</time></trkpt><trkpt lat="34.880544191667845" lon="-6.212065759491352"><ele>30.0</ele><time>2026-04-22T14:45:21Z</time></trkpt><trkpt lat="34.880267845270936" lon="-6.212173529999147"><ele>30.0</ele><time>2026-04-22T14:45:22Z</time></trkpt><trkpt lat="34.87999266288529" lon="-6.212287755047427"><ele>28.5</ele><time>2026-04-22T14:45:23Z</time></trkpt><trkpt lat="34.87971893770123" lon="-6.212405293816359"><ele>27.0</ele><time>2026-04-22T14:45:24Z</time></trkpt><trkpt lat="34.879446274456036" lon="-6.212520535396476"><ele>28.5</ele><time>2026-04-22T14:45:25Z</time></trkpt><trkpt lat="34.87917270385873" lon="-6.212640753642169"><ele>30.0</ele><time>2026-04-22T14:45:26Z</time></trkpt><trkpt lat="34.87890231200836" lon="-6.212765279747975"><ele>30.0</ele><time>2026-04-22T14:45:27Z</time></trkpt><trkpt lat="34.87863305221088" lon="-6.212893975316448"><ele>30.0</ele><time>2026-04-22T14:45:28Z</time></trkpt><trkpt lat="34.8783649580622" lon="-6.213027629887741"><ele>29.0</ele><time>2026-04-22T14:45:29Z</time></trkpt><trkpt lat="34.87809584690595" lon="-6.213159279645477"><ele>28.0</ele><time>2026-04-22T14:45:30Z</time></trkpt><trkpt lat="34.877826092855614" lon="-6.213292282229537"><ele>26.0</ele><time>2026-04-22T14:45:31Z</time></trkpt><trkpt lat="34.877559480488756" lon="-6.213430980966316"><ele>24.0</ele><time>2026-04-22T14:45:32Z</time></trkpt><trkpt lat="34.87729226767418" lon="-6.213573436895786"><ele>24.0</ele><time>2026-04-22T14:45:33Z</time></trkpt><trkpt lat="34.877025531703936" lon="-6.213714858138269"><ele>24.0</ele><time>2026-04-22T14:45:34Z</time></trkpt><trkpt lat="34.876758983665994" lon="-6.213855751838888"><ele>25.0</ele><time>2026-04-22T14:45:35Z</time></trkpt><trkpt lat="34.87649140825389" lon="-6.213999032666036"><ele>26.0</ele><time>2026-04-22T14:45:35.999Z</time></trkpt><trkpt lat="34.87622309187578" lon="-6.214138133027741"><ele>26.0</ele><time>2026-04-22T14:45:36.999Z</time></trkpt><trkpt lat="34.875954356605504" lon="-6.214277543917953"><ele>26.0</ele><time>2026-04-22T14:45:37.999Z</time></trkpt><trkpt lat="34.875685462825814" lon="-6.21441557913829"><ele>25.5</ele><time>2026-04-22T14:45:38.999Z</time></trkpt><trkpt lat="34.87541434747824" lon="-6.214551731226359"><ele>25.0</ele><time>2026-04-22T14:45:39.999Z</time></trkpt><trkpt lat="34.87514389607457" lon="-6.2146872347424305"><ele>23.5</ele><time>2026-04-22T14:45:40.999Z</time></trkpt><trkpt lat="34.87487451735086" lon="-6.21482648771795"><ele>22.0</ele><time>2026-04-22T14:45:41.999Z</time></trkpt><trkpt lat="34.87460514823486" lon="-6.214967359306001"><ele>22.0</ele><time>2026-04-22T14:45:42.999Z</time></trkpt><trkpt lat="34.8743351139428" lon="-6.215104803544498"><ele>22.0</ele><time>2026-04-22T14:45:43.999Z</time></trkpt><trkpt lat="34.87406605062513" lon="-6.215241765324225"><ele>23.0</ele><time>2026-04-22T14:45:44.999Z</time></trkpt><trkpt lat="34.873798854499114" lon="-6.215379156923063"><ele>24.0</ele><time>2026-04-22T14:45:45.999Z</time></trkpt><trkpt lat="34.87353088367783" lon="-6.215516948582441"><ele>21.5</ele><time>2026-04-22T14:45:46.999Z</time></trkpt><trkpt lat="34.87326308330864" lon="-6.215656361772301"><ele>19.0</ele><time>2026-04-22T14:45:47.999Z</time></trkpt><trkpt lat="34.87299628963676" lon="-6.215793551014469"><ele>19.0</ele><time>2026-04-22T14:45:48.999Z</time></trkpt><trkpt lat="34.8727279265338" lon="-6.215929291003719"><ele>19.0</ele><time>2026-04-22T14:45:49.999Z</time></trkpt><trkpt lat="34.872458958434486" lon="-6.216069881383191"><ele>20.5</ele><time>2026-04-22T14:45:50.999Z</time></trkpt><trkpt lat="34.8721915519857" lon="-6.21620952666297"><ele>22.0</ele><time>2026-04-22T14:45:51.999Z</time></trkpt><trkpt lat="34.8719260415007" lon="-6.216350354248866"><ele>21.5</ele><time>2026-04-22T14:45:52.999Z</time></trkpt><trkpt lat="34.87165905972326" lon="-6.216485838455744"><ele>21.0</ele><time>2026-04-22T14:45:53.999Z</time></trkpt><trkpt lat="34.871392083272085" lon="-6.2166241533782465"><ele>21.0</ele><time>2026-04-22T14:45:54.999Z</time></trkpt><trkpt lat="34.87112419248227" lon="-6.216766356902634"><ele>21.0</ele><time>2026-04-22T14:45:55.999Z</time></trkpt><trkpt lat="34.87085821050519" lon="-6.216907489522204"><ele>20.0</ele><time>2026-04-22T14:45:56.999Z</time></trkpt><trkpt lat="34.87059147930723" lon="-6.217046061567481"><ele>19.0</ele><time>2026-04-22T14:45:57.999Z</time></trkpt><trkpt lat="34.870325317711696" lon="-6.217186682581508"><ele>19.0</ele><time>2026-04-22T14:45:58.999Z</time></trkpt><trkpt lat="34.87005799403209" lon="-6.217325153802345"><ele>19.0</ele><time>2026-04-22T14:45:59.999Z</time></trkpt><trkpt lat="34.86979206614473" lon="-6.217463367666402"><ele>19.0</ele><time>2026-04-22T14:46:00.999Z</time></trkpt><trkpt lat="34.86952530759816" lon="-6.217603206646524"><ele>19.0</ele><time>2026-04-22T14:46:01.999Z</time></trkpt><trkpt lat="34.869260240726824" lon="-6.217743883713112"><ele>17.5</ele><time>2026-04-22T14:46:02.999Z</time></trkpt><trkpt lat="34.868992497500635" lon="-6.217882837275939"><ele>16.0</ele><time>2026-04-22T14:46:03.999Z</time></trkpt><trkpt lat="34.86872475302214" lon="-6.218019704941615"><ele>16.0</ele><time>2026-04-22T14:46:04.999Z</time></trkpt><trkpt lat="34.86845827968234" lon="-6.21815832536652"><ele>16.0</ele><time>2026-04-22T14:46:05.999Z</time></trkpt><trkpt lat="34.86819108992118" lon="-6.218297170669288"><ele>16.0</ele><time>2026-04-22T14:46:06.999Z</time></trkpt><trkpt lat="34.86792312532195" lon="-6.2184358061291665"><ele>16.0</ele><time>2026-04-22T14:46:07.999Z</time></trkpt><trkpt lat="34.867655452038555" lon="-6.218574259017065"><ele>15.5</ele><time>2026-04-22T14:46:08.999Z</time></trkpt><trkpt lat="34.867390850821145" lon="-6.218716617578229"><ele>15.0</ele><time>2026-04-22T14:46:09.999Z</time></trkpt><trkpt lat="34.86712330295264" lon="-6.218856909697604"><ele>15.5</ele><time>2026-04-22T14:46:10.999Z</time></trkpt><trkpt lat="34.866856128648216" lon="-6.218999093453278"><ele>16.0</ele><time>2026-04-22T14:46:11.999Z</time></trkpt><trkpt lat="34.866588017149205" lon="-6.219138433434577"><ele>16.0</ele><time>2026-04-22T14:46:12.999Z</time></trkpt><trkpt lat="34.86631880776266" lon="-6.2192804579748735"><ele>16.0</ele><time>2026-04-22T14:46:13.999Z</time></trkpt><trkpt lat="34.86605079672105" lon="-6.219419722686476"><ele>15.5</ele><time>2026-04-22T14:46:14.999Z</time></trkpt><trkpt lat="34.86578122090755" lon="-6.219556570415017"><ele>15.0</ele><time>2026-04-22T14:46:15.999Z</time></trkpt><trkpt lat="34.86551267968605" lon="-6.219695731268868"><ele>15.0</ele><time>2026-04-22T14:46:16.999Z</time></trkpt><trkpt lat="34.86524532972368" lon="-6.219836956561648"><ele>15.0</ele><time>2026-04-22T14:46:17.999Z</time></trkpt><trkpt lat="34.86497562566592" lon="-6.219975208914054"><ele>15.5</ele><time>2026-04-22T14:46:18.999Z</time></trkpt><trkpt lat="34.864705420506674" lon="-6.220103772318463"><ele>16.0</ele><time>2026-04-22T14:46:19.999Z</time></trkpt><trkpt lat="34.864437250349624" lon="-6.220239351014831"><ele>15.5</ele><time>2026-04-22T14:46:20.999Z</time></trkpt><trkpt lat="34.86416745874081" lon="-6.220373671620007"><ele>15.0</ele><time>2026-04-22T14:46:21.999Z</time></trkpt><trkpt lat="34.863896785929924" lon="-6.220503315982602"><ele>15.0</ele><time>2026-04-22T14:46:22.999Z</time></trkpt><trkpt lat="34.86362398246203" lon="-6.220632252029542"><ele>15.0</ele><time>2026-04-22T14:46:23.999Z</time></trkpt><trkpt lat="34.86335040297514" lon="-6.220758196828478"><ele>14.5</ele><time>2026-04-22T14:46:24.999Z</time></trkpt><trkpt lat="34.86307547363645" lon="-6.220875384595346"><ele>14.0</ele><time>2026-04-22T14:46:25.999Z</time></trkpt><trkpt lat="34.86280026970204" lon="-6.220996555816989"><ele>13.5</ele><time>2026-04-22T14:46:26.999Z</time></trkpt><trkpt lat="34.862524368056455" lon="-6.221110171705216"><ele>13.0</ele><time>2026-04-22T14:46:27.999Z</time></trkpt><trkpt lat="34.86224737230193" lon="-6.221223301735034"><ele>13.0</ele><time>2026-04-22T14:46:28.999Z</time></trkpt><trkpt lat="34.86197124285805" lon="-6.221337657888697"><ele>13.0</ele><time>2026-04-22T14:46:29.999Z</time></trkpt><trkpt lat="34.86169392261541" lon="-6.221453100028745"><ele>12.5</ele><time>2026-04-22T14:46:30.999Z</time></trkpt><trkpt lat="34.861415509816396" lon="-6.221558050580212"><ele>12.0</ele><time>2026-04-22T14:46:31.999Z</time></trkpt><trkpt lat="34.86113718863478" lon="-6.221660721467913"><ele>10.0</ele><time>2026-04-22T14:46:32.999Z</time></trkpt><trkpt lat="34.86085890096308" lon="-6.221761361492261"><ele>8.0</ele><time>2026-04-22T14:46:33.999Z</time></trkpt><trkpt lat="34.860582288399065" lon="-6.221863555855524"><ele>8.0</ele><time>2026-04-22T14:46:34.999Z</time></trkpt><trkpt lat="34.86030432449543" lon="-6.221961757758138"><ele>8.0</ele><time>2026-04-22T14:46:35.999Z</time></trkpt><trkpt lat="34.86002639558085" lon="-6.222058618928149"><ele>9.0</ele><time>2026-04-22T14:46:36.999Z</time></trkpt><trkpt lat="34.85974707360014" lon="-6.222154238147427"><ele>10.0</ele><time>2026-04-22T14:46:37.999Z</time></trkpt><trkpt lat="34.85946911625024" lon="-6.222248457067117"><ele>9.5</ele><time>2026-04-22T14:46:38.999Z</time></trkpt><trkpt lat="34.85918919348514" lon="-6.222334568837343"><ele>9.0</ele><time>2026-04-22T14:46:39.999Z</time></trkpt><trkpt lat="34.858911433160934" lon="-6.2224229624716285"><ele>9.0</ele><time>2026-04-22T14:46:40.999Z</time></trkpt><trkpt lat="34.85863033666189" lon="-6.22250521921777"><ele>9.0</ele><time>2026-04-22T14:46:41.999Z</time></trkpt><trkpt lat="34.85835059816441" lon="-6.222589373871882"><ele>8.0</ele><time>2026-04-22T14:46:43Z</time></trkpt><trkpt lat="34.85807044097172" lon="-6.222673755652409"><ele>7.0</ele><time>2026-04-22T14:46:44Z</time></trkpt><trkpt lat="34.85778951370155" lon="-6.222757372130155"><ele>7.0</ele><time>2026-04-22T14:46:45Z</time></trkpt><trkpt lat="34.85750662762176" lon="-6.2228354539953035"><ele>7.0</ele><time>2026-04-22T14:46:46Z</time></trkpt><trkpt lat="34.857223894719446" lon="-6.222909299832734"><ele>7.0</ele><time>2026-04-22T14:46:47Z</time></trkpt><trkpt lat="34.85693865886268" lon="-6.22297927120438"><ele>7.0</ele><time>2026-04-22T14:46:48Z</time></trkpt><trkpt lat="34.856653522586235" lon="-6.2230523091190975"><ele>6.5</ele><time>2026-04-22T14:46:49Z</time></trkpt><trkpt lat="34.85636767412547" lon="-6.223126098634433"><ele>6.0</ele><time>2026-04-22T14:46:50Z</time></trkpt><trkpt lat="34.85608070304009" lon="-6.223198147800187"><ele>6.5</ele><time>2026-04-22T14:46:51Z</time></trkpt><trkpt lat="34.855794527711616" lon="-6.223273424257048"><ele>7.0</ele><time>2026-04-22T14:46:52Z</time></trkpt><trkpt lat="34.855507584461826" lon="-6.223347969681126"><ele>7.0</ele><time>2026-04-22T14:46:53Z</time></trkpt><trkpt lat="34.85522306434652" lon="-6.223423028855463"><ele>7.0</ele><time>2026-04-22T14:46:54Z</time></trkpt><trkpt lat="34.85493753626385" lon="-6.223493982490286"><ele>7.0</ele><time>2026-04-22T14:46:55Z</time></trkpt><trkpt lat="34.85465148455145" lon="-6.2235680829019495"><ele>7.0</ele><time>2026-04-22T14:46:56Z</time></trkpt><trkpt lat="34.854367164173865" lon="-6.223639615901609"><ele>7.0</ele><time>2026-04-22T14:46:57Z</time></trkpt><trkpt lat="34.85408057835933" lon="-6.2237125466407015"><ele>7.0</ele><time>2026-04-22T14:46:58Z</time></trkpt><trkpt lat="34.85379473926807" lon="-6.223786282754976"><ele>7.0</ele><time>2026-04-22T14:46:59Z</time></trkpt><trkpt lat="34.85350932777525" lon="-6.223860856715754"><ele>7.0</ele><time>2026-04-22T14:47:00Z</time></trkpt><trkpt lat="34.85322211348908" lon="-6.223932370297502"><ele>7.0</ele><time>2026-04-22T14:47:01Z</time></trkpt><trkpt lat="34.85293678028974" lon="-6.224000582700792"><ele>7.0</ele><time>2026-04-22T14:47:02Z</time></trkpt><trkpt lat="34.85264843944446" lon="-6.224074360214382"><ele>8.5</ele><time>2026-04-22T14:47:03Z</time></trkpt><trkpt lat="34.85236431081119" lon="-6.224146869152899"><ele>10.0</ele><time>2026-04-22T14:47:04Z</time></trkpt><trkpt lat="34.85207842012132" lon="-6.224215213287361"><ele>10.0</ele><time>2026-04-22T14:47:05Z</time></trkpt><trkpt lat="34.851792524857935" lon="-6.224289177372103"><ele>10.0</ele><time>2026-04-22T14:47:06Z</time></trkpt><trkpt lat="34.85150936782726" lon="-6.224366912836803"><ele>10.0</ele><time>2026-04-22T14:47:07Z</time></trkpt><trkpt lat="34.851225234486954" lon="-6.2244424110602"><ele>10.0</ele><time>2026-04-22T14:47:08Z</time></trkpt><trkpt lat="34.85094190193847" lon="-6.224517789231463"><ele>10.0</ele><time>2026-04-22T14:47:09Z</time></trkpt><trkpt lat="34.850656933182535" lon="-6.22459156436644"><ele>10.0</ele><time>2026-04-22T14:47:10Z</time></trkpt><trkpt lat="34.8503725130268" lon="-6.224665952202443"><ele>9.5</ele><time>2026-04-22T14:47:11Z</time></trkpt><trkpt lat="34.85008724330852" lon="-6.224737970809856"><ele>9.0</ele><time>2026-04-22T14:47:12Z</time></trkpt><trkpt lat="34.849802867932766" lon="-6.224814519427335"><ele>9.0</ele><time>2026-04-22T14:47:13Z</time></trkpt><trkpt lat="34.84951840971045" lon="-6.224886526048298"><ele>9.0</ele><time>2026-04-22T14:47:14Z</time></trkpt><trkpt lat="34.849232948114214" lon="-6.224950358923457"><ele>10.0</ele><time>2026-04-22T14:47:15Z</time></trkpt><trkpt lat="34.84894520163815" lon="-6.225015002022846"><ele>11.0</ele><time>2026-04-22T14:47:16Z</time></trkpt><trkpt lat="34.848658852458996" lon="-6.225083168972626"><ele>10.0</ele><time>2026-04-22T14:47:17Z</time></trkpt><trkpt lat="34.84837381618731" lon="-6.225150647187057"><ele>9.0</ele><time>2026-04-22T14:47:18Z</time></trkpt><trkpt lat="34.84808658444949" lon="-6.2252162847020704"><ele>9.0</ele><time>2026-04-22T14:47:19Z</time></trkpt><trkpt lat="34.8478000239144" lon="-6.2252830297131085"><ele>9.0</ele><time>2026-04-22T14:47:20Z</time></trkpt><trkpt lat="34.84751490731672" lon="-6.2253546705912575"><ele>11.0</ele><time>2026-04-22T14:47:21Z</time></trkpt><trkpt lat="34.847229006427725" lon="-6.225426350598911"><ele>13.0</ele><time>2026-04-22T14:47:22Z</time></trkpt><trkpt lat="34.84694335963527" lon="-6.225495504181861"><ele>14.0</ele><time>2026-04-22T14:47:23Z</time></trkpt><trkpt lat="34.84665939558266" lon="-6.225567372256383"><ele>15.0</ele><time>2026-04-22T14:47:24Z</time></trkpt><trkpt lat="34.84637364506178" lon="-6.225640173607757"><ele>15.0</ele><time>2026-04-22T14:47:25Z</time></trkpt><trkpt lat="34.84608990111178" lon="-6.225713979541033"><ele>15.0</ele><time>2026-04-22T14:47:26Z</time></trkpt><trkpt lat="34.845806352288" lon="-6.225789212509035"><ele>15.0</ele><time>2026-04-22T14:47:27Z</time></trkpt><trkpt lat="34.845524766599326" lon="-6.225865948691643"><ele>15.0</ele><time>2026-04-22T14:47:28Z</time></trkpt><trkpt lat="34.84524108065064" lon="-6.225944074112386"><ele>15.0</ele><time>2026-04-22T14:47:29Z</time></trkpt><trkpt lat="34.84496164466838" lon="-6.226034117148243"><ele>15.0</ele><time>2026-04-22T14:47:30Z</time></trkpt><trkpt lat="34.84468022912706" lon="-6.226123231722231"><ele>15.0</ele><time>2026-04-22T14:47:31Z</time></trkpt><trkpt lat="34.84439908924941" lon="-6.226200974678776"><ele>15.0</ele><time>2026-04-22T14:47:32Z</time></trkpt><trkpt lat="34.84411728146324" lon="-6.2262729863715425"><ele>16.0</ele><time>2026-04-22T14:47:33Z</time></trkpt><trkpt lat="34.84383460366423" lon="-6.226344773382675"><ele>17.0</ele><time>2026-04-22T14:47:33.999Z</time></trkpt><trkpt lat="34.843551490542616" lon="-6.226417979656306"><ele>16.0</ele><time>2026-04-22T14:47:34.999Z</time></trkpt><trkpt lat="34.84326743342164" lon="-6.226489988873444"><ele>15.0</ele><time>2026-04-22T14:47:35.999Z</time></trkpt><trkpt lat="34.84298349704828" lon="-6.2265635660261465"><ele>15.0</ele><time>2026-04-22T14:47:36.999Z</time></trkpt><trkpt lat="34.84270051223938" lon="-6.2266362544885565"><ele>15.0</ele><time>2026-04-22T14:47:37.999Z</time></trkpt><trkpt lat="34.8424159446491" lon="-6.226707515253942"><ele>16.0</ele><time>2026-04-22T14:47:38.999Z</time></trkpt><trkpt lat="34.84213122022014" lon="-6.226779067517128"><ele>17.0</ele><time>2026-04-22T14:47:39.999Z</time></trkpt><trkpt lat="34.841844662555815" lon="-6.2268538970529965"><ele>19.0</ele><time>2026-04-22T14:47:40.999Z</time></trkpt><trkpt lat="34.841559134031854" lon="-6.22693090040733"><ele>21.0</ele><time>2026-04-22T14:47:41.999Z</time></trkpt><trkpt lat="34.84127318149273" lon="-6.227012903987745"><ele>21.0</ele><time>2026-04-22T14:47:42.999Z</time></trkpt><trkpt lat="34.84098899818083" lon="-6.227098838805855"><ele>21.0</ele><time>2026-04-22T14:47:43.999Z</time></trkpt><trkpt lat="34.84070765572391" lon="-6.227193499241359"><ele>21.0</ele><time>2026-04-22T14:47:44.999Z</time></trkpt><trkpt lat="34.84042865882285" lon="-6.227293253640417"><ele>21.0</ele><time>2026-04-22T14:47:45.999Z</time></trkpt><trkpt lat="34.84015099338467" lon="-6.227400830518482"><ele>21.0</ele><time>2026-04-22T14:47:46.999Z</time></trkpt><trkpt lat="34.83987346281259" lon="-6.227508574789618"><ele>21.0</ele><time>2026-04-22T14:47:47.999Z</time></trkpt><trkpt lat="34.83959870031626" lon="-6.227619376475754"><ele>21.0</ele><time>2026-04-22T14:47:48.999Z</time></trkpt><trkpt lat="34.83932401807872" lon="-6.227736213054631"><ele>21.0</ele><time>2026-04-22T14:47:49.999Z</time></trkpt><trkpt lat="34.83905071403377" lon="-6.227855607535478"><ele>22.5</ele><time>2026-04-22T14:47:50.999Z</time></trkpt><trkpt lat="34.83877822324752" lon="-6.227980896217178"><ele>24.0</ele><time>2026-04-22T14:47:51.999Z</time></trkpt><trkpt lat="34.838508263792555" lon="-6.228114445825447"><ele>25.0</ele><time>2026-04-22T14:47:52.999Z</time></trkpt><trkpt lat="34.83824089641734" lon="-6.2282547921297935"><ele>26.0</ele><time>2026-04-22T14:47:53.999Z</time></trkpt><trkpt lat="34.83797539055486" lon="-6.228400370421415"><ele>26.0</ele><time>2026-04-22T14:47:54.999Z</time></trkpt><trkpt lat="34.83771176231358" lon="-6.228550675419486"><ele>26.0</ele><time>2026-04-22T14:47:55.999Z</time></trkpt><trkpt lat="34.83745144688741" lon="-6.22870659497944"><ele>27.0</ele><time>2026-04-22T14:47:56.999Z</time></trkpt><trkpt lat="34.83719408049493" lon="-6.228869514504664"><ele>28.0</ele><time>2026-04-22T14:47:57.999Z</time></trkpt><trkpt lat="34.83694011560119" lon="-6.229037108202067"><ele>29.0</ele><time>2026-04-22T14:47:58.999Z</time></trkpt><trkpt lat="34.83668847453393" lon="-6.229210990938467"><ele>30.0</ele><time>2026-04-22T14:47:59.999Z</time></trkpt><trkpt lat="34.83643822714142" lon="-6.229391662743979"><ele>30.0</ele><time>2026-04-22T14:48:00.999Z</time></trkpt><trkpt lat="34.8361907001909" lon="-6.229577989587635"><ele>30.0</ele><time>2026-04-22T14:48:01.999Z</time></trkpt><trkpt lat="34.83594693207477" lon="-6.229768189859458"><ele>30.0</ele><time>2026-04-22T14:48:02.999Z</time></trkpt><trkpt lat="34.83570638573105" lon="-6.229963817069937"><ele>30.0</ele><time>2026-04-22T14:48:03.999Z</time></trkpt><trkpt lat="34.83546716614624" lon="-6.230163504969771"><ele>30.0</ele><time>2026-04-22T14:48:04.999Z</time></trkpt><trkpt lat="34.83522794575324" lon="-6.230366552403898"><ele>30.0</ele><time>2026-04-22T14:48:05.999Z</time></trkpt><trkpt lat="34.834992346780616" lon="-6.2305753616534"><ele>30.0</ele><time>2026-04-22T14:48:06.999Z</time></trkpt><trkpt lat="34.83475614585494" lon="-6.23078442277093"><ele>30.0</ele><time>2026-04-22T14:48:07.999Z</time></trkpt><trkpt lat="34.83452151070776" lon="-6.230995806103916"><ele>30.5</ele><time>2026-04-22T14:48:08.999Z</time></trkpt><trkpt lat="34.834287293885076" lon="-6.231208915035327"><ele>31.0</ele><time>2026-04-22T14:48:09.999Z</time></trkpt><trkpt lat="34.834052069229216" lon="-6.231424025981299"><ele>29.5</ele><time>2026-04-22T14:48:10.999Z</time></trkpt><trkpt lat="34.833815958992865" lon="-6.231633867613044"><ele>28.0</ele><time>2026-04-22T14:48:11.999Z</time></trkpt><trkpt lat="34.833576728395286" lon="-6.2318402143275184"><ele>28.5</ele><time>2026-04-22T14:48:12.999Z</time></trkpt><trkpt lat="34.833331577879804" lon="-6.232031272204651"><ele>29.0</ele><time>2026-04-22T14:48:13.999Z</time></trkpt><trkpt lat="34.833085436613885" lon="-6.232218479626645"><ele>28.5</ele><time>2026-04-22T14:48:14.999Z</time></trkpt><trkpt lat="34.83283836008278" lon="-6.232405630996692"><ele>28.0</ele><time>2026-04-22T14:48:15.999Z</time></trkpt><trkpt lat="34.83258636783832" lon="-6.232584772511632"><ele>28.0</ele><time>2026-04-22T14:48:16.999Z</time></trkpt><trkpt lat="34.83233311097977" lon="-6.232760625908242"><ele>28.0</ele><time>2026-04-22T14:48:17.999Z</time></trkpt><trkpt lat="34.832077631578095" lon="-6.232934411191909"><ele>28.0</ele><time>2026-04-22T14:48:18.999Z</time></trkpt><trkpt lat="34.831820989338276" lon="-6.233103985015364"><ele>28.0</ele><time>2026-04-22T14:48:19.999Z</time></trkpt><trkpt lat="34.83156318841041" lon="-6.233270863625614"><ele>27.5</ele><time>2026-04-22T14:48:20.999Z</time></trkpt><trkpt lat="34.83130164396677" lon="-6.233432538754512"><ele>27.0</ele><time>2026-04-22T14:48:21.999Z</time></trkpt><trkpt lat="34.83104370457635" lon="-6.2335918852531975"><ele>26.5</ele><time>2026-04-22T14:48:22.999Z</time></trkpt><trkpt lat="34.83078254766407" lon="-6.2337410745579"><ele>26.0</ele><time>2026-04-22T14:48:23.999Z</time></trkpt><trkpt lat="34.83051933181643" lon="-6.233886381862575"><ele>24.5</ele><time>2026-04-22T14:48:24.999Z</time></trkpt><trkpt lat="34.83025370748696" lon="-6.2340254729755875"><ele>23.0</ele><time>2026-04-22T14:48:25.999Z</time></trkpt><trkpt lat="34.82998407559258" lon="-6.234155819413486"><ele>23.0</ele><time>2026-04-22T14:48:26.999Z</time></trkpt><trkpt lat="34.82971216411622" lon="-6.234282080216985"><ele>23.0</ele><time>2026-04-22T14:48:27.999Z</time></trkpt><trkpt lat="34.82943832296978" lon="-6.234405432033633"><ele>23.0</ele><time>2026-04-22T14:48:28.999Z</time></trkpt><trkpt lat="34.82916354594017" lon="-6.234529398154383"><ele>23.0</ele><time>2026-04-22T14:48:29.999Z</time></trkpt><trkpt lat="34.82888816451976" lon="-6.234653361279279"><ele>23.0</ele><time>2026-04-22T14:48:30.999Z</time></trkpt><trkpt lat="34.82861151184195" lon="-6.234772591581208"><ele>23.0</ele><time>2026-04-22T14:48:31.999Z</time></trkpt><trkpt lat="34.82833400490033" lon="-6.234891233042528"><ele>20.5</ele><time>2026-04-22T14:48:32.999Z</time></trkpt><trkpt lat="34.82805866232581" lon="-6.23501014609857"><ele>18.0</ele><time>2026-04-22T14:48:33.999Z</time></trkpt><trkpt lat="34.82778277440305" lon="-6.235129612444014"><ele>17.5</ele><time>2026-04-22T14:48:34.999Z</time></trkpt><trkpt lat="34.827508078792576" lon="-6.235253409781184"><ele>17.0</ele><time>2026-04-22T14:48:35.999Z</time></trkpt><trkpt lat="34.82723487801508" lon="-6.235377718884674"><ele>17.0</ele><time>2026-04-22T14:48:36.999Z</time></trkpt><trkpt lat="34.82696189145747" lon="-6.235502524581754"><ele>17.0</ele><time>2026-04-22T14:48:37.999Z</time></trkpt><trkpt lat="34.8266924265994" lon="-6.2356265169556755"><ele>16.0</ele><time>2026-04-22T14:48:38.999Z</time></trkpt><trkpt lat="34.82641978809197" lon="-6.23574866992832"><ele>15.0</ele><time>2026-04-22T14:48:39.999Z</time></trkpt><trkpt lat="34.826150731480006" lon="-6.235872354632572"><ele>15.0</ele><time>2026-04-22T14:48:40.999Z</time></trkpt><trkpt lat="34.8258806251052" lon="-6.236001358333121"><ele>15.0</ele><time>2026-04-22T14:48:41.999Z</time></trkpt><trkpt lat="34.82561031449035" lon="-6.236126807306521"><ele>15.0</ele><time>2026-04-22T14:48:42.999Z</time></trkpt><trkpt lat="34.82533907055348" lon="-6.236251033504259"><ele>15.0</ele><time>2026-04-22T14:48:43.999Z</time></trkpt><trkpt lat="34.82506821965143" lon="-6.23637655370632"><ele>14.0</ele><time>2026-04-22T14:48:44.999Z</time></trkpt><trkpt lat="34.824796307163425" lon="-6.236497610233379"><ele>13.0</ele><time>2026-04-22T14:48:45.999Z</time></trkpt><trkpt lat="34.82452501626046" lon="-6.236622129119967"><ele>12.5</ele><time>2026-04-22T14:48:46.999Z</time></trkpt><trkpt lat="34.82425505604717" lon="-6.236754847195049"><ele>12.0</ele><time>2026-04-22T14:48:47.999Z</time></trkpt><trkpt lat="34.823987526989264" lon="-6.236892405039151"><ele>12.0</ele><time>2026-04-22T14:48:49Z</time></trkpt><trkpt lat="34.823722994244115" lon="-6.237033640120409"><ele>12.0</ele><time>2026-04-22T14:48:50Z</time></trkpt><trkpt lat="34.8234577974025" lon="-6.237177380284868"><ele>11.5</ele><time>2026-04-22T14:48:51Z</time></trkpt><trkpt lat="34.82319557657769" lon="-6.237325725069791"><ele>11.0</ele><time>2026-04-22T14:48:52Z</time></trkpt><trkpt lat="34.82293545598263" lon="-6.237479425418817"><ele>11.0</ele><time>2026-04-22T14:48:53Z</time></trkpt><trkpt lat="34.82267625401524" lon="-6.237633783352866"><ele>11.0</ele><time>2026-04-22T14:48:54Z</time></trkpt><trkpt lat="34.82241916815225" lon="-6.237794635946563"><ele>11.5</ele><time>2026-04-22T14:48:55Z</time></trkpt><trkpt lat="34.82216627255932" lon="-6.237961870903317"><ele>12.0</ele><time>2026-04-22T14:48:56Z</time></trkpt><trkpt lat="34.82191411128131" lon="-6.238132390453629"><ele>11.5</ele><time>2026-04-22T14:48:57Z</time></trkpt><trkpt lat="34.821664348957015" lon="-6.238307661927414"><ele>11.0</ele><time>2026-04-22T14:48:58Z</time></trkpt><trkpt lat="34.82141319446787" lon="-6.238482551195366"><ele>11.0</ele><time>2026-04-22T14:48:59Z</time></trkpt><trkpt lat="34.82116217689104" lon="-6.238660344753448"><ele>11.0</ele><time>2026-04-22T14:49:00Z</time></trkpt><trkpt lat="34.820912232223044" lon="-6.238837910131691"><ele>12.0</ele><time>2026-04-22T14:49:01Z</time></trkpt><trkpt lat="34.820663743206474" lon="-6.239022877134718"><ele>13.0</ele><time>2026-04-22T14:49:02Z</time></trkpt><trkpt lat="34.820414382075704" lon="-6.239204625807715"><ele>13.0</ele><time>2026-04-22T14:49:03Z</time></trkpt><trkpt lat="34.82016319730335" lon="-6.239382219680732"><ele>13.0</ele><time>2026-04-22T14:49:04Z</time></trkpt><trkpt lat="34.81991103776516" lon="-6.239560183502603"><ele>13.0</ele><time>2026-04-22T14:49:05Z</time></trkpt><trkpt lat="34.819659725269986" lon="-6.2397412429171455"><ele>13.0</ele><time>2026-04-22T14:49:06Z</time></trkpt><trkpt lat="34.819408179816335" lon="-6.239923259207118"><ele>14.5</ele><time>2026-04-22T14:49:07Z</time></trkpt><trkpt lat="34.81915992466342" lon="-6.240107727278664"><ele>16.0</ele><time>2026-04-22T14:49:08Z</time></trkpt><trkpt lat="34.81891212377084" lon="-6.240296110001072"><ele>16.0</ele><time>2026-04-22T14:49:09Z</time></trkpt><trkpt lat="34.81866320507402" lon="-6.240483710136187"><ele>16.0</ele><time>2026-04-22T14:49:10Z</time></trkpt><trkpt lat="34.8184160202015" lon="-6.240669440578955"><ele>15.5</ele><time>2026-04-22T14:49:11Z</time></trkpt><trkpt lat="34.81816547768984" lon="-6.240853491325577"><ele>15.0</ele><time>2026-04-22T14:49:12Z</time></trkpt><trkpt lat="34.817913389315216" lon="-6.241032270397247"><ele>15.0</ele><time>2026-04-22T14:49:13Z</time></trkpt><trkpt lat="34.81766396684917" lon="-6.241216328893779"><ele>15.0</ele><time>2026-04-22T14:49:14Z</time></trkpt><trkpt lat="34.81741554615681" lon="-6.241399623106358"><ele>15.5</ele><time>2026-04-22T14:49:15Z</time></trkpt><trkpt lat="34.81716637744906" lon="-6.241585357686547"><ele>16.0</ele><time>2026-04-22T14:49:16Z</time></trkpt><trkpt lat="34.816917957086915" lon="-6.241770936899467"><ele>16.0</ele><time>2026-04-22T14:49:17Z</time></trkpt><trkpt lat="34.81667196196656" lon="-6.241957466440387"><ele>16.0</ele><time>2026-04-22T14:49:18Z</time></trkpt><trkpt lat="34.816428890011046" lon="-6.242153621925247"><ele>16.5</ele><time>2026-04-22T14:49:19Z</time></trkpt><trkpt lat="34.81618844112092" lon="-6.242352067866196"><ele>17.0</ele><time>2026-04-22T14:49:20Z</time></trkpt><trkpt lat="34.815949053405795" lon="-6.2425543201303055"><ele>17.0</ele><time>2026-04-22T14:49:21Z</time></trkpt><trkpt lat="34.81571020269108" lon="-6.242763710698639"><ele>17.0</ele><time>2026-04-22T14:49:22Z</time></trkpt><trkpt lat="34.815478155879525" lon="-6.242977778907538"><ele>17.5</ele><time>2026-04-22T14:49:23Z</time></trkpt><trkpt lat="34.8152493679879" lon="-6.243192336032244"><ele>18.0</ele><time>2026-04-22T14:49:24Z</time></trkpt><trkpt lat="34.81502102313791" lon="-6.243413406176243"><ele>18.0</ele><time>2026-04-22T14:49:25Z</time></trkpt><trkpt lat="34.81479345489027" lon="-6.243637213985028"><ele>18.0</ele><time>2026-04-22T14:49:26Z</time></trkpt><trkpt lat="34.814566966167575" lon="-6.243864511064254"><ele>18.5</ele><time>2026-04-22T14:49:27Z</time></trkpt><trkpt lat="34.81434454235352" lon="-6.244092737938122"><ele>19.0</ele><time>2026-04-22T14:49:28Z</time></trkpt><trkpt lat="34.81412599040093" lon="-6.244327383537089"><ele>19.0</ele><time>2026-04-22T14:49:29Z</time></trkpt><trkpt lat="34.81391169746068" lon="-6.24456852487964"><ele>19.0</ele><time>2026-04-22T14:49:30Z</time></trkpt><trkpt lat="34.81370602986243" lon="-6.244817511297073"><ele>19.0</ele><time>2026-04-22T14:49:31Z</time></trkpt><trkpt lat="34.81350472682484" lon="-6.245070112019376"><ele>19.0</ele><time>2026-04-22T14:49:31.999Z</time></trkpt><trkpt lat="34.81330328263009" lon="-6.245324365505626"><ele>19.0</ele><time>2026-04-22T14:49:32.999Z</time></trkpt><trkpt lat="34.813105726320565" lon="-6.245581941832584"><ele>19.0</ele><time>2026-04-22T14:49:33.999Z</time></trkpt><trkpt lat="34.8129091692697" lon="-6.245847356268108"><ele>19.5</ele><time>2026-04-22T14:49:34.999Z</time></trkpt><trkpt lat="34.81271753378489" lon="-6.2461134190023735"><ele>20.0</ele><time>2026-04-22T14:49:35.999Z</time></trkpt><trkpt lat="34.81252957146854" lon="-6.246385989736907"><ele>20.0</ele><time>2026-04-22T14:49:36.999Z</time></trkpt><trkpt lat="34.81234563478794" lon="-6.246663001213588"><ele>20.0</ele><time>2026-04-22T14:49:37.999Z</time></trkpt><trkpt lat="34.81216352514487" lon="-6.246938093375421"><ele>20.0</ele><time>2026-04-22T14:49:38.999Z</time></trkpt><trkpt lat="34.811991171585085" lon="-6.247219254956712"><ele>20.0</ele><time>2026-04-22T14:49:39.999Z</time></trkpt><trkpt lat="34.81182896319529" lon="-6.247506663663992"><ele>19.5</ele><time>2026-04-22T14:49:40.999Z</time></trkpt><trkpt lat="34.81166526592465" lon="-6.247792227212657"><ele>19.0</ele><time>2026-04-22T14:49:41.999Z</time></trkpt><trkpt lat="34.81150168231174" lon="-6.248080760126277"><ele>20.0</ele><time>2026-04-22T14:49:42.999Z</time></trkpt><trkpt lat="34.81133666268502" lon="-6.2483688901687335"><ele>21.0</ele><time>2026-04-22T14:49:43.999Z</time></trkpt><trkpt lat="34.81116907085381" lon="-6.24865213809464"><ele>21.0</ele><time>2026-04-22T14:49:44.999Z</time></trkpt><trkpt lat="34.81099801449508" lon="-6.248936116015263"><ele>21.0</ele><time>2026-04-22T14:49:45.999Z</time></trkpt><trkpt lat="34.810826327788554" lon="-6.2492208757910905"><ele>21.0</ele><time>2026-04-22T14:49:46.999Z</time></trkpt><trkpt lat="34.81065605710127" lon="-6.249509285694038"><ele>21.0</ele><time>2026-04-22T14:49:47.999Z</time></trkpt><trkpt lat="34.81048665986727" lon="-6.249797404263568"><ele>22.5</ele><time>2026-04-22T14:49:48.999Z</time></trkpt><trkpt lat="34.81031584087663" lon="-6.250086401270115"><ele>24.0</ele><time>2026-04-22T14:49:49.999Z</time></trkpt><trkpt lat="34.81014402783232" lon="-6.250374768475861"><ele>25.5</ele><time>2026-04-22T14:49:50.999Z</time></trkpt><trkpt lat="34.809972719698244" lon="-6.250662091657238"><ele>27.0</ele><time>2026-04-22T14:49:51.999Z</time></trkpt><trkpt lat="34.80980021409102" lon="-6.250951459235357"><ele>27.0</ele><time>2026-04-22T14:49:52.999Z</time></trkpt><trkpt lat="34.80963113575599" lon="-6.251242123576787"><ele>27.0</ele><time>2026-04-22T14:49:53.999Z</time></trkpt><trkpt lat="34.80946064715613" lon="-6.251527288263321"><ele>28.0</ele><time>2026-04-22T14:49:54.999Z</time></trkpt><trkpt lat="34.80928619115452" lon="-6.251815209224858"><ele>29.0</ele><time>2026-04-22T14:49:55.999Z</time></trkpt><trkpt lat="34.809113260211696" lon="-6.252096552582447"><ele>28.0</ele><time>2026-04-22T14:49:56.999Z</time></trkpt><trkpt lat="34.80894120519208" lon="-6.2523821304577085"><ele>27.0</ele><time>2026-04-22T14:49:57.999Z</time></trkpt><trkpt lat="34.80876771801322" lon="-6.252666848876798"><ele>27.0</ele><time>2026-04-22T14:49:58.999Z</time></trkpt><trkpt lat="34.808595516470575" lon="-6.252949335115501"><ele>27.0</ele><time>2026-04-22T14:49:59.999Z</time></trkpt><trkpt lat="34.80842246181127" lon="-6.253231541568318"><ele>27.5</ele><time>2026-04-22T14:50:00.999Z</time></trkpt><trkpt lat="34.80825140981626" lon="-6.253515726448023"><ele>28.0</ele><time>2026-04-22T14:50:01.999Z</time></trkpt><trkpt lat="34.80807741123685" lon="-6.2538015036695676"><ele>26.5</ele><time>2026-04-22T14:50:02.999Z</time></trkpt><trkpt lat="34.80790432387492" lon="-6.25408455952476"><ele>25.0</ele><time>2026-04-22T14:50:03.999Z</time></trkpt><trkpt lat="34.8077306406538" lon="-6.2543678976968975"><ele>25.5</ele><time>2026-04-22T14:50:04.999Z</time></trkpt><trkpt lat="34.80755784404922" lon="-6.254652842863279"><ele>26.0</ele><time>2026-04-22T14:50:05.999Z</time></trkpt><trkpt lat="34.807386301000314" lon="-6.254939626831257"><ele>24.5</ele><time>2026-04-22T14:50:06.999Z</time></trkpt><trkpt lat="34.80721575015575" lon="-6.255226656612043"><ele>23.0</ele><time>2026-04-22T14:50:07.999Z</time></trkpt><trkpt lat="34.8070432704608" lon="-6.255511306750864"><ele>23.0</ele><time>2026-04-22T14:50:08.999Z</time></trkpt><trkpt lat="34.80686924447143" lon="-6.255796495275227"><ele>23.0</ele><time>2026-04-22T14:50:09.999Z</time></trkpt><trkpt lat="34.8066974392157" lon="-6.256084550165819"><ele>23.0</ele><time>2026-04-22T14:50:10.999Z</time></trkpt><trkpt lat="34.80652639100342" lon="-6.256374272283265"><ele>23.0</ele><time>2026-04-22T14:50:11.999Z</time></trkpt><trkpt lat="34.806355834061485" lon="-6.256660302977848"><ele>23.0</ele><time>2026-04-22T14:50:12.999Z</time></trkpt><trkpt lat="34.8061834898323" lon="-6.256946026558456"><ele>23.0</ele><time>2026-04-22T14:50:13.999Z</time></trkpt><trkpt lat="34.8060085683886" lon="-6.257229149194047"><ele>22.0</ele><time>2026-04-22T14:50:14.999Z</time></trkpt><trkpt lat="34.80583000567969" lon="-6.25750765459604"><ele>21.0</ele><time>2026-04-22T14:50:15.999Z</time></trkpt><trkpt lat="34.80565268519259" lon="-6.257787870384865"><ele>21.0</ele><time>2026-04-22T14:50:16.999Z</time></trkpt><trkpt lat="34.805477437746596" lon="-6.258070534041847"><ele>21.0</ele><time>2026-04-22T14:50:17.999Z</time></trkpt><trkpt lat="34.80530666798521" lon="-6.258354210919005"><ele>20.5</ele><time>2026-04-22T14:50:18.999Z</time></trkpt><trkpt lat="34.80513231921004" lon="-6.258634245375477"><ele>20.0</ele><time>2026-04-22T14:50:19.999Z</time></trkpt><trkpt lat="34.80495830505362" lon="-6.2589185002894085"><ele>17.5</ele><time>2026-04-22T14:50:20.999Z</time></trkpt><trkpt lat="34.80478752189812" lon="-6.259205194602697"><ele>15.0</ele><time>2026-04-22T14:50:21.999Z</time></trkpt><trkpt lat="34.80462166774737" lon="-6.259497497388257"><ele>15.0</ele><time>2026-04-22T14:50:22.999Z</time></trkpt><trkpt lat="34.8044645945611" lon="-6.259791898023532"><ele>15.0</ele><time>2026-04-22T14:50:23.999Z</time></trkpt><trkpt lat="34.804310690678285" lon="-6.260088331279504"><ele>15.0</ele><time>2026-04-22T14:50:24.999Z</time></trkpt><trkpt lat="34.804157717151305" lon="-6.26038556612247"><ele>15.0</ele><time>2026-04-22T14:50:25.999Z</time></trkpt><trkpt lat="34.80401133961105" lon="-6.260689202918419"><ele>14.5</ele><time>2026-04-22T14:50:26.999Z</time></trkpt><trkpt lat="34.80386645413697" lon="-6.260996442576299"><ele>14.0</ele><time>2026-04-22T14:50:27.999Z</time></trkpt><trkpt lat="34.803725881396524" lon="-6.261302893576595"><ele>14.0</ele><time>2026-04-22T14:50:28.999Z</time></trkpt><trkpt lat="34.803587724141174" lon="-6.2616088439903885"><ele>14.0</ele><time>2026-04-22T14:50:29.999Z</time></trkpt><trkpt lat="34.80345081024605" lon="-6.261923991123814"><ele>14.0</ele><time>2026-04-22T14:50:30.999Z</time></trkpt><trkpt lat="34.80332273675068" lon="-6.262238818759568"><ele>14.0</ele><time>2026-04-22T14:50:31.999Z</time></trkpt><trkpt lat="34.80319998156928" lon="-6.262554792638501"><ele>12.5</ele><time>2026-04-22T14:50:32.999Z</time></trkpt><trkpt lat="34.80307905162795" lon="-6.262870930438455"><ele>11.0</ele><time>2026-04-22T14:50:33.999Z</time></trkpt><trkpt lat="34.80296505280505" lon="-6.263193319473179"><ele>11.0</ele><time>2026-04-22T14:50:34.999Z</time></trkpt><trkpt lat="34.80286044129963" lon="-6.263518067886691"><ele>11.0</ele><time>2026-04-22T14:50:35.999Z</time></trkpt><trkpt lat="34.80276053223792" lon="-6.2638449334192865"><ele>11.0</ele><time>2026-04-22T14:50:36.999Z</time></trkpt><trkpt lat="34.802667699559116" lon="-6.264176674254491"><ele>11.0</ele><time>2026-04-22T14:50:37.999Z</time></trkpt><trkpt lat="34.80257194936113" lon="-6.264506130851708"><ele>11.0</ele><time>2026-04-22T14:50:38.999Z</time></trkpt><trkpt lat="34.80247997636115" lon="-6.264839889800823"><ele>11.0</ele><time>2026-04-22T14:50:39.999Z</time></trkpt><trkpt lat="34.80239037412938" lon="-6.265171720912569"><ele>11.0</ele><time>2026-04-22T14:50:40.999Z</time></trkpt><trkpt lat="34.80230711391493" lon="-6.2655083274033565"><ele>11.0</ele><time>2026-04-22T14:50:41.999Z</time></trkpt><trkpt lat="34.80222753293997" lon="-6.265845131816909"><ele>12.0</ele><time>2026-04-22T14:50:42.999Z</time></trkpt><trkpt lat="34.8021548039494" lon="-6.26618591630268"><ele>13.0</ele><time>2026-04-22T14:50:43.999Z</time></trkpt><trkpt lat="34.80208360907815" lon="-6.266524639082949"><ele>14.0</ele><time>2026-04-22T14:50:44.999Z</time></trkpt><trkpt lat="34.80201333827436" lon="-6.266864385898843"><ele>15.0</ele><time>2026-04-22T14:50:45.999Z</time></trkpt><trkpt lat="34.80194060214723" lon="-6.267204811550504"><ele>15.0</ele><time>2026-04-22T14:50:46.999Z</time></trkpt><trkpt lat="34.801870930976094" lon="-6.267546332679811"><ele>15.0</ele><time>2026-04-22T14:50:47.999Z</time></trkpt><trkpt lat="34.80180344003942" lon="-6.2678871375413285"><ele>16.0</ele><time>2026-04-22T14:50:48.999Z</time></trkpt><trkpt lat="34.80173201066661" lon="-6.268226415964789"><ele>17.0</ele><time>2026-04-22T14:50:49.999Z</time></trkpt><trkpt lat="34.8016601362315" lon="-6.268567546386716"><ele>17.0</ele><time>2026-04-22T14:50:50.999Z</time></trkpt><trkpt lat="34.801589961627464" lon="-6.2689084229246514"><ele>17.0</ele><time>2026-04-22T14:50:51.999Z</time></trkpt><trkpt lat="34.80152128021533" lon="-6.269250941995352"><ele>17.0</ele><time>2026-04-22T14:50:52.999Z</time></trkpt><trkpt lat="34.80145005160934" lon="-6.269591838604702"><ele>17.0</ele><time>2026-04-22T14:50:54Z</time></trkpt><trkpt lat="34.80137537713528" lon="-6.269932720414486"><ele>17.5</ele><time>2026-04-22T14:50:55Z</time></trkpt><trkpt lat="34.80130192216665" lon="-6.270274941404587"><ele>18.0</ele><time>2026-04-22T14:50:56Z</time></trkpt><trkpt lat="34.801226874780816" lon="-6.270616063119483"><ele>18.5</ele><time>2026-04-22T14:50:57Z</time></trkpt><trkpt lat="34.80114676982049" lon="-6.270958489042713"><ele>19.0</ele><time>2026-04-22T14:50:58Z</time></trkpt><trkpt lat="34.8010620149007" lon="-6.2712954860490155"><ele>20.0</ele><time>2026-04-22T14:50:59Z</time></trkpt><trkpt lat="34.80097392057468" lon="-6.271631358530235"><ele>21.0</ele><time>2026-04-22T14:51:00Z</time></trkpt><trkpt lat="34.80088157420662" lon="-6.2719674257088815"><ele>21.0</ele><time>2026-04-22T14:51:01Z</time></trkpt><trkpt lat="34.80078182231102" lon="-6.272298566868956"><ele>21.0</ele><time>2026-04-22T14:51:02Z</time></trkpt><trkpt lat="34.80067947953948" lon="-6.272628792749208"><ele>21.0</ele><time>2026-04-22T14:51:03Z</time></trkpt><trkpt lat="34.80057175500361" lon="-6.272954799285455"><ele>21.0</ele><time>2026-04-22T14:51:04Z</time></trkpt><trkpt lat="34.800459711176664" lon="-6.27328234851238"><ele>19.0</ele><time>2026-04-22T14:51:05Z</time></trkpt><trkpt lat="34.8003411828048" lon="-6.273606706641791"><ele>17.0</ele><time>2026-04-22T14:51:06Z</time></trkpt><trkpt lat="34.800218938677396" lon="-6.273928427259529"><ele>18.0</ele><time>2026-04-22T14:51:07Z</time></trkpt><trkpt lat="34.800092290802944" lon="-6.2742485739779585"><ele>19.0</ele><time>2026-04-22T14:51:08Z</time></trkpt><trkpt lat="34.79996614381287" lon="-6.274566361164938"><ele>18.0</ele><time>2026-04-22T14:51:09Z</time></trkpt><trkpt lat="34.79983733616212" lon="-6.274885562488124"><ele>17.0</ele><time>2026-04-22T14:51:10Z</time></trkpt><trkpt lat="34.79970781464784" lon="-6.275202269039564"><ele>17.0</ele><time>2026-04-22T14:51:11Z</time></trkpt><trkpt lat="34.799574013428476" lon="-6.275516633663139"><ele>17.0</ele><time>2026-04-22T14:51:12Z</time></trkpt><trkpt lat="34.799441457342866" lon="-6.2758309834767045"><ele>16.5</ele><time>2026-04-22T14:51:13Z</time></trkpt><trkpt lat="34.79931007490087" lon="-6.276146521799936"><ele>16.0</ele><time>2026-04-22T14:51:14Z</time></trkpt><trkpt lat="34.799185885763464" lon="-6.276464290329851"><ele>15.0</ele><time>2026-04-22T14:51:15Z</time></trkpt><trkpt lat="34.7990570626794" lon="-6.276783444247483"><ele>14.0</ele><time>2026-04-22T14:51:16Z</time></trkpt><trkpt lat="34.798927819873064" lon="-6.277100258229984"><ele>14.0</ele><time>2026-04-22T14:51:17Z</time></trkpt><trkpt lat="34.798796068410454" lon="-6.277416266901461"><ele>14.0</ele><time>2026-04-22T14:51:18Z</time></trkpt><trkpt lat="34.79866412813206" lon="-6.277729733277314"><ele>14.0</ele><time>2026-04-22T14:51:19Z</time></trkpt><trkpt lat="34.79853452813754" lon="-6.278043084884254"><ele>14.0</ele><time>2026-04-22T14:51:20Z</time></trkpt><trkpt lat="34.79840581849047" lon="-6.278359363833062"><ele>14.5</ele><time>2026-04-22T14:51:21Z</time></trkpt><trkpt lat="34.798277973410784" lon="-6.278676116968014"><ele>15.0</ele><time>2026-04-22T14:51:22Z</time></trkpt><trkpt lat="34.79815263768472" lon="-6.278992860915983"><ele>15.5</ele><time>2026-04-22T14:51:23Z</time></trkpt><trkpt lat="34.79802897475059" lon="-6.279312083143891"><ele>16.0</ele><time>2026-04-22T14:51:24Z</time></trkpt><trkpt lat="34.79791104776011" lon="-6.27963521645324"><ele>15.5</ele><time>2026-04-22T14:51:25Z</time></trkpt><trkpt lat="34.79780189989898" lon="-6.2799590552543805"><ele>15.0</ele><time>2026-04-22T14:51:26Z</time></trkpt><trkpt lat="34.7976960859365" lon="-6.280288007566398"><ele>15.0</ele><time>2026-04-22T14:51:27Z</time></trkpt><trkpt lat="34.79759626553015" lon="-6.280616201307394"><ele>15.0</ele><time>2026-04-22T14:51:27.999Z</time></trkpt><trkpt lat="34.79749883243161" lon="-6.280950920219617"><ele>15.0</ele><time>2026-04-22T14:51:28.999Z</time></trkpt><trkpt lat="34.797409687357515" lon="-6.281277695432696"><ele>15.0</ele><time>2026-04-22T14:51:29.999Z</time></trkpt><trkpt lat="34.79731856261855" lon="-6.281596730075164"><ele>15.5</ele><time>2026-04-22T14:51:30.999Z</time></trkpt><trkpt lat="34.79722813229778" lon="-6.281912568371397"><ele>16.0</ele><time>2026-04-22T14:51:31.999Z</time></trkpt><trkpt lat="34.797142768736315" lon="-6.282236172534484"><ele>15.0</ele><time>2026-04-22T14:51:32.999Z</time></trkpt><trkpt lat="34.7970633622797" lon="-6.2825680291980515"><ele>14.0</ele><time>2026-04-22T14:51:33.999Z</time></trkpt><trkpt lat="34.79698981133649" lon="-6.282902998234153"><ele>15.5</ele><time>2026-04-22T14:51:34.999Z</time></trkpt><trkpt lat="34.79691950315029" lon="-6.283246128564746"><ele>17.0</ele><time>2026-04-22T14:51:35.999Z</time></trkpt><trkpt lat="34.79688089568636" lon="-6.283591869328928"><ele>17.0</ele><time>2026-04-22T14:51:36.999Z</time></trkpt><trkpt lat="34.796815256845946" lon="-6.283948157976264"><ele>17.0</ele><time>2026-04-22T14:51:37.999Z</time></trkpt><trkpt lat="34.79673894478003" lon="-6.284271654694827"><ele>17.0</ele><time>2026-04-22T14:51:38.999Z</time></trkpt><trkpt lat="34.79668115615107" lon="-6.284616223643077"><ele>17.0</ele><time>2026-04-22T14:51:39.999Z</time></trkpt><trkpt lat="34.79662229024185" lon="-6.284960183908831"><ele>18.5</ele><time>2026-04-22T14:51:40.999Z</time></trkpt><trkpt lat="34.79656582394782" lon="-6.285305278493146"><ele>20.0</ele><time>2026-04-22T14:51:41.999Z</time></trkpt><trkpt lat="34.7965034456583" lon="-6.285651748616251"><ele>21.0</ele><time>2026-04-22T14:51:42.999Z</time></trkpt><trkpt lat="34.79644086750006" lon="-6.28599782914717"><ele>22.0</ele><time>2026-04-22T14:51:43.999Z</time></trkpt><trkpt lat="34.79637875028587" lon="-6.286345217298144"><ele>21.0</ele><time>2026-04-22T14:51:44.999Z</time></trkpt><trkpt lat="34.79631443230253" lon="-6.286690033603056"><ele>20.0</ele><time>2026-04-22T14:51:45.999Z</time></trkpt><trkpt lat="34.796252985851424" lon="-6.287040758373745"><ele>20.0</ele><time>2026-04-22T14:51:46.999Z</time></trkpt><trkpt lat="34.79618691184998" lon="-6.287387056245659"><ele>20.0</ele><time>2026-04-22T14:51:47.999Z</time></trkpt><trkpt lat="34.79613495322494" lon="-6.28773655873695"><ele>20.0</ele><time>2026-04-22T14:51:48.999Z</time></trkpt><trkpt lat="34.796059987868254" lon="-6.288080309979471"><ele>20.0</ele><time>2026-04-22T14:51:49.999Z</time></trkpt><trkpt lat="34.79600066047657" lon="-6.288425688500328"><ele>20.5</ele><time>2026-04-22T14:51:50.999Z</time></trkpt><trkpt lat="34.79594171922217" lon="-6.2887721484666805"><ele>21.0</ele><time>2026-04-22T14:51:51.999Z</time></trkpt><trkpt lat="34.795879971730564" lon="-6.289118926486963"><ele>22.5</ele><time>2026-04-22T14:51:52.999Z</time></trkpt><trkpt lat="34.795816930624774" lon="-6.289464508953747"><ele>24.0</ele><time>2026-04-22T14:51:53.999Z</time></trkpt><trkpt lat="34.79575481367261" lon="-6.289808878943698"><ele>24.0</ele><time>2026-04-22T14:51:54.999Z</time></trkpt><trkpt lat="34.79569367537941" lon="-6.290153643516118"><ele>24.0</ele><time>2026-04-22T14:51:55.999Z</time></trkpt><trkpt lat="34.795633733737276" lon="-6.29049793456975"><ele>23.5</ele><time>2026-04-22T14:51:56.999Z</time></trkpt><trkpt lat="34.79557364936803" lon="-6.290842299355651"><ele>23.0</ele><time>2026-04-22T14:51:57.999Z</time></trkpt><trkpt lat="34.79551250783575" lon="-6.291186257113858"><ele>23.0</ele><time>2026-04-22T14:51:58.999Z</time></trkpt><trkpt lat="34.79544993113264" lon="-6.2915309647968005"><ele>23.0</ele><time>2026-04-22T14:51:59.999Z</time></trkpt><trkpt lat="34.79538727229947" lon="-6.291875057164145"><ele>23.0</ele><time>2026-04-22T14:52:00.999Z</time></trkpt><trkpt lat="34.79532543193742" lon="-6.292219677416154"><ele>23.0</ele><time>2026-04-22T14:52:01.999Z</time></trkpt><trkpt lat="34.79526115047882" lon="-6.292564997148576"><ele>22.0</ele><time>2026-04-22T14:52:02.999Z</time></trkpt><trkpt lat="34.79519270438427" lon="-6.292908839644343"><ele>21.0</ele><time>2026-04-22T14:52:03.999Z</time></trkpt><trkpt lat="34.79511870182358" lon="-6.293250034966921"><ele>22.0</ele><time>2026-04-22T14:52:04.999Z</time></trkpt><trkpt lat="34.79503903271194" lon="-6.293588686510273"><ele>23.0</ele><time>2026-04-22T14:52:05.999Z</time></trkpt><trkpt lat="34.79495745113643" lon="-6.293926866474597"><ele>23.0</ele><time>2026-04-22T14:52:06.999Z</time></trkpt><trkpt lat="34.794872596604556" lon="-6.29426293491142"><ele>23.0</ele><time>2026-04-22T14:52:07.999Z</time></trkpt><trkpt lat="34.79478294694786" lon="-6.294596035950912"><ele>23.0</ele><time>2026-04-22T14:52:08.999Z</time></trkpt><trkpt lat="34.794691842516286" lon="-6.294927374075939"><ele>23.0</ele><time>2026-04-22T14:52:09.999Z</time></trkpt><trkpt lat="34.79459806607023" lon="-6.2952607314541655"><ele>23.0</ele><time>2026-04-22T14:52:10.999Z</time></trkpt><trkpt lat="34.79449828296392" lon="-6.295589330107787"><ele>23.0</ele><time>2026-04-22T14:52:11.999Z</time></trkpt><trkpt lat="34.794392057249546" lon="-6.295914229084287"><ele>24.0</ele><time>2026-04-22T14:52:12.999Z</time></trkpt><trkpt lat="34.79427905996879" lon="-6.296237621757019"><ele>25.0</ele><time>2026-04-22T14:52:13.999Z</time></trkpt><trkpt lat="34.79416087991815" lon="-6.296559003473802"><ele>25.0</ele><time>2026-04-22T14:52:14.999Z</time></trkpt><trkpt lat="34.79403686577966" lon="-6.296879792590561"><ele>25.0</ele><time>2026-04-22T14:52:15.999Z</time></trkpt><trkpt lat="34.79390826389516" lon="-6.297195796719977"><ele>25.5</ele><time>2026-04-22T14:52:16.999Z</time></trkpt><trkpt lat="34.793776189020434" lon="-6.297510642812891"><ele>26.0</ele><time>2026-04-22T14:52:17.999Z</time></trkpt><trkpt lat="34.793639784459934" lon="-6.29782158422848"><ele>27.5</ele><time>2026-04-22T14:52:18.999Z</time></trkpt><trkpt lat="34.79350085492389" lon="-6.29813147441394"><ele>29.0</ele><time>2026-04-22T14:52:19.999Z</time></trkpt><trkpt lat="34.793357603966314" lon="-6.298438859645225"><ele>29.0</ele><time>2026-04-22T14:52:20.999Z</time></trkpt><trkpt lat="34.79320833058059" lon="-6.2987430325579945"><ele>29.0</ele><time>2026-04-22T14:52:21.999Z</time></trkpt><trkpt lat="34.793054800804605" lon="-6.299042848563171"><ele>28.0</ele><time>2026-04-22T14:52:22.999Z</time></trkpt><trkpt lat="34.79289731642344" lon="-6.29934099151523"><ele>27.0</ele><time>2026-04-22T14:52:23.999Z</time></trkpt><trkpt lat="34.79273716009243" lon="-6.299639367202643"><ele>28.5</ele><time>2026-04-22T14:52:24.999Z</time></trkpt><trkpt lat="34.792573927091034" lon="-6.299935079536586"><ele>30.0</ele><time>2026-04-22T14:52:25.999Z</time></trkpt><trkpt lat="34.792404695605974" lon="-6.300225330389251"><ele>30.0</ele><time>2026-04-22T14:52:26.999Z</time></trkpt><trkpt lat="34.792231483264636" lon="-6.300504469265525"><ele>30.0</ele><time>2026-04-22T14:52:27.999Z</time></trkpt><trkpt lat="34.79205245189226" lon="-6.300775789721001"><ele>30.5</ele><time>2026-04-22T14:52:28.999Z</time></trkpt><trkpt lat="34.79186756516892" lon="-6.301046941619915"><ele>31.0</ele><time>2026-04-22T14:52:29.999Z</time></trkpt><trkpt lat="34.79168202943356" lon="-6.30131817556376"><ele>29.5</ele><time>2026-04-22T14:52:30.999Z</time></trkpt><trkpt lat="34.79149560081469" lon="-6.301590636343011"><ele>28.0</ele><time>2026-04-22T14:52:31.999Z</time></trkpt><trkpt lat="34.791306389792155" lon="-6.301859713230099"><ele>28.0</ele><time>2026-04-22T14:52:32.999Z</time></trkpt><trkpt lat="34.7911126160393" lon="-6.3021241428193"><ele>28.0</ele><time>2026-04-22T14:52:33.999Z</time></trkpt><trkpt lat="34.79091750853948" lon="-6.302383644971121"><ele>29.5</ele><time>2026-04-22T14:52:34.999Z</time></trkpt><trkpt lat="34.790718095232656" lon="-6.302642394333688"><ele>31.0</ele><time>2026-04-22T14:52:35.999Z</time></trkpt><trkpt lat="34.79051568119167" lon="-6.302896643080378"><ele>31.5</ele><time>2026-04-22T14:52:36.999Z</time></trkpt><trkpt lat="34.79031046112061" lon="-6.303144979435799"><ele>32.0</ele><time>2026-04-22T14:52:37.999Z</time></trkpt><trkpt lat="34.790102118640974" lon="-6.30338908748681"><ele>32.0</ele><time>2026-04-22T14:52:38.999Z</time></trkpt><trkpt lat="34.789889167281316" lon="-6.303627580154058"><ele>32.0</ele><time>2026-04-22T14:52:39.999Z</time></trkpt><trkpt lat="34.78967365581415" lon="-6.303862859753556"><ele>30.5</ele><time>2026-04-22T14:52:40.999Z</time></trkpt><trkpt lat="34.78945559282005" lon="-6.304095614761824"><ele>29.0</ele><time>2026-04-22T14:52:41.999Z</time></trkpt><trkpt lat="34.78923635677933" lon="-6.304328849959956"><ele>29.0</ele><time>2026-04-22T14:52:42.999Z</time></trkpt><trkpt lat="34.78901725530477" lon="-6.304563994464205"><ele>29.0</ele><time>2026-04-22T14:52:43.999Z</time></trkpt><trkpt lat="34.78879850533568" lon="-6.304797896847467"><ele>28.0</ele><time>2026-04-22T14:52:44.999Z</time></trkpt><trkpt lat="34.78857880098536" lon="-6.305032303009441"><ele>27.0</ele><time>2026-04-22T14:52:45.999Z</time></trkpt><trkpt lat="34.78836088591719" lon="-6.305265608468598"><ele>27.0</ele><time>2026-04-22T14:52:46.999Z</time></trkpt><trkpt lat="34.788144551983194" lon="-6.305501299617826"><ele>27.0</ele><time>2026-04-22T14:52:47.999Z</time></trkpt><trkpt lat="34.78793227043406" lon="-6.305740953139812"><ele>27.5</ele><time>2026-04-22T14:52:48.999Z</time></trkpt><trkpt lat="34.78772506570303" lon="-6.305984540799626"><ele>28.0</ele><time>2026-04-22T14:52:49.999Z</time></trkpt><trkpt lat="34.787518147934286" lon="-6.3062340650339115"><ele>27.5</ele><time>2026-04-22T14:52:50.999Z</time></trkpt><trkpt lat="34.78731246148719" lon="-6.3064854890226005"><ele>27.0</ele><time>2026-04-22T14:52:51.999Z</time></trkpt><trkpt lat="34.7871085199173" lon="-6.306737221692185"><ele>27.0</ele><time>2026-04-22T14:52:52.999Z</time></trkpt><trkpt lat="34.7869055289694" lon="-6.306988320053051"><ele>27.0</ele><time>2026-04-22T14:52:53.999Z</time></trkpt><trkpt lat="34.78670427597746" lon="-6.307243903002649"><ele>28.0</ele><time>2026-04-22T14:52:54.999Z</time></trkpt><trkpt lat="34.78650739778291" lon="-6.307501465676632"><ele>29.0</ele><time>2026-04-22T14:52:55.999Z</time></trkpt><trkpt lat="34.7863127513356" lon="-6.3077611216014855"><ele>29.0</ele><time>2026-04-22T14:52:56.999Z</time></trkpt><trkpt lat="34.786118041364" lon="-6.308024762629939"><ele>29.0</ele><time>2026-04-22T14:52:57.999Z</time></trkpt><trkpt lat="34.785922704405976" lon="-6.308288238674684"><ele>29.0</ele><time>2026-04-22T14:52:58.999Z</time></trkpt><trkpt lat="34.7857280751125" lon="-6.308549670869233"><ele>29.0</ele><time>2026-04-22T14:52:59.999Z</time></trkpt><trkpt lat="34.78553285289043" lon="-6.30880995296925"><ele>29.5</ele><time>2026-04-22T14:53:00.999Z</time></trkpt><trkpt lat="34.78533837477403" lon="-6.309070598345494"><ele>30.0</ele><time>2026-04-22T14:53:01.999Z</time></trkpt><trkpt lat="34.785144112497605" lon="-6.3093336621126825"><ele>30.0</ele><time>2026-04-22T14:53:02.999Z</time></trkpt><trkpt lat="34.784949008524954" lon="-6.3095962810068364"><ele>30.0</ele><time>2026-04-22T14:53:03.999Z</time></trkpt><trkpt lat="34.78475025551973" lon="-6.30985228885809"><ele>28.5</ele><time>2026-04-22T14:53:04.999Z</time></trkpt><trkpt lat="34.78454754473243" lon="-6.310103618102438"><ele>27.0</ele><time>2026-04-22T14:53:05.999Z</time></trkpt><trkpt lat="34.78433990522854" lon="-6.310348924567795"><ele>27.5</ele><time>2026-04-22T14:53:06.999Z</time></trkpt><trkpt lat="34.784126087541715" lon="-6.310586792579651"><ele>28.0</ele><time>2026-04-22T14:53:07.999Z</time></trkpt><trkpt lat="34.783909298412695" lon="-6.310818775712329"><ele>28.0</ele><time>2026-04-22T14:53:08.999Z</time></trkpt><trkpt lat="34.78369028438875" lon="-6.311046702025467"><ele>28.0</ele><time>2026-04-22T14:53:09.999Z</time></trkpt><trkpt lat="34.78346693542775" lon="-6.311269414351401"><ele>26.0</ele><time>2026-04-22T14:53:10.999Z</time></trkpt><trkpt lat="34.783242582648946" lon="-6.311488140898315"><ele>24.0</ele><time>2026-04-22T14:53:11.999Z</time></trkpt><trkpt lat="34.78301128923262" lon="-6.311703763465946"><ele>24.0</ele><time>2026-04-22T14:53:12.999Z</time></trkpt><trkpt lat="34.78277586471541" lon="-6.311914199659207"><ele>24.0</ele><time>2026-04-22T14:53:13.999Z</time></trkpt><trkpt lat="34.78253796648597" lon="-6.312119879327857"><ele>25.0</ele><time>2026-04-22T14:53:14.999Z</time></trkpt><trkpt lat="34.782297456248784" lon="-6.312323255783075"><ele>26.0</ele><time>2026-04-22T14:53:15.999Z</time></trkpt><trkpt lat="34.782055676724525" lon="-6.312523752773078"><ele>27.0</ele><time>2026-04-22T14:53:16.999Z</time></trkpt><trkpt lat="34.78180899213693" lon="-6.312717301410481"><ele>28.0</ele><time>2026-04-22T14:53:17.999Z</time></trkpt><trkpt lat="34.78156176740673" lon="-6.31290625483977"><ele>25.0</ele><time>2026-04-22T14:53:18.999Z</time></trkpt><trkpt lat="34.781312990774666" lon="-6.313091311405274"><ele>22.0</ele><time>2026-04-22T14:53:19.999Z</time></trkpt><trkpt lat="34.78106139674464" lon="-6.31327213992311"><ele>22.0</ele><time>2026-04-22T14:53:20.999Z</time></trkpt><trkpt lat="34.7808067440621" lon="-6.313446488652373"><ele>22.0</ele><time>2026-04-22T14:53:21.999Z</time></trkpt><trkpt lat="34.780548736788845" lon="-6.31361397292179"><ele>22.0</ele><time>2026-04-22T14:53:22.999Z</time></trkpt><trkpt lat="34.78028923874251" lon="-6.313775785534279"><ele>22.0</ele><time>2026-04-22T14:53:23.999Z</time></trkpt><trkpt lat="34.78002904410473" lon="-6.313935423049288"><ele>20.0</ele><time>2026-04-22T14:53:24.999Z</time></trkpt><trkpt lat="34.77976618801795" lon="-6.31408852439562"><ele>18.0</ele><time>2026-04-22T14:53:25.999Z</time></trkpt><trkpt lat="34.779502310661044" lon="-6.3142358141571595"><ele>21.0</ele><time>2026-04-22T14:53:26.999Z</time></trkpt><trkpt lat="34.77923554892847" lon="-6.314377708466191"><ele>24.0</ele><time>2026-04-22T14:53:27.999Z</time></trkpt><trkpt lat="34.77896648188144" lon="-6.314516065630309"><ele>24.0</ele><time>2026-04-22T14:53:28.999Z</time></trkpt><trkpt lat="34.778695490545026" lon="-6.314649885929352"><ele>24.0</ele><time>2026-04-22T14:53:29.999Z</time></trkpt><trkpt lat="34.778424039783594" lon="-6.314783168300853"><ele>21.0</ele><time>2026-04-22T14:53:30.999Z</time></trkpt><trkpt lat="34.77815240577799" lon="-6.314920067909426"><ele>18.0</ele><time>2026-04-22T14:53:31.999Z</time></trkpt><trkpt lat="34.7778800257968" lon="-6.315056917032308"><ele>19.5</ele><time>2026-04-22T14:53:32.999Z</time></trkpt><trkpt lat="34.77760873949991" lon="-6.315192875344162"><ele>21.0</ele><time>2026-04-22T14:53:33.999Z</time></trkpt><trkpt lat="34.777337042093556" lon="-6.315326538653622"><ele>21.0</ele><time>2026-04-22T14:53:34.999Z</time></trkpt><trkpt lat="34.777065593697" lon="-6.3154599771157045"><ele>21.0</ele><time>2026-04-22T14:53:35.999Z</time></trkpt><trkpt lat="34.77679582289164" lon="-6.3155969620589465"><ele>21.5</ele><time>2026-04-22T14:53:36.999Z</time></trkpt><trkpt lat="34.77652911566278" lon="-6.315740094626674"><ele>22.0</ele><time>2026-04-22T14:53:37.999Z</time></trkpt><trkpt lat="34.776264709317786" lon="-6.315888891945939"><ele>19.5</ele><time>2026-04-22T14:53:38.999Z</time></trkpt><trkpt lat="34.776002103304876" lon="-6.316041590402848"><ele>17.0</ele><time>2026-04-22T14:53:39.999Z</time></trkpt><trkpt lat="34.77574245727995" lon="-6.316197354375095"><ele>17.0</ele><time>2026-04-22T14:53:40.999Z</time></trkpt><trkpt lat="34.775489307408016" lon="-6.316356738946879"><ele>17.0</ele><time>2026-04-22T14:53:41.999Z</time></trkpt><trkpt lat="34.77523766995594" lon="-6.316501199720316"><ele>16.5</ele><time>2026-04-22T14:53:42.999Z</time></trkpt><trkpt lat="34.774988118320834" lon="-6.316651626227116"><ele>16.0</ele><time>2026-04-22T14:53:43.999Z</time></trkpt><trkpt lat="34.77474059983766" lon="-6.316820406844525"><ele>16.0</ele><time>2026-04-22T14:53:44.999Z</time></trkpt><trkpt lat="34.77449450225959" lon="-6.316992006977628"><ele>16.0</ele><time>2026-04-22T14:53:45.999Z</time></trkpt><trkpt lat="34.77424907218092" lon="-6.317168207692725"><ele>12.0</ele><time>2026-04-22T14:53:46.999Z</time></trkpt><trkpt lat="34.77400715604395" lon="-6.3173527378786085"><ele>8.0</ele><time>2026-04-22T14:53:47.999Z</time></trkpt><trkpt lat="34.77376558486517" lon="-6.317536940058721"><ele>8.0</ele><time>2026-04-22T14:53:48.999Z</time></trkpt><trkpt lat="34.773525511330625" lon="-6.3177271445333565"><ele>8.0</ele><time>2026-04-22T14:53:49.999Z</time></trkpt><trkpt lat="34.77328927667127" lon="-6.317926490953106"><ele>12.0</ele><time>2026-04-22T14:53:50.999Z</time></trkpt><trkpt lat="34.773055557706755" lon="-6.318131554586135"><ele>16.0</ele><time>2026-04-22T14:53:51.999Z</time></trkpt><trkpt lat="34.77282364543716" lon="-6.3183409342441275"><ele>13.0</ele><time>2026-04-22T14:53:52.999Z</time></trkpt><trkpt lat="34.772593387550565" lon="-6.318552973559157"><ele>10.0</ele><time>2026-04-22T14:53:53.999Z</time></trkpt><trkpt lat="34.77236440555441" lon="-6.318769799782491"><ele>11.0</ele><time>2026-04-22T14:53:54.999Z</time></trkpt><trkpt lat="34.772136462965975" lon="-6.318987107065911"><ele>12.0</ele><time>2026-04-22T14:53:55.999Z</time></trkpt><trkpt lat="34.77190905392852" lon="-6.319204239811601"><ele>10.0</ele><time>2026-04-22T14:53:56.999Z</time></trkpt><trkpt lat="34.77168309681675" lon="-6.319422202567049"><ele>8.0</ele><time>2026-04-22T14:53:57.999Z</time></trkpt><trkpt lat="34.77145980103999" lon="-6.319642375546918"><ele>9.0</ele><time>2026-04-22T14:53:58.999Z</time></trkpt><trkpt lat="34.77124043959202" lon="-6.319869154604968"><ele>10.0</ele><time>2026-04-22T14:53:59.999Z</time></trkpt><trkpt lat="34.771022090243115" lon="-6.320097605194648"><ele>11.0</ele><time>2026-04-22T14:54:00.999Z</time></trkpt><trkpt lat="34.7708087379407" lon="-6.3203336885441805"><ele>12.0</ele><time>2026-04-22T14:54:01.999Z</time></trkpt><trkpt lat="34.77059734641459" lon="-6.320573041824412"><ele>12.5</ele><time>2026-04-22T14:54:02.999Z</time></trkpt><trkpt lat="34.770388550758874" lon="-6.320814897151288"><ele>13.0</ele><time>2026-04-22T14:54:03.999Z</time></trkpt><trkpt lat="34.77018401107099" lon="-6.321063349320518"><ele>14.0</ele><time>2026-04-22T14:54:04.999Z</time></trkpt><trkpt lat="34.769978742114574" lon="-6.321311195286656"><ele>15.0</ele><time>2026-04-22T14:54:05.999Z</time></trkpt><trkpt lat="34.769774647086244" lon="-6.321562035216953"><ele>15.5</ele><time>2026-04-22T14:54:06.999Z</time></trkpt><trkpt lat="34.7695748248924" lon="-6.321815862683206"><ele>16.0</ele><time>2026-04-22T14:54:07.999Z</time></trkpt><trkpt lat="34.769377004007275" lon="-6.322071365811971"><ele>17.5</ele><time>2026-04-22T14:54:08.999Z</time></trkpt><trkpt lat="34.76918222958563" lon="-6.322332526910956"><ele>19.0</ele><time>2026-04-22T14:54:09.999Z</time></trkpt><trkpt lat="34.768988734032376" lon="-6.322597513388126"><ele>19.0</ele><time>2026-04-22T14:54:10.999Z</time></trkpt><trkpt lat="34.76879817991808" lon="-6.322864602786109"><ele>19.0</ele><time>2026-04-22T14:54:11.999Z</time></trkpt><trkpt lat="34.76861046982086" lon="-6.323136198489329"><ele>21.5</ele><time>2026-04-22T14:54:12.999Z</time></trkpt><trkpt lat="34.76842594780257" lon="-6.323413108776592"><ele>24.0</ele><time>2026-04-22T14:54:13.999Z</time></trkpt><trkpt lat="34.76824391353888" lon="-6.323691208929589"><ele>25.0</ele><time>2026-04-22T14:54:14.999Z</time></trkpt><trkpt lat="34.76806575597818" lon="-6.32397516337208"><ele>26.0</ele><time>2026-04-22T14:54:15.999Z</time></trkpt><trkpt lat="34.76789148713121" lon="-6.324260728745539"><ele>26.0</ele><time>2026-04-22T14:54:16.999Z</time></trkpt><trkpt lat="34.7677185765298" lon="-6.324546805098727"><ele>26.0</ele><time>2026-04-22T14:54:17.999Z</time></trkpt><trkpt lat="34.76754822287211" lon="-6.3248333733232"><ele>25.0</ele><time>2026-04-22T14:54:18.999Z</time></trkpt><trkpt lat="34.76738180620331" lon="-6.325123572198045"><ele>24.0</ele><time>2026-04-22T14:54:19.999Z</time></trkpt><trkpt lat="34.7672141230709" lon="-6.325414210469342"><ele>21.0</ele><time>2026-04-22T14:54:20.999Z</time></trkpt><trkpt lat="34.76704868397259" lon="-6.325705433837168"><ele>18.0</ele><time>2026-04-22T14:54:21.999Z</time></trkpt><trkpt lat="34.76689057389046" lon="-6.326000945676647"><ele>18.0</ele><time>2026-04-22T14:54:22.999Z</time></trkpt><trkpt lat="34.76673600667826" lon="-6.326299225900933"><ele>18.0</ele><time>2026-04-22T14:54:23.999Z</time></trkpt><trkpt lat="34.7665783055051" lon="-6.326593744829954"><ele>18.0</ele><time>2026-04-22T14:54:24.999Z</time></trkpt><trkpt lat="34.76641856710851" lon="-6.326889397236735"><ele>18.0</ele><time>2026-04-22T14:54:25.999Z</time></trkpt><trkpt lat="34.76625998367178" lon="-6.327185500067559"><ele>18.5</ele><time>2026-04-22T14:54:26.999Z</time></trkpt><trkpt lat="34.76609953824851" lon="-6.32748160669058"><ele>19.0</ele><time>2026-04-22T14:54:27.999Z</time></trkpt><trkpt lat="34.765939840422874" lon="-6.3277756933366875"><ele>22.0</ele><time>2026-04-22T14:54:28.999Z</time></trkpt><trkpt lat="34.76577945908161" lon="-6.328070030041352"><ele>25.0</ele><time>2026-04-22T14:54:29.999Z</time></trkpt><trkpt lat="34.76561971057155" lon="-6.328365821593377"><ele>25.0</ele><time>2026-04-22T14:54:30.999Z</time></trkpt><trkpt lat="34.76546027325813" lon="-6.328661613942884"><ele>25.0</ele><time>2026-04-22T14:54:31.999Z</time></trkpt><trkpt lat="34.7653011594998" lon="-6.328957726175518"><ele>24.5</ele><time>2026-04-22T14:54:32.999Z</time></trkpt><trkpt lat="34.76514259392585" lon="-6.329255201533542"><ele>24.0</ele><time>2026-04-22T14:54:33.999Z</time></trkpt><trkpt lat="34.76498417317278" lon="-6.3295520535292855"><ele>28.0</ele><time>2026-04-22T14:54:34.999Z</time></trkpt><trkpt lat="34.764824549123816" lon="-6.3298492430604005"><ele>32.0</ele><time>2026-04-22T14:54:35.999Z</time></trkpt><trkpt lat="34.7646644868742" lon="-6.330145980033748"><ele>32.0</ele><time>2026-04-22T14:54:36.999Z</time></trkpt><trkpt lat="34.76450558140845" lon="-6.330443155985502"><ele>32.0</ele><time>2026-04-22T14:54:37.999Z</time></trkpt><trkpt lat="34.76434769797451" lon="-6.330739018364166"><ele>29.0</ele><time>2026-04-22T14:54:38.999Z</time></trkpt><trkpt lat="34.76418906322771" lon="-6.331034709913443"><ele>26.0</ele><time>2026-04-22T14:54:39.999Z</time></trkpt><trkpt lat="34.764029387726765" lon="-6.331329286610172"><ele>28.5</ele><time>2026-04-22T14:54:40.999Z</time></trkpt><trkpt lat="34.76386890169272" lon="-6.331623266174599"><ele>31.0</ele><time>2026-04-22T14:54:41.999Z</time></trkpt><trkpt lat="34.763709372306565" lon="-6.33191674321312"><ele>31.0</ele><time>2026-04-22T14:54:42.999Z</time></trkpt><trkpt lat="34.76355074066572" lon="-6.33221223128901"><ele>31.0</ele><time>2026-04-22T14:54:43.999Z</time></trkpt><trkpt lat="34.763391923709804" lon="-6.332506496753655"><ele>30.0</ele><time>2026-04-22T14:54:44.999Z</time></trkpt><trkpt lat="34.763232396672116" lon="-6.332800716379626"><ele>29.0</ele><time>2026-04-22T14:54:45.999Z</time></trkpt><trkpt lat="34.76307397031403" lon="-6.333096172901255"><ele>29.0</ele><time>2026-04-22T14:54:46.999Z</time></trkpt><trkpt lat="34.76291478959708" lon="-6.333391851069225"><ele>29.0</ele><time>2026-04-22T14:54:47.999Z</time></trkpt><trkpt lat="34.762753996873954" lon="-6.333685699519983"><ele>28.0</ele><time>2026-04-22T14:54:48.999Z</time></trkpt><trkpt lat="34.76259349168799" lon="-6.33398267041911"><ele>27.0</ele><time>2026-04-22T14:54:49.999Z</time></trkpt><trkpt lat="34.762433759076714" lon="-6.334280810143591"><ele>27.0</ele><time>2026-04-22T14:54:50.999Z</time></trkpt><trkpt lat="34.76227575165232" lon="-6.334576645044787"><ele>27.0</ele><time>2026-04-22T14:54:51.999Z</time></trkpt><trkpt lat="34.76211785774045" lon="-6.334873698379552"><ele>28.5</ele><time>2026-04-22T14:54:52.999Z</time></trkpt><trkpt lat="34.76195934599741" lon="-6.335170108491762"><ele>30.0</ele><time>2026-04-22T14:54:53.999Z</time></trkpt><trkpt lat="34.76180144078842" lon="-6.335466228590506"><ele>27.0</ele><time>2026-04-22T14:54:54.999Z</time></trkpt><trkpt lat="34.76164366451815" lon="-6.335762143737031"><ele>24.0</ele><time>2026-04-22T14:54:55.998Z</time></trkpt><trkpt lat="34.7614853743919" lon="-6.336057509901716"><ele>24.0</ele><time>2026-04-22T14:54:56.998Z</time></trkpt><trkpt lat="34.76132539570604" lon="-6.336351840313385"><ele>24.0</ele><time>2026-04-22T14:54:57.998Z</time></trkpt><trkpt lat="34.761163209021205" lon="-6.336645193030093"><ele>23.5</ele><time>2026-04-22T14:54:58.998Z</time></trkpt><trkpt lat="34.76099555460594" lon="-6.336933749756896"><ele>23.0</ele><time>2026-04-22T14:54:59.998Z</time></trkpt><trkpt lat="34.76082695982489" lon="-6.337221643461891"><ele>24.0</ele><time>2026-04-22T14:55:00.998Z</time></trkpt><trkpt lat="34.76065402674002" lon="-6.337507324986806"><ele>25.0</ele><time>2026-04-22T14:55:01.998Z</time></trkpt><trkpt lat="34.76047585623507" lon="-6.337787073760786"><ele>24.0</ele><time>2026-04-22T14:55:02.998Z</time></trkpt><trkpt lat="34.76029500462025" lon="-6.3380647738978375"><ele>23.0</ele><time>2026-04-22T14:55:03.998Z</time></trkpt><trkpt lat="34.76011133063404" lon="-6.338340679914105"><ele>23.0</ele><time>2026-04-22T14:55:04.998Z</time></trkpt><trkpt lat="34.75992377832121" lon="-6.338613782025685"><ele>23.0</ele><time>2026-04-22T14:55:06Z</time></trkpt><trkpt lat="34.759737753465664" lon="-6.338886995862653"><ele>24.5</ele><time>2026-04-22T14:55:07Z</time></trkpt><trkpt lat="34.75954868858248" lon="-6.339157286051991"><ele>26.0</ele><time>2026-04-22T14:55:08Z</time></trkpt><trkpt lat="34.759356315649555" lon="-6.339421629060028"><ele>24.5</ele><time>2026-04-22T14:55:09Z</time></trkpt><trkpt lat="34.75915970334446" lon="-6.339681554366668"><ele>23.0</ele><time>2026-04-22T14:55:10Z</time></trkpt><trkpt lat="34.75895932945167" lon="-6.339937551738511"><ele>23.0</ele><time>2026-04-22T14:55:11Z</time></trkpt><trkpt lat="34.758758480355" lon="-6.340193951629946"><ele>23.0</ele><time>2026-04-22T14:55:12Z</time></trkpt><trkpt lat="34.75855504659615" lon="-6.340446129390018"><ele>22.0</ele><time>2026-04-22T14:55:13Z</time></trkpt><trkpt lat="34.758346033216185" lon="-6.340692610696533"><ele>21.0</ele><time>2026-04-22T14:55:14Z</time></trkpt><trkpt lat="34.75813632498897" lon="-6.340938438969279"><ele>21.0</ele><time>2026-04-22T14:55:15Z</time></trkpt><trkpt lat="34.75792420196477" lon="-6.341179259053886"><ele>21.0</ele><time>2026-04-22T14:55:16Z</time></trkpt><trkpt lat="34.757708015017684" lon="-6.341416956324231"><ele>20.5</ele><time>2026-04-22T14:55:17Z</time></trkpt><trkpt lat="34.75748924478753" lon="-6.341649430220458"><ele>20.0</ele><time>2026-04-22T14:55:18Z</time></trkpt><trkpt lat="34.75726798035348" lon="-6.341879123366305"><ele>20.0</ele><time>2026-04-22T14:55:19Z</time></trkpt><trkpt lat="34.7570445346728" lon="-6.342105886260253"><ele>20.0</ele><time>2026-04-22T14:55:20Z</time></trkpt><trkpt lat="34.75681821045552" lon="-6.342330016869932"><ele>20.0</ele><time>2026-04-22T14:55:21Z</time></trkpt><trkpt lat="34.75659127437627" lon="-6.342551431443163"><ele>20.0</ele><time>2026-04-22T14:55:22Z</time></trkpt><trkpt lat="34.75636223155648" lon="-6.342771538959791"><ele>20.0</ele><time>2026-04-22T14:55:23Z</time></trkpt><trkpt lat="34.756131102305375" lon="-6.342987372019437"><ele>20.0</ele><time>2026-04-22T14:55:24Z</time></trkpt><trkpt lat="34.755897012942434" lon="-6.343195050814358"><ele>20.0</ele><time>2026-04-22T14:55:25Z</time></trkpt><trkpt lat="34.755662047271976" lon="-6.343395571604499"><ele>20.0</ele><time>2026-04-22T14:55:26Z</time></trkpt><trkpt lat="34.755429197817406" lon="-6.343590869032016"><ele>19.0</ele><time>2026-04-22T14:55:27Z</time></trkpt><trkpt lat="34.755193304991266" lon="-6.343781555373009"><ele>18.0</ele><time>2026-04-22T14:55:28Z</time></trkpt><trkpt lat="34.754950900565646" lon="-6.343967585801933"><ele>20.5</ele><time>2026-04-22T14:55:29Z</time></trkpt><trkpt lat="34.75470415849529" lon="-6.344150919539108"><ele>23.0</ele><time>2026-04-22T14:55:29.999Z</time></trkpt><trkpt lat="34.75445950791204" lon="-6.344339704933489"><ele>21.5</ele><time>2026-04-22T14:55:30.999Z</time></trkpt><trkpt lat="34.75421245233051" lon="-6.344526218262382"><ele>20.0</ele><time>2026-04-22T14:55:31.999Z</time></trkpt><trkpt lat="34.753963655556376" lon="-6.344712037967501"><ele>22.5</ele><time>2026-04-22T14:55:32.999Z</time></trkpt><trkpt lat="34.75371662225385" lon="-6.344896193217828"><ele>25.0</ele><time>2026-04-22T14:55:33.999Z</time></trkpt><trkpt lat="34.75347401880698" lon="-6.345086096894742"><ele>25.0</ele><time>2026-04-22T14:55:34.999Z</time></trkpt><trkpt lat="34.75322998144006" lon="-6.345273424584915"><ele>25.0</ele><time>2026-04-22T14:55:35.999Z</time></trkpt><trkpt lat="34.75298518984299" lon="-6.345461974791808"><ele>26.5</ele><time>2026-04-22T14:55:36.999Z</time></trkpt><trkpt lat="34.75274174894331" lon="-6.3456540432350925"><ele>28.0</ele><time>2026-04-22T14:55:37.999Z</time></trkpt><trkpt lat="34.7524963762486" lon="-6.345846439572166"><ele>28.0</ele><time>2026-04-22T14:55:38.999Z</time></trkpt><trkpt lat="34.75224965939741" lon="-6.34603068281583"><ele>28.0</ele><time>2026-04-22T14:55:39.999Z</time></trkpt><trkpt lat="34.752003749015245" lon="-6.3462161729391715"><ele>28.0</ele><time>2026-04-22T14:55:40.999Z</time></trkpt><trkpt lat="34.75175766421013" lon="-6.346403743597963"><ele>28.0</ele><time>2026-04-22T14:55:41.999Z</time></trkpt><trkpt lat="34.75151102580069" lon="-6.346593198466739"><ele>28.0</ele><time>2026-04-22T14:55:42.999Z</time></trkpt><trkpt lat="34.75126528022019" lon="-6.346780216413432"><ele>28.0</ele><time>2026-04-22T14:55:43.999Z</time></trkpt><trkpt lat="34.751021221475014" lon="-6.346970616903376"><ele>28.5</ele><time>2026-04-22T14:55:44.999Z</time></trkpt><trkpt lat="34.75077617480743" lon="-6.347157930399418"><ele>29.0</ele><time>2026-04-22T14:55:45.999Z</time></trkpt><trkpt lat="34.7505310013057" lon="-6.34734530476056"><ele>29.0</ele><time>2026-04-22T14:55:46.999Z</time></trkpt><trkpt lat="34.75028494678289" lon="-6.3475332773381"><ele>29.0</ele><time>2026-04-22T14:55:47.999Z</time></trkpt><trkpt lat="34.750040555190374" lon="-6.34771922560551"><ele>29.0</ele><time>2026-04-22T14:55:48.999Z</time></trkpt><trkpt lat="34.74979788902443" lon="-6.347907195069213"><ele>29.0</ele><time>2026-04-22T14:55:49.999Z</time></trkpt><trkpt lat="34.74955308911754" lon="-6.348090663596094"><ele>28.5</ele><time>2026-04-22T14:55:50.999Z</time></trkpt><trkpt lat="34.74930939753753" lon="-6.348278932982651"><ele>28.0</ele><time>2026-04-22T14:55:51.999Z</time></trkpt><trkpt lat="34.749065228651766" lon="-6.348468478041775"><ele>28.0</ele><time>2026-04-22T14:55:52.999Z</time></trkpt><trkpt lat="34.748821864600444" lon="-6.348659618323589"><ele>28.0</ele><time>2026-04-22T14:55:53.999Z</time></trkpt><trkpt lat="34.7485763476701" lon="-6.348849906645409"><ele>29.0</ele><time>2026-04-22T14:55:54.999Z</time></trkpt><trkpt lat="34.74833192318553" lon="-6.349043045191323"><ele>30.0</ele><time>2026-04-22T14:55:55.999Z</time></trkpt><trkpt lat="34.74808875916618" lon="-6.34924167165614"><ele>30.0</ele><time>2026-04-22T14:55:56.999Z</time></trkpt><trkpt lat="34.747844542821106" lon="-6.34943594764472"><ele>30.0</ele><time>2026-04-22T14:55:57.999Z</time></trkpt><trkpt lat="34.74760098970775" lon="-6.349631133366789"><ele>30.0</ele><time>2026-04-22T14:55:58.999Z</time></trkpt><trkpt lat="34.74735679111808" lon="-6.349821317609163"><ele>30.0</ele><time>2026-04-22T14:55:59.999Z</time></trkpt><trkpt lat="34.74712096116764" lon="-6.350028725467076"><ele>30.0</ele><time>2026-04-22T14:56:00.999Z</time></trkpt><trkpt lat="34.74688472289562" lon="-6.350233638808557"><ele>30.0</ele><time>2026-04-22T14:56:01.999Z</time></trkpt><trkpt lat="34.7466498998019" lon="-6.350440507239809"><ele>31.5</ele><time>2026-04-22T14:56:02.999Z</time></trkpt><trkpt lat="34.746416533058216" lon="-6.350648717608325"><ele>33.0</ele><time>2026-04-22T14:56:03.999Z</time></trkpt><trkpt lat="34.74618401474268" lon="-6.350859960875933"><ele>32.5</ele><time>2026-04-22T14:56:04.999Z</time></trkpt><trkpt lat="34.74595378445937" lon="-6.351075989281659"><ele>32.0</ele><time>2026-04-22T14:56:05.999Z</time></trkpt><trkpt lat="34.745725980222964" lon="-6.351297546957119"><ele>33.0</ele><time>2026-04-22T14:56:06.999Z</time></trkpt><trkpt lat="34.74550079444397" lon="-6.351522092235195"><ele>34.0</ele><time>2026-04-22T14:56:07.999Z</time></trkpt><trkpt lat="34.74527719497637" lon="-6.351746825278224"><ele>34.0</ele><time>2026-04-22T14:56:08.999Z</time></trkpt><trkpt lat="34.74505427023971" lon="-6.351971582709449"><ele>34.0</ele><time>2026-04-22T14:56:09.999Z</time></trkpt><trkpt lat="34.74483134686546" lon="-6.352198070812983"><ele>35.5</ele><time>2026-04-22T14:56:10.999Z</time></trkpt><trkpt lat="34.74460821347012" lon="-6.352424486657212"><ele>37.0</ele><time>2026-04-22T14:56:11.999Z</time></trkpt><trkpt lat="34.74438600694369" lon="-6.352650842994529"><ele>36.0</ele><time>2026-04-22T14:56:12.999Z</time></trkpt><trkpt lat="34.74416467887743" lon="-6.3528800609124305"><ele>35.0</ele><time>2026-04-22T14:56:13.999Z</time></trkpt><trkpt lat="34.74394411964146" lon="-6.3531084261339865"><ele>34.0</ele><time>2026-04-22T14:56:14.999Z</time></trkpt><trkpt lat="34.74372447881685" lon="-6.353339499534188"><ele>33.0</ele><time>2026-04-22T14:56:15.999Z</time></trkpt><trkpt lat="34.74350507035491" lon="-6.35357224324674"><ele>33.0</ele><time>2026-04-22T14:56:16.999Z</time></trkpt><trkpt lat="34.743284360115766" lon="-6.353802576360759"><ele>33.0</ele><time>2026-04-22T14:56:17.999Z</time></trkpt><trkpt lat="34.74306344401511" lon="-6.354030868319004"><ele>32.5</ele><time>2026-04-22T14:56:18.999Z</time></trkpt><trkpt lat="34.74284410708006" lon="-6.354261837857405"><ele>32.0</ele><time>2026-04-22T14:56:19.999Z</time></trkpt><trkpt lat="34.74262653100557" lon="-6.354492041424709"><ele>33.5</ele><time>2026-04-22T14:56:20.999Z</time></trkpt><trkpt lat="34.742410756825755" lon="-6.354718642676031"><ele>35.0</ele><time>2026-04-22T14:56:21.999Z</time></trkpt><trkpt lat="34.74219999431515" lon="-6.35494146678746"><ele>35.0</ele><time>2026-04-22T14:56:22.999Z</time></trkpt><trkpt lat="34.7419974445471" lon="-6.3551611100317995"><ele>35.0</ele><time>2026-04-22T14:56:23.999Z</time></trkpt><trkpt lat="34.74180307883988" lon="-6.355373123192246"><ele>37.0</ele><time>2026-04-22T14:56:24.999Z</time></trkpt><trkpt lat="34.741616427659636" lon="-6.355575548214262"><ele>39.0</ele><time>2026-04-22T14:56:25.999Z</time></trkpt><trkpt lat="34.74143410158169" lon="-6.355768280441007"><ele>39.0</ele><time>2026-04-22T14:56:26.999Z</time></trkpt><trkpt lat="34.74125681434286" lon="-6.355951846747082"><ele>39.0</ele><time>2026-04-22T14:56:27.999Z</time></trkpt><trkpt lat="34.741082873077254" lon="-6.356131297397935"><ele>39.0</ele><time>2026-04-22T14:56:28.999Z</time></trkpt><trkpt lat="34.74091147139708" lon="-6.356311340606285"><ele>39.0</ele><time>2026-04-22T14:56:29.999Z</time></trkpt><trkpt lat="34.740744087970285" lon="-6.356491666600144"><ele>39.0</ele><time>2026-04-22T14:56:30.999Z</time></trkpt><trkpt lat="34.740579964449296" lon="-6.35666771811952"><ele>39.0</ele><time>2026-04-22T14:56:31.999Z</time></trkpt><trkpt lat="34.740417707547046" lon="-6.356840541770848"><ele>39.0</ele><time>2026-04-22T14:56:32.999Z</time></trkpt><trkpt lat="34.740256683388374" lon="-6.357010591462742"><ele>39.0</ele><time>2026-04-22T14:56:33.999Z</time></trkpt><trkpt lat="34.74009720094326" lon="-6.357174023081295"><ele>39.0</ele><time>2026-04-22T14:56:34.999Z</time></trkpt><trkpt lat="34.739939684714955" lon="-6.357342189268213"><ele>39.0</ele><time>2026-04-22T14:56:35.999Z</time></trkpt><trkpt lat="34.73978363595596" lon="-6.357512237189896"><ele>39.0</ele><time>2026-04-22T14:56:36.999Z</time></trkpt><trkpt lat="34.739626936914654" lon="-6.357680495156361"><ele>39.0</ele><time>2026-04-22T14:56:37.999Z</time></trkpt><trkpt lat="34.739468899759764" lon="-6.357850193422614"><ele>39.0</ele><time>2026-04-22T14:56:38.999Z</time></trkpt><trkpt lat="34.73930940235632" lon="-6.358021794501969"><ele>39.0</ele><time>2026-04-22T14:56:39.999Z</time></trkpt><trkpt lat="34.73913881824166" lon="-6.358191041196143"><ele>39.0</ele><time>2026-04-22T14:56:40.999Z</time></trkpt><trkpt lat="34.73896103908784" lon="-6.358373694574537"><ele>39.0</ele><time>2026-04-22T14:56:41.999Z</time></trkpt><trkpt lat="34.73876938200983" lon="-6.358554488378476"><ele>39.0</ele><time>2026-04-22T14:56:42.999Z</time></trkpt><trkpt lat="34.7385685272459" lon="-6.358742426806064"><ele>38.0</ele><time>2026-04-22T14:56:43.999Z</time></trkpt><trkpt lat="34.7383587525035" lon="-6.358936694403634"><ele>37.0</ele><time>2026-04-22T14:56:44.999Z</time></trkpt><trkpt lat="34.73813979724052" lon="-6.359139868689483"><ele>37.0</ele><time>2026-04-22T14:56:45.999Z</time></trkpt><trkpt lat="34.73791462448469" lon="-6.3593478485967765"><ele>37.0</ele><time>2026-04-22T14:56:46.999Z</time></trkpt><trkpt lat="34.7376857593461" lon="-6.359552663839713"><ele>36.0</ele><time>2026-04-22T14:56:47.999Z</time></trkpt><trkpt lat="34.73745251448328" lon="-6.359751582570697"><ele>35.0</ele><time>2026-04-22T14:56:48.999Z</time></trkpt><trkpt lat="34.73721835727917" lon="-6.359955679055735"><ele>35.0</ele><time>2026-04-22T14:56:49.999Z</time></trkpt><trkpt lat="34.73697976310842" lon="-6.36015696567705"><ele>35.0</ele><time>2026-04-22T14:56:50.999Z</time></trkpt><trkpt lat="34.736739206830926" lon="-6.360356003652388"><ele>35.5</ele><time>2026-04-22T14:56:51.999Z</time></trkpt><trkpt lat="34.7364964280765" lon="-6.36055246197073"><ele>36.0</ele><time>2026-04-22T14:56:52.999Z</time></trkpt><trkpt lat="34.73624969699243" lon="-6.36074118374654"><ele>35.5</ele><time>2026-04-22T14:56:53.999Z</time></trkpt><trkpt lat="34.736001551743634" lon="-6.36092615882101"><ele>35.0</ele><time>2026-04-22T14:56:54.999Z</time></trkpt><trkpt lat="34.73575193409225" lon="-6.361110129104151"><ele>35.0</ele><time>2026-04-22T14:56:55.999Z</time></trkpt><trkpt lat="34.735501038409325" lon="-6.361294014668119"><ele>35.0</ele><time>2026-04-22T14:56:56.999Z</time></trkpt><trkpt lat="34.73524690624503" lon="-6.361472440456747"><ele>35.5</ele><time>2026-04-22T14:56:57.999Z</time></trkpt><trkpt lat="34.73499161365533" lon="-6.361647452149992"><ele>36.0</ele><time>2026-04-22T14:56:58.999Z</time></trkpt><trkpt lat="34.73473509548164" lon="-6.361818474596807"><ele>36.0</ele><time>2026-04-22T14:56:59.999Z</time></trkpt><trkpt lat="34.734477118348096" lon="-6.361984521990711"><ele>36.0</ele><time>2026-04-22T14:57:00.999Z</time></trkpt><trkpt lat="34.73421757410285" lon="-6.362148522027333"><ele>36.0</ele><time>2026-04-22T14:57:01.999Z</time></trkpt><trkpt lat="34.7339605064814" lon="-6.362311845726346"><ele>36.0</ele><time>2026-04-22T14:57:02.999Z</time></trkpt><trkpt lat="34.733702675182826" lon="-6.362470119326271"><ele>35.5</ele><time>2026-04-22T14:57:03.999Z</time></trkpt><trkpt lat="34.733444104386216" lon="-6.362628467889853"><ele>35.0</ele><time>2026-04-22T14:57:04.999Z</time></trkpt><trkpt lat="34.7331839629941" lon="-6.36278431743785"><ele>35.0</ele><time>2026-04-22T14:57:05.999Z</time></trkpt><trkpt lat="34.73292247112005" lon="-6.362937950606055"><ele>35.0</ele><time>2026-04-22T14:57:06.999Z</time></trkpt><trkpt lat="34.73265970593416" lon="-6.3630878882088755"><ele>35.0</ele><time>2026-04-22T14:57:07.999Z</time></trkpt><trkpt lat="34.73239628729265" lon="-6.363234464685051"><ele>35.0</ele><time>2026-04-22T14:57:08.999Z</time></trkpt><trkpt lat="34.73213419158139" lon="-6.363385296114467"><ele>35.0</ele><time>2026-04-22T14:57:09.998Z</time></trkpt><trkpt lat="34.73187060358643" lon="-6.363536260586541"><ele>35.0</ele><time>2026-04-22T14:57:10.998Z</time></trkpt><trkpt lat="34.731606092090324" lon="-6.363686541121104"><ele>35.0</ele><time>2026-04-22T14:57:12Z</time></trkpt><trkpt lat="34.731341892244494" lon="-6.363837674990818"><ele>35.0</ele><time>2026-04-22T14:57:13Z</time></trkpt><trkpt lat="34.73107763300138" lon="-6.363986774840652"><ele>35.0</ele><time>2026-04-22T14:57:14Z</time></trkpt><trkpt lat="34.73081375737389" lon="-6.364137661070924"><ele>35.0</ele><time>2026-04-22T14:57:15Z</time></trkpt><trkpt lat="34.73054954273672" lon="-6.364290237890704"><ele>35.0</ele><time>2026-04-22T14:57:16Z</time></trkpt><trkpt lat="34.73028601666686" lon="-6.364442325369179"><ele>35.0</ele><time>2026-04-22T14:57:17Z</time></trkpt><trkpt lat="34.73002057617004" lon="-6.364595372189264"><ele>35.0</ele><time>2026-04-22T14:57:18Z</time></trkpt><trkpt lat="34.72975582107249" lon="-6.364747694218763"><ele>35.0</ele><time>2026-04-22T14:57:19Z</time></trkpt><trkpt lat="34.72949276107535" lon="-6.364898969297635"><ele>34.0</ele><time>2026-04-22T14:57:20Z</time></trkpt><trkpt lat="34.72923107384044" lon="-6.3650486530006045"><ele>33.0</ele><time>2026-04-22T14:57:21Z</time></trkpt><trkpt lat="34.7289704943605" lon="-6.3651998240220315"><ele>33.0</ele><time>2026-04-22T14:57:22Z</time></trkpt><trkpt lat="34.72870942572578" lon="-6.365351104103832"><ele>33.0</ele><time>2026-04-22T14:57:23Z</time></trkpt><trkpt lat="34.72844971319597" lon="-6.365502446477442"><ele>32.5</ele><time>2026-04-22T14:57:24Z</time></trkpt><trkpt lat="34.728190418160615" lon="-6.365657346434131"><ele>32.0</ele><time>2026-04-22T14:57:25Z</time></trkpt><trkpt lat="34.72793138147416" lon="-6.365811462984295"><ele>32.5</ele><time>2026-04-22T14:57:26Z</time></trkpt><trkpt lat="34.727670745454695" lon="-6.365967389805224"><ele>33.0</ele><time>2026-04-22T14:57:27Z</time></trkpt><trkpt lat="34.72740889431512" lon="-6.366117004125744"><ele>33.0</ele><time>2026-04-22T14:57:28Z</time></trkpt><trkpt lat="34.727147480072716" lon="-6.366266261297857"><ele>33.0</ele><time>2026-04-22T14:57:29Z</time></trkpt><trkpt lat="34.7268858886098" lon="-6.366412831968199"><ele>32.5</ele><time>2026-04-22T14:57:30Z</time></trkpt><trkpt lat="34.726624648049054" lon="-6.366564251083091"><ele>32.0</ele><time>2026-04-22T14:57:31Z</time></trkpt><trkpt lat="34.72636021769198" lon="-6.366708563247742"><ele>32.0</ele><time>2026-04-22T14:57:32Z</time></trkpt><trkpt lat="34.72609629610748" lon="-6.36685393187883"><ele>32.0</ele><time>2026-04-22T14:57:33Z</time></trkpt><trkpt lat="34.72583279510922" lon="-6.367004522419355"><ele>32.0</ele><time>2026-04-22T14:57:34Z</time></trkpt><trkpt lat="34.725571479878944" lon="-6.367159445316354"><ele>32.0</ele><time>2026-04-22T14:57:35Z</time></trkpt><trkpt lat="34.72530918236212" lon="-6.367310922274232"><ele>30.5</ele><time>2026-04-22T14:57:36Z</time></trkpt><trkpt lat="34.72504537596197" lon="-6.367459734358091"><ele>29.0</ele><time>2026-04-22T14:57:37Z</time></trkpt><trkpt lat="34.724781145220284" lon="-6.367610592391979"><ele>29.0</ele><time>2026-04-22T14:57:38Z</time></trkpt><trkpt lat="34.72451560303683" lon="-6.367760233261941"><ele>29.0</ele><time>2026-04-22T14:57:39Z</time></trkpt><trkpt lat="34.724252097064834" lon="-6.3679119876998005"><ele>29.0</ele><time>2026-04-22T14:57:40Z</time></trkpt><trkpt lat="34.723988961807606" lon="-6.368062007860838"><ele>29.0</ele><time>2026-04-22T14:57:41Z</time></trkpt><trkpt lat="34.723725456157666" lon="-6.368212716194013"><ele>29.5</ele><time>2026-04-22T14:57:42Z</time></trkpt><trkpt lat="34.72346350107189" lon="-6.368367247040664"><ele>30.0</ele><time>2026-04-22T14:57:43Z</time></trkpt><trkpt lat="34.72320382512576" lon="-6.368528831710402"><ele>30.0</ele><time>2026-04-22T14:57:44Z</time></trkpt><trkpt lat="34.722947020436756" lon="-6.36869429043992"><ele>30.0</ele><time>2026-04-22T14:57:45Z</time></trkpt><trkpt lat="34.72268638242807" lon="-6.368848702282404"><ele>30.0</ele><time>2026-04-22T14:57:45.999Z</time></trkpt><trkpt lat="34.722425098767275" lon="-6.36900337162445"><ele>30.0</ele><time>2026-04-22T14:57:46.999Z</time></trkpt><trkpt lat="34.72216341985518" lon="-6.369155871955898"><ele>30.0</ele><time>2026-04-22T14:57:47.999Z</time></trkpt><trkpt lat="34.7219000542087" lon="-6.369307086931923"><ele>30.0</ele><time>2026-04-22T14:57:48.999Z</time></trkpt><trkpt lat="34.72163756347473" lon="-6.369457816155752"><ele>30.5</ele><time>2026-04-22T14:57:49.999Z</time></trkpt><trkpt lat="34.72137464622632" lon="-6.369608824693438"><ele>31.0</ele><time>2026-04-22T14:57:50.999Z</time></trkpt><trkpt lat="34.72111069059865" lon="-6.3697569713354305"><ele>30.5</ele><time>2026-04-22T14:57:51.999Z</time></trkpt><trkpt lat="34.72084654994797" lon="-6.369905370406333"><ele>30.0</ele><time>2026-04-22T14:57:52.999Z</time></trkpt><trkpt lat="34.72058133354723" lon="-6.370054113584054"><ele>30.0</ele><time>2026-04-22T14:57:53.999Z</time></trkpt><trkpt lat="34.720317893465335" lon="-6.370204800278257"><ele>30.0</ele><time>2026-04-22T14:57:54.999Z</time></trkpt><trkpt lat="34.72005311854677" lon="-6.370358962568136"><ele>30.0</ele><time>2026-04-22T14:57:55.999Z</time></trkpt><trkpt lat="34.71978984108986" lon="-6.370513175103902"><ele>30.0</ele><time>2026-04-22T14:57:56.999Z</time></trkpt><trkpt lat="34.71952558405797" lon="-6.370664450400053"><ele>30.0</ele><time>2026-04-22T14:57:57.999Z</time></trkpt><trkpt lat="34.71926181199974" lon="-6.370815584103951"><ele>30.0</ele><time>2026-04-22T14:57:58.999Z</time></trkpt><trkpt lat="34.7189956936602" lon="-6.370964642656966"><ele>30.0</ele><time>2026-04-22T14:57:59.999Z</time></trkpt><trkpt lat="34.71873006341042" lon="-6.371111522501808"><ele>30.0</ele><time>2026-04-22T14:58:00.999Z</time></trkpt><trkpt lat="34.718462928260614" lon="-6.371254759831339"><ele>29.0</ele><time>2026-04-22T14:58:01.999Z</time></trkpt><trkpt lat="34.71819565106902" lon="-6.371396818183072"><ele>28.0</ele><time>2026-04-22T14:58:02.999Z</time></trkpt><trkpt lat="34.717927133566775" lon="-6.3715365717044525"><ele>28.5</ele><time>2026-04-22T14:58:03.999Z</time></trkpt><trkpt lat="34.71765962003825" lon="-6.371673708934197"><ele>29.0</ele><time>2026-04-22T14:58:04.999Z</time></trkpt><trkpt lat="34.71739254082622" lon="-6.371803561732901"><ele>29.0</ele><time>2026-04-22T14:58:05.999Z</time></trkpt><trkpt lat="34.717123151218814" lon="-6.371927731415434"><ele>29.0</ele><time>2026-04-22T14:58:06.999Z</time></trkpt><trkpt lat="34.71685108358359" lon="-6.372049444217957"><ele>28.0</ele><time>2026-04-22T14:58:07.999Z</time></trkpt><trkpt lat="34.71657871019383" lon="-6.372178077831802"><ele>27.0</ele><time>2026-04-22T14:58:08.999Z</time></trkpt><trkpt lat="34.71630605596321" lon="-6.3723085437653015"><ele>25.5</ele><time>2026-04-22T14:58:09.999Z</time></trkpt><trkpt lat="34.71603237554176" lon="-6.372435107600685"><ele>24.0</ele><time>2026-04-22T14:58:10.999Z</time></trkpt><trkpt lat="34.71575572657528" lon="-6.3725582148827"><ele>24.0</ele><time>2026-04-22T14:58:11.999Z</time></trkpt><trkpt lat="34.71547779006743" lon="-6.372678386575026"><ele>24.0</ele><time>2026-04-22T14:58:12.999Z</time></trkpt><trkpt lat="34.71520263366415" lon="-6.372803699363734"><ele>25.0</ele><time>2026-04-22T14:58:13.999Z</time></trkpt><trkpt lat="34.71492940580097" lon="-6.37293292419415"><ele>26.0</ele><time>2026-04-22T14:58:14.999Z</time></trkpt><trkpt lat="34.71465880146112" lon="-6.373068243846351"><ele>28.0</ele><time>2026-04-22T14:58:15.999Z</time></trkpt><trkpt lat="34.714389911481675" lon="-6.373197509784899"><ele>30.0</ele><time>2026-04-22T14:58:16.999Z</time></trkpt><trkpt lat="34.714114432011584" lon="-6.373322542015766"><ele>30.0</ele><time>2026-04-22T14:58:17.999Z</time></trkpt><trkpt lat="34.71383928734964" lon="-6.3734393347926"><ele>30.0</ele><time>2026-04-22T14:58:18.999Z</time></trkpt><trkpt lat="34.713562699218365" lon="-6.373546549230044"><ele>31.0</ele><time>2026-04-22T14:58:19.999Z</time></trkpt><trkpt lat="34.7132862927044" lon="-6.373654415228838"><ele>32.0</ele><time>2026-04-22T14:58:20.999Z</time></trkpt><trkpt lat="34.71300912862028" lon="-6.373769238992072"><ele>31.5</ele><time>2026-04-22T14:58:21.999Z</time></trkpt><trkpt lat="34.712734173108714" lon="-6.373891197715998"><ele>31.0</ele><time>2026-04-22T14:58:22.999Z</time></trkpt><trkpt lat="34.71245874264479" lon="-6.374014401559485"><ele>31.0</ele><time>2026-04-22T14:58:23.999Z</time></trkpt><trkpt lat="34.7121814853417" lon="-6.3741391031742145"><ele>31.0</ele><time>2026-04-22T14:58:24.999Z</time></trkpt><trkpt lat="34.71190457550274" lon="-6.37426219611832"><ele>31.0</ele><time>2026-04-22T14:58:25.999Z</time></trkpt><trkpt lat="34.71162770958317" lon="-6.374384837608656"><ele>31.0</ele><time>2026-04-22T14:58:26.999Z</time></trkpt><trkpt lat="34.711351796114165" lon="-6.3745067210873"><ele>31.0</ele><time>2026-04-22T14:58:27.999Z</time></trkpt><trkpt lat="34.711076413379224" lon="-6.374628720803366"><ele>31.0</ele><time>2026-04-22T14:58:28.999Z</time></trkpt><trkpt lat="34.71080454702196" lon="-6.37474925582389"><ele>30.0</ele><time>2026-04-22T14:58:29.999Z</time></trkpt><trkpt lat="34.710542895355374" lon="-6.374866040361388"><ele>29.0</ele><time>2026-04-22T14:58:30.999Z</time></trkpt><trkpt lat="34.71029176180568" lon="-6.374978371829105"><ele>29.5</ele><time>2026-04-22T14:58:31.999Z</time></trkpt><trkpt lat="34.71004924105624" lon="-6.37508668296884"><ele>30.0</ele><time>2026-04-22T14:58:32.999Z</time></trkpt><trkpt lat="34.7098165742333" lon="-6.375190529238658"><ele>30.0</ele><time>2026-04-22T14:58:33.999Z</time></trkpt><trkpt lat="34.7095917928531" lon="-6.3752911586867755"><ele>30.0</ele><time>2026-04-22T14:58:34.999Z</time></trkpt><trkpt lat="34.709373846637824" lon="-6.375388696114948"><ele>30.5</ele><time>2026-04-22T14:58:35.999Z</time></trkpt><trkpt lat="34.70915918884529" lon="-6.375484238626683"><ele>31.0</ele><time>2026-04-22T14:58:36.999Z</time></trkpt><trkpt lat="34.70894647187052" lon="-6.375578341785178"><ele>31.0</ele><time>2026-04-22T14:58:37.999Z</time></trkpt><trkpt lat="34.70873524938505" lon="-6.375671320063062"><ele>31.0</ele><time>2026-04-22T14:58:38.999Z</time></trkpt><trkpt lat="34.70852631480521" lon="-6.375763264041358"><ele>31.0</ele><time>2026-04-22T14:58:39.999Z</time></trkpt><trkpt lat="34.70832069227224" lon="-6.375855653850402"><ele>30.666666666666668</ele><time>2026-04-22T14:58:40.999Z</time></trkpt><trkpt lat="34.70811578407134" lon="-6.375946751252961"><ele>30.333333333333336</ele><time>2026-04-22T14:58:41.999Z</time></trkpt><trkpt lat="34.70790403142689" lon="-6.376040539463317"><ele>30.0</ele><time>2026-04-22T14:58:42.999Z</time></trkpt><trkpt lat="34.7076809499882" lon="-6.376139710082435"><ele>30.0</ele><time>2026-04-22T14:58:43.999Z</time></trkpt><trkpt lat="34.70744876090392" lon="-6.376242922379653"><ele>30.0</ele><time>2026-04-22T14:58:44.999Z</time></trkpt><trkpt lat="34.7072072858901" lon="-6.376348211874624"><ele>30.0</ele><time>2026-04-22T14:58:45.999Z</time></trkpt><trkpt lat="34.70695674895304" lon="-6.3764574364768"><ele>30.0</ele><time>2026-04-22T14:58:46.999Z</time></trkpt><trkpt lat="34.70669661570329" lon="-6.376571285166978"><ele>30.0</ele><time>2026-04-22T14:58:47.999Z</time></trkpt><trkpt lat="34.70643051105547" lon="-6.376689607816504"><ele>30.0</ele><time>2026-04-22T14:58:48.999Z</time></trkpt><trkpt lat="34.7061619965894" lon="-6.376810943835924"><ele>31.5</ele><time>2026-04-22T14:58:49.999Z</time></trkpt><trkpt lat="34.705892432660896" lon="-6.376933805742941"><ele>33.0</ele><time>2026-04-22T14:58:50.999Z</time></trkpt><trkpt lat="34.70562169950261" lon="-6.377055891113334"><ele>33.0</ele><time>2026-04-22T14:58:51.999Z</time></trkpt><trkpt lat="34.705349862326706" lon="-6.377177211518988"><ele>33.0</ele><time>2026-04-22T14:58:52.999Z</time></trkpt><trkpt lat="34.7050767179987" lon="-6.377301461551984"><ele>33.0</ele><time>2026-04-22T14:58:53.999Z</time></trkpt><trkpt lat="34.704802596871936" lon="-6.377423276077082"><ele>33.0</ele><time>2026-04-22T14:58:54.999Z</time></trkpt><trkpt lat="34.7045289799284" lon="-6.377544434396531"><ele>32.0</ele><time>2026-04-22T14:58:55.999Z</time></trkpt><trkpt lat="34.70425515344855" lon="-6.377663554407035"><ele>31.0</ele><time>2026-04-22T14:58:56.999Z</time></trkpt><trkpt lat="34.70398323547882" lon="-6.377784936466175"><ele>31.0</ele><time>2026-04-22T14:58:57.999Z</time></trkpt><trkpt lat="34.703711097031864" lon="-6.377906608909418"><ele>31.0</ele><time>2026-04-22T14:58:58.999Z</time></trkpt><trkpt lat="34.703438015147896" lon="-6.378029169201547"><ele>30.5</ele><time>2026-04-22T14:58:59.999Z</time></trkpt><trkpt lat="34.70316561845203" lon="-6.3781498646735395"><ele>30.0</ele><time>2026-04-22T14:59:00.999Z</time></trkpt><trkpt lat="34.7028932869225" lon="-6.378270563763413"><ele>30.5</ele><time>2026-04-22T14:59:01.999Z</time></trkpt><trkpt lat="34.702620994432465" lon="-6.3783921872653"><ele>31.0</ele><time>2026-04-22T14:59:02.999Z</time></trkpt><trkpt lat="34.70234826711392" lon="-6.378513080164878"><ele>31.0</ele><time>2026-04-22T14:59:03.999Z</time></trkpt><trkpt lat="34.70207456135252" lon="-6.3786335966075125"><ele>31.0</ele><time>2026-04-22T14:59:04.999Z</time></trkpt><trkpt lat="34.7018007180049" lon="-6.378753205270839"><ele>30.5</ele><time>2026-04-22T14:59:05.999Z</time></trkpt><trkpt lat="34.70152632861976" lon="-6.378873523411417"><ele>30.0</ele><time>2026-04-22T14:59:06.999Z</time></trkpt><trkpt lat="34.70125157189398" lon="-6.37899494300282"><ele>31.0</ele><time>2026-04-22T14:59:07.999Z</time></trkpt><trkpt lat="34.70097618873573" lon="-6.379115705238369"><ele>32.0</ele><time>2026-04-22T14:59:08.999Z</time></trkpt><trkpt lat="34.70069752093101" lon="-6.3792370927947415"><ele>32.0</ele><time>2026-04-22T14:59:09.999Z</time></trkpt><trkpt lat="34.70041955239347" lon="-6.379358776621012"><ele>32.0</ele><time>2026-04-22T14:59:10.999Z</time></trkpt><trkpt lat="34.70014274440953" lon="-6.3794860950360945"><ele>32.5</ele><time>2026-04-22T14:59:11.999Z</time></trkpt><trkpt lat="34.6998679287427" lon="-6.379612207866433"><ele>33.0</ele><time>2026-04-22T14:59:12.999Z</time></trkpt><trkpt lat="34.69959653795724" lon="-6.37973452604285"><ele>33.5</ele><time>2026-04-22T14:59:13.999Z</time></trkpt><trkpt lat="34.699326207268165" lon="-6.3798571914760736"><ele>34.0</ele><time>2026-04-22T14:59:14.999Z</time></trkpt><trkpt lat="34.6990575221537" lon="-6.379984405638733"><ele>34.0</ele><time>2026-04-22T14:59:15.999Z</time></trkpt><trkpt lat="34.698788378728956" lon="-6.3801101959444395"><ele>34.0</ele><time>2026-04-22T14:59:16.999Z</time></trkpt><trkpt lat="34.698518840970934" lon="-6.380234950748201"><ele>33.5</ele><time>2026-04-22T14:59:18Z</time></trkpt><trkpt lat="34.698248827606996" lon="-6.380357392807148"><ele>33.0</ele><time>2026-04-22T14:59:19Z</time></trkpt><trkpt lat="34.69797760080922" lon="-6.380475879917806"><ele>33.5</ele><time>2026-04-22T14:59:20Z</time></trkpt><trkpt lat="34.69770554221047" lon="-6.380594171248011"><ele>34.0</ele><time>2026-04-22T14:59:21Z</time></trkpt><trkpt lat="34.697430813607525" lon="-6.380711514398071"><ele>34.0</ele><time>2026-04-22T14:59:22Z</time></trkpt><trkpt lat="34.697156671249715" lon="-6.380828427145454"><ele>34.0</ele><time>2026-04-22T14:59:23Z</time></trkpt><trkpt lat="34.696881721456535" lon="-6.380944761671797"><ele>33.0</ele><time>2026-04-22T14:59:24Z</time></trkpt><trkpt lat="34.69660753294354" lon="-6.3810633431988"><ele>32.0</ele><time>2026-04-22T14:59:25Z</time></trkpt><trkpt lat="34.696333116377296" lon="-6.381182548504815"><ele>31.5</ele><time>2026-04-22T14:59:26Z</time></trkpt><trkpt lat="34.69606496064319" lon="-6.3813001049146125"><ele>31.0</ele><time>2026-04-22T14:59:27Z</time></trkpt><trkpt lat="34.69580458142831" lon="-6.381399535347525"><ele>31.0</ele><time>2026-04-22T14:59:28Z</time></trkpt><trkpt lat="34.69554972735752" lon="-6.38149791465898"><ele>31.0</ele><time>2026-04-22T14:59:29Z</time></trkpt><trkpt lat="34.695297862330335" lon="-6.38159712657656"><ele>30.5</ele><time>2026-04-22T14:59:30Z</time></trkpt><trkpt lat="34.69505434505177" lon="-6.381688540797368"><ele>30.0</ele><time>2026-04-22T14:59:31Z</time></trkpt><trkpt lat="34.69481969292192" lon="-6.381771425162385"><ele>30.0</ele><time>2026-04-22T14:59:32Z</time></trkpt><trkpt lat="34.69459108860095" lon="-6.3818507939918945"><ele>30.0</ele><time>2026-04-22T14:59:33Z</time></trkpt><trkpt lat="34.6943690137201" lon="-6.381923861247898"><ele>30.333333333333336</ele><time>2026-04-22T14:59:34Z</time></trkpt><trkpt lat="34.694156025595795" lon="-6.381992933658396"><ele>30.666666666666668</ele><time>2026-04-22T14:59:35Z</time></trkpt><trkpt lat="34.69395272561294" lon="-6.382057659960532"><ele>31.0</ele><time>2026-04-22T14:59:36Z</time></trkpt><trkpt lat="34.693760096362254" lon="-6.38211643547054"><ele>30.666666666666668</ele><time>2026-04-22T14:59:37Z</time></trkpt><trkpt lat="34.69357476163379" lon="-6.38217085174911"><ele>30.333333333333336</ele><time>2026-04-22T14:59:38Z</time></trkpt><trkpt lat="34.69340158125364" lon="-6.382219345310202"><ele>30.0</ele><time>2026-04-22T14:59:39Z</time></trkpt><trkpt lat="34.69323961620096" lon="-6.382264214703266"><ele>30.0</ele><time>2026-04-22T14:59:40Z</time></trkpt><trkpt lat="34.69309155171384" lon="-6.382306336313321"><ele>30.0</ele><time>2026-04-22T14:59:41Z</time></trkpt><trkpt lat="34.692953262821646" lon="-6.382342500456266"><ele>30.0</ele><time>2026-04-22T14:59:42Z</time></trkpt><trkpt lat="34.69281835654983" lon="-6.382378966986023"><ele>30.0</ele><time>2026-04-22T14:59:43Z</time></trkpt><trkpt lat="34.69268432524146" lon="-6.382415544916965"><ele>30.0</ele><time>2026-04-22T14:59:44Z</time></trkpt><trkpt lat="34.69254699242357" lon="-6.382455626691914"><ele>30.0</ele><time>2026-04-22T14:59:45Z</time></trkpt><trkpt lat="34.69240342396309" lon="-6.382500811372833"><ele>30.0</ele><time>2026-04-22T14:59:46Z</time></trkpt><trkpt lat="34.692248608300034" lon="-6.382548890524322"><ele>30.0</ele><time>2026-04-22T14:59:47Z</time></trkpt><trkpt lat="34.69208262836586" lon="-6.3825976972693805"><ele>29.666666666666664</ele><time>2026-04-22T14:59:48Z</time></trkpt><trkpt lat="34.69190628812597" lon="-6.382646395588479"><ele>29.333333333333332</ele><time>2026-04-22T14:59:49Z</time></trkpt><trkpt lat="34.69171893668749" lon="-6.382696728399628"><ele>29.0</ele><time>2026-04-22T14:59:50Z</time></trkpt><trkpt lat="34.6915207511447" lon="-6.382747810555228"><ele>29.0</ele><time>2026-04-22T14:59:50.999Z</time></trkpt><trkpt lat="34.69131480535974" lon="-6.382799923522494"><ele>29.0</ele><time>2026-04-22T14:59:51.999Z</time></trkpt><trkpt lat="34.69109627716655" lon="-6.382852442450867"><ele>29.0</ele><time>2026-04-22T14:59:52.999Z</time></trkpt><trkpt lat="34.69086833841277" lon="-6.382908582298147"><ele>29.0</ele><time>2026-04-22T14:59:53.999Z</time></trkpt><trkpt lat="34.69063106572249" lon="-6.3829674324819985"><ele>29.0</ele><time>2026-04-22T14:59:54.999Z</time></trkpt><trkpt lat="34.690387581274095" lon="-6.383030955373282"><ele>28.0</ele><time>2026-04-22T14:59:55.999Z</time></trkpt><trkpt lat="34.69013755946446" lon="-6.383092816962479"><ele>27.0</ele><time>2026-04-22T14:59:56.999Z</time></trkpt><trkpt lat="34.68988195786105" lon="-6.383156563447904"><ele>27.0</ele><time>2026-04-22T14:59:57.999Z</time></trkpt><trkpt lat="34.68962067802404" lon="-6.383223084935547"><ele>27.0</ele><time>2026-04-22T14:59:58.999Z</time></trkpt><trkpt lat="34.68935499494825" lon="-6.3832879435050005"><ele>26.5</ele><time>2026-04-22T14:59:59.999Z</time></trkpt><trkpt lat="34.6890865423966" lon="-6.383353790173382"><ele>26.0</ele><time>2026-04-22T15:00:00.999Z</time></trkpt><trkpt lat="34.68881307513624" lon="-6.383420939768147"><ele>26.0</ele><time>2026-04-22T15:00:01.999Z</time></trkpt><trkpt lat="34.688535301738085" lon="-6.383492459491737"><ele>26.0</ele><time>2026-04-22T15:00:02.999Z</time></trkpt><trkpt lat="34.688252967958576" lon="-6.383558599602434"><ele>26.0</ele><time>2026-04-22T15:00:03.999Z</time></trkpt><trkpt lat="34.6879692009837" lon="-6.383629030242219"><ele>26.0</ele><time>2026-04-22T15:00:04.999Z</time></trkpt><trkpt lat="34.68768473922395" lon="-6.383699017084927"><ele>25.5</ele><time>2026-04-22T15:00:05.999Z</time></trkpt><trkpt lat="34.687398108088956" lon="-6.383770481554872"><ele>25.0</ele><time>2026-04-22T15:00:06.999Z</time></trkpt><trkpt lat="34.68711159950078" lon="-6.383838831863216"><ele>25.5</ele><time>2026-04-22T15:00:07.999Z</time></trkpt><trkpt lat="34.686824659896054" lon="-6.383908873242509"><ele>26.0</ele><time>2026-04-22T15:00:08.999Z</time></trkpt><trkpt lat="34.68653651609086" lon="-6.383980181855931"><ele>26.0</ele><time>2026-04-22T15:00:09.999Z</time></trkpt><trkpt lat="34.68625015915077" lon="-6.384051312425913"><ele>26.0</ele><time>2026-04-22T15:00:10.999Z</time></trkpt><trkpt lat="34.6859645182429" lon="-6.384123658358132"><ele>26.0</ele><time>2026-04-22T15:00:11.999Z</time></trkpt><trkpt lat="34.68567833045726" lon="-6.384195102584734"><ele>26.0</ele><time>2026-04-22T15:00:12.999Z</time></trkpt><trkpt lat="34.685392766716426" lon="-6.3842731140355715"><ele>25.5</ele><time>2026-04-22T15:00:13.999Z</time></trkpt><trkpt lat="34.68510994579393" lon="-6.3843562887599346"><ele>25.0</ele><time>2026-04-22T15:00:14.999Z</time></trkpt><trkpt lat="34.684828396335455" lon="-6.3844438168296405"><ele>25.0</ele><time>2026-04-22T15:00:15.999Z</time></trkpt><trkpt lat="34.684547180507906" lon="-6.384538412818873"><ele>25.0</ele><time>2026-04-22T15:00:16.999Z</time></trkpt><trkpt lat="34.6842659706223" lon="-6.384630712733636"><ele>25.5</ele><time>2026-04-22T15:00:17.999Z</time></trkpt><trkpt lat="34.68398588640468" lon="-6.38472657907266"><ele>26.0</ele><time>2026-04-22T15:00:18.999Z</time></trkpt><trkpt lat="34.68370714884031" lon="-6.384824531231928"><ele>25.5</ele><time>2026-04-22T15:00:19.999Z</time></trkpt><trkpt lat="34.68342889541527" lon="-6.384927663654789"><ele>25.0</ele><time>2026-04-22T15:00:20.999Z</time></trkpt><trkpt lat="34.68315027596917" lon="-6.385033167368429"><ele>25.0</ele><time>2026-04-22T15:00:21.999Z</time></trkpt><trkpt lat="34.68287438527518" lon="-6.385141685039728"><ele>25.0</ele><time>2026-04-22T15:00:22.999Z</time></trkpt><trkpt lat="34.68259840516704" lon="-6.3852510277977395"><ele>23.5</ele><time>2026-04-22T15:00:23.999Z</time></trkpt><trkpt lat="34.68232238615205" lon="-6.3853654063117515"><ele>22.0</ele><time>2026-04-22T15:00:24.999Z</time></trkpt><trkpt lat="34.68204990017669" lon="-6.3854884725062515"><ele>21.5</ele><time>2026-04-22T15:00:25.999Z</time></trkpt><trkpt lat="34.68177990464815" lon="-6.385613924596128"><ele>21.0</ele><time>2026-04-22T15:00:26.999Z</time></trkpt><trkpt lat="34.68150920414018" lon="-6.3857399604501435"><ele>21.0</ele><time>2026-04-22T15:00:27.999Z</time></trkpt><trkpt lat="34.68123931764035" lon="-6.385864684077696"><ele>21.0</ele><time>2026-04-22T15:00:28.999Z</time></trkpt><trkpt lat="34.68096895402581" lon="-6.385992696273654"><ele>21.0</ele><time>2026-04-22T15:00:29.999Z</time></trkpt><trkpt lat="34.68069578642192" lon="-6.386115903735444"><ele>21.0</ele><time>2026-04-22T15:00:30.999Z</time></trkpt><trkpt lat="34.68042329987825" lon="-6.386234341522968"><ele>22.0</ele><time>2026-04-22T15:00:31.999Z</time></trkpt><trkpt lat="34.68014869145196" lon="-6.386350482170578"><ele>23.0</ele><time>2026-04-22T15:00:32.999Z</time></trkpt><trkpt lat="34.679871036028466" lon="-6.386462679226207"><ele>23.0</ele><time>2026-04-22T15:00:33.999Z</time></trkpt><trkpt lat="34.67959134849373" lon="-6.386570299342787"><ele>23.0</ele><time>2026-04-22T15:00:34.999Z</time></trkpt><trkpt lat="34.67931269719119" lon="-6.386675003823852"><ele>22.5</ele><time>2026-04-22T15:00:35.999Z</time></trkpt><trkpt lat="34.67903331306954" lon="-6.38677786660639"><ele>22.0</ele><time>2026-04-22T15:00:36.999Z</time></trkpt><trkpt lat="34.678752047543114" lon="-6.386879092644678"><ele>21.0</ele><time>2026-04-22T15:00:37.999Z</time></trkpt><trkpt lat="34.67847067121068" lon="-6.386975408108955"><ele>20.0</ele><time>2026-04-22T15:00:38.999Z</time></trkpt><trkpt lat="34.67818777050708" lon="-6.387065406091359"><ele>20.0</ele><time>2026-04-22T15:00:39.999Z</time></trkpt><trkpt lat="34.67790461372654" lon="-6.387151713426466"><ele>20.0</ele><time>2026-04-22T15:00:40.999Z</time></trkpt><trkpt lat="34.6776209320846" lon="-6.387234837415912"><ele>20.5</ele><time>2026-04-22T15:00:41.999Z</time></trkpt><trkpt lat="34.677337222308225" lon="-6.3873198022721835"><ele>21.0</ele><time>2026-04-22T15:00:42.999Z</time></trkpt><trkpt lat="34.67705305650663" lon="-6.387400588317547"><ele>20.0</ele><time>2026-04-22T15:00:43.999Z</time></trkpt><trkpt lat="34.676767842054375" lon="-6.387477987946417"><ele>19.0</ele><time>2026-04-22T15:00:44.999Z</time></trkpt><trkpt lat="34.676482032962724" lon="-6.387545515450497"><ele>19.0</ele><time>2026-04-22T15:00:45.999Z</time></trkpt><trkpt lat="34.67619554021455" lon="-6.387605003513327"><ele>19.0</ele><time>2026-04-22T15:00:46.999Z</time></trkpt><trkpt lat="34.67590850528042" lon="-6.387657007882974"><ele>19.5</ele><time>2026-04-22T15:00:47.999Z</time></trkpt><trkpt lat="34.675620551299495" lon="-6.387707967935196"><ele>20.0</ele><time>2026-04-22T15:00:48.999Z</time></trkpt><trkpt lat="34.67533236932614" lon="-6.387753217015081"><ele>20.5</ele><time>2026-04-22T15:00:49.999Z</time></trkpt><trkpt lat="34.67504394628754" lon="-6.38779103550006"><ele>21.0</ele><time>2026-04-22T15:00:50.999Z</time></trkpt><trkpt lat="34.674755332446026" lon="-6.387828636426977"><ele>21.0</ele><time>2026-04-22T15:00:51.999Z</time></trkpt><trkpt lat="34.67446626839585" lon="-6.387869803060155"><ele>21.0</ele><time>2026-04-22T15:00:52.999Z</time></trkpt><trkpt lat="34.67417718883942" lon="-6.387909816898797"><ele>20.0</ele><time>2026-04-22T15:00:53.999Z</time></trkpt><trkpt lat="34.6738871888333" lon="-6.38795149353067"><ele>19.0</ele><time>2026-04-22T15:00:54.999Z</time></trkpt><trkpt lat="34.673596546172185" lon="-6.387992581873201"><ele>20.5</ele><time>2026-04-22T15:00:55.999Z</time></trkpt><trkpt lat="34.6733071715687" lon="-6.388033599466258"><ele>22.0</ele><time>2026-04-22T15:00:56.999Z</time></trkpt><trkpt lat="34.673018095520966" lon="-6.3880699573853805"><ele>22.0</ele><time>2026-04-22T15:00:57.999Z</time></trkpt><trkpt lat="34.672729966715394" lon="-6.388106964515062"><ele>22.0</ele><time>2026-04-22T15:00:58.999Z</time></trkpt><trkpt lat="34.67244150356975" lon="-6.3881450309495635"><ele>22.0</ele><time>2026-04-22T15:00:59.999Z</time></trkpt><trkpt lat="34.67215242574582" lon="-6.388183326458754"><ele>22.0</ele><time>2026-04-22T15:01:00.999Z</time></trkpt><trkpt lat="34.671863833458154" lon="-6.388221265307106"><ele>21.0</ele><time>2026-04-22T15:01:01.999Z</time></trkpt><trkpt lat="34.671576716958796" lon="-6.388260946316542"><ele>20.0</ele><time>2026-04-22T15:01:02.999Z</time></trkpt><trkpt lat="34.67128850403039" lon="-6.388301097627828"><ele>19.0</ele><time>2026-04-22T15:01:03.999Z</time></trkpt><trkpt lat="34.67100031815761" lon="-6.388345583360419"><ele>18.0</ele><time>2026-04-22T15:01:04.999Z</time></trkpt><trkpt lat="34.67071330012025" lon="-6.388391636603587"><ele>18.0</ele><time>2026-04-22T15:01:05.999Z</time></trkpt><trkpt lat="34.67042643893222" lon="-6.388442426565422"><ele>18.0</ele><time>2026-04-22T15:01:06.999Z</time></trkpt><trkpt lat="34.67014133822862" lon="-6.388502402102113"><ele>18.0</ele><time>2026-04-22T15:01:07.999Z</time></trkpt><trkpt lat="34.669855906854536" lon="-6.38856564505697"><ele>18.0</ele><time>2026-04-22T15:01:08.999Z</time></trkpt><trkpt lat="34.66957149402611" lon="-6.388638518806526"><ele>17.5</ele><time>2026-04-22T15:01:09.999Z</time></trkpt><trkpt lat="34.66928681349776" lon="-6.388711751612947"><ele>17.0</ele><time>2026-04-22T15:01:10.999Z</time></trkpt><trkpt lat="34.66900425785153" lon="-6.388790364039952"><ele>18.5</ele><time>2026-04-22T15:01:11.999Z</time></trkpt><trkpt lat="34.668721799149964" lon="-6.388871962520167"><ele>20.0</ele><time>2026-04-22T15:01:12.999Z</time></trkpt><trkpt lat="34.66843899069267" lon="-6.388956915892256"><ele>20.5</ele><time>2026-04-22T15:01:13.999Z</time></trkpt><trkpt lat="34.668158725374816" lon="-6.389050388262615"><ele>21.0</ele><time>2026-04-22T15:01:14.999Z</time></trkpt><trkpt lat="34.66787937767713" lon="-6.38915036789186"><ele>21.0</ele><time>2026-04-22T15:01:15.999Z</time></trkpt><trkpt lat="34.6676013271032" lon="-6.389258850717194"><ele>21.0</ele><time>2026-04-22T15:01:16.999Z</time></trkpt><trkpt lat="34.66732433513562" lon="-6.389375484272662"><ele>21.0</ele><time>2026-04-22T15:01:17.999Z</time></trkpt><trkpt lat="34.66705001145809" lon="-6.389496567766034"><ele>21.0</ele><time>2026-04-22T15:01:18.999Z</time></trkpt><trkpt lat="34.66677623665122" lon="-6.3896246711613385"><ele>22.0</ele><time>2026-04-22T15:01:19.999Z</time></trkpt><trkpt lat="34.66650575628401" lon="-6.389758111924797"><ele>23.0</ele><time>2026-04-22T15:01:20.999Z</time></trkpt><trkpt lat="34.66623518666792" lon="-6.3898977406846305"><ele>23.0</ele><time>2026-04-22T15:01:21.998Z</time></trkpt><trkpt lat="34.66596952275546" lon="-6.39003362371384"><ele>23.0</ele><time>2026-04-22T15:01:22.998Z</time></trkpt><trkpt lat="34.66569680865099" lon="-6.390178299054803"><ele>23.0</ele><time>2026-04-22T15:01:24Z</time></trkpt><trkpt lat="34.66543962824183" lon="-6.3903342751543155"><ele>23.0</ele><time>2026-04-22T15:01:25Z</time></trkpt><trkpt lat="34.66518347714081" lon="-6.390493214612109"><ele>23.5</ele><time>2026-04-22T15:01:26Z</time></trkpt><trkpt lat="34.66492985285776" lon="-6.390656300582279"><ele>24.0</ele><time>2026-04-22T15:01:27Z</time></trkpt><trkpt lat="34.664677274851904" lon="-6.390823914233436"><ele>24.5</ele><time>2026-04-22T15:01:28Z</time></trkpt><trkpt lat="34.66442606192841" lon="-6.390998393395672"><ele>25.0</ele><time>2026-04-22T15:01:29Z</time></trkpt><trkpt lat="34.664176857659776" lon="-6.391179153121002"><ele>25.5</ele><time>2026-04-22T15:01:30Z</time></trkpt><trkpt lat="34.663930293715424" lon="-6.391363614230322"><ele>26.0</ele><time>2026-04-22T15:01:31Z</time></trkpt><trkpt lat="34.663684471691916" lon="-6.391550552224056"><ele>26.5</ele><time>2026-04-22T15:01:32Z</time></trkpt><trkpt lat="34.66344146949396" lon="-6.391739807905685"><ele>27.0</ele><time>2026-04-22T15:01:33Z</time></trkpt><trkpt lat="34.66320131360414" lon="-6.391936699034833"><ele>27.0</ele><time>2026-04-22T15:01:34Z</time></trkpt><trkpt lat="34.66296368314056" lon="-6.392139369630613"><ele>27.0</ele><time>2026-04-22T15:01:35Z</time></trkpt><trkpt lat="34.6627289257315" lon="-6.3923479772681295"><ele>25.5</ele><time>2026-04-22T15:01:36Z</time></trkpt><trkpt lat="34.66249576846166" lon="-6.392560229233622"><ele>24.0</ele><time>2026-04-22T15:01:37Z</time></trkpt><trkpt lat="34.66226408643808" lon="-6.392772382962363"><ele>24.0</ele><time>2026-04-22T15:01:38Z</time></trkpt><trkpt lat="34.66203676960323" lon="-6.3929914981873"><ele>24.0</ele><time>2026-04-22T15:01:39Z</time></trkpt><trkpt lat="34.66181444873006" lon="-6.393215192764478"><ele>24.5</ele><time>2026-04-22T15:01:40Z</time></trkpt><trkpt lat="34.661595398016324" lon="-6.393446536827608"><ele>25.0</ele><time>2026-04-22T15:01:41Z</time></trkpt><trkpt lat="34.66137736223493" lon="-6.393681882275831"><ele>25.0</ele><time>2026-04-22T15:01:42Z</time></trkpt><trkpt lat="34.661159682419594" lon="-6.393917369445762"><ele>25.0</ele><time>2026-04-22T15:01:43Z</time></trkpt><trkpt lat="34.66093976364752" lon="-6.3941500546880174"><ele>25.0</ele><time>2026-04-22T15:01:44Z</time></trkpt><trkpt lat="34.66072006437562" lon="-6.3943807942351345"><ele>25.0</ele><time>2026-04-22T15:01:45Z</time></trkpt><trkpt lat="34.660499238029544" lon="-6.394613934852803"><ele>24.5</ele><time>2026-04-22T15:01:46Z</time></trkpt><trkpt lat="34.66027793812545" lon="-6.394847871774481"><ele>24.0</ele><time>2026-04-22T15:01:47Z</time></trkpt><trkpt lat="34.66005706506723" lon="-6.395080524528726"><ele>24.0</ele><time>2026-04-22T15:01:48Z</time></trkpt><trkpt lat="34.65983637759534" lon="-6.395313138295008"><ele>24.0</ele><time>2026-04-22T15:01:49Z</time></trkpt><trkpt lat="34.65961522776673" lon="-6.395546438098535"><ele>22.5</ele><time>2026-04-22T15:01:50Z</time></trkpt><trkpt lat="34.65939475942939" lon="-6.395778969139327"><ele>21.0</ele><time>2026-04-22T15:01:51Z</time></trkpt><trkpt lat="34.65917424076552" lon="-6.396009441993258"><ele>21.0</ele><time>2026-04-22T15:01:52Z</time></trkpt><trkpt lat="34.65895249922944" lon="-6.396233155994198"><ele>21.0</ele><time>2026-04-22T15:01:52.999Z</time></trkpt><trkpt lat="34.65872697567473" lon="-6.396453162609026"><ele>21.0</ele><time>2026-04-22T15:01:53.999Z</time></trkpt><trkpt lat="34.65849829983695" lon="-6.396668127794535"><ele>21.0</ele><time>2026-04-22T15:01:54.999Z</time></trkpt><trkpt lat="34.65826698341905" lon="-6.396878112323693"><ele>21.0</ele><time>2026-04-22T15:01:55.999Z</time></trkpt><trkpt lat="34.658034649413075" lon="-6.3970848854421165"><ele>21.0</ele><time>2026-04-22T15:01:56.999Z</time></trkpt><trkpt lat="34.657801576336105" lon="-6.397289745888045"><ele>20.0</ele><time>2026-04-22T15:01:57.999Z</time></trkpt><trkpt lat="34.65756618056998" lon="-6.39749172722187"><ele>19.0</ele><time>2026-04-22T15:01:58.999Z</time></trkpt><trkpt lat="34.65732743351546" lon="-6.397691922842443"><ele>19.0</ele><time>2026-04-22T15:01:59.999Z</time></trkpt><trkpt lat="34.65708834843294" lon="-6.397886013591915"><ele>19.0</ele><time>2026-04-22T15:02:00.999Z</time></trkpt><trkpt lat="34.65684686859557" lon="-6.398075699226586"><ele>19.0</ele><time>2026-04-22T15:02:01.999Z</time></trkpt><trkpt lat="34.656608764781886" lon="-6.398257305628951"><ele>19.0</ele><time>2026-04-22T15:02:02.999Z</time></trkpt><trkpt lat="34.6563895525161" lon="-6.398416309428865"><ele>19.0</ele><time>2026-04-22T15:02:03.999Z</time></trkpt><trkpt lat="34.65617853744798" lon="-6.398569589251028"><ele>19.0</ele><time>2026-04-22T15:02:04.999Z</time></trkpt><trkpt lat="34.655975336336596" lon="-6.398715446979451"><ele>22.5</ele><time>2026-04-22T15:02:05.999Z</time></trkpt><trkpt lat="34.655778255693974" lon="-6.398850850824902"><ele>26.0</ele><time>2026-04-22T15:02:06.999Z</time></trkpt><trkpt lat="34.65557447595502" lon="-6.398986995970269"><ele>26.0</ele><time>2026-04-22T15:02:07.999Z</time></trkpt><trkpt lat="34.65535415340705" lon="-6.399130837605728"><ele>26.0</ele><time>2026-04-22T15:02:08.999Z</time></trkpt><trkpt lat="34.65512460440911" lon="-6.399275371434027"><ele>23.5</ele><time>2026-04-22T15:02:09.999Z</time></trkpt><trkpt lat="34.654885252207976" lon="-6.399422280310712"><ele>21.0</ele><time>2026-04-22T15:02:10.999Z</time></trkpt><trkpt lat="34.6546386095024" lon="-6.399569829239242"><ele>23.0</ele><time>2026-04-22T15:02:11.999Z</time></trkpt><trkpt lat="34.65438547818441" lon="-6.399718164962552"><ele>25.0</ele><time>2026-04-22T15:02:12.999Z</time></trkpt><trkpt lat="34.6541279660257" lon="-6.399867029038696"><ele>25.0</ele><time>2026-04-22T15:02:13.999Z</time></trkpt><trkpt lat="34.65386906557129" lon="-6.400022025121856"><ele>25.0</ele><time>2026-04-22T15:02:14.999Z</time></trkpt><trkpt lat="34.653605764150626" lon="-6.400169859180982"><ele>23.5</ele><time>2026-04-22T15:02:15.999Z</time></trkpt><trkpt lat="34.653343234114885" lon="-6.400319982390589"><ele>22.0</ele><time>2026-04-22T15:02:16.999Z</time></trkpt><trkpt lat="34.653080313208406" lon="-6.400470341994174"><ele>22.0</ele><time>2026-04-22T15:02:17.999Z</time></trkpt><trkpt lat="34.652816440486966" lon="-6.400622234925799"><ele>22.0</ele><time>2026-04-22T15:02:18.999Z</time></trkpt><trkpt lat="34.65255260483221" lon="-6.40077306553217"><ele>22.0</ele><time>2026-04-22T15:02:19.999Z</time></trkpt><trkpt lat="34.65228712747421" lon="-6.4009213098575"><ele>22.0</ele><time>2026-04-22T15:02:20.999Z</time></trkpt><trkpt lat="34.6520228216466" lon="-6.401074706599737"><ele>21.5</ele><time>2026-04-22T15:02:21.999Z</time></trkpt><trkpt lat="34.65176099558626" lon="-6.401228760437186"><ele>21.0</ele><time>2026-04-22T15:02:22.999Z</time></trkpt><trkpt lat="34.65150026750876" lon="-6.401383701066092"><ele>21.0</ele><time>2026-04-22T15:02:23.999Z</time></trkpt><trkpt lat="34.651245180936506" lon="-6.401543672286036"><ele>21.0</ele><time>2026-04-22T15:02:24.999Z</time></trkpt><trkpt lat="34.650994222247235" lon="-6.401700534361194"><ele>21.5</ele><time>2026-04-22T15:02:25.999Z</time></trkpt><trkpt lat="34.650743410820944" lon="-6.401861337008782"><ele>22.0</ele><time>2026-04-22T15:02:26.999Z</time></trkpt><trkpt lat="34.650495186666305" lon="-6.402030012056496"><ele>22.0</ele><time>2026-04-22T15:02:27.999Z</time></trkpt><trkpt lat="34.65024476802248" lon="-6.402200439948053"><ele>22.0</ele><time>2026-04-22T15:02:28.999Z</time></trkpt><trkpt lat="34.64999487290846" lon="-6.402368792852654"><ele>22.0</ele><time>2026-04-22T15:02:29.999Z</time></trkpt><trkpt lat="34.64974796440523" lon="-6.402542402292595"><ele>22.0</ele><time>2026-04-22T15:02:30.999Z</time></trkpt><trkpt lat="34.64950664220331" lon="-6.402727529451141"><ele>22.0</ele><time>2026-04-22T15:02:31.999Z</time></trkpt><trkpt lat="34.64926992141368" lon="-6.402910154001045"><ele>22.0</ele><time>2026-04-22T15:02:32.999Z</time></trkpt><trkpt lat="34.64904332400528" lon="-6.403092907262336"><ele>22.5</ele><time>2026-04-22T15:02:33.999Z</time></trkpt><trkpt lat="34.64882225077019" lon="-6.40327174952256"><ele>23.0</ele><time>2026-04-22T15:02:34.999Z</time></trkpt><trkpt lat="34.64860727917217" lon="-6.403449580269602"><ele>23.0</ele><time>2026-04-22T15:02:35.999Z</time></trkpt><trkpt lat="34.648398423566036" lon="-6.4036282483412235"><ele>23.0</ele><time>2026-04-22T15:02:36.999Z</time></trkpt><trkpt lat="34.64819658387679" lon="-6.403806713190433"><ele>24.5</ele><time>2026-04-22T15:02:37.999Z</time></trkpt><trkpt lat="34.64800079702249" lon="-6.403987442862636"><ele>26.0</ele><time>2026-04-22T15:02:38.999Z</time></trkpt><trkpt lat="34.647811845143174" lon="-6.404163040015069"><ele>25.0</ele><time>2026-04-22T15:02:39.999Z</time></trkpt><trkpt lat="34.64762734741" lon="-6.404335574039786"><ele>24.0</ele><time>2026-04-22T15:02:40.999Z</time></trkpt><trkpt lat="34.64744651863465" lon="-6.404503814560456"><ele>24.333333333333336</ele><time>2026-04-22T15:02:41.999Z</time></trkpt><trkpt lat="34.647268830235795" lon="-6.404665909319245"><ele>24.666666666666668</ele><time>2026-04-22T15:02:42.999Z</time></trkpt><trkpt lat="34.6470956220347" lon="-6.404824800157121"><ele>25.0</ele><time>2026-04-22T15:02:43.999Z</time></trkpt><trkpt lat="34.64693428728776" lon="-6.404979419626329"><ele>25.0</ele><time>2026-04-22T15:02:44.999Z</time></trkpt><trkpt lat="34.6467817919002" lon="-6.405130878135728"><ele>25.0</ele><time>2026-04-22T15:02:45.999Z</time></trkpt><trkpt lat="34.64663823280075" lon="-6.405277610170106"><ele>25.0</ele><time>2026-04-22T15:02:46.999Z</time></trkpt><trkpt lat="34.64650493732398" lon="-6.405423247805609"><ele>25.333333333333336</ele><time>2026-04-22T15:02:47.999Z</time></trkpt><trkpt lat="34.6463811505639" lon="-6.405568740257056"><ele>25.666666666666664</ele><time>2026-04-22T15:02:48.999Z</time></trkpt><trkpt lat="34.64626839549256" lon="-6.405722145382214"><ele>26.0</ele><time>2026-04-22T15:02:49.999Z</time></trkpt><trkpt lat="34.646170763164854" lon="-6.405889638350533"><ele>25.666666666666664</ele><time>2026-04-22T15:02:50.999Z</time></trkpt><trkpt lat="34.6460824183941" lon="-6.406065189478624"><ele>25.333333333333336</ele><time>2026-04-22T15:02:51.999Z</time></trkpt><trkpt lat="34.64599930545712" lon="-6.406213900885835"><ele>25.0</ele><time>2026-04-22T15:02:52.999Z</time></trkpt><trkpt lat="34.64591111054296" lon="-6.4063546416901085"><ele>25.0</ele><time>2026-04-22T15:02:53.999Z</time></trkpt><trkpt lat="34.64582235658939" lon="-6.4064838641701085"><ele>25.0</ele><time>2026-04-22T15:02:54.999Z</time></trkpt><trkpt lat="34.6457309541634" lon="-6.406590860587337"><ele>25.0</ele><time>2026-04-22T15:02:55.999Z</time></trkpt><trkpt lat="34.645634896262635" lon="-6.406678354946573"><ele>25.0</ele><time>2026-04-22T15:02:56.999Z</time></trkpt><trkpt lat="34.645543118719765" lon="-6.406752840193409"><ele>25.0</ele><time>2026-04-22T15:02:57.999Z</time></trkpt><trkpt lat="34.64546151658732" lon="-6.4068289399826615"><ele>25.0</ele><time>2026-04-22T15:02:58.999Z</time></trkpt><trkpt lat="34.645391047317" lon="-6.406914944386533"><ele>25.0</ele><time>2026-04-22T15:02:59.999Z</time></trkpt><trkpt lat="34.64533448637186" lon="-6.407003420427579"><ele>25.0</ele><time>2026-04-22T15:03:00.999Z</time></trkpt><trkpt lat="34.645285236319346" lon="-6.407086227074652"><ele>25.0</ele><time>2026-04-22T15:03:01.999Z</time></trkpt><trkpt lat="34.64524733017522" lon="-6.407161117370913"><ele>25.000000000000004</ele><time>2026-04-22T15:03:02.999Z</time></trkpt><trkpt lat="34.64518737012418" lon="-6.407281735108662"><ele>25.0</ele><time>2026-04-22T15:03:04.999Z</time></trkpt><trkpt lat="34.6451403243055" lon="-6.407374430293575"><ele>25.0</ele><time>2026-04-22T15:03:06.999Z</time></trkpt><trkpt lat="34.64510706977722" lon="-6.407440266614555"><ele>25.0</ele><time>2026-04-22T15:03:08.999Z</time></trkpt><trkpt lat="34.64511711550239" lon="-6.407540035902461"><ele>25.000000000000004</ele><time>2026-04-22T15:07:13.999Z</time></trkpt><trkpt lat="34.6451041557508" lon="-6.407620088827694"><ele>25.0</ele><time>2026-04-22T15:07:15.999Z</time></trkpt><trkpt lat="34.64505333604518" lon="-6.407695593514785"><ele>25.000000000000004</ele><time>2026-04-22T15:07:17.999Z</time></trkpt><trkpt lat="34.6449937142218" lon="-6.407722531757325"><ele>25.0</ele><time>2026-04-22T15:07:23.999Z</time></trkpt><trkpt lat="34.64492749468505" lon="-6.407720577230456"><ele>25.0</ele><time>2026-04-22T15:17:25Z</time></trkpt><trkpt lat="34.64488354317141" lon="-6.40763078159977"><ele>25.0</ele><time>2026-04-22T15:17:27Z</time></trkpt><trkpt lat="34.644818817696645" lon="-6.407537825575463"><ele>25.000000000000004</ele><time>2026-04-22T15:17:29Z</time></trkpt><trkpt lat="34.64471425513456" lon="-6.407491061445267"><ele>25.0</ele><time>2026-04-22T15:17:31Z</time></trkpt><trkpt lat="34.64459505617377" lon="-6.407499790871024"><ele>25.000000000000004</ele><time>2026-04-22T15:17:33Z</time></trkpt><trkpt lat="34.64453009983082" lon="-6.407539221589993"><ele>25.0</ele><time>2026-04-22T15:17:34Z</time></trkpt><trkpt lat="34.64446188992512" lon="-6.407594723043353"><ele>25.0</ele><time>2026-04-22T15:17:35Z</time></trkpt><trkpt lat="34.64437959238873" lon="-6.407639136355203"><ele>25.0</ele><time>2026-04-22T15:17:36Z</time></trkpt><trkpt lat="34.644301978749354" lon="-6.40770139453613"><ele>25.000000000000004</ele><time>2026-04-22T15:17:37Z</time></trkpt><trkpt lat="34.64421689628407" lon="-6.407769627805302"><ele>25.0</ele><time>2026-04-22T15:17:38Z</time></trkpt><trkpt lat="34.64412851712074" lon="-6.407840485930201"><ele>24.75</ele><time>2026-04-22T15:17:39Z</time></trkpt><trkpt lat="34.644037524564034" lon="-6.407913439350298"><ele>24.5</ele><time>2026-04-22T15:17:40Z</time></trkpt><trkpt lat="34.64394329688989" lon="-6.407988986529722"><ele>24.25</ele><time>2026-04-22T15:17:41Z</time></trkpt><trkpt lat="34.64384776553473" lon="-6.408065578936444"><ele>24.0</ele><time>2026-04-22T15:17:42Z</time></trkpt><trkpt lat="34.643751484942534" lon="-6.408142772044427"><ele>24.0</ele><time>2026-04-22T15:17:43Z</time></trkpt><trkpt lat="34.64365509644799" lon="-6.408220051664383"><ele>24.0</ele><time>2026-04-22T15:17:43.999Z</time></trkpt><trkpt lat="34.643556006316594" lon="-6.408299497325766"><ele>24.0</ele><time>2026-04-22T15:17:44.999Z</time></trkpt><trkpt lat="34.643456087516384" lon="-6.408379452913744"><ele>24.0</ele><time>2026-04-22T15:17:45.999Z</time></trkpt><trkpt lat="34.64335711932175" lon="-6.408457596550715"><ele>23.75</ele><time>2026-04-22T15:17:46.999Z</time></trkpt><trkpt lat="34.64325878229644" lon="-6.4085352418118235"><ele>23.5</ele><time>2026-04-22T15:17:47.999Z</time></trkpt><trkpt lat="34.643154361289945" lon="-6.408595394422154"><ele>23.25</ele><time>2026-04-22T15:17:48.999Z</time></trkpt><trkpt lat="34.643046996485616" lon="-6.408644483610783"><ele>23.0</ele><time>2026-04-22T15:17:49.999Z</time></trkpt><trkpt lat="34.642932863639324" lon="-6.408677203385996"><ele>23.0</ele><time>2026-04-22T15:17:50.999Z</time></trkpt><trkpt lat="34.64281282862444" lon="-6.408694376108279"><ele>23.0</ele><time>2026-04-22T15:17:51.999Z</time></trkpt><trkpt lat="34.642688495561735" lon="-6.408704292972411"><ele>23.0</ele><time>2026-04-22T15:17:52.999Z</time></trkpt><trkpt lat="34.6425581009027" lon="-6.408715525800784"><ele>23.0</ele><time>2026-04-22T15:17:53.999Z</time></trkpt><trkpt lat="34.642419876054696" lon="-6.408728880945876"><ele>22.333333333333336</ele><time>2026-04-22T15:17:54.999Z</time></trkpt><trkpt lat="34.642272517490305" lon="-6.408751650242713"><ele>21.666666666666668</ele><time>2026-04-22T15:17:55.999Z</time></trkpt><trkpt lat="34.64212864653256" lon="-6.4087905867948525"><ele>21.0</ele><time>2026-04-22T15:17:56.999Z</time></trkpt><trkpt lat="34.64198084192929" lon="-6.408844773277151"><ele>22.0</ele><time>2026-04-22T15:17:57.999Z</time></trkpt><trkpt lat="34.64183577624329" lon="-6.408903555102813"><ele>23.0</ele><time>2026-04-22T15:17:58.999Z</time></trkpt><trkpt lat="34.64168847747501" lon="-6.4089632921778295"><ele>24.0</ele><time>2026-04-22T15:17:59.999Z</time></trkpt><trkpt lat="34.64154071985971" lon="-6.409023747252422"><ele>24.0</ele><time>2026-04-22T15:18:00.999Z</time></trkpt><trkpt lat="34.64139323163841" lon="-6.409083771163342"><ele>24.0</ele><time>2026-04-22T15:18:01.999Z</time></trkpt><trkpt lat="34.64124451445586" lon="-6.409144011035446"><ele>24.0</ele><time>2026-04-22T15:18:02.999Z</time></trkpt><trkpt lat="34.641090721112604" lon="-6.409206488229206"><ele>23.0</ele><time>2026-04-22T15:18:03.999Z</time></trkpt><trkpt lat="34.640953215588915" lon="-6.409340755381828"><ele>22.0</ele><time>2026-04-22T15:18:04.999Z</time></trkpt><trkpt lat="34.640799380923646" lon="-6.409405201059866"><ele>21.0</ele><time>2026-04-22T15:18:05.999Z</time></trkpt><trkpt lat="34.64064573398689" lon="-6.409473163867224"><ele>21.0</ele><time>2026-04-22T15:18:06.999Z</time></trkpt><trkpt lat="34.64048824540204" lon="-6.409541229618881"><ele>21.0</ele><time>2026-04-22T15:18:07.999Z</time></trkpt><trkpt lat="34.640326786564195" lon="-6.409609471423671"><ele>21.0</ele><time>2026-04-22T15:18:08.999Z</time></trkpt><trkpt lat="34.64014840848966" lon="-6.40968082304703"><ele>21.333333333333332</ele><time>2026-04-22T15:18:09.999Z</time></trkpt><trkpt lat="34.63995033918739" lon="-6.409752299308552"><ele>21.666666666666664</ele><time>2026-04-22T15:18:11Z</time></trkpt><trkpt lat="34.6397449698076" lon="-6.409827814891697"><ele>22.0</ele><time>2026-04-22T15:18:12Z</time></trkpt><trkpt lat="34.63953095282873" lon="-6.409909934886186"><ele>21.0</ele><time>2026-04-22T15:18:13Z</time></trkpt><trkpt lat="34.639306986646744" lon="-6.40999750793009"><ele>20.0</ele><time>2026-04-22T15:18:14Z</time></trkpt><trkpt lat="34.63907314102931" lon="-6.410092397462343"><ele>20.0</ele><time>2026-04-22T15:18:15Z</time></trkpt><trkpt lat="34.638831197695986" lon="-6.410191993012858"><ele>20.0</ele><time>2026-04-22T15:18:16Z</time></trkpt><trkpt lat="34.63858327736679" lon="-6.410295095831829"><ele>20.0</ele><time>2026-04-22T15:18:17Z</time></trkpt><trkpt lat="34.63832976439297" lon="-6.410403058113845"><ele>20.0</ele><time>2026-04-22T15:18:18Z</time></trkpt><trkpt lat="34.63807363783869" lon="-6.410512773146275"><ele>21.0</ele><time>2026-04-22T15:18:19Z</time></trkpt><trkpt lat="34.63781203337765" lon="-6.410626280140815"><ele>22.0</ele><time>2026-04-22T15:18:20Z</time></trkpt><trkpt lat="34.63754635671175" lon="-6.410741397681665"><ele>22.0</ele><time>2026-04-22T15:18:21Z</time></trkpt><trkpt lat="34.637278052188556" lon="-6.410861425511191"><ele>22.0</ele><time>2026-04-22T15:18:22Z</time></trkpt><trkpt lat="34.637008211363195" lon="-6.410988446896068"><ele>22.0</ele><time>2026-04-22T15:18:23Z</time></trkpt><trkpt lat="34.63673899107075" lon="-6.411123047738947"><ele>22.0</ele><time>2026-04-22T15:18:24Z</time></trkpt><trkpt lat="34.63647375895466" lon="-6.411262825717064"><ele>24.0</ele><time>2026-04-22T15:18:25Z</time></trkpt><trkpt lat="34.63621295202599" lon="-6.411405175425341"><ele>26.0</ele><time>2026-04-22T15:18:26Z</time></trkpt><trkpt lat="34.63595538789332" lon="-6.411551417707033"><ele>26.0</ele><time>2026-04-22T15:18:27Z</time></trkpt><trkpt lat="34.635699064198064" lon="-6.4117030639227455"><ele>26.0</ele><time>2026-04-22T15:18:28Z</time></trkpt><trkpt lat="34.63544397921076" lon="-6.411860707673339"><ele>26.0</ele><time>2026-04-22T15:18:29Z</time></trkpt><trkpt lat="34.635189195608916" lon="-6.412021393320984"><ele>26.0</ele><time>2026-04-22T15:18:30Z</time></trkpt><trkpt lat="34.634935644980494" lon="-6.4121871816624045"><ele>26.0</ele><time>2026-04-22T15:18:31Z</time></trkpt><trkpt lat="34.63468503428648" lon="-6.41235870223574"><ele>26.0</ele><time>2026-04-22T15:18:32Z</time></trkpt><trkpt lat="34.6344363753734" lon="-6.41253557639053"><ele>25.5</ele><time>2026-04-22T15:18:33Z</time></trkpt><trkpt lat="34.63418951614143" lon="-6.412718233193843"><ele>25.0</ele><time>2026-04-22T15:18:34Z</time></trkpt><trkpt lat="34.63394463668974" lon="-6.412906214815387"><ele>25.0</ele><time>2026-04-22T15:18:35Z</time></trkpt><trkpt lat="34.633703108151224" lon="-6.4130976140470075"><ele>25.0</ele><time>2026-04-22T15:18:36Z</time></trkpt><trkpt lat="34.63346346397969" lon="-6.413293730737868"><ele>25.0</ele><time>2026-04-22T15:18:37Z</time></trkpt><trkpt lat="34.63322491308976" lon="-6.413492622055672"><ele>25.0</ele><time>2026-04-22T15:18:38Z</time></trkpt><trkpt lat="34.632987661448766" lon="-6.413694794855393"><ele>25.5</ele><time>2026-04-22T15:18:39Z</time></trkpt><trkpt lat="34.632751750136144" lon="-6.413900911711473"><ele>26.0</ele><time>2026-04-22T15:18:40Z</time></trkpt><trkpt lat="34.632518517817836" lon="-6.414112832460424"><ele>26.0</ele><time>2026-04-22T15:18:41Z</time></trkpt><trkpt lat="34.63228898458143" lon="-6.4143291846694375"><ele>26.0</ele><time>2026-04-22T15:18:42Z</time></trkpt><trkpt lat="34.632064258597765" lon="-6.4145518910689185"><ele>24.5</ele><time>2026-04-22T15:18:43Z</time></trkpt><trkpt lat="34.631842155334354" lon="-6.414779711138075"><ele>23.0</ele><time>2026-04-22T15:18:44Z</time></trkpt><trkpt lat="34.63162259851621" lon="-6.415014484062179"><ele>23.0</ele><time>2026-04-22T15:18:45Z</time></trkpt><trkpt lat="34.63140537371419" lon="-6.415254359393804"><ele>23.0</ele><time>2026-04-22T15:18:46Z</time></trkpt><trkpt lat="34.63119062866081" lon="-6.41549725301584"><ele>23.0</ele><time>2026-04-22T15:18:47Z</time></trkpt><trkpt lat="34.63097970025306" lon="-6.415739752121475"><ele>23.0</ele><time>2026-04-22T15:18:48Z</time></trkpt><trkpt lat="34.63077123605412" lon="-6.415983581281116"><ele>23.0</ele><time>2026-04-22T15:18:49Z</time></trkpt><trkpt lat="34.63056232828927" lon="-6.41622781188119"><ele>23.0</ele><time>2026-04-22T15:18:50Z</time></trkpt><trkpt lat="34.630352712420915" lon="-6.41647068191253"><ele>22.5</ele><time>2026-04-22T15:18:51Z</time></trkpt><trkpt lat="34.63014155437747" lon="-6.416711201186434"><ele>22.0</ele><time>2026-04-22T15:18:52Z</time></trkpt><trkpt lat="34.629929016051896" lon="-6.416950148069962"><ele>23.5</ele><time>2026-04-22T15:18:53Z</time></trkpt><trkpt lat="34.62971686856123" lon="-6.417190410256785"><ele>25.0</ele><time>2026-04-22T15:18:54Z</time></trkpt><trkpt lat="34.629506036980466" lon="-6.41743314254853"><ele>23.5</ele><time>2026-04-22T15:18:55Z</time></trkpt><trkpt lat="34.62929628965865" lon="-6.417676631620101"><ele>22.0</ele><time>2026-04-22T15:18:56Z</time></trkpt><trkpt lat="34.629085766166206" lon="-6.41791953852924"><ele>22.5</ele><time>2026-04-22T15:18:57Z</time></trkpt><trkpt lat="34.62887331180662" lon="-6.418157118896729"><ele>23.0</ele><time>2026-04-22T15:18:58Z</time></trkpt><trkpt lat="34.628659967439866" lon="-6.418394136241955"><ele>22.5</ele><time>2026-04-22T15:18:59Z</time></trkpt><trkpt lat="34.62844382281379" lon="-6.418629763963002"><ele>22.0</ele><time>2026-04-22T15:19:00Z</time></trkpt><trkpt lat="34.62822581384117" lon="-6.418862805125222"><ele>22.5</ele><time>2026-04-22T15:19:01Z</time></trkpt><trkpt lat="34.628004046841596" lon="-6.419090675917446"><ele>23.0</ele><time>2026-04-22T15:19:02Z</time></trkpt><trkpt lat="34.62778040261349" lon="-6.4193152976698515"><ele>23.0</ele><time>2026-04-22T15:19:03Z</time></trkpt><trkpt lat="34.62755391533366" lon="-6.419535479104747"><ele>23.0</ele><time>2026-04-22T15:19:04Z</time></trkpt><trkpt lat="34.62732360053482" lon="-6.419749387556504"><ele>23.5</ele><time>2026-04-22T15:19:05Z</time></trkpt><trkpt lat="34.62709041295244" lon="-6.419959321459688"><ele>24.0</ele><time>2026-04-22T15:19:06Z</time></trkpt><trkpt lat="34.62685513567694" lon="-6.420167215576266"><ele>23.0</ele><time>2026-04-22T15:19:07Z</time></trkpt><trkpt lat="34.626618621458206" lon="-6.420372408783892"><ele>22.0</ele><time>2026-04-22T15:19:08Z</time></trkpt><trkpt lat="34.626378468251545" lon="-6.420572136331162"><ele>20.5</ele><time>2026-04-22T15:19:09Z</time></trkpt><trkpt lat="34.62613652328432" lon="-6.420763716161176"><ele>19.0</ele><time>2026-04-22T15:19:10Z</time></trkpt><trkpt lat="34.62588956422176" lon="-6.4209518970946995"><ele>19.0</ele><time>2026-04-22T15:19:11Z</time></trkpt><trkpt lat="34.62564087067395" lon="-6.421135308400127"><ele>19.0</ele><time>2026-04-22T15:19:12Z</time></trkpt><trkpt lat="34.62538900887446" lon="-6.421314737724238"><ele>20.0</ele><time>2026-04-22T15:19:13Z</time></trkpt><trkpt lat="34.62513489354755" lon="-6.421486571111772"><ele>21.0</ele><time>2026-04-22T15:19:14Z</time></trkpt><trkpt lat="34.624878863034915" lon="-6.4216520865064"><ele>21.0</ele><time>2026-04-22T15:19:15Z</time></trkpt><trkpt lat="34.624620835083185" lon="-6.421812522874353"><ele>21.0</ele><time>2026-04-22T15:19:16Z</time></trkpt><trkpt lat="34.624360897503976" lon="-6.421971557860807"><ele>21.0</ele><time>2026-04-22T15:19:17Z</time></trkpt><trkpt lat="34.624100774920244" lon="-6.422132815918022"><ele>21.0</ele><time>2026-04-22T15:19:18Z</time></trkpt><trkpt lat="34.623840115431484" lon="-6.422295937210511"><ele>20.0</ele><time>2026-04-22T15:19:19Z</time></trkpt><trkpt lat="34.62358071038084" lon="-6.422457083020289"><ele>19.0</ele><time>2026-04-22T15:19:20Z</time></trkpt><trkpt lat="34.623320812872954" lon="-6.422618914144676"><ele>19.0</ele><time>2026-04-22T15:19:21Z</time></trkpt><trkpt lat="34.62306195026511" lon="-6.422780923625009"><ele>19.0</ele><time>2026-04-22T15:19:22Z</time></trkpt><trkpt lat="34.62280103575601" lon="-6.422944811378327"><ele>20.0</ele><time>2026-04-22T15:19:23Z</time></trkpt><trkpt lat="34.62253964565008" lon="-6.423105426241586"><ele>21.0</ele><time>2026-04-22T15:19:24Z</time></trkpt><trkpt lat="34.62228000603995" lon="-6.423265730039963"><ele>21.0</ele><time>2026-04-22T15:19:25Z</time></trkpt><trkpt lat="34.62202069942096" lon="-6.423427484814853"><ele>21.0</ele><time>2026-04-22T15:19:26Z</time></trkpt><trkpt lat="34.62176201703161" lon="-6.423593357593675"><ele>20.5</ele><time>2026-04-22T15:19:27Z</time></trkpt><trkpt lat="34.62150761403964" lon="-6.423763719098725"><ele>20.0</ele><time>2026-04-22T15:19:28Z</time></trkpt><trkpt lat="34.62125750325895" lon="-6.423938535199643"><ele>21.0</ele><time>2026-04-22T15:19:29Z</time></trkpt><trkpt lat="34.62100908983508" lon="-6.424117743448612"><ele>22.0</ele><time>2026-04-22T15:19:30Z</time></trkpt><trkpt lat="34.62076340589309" lon="-6.424300357337615"><ele>22.0</ele><time>2026-04-22T15:19:31Z</time></trkpt><trkpt lat="34.620519606802716" lon="-6.424485440151861"><ele>22.0</ele><time>2026-04-22T15:19:32Z</time></trkpt><trkpt lat="34.62027987997589" lon="-6.424671753170097"><ele>22.0</ele><time>2026-04-22T15:19:33Z</time></trkpt><trkpt lat="34.620045229849985" lon="-6.424855818145719"><ele>22.0</ele><time>2026-04-22T15:19:34Z</time></trkpt><trkpt lat="34.619820192579006" lon="-6.425037598365946"><ele>22.0</ele><time>2026-04-22T15:19:34.999Z</time></trkpt><trkpt lat="34.61960653580304" lon="-6.425217201745187"><ele>22.0</ele><time>2026-04-22T15:19:35.999Z</time></trkpt><trkpt lat="34.61940400010852" lon="-6.425394362227274"><ele>22.5</ele><time>2026-04-22T15:19:36.999Z</time></trkpt><trkpt lat="34.619208478840875" lon="-6.425567391323241"><ele>23.0</ele><time>2026-04-22T15:19:37.999Z</time></trkpt><trkpt lat="34.61901137244798" lon="-6.425743837337866"><ele>23.0</ele><time>2026-04-22T15:19:38.999Z</time></trkpt><trkpt lat="34.61880790069863" lon="-6.425934917932859"><ele>23.0</ele><time>2026-04-22T15:19:39.999Z</time></trkpt><trkpt lat="34.61860032819079" lon="-6.426134662396146"><ele>22.5</ele><time>2026-04-22T15:19:40.999Z</time></trkpt><trkpt lat="34.618386270239675" lon="-6.426342387243169"><ele>22.0</ele><time>2026-04-22T15:19:41.999Z</time></trkpt><trkpt lat="34.61816832065468" lon="-6.426556758298748"><ele>22.0</ele><time>2026-04-22T15:19:42.999Z</time></trkpt><trkpt lat="34.61794762121741" lon="-6.4267687797572375"><ele>22.0</ele><time>2026-04-22T15:19:43.999Z</time></trkpt><trkpt lat="34.61771986677371" lon="-6.426981660433291"><ele>22.5</ele><time>2026-04-22T15:19:44.999Z</time></trkpt><trkpt lat="34.6174977504355" lon="-6.427195387858444"><ele>23.0</ele><time>2026-04-22T15:19:45.999Z</time></trkpt><trkpt lat="34.61727460879547" lon="-6.427413151204578"><ele>23.0</ele><time>2026-04-22T15:19:46.999Z</time></trkpt><trkpt lat="34.61705017099467" lon="-6.427631771184961"><ele>23.0</ele><time>2026-04-22T15:19:47.999Z</time></trkpt><trkpt lat="34.61682456038137" lon="-6.427851523550666"><ele>23.5</ele><time>2026-04-22T15:19:48.999Z</time></trkpt><trkpt lat="34.616597052504815" lon="-6.4280704373759505"><ele>24.0</ele><time>2026-04-22T15:19:49.999Z</time></trkpt><trkpt lat="34.616368621208814" lon="-6.42828734597295"><ele>22.0</ele><time>2026-04-22T15:19:50.999Z</time></trkpt><trkpt lat="34.616136624717804" lon="-6.428500505055732"><ele>20.0</ele><time>2026-04-22T15:19:51.999Z</time></trkpt><trkpt lat="34.61590133434783" lon="-6.428706249640801"><ele>22.0</ele><time>2026-04-22T15:19:52.999Z</time></trkpt><trkpt lat="34.61566201798086" lon="-6.4289038835113095"><ele>24.0</ele><time>2026-04-22T15:19:53.999Z</time></trkpt><trkpt lat="34.615419428115935" lon="-6.429096441672445"><ele>21.5</ele><time>2026-04-22T15:19:54.999Z</time></trkpt><trkpt lat="34.61517500658175" lon="-6.429287412308118"><ele>19.0</ele><time>2026-04-22T15:19:55.999Z</time></trkpt><trkpt lat="34.6149285280617" lon="-6.4294705080412"><ele>20.5</ele><time>2026-04-22T15:19:56.999Z</time></trkpt><trkpt lat="34.61467839969219" lon="-6.429650946169234"><ele>22.0</ele><time>2026-04-22T15:19:57.999Z</time></trkpt><trkpt lat="34.614426148708304" lon="-6.429824093254537"><ele>22.0</ele><time>2026-04-22T15:19:58.999Z</time></trkpt><trkpt lat="34.61417317199841" lon="-6.429992967406819"><ele>22.0</ele><time>2026-04-22T15:19:59.999Z</time></trkpt><trkpt lat="34.61391750087272" lon="-6.430158013500211"><ele>22.0</ele><time>2026-04-22T15:20:00.999Z</time></trkpt><trkpt lat="34.61365761337135" lon="-6.430317766519362"><ele>22.0</ele><time>2026-04-22T15:20:01.999Z</time></trkpt><trkpt lat="34.613395068260935" lon="-6.430470350945693"><ele>22.5</ele><time>2026-04-22T15:20:02.999Z</time></trkpt><trkpt lat="34.613130658272325" lon="-6.430618524238232"><ele>23.0</ele><time>2026-04-22T15:20:03.999Z</time></trkpt><trkpt lat="34.612864597105116" lon="-6.430760626867329"><ele>23.0</ele><time>2026-04-22T15:20:04.999Z</time></trkpt><trkpt lat="34.612594947528734" lon="-6.430899559918672"><ele>23.0</ele><time>2026-04-22T15:20:05.999Z</time></trkpt><trkpt lat="34.61232427414877" lon="-6.431032232123882"><ele>23.0</ele><time>2026-04-22T15:20:06.999Z</time></trkpt><trkpt lat="34.612052695674" lon="-6.43116133055089"><ele>23.0</ele><time>2026-04-22T15:20:07.999Z</time></trkpt><trkpt lat="34.61177980327691" lon="-6.431287700820877"><ele>21.5</ele><time>2026-04-22T15:20:08.999Z</time></trkpt><trkpt lat="34.61150574551975" lon="-6.4314072903840644"><ele>20.0</ele><time>2026-04-22T15:20:09.999Z</time></trkpt><trkpt lat="34.61123001929757" lon="-6.431517731840143"><ele>21.5</ele><time>2026-04-22T15:20:10.999Z</time></trkpt><trkpt lat="34.61095228772821" lon="-6.431624081898518"><ele>23.0</ele><time>2026-04-22T15:20:11.999Z</time></trkpt><trkpt lat="34.61067256299005" lon="-6.431724284321729"><ele>23.0</ele><time>2026-04-22T15:20:12.999Z</time></trkpt><trkpt lat="34.610392294340635" lon="-6.431823434936083"><ele>23.0</ele><time>2026-04-22T15:20:13.999Z</time></trkpt><trkpt lat="34.610110792193844" lon="-6.4319179945036975"><ele>22.5</ele><time>2026-04-22T15:20:14.999Z</time></trkpt><trkpt lat="34.60982943411391" lon="-6.432007878225995"><ele>22.0</ele><time>2026-04-22T15:20:15.999Z</time></trkpt><trkpt lat="34.609546673565674" lon="-6.432095302519203"><ele>22.0</ele><time>2026-04-22T15:20:17Z</time></trkpt><trkpt lat="34.609264878592704" lon="-6.43218371332047"><ele>22.0</ele><time>2026-04-22T15:20:18Z</time></trkpt><trkpt lat="34.60898368431543" lon="-6.432275003311046"><ele>22.0</ele><time>2026-04-22T15:20:19Z</time></trkpt><trkpt lat="34.60870167611329" lon="-6.432364575776803"><ele>22.0</ele><time>2026-04-22T15:20:20Z</time></trkpt><trkpt lat="34.608419136913554" lon="-6.4324513503769465"><ele>22.0</ele><time>2026-04-22T15:20:21Z</time></trkpt><trkpt lat="34.60813620822872" lon="-6.432541823132442"><ele>22.0</ele><time>2026-04-22T15:20:22Z</time></trkpt><trkpt lat="34.60785367615308" lon="-6.4326338684256985"><ele>21.5</ele><time>2026-04-22T15:20:23Z</time></trkpt><trkpt lat="34.60757058239569" lon="-6.432726310981134"><ele>21.0</ele><time>2026-04-22T15:20:24Z</time></trkpt><trkpt lat="34.6072879519783" lon="-6.432815333303382"><ele>21.0</ele><time>2026-04-22T15:20:25Z</time></trkpt><trkpt lat="34.60700552172175" lon="-6.432902260261608"><ele>21.0</ele><time>2026-04-22T15:20:26Z</time></trkpt><trkpt lat="34.60672324610887" lon="-6.432993520972282"><ele>21.5</ele><time>2026-04-22T15:20:27Z</time></trkpt><trkpt lat="34.606443102926136" lon="-6.433092629776397"><ele>22.0</ele><time>2026-04-22T15:20:28Z</time></trkpt><trkpt lat="34.60616540415255" lon="-6.433195817681282"><ele>22.0</ele><time>2026-04-22T15:20:29Z</time></trkpt><trkpt lat="34.605887980305155" lon="-6.433304938189642"><ele>22.0</ele><time>2026-04-22T15:20:30Z</time></trkpt><trkpt lat="34.60561329318749" lon="-6.4334203927228675"><ele>22.0</ele><time>2026-04-22T15:20:31Z</time></trkpt><trkpt lat="34.605339451794926" lon="-6.433537558899153"><ele>22.0</ele><time>2026-04-22T15:20:32Z</time></trkpt><trkpt lat="34.605066923923495" lon="-6.433657371968564"><ele>22.0</ele><time>2026-04-22T15:20:33Z</time></trkpt><trkpt lat="34.60479556737379" lon="-6.433782242427185"><ele>22.0</ele><time>2026-04-22T15:20:34Z</time></trkpt><trkpt lat="34.60452545208487" lon="-6.433911248497905"><ele>21.5</ele><time>2026-04-22T15:20:35Z</time></trkpt><trkpt lat="34.60425747380183" lon="-6.434043089048767"><ele>21.0</ele><time>2026-04-22T15:20:36Z</time></trkpt><trkpt lat="34.603991353263524" lon="-6.434178895719176"><ele>21.0</ele><time>2026-04-22T15:20:37Z</time></trkpt><trkpt lat="34.60372687882504" lon="-6.434319261977947"><ele>21.0</ele><time>2026-04-22T15:20:38Z</time></trkpt><trkpt lat="34.60346468692249" lon="-6.434466200785853"><ele>21.0</ele><time>2026-04-22T15:20:39Z</time></trkpt><trkpt lat="34.60320341083129" lon="-6.434617505376873"><ele>21.0</ele><time>2026-04-22T15:20:40Z</time></trkpt><trkpt lat="34.60294344712402" lon="-6.43477288806937"><ele>22.5</ele><time>2026-04-22T15:20:41Z</time></trkpt><trkpt lat="34.60268508922174" lon="-6.434934224801018"><ele>24.0</ele><time>2026-04-22T15:20:42Z</time></trkpt><trkpt lat="34.60242894043157" lon="-6.43510023480797"><ele>24.0</ele><time>2026-04-22T15:20:43Z</time></trkpt><trkpt lat="34.602173874433916" lon="-6.435268889389992"><ele>24.0</ele><time>2026-04-22T15:20:44Z</time></trkpt><trkpt lat="34.60191995997916" lon="-6.435437203271175"><ele>25.0</ele><time>2026-04-22T15:20:45Z</time></trkpt><trkpt lat="34.601664999272195" lon="-6.435605079405497"><ele>26.0</ele><time>2026-04-22T15:20:46Z</time></trkpt><trkpt lat="34.601410244436224" lon="-6.435773047314758"><ele>24.0</ele><time>2026-04-22T15:20:47Z</time></trkpt><trkpt lat="34.60115589607017" lon="-6.435938668428046"><ele>22.0</ele><time>2026-04-22T15:20:48Z</time></trkpt><trkpt lat="34.60090000195802" lon="-6.436105353935458"><ele>22.0</ele><time>2026-04-22T15:20:49Z</time></trkpt><trkpt lat="34.60064299194242" lon="-6.436271330915823"><ele>22.0</ele><time>2026-04-22T15:20:50Z</time></trkpt><trkpt lat="34.600385621852965" lon="-6.436440339427867"><ele>22.5</ele><time>2026-04-22T15:20:51Z</time></trkpt><trkpt lat="34.600128703498385" lon="-6.436607531836222"><ele>23.0</ele><time>2026-04-22T15:20:52Z</time></trkpt><trkpt lat="34.59987184183012" lon="-6.436774698166518"><ele>23.0</ele><time>2026-04-22T15:20:53Z</time></trkpt><trkpt lat="34.5996160714182" lon="-6.436944395408163"><ele>23.0</ele><time>2026-04-22T15:20:54Z</time></trkpt><trkpt lat="34.5993597260206" lon="-6.437113929215187"><ele>23.5</ele><time>2026-04-22T15:20:55Z</time></trkpt><trkpt lat="34.59910360587646" lon="-6.437282738421156"><ele>24.0</ele><time>2026-04-22T15:20:56Z</time></trkpt><trkpt lat="34.598846813397174" lon="-6.4374497198826965"><ele>22.5</ele><time>2026-04-22T15:20:57Z</time></trkpt><trkpt lat="34.598590199033595" lon="-6.437617861931611"><ele>21.0</ele><time>2026-04-22T15:20:58Z</time></trkpt><trkpt lat="34.598334181917906" lon="-6.43778685374663"><ele>21.0</ele><time>2026-04-22T15:20:59Z</time></trkpt><trkpt lat="34.59807899284491" lon="-6.43795456658984"><ele>21.0</ele><time>2026-04-22T15:21:00Z</time></trkpt><trkpt lat="34.59782341282199" lon="-6.438121426826911"><ele>20.5</ele><time>2026-04-22T15:21:01Z</time></trkpt><trkpt lat="34.59756719838713" lon="-6.438288294516555"><ele>20.0</ele><time>2026-04-22T15:21:02Z</time></trkpt><trkpt lat="34.59731127731159" lon="-6.438456457686697"><ele>20.0</ele><time>2026-04-22T15:21:03Z</time></trkpt><trkpt lat="34.59705595661216" lon="-6.43862558982012"><ele>20.0</ele><time>2026-04-22T15:21:04Z</time></trkpt><trkpt lat="34.59679971201013" lon="-6.438795542557668"><ele>21.0</ele><time>2026-04-22T15:21:05Z</time></trkpt><trkpt lat="34.59654438845129" lon="-6.438963352940335"><ele>22.0</ele><time>2026-04-22T15:21:06Z</time></trkpt><trkpt lat="34.596288154191065" lon="-6.439131540629936"><ele>21.0</ele><time>2026-04-22T15:21:07Z</time></trkpt><trkpt lat="34.59603091239491" lon="-6.439299057142001"><ele>20.0</ele><time>2026-04-22T15:21:08Z</time></trkpt><trkpt lat="34.595772940089155" lon="-6.439465044515585"><ele>20.0</ele><time>2026-04-22T15:21:09Z</time></trkpt><trkpt lat="34.595515789797446" lon="-6.439631169061533"><ele>20.0</ele><time>2026-04-22T15:21:10Z</time></trkpt><trkpt lat="34.595258390785325" lon="-6.4397970987452835"><ele>21.0</ele><time>2026-04-22T15:21:11Z</time></trkpt><trkpt lat="34.59500113915083" lon="-6.43996076120572"><ele>22.0</ele><time>2026-04-22T15:21:12Z</time></trkpt><trkpt lat="34.594744096212324" lon="-6.440123174131179"><ele>21.0</ele><time>2026-04-22T15:21:13Z</time></trkpt><trkpt lat="34.59448693486136" lon="-6.440285378543114"><ele>20.0</ele><time>2026-04-22T15:21:14Z</time></trkpt><trkpt lat="34.59422853752529" lon="-6.440447215090039"><ele>22.0</ele><time>2026-04-22T15:21:15Z</time></trkpt><trkpt lat="34.5939705091105" lon="-6.4406127033100455"><ele>24.0</ele><time>2026-04-22T15:21:16Z</time></trkpt><trkpt lat="34.593712624014515" lon="-6.440781945252192"><ele>23.0</ele><time>2026-04-22T15:21:17Z</time></trkpt><trkpt lat="34.593455603502946" lon="-6.440952516053244"><ele>22.0</ele><time>2026-04-22T15:21:18Z</time></trkpt><trkpt lat="34.59320161222617" lon="-6.441123251047311"><ele>22.0</ele><time>2026-04-22T15:21:19Z</time></trkpt><trkpt lat="34.59294796962502" lon="-6.441295833042025"><ele>22.0</ele><time>2026-04-22T15:21:20Z</time></trkpt><trkpt lat="34.59269478690387" lon="-6.441467508602045"><ele>21.5</ele><time>2026-04-22T15:21:21Z</time></trkpt><trkpt lat="34.592441662328646" lon="-6.44163932980032"><ele>21.0</ele><time>2026-04-22T15:21:22Z</time></trkpt><trkpt lat="34.59219010287028" lon="-6.441811391451766"><ele>21.5</ele><time>2026-04-22T15:21:23Z</time></trkpt><trkpt lat="34.59193660402397" lon="-6.441984310104843"><ele>22.0</ele><time>2026-04-22T15:21:24Z</time></trkpt><trkpt lat="34.59168340034036" lon="-6.442154240851719"><ele>23.0</ele><time>2026-04-22T15:21:25Z</time></trkpt><trkpt lat="34.59142918034458" lon="-6.442322838109298"><ele>24.0</ele><time>2026-04-22T15:21:26Z</time></trkpt><trkpt lat="34.59117421624983" lon="-6.442487830873465"><ele>24.0</ele><time>2026-04-22T15:21:27Z</time></trkpt><trkpt lat="34.59091666050395" lon="-6.4426487337924785"><ele>24.0</ele><time>2026-04-22T15:21:28Z</time></trkpt><trkpt lat="34.59065672443812" lon="-6.442805222581624"><ele>24.0</ele><time>2026-04-22T15:21:29Z</time></trkpt><trkpt lat="34.59039423876411" lon="-6.4429550270413225"><ele>24.0</ele><time>2026-04-22T15:21:30Z</time></trkpt><trkpt lat="34.59012978649284" lon="-6.443100844241219"><ele>24.5</ele><time>2026-04-22T15:21:31Z</time></trkpt><trkpt lat="34.58986415843059" lon="-6.443242482510275"><ele>25.0</ele><time>2026-04-22T15:21:31.999Z</time></trkpt><trkpt lat="34.58959666253668" lon="-6.443379923977213"><ele>24.5</ele><time>2026-04-22T15:21:32.999Z</time></trkpt><trkpt lat="34.58932811870039" lon="-6.443513993551918"><ele>24.0</ele><time>2026-04-22T15:21:33.999Z</time></trkpt><trkpt lat="34.58905829255398" lon="-6.443643199015694"><ele>24.0</ele><time>2026-04-22T15:21:34.999Z</time></trkpt><trkpt lat="34.58878638618941" lon="-6.44376889619319"><ele>24.0</ele><time>2026-04-22T15:21:35.999Z</time></trkpt><trkpt lat="34.58851439671199" lon="-6.443889604753857"><ele>24.0</ele><time>2026-04-22T15:21:36.999Z</time></trkpt><trkpt lat="34.58824062400918" lon="-6.444007276361959"><ele>24.0</ele><time>2026-04-22T15:21:37.999Z</time></trkpt><trkpt lat="34.58796398786104" lon="-6.444120989578045"><ele>23.5</ele><time>2026-04-22T15:21:38.999Z</time></trkpt><trkpt lat="34.58768815608466" lon="-6.444227720150737"><ele>23.0</ele><time>2026-04-22T15:21:39.999Z</time></trkpt><trkpt lat="34.58741079297875" lon="-6.44433003953695"><ele>23.0</ele><time>2026-04-22T15:21:40.999Z</time></trkpt><trkpt lat="34.58713134658257" lon="-6.444427329663676"><ele>23.0</ele><time>2026-04-22T15:21:41.999Z</time></trkpt><trkpt lat="34.586852483563916" lon="-6.444518137887139"><ele>22.5</ele><time>2026-04-22T15:21:42.999Z</time></trkpt><trkpt lat="34.586571956653366" lon="-6.444607386321155"><ele>22.0</ele><time>2026-04-22T15:21:43.999Z</time></trkpt><trkpt lat="34.58629004693857" lon="-6.444695745581764"><ele>23.0</ele><time>2026-04-22T15:21:44.999Z</time></trkpt><trkpt lat="34.586004779580854" lon="-6.444784062541456"><ele>24.0</ele><time>2026-04-22T15:21:45.999Z</time></trkpt><trkpt lat="34.58571957060307" lon="-6.444870846208456"><ele>24.0</ele><time>2026-04-22T15:21:46.999Z</time></trkpt><trkpt lat="34.5854343792743" lon="-6.444956925254927"><ele>24.0</ele><time>2026-04-22T15:21:47.999Z</time></trkpt><trkpt lat="34.58515010606353" lon="-6.445046466833222"><ele>23.5</ele><time>2026-04-22T15:21:48.999Z</time></trkpt><trkpt lat="34.58486560654479" lon="-6.44513612960692"><ele>23.0</ele><time>2026-04-22T15:21:49.999Z</time></trkpt><trkpt lat="34.584581874758285" lon="-6.445225325109749"><ele>22.0</ele><time>2026-04-22T15:21:50.999Z</time></trkpt><trkpt lat="34.58430015336584" lon="-6.445315022102784"><ele>21.0</ele><time>2026-04-22T15:21:51.999Z</time></trkpt><trkpt lat="34.584019778845075" lon="-6.4454058599007755"><ele>23.0</ele><time>2026-04-22T15:21:52.999Z</time></trkpt><trkpt lat="34.58374176898531" lon="-6.445495129507363"><ele>25.0</ele><time>2026-04-22T15:21:53.999Z</time></trkpt><trkpt lat="34.583463235221195" lon="-6.445587005457466"><ele>25.0</ele><time>2026-04-22T15:21:54.999Z</time></trkpt><trkpt lat="34.58318576674114" lon="-6.445681313556757"><ele>25.0</ele><time>2026-04-22T15:21:55.999Z</time></trkpt><trkpt lat="34.58290670356719" lon="-6.4457755673864945"><ele>25.0</ele><time>2026-04-22T15:21:56.999Z</time></trkpt><trkpt lat="34.58262684036818" lon="-6.445870247097206"><ele>25.0</ele><time>2026-04-22T15:21:57.999Z</time></trkpt><trkpt lat="34.58234838065093" lon="-6.445966242575686"><ele>25.0</ele><time>2026-04-22T15:21:58.999Z</time></trkpt><trkpt lat="34.582069380793286" lon="-6.446063617327596"><ele>25.0</ele><time>2026-04-22T15:21:59.999Z</time></trkpt><trkpt lat="34.581791997663025" lon="-6.446165831568546"><ele>26.0</ele><time>2026-04-22T15:22:00.999Z</time></trkpt><trkpt lat="34.58151579696867" lon="-6.446272435621428"><ele>27.0</ele><time>2026-04-22T15:22:01.999Z</time></trkpt><trkpt lat="34.58124034538089" lon="-6.44638036028912"><ele>28.0</ele><time>2026-04-22T15:22:02.999Z</time></trkpt><trkpt lat="34.58096498543477" lon="-6.446492349911668"><ele>29.0</ele><time>2026-04-22T15:22:03.999Z</time></trkpt><trkpt lat="34.58069188633078" lon="-6.446607027523733"><ele>29.0</ele><time>2026-04-22T15:22:04.999Z</time></trkpt><trkpt lat="34.580420033122074" lon="-6.446723584123166"><ele>29.0</ele><time>2026-04-22T15:22:05.999Z</time></trkpt><trkpt lat="34.580149666399514" lon="-6.44684232514825"><ele>29.0</ele><time>2026-04-22T15:22:06.999Z</time></trkpt><trkpt lat="34.57987871066874" lon="-6.4469671757450016"><ele>29.0</ele><time>2026-04-22T15:22:07.999Z</time></trkpt><trkpt lat="34.57960837964063" lon="-6.447095865832983"><ele>29.5</ele><time>2026-04-22T15:22:08.999Z</time></trkpt><trkpt lat="34.5793387400433" lon="-6.447227980393443"><ele>30.0</ele><time>2026-04-22T15:22:09.999Z</time></trkpt><trkpt lat="34.57907117929517" lon="-6.4473634210343285"><ele>30.0</ele><time>2026-04-22T15:22:10.999Z</time></trkpt><trkpt lat="34.57880290543289" lon="-6.447502328168172"><ele>30.0</ele><time>2026-04-22T15:22:11.999Z</time></trkpt><trkpt lat="34.57853563434695" lon="-6.447644114766069"><ele>29.5</ele><time>2026-04-22T15:22:12.999Z</time></trkpt><trkpt lat="34.5782682669643" lon="-6.447791052997558"><ele>29.0</ele><time>2026-04-22T15:22:13.999Z</time></trkpt><trkpt lat="34.57800380734011" lon="-6.447940045231905"><ele>28.5</ele><time>2026-04-22T15:22:14.999Z</time></trkpt><trkpt lat="34.57774009650489" lon="-6.448093973135064"><ele>28.0</ele><time>2026-04-22T15:22:15.999Z</time></trkpt><trkpt lat="34.577478357480025" lon="-6.448251348125922"><ele>28.0</ele><time>2026-04-22T15:22:16.999Z</time></trkpt><trkpt lat="34.577217412498214" lon="-6.448411669705492"><ele>28.0</ele><time>2026-04-22T15:22:17.999Z</time></trkpt><trkpt lat="34.5769587484508" lon="-6.448571812724434"><ele>28.0</ele><time>2026-04-22T15:22:18.999Z</time></trkpt><trkpt lat="34.57670095139171" lon="-6.4487343454591555"><ele>28.0</ele><time>2026-04-22T15:22:19.999Z</time></trkpt><trkpt lat="34.576444135661006" lon="-6.448900727745372"><ele>28.0</ele><time>2026-04-22T15:22:20.999Z</time></trkpt><trkpt lat="34.57618809326413" lon="-6.449068198422621"><ele>28.0</ele><time>2026-04-22T15:22:21.999Z</time></trkpt><trkpt lat="34.57593300412985" lon="-6.449236545253715"><ele>25.5</ele><time>2026-04-22T15:22:23Z</time></trkpt><trkpt lat="34.57567784806714" lon="-6.44940350862956"><ele>23.0</ele><time>2026-04-22T15:22:24Z</time></trkpt><trkpt lat="34.57542193844028" lon="-6.44957007090222"><ele>24.5</ele><time>2026-04-22T15:22:25Z</time></trkpt><trkpt lat="34.57516481937792" lon="-6.449737004676738"><ele>26.0</ele><time>2026-04-22T15:22:26Z</time></trkpt><trkpt lat="34.574908141516296" lon="-6.449904872976106"><ele>26.0</ele><time>2026-04-22T15:22:27Z</time></trkpt><trkpt lat="34.57465268566606" lon="-6.450071789094387"><ele>26.0</ele><time>2026-04-22T15:22:28Z</time></trkpt><trkpt lat="34.574398254308356" lon="-6.450239446474316"><ele>27.5</ele><time>2026-04-22T15:22:29Z</time></trkpt><trkpt lat="34.574141650074694" lon="-6.450408300852101"><ele>29.0</ele><time>2026-04-22T15:22:30Z</time></trkpt><trkpt lat="34.573885176001276" lon="-6.450575090518749"><ele>27.0</ele><time>2026-04-22T15:22:31Z</time></trkpt><trkpt lat="34.57362884867031" lon="-6.450740980234021"><ele>25.0</ele><time>2026-04-22T15:22:32Z</time></trkpt><trkpt lat="34.57337399759092" lon="-6.450907965854908"><ele>25.0</ele><time>2026-04-22T15:22:33Z</time></trkpt><trkpt lat="34.57311740298532" lon="-6.451075810575324"><ele>25.0</ele><time>2026-04-22T15:22:34Z</time></trkpt><trkpt lat="34.57285994169756" lon="-6.451242903748704"><ele>23.5</ele><time>2026-04-22T15:22:35Z</time></trkpt><trkpt lat="34.572600102490256" lon="-6.451408956727598"><ele>22.0</ele><time>2026-04-22T15:22:36Z</time></trkpt><trkpt lat="34.57234264117172" lon="-6.451569661244879"><ele>22.0</ele><time>2026-04-22T15:22:37Z</time></trkpt><trkpt lat="34.572083687518855" lon="-6.451729668878249"><ele>22.0</ele><time>2026-04-22T15:22:38Z</time></trkpt><trkpt lat="34.571823633885735" lon="-6.451890601532576"><ele>22.0</ele><time>2026-04-22T15:22:39Z</time></trkpt><trkpt lat="34.57156262898633" lon="-6.452048116713882"><ele>22.0</ele><time>2026-04-22T15:22:40Z</time></trkpt><trkpt lat="34.57130105550598" lon="-6.452199688904342"><ele>21.0</ele><time>2026-04-22T15:22:41Z</time></trkpt><trkpt lat="34.57103702954304" lon="-6.4523448940964"><ele>20.0</ele><time>2026-04-22T15:22:42Z</time></trkpt><trkpt lat="34.57077159156509" lon="-6.45248620073124"><ele>20.0</ele><time>2026-04-22T15:22:43Z</time></trkpt><trkpt lat="34.57050249840706" lon="-6.4526245259950725"><ele>20.0</ele><time>2026-04-22T15:22:44Z</time></trkpt><trkpt lat="34.57023268670918" lon="-6.452759233516712"><ele>20.5</ele><time>2026-04-22T15:22:45Z</time></trkpt><trkpt lat="34.56996155166899" lon="-6.4528901695179846"><ele>21.0</ele><time>2026-04-22T15:22:46Z</time></trkpt><trkpt lat="34.56968884889257" lon="-6.453016735747602"><ele>19.5</ele><time>2026-04-22T15:22:47Z</time></trkpt><trkpt lat="34.5694152060704" lon="-6.453137621064096"><ele>18.0</ele><time>2026-04-22T15:22:48Z</time></trkpt><trkpt lat="34.56914113244635" lon="-6.453251638821993"><ele>18.0</ele><time>2026-04-22T15:22:49Z</time></trkpt><trkpt lat="34.56886521130525" lon="-6.453364887721003"><ele>18.0</ele><time>2026-04-22T15:22:50Z</time></trkpt><trkpt lat="34.568589997796664" lon="-6.453473425130974"><ele>18.5</ele><time>2026-04-22T15:22:51Z</time></trkpt><trkpt lat="34.5683133409531" lon="-6.453577217707723"><ele>19.0</ele><time>2026-04-22T15:22:52Z</time></trkpt><trkpt lat="34.568033880698756" lon="-6.4536757037701165"><ele>19.0</ele><time>2026-04-22T15:22:53Z</time></trkpt><trkpt lat="34.56775433959505" lon="-6.453768115191247"><ele>19.0</ele><time>2026-04-22T15:22:54Z</time></trkpt><trkpt lat="34.56747284350891" lon="-6.453857667722443"><ele>20.0</ele><time>2026-04-22T15:22:55Z</time></trkpt><trkpt lat="34.56719079442933" lon="-6.453940430448927"><ele>21.0</ele><time>2026-04-22T15:22:56Z</time></trkpt><trkpt lat="34.566908648708655" lon="-6.454019295727465"><ele>21.0</ele><time>2026-04-22T15:22:57Z</time></trkpt><trkpt lat="34.56662512355001" lon="-6.454095476558002"><ele>21.0</ele><time>2026-04-22T15:22:58Z</time></trkpt><trkpt lat="34.566340663515604" lon="-6.454165590182749"><ele>20.5</ele><time>2026-04-22T15:22:59Z</time></trkpt><trkpt lat="34.56605552880395" lon="-6.454230308721494"><ele>20.0</ele><time>2026-04-22T15:23:00Z</time></trkpt><trkpt lat="34.5657696427659" lon="-6.454288309898205"><ele>20.0</ele><time>2026-04-22T15:23:01Z</time></trkpt><trkpt lat="34.565483077047354" lon="-6.454349050254484"><ele>20.0</ele><time>2026-04-22T15:23:02Z</time></trkpt><trkpt lat="34.56519834711092" lon="-6.454410905810916"><ele>19.5</ele><time>2026-04-22T15:23:03Z</time></trkpt><trkpt lat="34.56491879038416" lon="-6.4544778327430805"><ele>19.0</ele><time>2026-04-22T15:23:04Z</time></trkpt><trkpt lat="34.56464411225322" lon="-6.454539086972399"><ele>18.5</ele><time>2026-04-22T15:23:05Z</time></trkpt><trkpt lat="34.56437656719016" lon="-6.454601537876386"><ele>18.0</ele><time>2026-04-22T15:23:06Z</time></trkpt><trkpt lat="34.56410268898161" lon="-6.4546585485607855"><ele>18.5</ele><time>2026-04-22T15:23:07Z</time></trkpt><trkpt lat="34.563822906254536" lon="-6.454727414544382"><ele>19.0</ele><time>2026-04-22T15:23:08Z</time></trkpt><trkpt lat="34.56353963364395" lon="-6.454799523210712"><ele>19.0</ele><time>2026-04-22T15:23:09Z</time></trkpt><trkpt lat="34.56325328725255" lon="-6.454866345776651"><ele>19.0</ele><time>2026-04-22T15:23:10Z</time></trkpt><trkpt lat="34.562967216909534" lon="-6.454937015004365"><ele>17.5</ele><time>2026-04-22T15:23:11Z</time></trkpt><trkpt lat="34.562680613568446" lon="-6.455011241303908"><ele>16.0</ele><time>2026-04-22T15:23:12Z</time></trkpt><trkpt lat="34.562395100445514" lon="-6.455088072676664"><ele>16.0</ele><time>2026-04-22T15:23:13Z</time></trkpt><trkpt lat="34.56211147232722" lon="-6.455169260111271"><ele>16.0</ele><time>2026-04-22T15:23:14Z</time></trkpt><trkpt lat="34.561830722005745" lon="-6.455260517094552"><ele>16.5</ele><time>2026-04-22T15:23:15Z</time></trkpt><trkpt lat="34.56155073158759" lon="-6.455361271692532"><ele>17.0</ele><time>2026-04-22T15:23:16Z</time></trkpt><trkpt lat="34.56127260113526" lon="-6.455467610581067"><ele>17.0</ele><time>2026-04-22T15:23:17Z</time></trkpt><trkpt lat="34.560995665169685" lon="-6.455576094579349"><ele>17.0</ele><time>2026-04-22T15:23:18Z</time></trkpt><trkpt lat="34.56072121298216" lon="-6.455692591237776"><ele>17.0</ele><time>2026-04-22T15:23:19Z</time></trkpt><trkpt lat="34.560446105413384" lon="-6.455811385014886"><ele>17.0</ele><time>2026-04-22T15:23:20Z</time></trkpt><trkpt lat="34.56017307797511" lon="-6.4559342632334635"><ele>15.5</ele><time>2026-04-22T15:23:21Z</time></trkpt><trkpt lat="34.55990117120762" lon="-6.456057709654995"><ele>14.0</ele><time>2026-04-22T15:23:22Z</time></trkpt><trkpt lat="34.55963051674257" lon="-6.456184937510743"><ele>15.0</ele><time>2026-04-22T15:23:23Z</time></trkpt><trkpt lat="34.55936079625933" lon="-6.456315195322809"><ele>16.0</ele><time>2026-04-22T15:23:24Z</time></trkpt><trkpt lat="34.55909194416244" lon="-6.45644952343862"><ele>16.0</ele><time>2026-04-22T15:23:25Z</time></trkpt><trkpt lat="34.55882367262374" lon="-6.4565857200804535"><ele>16.0</ele><time>2026-04-22T15:23:26Z</time></trkpt><trkpt lat="34.5585540358585" lon="-6.456722877325567"><ele>15.0</ele><time>2026-04-22T15:23:27Z</time></trkpt><trkpt lat="34.55828350359145" lon="-6.4568589200542075"><ele>14.0</ele><time>2026-04-22T15:23:28Z</time></trkpt><trkpt lat="34.558011955445764" lon="-6.456996573797517"><ele>14.5</ele><time>2026-04-22T15:23:29Z</time></trkpt><trkpt lat="34.557739910445754" lon="-6.457132955605742"><ele>15.0</ele><time>2026-04-22T15:23:30Z</time></trkpt><trkpt lat="34.55747193936983" lon="-6.457270767940944"><ele>15.0</ele><time>2026-04-22T15:23:31Z</time></trkpt><trkpt lat="34.55720719928808" lon="-6.45740924426557"><ele>15.0</ele><time>2026-04-22T15:23:32Z</time></trkpt><trkpt lat="34.556942907127656" lon="-6.457550329674784"><ele>14.0</ele><time>2026-04-22T15:23:33Z</time></trkpt><trkpt lat="34.556677107726244" lon="-6.457691976679406"><ele>13.0</ele><time>2026-04-22T15:23:34Z</time></trkpt><trkpt lat="34.55640938042854" lon="-6.45782637472014"><ele>13.0</ele><time>2026-04-22T15:23:35Z</time></trkpt><trkpt lat="34.55613831095017" lon="-6.457954149628377"><ele>13.0</ele><time>2026-04-22T15:23:36Z</time></trkpt><trkpt lat="34.55586682827602" lon="-6.4580754458868235"><ele>13.0</ele><time>2026-04-22T15:23:37Z</time></trkpt><trkpt lat="34.55559340977693" lon="-6.458188822328737"><ele>13.0</ele><time>2026-04-22T15:23:38Z</time></trkpt><trkpt lat="34.555318388980936" lon="-6.4582992226093126"><ele>13.5</ele><time>2026-04-22T15:23:39Z</time></trkpt><trkpt lat="34.555041253381994" lon="-6.4584086506365415"><ele>14.0</ele><time>2026-04-22T15:23:40Z</time></trkpt><trkpt lat="34.55476470085378" lon="-6.458515165883383"><ele>13.0</ele><time>2026-04-22T15:23:41Z</time></trkpt><trkpt lat="34.554487270508794" lon="-6.458615760202641"><ele>12.0</ele><time>2026-04-22T15:23:42Z</time></trkpt><trkpt lat="34.554207030985836" lon="-6.458713370437359"><ele>12.5</ele><time>2026-04-22T15:23:43Z</time></trkpt><trkpt lat="34.55392540528683" lon="-6.458802842031543"><ele>13.0</ele><time>2026-04-22T15:23:44Z</time></trkpt><trkpt lat="34.55364344387269" lon="-6.458886060046408"><ele>13.0</ele><time>2026-04-22T15:23:45Z</time></trkpt><trkpt lat="34.55335956222749" lon="-6.458966084156061"><ele>13.0</ele><time>2026-04-22T15:23:45.999Z</time></trkpt><trkpt lat="34.55307535572134" lon="-6.459047166523237"><ele>13.0</ele><time>2026-04-22T15:23:46.999Z</time></trkpt><trkpt lat="34.5527895678936" lon="-6.459121752405063"><ele>13.0</ele><time>2026-04-22T15:23:47.999Z</time></trkpt><trkpt lat="34.55250338207632" lon="-6.459191690531714"><ele>13.0</ele><time>2026-04-22T15:23:48.999Z</time></trkpt><trkpt lat="34.55221742865549" lon="-6.4592571568249"><ele>13.0</ele><time>2026-04-22T15:23:49.999Z</time></trkpt><trkpt lat="34.551930324915624" lon="-6.459317240740686"><ele>12.5</ele><time>2026-04-22T15:23:50.999Z</time></trkpt><trkpt lat="34.55164255035329" lon="-6.459370861559366"><ele>12.0</ele><time>2026-04-22T15:23:51.999Z</time></trkpt><trkpt lat="34.551354023519686" lon="-6.4594207137008315"><ele>11.5</ele><time>2026-04-22T15:23:52.999Z</time></trkpt><trkpt lat="34.55106476068951" lon="-6.459466473170576"><ele>11.0</ele><time>2026-04-22T15:23:53.999Z</time></trkpt><trkpt lat="34.550774330130054" lon="-6.459506068737677"><ele>11.0</ele><time>2026-04-22T15:23:54.999Z</time></trkpt><trkpt lat="34.55048435240201" lon="-6.4595445739806685"><ele>11.0</ele><time>2026-04-22T15:23:55.999Z</time></trkpt><trkpt lat="34.55019432076663" lon="-6.45958162418049"><ele>11.0</ele><time>2026-04-22T15:23:56.999Z</time></trkpt><trkpt lat="34.549905803180444" lon="-6.4596212043974095"><ele>11.0</ele><time>2026-04-22T15:23:57.999Z</time></trkpt><trkpt lat="34.549616905790714" lon="-6.459661454368864"><ele>11.0</ele><time>2026-04-22T15:23:58.999Z</time></trkpt><trkpt lat="34.54932958261651" lon="-6.459702163803348"><ele>11.0</ele><time>2026-04-22T15:23:59.999Z</time></trkpt><trkpt lat="34.54904153912553" lon="-6.4597459056782345"><ele>11.0</ele><time>2026-04-22T15:24:00.999Z</time></trkpt><trkpt lat="34.54875267675137" lon="-6.459787806043202"><ele>11.0</ele><time>2026-04-22T15:24:01.999Z</time></trkpt><trkpt lat="34.5484635062534" lon="-6.4598331007551195"><ele>12.0</ele><time>2026-04-22T15:24:02.999Z</time></trkpt><trkpt lat="34.54817411002237" lon="-6.459872498135546"><ele>13.0</ele><time>2026-04-22T15:24:03.999Z</time></trkpt><trkpt lat="34.547886131673856" lon="-6.459913724080187"><ele>15.0</ele><time>2026-04-22T15:24:04.999Z</time></trkpt><trkpt lat="34.54759823187065" lon="-6.459955007466752"><ele>17.0</ele><time>2026-04-22T15:24:05.999Z</time></trkpt><trkpt lat="34.54731007258568" lon="-6.459995308599587"><ele>19.5</ele><time>2026-04-22T15:24:06.999Z</time></trkpt><trkpt lat="34.547021169765706" lon="-6.460035143756383"><ele>22.0</ele><time>2026-04-22T15:24:07.999Z</time></trkpt><trkpt lat="34.546732775686955" lon="-6.460077728650287"><ele>22.0</ele><time>2026-04-22T15:24:08.999Z</time></trkpt><trkpt lat="34.54644460891866" lon="-6.460120042095671"><ele>22.0</ele><time>2026-04-22T15:24:09.999Z</time></trkpt><trkpt lat="34.54615624274979" lon="-6.460162629143877"><ele>22.5</ele><time>2026-04-22T15:24:10.999Z</time></trkpt><trkpt lat="34.54586778348035" lon="-6.460206075259388"><ele>23.0</ele><time>2026-04-22T15:24:11.999Z</time></trkpt><trkpt lat="34.545579603451976" lon="-6.460245003438034"><ele>24.0</ele><time>2026-04-22T15:24:12.999Z</time></trkpt><trkpt lat="34.54529268852009" lon="-6.460282096573115"><ele>25.0</ele><time>2026-04-22T15:24:13.999Z</time></trkpt><trkpt lat="34.54500567029536" lon="-6.460323712044146"><ele>25.0</ele><time>2026-04-22T15:24:14.999Z</time></trkpt><trkpt lat="34.5447189297388" lon="-6.460364863492796"><ele>25.0</ele><time>2026-04-22T15:24:15.999Z</time></trkpt><trkpt lat="34.54443089451624" lon="-6.460403550754856"><ele>26.0</ele><time>2026-04-22T15:24:16.999Z</time></trkpt><trkpt lat="34.544142966254974" lon="-6.460444884522327"><ele>27.0</ele><time>2026-04-22T15:24:17.999Z</time></trkpt><trkpt lat="34.543856033464564" lon="-6.460485205698854"><ele>29.5</ele><time>2026-04-22T15:24:18.999Z</time></trkpt><trkpt lat="34.54356848050035" lon="-6.460527174482307"><ele>32.0</ele><time>2026-04-22T15:24:19.999Z</time></trkpt><trkpt lat="34.54328089534231" lon="-6.460568055749813"><ele>32.0</ele><time>2026-04-22T15:24:20.999Z</time></trkpt><trkpt lat="34.5429945157023" lon="-6.460618451330336"><ele>32.0</ele><time>2026-04-22T15:24:21.999Z</time></trkpt><trkpt lat="34.542707722228414" lon="-6.460671885510502"><ele>31.0</ele><time>2026-04-22T15:24:22.999Z</time></trkpt><trkpt lat="34.54242262184483" lon="-6.4607353318329475"><ele>30.0</ele><time>2026-04-22T15:24:23.999Z</time></trkpt><trkpt lat="34.54213809210449" lon="-6.460802868243516"><ele>28.5</ele><time>2026-04-22T15:24:24.999Z</time></trkpt><trkpt lat="34.54185527559678" lon="-6.460872727600919"><ele>27.0</ele><time>2026-04-22T15:24:25.999Z</time></trkpt><trkpt lat="34.54157347024438" lon="-6.460950155257837"><ele>27.0</ele><time>2026-04-22T15:24:26.999Z</time></trkpt><trkpt lat="34.54128934839081" lon="-6.461031344903031"><ele>27.0</ele><time>2026-04-22T15:24:27.999Z</time></trkpt><trkpt lat="34.541006476905835" lon="-6.461113578520955"><ele>27.5</ele><time>2026-04-22T15:24:29Z</time></trkpt><trkpt lat="34.54072620361536" lon="-6.461207117389684"><ele>28.0</ele><time>2026-04-22T15:24:30Z</time></trkpt><trkpt lat="34.54044595409049" lon="-6.461303796540899"><ele>28.5</ele><time>2026-04-22T15:24:31Z</time></trkpt><trkpt lat="34.54016871309984" lon="-6.461412679467692"><ele>29.0</ele><time>2026-04-22T15:24:32Z</time></trkpt><trkpt lat="34.53989062525578" lon="-6.461523660316994"><ele>29.0</ele><time>2026-04-22T15:24:33Z</time></trkpt><trkpt lat="34.539615536495695" lon="-6.461640193652674"><ele>29.0</ele><time>2026-04-22T15:24:34Z</time></trkpt><trkpt lat="34.53934156162404" lon="-6.461760550282169"><ele>28.0</ele><time>2026-04-22T15:24:35Z</time></trkpt><trkpt lat="34.53906932018911" lon="-6.461888373603716"><ele>27.0</ele><time>2026-04-22T15:24:36Z</time></trkpt><trkpt lat="34.53879785960942" lon="-6.4620188117435085"><ele>28.0</ele><time>2026-04-22T15:24:37Z</time></trkpt><trkpt lat="34.538529216667904" lon="-6.462156123017741"><ele>29.0</ele><time>2026-04-22T15:24:38Z</time></trkpt><trkpt lat="34.53826147398745" lon="-6.462296225352643"><ele>29.0</ele><time>2026-04-22T15:24:39Z</time></trkpt><trkpt lat="34.5379971211972" lon="-6.462444095606534"><ele>29.0</ele><time>2026-04-22T15:24:40Z</time></trkpt><trkpt lat="34.53773285458286" lon="-6.462595418032683"><ele>27.5</ele><time>2026-04-22T15:24:41Z</time></trkpt><trkpt lat="34.5374704254199" lon="-6.462753589556045"><ele>26.0</ele><time>2026-04-22T15:24:42Z</time></trkpt><trkpt lat="34.537213231387504" lon="-6.462919081559069"><ele>27.0</ele><time>2026-04-22T15:24:43Z</time></trkpt><trkpt lat="34.53695834446335" lon="-6.463088166314586"><ele>28.0</ele><time>2026-04-22T15:24:44Z</time></trkpt><trkpt lat="34.53670475900596" lon="-6.463260256692857"><ele>28.0</ele><time>2026-04-22T15:24:45Z</time></trkpt><trkpt lat="34.53645361306946" lon="-6.463436489922401"><ele>28.0</ele><time>2026-04-22T15:24:46Z</time></trkpt><trkpt lat="34.536204384553514" lon="-6.463618505904288"><ele>25.5</ele><time>2026-04-22T15:24:47Z</time></trkpt><trkpt lat="34.53595862267108" lon="-6.463806208248373"><ele>23.0</ele><time>2026-04-22T15:24:48Z</time></trkpt><trkpt lat="34.53571534984561" lon="-6.463996580741699"><ele>23.0</ele><time>2026-04-22T15:24:49Z</time></trkpt><trkpt lat="34.535472961797275" lon="-6.464188725144016"><ele>23.0</ele><time>2026-04-22T15:24:50Z</time></trkpt><trkpt lat="34.535229062418516" lon="-6.464378120271444"><ele>23.0</ele><time>2026-04-22T15:24:51Z</time></trkpt><trkpt lat="34.53498687894501" lon="-6.46457382628472"><ele>23.0</ele><time>2026-04-22T15:24:52Z</time></trkpt><trkpt lat="34.5347439664747" lon="-6.464766325842866"><ele>22.0</ele><time>2026-04-22T15:24:53Z</time></trkpt><trkpt lat="34.53449866656552" lon="-6.4649544644142765"><ele>21.0</ele><time>2026-04-22T15:24:54Z</time></trkpt><trkpt lat="34.53425423425122" lon="-6.465145081071344"><ele>21.0</ele><time>2026-04-22T15:24:55Z</time></trkpt><trkpt lat="34.53400488473941" lon="-6.465328652624362"><ele>21.0</ele><time>2026-04-22T15:24:56Z</time></trkpt><trkpt lat="34.53375306682081" lon="-6.465502865631556"><ele>23.5</ele><time>2026-04-22T15:24:57Z</time></trkpt><trkpt lat="34.533499240116996" lon="-6.4656718170023435"><ele>26.0</ele><time>2026-04-22T15:24:58Z</time></trkpt><trkpt lat="34.533244387632465" lon="-6.465839468454141"><ele>26.0</ele><time>2026-04-22T15:24:59Z</time></trkpt><trkpt lat="34.53298831109423" lon="-6.4660019588400734"><ele>26.0</ele><time>2026-04-22T15:25:00Z</time></trkpt><trkpt lat="34.53272815525087" lon="-6.466159525049105"><ele>27.0</ele><time>2026-04-22T15:25:01Z</time></trkpt><trkpt lat="34.53246786710028" lon="-6.466317960934652"><ele>28.0</ele><time>2026-04-22T15:25:02Z</time></trkpt><trkpt lat="34.53220426577504" lon="-6.466471643769461"><ele>24.0</ele><time>2026-04-22T15:25:03Z</time></trkpt><trkpt lat="34.53193969733879" lon="-6.466619497871537"><ele>20.0</ele><time>2026-04-22T15:25:04Z</time></trkpt><trkpt lat="34.53167278411015" lon="-6.466759337127304"><ele>20.0</ele><time>2026-04-22T15:25:05Z</time></trkpt><trkpt lat="34.53140420044375" lon="-6.466896993622222"><ele>20.0</ele><time>2026-04-22T15:25:06Z</time></trkpt><trkpt lat="34.531133832685796" lon="-6.467027735488117"><ele>22.5</ele><time>2026-04-22T15:25:07Z</time></trkpt><trkpt lat="34.530861008064626" lon="-6.467155207224661"><ele>25.0</ele><time>2026-04-22T15:25:08Z</time></trkpt><trkpt lat="34.5305885055861" lon="-6.467281621510705"><ele>24.0</ele><time>2026-04-22T15:25:09Z</time></trkpt><trkpt lat="34.530315015421614" lon="-6.467405225635434"><ele>23.0</ele><time>2026-04-22T15:25:10Z</time></trkpt><trkpt lat="34.530039807990086" lon="-6.467523518487708"><ele>23.0</ele><time>2026-04-22T15:25:11Z</time></trkpt><trkpt lat="34.529762531437086" lon="-6.467634534880362"><ele>23.0</ele><time>2026-04-22T15:25:12Z</time></trkpt><trkpt lat="34.52948594719854" lon="-6.467747214222731"><ele>21.5</ele><time>2026-04-22T15:25:13Z</time></trkpt><trkpt lat="34.529208530164524" lon="-6.467859689613913"><ele>20.0</ele><time>2026-04-22T15:25:14Z</time></trkpt><trkpt lat="34.52893295604963" lon="-6.467966381957966"><ele>19.5</ele><time>2026-04-22T15:25:15Z</time></trkpt><trkpt lat="34.52865765421315" lon="-6.468072660024368"><ele>19.0</ele><time>2026-04-22T15:25:16Z</time></trkpt><trkpt lat="34.528383606868594" lon="-6.46818039159583"><ele>19.0</ele><time>2026-04-22T15:25:17Z</time></trkpt><trkpt lat="34.52811034882547" lon="-6.468296365001885"><ele>19.0</ele><time>2026-04-22T15:25:18Z</time></trkpt><trkpt lat="34.527836302349925" lon="-6.468413154491218"><ele>22.0</ele><time>2026-04-22T15:25:19Z</time></trkpt><trkpt lat="34.52755995617062" lon="-6.468530775994822"><ele>25.0</ele><time>2026-04-22T15:25:20Z</time></trkpt><trkpt lat="34.52728363874855" lon="-6.468645393071828"><ele>25.0</ele><time>2026-04-22T15:25:21Z</time></trkpt><trkpt lat="34.527008959640234" lon="-6.468760034189645"><ele>25.0</ele><time>2026-04-22T15:25:22Z</time></trkpt><trkpt lat="34.526733719574516" lon="-6.468872419817621"><ele>25.5</ele><time>2026-04-22T15:25:23Z</time></trkpt><trkpt lat="34.52645738107396" lon="-6.468980404811941"><ele>26.0</ele><time>2026-04-22T15:25:24Z</time></trkpt><trkpt lat="34.526179598345735" lon="-6.469085939915583"><ele>24.0</ele><time>2026-04-22T15:25:25Z</time></trkpt><trkpt lat="34.52590306497295" lon="-6.469189107554781"><ele>22.0</ele><time>2026-04-22T15:25:26Z</time></trkpt><trkpt lat="34.52562675941363" lon="-6.469296749248562"><ele>21.5</ele><time>2026-04-22T15:25:27Z</time></trkpt><trkpt lat="34.525352567800155" lon="-6.469406713224822"><ele>21.0</ele><time>2026-04-22T15:25:28Z</time></trkpt><trkpt lat="34.52507746898428" lon="-6.469517795944861"><ele>22.0</ele><time>2026-04-22T15:25:29Z</time></trkpt><trkpt lat="34.52480186108596" lon="-6.469626138160419"><ele>23.0</ele><time>2026-04-22T15:25:30Z</time></trkpt><trkpt lat="34.524525182963" lon="-6.469736639370251"><ele>23.0</ele><time>2026-04-22T15:25:31Z</time></trkpt><trkpt lat="34.52424858470274" lon="-6.469844270041435"><ele>23.0</ele><time>2026-04-22T15:25:32Z</time></trkpt><trkpt lat="34.52397248763107" lon="-6.4699543637484265"><ele>24.0</ele><time>2026-04-22T15:25:33Z</time></trkpt><trkpt lat="34.52369642774982" lon="-6.470065028499974"><ele>25.0</ele><time>2026-04-22T15:25:34Z</time></trkpt><trkpt lat="34.52342002438129" lon="-6.470171986766027"><ele>25.0</ele><time>2026-04-22T15:25:35Z</time></trkpt><trkpt lat="34.52314379210327" lon="-6.470277647415911"><ele>25.0</ele><time>2026-04-22T15:25:36Z</time></trkpt><trkpt lat="34.522868420878225" lon="-6.470382726003836"><ele>26.0</ele><time>2026-04-22T15:25:37Z</time></trkpt><trkpt lat="34.5225930589988" lon="-6.470489121551825"><ele>27.0</ele><time>2026-04-22T15:25:38Z</time></trkpt><trkpt lat="34.52231628155639" lon="-6.470595424019227"><ele>27.0</ele><time>2026-04-22T15:25:39Z</time></trkpt><trkpt lat="34.52203800796334" lon="-6.470704224314277"><ele>27.0</ele><time>2026-04-22T15:25:40Z</time></trkpt><trkpt lat="34.52176031939939" lon="-6.4708118152631995"><ele>27.0</ele><time>2026-04-22T15:25:41Z</time></trkpt><trkpt lat="34.521483030026566" lon="-6.470917967869371"><ele>27.0</ele><time>2026-04-22T15:25:42Z</time></trkpt><trkpt lat="34.52120635472045" lon="-6.471029446391922"><ele>27.5</ele><time>2026-04-22T15:25:43Z</time></trkpt><trkpt lat="34.520929214412256" lon="-6.47114067954146"><ele>28.0</ele><time>2026-04-22T15:25:44Z</time></trkpt><trkpt lat="34.52065000340141" lon="-6.471246667994781"><ele>29.5</ele><time>2026-04-22T15:25:45Z</time></trkpt><trkpt lat="34.52037098876758" lon="-6.471355103619842"><ele>31.0</ele><time>2026-04-22T15:25:46Z</time></trkpt><trkpt lat="34.52009237186203" lon="-6.471466081764191"><ele>31.0</ele><time>2026-04-22T15:25:47Z</time></trkpt><trkpt lat="34.51981533686389" lon="-6.471578197649622"><ele>31.0</ele><time>2026-04-22T15:25:48Z</time></trkpt><trkpt lat="34.51954012462241" lon="-6.471693090368193"><ele>30.0</ele><time>2026-04-22T15:25:49Z</time></trkpt><trkpt lat="34.51926305883138" lon="-6.471804016780666"><ele>29.0</ele><time>2026-04-22T15:25:50Z</time></trkpt><trkpt lat="34.518985487714886" lon="-6.471916202510245"><ele>29.0</ele><time>2026-04-22T15:25:51Z</time></trkpt><trkpt lat="34.518708251367954" lon="-6.472022354702802"><ele>29.0</ele><time>2026-04-22T15:25:52Z</time></trkpt><trkpt lat="34.51843009724506" lon="-6.472130208146745"><ele>29.0</ele><time>2026-04-22T15:25:53Z</time></trkpt><trkpt lat="34.518152999451814" lon="-6.472239191213424"><ele>29.0</ele><time>2026-04-22T15:25:53.999Z</time></trkpt><trkpt lat="34.517875588148904" lon="-6.472346737144475"><ele>28.5</ele><time>2026-04-22T15:25:54.999Z</time></trkpt><trkpt lat="34.51759717375803" lon="-6.472455355639808"><ele>28.0</ele><time>2026-04-22T15:25:55.999Z</time></trkpt><trkpt lat="34.51732036011773" lon="-6.472562192761489"><ele>28.0</ele><time>2026-04-22T15:25:56.999Z</time></trkpt><trkpt lat="34.51704313925057" lon="-6.472669514042329"><ele>28.0</ele><time>2026-04-22T15:25:57.999Z</time></trkpt><trkpt lat="34.51676581028171" lon="-6.472776940987732"><ele>28.0</ele><time>2026-04-22T15:25:58.999Z</time></trkpt><trkpt lat="34.51648948763685" lon="-6.472884364473336"><ele>28.0</ele><time>2026-04-22T15:25:59.999Z</time></trkpt><trkpt lat="34.51621530026838" lon="-6.47299497117408"><ele>28.5</ele><time>2026-04-22T15:26:00.999Z</time></trkpt><trkpt lat="34.51594096970301" lon="-6.473108857032921"><ele>29.0</ele><time>2026-04-22T15:26:01.999Z</time></trkpt><trkpt lat="34.51566686555891" lon="-6.473220696474913"><ele>29.5</ele><time>2026-04-22T15:26:02.999Z</time></trkpt><trkpt lat="34.515393332209456" lon="-6.473331753647026"><ele>30.0</ele><time>2026-04-22T15:26:03.999Z</time></trkpt><trkpt lat="34.51511960913294" lon="-6.473445834100541"><ele>30.0</ele><time>2026-04-22T15:26:04.999Z</time></trkpt><trkpt lat="34.51484762326323" lon="-6.473567750845788"><ele>30.0</ele><time>2026-04-22T15:26:05.999Z</time></trkpt><trkpt lat="34.51457758827614" lon="-6.473694290868957"><ele>29.0</ele><time>2026-04-22T15:26:06.999Z</time></trkpt><trkpt lat="34.51430745095997" lon="-6.473822972902509"><ele>28.0</ele><time>2026-04-22T15:26:07.999Z</time></trkpt><trkpt lat="34.514039049663126" lon="-6.473956117208927"><ele>28.0</ele><time>2026-04-22T15:26:08.999Z</time></trkpt><trkpt lat="34.51377539735278" lon="-6.474093815132656"><ele>28.0</ele><time>2026-04-22T15:26:09.999Z</time></trkpt><trkpt lat="34.51351385211219" lon="-6.474224166790532"><ele>28.5</ele><time>2026-04-22T15:26:10.999Z</time></trkpt><trkpt lat="34.51325165996642" lon="-6.474364222243391"><ele>29.0</ele><time>2026-04-22T15:26:11.999Z</time></trkpt><trkpt lat="34.512993742635075" lon="-6.47450430407589"><ele>30.0</ele><time>2026-04-22T15:26:12.999Z</time></trkpt><trkpt lat="34.51275903774724" lon="-6.474641862593638"><ele>31.0</ele><time>2026-04-22T15:26:13.999Z</time></trkpt><trkpt lat="34.51253256682473" lon="-6.474771556946086"><ele>31.0</ele><time>2026-04-22T15:26:14.999Z</time></trkpt><trkpt lat="34.512312035937505" lon="-6.474907647306179"><ele>31.0</ele><time>2026-04-22T15:26:15.999Z</time></trkpt><trkpt lat="34.51209671959927" lon="-6.475047989931587"><ele>32.0</ele><time>2026-04-22T15:26:16.999Z</time></trkpt><trkpt lat="34.51188000789267" lon="-6.475187072641462"><ele>33.0</ele><time>2026-04-22T15:26:17.999Z</time></trkpt><trkpt lat="34.5116569412913" lon="-6.4753352856438156"><ele>33.0</ele><time>2026-04-22T15:26:18.999Z</time></trkpt><trkpt lat="34.51143468342606" lon="-6.475484741864544"><ele>33.0</ele><time>2026-04-22T15:26:19.999Z</time></trkpt><trkpt lat="34.51121364650152" lon="-6.475639703107883"><ele>31.5</ele><time>2026-04-22T15:26:20.999Z</time></trkpt><trkpt lat="34.51098879463963" lon="-6.47579582490886"><ele>30.0</ele><time>2026-04-22T15:26:21.999Z</time></trkpt><trkpt lat="34.51076021432481" lon="-6.475951263768835"><ele>30.0</ele><time>2026-04-22T15:26:22.999Z</time></trkpt><trkpt lat="34.51053050533112" lon="-6.476104743412492"><ele>30.0</ele><time>2026-04-22T15:26:23.999Z</time></trkpt><trkpt lat="34.51029846365822" lon="-6.476257977744911"><ele>30.5</ele><time>2026-04-22T15:26:24.999Z</time></trkpt><trkpt lat="34.51006689919319" lon="-6.476412999260049"><ele>31.0</ele><time>2026-04-22T15:26:25.999Z</time></trkpt><trkpt lat="34.50983221535131" lon="-6.4765697858867215"><ele>31.0</ele><time>2026-04-22T15:26:26.999Z</time></trkpt><trkpt lat="34.50959486994881" lon="-6.476728250571797"><ele>31.0</ele><time>2026-04-22T15:26:27.999Z</time></trkpt><trkpt lat="34.50935677848815" lon="-6.476887399065228"><ele>31.5</ele><time>2026-04-22T15:26:28.999Z</time></trkpt><trkpt lat="34.50911753530116" lon="-6.477044115559292"><ele>32.0</ele><time>2026-04-22T15:26:29.999Z</time></trkpt><trkpt lat="34.50887477257408" lon="-6.477201030489593"><ele>32.0</ele><time>2026-04-22T15:26:30.999Z</time></trkpt><trkpt lat="34.50863113426093" lon="-6.477359999537613"><ele>32.0</ele><time>2026-04-22T15:26:31.999Z</time></trkpt><trkpt lat="34.50838699174472" lon="-6.477521702464023"><ele>32.0</ele><time>2026-04-22T15:26:32.999Z</time></trkpt><trkpt lat="34.50814148129227" lon="-6.4776841978013735"><ele>32.0</ele><time>2026-04-22T15:26:33.999Z</time></trkpt><trkpt lat="34.507893978869916" lon="-6.477845417374756"><ele>33.5</ele><time>2026-04-22T15:26:35Z</time></trkpt><trkpt lat="34.50764628354754" lon="-6.478004065355995"><ele>35.0</ele><time>2026-04-22T15:26:36Z</time></trkpt><trkpt lat="34.507399650274714" lon="-6.478163110886683"><ele>35.0</ele><time>2026-04-22T15:26:37Z</time></trkpt><trkpt lat="34.50715422834672" lon="-6.478325363578554"><ele>35.0</ele><time>2026-04-22T15:26:38Z</time></trkpt><trkpt lat="34.50691330589703" lon="-6.478492941963149"><ele>35.5</ele><time>2026-04-22T15:26:39Z</time></trkpt><trkpt lat="34.506670050192696" lon="-6.478660203540475"><ele>36.0</ele><time>2026-04-22T15:26:40Z</time></trkpt><trkpt lat="34.506428230323344" lon="-6.478832652661532"><ele>33.5</ele><time>2026-04-22T15:26:41Z</time></trkpt><trkpt lat="34.506186383405876" lon="-6.479006251663317"><ele>31.0</ele><time>2026-04-22T15:26:42Z</time></trkpt><trkpt lat="34.5059413523264" lon="-6.479177673109978"><ele>31.0</ele><time>2026-04-22T15:26:43Z</time></trkpt><trkpt lat="34.50569654499198" lon="-6.479348327618851"><ele>31.0</ele><time>2026-04-22T15:26:44Z</time></trkpt><trkpt lat="34.50545128875764" lon="-6.479513587882261"><ele>31.0</ele><time>2026-04-22T15:26:45Z</time></trkpt><trkpt lat="34.50520373149667" lon="-6.479677016245223"><ele>31.0</ele><time>2026-04-22T15:26:46Z</time></trkpt><trkpt lat="34.504954648780824" lon="-6.479841231476511"><ele>31.0</ele><time>2026-04-22T15:26:47Z</time></trkpt><trkpt lat="34.5047030357142" lon="-6.480004256392901"><ele>31.0</ele><time>2026-04-22T15:26:48Z</time></trkpt><trkpt lat="34.504446809435095" lon="-6.480159631290445"><ele>31.5</ele><time>2026-04-22T15:26:49Z</time></trkpt><trkpt lat="34.50419020341865" lon="-6.480314060617294"><ele>32.0</ele><time>2026-04-22T15:26:50Z</time></trkpt><trkpt lat="34.5039314089107" lon="-6.480469865815835"><ele>31.0</ele><time>2026-04-22T15:26:51Z</time></trkpt><trkpt lat="34.50366961303318" lon="-6.480613304219933"><ele>30.0</ele><time>2026-04-22T15:26:52Z</time></trkpt><trkpt lat="34.50340723757773" lon="-6.480758101209938"><ele>30.0</ele><time>2026-04-22T15:26:53Z</time></trkpt><trkpt lat="34.5031415295593" lon="-6.480894730967471"><ele>30.0</ele><time>2026-04-22T15:26:54Z</time></trkpt><trkpt lat="34.502878197340785" lon="-6.481033985549247"><ele>27.5</ele><time>2026-04-22T15:26:55Z</time></trkpt><trkpt lat="34.50261006744944" lon="-6.4811585300265975"><ele>25.0</ele><time>2026-04-22T15:26:56Z</time></trkpt><trkpt lat="34.50234241349933" lon="-6.481278725107924"><ele>23.5</ele><time>2026-04-22T15:26:57Z</time></trkpt><trkpt lat="34.50207499576793" lon="-6.481398276215265"><ele>22.0</ele><time>2026-04-22T15:26:58Z</time></trkpt><trkpt lat="34.5018050525608" lon="-6.481510981991406"><ele>22.0</ele><time>2026-04-22T15:26:59Z</time></trkpt><trkpt lat="34.501535427663455" lon="-6.481623709200422"><ele>22.0</ele><time>2026-04-22T15:27:00Z</time></trkpt><trkpt lat="34.501265074322156" lon="-6.481736841287971"><ele>22.0</ele><time>2026-04-22T15:27:01Z</time></trkpt><trkpt lat="34.50099345427399" lon="-6.481847067522254"><ele>22.0</ele><time>2026-04-22T15:27:02Z</time></trkpt><trkpt lat="34.5007231221597" lon="-6.481948196817762"><ele>22.0</ele><time>2026-04-22T15:27:03Z</time></trkpt><trkpt lat="34.50044784684372" lon="-6.482046748356804"><ele>22.0</ele><time>2026-04-22T15:27:04Z</time></trkpt><trkpt lat="34.50017056117008" lon="-6.482140916527349"><ele>24.5</ele><time>2026-04-22T15:27:05Z</time></trkpt><trkpt lat="34.499890550969724" lon="-6.482229375078633"><ele>27.0</ele><time>2026-04-22T15:27:06Z</time></trkpt><trkpt lat="34.49960977462064" lon="-6.48231312480786"><ele>26.0</ele><time>2026-04-22T15:27:07Z</time></trkpt><trkpt lat="34.49932874043756" lon="-6.4823916637895955"><ele>25.0</ele><time>2026-04-22T15:27:08Z</time></trkpt><trkpt lat="34.49904773380167" lon="-6.482468088465557"><ele>25.0</ele><time>2026-04-22T15:27:09Z</time></trkpt><trkpt lat="34.49876825667012" lon="-6.48254178863575"><ele>25.0</ele><time>2026-04-22T15:27:10Z</time></trkpt><trkpt lat="34.49848778144308" lon="-6.482617782341524"><ele>24.5</ele><time>2026-04-22T15:27:11Z</time></trkpt><trkpt lat="34.49820644887693" lon="-6.482695608509287"><ele>24.0</ele><time>2026-04-22T15:27:12Z</time></trkpt><trkpt lat="34.497924771869144" lon="-6.482773449781334"><ele>24.5</ele><time>2026-04-22T15:27:13Z</time></trkpt><trkpt lat="34.49764472450177" lon="-6.482851759138068"><ele>25.0</ele><time>2026-04-22T15:27:14Z</time></trkpt><trkpt lat="34.497361472769676" lon="-6.482930486541247"><ele>25.0</ele><time>2026-04-22T15:27:15Z</time></trkpt><trkpt lat="34.497075391285264" lon="-6.4830094645913645"><ele>25.0</ele><time>2026-04-22T15:27:16Z</time></trkpt><trkpt lat="34.49678863545358" lon="-6.483090989130772"><ele>25.0</ele><time>2026-04-22T15:27:17Z</time></trkpt><trkpt lat="34.4965026946581" lon="-6.483171143841423"><ele>25.0</ele><time>2026-04-22T15:27:18Z</time></trkpt><trkpt lat="34.496218711667495" lon="-6.48325106782272"><ele>25.0</ele><time>2026-04-22T15:27:19Z</time></trkpt><trkpt lat="34.49593891389082" lon="-6.483330130924752"><ele>25.0</ele><time>2026-04-22T15:27:20Z</time></trkpt><trkpt lat="34.49566635063631" lon="-6.483405735727979"><ele>23.5</ele><time>2026-04-22T15:27:21Z</time></trkpt><trkpt lat="34.49539785289911" lon="-6.483478348370319"><ele>22.0</ele><time>2026-04-22T15:27:22Z</time></trkpt><trkpt lat="34.4951354220253" lon="-6.483549772499792"><ele>22.0</ele><time>2026-04-22T15:27:23Z</time></trkpt><trkpt lat="34.49487903806233" lon="-6.4836205916318645"><ele>22.0</ele><time>2026-04-22T15:27:24Z</time></trkpt><trkpt lat="34.4946301402724" lon="-6.483691301139296"><ele>22.5</ele><time>2026-04-22T15:27:25Z</time></trkpt><trkpt lat="34.49438385682107" lon="-6.483761875696186"><ele>23.0</ele><time>2026-04-22T15:27:26Z</time></trkpt><trkpt lat="34.49413834956305" lon="-6.483832392742552"><ele>23.0</ele><time>2026-04-22T15:27:27Z</time></trkpt><trkpt lat="34.49389351805412" lon="-6.48390024714171"><ele>23.0</ele><time>2026-04-22T15:27:28Z</time></trkpt><trkpt lat="34.49364969915726" lon="-6.483966858184346"><ele>23.0</ele><time>2026-04-22T15:27:29Z</time></trkpt><trkpt lat="34.493408384588086" lon="-6.484032475218387"><ele>23.0</ele><time>2026-04-22T15:27:30Z</time></trkpt><trkpt lat="34.49316918537236" lon="-6.484098334250808"><ele>23.0</ele><time>2026-04-22T15:27:31Z</time></trkpt><trkpt lat="34.492931657218215" lon="-6.484163582264408"><ele>23.0</ele><time>2026-04-22T15:27:32Z</time></trkpt><trkpt lat="34.49269574960168" lon="-6.484229542297891"><ele>23.5</ele><time>2026-04-22T15:27:33Z</time></trkpt><trkpt lat="34.49246232431289" lon="-6.48429317247114"><ele>24.0</ele><time>2026-04-22T15:27:34Z</time></trkpt><trkpt lat="34.49223128893756" lon="-6.484356436801593"><ele>24.0</ele><time>2026-04-22T15:27:35Z</time></trkpt><trkpt lat="34.492004904638854" lon="-6.484420906353621"><ele>24.0</ele><time>2026-04-22T15:27:36Z</time></trkpt><trkpt lat="34.491782550683816" lon="-6.484482591218546"><ele>24.0</ele><time>2026-04-22T15:27:37Z</time></trkpt><trkpt lat="34.491568409044774" lon="-6.4845406995781785"><ele>24.0</ele><time>2026-04-22T15:27:38Z</time></trkpt><trkpt lat="34.49135915911218" lon="-6.484595361618003"><ele>24.0</ele><time>2026-04-22T15:27:39Z</time></trkpt><trkpt lat="34.491157105733905" lon="-6.484651867154453"><ele>23.0</ele><time>2026-04-22T15:27:40Z</time></trkpt><trkpt lat="34.49096104446832" lon="-6.484704905496239"><ele>22.0</ele><time>2026-04-22T15:27:41Z</time></trkpt><trkpt lat="34.490769932606305" lon="-6.484758517249752"><ele>21.0</ele><time>2026-04-22T15:27:42Z</time></trkpt><trkpt lat="34.4905850015861" lon="-6.48480904383978"><ele>19.666666666666668</ele><time>2026-04-22T15:27:43Z</time></trkpt><trkpt lat="34.490406940685126" lon="-6.484858488072335"><ele>18.333333333333336</ele><time>2026-04-22T15:27:44Z</time></trkpt><trkpt lat="34.490232984488635" lon="-6.484908299326131"><ele>17.0</ele><time>2026-04-22T15:27:45Z</time></trkpt><trkpt lat="34.49005970547265" lon="-6.484956823960857"><ele>17.0</ele><time>2026-04-22T15:27:46Z</time></trkpt><trkpt lat="34.489885546012076" lon="-6.48500099689227"><ele>17.0</ele><time>2026-04-22T15:27:47Z</time></trkpt><trkpt lat="34.489710825736694" lon="-6.485051837172158"><ele>17.0</ele><time>2026-04-22T15:27:48Z</time></trkpt><trkpt lat="34.48953452525077" lon="-6.485102116595012"><ele>18.0</ele><time>2026-04-22T15:27:49Z</time></trkpt><trkpt lat="34.48935563384965" lon="-6.485154388352368"><ele>19.0</ele><time>2026-04-22T15:27:50Z</time></trkpt><trkpt lat="34.48917648421966" lon="-6.485208572029507"><ele>20.0</ele><time>2026-04-22T15:27:51Z</time></trkpt><trkpt lat="34.488994345056476" lon="-6.485257385433336"><ele>20.0</ele><time>2026-04-22T15:27:52Z</time></trkpt><trkpt lat="34.488813745748296" lon="-6.485300641807387"><ele>20.0</ele><time>2026-04-22T15:27:53Z</time></trkpt><trkpt lat="34.488633397378095" lon="-6.485352755971115"><ele>20.0</ele><time>2026-04-22T15:27:54Z</time></trkpt><trkpt lat="34.488453591590925" lon="-6.485403656290846"><ele>20.666666666666668</ele><time>2026-04-22T15:27:55Z</time></trkpt><trkpt lat="34.48827430422439" lon="-6.485452030891525"><ele>21.333333333333332</ele><time>2026-04-22T15:27:56Z</time></trkpt><trkpt lat="34.48809583279218" lon="-6.4855016929945295"><ele>22.0</ele><time>2026-04-22T15:27:57Z</time></trkpt><trkpt lat="34.48791584622431" lon="-6.485551237018234"><ele>22.666666666666664</ele><time>2026-04-22T15:27:58Z</time></trkpt><trkpt lat="34.4877360200505" lon="-6.485604722160188"><ele>23.333333333333332</ele><time>2026-04-22T15:27:59Z</time></trkpt><trkpt lat="34.487556023355005" lon="-6.485656644476211"><ele>24.0</ele><time>2026-04-22T15:27:59.999Z</time></trkpt><trkpt lat="34.48737539712336" lon="-6.48570786842131"><ele>24.0</ele><time>2026-04-22T15:28:00.999Z</time></trkpt><trkpt lat="34.48719273188924" lon="-6.485756200753085"><ele>24.0</ele><time>2026-04-22T15:28:01.999Z</time></trkpt><trkpt lat="34.48700890986557" lon="-6.485804847367733"><ele>24.0</ele><time>2026-04-22T15:28:02.999Z</time></trkpt><trkpt lat="34.48682575204019" lon="-6.485853259230071"><ele>24.333333333333336</ele><time>2026-04-22T15:28:03.999Z</time></trkpt><trkpt lat="34.486642006850026" lon="-6.485905209105735"><ele>24.666666666666668</ele><time>2026-04-22T15:28:04.999Z</time></trkpt><trkpt lat="34.48645861657197" lon="-6.485952515234477"><ele>25.0</ele><time>2026-04-22T15:28:05.999Z</time></trkpt><trkpt lat="34.486275576127866" lon="-6.486004566510713"><ele>24.333333333333336</ele><time>2026-04-22T15:28:06.999Z</time></trkpt><trkpt lat="34.486092770539" lon="-6.486062570187764"><ele>23.666666666666668</ele><time>2026-04-22T15:28:07.999Z</time></trkpt><trkpt lat="34.48591336959747" lon="-6.486121626575063"><ele>23.0</ele><time>2026-04-22T15:28:08.999Z</time></trkpt><trkpt lat="34.485735532655795" lon="-6.486183596634809"><ele>23.0</ele><time>2026-04-22T15:28:09.999Z</time></trkpt><trkpt lat="34.48555512692811" lon="-6.486246698517596"><ele>23.0</ele><time>2026-04-22T15:28:10.999Z</time></trkpt><trkpt lat="34.4853708304576" lon="-6.486314089455694"><ele>23.0</ele><time>2026-04-22T15:28:11.999Z</time></trkpt><trkpt lat="34.4851831188925" lon="-6.486382997265359"><ele>23.333333333333336</ele><time>2026-04-22T15:28:12.999Z</time></trkpt><trkpt lat="34.48499433519288" lon="-6.486457951337511"><ele>23.666666666666668</ele><time>2026-04-22T15:28:13.999Z</time></trkpt><trkpt lat="34.48480501377823" lon="-6.486531815962055"><ele>24.0</ele><time>2026-04-22T15:28:14.999Z</time></trkpt><trkpt lat="34.48461920659386" lon="-6.486609174492703"><ele>23.666666666666668</ele><time>2026-04-22T15:28:15.999Z</time></trkpt><trkpt lat="34.48443508306303" lon="-6.486687399836696"><ele>23.333333333333336</ele><time>2026-04-22T15:28:16.999Z</time></trkpt><trkpt lat="34.484253479889844" lon="-6.486768175372905"><ele>23.0</ele><time>2026-04-22T15:28:17.999Z</time></trkpt><trkpt lat="34.48407517651867" lon="-6.486849638122378"><ele>23.0</ele><time>2026-04-22T15:28:18.999Z</time></trkpt><trkpt lat="34.4838979497141" lon="-6.486934563704222"><ele>23.0</ele><time>2026-04-22T15:28:19.999Z</time></trkpt><trkpt lat="34.483722075185895" lon="-6.487019278936099"><ele>23.0</ele><time>2026-04-22T15:28:20.999Z</time></trkpt><trkpt lat="34.483547699554734" lon="-6.487103458141937"><ele>23.666666666666668</ele><time>2026-04-22T15:28:21.999Z</time></trkpt><trkpt lat="34.48337418906112" lon="-6.487192225966178"><ele>24.333333333333336</ele><time>2026-04-22T15:28:22.999Z</time></trkpt><trkpt lat="34.48320453715679" lon="-6.487282051691875"><ele>25.0</ele><time>2026-04-22T15:28:23.999Z</time></trkpt><trkpt lat="34.48303898736515" lon="-6.487375682461166"><ele>24.666666666666668</ele><time>2026-04-22T15:28:24.999Z</time></trkpt><trkpt lat="34.48287425349925" lon="-6.48746995795354"><ele>24.333333333333336</ele><time>2026-04-22T15:28:25.999Z</time></trkpt><trkpt lat="34.48270902963495" lon="-6.487562783985137"><ele>24.0</ele><time>2026-04-22T15:28:26.999Z</time></trkpt><trkpt lat="34.48254327936587" lon="-6.48765958423584"><ele>24.0</ele><time>2026-04-22T15:28:27.999Z</time></trkpt><trkpt lat="34.48237978574585" lon="-6.487759130196794"><ele>24.0</ele><time>2026-04-22T15:28:28.999Z</time></trkpt><trkpt lat="34.48221460383354" lon="-6.487858406334679"><ele>24.0</ele><time>2026-04-22T15:28:29.999Z</time></trkpt><trkpt lat="34.48204876213091" lon="-6.487961794855952"><ele>24.333333333333336</ele><time>2026-04-22T15:28:30.999Z</time></trkpt><trkpt lat="34.4818833440143" lon="-6.488071000452965"><ele>24.666666666666668</ele><time>2026-04-22T15:28:31.999Z</time></trkpt><trkpt lat="34.48172288491347" lon="-6.4881808367692475"><ele>25.0</ele><time>2026-04-22T15:28:32.999Z</time></trkpt><trkpt lat="34.48156854528942" lon="-6.488287571633944"><ele>25.0</ele><time>2026-04-22T15:28:33.999Z</time></trkpt><trkpt lat="34.4814172330085" lon="-6.488392064920549"><ele>25.0</ele><time>2026-04-22T15:28:34.999Z</time></trkpt><trkpt lat="34.48126476903196" lon="-6.488502432358834"><ele>25.0</ele><time>2026-04-22T15:28:35.999Z</time></trkpt><trkpt lat="34.48111372532976" lon="-6.488616733642348"><ele>25.0</ele><time>2026-04-22T15:28:36.999Z</time></trkpt><trkpt lat="34.48096273300936" lon="-6.488731047381446"><ele>25.0</ele><time>2026-04-22T15:28:37.999Z</time></trkpt><trkpt lat="34.48081267277492" lon="-6.488845409788421"><ele>25.0</ele><time>2026-04-22T15:28:38.999Z</time></trkpt><trkpt lat="34.48066586183567" lon="-6.4889626877739355"><ele>25.0</ele><time>2026-04-22T15:28:39.999Z</time></trkpt><trkpt lat="34.48051961751083" lon="-6.489079202199366"><ele>25.0</ele><time>2026-04-22T15:28:41Z</time></trkpt><trkpt lat="34.48037561202334" lon="-6.489195891136114"><ele>25.0</ele><time>2026-04-22T15:28:42Z</time></trkpt><trkpt lat="34.480233950685644" lon="-6.489315569447442"><ele>24.666666666666668</ele><time>2026-04-22T15:28:43Z</time></trkpt><trkpt lat="34.480094148728675" lon="-6.489436499041482"><ele>24.333333333333336</ele><time>2026-04-22T15:28:44Z</time></trkpt><trkpt lat="34.47995174516757" lon="-6.489557387318202"><ele>24.0</ele><time>2026-04-22T15:28:45Z</time></trkpt><trkpt lat="34.47981053469452" lon="-6.489685520803826"><ele>24.666666666666664</ele><time>2026-04-22T15:28:46Z</time></trkpt><trkpt lat="34.47967023890762" lon="-6.489813333891658"><ele>25.333333333333332</ele><time>2026-04-22T15:28:47Z</time></trkpt><trkpt lat="34.47953175068141" lon="-6.489939315083431"><ele>26.0</ele><time>2026-04-22T15:28:48Z</time></trkpt><trkpt lat="34.47939462391366" lon="-6.490067560660826"><ele>26.0</ele><time>2026-04-22T15:28:49Z</time></trkpt><trkpt lat="34.47925691619543" lon="-6.490199519192577"><ele>26.0</ele><time>2026-04-22T15:28:50Z</time></trkpt><trkpt lat="34.479119543434535" lon="-6.490332358055515"><ele>26.0</ele><time>2026-04-22T15:28:51Z</time></trkpt><trkpt lat="34.4789876338983" lon="-6.49046548934954"><ele>26.333333333333332</ele><time>2026-04-22T15:28:52Z</time></trkpt><trkpt lat="34.47885871676078" lon="-6.490597784812411"><ele>26.666666666666664</ele><time>2026-04-22T15:28:53Z</time></trkpt><trkpt lat="34.47873156986416" lon="-6.490732490088863"><ele>27.0</ele><time>2026-04-22T15:28:54Z</time></trkpt><trkpt lat="34.47860286579369" lon="-6.490866836202577"><ele>27.333333333333336</ele><time>2026-04-22T15:28:55Z</time></trkpt><trkpt lat="34.47847174338113" lon="-6.49100570103826"><ele>27.666666666666668</ele><time>2026-04-22T15:28:56Z</time></trkpt><trkpt lat="34.47834032985611" lon="-6.491148036670142"><ele>28.0</ele><time>2026-04-22T15:28:57Z</time></trkpt><trkpt lat="34.478211416029204" lon="-6.491288708902549"><ele>27.666666666666668</ele><time>2026-04-22T15:28:58Z</time></trkpt><trkpt lat="34.478083563572724" lon="-6.49142824784771"><ele>27.333333333333336</ele><time>2026-04-22T15:28:59Z</time></trkpt><trkpt lat="34.47795716407074" lon="-6.491566993809076"><ele>27.0</ele><time>2026-04-22T15:29:00Z</time></trkpt><trkpt lat="34.477828170336636" lon="-6.491706124046509"><ele>27.0</ele><time>2026-04-22T15:29:01Z</time></trkpt><trkpt lat="34.4776972379501" lon="-6.4918477384706765"><ele>27.0</ele><time>2026-04-22T15:29:02Z</time></trkpt><trkpt lat="34.4775693277163" lon="-6.49198454385087"><ele>27.0</ele><time>2026-04-22T15:29:03Z</time></trkpt><trkpt lat="34.47744100783911" lon="-6.49212432885522"><ele>26.666666666666664</ele><time>2026-04-22T15:29:04Z</time></trkpt><trkpt lat="34.47731014508604" lon="-6.49226574093092"><ele>26.333333333333332</ele><time>2026-04-22T15:29:05Z</time></trkpt><trkpt lat="34.47717649218508" lon="-6.492407791082944"><ele>26.0</ele><time>2026-04-22T15:29:06Z</time></trkpt><trkpt lat="34.47704382841775" lon="-6.492555456460081"><ele>25.666666666666664</ele><time>2026-04-22T15:29:07Z</time></trkpt><trkpt lat="34.47690931180028" lon="-6.492699442484335"><ele>25.333333333333336</ele><time>2026-04-22T15:29:08Z</time></trkpt><trkpt lat="34.47677831530344" lon="-6.492842459635397"><ele>25.0</ele><time>2026-04-22T15:29:09Z</time></trkpt><trkpt lat="34.47664740757538" lon="-6.492982469556581"><ele>25.0</ele><time>2026-04-22T15:29:10Z</time></trkpt><trkpt lat="34.476516701781996" lon="-6.493124329598434"><ele>25.0</ele><time>2026-04-22T15:29:11Z</time></trkpt><trkpt lat="34.476384967922556" lon="-6.4932622871430015"><ele>25.0</ele><time>2026-04-22T15:29:12Z</time></trkpt><trkpt lat="34.476252846817985" lon="-6.493403104472261"><ele>24.333333333333336</ele><time>2026-04-22T15:29:13Z</time></trkpt><trkpt lat="34.47611794014657" lon="-6.493543120674731"><ele>23.666666666666668</ele><time>2026-04-22T15:29:14Z</time></trkpt><trkpt lat="34.47598416074479" lon="-6.49368188661634"><ele>23.0</ele><time>2026-04-22T15:29:15Z</time></trkpt><trkpt lat="34.47585024306826" lon="-6.4938176459290124"><ele>23.0</ele><time>2026-04-22T15:29:16Z</time></trkpt><trkpt lat="34.47571407159916" lon="-6.493953406275458"><ele>23.0</ele><time>2026-04-22T15:29:17Z</time></trkpt><trkpt lat="34.47557499092185" lon="-6.494086476101984"><ele>23.0</ele><time>2026-04-22T15:29:18Z</time></trkpt><trkpt lat="34.47543403463501" lon="-6.494220672029441"><ele>22.666666666666668</ele><time>2026-04-22T15:29:19Z</time></trkpt><trkpt lat="34.47529154217813" lon="-6.494354771687784"><ele>22.333333333333332</ele><time>2026-04-22T15:29:20Z</time></trkpt><trkpt lat="34.475148933853646" lon="-6.49448851801891"><ele>22.0</ele><time>2026-04-22T15:29:21Z</time></trkpt><trkpt lat="34.47500224669732" lon="-6.494618853815623"><ele>22.0</ele><time>2026-04-22T15:29:22Z</time></trkpt><trkpt lat="34.47485644280821" lon="-6.494749520234134"><ele>22.0</ele><time>2026-04-22T15:29:23Z</time></trkpt><trkpt lat="34.474707944148804" lon="-6.494874662672786"><ele>22.0</ele><time>2026-04-22T15:29:24Z</time></trkpt><trkpt lat="34.47455698458035" lon="-6.495000619809271"><ele>21.666666666666664</ele><time>2026-04-22T15:29:25Z</time></trkpt><trkpt lat="34.474405950581826" lon="-6.495122587438754"><ele>21.333333333333332</ele><time>2026-04-22T15:29:26Z</time></trkpt><trkpt lat="34.474252318540344" lon="-6.495244630262466"><ele>21.0</ele><time>2026-04-22T15:29:27Z</time></trkpt><trkpt lat="34.474097633461184" lon="-6.495367804159965"><ele>21.333333333333332</ele><time>2026-04-22T15:29:28Z</time></trkpt><trkpt lat="34.47394178936681" lon="-6.495489154080133"><ele>21.666666666666664</ele><time>2026-04-22T15:29:29Z</time></trkpt><trkpt lat="34.47378495224404" lon="-6.495607348269752"><ele>22.0</ele><time>2026-04-22T15:29:30Z</time></trkpt><trkpt lat="34.47362895344812" lon="-6.495722633979506"><ele>20.666666666666664</ele><time>2026-04-22T15:29:31Z</time></trkpt><trkpt lat="34.473473993098004" lon="-6.495832996459485"><ele>19.333333333333332</ele><time>2026-04-22T15:29:32Z</time></trkpt><trkpt lat="34.47331909278271" lon="-6.495943846730328"><ele>18.0</ele><time>2026-04-22T15:29:33Z</time></trkpt><trkpt lat="34.47316458959752" lon="-6.49605158321999"><ele>18.0</ele><time>2026-04-22T15:29:34Z</time></trkpt><trkpt lat="34.47300946976027" lon="-6.496154743777312"><ele>18.0</ele><time>2026-04-22T15:29:35Z</time></trkpt><trkpt lat="34.47285290925967" lon="-6.496258283009763"><ele>18.0</ele><time>2026-04-22T15:29:36Z</time></trkpt><trkpt lat="34.472695852016045" lon="-6.4963612637179455"><ele>19.0</ele><time>2026-04-22T15:29:37Z</time></trkpt><trkpt lat="34.472537278199944" lon="-6.496460768371033"><ele>20.0</ele><time>2026-04-22T15:29:38Z</time></trkpt><trkpt lat="34.47237534324487" lon="-6.496557747739669"><ele>21.0</ele><time>2026-04-22T15:29:39Z</time></trkpt><trkpt lat="34.47221075649746" lon="-6.496657326105303"><ele>20.333333333333332</ele><time>2026-04-22T15:29:40Z</time></trkpt><trkpt lat="34.47204255107467" lon="-6.496753095277167"><ele>19.666666666666664</ele><time>2026-04-22T15:29:41Z</time></trkpt><trkpt lat="34.47187572594665" lon="-6.4968446636335555"><ele>19.0</ele><time>2026-04-22T15:29:42Z</time></trkpt><trkpt lat="34.471710418116984" lon="-6.49693612752739"><ele>19.0</ele><time>2026-04-22T15:29:43Z</time></trkpt><trkpt lat="34.47154212380032" lon="-6.497025436856731"><ele>19.0</ele><time>2026-04-22T15:29:44Z</time></trkpt><trkpt lat="34.471379515298544" lon="-6.497108552440779"><ele>19.0</ele><time>2026-04-22T15:29:45Z</time></trkpt><trkpt lat="34.47121490496503" lon="-6.497196190532076"><ele>19.666666666666664</ele><time>2026-04-22T15:29:46Z</time></trkpt><trkpt lat="34.471051785997176" lon="-6.497284602464359"><ele>20.333333333333332</ele><time>2026-04-22T15:29:47Z</time></trkpt><trkpt lat="34.47088284448885" lon="-6.497363887768136"><ele>21.0</ele><time>2026-04-22T15:29:48Z</time></trkpt><trkpt lat="34.47070793026719" lon="-6.497441302588204"><ele>21.0</ele><time>2026-04-22T15:29:49Z</time></trkpt><trkpt lat="34.470533589697" lon="-6.497520729306533"><ele>21.0</ele><time>2026-04-22T15:29:50Z</time></trkpt><trkpt lat="34.47035886989423" lon="-6.497596331846089"><ele>21.0</ele><time>2026-04-22T15:29:51Z</time></trkpt><trkpt lat="34.47018138780015" lon="-6.497673376017036"><ele>20.666666666666668</ele><time>2026-04-22T15:29:52Z</time></trkpt><trkpt lat="34.47000195463233" lon="-6.497748453596014"><ele>20.333333333333336</ele><time>2026-04-22T15:29:53Z</time></trkpt><trkpt lat="34.469821926342156" lon="-6.497820510326554"><ele>20.0</ele><time>2026-04-22T15:29:54Z</time></trkpt><trkpt lat="34.46964117057538" lon="-6.497889366062759"><ele>21.0</ele><time>2026-04-22T15:29:55Z</time></trkpt><trkpt lat="34.469460883216406" lon="-6.497955745871701"><ele>22.0</ele><time>2026-04-22T15:29:56Z</time></trkpt><trkpt lat="34.469280261406716" lon="-6.498021130144666"><ele>23.0</ele><time>2026-04-22T15:29:57Z</time></trkpt><trkpt lat="34.46909846466918" lon="-6.498085277051798"><ele>23.0</ele><time>2026-04-22T15:29:58Z</time></trkpt><trkpt lat="34.468917381529025" lon="-6.4981468200232575"><ele>23.0</ele><time>2026-04-22T15:29:59Z</time></trkpt><trkpt lat="34.46873915239517" lon="-6.4982028711547635"><ele>23.0</ele><time>2026-04-22T15:30:00Z</time></trkpt><trkpt lat="34.46855897956471" lon="-6.49825504200099"><ele>22.666666666666668</ele><time>2026-04-22T15:30:01Z</time></trkpt><trkpt lat="34.468380838992395" lon="-6.498303848989723"><ele>22.333333333333332</ele><time>2026-04-22T15:30:02Z</time></trkpt><trkpt lat="34.468202900884386" lon="-6.498353069571081"><ele>22.0</ele><time>2026-04-22T15:30:03Z</time></trkpt><trkpt lat="34.46802150194506" lon="-6.498400346019094"><ele>22.0</ele><time>2026-04-22T15:30:03.999Z</time></trkpt><trkpt lat="34.467838243989824" lon="-6.498446754052338"><ele>22.0</ele><time>2026-04-22T15:30:04.999Z</time></trkpt><trkpt lat="34.467654856629" lon="-6.498491934546399"><ele>22.0</ele><time>2026-04-22T15:30:05.999Z</time></trkpt><trkpt lat="34.46746851462795" lon="-6.498533888997258"><ele>22.0</ele><time>2026-04-22T15:30:06.999Z</time></trkpt><trkpt lat="34.46728090791514" lon="-6.498573760210424"><ele>22.0</ele><time>2026-04-22T15:30:07.999Z</time></trkpt><trkpt lat="34.467090413103925" lon="-6.498613454374391"><ele>22.0</ele><time>2026-04-22T15:30:08.999Z</time></trkpt><trkpt lat="34.466901364410546" lon="-6.4986526882156515"><ele>22.333333333333332</ele><time>2026-04-22T15:30:09.999Z</time></trkpt><trkpt lat="34.4667133371869" lon="-6.498692772323745"><ele>22.666666666666668</ele><time>2026-04-22T15:30:10.999Z</time></trkpt><trkpt lat="34.46652703407619" lon="-6.49873325576508"><ele>23.0</ele><time>2026-04-22T15:30:11.999Z</time></trkpt><trkpt lat="34.4663422148002" lon="-6.498774731376742"><ele>23.666666666666668</ele><time>2026-04-22T15:30:12.999Z</time></trkpt><trkpt lat="34.466157556629" lon="-6.498814542983424"><ele>24.333333333333336</ele><time>2026-04-22T15:30:13.999Z</time></trkpt><trkpt lat="34.46597246873132" lon="-6.498853895134549"><ele>25.0</ele><time>2026-04-22T15:30:14.999Z</time></trkpt><trkpt lat="34.465786601135044" lon="-6.49889279395834"><ele>25.0</ele><time>2026-04-22T15:30:15.999Z</time></trkpt><trkpt lat="34.465602184392665" lon="-6.49893096365172"><ele>25.0</ele><time>2026-04-22T15:30:16.999Z</time></trkpt><trkpt lat="34.46541959678364" lon="-6.498970373102388"><ele>25.0</ele><time>2026-04-22T15:30:17.999Z</time></trkpt><trkpt lat="34.465237407705494" lon="-6.499011379266445"><ele>24.666666666666668</ele><time>2026-04-22T15:30:18.999Z</time></trkpt><trkpt lat="34.4650550538725" lon="-6.499052185768253"><ele>24.333333333333336</ele><time>2026-04-22T15:30:19.999Z</time></trkpt><trkpt lat="34.464871669617274" lon="-6.499089539381313"><ele>24.0</ele><time>2026-04-22T15:30:20.999Z</time></trkpt><trkpt lat="34.46468874193523" lon="-6.499129909130717"><ele>23.333333333333332</ele><time>2026-04-22T15:30:21.999Z</time></trkpt><trkpt lat="34.46450454854123" lon="-6.499168666899587"><ele>22.666666666666664</ele><time>2026-04-22T15:30:22.999Z</time></trkpt><trkpt lat="34.46431996291175" lon="-6.49920840981947"><ele>22.0</ele><time>2026-04-22T15:30:23.999Z</time></trkpt><trkpt lat="34.464135422636936" lon="-6.499245043495247"><ele>22.0</ele><time>2026-04-22T15:30:24.999Z</time></trkpt><trkpt lat="34.46395294442395" lon="-6.499281758716899"><ele>22.0</ele><time>2026-04-22T15:30:25.999Z</time></trkpt><trkpt lat="34.46376999265764" lon="-6.499322107861005"><ele>22.0</ele><time>2026-04-22T15:30:26.999Z</time></trkpt><trkpt lat="34.46358615561657" lon="-6.499361408724699"><ele>22.333333333333332</ele><time>2026-04-22T15:30:27.999Z</time></trkpt><trkpt lat="34.463403121438496" lon="-6.499400812056603"><ele>22.666666666666668</ele><time>2026-04-22T15:30:28.999Z</time></trkpt><trkpt lat="34.46322183764633" lon="-6.499441957773351"><ele>23.0</ele><time>2026-04-22T15:30:29.999Z</time></trkpt><trkpt lat="34.463040796861925" lon="-6.49947941667041"><ele>23.333333333333336</ele><time>2026-04-22T15:30:30.999Z</time></trkpt><trkpt lat="34.46285977142405" lon="-6.499518427603179"><ele>23.666666666666668</ele><time>2026-04-22T15:30:31.999Z</time></trkpt><trkpt lat="34.46267955423095" lon="-6.499557955017194"><ele>24.0</ele><time>2026-04-22T15:30:32.999Z</time></trkpt><trkpt lat="34.462498165016584" lon="-6.499595972618859"><ele>24.0</ele><time>2026-04-22T15:30:33.999Z</time></trkpt><trkpt lat="34.462315638452665" lon="-6.499636256061675"><ele>24.0</ele><time>2026-04-22T15:30:34.999Z</time></trkpt><trkpt lat="34.46213143976655" lon="-6.49967717930381"><ele>24.0</ele><time>2026-04-22T15:30:35.999Z</time></trkpt><trkpt lat="34.461944531067125" lon="-6.499716618732433"><ele>23.333333333333332</ele><time>2026-04-22T15:30:36.999Z</time></trkpt><trkpt lat="34.461756307235056" lon="-6.499758957625082"><ele>22.666666666666664</ele><time>2026-04-22T15:30:37.999Z</time></trkpt><trkpt lat="34.461567750454925" lon="-6.499800060564274"><ele>22.0</ele><time>2026-04-22T15:30:38.999Z</time></trkpt><trkpt lat="34.461378830135324" lon="-6.499840187795128"><ele>21.666666666666664</ele><time>2026-04-22T15:30:39.999Z</time></trkpt><trkpt lat="34.46118779037545" lon="-6.499883053595142"><ele>21.333333333333332</ele><time>2026-04-22T15:30:40.999Z</time></trkpt><trkpt lat="34.46099375277611" lon="-6.499923446893178"><ele>21.0</ele><time>2026-04-22T15:30:41.999Z</time></trkpt><trkpt lat="34.460798235778924" lon="-6.499962612034415"><ele>21.0</ele><time>2026-04-22T15:30:42.999Z</time></trkpt><trkpt lat="34.46060098913569" lon="-6.500002600485056"><ele>21.0</ele><time>2026-04-22T15:30:43.999Z</time></trkpt><trkpt lat="34.46040275569781" lon="-6.50004377700622"><ele>21.0</ele><time>2026-04-22T15:30:44.999Z</time></trkpt><trkpt lat="34.460205946967804" lon="-6.500088587100802"><ele>21.0</ele><time>2026-04-22T15:30:45.999Z</time></trkpt><trkpt lat="34.46000760994131" lon="-6.500132513615512"><ele>21.0</ele><time>2026-04-22T15:30:47Z</time></trkpt><trkpt lat="34.45980970218764" lon="-6.500176522421469"><ele>21.0</ele><time>2026-04-22T15:30:48Z</time></trkpt><trkpt lat="34.45961282937393" lon="-6.500219821998579"><ele>21.0</ele><time>2026-04-22T15:30:49Z</time></trkpt><trkpt lat="34.45941825357298" lon="-6.5002628025886215"><ele>21.0</ele><time>2026-04-22T15:30:50Z</time></trkpt><trkpt lat="34.459225675564475" lon="-6.500305669931561"><ele>21.0</ele><time>2026-04-22T15:30:51Z</time></trkpt><trkpt lat="34.4590335125012" lon="-6.500344909286724"><ele>21.0</ele><time>2026-04-22T15:30:52Z</time></trkpt><trkpt lat="34.45884343046232" lon="-6.500384878830711"><ele>21.0</ele><time>2026-04-22T15:30:53Z</time></trkpt><trkpt lat="34.45865214715536" lon="-6.500425097354108"><ele>21.0</ele><time>2026-04-22T15:30:54Z</time></trkpt><trkpt lat="34.45846058895361" lon="-6.500468086236416"><ele>21.0</ele><time>2026-04-22T15:30:55Z</time></trkpt><trkpt lat="34.45826711428267" lon="-6.500506458749357"><ele>21.0</ele><time>2026-04-22T15:30:56Z</time></trkpt><trkpt lat="34.458073163174795" lon="-6.500544530621304"><ele>21.0</ele><time>2026-04-22T15:30:57Z</time></trkpt><trkpt lat="34.45787889967089" lon="-6.500586708712895"><ele>21.0</ele><time>2026-04-22T15:30:58Z</time></trkpt><trkpt lat="34.457685406575195" lon="-6.500628598681343"><ele>21.0</ele><time>2026-04-22T15:30:59Z</time></trkpt><trkpt lat="34.45749514470146" lon="-6.500670868587506"><ele>21.0</ele><time>2026-04-22T15:31:00Z</time></trkpt><trkpt lat="34.4573062487289" lon="-6.500714108072547"><ele>21.0</ele><time>2026-04-22T15:31:01Z</time></trkpt><trkpt lat="34.45711808861452" lon="-6.500754090253305"><ele>21.0</ele><time>2026-04-22T15:31:02Z</time></trkpt><trkpt lat="34.45693037699454" lon="-6.500796788246335"><ele>21.0</ele><time>2026-04-22T15:31:03Z</time></trkpt><trkpt lat="34.45674250707939" lon="-6.5008383878011005"><ele>21.0</ele><time>2026-04-22T15:31:04Z</time></trkpt><trkpt lat="34.45655406187328" lon="-6.500877980046115"><ele>21.0</ele><time>2026-04-22T15:31:05Z</time></trkpt><trkpt lat="34.45636545941227" lon="-6.500918550208417"><ele>21.0</ele><time>2026-04-22T15:31:06Z</time></trkpt><trkpt lat="34.45617580241225" lon="-6.500958484981059"><ele>21.333333333333332</ele><time>2026-04-22T15:31:07Z</time></trkpt><trkpt lat="34.45598727584034" lon="-6.500997947180161"><ele>21.666666666666664</ele><time>2026-04-22T15:31:08Z</time></trkpt><trkpt lat="34.45579771428303" lon="-6.50103766291781"><ele>22.0</ele><time>2026-04-22T15:31:09Z</time></trkpt><trkpt lat="34.45560626056363" lon="-6.501078229027515"><ele>22.333333333333332</ele><time>2026-04-22T15:31:10Z</time></trkpt><trkpt lat="34.45541284886825" lon="-6.5011197835304495"><ele>22.666666666666668</ele><time>2026-04-22T15:31:11Z</time></trkpt><trkpt lat="34.45521939225706" lon="-6.501164094835188"><ele>23.0</ele><time>2026-04-22T15:31:12Z</time></trkpt><trkpt lat="34.45502567751857" lon="-6.501211933227388"><ele>24.0</ele><time>2026-04-22T15:31:13Z</time></trkpt><trkpt lat="34.45483319677255" lon="-6.501263595493458"><ele>25.0</ele><time>2026-04-22T15:31:14Z</time></trkpt><trkpt lat="34.454641205021545" lon="-6.501314222858359"><ele>26.0</ele><time>2026-04-22T15:31:15Z</time></trkpt><trkpt lat="34.45445160602591" lon="-6.501367123068697"><ele>26.0</ele><time>2026-04-22T15:31:16Z</time></trkpt><trkpt lat="34.45426311141357" lon="-6.501423781686022"><ele>26.0</ele><time>2026-04-22T15:31:17Z</time></trkpt><trkpt lat="34.45407760393757" lon="-6.501479687314282"><ele>26.0</ele><time>2026-04-22T15:31:18Z</time></trkpt><trkpt lat="34.45389461825397" lon="-6.501539359248604"><ele>25.0</ele><time>2026-04-22T15:31:19Z</time></trkpt><trkpt lat="34.453715879242445" lon="-6.501604423296351"><ele>24.0</ele><time>2026-04-22T15:31:20Z</time></trkpt><trkpt lat="34.45353385726592" lon="-6.501666622739382"><ele>23.0</ele><time>2026-04-22T15:31:21Z</time></trkpt><trkpt lat="34.45334858976831" lon="-6.501732160730363"><ele>23.0</ele><time>2026-04-22T15:31:22Z</time></trkpt><trkpt lat="34.45315786091343" lon="-6.501805318023239"><ele>23.0</ele><time>2026-04-22T15:31:23Z</time></trkpt><trkpt lat="34.452963661995625" lon="-6.501880832248594"><ele>23.0</ele><time>2026-04-22T15:31:24Z</time></trkpt><trkpt lat="34.45276550825054" lon="-6.501958080351765"><ele>22.666666666666668</ele><time>2026-04-22T15:31:25Z</time></trkpt><trkpt lat="34.452563625806484" lon="-6.502037865068119"><ele>22.333333333333332</ele><time>2026-04-22T15:31:26Z</time></trkpt><trkpt lat="34.452355593135046" lon="-6.502120495026805"><ele>22.0</ele><time>2026-04-22T15:31:27Z</time></trkpt><trkpt lat="34.452142414259306" lon="-6.502206337352484"><ele>24.0</ele><time>2026-04-22T15:31:28Z</time></trkpt><trkpt lat="34.45192645120957" lon="-6.502298153413194"><ele>26.0</ele><time>2026-04-22T15:31:29Z</time></trkpt><trkpt lat="34.451710377761174" lon="-6.5024046016506025"><ele>26.0</ele><time>2026-04-22T15:31:30Z</time></trkpt><trkpt lat="34.451487219262475" lon="-6.502515918199249"><ele>26.0</ele><time>2026-04-22T15:31:31Z</time></trkpt><trkpt lat="34.45126145678977" lon="-6.502639097375873"><ele>24.5</ele><time>2026-04-22T15:31:32Z</time></trkpt><trkpt lat="34.45103031190917" lon="-6.502770759976616"><ele>23.0</ele><time>2026-04-22T15:31:33Z</time></trkpt><trkpt lat="34.45079603986744" lon="-6.50291425873823"><ele>23.0</ele><time>2026-04-22T15:31:34Z</time></trkpt><trkpt lat="34.450559218387745" lon="-6.503068578175166"><ele>23.0</ele><time>2026-04-22T15:31:35Z</time></trkpt><trkpt lat="34.4503197414813" lon="-6.50323004167748"><ele>23.0</ele><time>2026-04-22T15:31:36Z</time></trkpt><trkpt lat="34.45007682054136" lon="-6.5033948560106705"><ele>23.0</ele><time>2026-04-22T15:31:37Z</time></trkpt><trkpt lat="34.449832278173226" lon="-6.5035623559539895"><ele>21.5</ele><time>2026-04-22T15:31:38Z</time></trkpt><trkpt lat="34.449587325982044" lon="-6.503736448794518"><ele>20.0</ele><time>2026-04-22T15:31:39Z</time></trkpt><trkpt lat="34.44933809113569" lon="-6.503908925326783"><ele>23.0</ele><time>2026-04-22T15:31:40Z</time></trkpt><trkpt lat="34.44909349550811" lon="-6.504089129712532"><ele>26.0</ele><time>2026-04-22T15:31:41Z</time></trkpt><trkpt lat="34.44884716348521" lon="-6.504264345461301"><ele>26.0</ele><time>2026-04-22T15:31:42Z</time></trkpt><trkpt lat="34.448600173907884" lon="-6.504444379779224"><ele>26.0</ele><time>2026-04-22T15:31:43Z</time></trkpt><trkpt lat="34.448351915363446" lon="-6.504624975420515"><ele>26.0</ele><time>2026-04-22T15:31:44Z</time></trkpt><trkpt lat="34.448103231358175" lon="-6.504804844237201"><ele>26.0</ele><time>2026-04-22T15:31:45Z</time></trkpt><trkpt lat="34.44785277131467" lon="-6.504982666830104"><ele>23.5</ele><time>2026-04-22T15:31:46Z</time></trkpt><trkpt lat="34.44760259582909" lon="-6.50516142429004"><ele>21.0</ele><time>2026-04-22T15:31:47Z</time></trkpt><trkpt lat="34.44735319281784" lon="-6.50534249139166"><ele>20.0</ele><time>2026-04-22T15:31:48Z</time></trkpt><trkpt lat="34.44710341692122" lon="-6.505521910403423"><ele>19.0</ele><time>2026-04-22T15:31:49Z</time></trkpt><trkpt lat="34.44685271541341" lon="-6.50570052174359"><ele>19.0</ele><time>2026-04-22T15:31:50Z</time></trkpt><trkpt lat="34.446601295373455" lon="-6.505878186888115"><ele>19.0</ele><time>2026-04-22T15:31:51Z</time></trkpt><trkpt lat="34.44634789025709" lon="-6.506053519064662"><ele>19.5</ele><time>2026-04-22T15:31:52Z</time></trkpt><trkpt lat="34.446091944206515" lon="-6.50622251789919"><ele>20.0</ele><time>2026-04-22T15:31:53Z</time></trkpt><trkpt lat="34.44583324616411" lon="-6.506381709766952"><ele>20.0</ele><time>2026-04-22T15:31:54Z</time></trkpt><trkpt lat="34.44557307020632" lon="-6.506538004000526"><ele>20.0</ele><time>2026-04-22T15:31:55Z</time></trkpt><trkpt lat="34.44530931677086" lon="-6.506685483849384"><ele>20.0</ele><time>2026-04-22T15:31:56Z</time></trkpt><trkpt lat="34.44504387357157" lon="-6.506827097374203"><ele>20.0</ele><time>2026-04-22T15:31:57Z</time></trkpt><trkpt lat="34.444778956615636" lon="-6.5069717570532974"><ele>20.0</ele><time>2026-04-22T15:31:58Z</time></trkpt><trkpt lat="34.44451137461542" lon="-6.507108680431131"><ele>20.0</ele><time>2026-04-22T15:31:59Z</time></trkpt><trkpt lat="34.444241973388856" lon="-6.507239122543652"><ele>20.0</ele><time>2026-04-22T15:32:00Z</time></trkpt><trkpt lat="34.443971950300835" lon="-6.507363548268532"><ele>20.0</ele><time>2026-04-22T15:32:01Z</time></trkpt><trkpt lat="34.44369982886217" lon="-6.507482017037193"><ele>19.5</ele><time>2026-04-22T15:32:02Z</time></trkpt><trkpt lat="34.4434254163711" lon="-6.507595661418606"><ele>19.0</ele><time>2026-04-22T15:32:03Z</time></trkpt><trkpt lat="34.443150248656686" lon="-6.507708107437188"><ele>18.5</ele><time>2026-04-22T15:32:04Z</time></trkpt><trkpt lat="34.44287437920538" lon="-6.507812989892167"><ele>18.0</ele><time>2026-04-22T15:32:05Z</time></trkpt><trkpt lat="34.44259586856141" lon="-6.507914197891481"><ele>20.0</ele><time>2026-04-22T15:32:06Z</time></trkpt><trkpt lat="34.44231800829013" lon="-6.508012068728346"><ele>22.0</ele><time>2026-04-22T15:32:06.999Z</time></trkpt><trkpt lat="34.442039775342685" lon="-6.508112567717061"><ele>22.5</ele><time>2026-04-22T15:32:07.999Z</time></trkpt><trkpt lat="34.441762093453114" lon="-6.508216225744543"><ele>23.0</ele><time>2026-04-22T15:32:08.999Z</time></trkpt><trkpt lat="34.4414817037183" lon="-6.508314078719396"><ele>23.0</ele><time>2026-04-22T15:32:09.999Z</time></trkpt><trkpt lat="34.44120255479348" lon="-6.508416823199236"><ele>23.0</ele><time>2026-04-22T15:32:10.999Z</time></trkpt><trkpt lat="34.44092410519933" lon="-6.508520400641603"><ele>23.0</ele><time>2026-04-22T15:32:11.999Z</time></trkpt><trkpt lat="34.44064499332689" lon="-6.508621591925062"><ele>23.0</ele><time>2026-04-22T15:32:12.999Z</time></trkpt><trkpt lat="34.44036651654263" lon="-6.508719545288"><ele>22.5</ele><time>2026-04-22T15:32:13.999Z</time></trkpt><trkpt lat="34.440088743012865" lon="-6.508821042734797"><ele>22.0</ele><time>2026-04-22T15:32:14.999Z</time></trkpt><trkpt lat="34.439812822790145" lon="-6.508925245532054"><ele>22.5</ele><time>2026-04-22T15:32:15.999Z</time></trkpt><trkpt lat="34.43953631933715" lon="-6.5090311770628215"><ele>23.0</ele><time>2026-04-22T15:32:16.999Z</time></trkpt><trkpt lat="34.43926177435875" lon="-6.509142354406781"><ele>23.0</ele><time>2026-04-22T15:32:17.999Z</time></trkpt><trkpt lat="34.43899089089478" lon="-6.509262026838023"><ele>23.0</ele><time>2026-04-22T15:32:18.999Z</time></trkpt><trkpt lat="34.43871985596191" lon="-6.509383773261811"><ele>23.5</ele><time>2026-04-22T15:32:19.999Z</time></trkpt><trkpt lat="34.4384500983301" lon="-6.509511508554194"><ele>24.0</ele><time>2026-04-22T15:32:20.999Z</time></trkpt><trkpt lat="34.43818177439583" lon="-6.5096463874436905"><ele>23.0</ele><time>2026-04-22T15:32:21.999Z</time></trkpt><trkpt lat="34.43791540029581" lon="-6.509787305571054"><ele>22.0</ele><time>2026-04-22T15:32:22.999Z</time></trkpt><trkpt lat="34.43765083490148" lon="-6.509932607988339"><ele>22.0</ele><time>2026-04-22T15:32:23.999Z</time></trkpt><trkpt lat="34.437388198880285" lon="-6.510085366184749"><ele>22.0</ele><time>2026-04-22T15:32:24.999Z</time></trkpt><trkpt lat="34.43712650216209" lon="-6.51024306969972"><ele>22.5</ele><time>2026-04-22T15:32:25.999Z</time></trkpt><trkpt lat="34.436866768456944" lon="-6.510405721488273"><ele>23.0</ele><time>2026-04-22T15:32:26.999Z</time></trkpt><trkpt lat="34.43660902101139" lon="-6.510571080559031"><ele>23.0</ele><time>2026-04-22T15:32:27.999Z</time></trkpt><trkpt lat="34.43635464804121" lon="-6.510741967346098"><ele>23.0</ele><time>2026-04-22T15:32:28.999Z</time></trkpt><trkpt lat="34.436101055424075" lon="-6.510914283139542"><ele>23.0</ele><time>2026-04-22T15:32:29.999Z</time></trkpt><trkpt lat="34.435851576098784" lon="-6.511096604779674"><ele>23.0</ele><time>2026-04-22T15:32:30.999Z</time></trkpt><trkpt lat="34.43560420193232" lon="-6.511283580876526"><ele>23.5</ele><time>2026-04-22T15:32:31.999Z</time></trkpt><trkpt lat="34.435360671154996" lon="-6.511477213299173"><ele>24.0</ele><time>2026-04-22T15:32:32.999Z</time></trkpt><trkpt lat="34.43511767386725" lon="-6.511674574045358"><ele>24.0</ele><time>2026-04-22T15:32:33.999Z</time></trkpt><trkpt lat="34.43487508159643" lon="-6.511875076832971"><ele>24.0</ele><time>2026-04-22T15:32:34.999Z</time></trkpt><trkpt lat="34.434636308111756" lon="-6.512084144895982"><ele>25.0</ele><time>2026-04-22T15:32:35.999Z</time></trkpt><trkpt lat="34.43440183073446" lon="-6.512295852231052"><ele>26.0</ele><time>2026-04-22T15:32:36.999Z</time></trkpt><trkpt lat="34.43417132992526" lon="-6.512513293385119"><ele>26.0</ele><time>2026-04-22T15:32:37.999Z</time></trkpt><trkpt lat="34.43393973447084" lon="-6.512731323107967"><ele>26.0</ele><time>2026-04-22T15:32:38.999Z</time></trkpt><trkpt lat="34.43371275469097" lon="-6.512952410768428"><ele>25.5</ele><time>2026-04-22T15:32:39.999Z</time></trkpt><trkpt lat="34.433488993571544" lon="-6.5131788764208505"><ele>25.0</ele><time>2026-04-22T15:32:40.999Z</time></trkpt><trkpt lat="34.43326773236564" lon="-6.513411028961813"><ele>25.0</ele><time>2026-04-22T15:32:41.999Z</time></trkpt><trkpt lat="34.433043022236134" lon="-6.513639445941056"><ele>25.0</ele><time>2026-04-22T15:32:42.999Z</time></trkpt><trkpt lat="34.43281795680565" lon="-6.51386657073818"><ele>22.5</ele><time>2026-04-22T15:32:43.999Z</time></trkpt><trkpt lat="34.43259211595389" lon="-6.514086351808972"><ele>20.0</ele><time>2026-04-22T15:32:44.999Z</time></trkpt><trkpt lat="34.43236965215423" lon="-6.514314315104971"><ele>20.0</ele><time>2026-04-22T15:32:45.999Z</time></trkpt><trkpt lat="34.43214833691576" lon="-6.51453850764596"><ele>20.0</ele><time>2026-04-22T15:32:46.999Z</time></trkpt><trkpt lat="34.4319246732936" lon="-6.51475670367211"><ele>19.5</ele><time>2026-04-22T15:32:47.999Z</time></trkpt><trkpt lat="34.43170398271963" lon="-6.514977640195676"><ele>19.0</ele><time>2026-04-22T15:32:48.999Z</time></trkpt><trkpt lat="34.43147948035956" lon="-6.515195925520363"><ele>18.0</ele><time>2026-04-22T15:32:49.999Z</time></trkpt><trkpt lat="34.43125554882584" lon="-6.515415577693268"><ele>17.0</ele><time>2026-04-22T15:32:50.999Z</time></trkpt><trkpt lat="34.43102866356764" lon="-6.515633048389171"><ele>17.0</ele><time>2026-04-22T15:32:51.999Z</time></trkpt><trkpt lat="34.43079965084642" lon="-6.515851678280087"><ele>17.0</ele><time>2026-04-22T15:32:53Z</time></trkpt><trkpt lat="34.430564416473246" lon="-6.5160584454357995"><ele>18.0</ele><time>2026-04-22T15:32:54Z</time></trkpt><trkpt lat="34.43032676056774" lon="-6.516256016253242"><ele>19.0</ele><time>2026-04-22T15:32:55Z</time></trkpt><trkpt lat="34.430087848534306" lon="-6.516450297425863"><ele>19.0</ele><time>2026-04-22T15:32:56Z</time></trkpt><trkpt lat="34.42984646439469" lon="-6.516639527664234"><ele>19.0</ele><time>2026-04-22T15:32:57Z</time></trkpt><trkpt lat="34.42960093357806" lon="-6.516820570149601"><ele>18.5</ele><time>2026-04-22T15:32:58Z</time></trkpt><trkpt lat="34.429353829495454" lon="-6.517003740821873"><ele>18.0</ele><time>2026-04-22T15:32:59Z</time></trkpt><trkpt lat="34.42910509492219" lon="-6.5171869242558"><ele>18.0</ele><time>2026-04-22T15:33:00Z</time></trkpt><trkpt lat="34.428852847453875" lon="-6.517361966105981"><ele>18.0</ele><time>2026-04-22T15:33:01Z</time></trkpt><trkpt lat="34.42859729804283" lon="-6.517531383464303"><ele>18.0</ele><time>2026-04-22T15:33:02Z</time></trkpt><trkpt lat="34.428340071946394" lon="-6.517698262663365"><ele>18.0</ele><time>2026-04-22T15:33:03Z</time></trkpt><trkpt lat="34.42808304311323" lon="-6.517863034881878"><ele>20.5</ele><time>2026-04-22T15:33:04Z</time></trkpt><trkpt lat="34.42782135454728" lon="-6.518018308262618"><ele>23.0</ele><time>2026-04-22T15:33:05Z</time></trkpt><trkpt lat="34.42755736284231" lon="-6.518167229900256"><ele>23.0</ele><time>2026-04-22T15:33:06Z</time></trkpt><trkpt lat="34.42729230161337" lon="-6.518311190585948"><ele>23.0</ele><time>2026-04-22T15:33:07Z</time></trkpt><trkpt lat="34.42702427865582" lon="-6.518451190920381"><ele>23.0</ele><time>2026-04-22T15:33:08Z</time></trkpt><trkpt lat="34.42675386380769" lon="-6.518582770103694"><ele>23.0</ele><time>2026-04-22T15:33:09Z</time></trkpt><trkpt lat="34.42648236851099" lon="-6.518709973096571"><ele>23.5</ele><time>2026-04-22T15:33:10Z</time></trkpt><trkpt lat="34.42620764949104" lon="-6.51883256342311"><ele>24.0</ele><time>2026-04-22T15:33:11Z</time></trkpt><trkpt lat="34.4259297479981" lon="-6.518949606880438"><ele>24.0</ele><time>2026-04-22T15:33:12Z</time></trkpt><trkpt lat="34.42565456635592" lon="-6.519069998278924"><ele>24.0</ele><time>2026-04-22T15:33:13Z</time></trkpt><trkpt lat="34.42537852019597" lon="-6.519188703362859"><ele>24.0</ele><time>2026-04-22T15:33:14Z</time></trkpt><trkpt lat="34.42510272790005" lon="-6.51930503767039"><ele>24.0</ele><time>2026-04-22T15:33:15Z</time></trkpt><trkpt lat="34.424828547652496" lon="-6.519423224600892"><ele>24.5</ele><time>2026-04-22T15:33:16Z</time></trkpt><trkpt lat="34.42455175268603" lon="-6.519537774626644"><ele>25.0</ele><time>2026-04-22T15:33:17Z</time></trkpt><trkpt lat="34.42427530147137" lon="-6.519654183307799"><ele>26.0</ele><time>2026-04-22T15:33:18Z</time></trkpt><trkpt lat="34.42399742280719" lon="-6.519767080400842"><ele>27.0</ele><time>2026-04-22T15:33:19Z</time></trkpt><trkpt lat="34.423720406376646" lon="-6.519880736843198"><ele>27.0</ele><time>2026-04-22T15:33:20Z</time></trkpt><trkpt lat="34.423442697107376" lon="-6.519993216280445"><ele>27.0</ele><time>2026-04-22T15:33:21Z</time></trkpt><trkpt lat="34.42316439833999" lon="-6.5201063322967165"><ele>27.0</ele><time>2026-04-22T15:33:22Z</time></trkpt><trkpt lat="34.42288791275531" lon="-6.520220678024761"><ele>27.0</ele><time>2026-04-22T15:33:23Z</time></trkpt><trkpt lat="34.42261293253159" lon="-6.520336267255506"><ele>27.5</ele><time>2026-04-22T15:33:24Z</time></trkpt><trkpt lat="34.42233779497568" lon="-6.520453388199879"><ele>28.0</ele><time>2026-04-22T15:33:25Z</time></trkpt><trkpt lat="34.4220632584038" lon="-6.520572505732735"><ele>28.0</ele><time>2026-04-22T15:33:26Z</time></trkpt><trkpt lat="34.421788138997194" lon="-6.520690061827225"><ele>28.0</ele><time>2026-04-22T15:33:27Z</time></trkpt><trkpt lat="34.42151342251393" lon="-6.520805465075261"><ele>26.0</ele><time>2026-04-22T15:33:28Z</time></trkpt><trkpt lat="34.42123864903395" lon="-6.520927090424067"><ele>24.0</ele><time>2026-04-22T15:33:29Z</time></trkpt><trkpt lat="34.42096709620067" lon="-6.521051723417534"><ele>24.0</ele><time>2026-04-22T15:33:30Z</time></trkpt><trkpt lat="34.42069511509059" lon="-6.521177383972638"><ele>24.0</ele><time>2026-04-22T15:33:31Z</time></trkpt><trkpt lat="34.42042327329926" lon="-6.5213036622457965"><ele>23.0</ele><time>2026-04-22T15:33:32Z</time></trkpt><trkpt lat="34.42014961421518" lon="-6.521426193133687"><ele>22.0</ele><time>2026-04-22T15:33:33Z</time></trkpt><trkpt lat="34.41987551988506" lon="-6.5215454857994795"><ele>20.0</ele><time>2026-04-22T15:33:34Z</time></trkpt><trkpt lat="34.419601284102015" lon="-6.521666526963351"><ele>18.0</ele><time>2026-04-22T15:33:35Z</time></trkpt><trkpt lat="34.419326812942295" lon="-6.521783018861888"><ele>18.0</ele><time>2026-04-22T15:33:36Z</time></trkpt><trkpt lat="34.41905238191888" lon="-6.521899642363353"><ele>18.0</ele><time>2026-04-22T15:33:37Z</time></trkpt><trkpt lat="34.418779224790796" lon="-6.522018186532502"><ele>16.5</ele><time>2026-04-22T15:33:38Z</time></trkpt><trkpt lat="34.418506301203436" lon="-6.522140562554614"><ele>15.0</ele><time>2026-04-22T15:33:39Z</time></trkpt><trkpt lat="34.418232087684174" lon="-6.522257888576145"><ele>15.5</ele><time>2026-04-22T15:33:40Z</time></trkpt><trkpt lat="34.41795844263048" lon="-6.5223784858348095"><ele>16.0</ele><time>2026-04-22T15:33:41Z</time></trkpt><trkpt lat="34.41768247152329" lon="-6.522493817981731"><ele>16.0</ele><time>2026-04-22T15:33:42Z</time></trkpt><trkpt lat="34.41740821444576" lon="-6.52261194247738"><ele>16.0</ele><time>2026-04-22T15:33:43Z</time></trkpt><trkpt lat="34.41713402848613" lon="-6.522730027453686"><ele>15.5</ele><time>2026-04-22T15:33:44Z</time></trkpt><trkpt lat="34.41685901350915" lon="-6.522848998275553"><ele>15.0</ele><time>2026-04-22T15:33:45Z</time></trkpt><trkpt lat="34.41658461944784" lon="-6.522967527054645"><ele>15.0</ele><time>2026-04-22T15:33:46Z</time></trkpt><trkpt lat="34.41630933861684" lon="-6.523087171796377"><ele>15.0</ele><time>2026-04-22T15:33:47Z</time></trkpt><trkpt lat="34.41603303779508" lon="-6.523204650228246"><ele>15.0</ele><time>2026-04-22T15:33:48Z</time></trkpt><trkpt lat="34.41575660842331" lon="-6.523318131655719"><ele>15.0</ele><time>2026-04-22T15:33:49Z</time></trkpt><trkpt lat="34.415479762717865" lon="-6.523426916791698"><ele>12.5</ele><time>2026-04-22T15:33:50Z</time></trkpt><trkpt lat="34.41520289545339" lon="-6.5235342453066485"><ele>10.0</ele><time>2026-04-22T15:33:51Z</time></trkpt><trkpt lat="34.41492385550578" lon="-6.523632794786154"><ele>10.0</ele><time>2026-04-22T15:33:52Z</time></trkpt><trkpt lat="34.41464470067922" lon="-6.523723058554206"><ele>10.0</ele><time>2026-04-22T15:33:53Z</time></trkpt><trkpt lat="34.4143638698822" lon="-6.523808252220181"><ele>11.0</ele><time>2026-04-22T15:33:54Z</time></trkpt><trkpt lat="34.41408141763328" lon="-6.52388569957709"><ele>12.0</ele><time>2026-04-22T15:33:55Z</time></trkpt><trkpt lat="34.41379706138862" lon="-6.5239534443214655"><ele>12.0</ele><time>2026-04-22T15:33:56Z</time></trkpt><trkpt lat="34.41351197191688" lon="-6.5240142203083495"><ele>12.0</ele><time>2026-04-22T15:33:57Z</time></trkpt><trkpt lat="34.41322464457894" lon="-6.524069073203053"><ele>11.0</ele><time>2026-04-22T15:33:58Z</time></trkpt><trkpt lat="34.412938595163624" lon="-6.524121220136751"><ele>10.0</ele><time>2026-04-22T15:33:59Z</time></trkpt><trkpt lat="34.41264992701957" lon="-6.524163995046814"><ele>10.0</ele><time>2026-04-22T15:34:00Z</time></trkpt><trkpt lat="34.41236012011639" lon="-6.524200137085398"><ele>10.0</ele><time>2026-04-22T15:34:01Z</time></trkpt><trkpt lat="34.41206999476931" lon="-6.524226086026276"><ele>9.5</ele><time>2026-04-22T15:34:02Z</time></trkpt><trkpt lat="34.41177876233823" lon="-6.5242450928885845"><ele>9.0</ele><time>2026-04-22T15:34:03Z</time></trkpt><trkpt lat="34.411487672073186" lon="-6.524256375147971"><ele>8.0</ele><time>2026-04-22T15:34:04Z</time></trkpt><trkpt lat="34.4111953672472" lon="-6.524262433513339"><ele>7.0</ele><time>2026-04-22T15:34:04.999Z</time></trkpt><trkpt lat="34.41090348461474" lon="-6.524258506193254"><ele>7.0</ele><time>2026-04-22T15:34:05.999Z</time></trkpt><trkpt lat="34.41061120672382" lon="-6.524247193322576"><ele>7.0</ele><time>2026-04-22T15:34:06.999Z</time></trkpt><trkpt lat="34.41031952757639" lon="-6.524227897560841"><ele>7.5</ele><time>2026-04-22T15:34:07.999Z</time></trkpt><trkpt lat="34.410029125834676" lon="-6.524200770229302"><ele>8.0</ele><time>2026-04-22T15:34:08.999Z</time></trkpt><trkpt lat="34.40973907049877" lon="-6.5241654141452425"><ele>7.5</ele><time>2026-04-22T15:34:09.999Z</time></trkpt><trkpt lat="34.40945038413596" lon="-6.524123601508581"><ele>7.0</ele><time>2026-04-22T15:34:10.999Z</time></trkpt><trkpt lat="34.40916221821533" lon="-6.524072720579944"><ele>7.0</ele><time>2026-04-22T15:34:11.999Z</time></trkpt><trkpt lat="34.408874670273796" lon="-6.524016882136868"><ele>7.0</ele><time>2026-04-22T15:34:12.999Z</time></trkpt><trkpt lat="34.40858618162615" lon="-6.523954649488971"><ele>7.5</ele><time>2026-04-22T15:34:13.999Z</time></trkpt><trkpt lat="34.40829924300459" lon="-6.523884366859735"><ele>8.0</ele><time>2026-04-22T15:34:14.999Z</time></trkpt><trkpt lat="34.40801577933814" lon="-6.523802849345538"><ele>8.5</ele><time>2026-04-22T15:34:15.999Z</time></trkpt><trkpt lat="34.40773272823329" lon="-6.523715998005799"><ele>9.0</ele><time>2026-04-22T15:34:16.999Z</time></trkpt><trkpt lat="34.40745042228327" lon="-6.5236224049940335"><ele>9.0</ele><time>2026-04-22T15:34:17.999Z</time></trkpt><trkpt lat="34.40717110707609" lon="-6.523520757362892"><ele>9.0</ele><time>2026-04-22T15:34:18.999Z</time></trkpt><trkpt lat="34.40689486461352" lon="-6.523409059749552"><ele>8.0</ele><time>2026-04-22T15:34:19.999Z</time></trkpt><trkpt lat="34.40662195748542" lon="-6.523293333332522"><ele>7.0</ele><time>2026-04-22T15:34:20.999Z</time></trkpt><trkpt lat="34.40635782987545" lon="-6.523168631477077"><ele>7.0</ele><time>2026-04-22T15:34:21.999Z</time></trkpt><trkpt lat="34.406098504560866" lon="-6.523038723091896"><ele>7.0</ele><time>2026-04-22T15:34:22.999Z</time></trkpt><trkpt lat="34.40584186154146" lon="-6.5228976952898865"><ele>8.5</ele><time>2026-04-22T15:34:23.999Z</time></trkpt><trkpt lat="34.405582674048674" lon="-6.522755210032788"><ele>10.0</ele><time>2026-04-22T15:34:24.999Z</time></trkpt><trkpt lat="34.405326302125964" lon="-6.522604647333871"><ele>10.0</ele><time>2026-04-22T15:34:25.999Z</time></trkpt><trkpt lat="34.40506670732076" lon="-6.522456351300653"><ele>10.0</ele><time>2026-04-22T15:34:26.999Z</time></trkpt><trkpt lat="34.40480872926048" lon="-6.5223012484169285"><ele>10.0</ele><time>2026-04-22T15:34:27.999Z</time></trkpt><trkpt lat="34.40455382869473" lon="-6.522136654367964"><ele>10.0</ele><time>2026-04-22T15:34:28.999Z</time></trkpt><trkpt lat="34.40429850017953" lon="-6.521970628718675"><ele>10.0</ele><time>2026-04-22T15:34:29.999Z</time></trkpt><trkpt lat="34.404042786755284" lon="-6.521803258016534"><ele>10.0</ele><time>2026-04-22T15:34:30.999Z</time></trkpt><trkpt lat="34.403786548360834" lon="-6.52163611778522"><ele>10.5</ele><time>2026-04-22T15:34:31.999Z</time></trkpt><trkpt lat="34.40353041536138" lon="-6.521467674965239"><ele>11.0</ele><time>2026-04-22T15:34:32.999Z</time></trkpt><trkpt lat="34.40327464449284" lon="-6.521298076361097"><ele>11.0</ele><time>2026-04-22T15:34:33.999Z</time></trkpt><trkpt lat="34.40302218350238" lon="-6.521124843756023"><ele>11.0</ele><time>2026-04-22T15:34:34.999Z</time></trkpt><trkpt lat="34.402768570505394" lon="-6.520948215972758"><ele>10.5</ele><time>2026-04-22T15:34:35.999Z</time></trkpt><trkpt lat="34.40251463090846" lon="-6.520772894743453"><ele>10.0</ele><time>2026-04-22T15:34:36.999Z</time></trkpt><trkpt lat="34.40226058587186" lon="-6.520599155111894"><ele>9.5</ele><time>2026-04-22T15:34:37.999Z</time></trkpt><trkpt lat="34.402009536565586" lon="-6.520425637506654"><ele>9.0</ele><time>2026-04-22T15:34:38.999Z</time></trkpt><trkpt lat="34.40175746779127" lon="-6.52025272392887"><ele>9.0</ele><time>2026-04-22T15:34:39.999Z</time></trkpt><trkpt lat="34.401505121198994" lon="-6.520079940487288"><ele>9.0</ele><time>2026-04-22T15:34:40.999Z</time></trkpt><trkpt lat="34.40125237265452" lon="-6.519905974338282"><ele>9.0</ele><time>2026-04-22T15:34:41.999Z</time></trkpt><trkpt lat="34.4009980546811" lon="-6.519734312679528"><ele>9.0</ele><time>2026-04-22T15:34:42.999Z</time></trkpt><trkpt lat="34.40074301835801" lon="-6.51956611270706"><ele>8.5</ele><time>2026-04-22T15:34:43.999Z</time></trkpt><trkpt lat="34.40048677177556" lon="-6.519401569219257"><ele>8.0</ele><time>2026-04-22T15:34:44.999Z</time></trkpt><trkpt lat="34.40023148535107" lon="-6.519234585927284"><ele>8.0</ele><time>2026-04-22T15:34:45.999Z</time></trkpt><trkpt lat="34.39997485091217" lon="-6.51906946363992"><ele>8.0</ele><time>2026-04-22T15:34:46.999Z</time></trkpt><trkpt lat="34.399722442491644" lon="-6.5188993942071605"><ele>9.0</ele><time>2026-04-22T15:34:47.999Z</time></trkpt><trkpt lat="34.39946840099512" lon="-6.518730116805726"><ele>10.0</ele><time>2026-04-22T15:34:48.999Z</time></trkpt><trkpt lat="34.39921490505761" lon="-6.518560475877163"><ele>10.0</ele><time>2026-04-22T15:34:49.999Z</time></trkpt><trkpt lat="34.39896136134232" lon="-6.518387503373825"><ele>10.0</ele><time>2026-04-22T15:34:50.999Z</time></trkpt><trkpt lat="34.398707697884454" lon="-6.51821387484499"><ele>10.0</ele><time>2026-04-22T15:34:51.999Z</time></trkpt><trkpt lat="34.398453277164236" lon="-6.5180430184763685"><ele>10.0</ele><time>2026-04-22T15:34:52.999Z</time></trkpt><trkpt lat="34.398199306090575" lon="-6.517873472902994"><ele>10.0</ele><time>2026-04-22T15:34:53.999Z</time></trkpt><trkpt lat="34.397945079048846" lon="-6.517699841082762"><ele>10.0</ele><time>2026-04-22T15:34:54.999Z</time></trkpt><trkpt lat="34.397690677887944" lon="-6.517528353420262"><ele>10.0</ele><time>2026-04-22T15:34:55.999Z</time></trkpt><trkpt lat="34.397437863544326" lon="-6.517354455852967"><ele>10.0</ele><time>2026-04-22T15:34:56.999Z</time></trkpt><trkpt lat="34.39718375974239" lon="-6.517182913717987"><ele>9.0</ele><time>2026-04-22T15:34:57.999Z</time></trkpt><trkpt lat="34.39693035166992" lon="-6.517008839875472"><ele>8.0</ele><time>2026-04-22T15:34:59Z</time></trkpt><trkpt lat="34.396672973262774" lon="-6.516841373959937"><ele>8.0</ele><time>2026-04-22T15:35:00Z</time></trkpt><trkpt lat="34.3964158960839" lon="-6.516672893013448"><ele>8.0</ele><time>2026-04-22T15:35:01Z</time></trkpt><trkpt lat="34.39615715582027" lon="-6.516507842671044"><ele>9.0</ele><time>2026-04-22T15:35:02Z</time></trkpt><trkpt lat="34.39589689016667" lon="-6.5163483596237"><ele>10.0</ele><time>2026-04-22T15:35:03Z</time></trkpt><trkpt lat="34.39563578988876" lon="-6.516190258238749"><ele>10.0</ele><time>2026-04-22T15:35:04Z</time></trkpt><trkpt lat="34.395372525875885" lon="-6.516039039701733"><ele>10.0</ele><time>2026-04-22T15:35:05Z</time></trkpt><trkpt lat="34.39510566012815" lon="-6.515898932730583"><ele>10.0</ele><time>2026-04-22T15:35:06Z</time></trkpt><trkpt lat="34.394836887093845" lon="-6.515764077734059"><ele>10.0</ele><time>2026-04-22T15:35:07Z</time></trkpt><trkpt lat="34.39456301681481" lon="-6.515635075286353"><ele>10.0</ele><time>2026-04-22T15:35:08Z</time></trkpt><trkpt lat="34.39428895694819" lon="-6.5155164130135805"><ele>10.0</ele><time>2026-04-22T15:35:09Z</time></trkpt><trkpt lat="34.39401312447297" lon="-6.515402576048448"><ele>9.5</ele><time>2026-04-22T15:35:10Z</time></trkpt><trkpt lat="34.393734283373334" lon="-6.515298137125551"><ele>9.0</ele><time>2026-04-22T15:35:11Z</time></trkpt><trkpt lat="34.39345436664141" lon="-6.515197617178633"><ele>9.0</ele><time>2026-04-22T15:35:12Z</time></trkpt><trkpt lat="34.39317038229487" lon="-6.515108444355611"><ele>9.0</ele><time>2026-04-22T15:35:13Z</time></trkpt><trkpt lat="34.3928857712281" lon="-6.515027116402334"><ele>8.5</ele><time>2026-04-22T15:35:14Z</time></trkpt><trkpt lat="34.39260107609801" lon="-6.514951534656186"><ele>8.0</ele><time>2026-04-22T15:35:15Z</time></trkpt><trkpt lat="34.39231705600702" lon="-6.514887956963716"><ele>8.0</ele><time>2026-04-22T15:35:16Z</time></trkpt><trkpt lat="34.39203059228343" lon="-6.5148350818434535"><ele>8.0</ele><time>2026-04-22T15:35:17Z</time></trkpt><trkpt lat="34.39174347773908" lon="-6.51478959721956"><ele>8.0</ele><time>2026-04-22T15:35:18Z</time></trkpt><trkpt lat="34.3914556944965" lon="-6.5147465097172015"><ele>8.0</ele><time>2026-04-22T15:35:19Z</time></trkpt><trkpt lat="34.39116626007757" lon="-6.514715324084294"><ele>8.0</ele><time>2026-04-22T15:35:20Z</time></trkpt><trkpt lat="34.39087854760618" lon="-6.514687961346664"><ele>8.0</ele><time>2026-04-22T15:35:21Z</time></trkpt><trkpt lat="34.39059010152792" lon="-6.514673269867742"><ele>7.5</ele><time>2026-04-22T15:35:22Z</time></trkpt><trkpt lat="34.3903011821337" lon="-6.514669134010742"><ele>7.0</ele><time>2026-04-22T15:35:23Z</time></trkpt><trkpt lat="34.3900104624104" lon="-6.51466801376024"><ele>7.0</ele><time>2026-04-22T15:35:24Z</time></trkpt><trkpt lat="34.389719505868975" lon="-6.514670669933574"><ele>7.0</ele><time>2026-04-22T15:35:25Z</time></trkpt><trkpt lat="34.38942848789656" lon="-6.514684730175234"><ele>6.5</ele><time>2026-04-22T15:35:26Z</time></trkpt><trkpt lat="34.389138568828066" lon="-6.51470412160675"><ele>6.0</ele><time>2026-04-22T15:35:27Z</time></trkpt><trkpt lat="34.3888491271496" lon="-6.514726700024242"><ele>6.0</ele><time>2026-04-22T15:35:28Z</time></trkpt><trkpt lat="34.38855941464564" lon="-6.5147552690996"><ele>6.0</ele><time>2026-04-22T15:35:29Z</time></trkpt><trkpt lat="34.38826905005108" lon="-6.514793849612893"><ele>6.5</ele><time>2026-04-22T15:35:30Z</time></trkpt><trkpt lat="34.3879821961902" lon="-6.51484638518565"><ele>7.0</ele><time>2026-04-22T15:35:31Z</time></trkpt><trkpt lat="34.38769525069763" lon="-6.514900836682959"><ele>7.0</ele><time>2026-04-22T15:35:32Z</time></trkpt><trkpt lat="34.387410670659" lon="-6.514964138973431"><ele>7.0</ele><time>2026-04-22T15:35:33Z</time></trkpt><trkpt lat="34.38712707391472" lon="-6.515034757947267"><ele>9.0</ele><time>2026-04-22T15:35:34Z</time></trkpt><trkpt lat="34.386844630443434" lon="-6.515111147337312"><ele>11.0</ele><time>2026-04-22T15:35:35Z</time></trkpt><trkpt lat="34.38656138034963" lon="-6.515191397560683"><ele>9.0</ele><time>2026-04-22T15:35:36Z</time></trkpt><trkpt lat="34.38627920487297" lon="-6.515277910384973"><ele>7.0</ele><time>2026-04-22T15:35:37Z</time></trkpt><trkpt lat="34.385997599173216" lon="-6.5153707309939595"><ele>6.5</ele><time>2026-04-22T15:35:38Z</time></trkpt><trkpt lat="34.38571509609607" lon="-6.51545896630068"><ele>6.0</ele><time>2026-04-22T15:35:39Z</time></trkpt><trkpt lat="34.38543265747759" lon="-6.515549297391153"><ele>6.0</ele><time>2026-04-22T15:35:40Z</time></trkpt><trkpt lat="34.38515052495521" lon="-6.515641513214191"><ele>6.0</ele><time>2026-04-22T15:35:41Z</time></trkpt><trkpt lat="34.384868853988884" lon="-6.515734340782715"><ele>6.5</ele><time>2026-04-22T15:35:42Z</time></trkpt><trkpt lat="34.38458650907734" lon="-6.515826380135528"><ele>7.0</ele><time>2026-04-22T15:35:43Z</time></trkpt><trkpt lat="34.3843047140512" lon="-6.515921244735407"><ele>7.0</ele><time>2026-04-22T15:35:44Z</time></trkpt><trkpt lat="34.384023343134515" lon="-6.516014122691021"><ele>7.0</ele><time>2026-04-22T15:35:45Z</time></trkpt><trkpt lat="34.38374099745281" lon="-6.516101833458144"><ele>7.5</ele><time>2026-04-22T15:35:46Z</time></trkpt><trkpt lat="34.383460367817946" lon="-6.51618903585463"><ele>8.0</ele><time>2026-04-22T15:35:47Z</time></trkpt><trkpt lat="34.38317970837087" lon="-6.51627733029618"><ele>8.0</ele><time>2026-04-22T15:35:48Z</time></trkpt><trkpt lat="34.38289959865931" lon="-6.51636601262302"><ele>8.0</ele><time>2026-04-22T15:35:49Z</time></trkpt><trkpt lat="34.38261875179321" lon="-6.51645230633376"><ele>8.0</ele><time>2026-04-22T15:35:50Z</time></trkpt><trkpt lat="34.38233623203122" lon="-6.516539790119134"><ele>8.0</ele><time>2026-04-22T15:35:51Z</time></trkpt><trkpt lat="34.382055245110124" lon="-6.5166287817419075"><ele>7.5</ele><time>2026-04-22T15:35:52Z</time></trkpt><trkpt lat="34.381772628542514" lon="-6.516717957580834"><ele>7.0</ele><time>2026-04-22T15:35:53Z</time></trkpt><trkpt lat="34.381491321081754" lon="-6.5168114574788385"><ele>7.0</ele><time>2026-04-22T15:35:54Z</time></trkpt><trkpt lat="34.38121031766786" lon="-6.516903994560827"><ele>7.0</ele><time>2026-04-22T15:35:55Z</time></trkpt><trkpt lat="34.38093066679444" lon="-6.5170023479488695"><ele>6.5</ele><time>2026-04-22T15:35:56Z</time></trkpt><trkpt lat="34.380652756654484" lon="-6.517102008540032"><ele>6.0</ele><time>2026-04-22T15:35:57Z</time></trkpt><trkpt lat="34.38037348138607" lon="-6.51720073465593"><ele>6.0</ele><time>2026-04-22T15:35:58Z</time></trkpt><trkpt lat="34.38009312353217" lon="-6.517292759900801"><ele>6.0</ele><time>2026-04-22T15:35:59Z</time></trkpt><trkpt lat="34.379812550053636" lon="-6.517382346660021"><ele>6.0</ele><time>2026-04-22T15:36:00Z</time></trkpt><trkpt lat="34.3795327027893" lon="-6.517477950732485"><ele>6.0</ele><time>2026-04-22T15:36:01Z</time></trkpt><trkpt lat="34.37925204927419" lon="-6.517572462866941"><ele>6.0</ele><time>2026-04-22T15:36:02Z</time></trkpt><trkpt lat="34.37897110991956" lon="-6.517663392877685"><ele>6.0</ele><time>2026-04-22T15:36:03Z</time></trkpt><trkpt lat="34.378689003393866" lon="-6.51775625373933"><ele>6.0</ele><time>2026-04-22T15:36:04Z</time></trkpt><trkpt lat="34.378407412838584" lon="-6.517849228907047"><ele>6.0</ele><time>2026-04-22T15:36:05Z</time></trkpt><trkpt lat="34.37812522052839" lon="-6.517940221274016"><ele>6.0</ele><time>2026-04-22T15:36:06Z</time></trkpt><trkpt lat="34.37784399583907" lon="-6.518031317940848"><ele>6.0</ele><time>2026-04-22T15:36:07Z</time></trkpt><trkpt lat="34.37756252729882" lon="-6.5181253291445085"><ele>6.0</ele><time>2026-04-22T15:36:08Z</time></trkpt><trkpt lat="34.377280806612525" lon="-6.51821543343842"><ele>6.0</ele><time>2026-04-22T15:36:08.999Z</time></trkpt><trkpt lat="34.37699927228702" lon="-6.518313382371333"><ele>6.0</ele><time>2026-04-22T15:36:09.999Z</time></trkpt><trkpt lat="34.37671572188171" lon="-6.5184055154642415"><ele>6.0</ele><time>2026-04-22T15:36:10.999Z</time></trkpt><trkpt lat="34.37643144550128" lon="-6.5184951838108685"><ele>6.0</ele><time>2026-04-22T15:36:11.999Z</time></trkpt><trkpt lat="34.37614826089351" lon="-6.518589994437856"><ele>6.0</ele><time>2026-04-22T15:36:12.999Z</time></trkpt><trkpt lat="34.375868065398514" lon="-6.518681445592054"><ele>6.5</ele><time>2026-04-22T15:36:13.999Z</time></trkpt><trkpt lat="34.37558672056865" lon="-6.51877367778196"><ele>7.0</ele><time>2026-04-22T15:36:14.999Z</time></trkpt><trkpt lat="34.37530496119358" lon="-6.518868195080033"><ele>8.0</ele><time>2026-04-22T15:36:15.999Z</time></trkpt><trkpt lat="34.37502357715484" lon="-6.518964134540454"><ele>9.0</ele><time>2026-04-22T15:36:16.999Z</time></trkpt><trkpt lat="34.374742256174905" lon="-6.519055024456348"><ele>8.0</ele><time>2026-04-22T15:36:17.999Z</time></trkpt><trkpt lat="34.37446157548655" lon="-6.519146988298744"><ele>7.0</ele><time>2026-04-22T15:36:18.999Z</time></trkpt><trkpt lat="34.374180285130855" lon="-6.519236702768104"><ele>7.0</ele><time>2026-04-22T15:36:19.999Z</time></trkpt><trkpt lat="34.37389941552136" lon="-6.519332483127461"><ele>7.0</ele><time>2026-04-22T15:36:20.999Z</time></trkpt><trkpt lat="34.3736289388032" lon="-6.519425107504139"><ele>7.0</ele><time>2026-04-22T15:36:21.999Z</time></trkpt><trkpt lat="34.37334166903504" lon="-6.519523227652486"><ele>7.0</ele><time>2026-04-22T15:36:22.999Z</time></trkpt><trkpt lat="34.37306474847507" lon="-6.519603738321088"><ele>7.0</ele><time>2026-04-22T15:36:23.999Z</time></trkpt><trkpt lat="34.372778586127914" lon="-6.519693362630998"><ele>7.0</ele><time>2026-04-22T15:36:24.999Z</time></trkpt><trkpt lat="34.37249971510528" lon="-6.5197729644296105"><ele>7.0</ele><time>2026-04-22T15:36:25.999Z</time></trkpt><trkpt lat="34.372217526865484" lon="-6.519844470249931"><ele>7.0</ele><time>2026-04-22T15:36:26.999Z</time></trkpt><trkpt lat="34.37193377219266" lon="-6.5199074636503855"><ele>6.5</ele><time>2026-04-22T15:36:27.999Z</time></trkpt><trkpt lat="34.37164853508702" lon="-6.519961848495589"><ele>6.0</ele><time>2026-04-22T15:36:28.999Z</time></trkpt><trkpt lat="34.37136200698218" lon="-6.520006755717157"><ele>6.0</ele><time>2026-04-22T15:36:29.999Z</time></trkpt><trkpt lat="34.37107341099525" lon="-6.52004103938572"><ele>6.0</ele><time>2026-04-22T15:36:30.999Z</time></trkpt><trkpt lat="34.37078220310986" lon="-6.520068123405154"><ele>6.0</ele><time>2026-04-22T15:36:31.999Z</time></trkpt><trkpt lat="34.37049049528308" lon="-6.520090449025381"><ele>6.0</ele><time>2026-04-22T15:36:32.999Z</time></trkpt><trkpt lat="34.37019686668523" lon="-6.520104360443788"><ele>6.0</ele><time>2026-04-22T15:36:33.999Z</time></trkpt><trkpt lat="34.36990645997052" lon="-6.52010738322447"><ele>6.0</ele><time>2026-04-22T15:36:34.999Z</time></trkpt><trkpt lat="34.3696143305827" lon="-6.520102445445588"><ele>6.0</ele><time>2026-04-22T15:36:35.999Z</time></trkpt><trkpt lat="34.36932243040326" lon="-6.520086752482983"><ele>6.0</ele><time>2026-04-22T15:36:36.999Z</time></trkpt><trkpt lat="34.36903295361984" lon="-6.520062820500479"><ele>6.5</ele><time>2026-04-22T15:36:37.999Z</time></trkpt><trkpt lat="34.36874860773924" lon="-6.520031415769378"><ele>7.0</ele><time>2026-04-22T15:36:38.999Z</time></trkpt><trkpt lat="34.36846435187881" lon="-6.519990622785214"><ele>7.0</ele><time>2026-04-22T15:36:39.999Z</time></trkpt><trkpt lat="34.3681761819772" lon="-6.519946460289767"><ele>7.0</ele><time>2026-04-22T15:36:40.999Z</time></trkpt><trkpt lat="34.36788931169944" lon="-6.519896708323821"><ele>7.5</ele><time>2026-04-22T15:36:41.999Z</time></trkpt><trkpt lat="34.36760307491025" lon="-6.519841396549443"><ele>8.0</ele><time>2026-04-22T15:36:42.999Z</time></trkpt><trkpt lat="34.36731779952805" lon="-6.519778612501692"><ele>8.0</ele><time>2026-04-22T15:36:43.999Z</time></trkpt><trkpt lat="34.36703383004699" lon="-6.519709342913195"><ele>8.0</ele><time>2026-04-22T15:36:44.999Z</time></trkpt><trkpt lat="34.36675100321053" lon="-6.519632890978136"><ele>8.0</ele><time>2026-04-22T15:36:45.999Z</time></trkpt><trkpt lat="34.36646756160362" lon="-6.519554067632076"><ele>8.0</ele><time>2026-04-22T15:36:46.999Z</time></trkpt><trkpt lat="34.36618416543595" lon="-6.51947625472548"><ele>8.0</ele><time>2026-04-22T15:36:47.999Z</time></trkpt><trkpt lat="34.36590186132975" lon="-6.519392973619718"><ele>8.0</ele><time>2026-04-22T15:36:48.999Z</time></trkpt><trkpt lat="34.36562162388937" lon="-6.519299252866597"><ele>8.0</ele><time>2026-04-22T15:36:49.999Z</time></trkpt><trkpt lat="34.36534579326234" lon="-6.519191677522841"><ele>8.0</ele><time>2026-04-22T15:36:50.999Z</time></trkpt><trkpt lat="34.36507401163662" lon="-6.519068384223009"><ele>8.0</ele><time>2026-04-22T15:36:51.999Z</time></trkpt><trkpt lat="34.36480461690505" lon="-6.51894244519904"><ele>8.0</ele><time>2026-04-22T15:36:52.999Z</time></trkpt><trkpt lat="34.36453483661166" lon="-6.518812728587891"><ele>8.5</ele><time>2026-04-22T15:36:53.999Z</time></trkpt><trkpt lat="34.36426412435156" lon="-6.51868254577414"><ele>9.0</ele><time>2026-04-22T15:36:54.999Z</time></trkpt><trkpt lat="34.36399511859805" lon="-6.5185465069552775"><ele>9.0</ele><time>2026-04-22T15:36:55.999Z</time></trkpt><trkpt lat="34.363725442732736" lon="-6.51841330297559"><ele>9.0</ele><time>2026-04-22T15:36:56.999Z</time></trkpt><trkpt lat="34.36345598271202" lon="-6.518278757180473"><ele>9.0</ele><time>2026-04-22T15:36:57.999Z</time></trkpt><trkpt lat="34.36318615493894" lon="-6.518144768694927"><ele>9.0</ele><time>2026-04-22T15:36:58.999Z</time></trkpt><trkpt lat="34.36291645183532" lon="-6.518009450388988"><ele>9.0</ele><time>2026-04-22T15:36:59.999Z</time></trkpt><trkpt lat="34.36264710631696" lon="-6.517873379445118"><ele>9.0</ele><time>2026-04-22T15:37:00.999Z</time></trkpt><trkpt lat="34.36237625343688" lon="-6.517743093646191"><ele>9.5</ele><time>2026-04-22T15:37:01.999Z</time></trkpt><trkpt lat="34.36210699507537" lon="-6.517608285218303"><ele>10.0</ele><time>2026-04-22T15:37:02.999Z</time></trkpt><trkpt lat="34.36183879514367" lon="-6.517473440011047"><ele>10.0</ele><time>2026-04-22T15:37:03.999Z</time></trkpt><trkpt lat="34.36156984579599" lon="-6.517339353283573"><ele>10.0</ele><time>2026-04-22T15:37:05Z</time></trkpt><trkpt lat="34.36129996586177" lon="-6.517207337061018"><ele>9.0</ele><time>2026-04-22T15:37:06Z</time></trkpt><trkpt lat="34.36102945509539" lon="-6.517076673660507"><ele>8.0</ele><time>2026-04-22T15:37:07Z</time></trkpt><trkpt lat="34.36076139984651" lon="-6.516937210782013"><ele>7.5</ele><time>2026-04-22T15:37:08Z</time></trkpt><trkpt lat="34.36049387189829" lon="-6.516801643812807"><ele>7.0</ele><time>2026-04-22T15:37:09Z</time></trkpt><trkpt lat="34.360225633146975" lon="-6.516664409764082"><ele>7.0</ele><time>2026-04-22T15:37:10Z</time></trkpt><trkpt lat="34.35995564015345" lon="-6.516526834857691"><ele>7.0</ele><time>2026-04-22T15:37:11Z</time></trkpt><trkpt lat="34.35968611757033" lon="-6.516390752692992"><ele>7.0</ele><time>2026-04-22T15:37:12Z</time></trkpt><trkpt lat="34.359417502538825" lon="-6.516254060917147"><ele>7.0</ele><time>2026-04-22T15:37:13Z</time></trkpt><trkpt lat="34.35915061686011" lon="-6.516115848990203"><ele>6.5</ele><time>2026-04-22T15:37:14Z</time></trkpt><trkpt lat="34.35888294293951" lon="-6.515978134344714"><ele>6.0</ele><time>2026-04-22T15:37:15Z</time></trkpt><trkpt lat="34.358613495960604" lon="-6.515840016411646"><ele>6.0</ele><time>2026-04-22T15:37:16Z</time></trkpt><trkpt lat="34.35834471992397" lon="-6.515700122770497"><ele>6.0</ele><time>2026-04-22T15:37:17Z</time></trkpt><trkpt lat="34.35807585018714" lon="-6.515560556802207"><ele>6.0</ele><time>2026-04-22T15:37:18Z</time></trkpt><trkpt lat="34.3578069274198" lon="-6.515423497009415"><ele>6.0</ele><time>2026-04-22T15:37:19Z</time></trkpt><trkpt lat="34.35753798985809" lon="-6.51528568949716"><ele>6.0</ele><time>2026-04-22T15:37:20Z</time></trkpt><trkpt lat="34.35726947123015" lon="-6.515147425818318"><ele>6.0</ele><time>2026-04-22T15:37:21Z</time></trkpt><trkpt lat="34.35700178599386" lon="-6.51500994765835"><ele>6.5</ele><time>2026-04-22T15:37:22Z</time></trkpt><trkpt lat="34.35673240102288" lon="-6.514872749384882"><ele>7.0</ele><time>2026-04-22T15:37:23Z</time></trkpt><trkpt lat="34.356464157470185" lon="-6.514733862887824"><ele>6.5</ele><time>2026-04-22T15:37:24Z</time></trkpt><trkpt lat="34.356195841591365" lon="-6.514595003282675"><ele>6.0</ele><time>2026-04-22T15:37:25Z</time></trkpt><trkpt lat="34.35592594972821" lon="-6.514460603002267"><ele>5.5</ele><time>2026-04-22T15:37:26Z</time></trkpt><trkpt lat="34.3556560705077" lon="-6.5143278553036374"><ele>5.0</ele><time>2026-04-22T15:37:27Z</time></trkpt><trkpt lat="34.35538516050032" lon="-6.514197469754682"><ele>5.0</ele><time>2026-04-22T15:37:28Z</time></trkpt><trkpt lat="34.35511248541926" lon="-6.514068270008423"><ele>5.0</ele><time>2026-04-22T15:37:29Z</time></trkpt><trkpt lat="34.35483902990209" lon="-6.51394293221478"><ele>5.0</ele><time>2026-04-22T15:37:30Z</time></trkpt><trkpt lat="34.35456506762305" lon="-6.513818412696699"><ele>5.0</ele><time>2026-04-22T15:37:31Z</time></trkpt><trkpt lat="34.35429266354284" lon="-6.513692743651352"><ele>5.0</ele><time>2026-04-22T15:37:32Z</time></trkpt><trkpt lat="34.3540220920627" lon="-6.5135617342795955"><ele>5.0</ele><time>2026-04-22T15:37:33Z</time></trkpt><trkpt lat="34.3537530961911" lon="-6.513424988734677"><ele>5.5</ele><time>2026-04-22T15:37:34Z</time></trkpt><trkpt lat="34.3534851719583" lon="-6.513285464141553"><ele>6.0</ele><time>2026-04-22T15:37:35Z</time></trkpt><trkpt lat="34.35321549105668" lon="-6.513148078324157"><ele>5.5</ele><time>2026-04-22T15:37:36Z</time></trkpt><trkpt lat="34.35294529781067" lon="-6.513011609153293"><ele>5.0</ele><time>2026-04-22T15:37:37Z</time></trkpt><trkpt lat="34.352675467233276" lon="-6.5128735370041335"><ele>6.5</ele><time>2026-04-22T15:37:38Z</time></trkpt><trkpt lat="34.352405680492915" lon="-6.512738126162229"><ele>8.0</ele><time>2026-04-22T15:37:39Z</time></trkpt><trkpt lat="34.352137205971374" lon="-6.512603910152937"><ele>8.0</ele><time>2026-04-22T15:37:40Z</time></trkpt><trkpt lat="34.351868426514244" lon="-6.512471627908081"><ele>8.0</ele><time>2026-04-22T15:37:41Z</time></trkpt><trkpt lat="34.35160023299014" lon="-6.51233728359852"><ele>7.5</ele><time>2026-04-22T15:37:42Z</time></trkpt><trkpt lat="34.35133186416484" lon="-6.512204356939616"><ele>7.0</ele><time>2026-04-22T15:37:43Z</time></trkpt><trkpt lat="34.35106358411629" lon="-6.512069693998554"><ele>7.0</ele><time>2026-04-22T15:37:44Z</time></trkpt><trkpt lat="34.350796085220935" lon="-6.511936206123629"><ele>7.0</ele><time>2026-04-22T15:37:45Z</time></trkpt><trkpt lat="34.350528036389086" lon="-6.511802300468108"><ele>7.0</ele><time>2026-04-22T15:37:46Z</time></trkpt><trkpt lat="34.35026102842661" lon="-6.5116675834441935"><ele>7.0</ele><time>2026-04-22T15:37:47Z</time></trkpt><trkpt lat="34.34999297580197" lon="-6.511533240053109"><ele>7.0</ele><time>2026-04-22T15:37:48Z</time></trkpt><trkpt lat="34.349724458826486" lon="-6.511400268878436"><ele>7.0</ele><time>2026-04-22T15:37:49Z</time></trkpt><trkpt lat="34.34945601932361" lon="-6.511266921620381"><ele>7.5</ele><time>2026-04-22T15:37:50Z</time></trkpt><trkpt lat="34.34918863563225" lon="-6.511128973216618"><ele>8.0</ele><time>2026-04-22T15:37:51Z</time></trkpt><trkpt lat="34.348920753830775" lon="-6.510991523579102"><ele>6.5</ele><time>2026-04-22T15:37:52Z</time></trkpt><trkpt lat="34.34865226069855" lon="-6.510858702099159"><ele>5.0</ele><time>2026-04-22T15:37:53Z</time></trkpt><trkpt lat="34.34838508406336" lon="-6.510724063859349"><ele>5.0</ele><time>2026-04-22T15:37:53.999Z</time></trkpt><trkpt lat="34.34811848662949" lon="-6.510587111256535"><ele>5.0</ele><time>2026-04-22T15:37:54.999Z</time></trkpt><trkpt lat="34.34784819943874" lon="-6.510456159183057"><ele>6.0</ele><time>2026-04-22T15:37:55.999Z</time></trkpt><trkpt lat="34.34758042492366" lon="-6.510318485614132"><ele>7.0</ele><time>2026-04-22T15:37:56.999Z</time></trkpt><trkpt lat="34.347312636119106" lon="-6.510179670246685"><ele>6.5</ele><time>2026-04-22T15:37:57.999Z</time></trkpt><trkpt lat="34.347044260650506" lon="-6.510040689615831"><ele>6.0</ele><time>2026-04-22T15:37:58.999Z</time></trkpt><trkpt lat="34.34677570178004" lon="-6.509906423544559"><ele>6.0</ele><time>2026-04-22T15:37:59.999Z</time></trkpt><trkpt lat="34.34650721460542" lon="-6.50977345866786"><ele>6.0</ele><time>2026-04-22T15:38:00.999Z</time></trkpt><trkpt lat="34.34623780986874" lon="-6.509639657137405"><ele>6.0</ele><time>2026-04-22T15:38:01.999Z</time></trkpt><trkpt lat="34.34596587473674" lon="-6.509513319175472"><ele>6.0</ele><time>2026-04-22T15:38:02.999Z</time></trkpt><trkpt lat="34.34569165556923" lon="-6.509395738535643"><ele>6.0</ele><time>2026-04-22T15:38:03.999Z</time></trkpt><trkpt lat="34.34541381432892" lon="-6.5092893137319185"><ele>6.0</ele><time>2026-04-22T15:38:04.999Z</time></trkpt><trkpt lat="34.34513388171746" lon="-6.50918698743209"><ele>6.0</ele><time>2026-04-22T15:38:05.999Z</time></trkpt><trkpt lat="34.34485270928061" lon="-6.509090528730875"><ele>6.0</ele><time>2026-04-22T15:38:06.999Z</time></trkpt><trkpt lat="34.34457139657774" lon="-6.508998139260777"><ele>6.0</ele><time>2026-04-22T15:38:07.999Z</time></trkpt><trkpt lat="34.34428689972755" lon="-6.508918475391241"><ele>6.0</ele><time>2026-04-22T15:38:08.999Z</time></trkpt><trkpt lat="34.34400131521319" lon="-6.508856775884722"><ele>5.0</ele><time>2026-04-22T15:38:09.999Z</time></trkpt><trkpt lat="34.34371633345983" lon="-6.508802068726255"><ele>4.0</ele><time>2026-04-22T15:38:10.999Z</time></trkpt><trkpt lat="34.34342952529087" lon="-6.508757201940854"><ele>5.0</ele><time>2026-04-22T15:38:11.999Z</time></trkpt><trkpt lat="34.3431413693918" lon="-6.50871598123871"><ele>6.0</ele><time>2026-04-22T15:38:12.999Z</time></trkpt><trkpt lat="34.34285313672551" lon="-6.50867988249668"><ele>7.0</ele><time>2026-04-22T15:38:13.999Z</time></trkpt><trkpt lat="34.342562689975516" lon="-6.508656358703265"><ele>8.0</ele><time>2026-04-22T15:38:14.999Z</time></trkpt><trkpt lat="34.34227270525404" lon="-6.5086342582913685"><ele>8.5</ele><time>2026-04-22T15:38:15.999Z</time></trkpt><trkpt lat="34.34198354652612" lon="-6.508619977246779"><ele>9.0</ele><time>2026-04-22T15:38:16.999Z</time></trkpt><trkpt lat="34.34169342942795" lon="-6.508609839603198"><ele>9.0</ele><time>2026-04-22T15:38:17.999Z</time></trkpt><trkpt lat="34.341403230187545" lon="-6.508608060363213"><ele>9.0</ele><time>2026-04-22T15:38:18.999Z</time></trkpt><trkpt lat="34.341113284935375" lon="-6.508610318826956"><ele>8.0</ele><time>2026-04-22T15:38:19.999Z</time></trkpt><trkpt lat="34.34082357597694" lon="-6.508621761786383"><ele>7.0</ele><time>2026-04-22T15:38:20.999Z</time></trkpt><trkpt lat="34.340534188405925" lon="-6.508644021329711"><ele>6.5</ele><time>2026-04-22T15:38:21.999Z</time></trkpt><trkpt lat="34.34024528227747" lon="-6.50867253314296"><ele>6.0</ele><time>2026-04-22T15:38:22.999Z</time></trkpt><trkpt lat="34.33995660613608" lon="-6.508707484256769"><ele>6.5</ele><time>2026-04-22T15:38:23.999Z</time></trkpt><trkpt lat="34.33966860934657" lon="-6.5087458402275535"><ele>7.0</ele><time>2026-04-22T15:38:24.999Z</time></trkpt><trkpt lat="34.33938039422931" lon="-6.508785989800146"><ele>7.0</ele><time>2026-04-22T15:38:25.999Z</time></trkpt><trkpt lat="34.33909284884492" lon="-6.508830360864732"><ele>7.0</ele><time>2026-04-22T15:38:26.999Z</time></trkpt><trkpt lat="34.33880480083136" lon="-6.5088727583911625"><ele>6.0</ele><time>2026-04-22T15:38:27.999Z</time></trkpt><trkpt lat="34.33851766215479" lon="-6.508916948720143"><ele>5.0</ele><time>2026-04-22T15:38:28.999Z</time></trkpt><trkpt lat="34.338230141924655" lon="-6.508962798401375"><ele>6.0</ele><time>2026-04-22T15:38:29.999Z</time></trkpt><trkpt lat="34.33794384270006" lon="-6.50901069422401"><ele>7.0</ele><time>2026-04-22T15:38:30.999Z</time></trkpt><trkpt lat="34.337657711953135" lon="-6.509056880185038"><ele>7.0</ele><time>2026-04-22T15:38:31.999Z</time></trkpt><trkpt lat="34.33737122900082" lon="-6.509099648477565"><ele>7.0</ele><time>2026-04-22T15:38:32.999Z</time></trkpt><trkpt lat="34.33708461092191" lon="-6.509145730499121"><ele>7.5</ele><time>2026-04-22T15:38:33.999Z</time></trkpt><trkpt lat="34.33679774806313" lon="-6.509188742493616"><ele>8.0</ele><time>2026-04-22T15:38:34.999Z</time></trkpt><trkpt lat="34.336510198029465" lon="-6.509230182376732"><ele>5.5</ele><time>2026-04-22T15:38:35.999Z</time></trkpt><trkpt lat="34.336223068581944" lon="-6.509273220659988"><ele>3.0</ele><time>2026-04-22T15:38:36.999Z</time></trkpt><trkpt lat="34.33593681393851" lon="-6.509320880168631"><ele>3.0</ele><time>2026-04-22T15:38:37.999Z</time></trkpt><trkpt lat="34.335648614371166" lon="-6.5093642137487455"><ele>3.0</ele><time>2026-04-22T15:38:38.999Z</time></trkpt><trkpt lat="34.335358595488124" lon="-6.509408464613473"><ele>2.0</ele><time>2026-04-22T15:38:39.999Z</time></trkpt><trkpt lat="34.33506739148474" lon="-6.509455954563232"><ele>1.0</ele><time>2026-04-22T15:38:40.999Z</time></trkpt><trkpt lat="34.334776154309246" lon="-6.509500821542609"><ele>2.5</ele><time>2026-04-22T15:38:41.999Z</time></trkpt><trkpt lat="34.334483639672825" lon="-6.509546836521468"><ele>4.0</ele><time>2026-04-22T15:38:42.999Z</time></trkpt><trkpt lat="34.33419329761451" lon="-6.509593230788708"><ele>4.5</ele><time>2026-04-22T15:38:43.999Z</time></trkpt><trkpt lat="34.33390134254819" lon="-6.509633610648072"><ele>5.0</ele><time>2026-04-22T15:38:44.999Z</time></trkpt><trkpt lat="34.33360906331257" lon="-6.509674940333977"><ele>5.5</ele><time>2026-04-22T15:38:45.999Z</time></trkpt><trkpt lat="34.33331866306464" lon="-6.509718605772854"><ele>6.0</ele><time>2026-04-22T15:38:46.999Z</time></trkpt><trkpt lat="34.33302772152413" lon="-6.509762300962784"><ele>7.0</ele><time>2026-04-22T15:38:47.999Z</time></trkpt><trkpt lat="34.33273693971406" lon="-6.50980683362851"><ele>8.0</ele><time>2026-04-22T15:38:48.999Z</time></trkpt><trkpt lat="34.3324462697517" lon="-6.509852413513386"><ele>7.0</ele><time>2026-04-22T15:38:49.999Z</time></trkpt><trkpt lat="34.3321559728302" lon="-6.509898736799888"><ele>6.0</ele><time>2026-04-22T15:38:50.999Z</time></trkpt><trkpt lat="34.33186655261147" lon="-6.509942945557429"><ele>6.0</ele><time>2026-04-22T15:38:51.999Z</time></trkpt><trkpt lat="34.331578035895106" lon="-6.5099864606607705"><ele>6.0</ele><time>2026-04-22T15:38:52.999Z</time></trkpt><trkpt lat="34.33128905514747" lon="-6.510029513454338"><ele>6.5</ele><time>2026-04-22T15:38:53.999Z</time></trkpt><trkpt lat="34.33099897877147" lon="-6.510073612080563"><ele>7.0</ele><time>2026-04-22T15:38:54.999Z</time></trkpt><trkpt lat="34.33071063859811" lon="-6.510116817279601"><ele>6.0</ele><time>2026-04-22T15:38:55.999Z</time></trkpt><trkpt lat="34.33042306854872" lon="-6.510162897260124"><ele>5.0</ele><time>2026-04-22T15:38:56.999Z</time></trkpt><trkpt lat="34.33013630223549" lon="-6.510210043966519"><ele>5.0</ele><time>2026-04-22T15:38:57.999Z</time></trkpt><trkpt lat="34.32984872137685" lon="-6.510258354474831"><ele>5.0</ele><time>2026-04-22T15:38:58.999Z</time></trkpt><trkpt lat="34.32956025605138" lon="-6.510304724437448"><ele>5.5</ele><time>2026-04-22T15:38:59.999Z</time></trkpt><trkpt lat="34.329272137210886" lon="-6.510352603949442"><ele>6.0</ele><time>2026-04-22T15:39:00.999Z</time></trkpt><trkpt lat="34.328982791450954" lon="-6.5103981829987285"><ele>6.5</ele><time>2026-04-22T15:39:01.999Z</time></trkpt><trkpt lat="34.32869410778006" lon="-6.510442229631587"><ele>7.0</ele><time>2026-04-22T15:39:02.999Z</time></trkpt><trkpt lat="34.328405708330344" lon="-6.510486949835083"><ele>7.0</ele><time>2026-04-22T15:39:03.999Z</time></trkpt><trkpt lat="34.32811794146708" lon="-6.510534463282073"><ele>7.0</ele><time>2026-04-22T15:39:04.999Z</time></trkpt><trkpt lat="34.327830900767914" lon="-6.5105831470549"><ele>7.5</ele><time>2026-04-22T15:39:05.999Z</time></trkpt><trkpt lat="34.32754311379407" lon="-6.510629764768391"><ele>8.0</ele><time>2026-04-22T15:39:06.999Z</time></trkpt><trkpt lat="34.32725604722063" lon="-6.510676969629224"><ele>7.0</ele><time>2026-04-22T15:39:07.999Z</time></trkpt><trkpt lat="34.32696869027499" lon="-6.510725630210553"><ele>6.0</ele><time>2026-04-22T15:39:08.999Z</time></trkpt><trkpt lat="34.32668008246896" lon="-6.510773223563202"><ele>7.0</ele><time>2026-04-22T15:39:09.999Z</time></trkpt><trkpt lat="34.326391298877695" lon="-6.510818343724026"><ele>8.0</ele><time>2026-04-22T15:39:11Z</time></trkpt><trkpt lat="34.32610273786684" lon="-6.5108660316580185"><ele>8.0</ele><time>2026-04-22T15:39:12Z</time></trkpt><trkpt lat="34.32581428304759" lon="-6.510910887718219"><ele>8.0</ele><time>2026-04-22T15:39:13Z</time></trkpt><trkpt lat="34.325526782572396" lon="-6.51095474756008"><ele>8.0</ele><time>2026-04-22T15:39:14Z</time></trkpt><trkpt lat="34.32523912510978" lon="-6.51100112172125"><ele>8.0</ele><time>2026-04-22T15:39:15Z</time></trkpt><trkpt lat="34.32495187084188" lon="-6.511046809855315"><ele>8.5</ele><time>2026-04-22T15:39:16Z</time></trkpt><trkpt lat="34.32466389902511" lon="-6.511092338054779"><ele>9.0</ele><time>2026-04-22T15:39:17Z</time></trkpt><trkpt lat="34.324376871281444" lon="-6.5111392698913475"><ele>9.0</ele><time>2026-04-22T15:39:18Z</time></trkpt><trkpt lat="34.32408881764989" lon="-6.5111862642192335"><ele>9.0</ele><time>2026-04-22T15:39:19Z</time></trkpt><trkpt lat="34.32380094041841" lon="-6.511236371531489"><ele>8.0</ele><time>2026-04-22T15:39:20Z</time></trkpt><trkpt lat="34.32351310404233" lon="-6.511288172757938"><ele>7.0</ele><time>2026-04-22T15:39:21Z</time></trkpt><trkpt lat="34.32322554241633" lon="-6.511341023789625"><ele>6.0</ele><time>2026-04-22T15:39:22Z</time></trkpt><trkpt lat="34.322938794551305" lon="-6.511394098172281"><ele>5.0</ele><time>2026-04-22T15:39:23Z</time></trkpt><trkpt lat="34.322651679327365" lon="-6.511443283072077"><ele>5.0</ele><time>2026-04-22T15:39:24Z</time></trkpt><trkpt lat="34.32236448672657" lon="-6.511493809263232"><ele>5.0</ele><time>2026-04-22T15:39:25Z</time></trkpt><trkpt lat="34.322076320941996" lon="-6.511537652641645"><ele>6.0</ele><time>2026-04-22T15:39:26Z</time></trkpt><trkpt lat="34.321788874751995" lon="-6.5115804553097405"><ele>7.0</ele><time>2026-04-22T15:39:27Z</time></trkpt><trkpt lat="34.321501679675954" lon="-6.511624619189619"><ele>7.5</ele><time>2026-04-22T15:39:28Z</time></trkpt><trkpt lat="34.3212143605791" lon="-6.511671521237745"><ele>8.0</ele><time>2026-04-22T15:39:29Z</time></trkpt><trkpt lat="34.32092722988283" lon="-6.511719553162728"><ele>8.0</ele><time>2026-04-22T15:39:30Z</time></trkpt><trkpt lat="34.32063997857754" lon="-6.511767479967925"><ele>8.0</ele><time>2026-04-22T15:39:31Z</time></trkpt><trkpt lat="34.32035252188469" lon="-6.511815370391466"><ele>8.0</ele><time>2026-04-22T15:39:32Z</time></trkpt><trkpt lat="34.32006485059066" lon="-6.5118614768756675"><ele>8.0</ele><time>2026-04-22T15:39:33Z</time></trkpt><trkpt lat="34.31977723820431" lon="-6.511907581013845"><ele>8.5</ele><time>2026-04-22T15:39:34Z</time></trkpt><trkpt lat="34.319490706395015" lon="-6.511953620758164"><ele>9.0</ele><time>2026-04-22T15:39:35Z</time></trkpt><trkpt lat="34.319202607694926" lon="-6.51199486814673"><ele>9.0</ele><time>2026-04-22T15:39:36Z</time></trkpt><trkpt lat="34.31891845481466" lon="-6.512038308623756"><ele>9.0</ele><time>2026-04-22T15:39:37Z</time></trkpt><trkpt lat="34.318642087811746" lon="-6.512082389667382"><ele>8.0</ele><time>2026-04-22T15:39:38Z</time></trkpt><trkpt lat="34.31837493178937" lon="-6.512118430321048"><ele>7.0</ele><time>2026-04-22T15:39:39Z</time></trkpt><trkpt lat="34.31811470609733" lon="-6.512144957265202"><ele>7.0</ele><time>2026-04-22T15:39:40Z</time></trkpt><trkpt lat="34.31785309503026" lon="-6.512164577473904"><ele>7.0</ele><time>2026-04-22T15:39:41Z</time></trkpt><trkpt lat="34.31758332705504" lon="-6.51218208164666"><ele>7.0</ele><time>2026-04-22T15:39:42Z</time></trkpt><trkpt lat="34.31730419648055" lon="-6.512197448886645"><ele>7.0</ele><time>2026-04-22T15:39:43Z</time></trkpt><trkpt lat="34.317021707981546" lon="-6.512209488810251"><ele>7.5</ele><time>2026-04-22T15:39:44Z</time></trkpt><trkpt lat="34.31673735447588" lon="-6.512216521641166"><ele>8.0</ele><time>2026-04-22T15:39:45Z</time></trkpt><trkpt lat="34.31645159234436" lon="-6.512216933101702"><ele>8.5</ele><time>2026-04-22T15:39:46Z</time></trkpt><trkpt lat="34.31616488414277" lon="-6.512210958636688"><ele>9.0</ele><time>2026-04-22T15:39:47Z</time></trkpt><trkpt lat="34.315876889195486" lon="-6.51219690543541"><ele>9.0</ele><time>2026-04-22T15:39:48Z</time></trkpt><trkpt lat="34.31558891973157" lon="-6.512175027987144"><ele>9.0</ele><time>2026-04-22T15:39:49Z</time></trkpt><trkpt lat="34.31529960671944" lon="-6.512149153916071"><ele>11.5</ele><time>2026-04-22T15:39:50Z</time></trkpt><trkpt lat="34.31500970532004" lon="-6.512116703580293"><ele>14.0</ele><time>2026-04-22T15:39:51Z</time></trkpt><trkpt lat="34.31472073017247" lon="-6.512075980725159"><ele>14.0</ele><time>2026-04-22T15:39:52Z</time></trkpt><trkpt lat="34.31443358765283" lon="-6.512025774445107"><ele>14.0</ele><time>2026-04-22T15:39:53Z</time></trkpt><trkpt lat="34.314148232735484" lon="-6.511965105889828"><ele>13.0</ele><time>2026-04-22T15:39:54Z</time></trkpt><trkpt lat="34.313863699562624" lon="-6.511896203139314"><ele>12.0</ele><time>2026-04-22T15:39:55Z</time></trkpt><trkpt lat="34.313579204066045" lon="-6.511821066607109"><ele>12.0</ele><time>2026-04-22T15:39:56Z</time></trkpt><trkpt lat="34.313296029810836" lon="-6.511739857316373"><ele>12.0</ele><time>2026-04-22T15:39:57Z</time></trkpt><trkpt lat="34.31301536187034" lon="-6.511651545552854"><ele>13.0</ele><time>2026-04-22T15:39:58Z</time></trkpt><trkpt lat="34.31273560342862" lon="-6.5115577157032005"><ele>14.0</ele><time>2026-04-22T15:39:59Z</time></trkpt><trkpt lat="34.31245706861623" lon="-6.5114567623786765"><ele>15.0</ele><time>2026-04-22T15:40:00Z</time></trkpt><trkpt lat="34.31218126158521" lon="-6.511349303786117"><ele>16.0</ele><time>2026-04-22T15:40:01Z</time></trkpt><trkpt lat="34.311908730704715" lon="-6.511234458533148"><ele>16.0</ele><time>2026-04-22T15:40:02Z</time></trkpt><trkpt lat="34.31163637039324" lon="-6.511111979530039"><ele>16.0</ele><time>2026-04-22T15:40:03Z</time></trkpt><trkpt lat="34.31136455987264" lon="-6.510986462092409"><ele>16.0</ele><time>2026-04-22T15:40:04Z</time></trkpt><trkpt lat="34.311093986891336" lon="-6.510856483057047"><ele>16.0</ele><time>2026-04-22T15:40:05Z</time></trkpt><trkpt lat="34.31084246853345" lon="-6.510729902623006"><ele>16.0</ele><time>2026-04-22T15:40:06Z</time></trkpt><trkpt lat="34.3106064130375" lon="-6.51060829285394"><ele>16.0</ele><time>2026-04-22T15:40:07Z</time></trkpt><trkpt lat="34.31037913128475" lon="-6.510486477723639"><ele>17.0</ele><time>2026-04-22T15:40:08Z</time></trkpt><trkpt lat="34.310163460646386" lon="-6.510371156330384"><ele>18.0</ele><time>2026-04-22T15:40:09Z</time></trkpt><trkpt lat="34.30996508537355" lon="-6.510271032322757"><ele>18.0</ele><time>2026-04-22T15:40:10Z</time></trkpt><trkpt lat="34.309779675016266" lon="-6.510181547772815"><ele>18.0</ele><time>2026-04-22T15:40:11Z</time></trkpt><trkpt lat="34.30961168605465" lon="-6.510075277677144"><ele>18.0</ele><time>2026-04-22T15:40:12Z</time></trkpt><trkpt lat="34.309434156016074" lon="-6.5099822608483615"><ele>18.666666666666668</ele><time>2026-04-22T15:40:13Z</time></trkpt><trkpt lat="34.309288277685404" lon="-6.509911706689119"><ele>19.333333333333336</ele><time>2026-04-22T15:40:14Z</time></trkpt><trkpt lat="34.30914621632007" lon="-6.5098255150879485"><ele>20.0</ele><time>2026-04-22T15:40:15Z</time></trkpt><trkpt lat="34.30900566026427" lon="-6.509753372630415"><ele>20.5</ele><time>2026-04-22T15:40:16Z</time></trkpt><trkpt lat="34.30887862996278" lon="-6.509683577145027"><ele>21.0</ele><time>2026-04-22T15:40:17Z</time></trkpt><trkpt lat="34.308763385003424" lon="-6.509614522572654"><ele>21.5</ele><time>2026-04-22T15:40:18Z</time></trkpt><trkpt lat="34.30865578712597" lon="-6.509553696518612"><ele>22.0</ele><time>2026-04-22T15:40:19Z</time></trkpt><trkpt lat="34.308552518403935" lon="-6.509508041627168"><ele>22.0</ele><time>2026-04-22T15:40:20Z</time></trkpt><trkpt lat="34.30845583525704" lon="-6.509472431859774"><ele>22.0</ele><time>2026-04-22T15:40:21Z</time></trkpt><trkpt lat="34.30837753950396" lon="-6.509412428620285"><ele>22.0</ele><time>2026-04-22T15:40:22Z</time></trkpt><trkpt lat="34.308303219477246" lon="-6.509369035727209"><ele>22.0</ele><time>2026-04-22T15:40:22.999Z</time></trkpt><trkpt lat="34.30823025684585" lon="-6.509326435299635"><ele>22.0</ele><time>2026-04-22T15:40:23.999Z</time></trkpt><trkpt lat="34.308161009314354" lon="-6.509285909814412"><ele>22.0</ele><time>2026-04-22T15:40:24.999Z</time></trkpt><trkpt lat="34.308099266718834" lon="-6.509249745338851"><ele>21.666666666666664</ele><time>2026-04-22T15:40:25.999Z</time></trkpt><trkpt lat="34.30799196227597" lon="-6.50920597066159"><ele>21.333333333333332</ele><time>2026-04-22T15:40:27.999Z</time></trkpt><trkpt lat="34.30791834533748" lon="-6.509147246114227"><ele>21.0</ele><time>2026-04-22T15:40:29.999Z</time></trkpt><trkpt lat="34.307847269035626" lon="-6.509110783343129"><ele>20.666666666666668</ele><time>2026-04-22T15:41:14.999Z</time></trkpt><trkpt lat="34.30779075608641" lon="-6.509073947312987"><ele>20.333333333333336</ele><time>2026-04-22T15:41:17Z</time></trkpt><trkpt lat="34.30772305191072" lon="-6.509030343968672"><ele>20.0</ele><time>2026-04-22T15:43:02.999Z</time></trkpt><trkpt lat="34.307657984041604" lon="-6.509000179434476"><ele>20.0</ele><time>2026-04-22T15:43:04.999Z</time></trkpt><trkpt lat="34.307584695216605" lon="-6.50896748042162"><ele>20.0</ele><time>2026-04-22T15:43:06.999Z</time></trkpt><trkpt lat="34.307497348444805" lon="-6.5089470649799335"><ele>20.0</ele><time>2026-04-22T15:43:08.999Z</time></trkpt><trkpt lat="34.307430968708516" lon="-6.508894608268066"><ele>20.0</ele><time>2026-04-22T15:43:10.999Z</time></trkpt><trkpt lat="34.30739497715394" lon="-6.508803181370028"><ele>20.0</ele><time>2026-04-22T15:43:13.999Z</time></trkpt><trkpt lat="34.30740837096997" lon="-6.508707518843935"><ele>20.0</ele><time>2026-04-22T15:45:07.999Z</time></trkpt><trkpt lat="34.30734135720043" lon="-6.508688525341979"><ele>20.166666666666668</ele><time>2026-04-22T15:45:10.999Z</time></trkpt><trkpt lat="34.30727074350062" lon="-6.508657278545151"><ele>20.333333333333336</ele><time>2026-04-22T15:45:12.999Z</time></trkpt><trkpt lat="34.30718792961602" lon="-6.50861044251916"><ele>20.5</ele><time>2026-04-22T15:45:14.999Z</time></trkpt><trkpt lat="34.30712748363161" lon="-6.508577368977918"><ele>20.666666666666668</ele><time>2026-04-22T15:45:16.999Z</time></trkpt><trkpt lat="34.30705919880996" lon="-6.5085402239479455"><ele>20.833333333333332</ele><time>2026-04-22T15:45:20.999Z</time></trkpt><trkpt lat="34.30695520055372" lon="-6.508483651819926"><ele>21.0</ele><time>2026-04-22T15:45:22.999Z</time></trkpt><trkpt lat="34.30688875049712" lon="-6.50844750490857"><ele>21.0</ele><time>2026-04-22T15:45:23.999Z</time></trkpt><trkpt lat="34.306817316699245" lon="-6.508408646918062"><ele>21.0</ele><time>2026-04-22T15:45:24.999Z</time></trkpt><trkpt lat="34.30673870848021" lon="-6.508365886241365"><ele>21.0</ele><time>2026-04-22T15:45:25.999Z</time></trkpt><trkpt lat="34.30665528971807" lon="-6.508320508786901"><ele>21.0</ele><time>2026-04-22T15:45:26.999Z</time></trkpt><trkpt lat="34.306561719836154" lon="-6.508269609433393"><ele>21.0</ele><time>2026-04-22T15:45:28Z</time></trkpt><trkpt lat="34.30646034769359" lon="-6.508214465839546"><ele>21.0</ele><time>2026-04-22T15:45:29Z</time></trkpt><trkpt lat="34.30635039971801" lon="-6.508154657246107"><ele>21.0</ele><time>2026-04-22T15:45:30Z</time></trkpt><trkpt lat="34.30623176765783" lon="-6.508090008535518"><ele>21.0</ele><time>2026-04-22T15:45:31Z</time></trkpt><trkpt lat="34.30610877149876" lon="-6.508022658882574"><ele>21.0</ele><time>2026-04-22T15:45:32Z</time></trkpt><trkpt lat="34.30598509247397" lon="-6.507954935301561"><ele>20.5</ele><time>2026-04-22T15:45:33Z</time></trkpt><trkpt lat="34.305865530855044" lon="-6.507887163363001"><ele>20.0</ele><time>2026-04-22T15:45:34Z</time></trkpt><trkpt lat="34.305748736192044" lon="-6.50781908274966"><ele>19.5</ele><time>2026-04-22T15:45:35Z</time></trkpt><trkpt lat="34.305636519046246" lon="-6.507753670419391"><ele>19.0</ele><time>2026-04-22T15:45:36Z</time></trkpt><trkpt lat="34.30553879609055" lon="-6.50767516052655"><ele>18.599999999999998</ele><time>2026-04-22T15:45:37Z</time></trkpt><trkpt lat="34.30544038780063" lon="-6.507623080885947"><ele>18.2</ele><time>2026-04-22T15:45:38Z</time></trkpt><trkpt lat="34.305349956343285" lon="-6.507573946757749"><ele>17.799999999999997</ele><time>2026-04-22T15:45:39Z</time></trkpt><trkpt lat="34.30526481717473" lon="-6.507528202966706"><ele>17.4</ele><time>2026-04-22T15:45:40Z</time></trkpt><trkpt lat="34.305185842379295" lon="-6.507484499745222"><ele>17.0</ele><time>2026-04-22T15:45:41Z</time></trkpt><trkpt lat="34.305110075354506" lon="-6.507443066286602"><ele>17.0</ele><time>2026-04-22T15:45:42Z</time></trkpt><trkpt lat="34.30503505854252" lon="-6.5074010409905085"><ele>17.0</ele><time>2026-04-22T15:45:43Z</time></trkpt><trkpt lat="34.3049535583035" lon="-6.507358152364706"><ele>17.0</ele><time>2026-04-22T15:45:44Z</time></trkpt><trkpt lat="34.304863380875474" lon="-6.507307520993592"><ele>17.0</ele><time>2026-04-22T15:45:45Z</time></trkpt><trkpt lat="34.304764478710446" lon="-6.507246306549317"><ele>17.0</ele><time>2026-04-22T15:45:46Z</time></trkpt><trkpt lat="34.304654578978976" lon="-6.5071799187080055"><ele>17.0</ele><time>2026-04-22T15:45:47Z</time></trkpt><trkpt lat="34.30453329637106" lon="-6.507112018762638"><ele>17.0</ele><time>2026-04-22T15:45:48Z</time></trkpt><trkpt lat="34.30440230727177" lon="-6.5070430365228145"><ele>17.0</ele><time>2026-04-22T15:45:49Z</time></trkpt><trkpt lat="34.30426377207024" lon="-6.506971768031603"><ele>17.0</ele><time>2026-04-22T15:45:50Z</time></trkpt><trkpt lat="34.304110633178745" lon="-6.50689465003026"><ele>17.0</ele><time>2026-04-22T15:45:51Z</time></trkpt><trkpt lat="34.303948763480996" lon="-6.5068093227581025"><ele>17.0</ele><time>2026-04-22T15:45:52Z</time></trkpt><trkpt lat="34.30377916351964" lon="-6.506718698662179"><ele>17.0</ele><time>2026-04-22T15:45:53Z</time></trkpt><trkpt lat="34.30360491718555" lon="-6.506620141832046"><ele>17.0</ele><time>2026-04-22T15:45:54Z</time></trkpt><trkpt lat="34.303422732806375" lon="-6.5065169538598"><ele>17.0</ele><time>2026-04-22T15:45:55Z</time></trkpt><trkpt lat="34.303233720781826" lon="-6.506410549604713"><ele>17.0</ele><time>2026-04-22T15:45:56Z</time></trkpt><trkpt lat="34.3030361924513" lon="-6.5063028729181"><ele>16.5</ele><time>2026-04-22T15:45:57Z</time></trkpt><trkpt lat="34.30283415071395" lon="-6.5061876015317965"><ele>16.0</ele><time>2026-04-22T15:45:58Z</time></trkpt><trkpt lat="34.302628269703675" lon="-6.506072353746101"><ele>16.0</ele><time>2026-04-22T15:45:59Z</time></trkpt><trkpt lat="34.30242229250158" lon="-6.5059522321531755"><ele>16.0</ele><time>2026-04-22T15:46:00Z</time></trkpt><trkpt lat="34.302210210816085" lon="-6.5058321726935295"><ele>17.5</ele><time>2026-04-22T15:46:01Z</time></trkpt><trkpt lat="34.30199152126773" lon="-6.5057048093602186"><ele>19.0</ele><time>2026-04-22T15:46:02Z</time></trkpt><trkpt lat="34.30176525057553" lon="-6.5055748211140285"><ele>19.0</ele><time>2026-04-22T15:46:03Z</time></trkpt><trkpt lat="34.301532445807474" lon="-6.505441948335041"><ele>19.0</ele><time>2026-04-22T15:46:04Z</time></trkpt><trkpt lat="34.30129481114951" lon="-6.505306474926102"><ele>18.0</ele><time>2026-04-22T15:46:05Z</time></trkpt><trkpt lat="34.30105659191082" lon="-6.505171208467745"><ele>17.0</ele><time>2026-04-22T15:46:06Z</time></trkpt><trkpt lat="34.3008168382517" lon="-6.505033793440235"><ele>16.0</ele><time>2026-04-22T15:46:06.999Z</time></trkpt><trkpt lat="34.30057654103716" lon="-6.5048934221439305"><ele>15.0</ele><time>2026-04-22T15:46:07.999Z</time></trkpt><trkpt lat="34.30033473076461" lon="-6.504754564727309"><ele>15.0</ele><time>2026-04-22T15:46:08.999Z</time></trkpt><trkpt lat="34.30009135044168" lon="-6.5046145202900485"><ele>15.0</ele><time>2026-04-22T15:46:09.999Z</time></trkpt><trkpt lat="34.29984861466945" lon="-6.504479774705983"><ele>14.5</ele><time>2026-04-22T15:46:10.999Z</time></trkpt><trkpt lat="34.29960532692888" lon="-6.504349152441486"><ele>14.0</ele><time>2026-04-22T15:46:11.999Z</time></trkpt><trkpt lat="34.2993637052376" lon="-6.504219165370719"><ele>14.0</ele><time>2026-04-22T15:46:12.999Z</time></trkpt><trkpt lat="34.29912310999805" lon="-6.504089064389813"><ele>14.0</ele><time>2026-04-22T15:46:13.999Z</time></trkpt><trkpt lat="34.29887987974908" lon="-6.50396074274395"><ele>13.5</ele><time>2026-04-22T15:46:14.999Z</time></trkpt><trkpt lat="34.29863211763624" lon="-6.503837467120381"><ele>13.0</ele><time>2026-04-22T15:46:15.999Z</time></trkpt><trkpt lat="34.298382120363904" lon="-6.50371852736587"><ele>13.5</ele><time>2026-04-22T15:46:16.999Z</time></trkpt><trkpt lat="34.29812769351914" lon="-6.503602974911489"><ele>14.0</ele><time>2026-04-22T15:46:17.999Z</time></trkpt><trkpt lat="34.297869142880856" lon="-6.503490784975585"><ele>14.0</ele><time>2026-04-22T15:46:18.999Z</time></trkpt><trkpt lat="34.29760609382778" lon="-6.503380500255947"><ele>14.0</ele><time>2026-04-22T15:46:19.999Z</time></trkpt><trkpt lat="34.29733994318826" lon="-6.5032766578856025"><ele>13.5</ele><time>2026-04-22T15:46:20.999Z</time></trkpt><trkpt lat="34.2970710465735" lon="-6.5031769018108445"><ele>13.0</ele><time>2026-04-22T15:46:21.999Z</time></trkpt><trkpt lat="34.29680134485708" lon="-6.503079328197324"><ele>13.0</ele><time>2026-04-22T15:46:22.999Z</time></trkpt><trkpt lat="34.29653281315473" lon="-6.502986408183896"><ele>13.0</ele><time>2026-04-22T15:46:23.999Z</time></trkpt><trkpt lat="34.296261479795504" lon="-6.502900649371701"><ele>12.0</ele><time>2026-04-22T15:46:24.999Z</time></trkpt><trkpt lat="34.29598834195634" lon="-6.502818947326752"><ele>11.0</ele><time>2026-04-22T15:46:25.999Z</time></trkpt><trkpt lat="34.29571641406772" lon="-6.50274243933386"><ele>9.5</ele><time>2026-04-22T15:46:26.999Z</time></trkpt><trkpt lat="34.2954455868828" lon="-6.5026704398922694"><ele>8.0</ele><time>2026-04-22T15:46:27.999Z</time></trkpt><trkpt lat="34.29517258548214" lon="-6.50260584374462"><ele>8.0</ele><time>2026-04-22T15:46:28.999Z</time></trkpt><trkpt lat="34.294900174044635" lon="-6.502548124937056"><ele>8.0</ele><time>2026-04-22T15:46:29.999Z</time></trkpt><trkpt lat="34.294628097277744" lon="-6.502493255277711"><ele>8.0</ele><time>2026-04-22T15:46:30.999Z</time></trkpt><trkpt lat="34.294356441319295" lon="-6.502443897746243"><ele>8.0</ele><time>2026-04-22T15:46:31.999Z</time></trkpt><trkpt lat="34.29408571729776" lon="-6.502399001538303"><ele>7.5</ele><time>2026-04-22T15:46:32.999Z</time></trkpt><trkpt lat="34.293814892698585" lon="-6.502359221305185"><ele>7.0</ele><time>2026-04-22T15:46:33.999Z</time></trkpt><trkpt lat="34.29354469053576" lon="-6.502323403601851"><ele>7.0</ele><time>2026-04-22T15:46:34.999Z</time></trkpt><trkpt lat="34.2932731524148" lon="-6.502292171755111"><ele>7.0</ele><time>2026-04-22T15:46:35.999Z</time></trkpt><trkpt lat="34.29300342632302" lon="-6.502263234137583"><ele>7.5</ele><time>2026-04-22T15:46:36.999Z</time></trkpt><trkpt lat="34.29273559305792" lon="-6.502237497337191"><ele>8.0</ele><time>2026-04-22T15:46:37.999Z</time></trkpt><trkpt lat="34.29246563846502" lon="-6.502218026290826"><ele>9.0</ele><time>2026-04-22T15:46:38.999Z</time></trkpt><trkpt lat="34.292190017688036" lon="-6.502204418685608"><ele>10.0</ele><time>2026-04-22T15:46:39.999Z</time></trkpt><trkpt lat="34.29191081719178" lon="-6.502198845598301"><ele>10.0</ele><time>2026-04-22T15:46:40.999Z</time></trkpt><trkpt lat="34.291628291602834" lon="-6.502198707032484"><ele>10.0</ele><time>2026-04-22T15:46:41.999Z</time></trkpt><trkpt lat="34.29134633487112" lon="-6.502206785800715"><ele>10.0</ele><time>2026-04-22T15:46:42.999Z</time></trkpt><trkpt lat="34.29106570343454" lon="-6.502221003209519"><ele>10.0</ele><time>2026-04-22T15:46:43.999Z</time></trkpt><trkpt lat="34.290780762541324" lon="-6.502241475681727"><ele>10.0</ele><time>2026-04-22T15:46:44.999Z</time></trkpt><trkpt lat="34.29049288439595" lon="-6.502275738844929"><ele>10.0</ele><time>2026-04-22T15:46:45.999Z</time></trkpt><trkpt lat="34.29020720999955" lon="-6.502318976936638"><ele>10.0</ele><time>2026-04-22T15:46:46.999Z</time></trkpt><trkpt lat="34.28992400403131" lon="-6.502360061783019"><ele>10.0</ele><time>2026-04-22T15:46:47.999Z</time></trkpt><trkpt lat="34.289644107659704" lon="-6.502402399241685"><ele>12.0</ele><time>2026-04-22T15:46:48.999Z</time></trkpt><trkpt lat="34.289363829039715" lon="-6.502451822382491"><ele>14.0</ele><time>2026-04-22T15:46:49.999Z</time></trkpt><trkpt lat="34.28908335713469" lon="-6.502508403021346"><ele>13.5</ele><time>2026-04-22T15:46:50.999Z</time></trkpt><trkpt lat="34.288802127978414" lon="-6.502577560039003"><ele>13.0</ele><time>2026-04-22T15:46:51.999Z</time></trkpt><trkpt lat="34.288518784611114" lon="-6.502646834402476"><ele>13.0</ele><time>2026-04-22T15:46:52.999Z</time></trkpt><trkpt lat="34.28823460609223" lon="-6.502713664768618"><ele>13.0</ele><time>2026-04-22T15:46:53.999Z</time></trkpt><trkpt lat="34.28794989856873" lon="-6.502777390262749"><ele>12.5</ele><time>2026-04-22T15:46:54.999Z</time></trkpt><trkpt lat="34.28766595269055" lon="-6.502842724599861"><ele>12.0</ele><time>2026-04-22T15:46:55.999Z</time></trkpt><trkpt lat="34.287380566933464" lon="-6.502912429332687"><ele>14.5</ele><time>2026-04-22T15:46:56.999Z</time></trkpt><trkpt lat="34.28709735742911" lon="-6.502984908058497"><ele>17.0</ele><time>2026-04-22T15:46:57.999Z</time></trkpt><trkpt lat="34.28681869662039" lon="-6.503051799827976"><ele>17.0</ele><time>2026-04-22T15:46:58.999Z</time></trkpt><trkpt lat="34.2865251106647" lon="-6.50312045296506"><ele>17.0</ele><time>2026-04-22T15:46:59.999Z</time></trkpt><trkpt lat="34.286239480394634" lon="-6.5031839961233615"><ele>15.5</ele><time>2026-04-22T15:47:00.999Z</time></trkpt><trkpt lat="34.28595253502309" lon="-6.503245716301774"><ele>14.0</ele><time>2026-04-22T15:47:01.999Z</time></trkpt><trkpt lat="34.28566576015213" lon="-6.503310397327896"><ele>14.0</ele><time>2026-04-22T15:47:02.999Z</time></trkpt><trkpt lat="34.28537903250861" lon="-6.503375803646391"><ele>14.0</ele><time>2026-04-22T15:47:03.999Z</time></trkpt><trkpt lat="34.28509269191761" lon="-6.503443222934867"><ele>14.0</ele><time>2026-04-22T15:47:04.999Z</time></trkpt><trkpt lat="34.28480763308082" lon="-6.503506632179311"><ele>14.0</ele><time>2026-04-22T15:47:05.999Z</time></trkpt><trkpt lat="34.28452242593917" lon="-6.503567697667444"><ele>14.0</ele><time>2026-04-22T15:47:06.999Z</time></trkpt><trkpt lat="34.28423532895694" lon="-6.50362773159853"><ele>14.0</ele><time>2026-04-22T15:47:07.999Z</time></trkpt><trkpt lat="34.28394785896683" lon="-6.5036890980332185"><ele>15.0</ele><time>2026-04-22T15:47:08.999Z</time></trkpt><trkpt lat="34.28366004729889" lon="-6.503752247434016"><ele>16.0</ele><time>2026-04-22T15:47:09.999Z</time></trkpt><trkpt lat="34.283373048594385" lon="-6.50381775839537"><ele>16.0</ele><time>2026-04-22T15:47:10.999Z</time></trkpt><trkpt lat="34.28308745597625" lon="-6.503883923372119"><ele>16.0</ele><time>2026-04-22T15:47:11.999Z</time></trkpt><trkpt lat="34.282801866777326" lon="-6.503951054319219"><ele>16.0</ele><time>2026-04-22T15:47:12.999Z</time></trkpt><trkpt lat="34.28251736378087" lon="-6.50401835820228"><ele>16.0</ele><time>2026-04-22T15:47:13.999Z</time></trkpt><trkpt lat="34.28223292245081" lon="-6.504087740258541"><ele>17.5</ele><time>2026-04-22T15:47:14.999Z</time></trkpt><trkpt lat="34.28194781010889" lon="-6.504157768610145"><ele>19.0</ele><time>2026-04-22T15:47:15.999Z</time></trkpt><trkpt lat="34.281663484131066" lon="-6.5042282535802975"><ele>20.0</ele><time>2026-04-22T15:47:16.999Z</time></trkpt><trkpt lat="34.28137969783827" lon="-6.50429954115519"><ele>21.0</ele><time>2026-04-22T15:47:17.999Z</time></trkpt><trkpt lat="34.28109571544491" lon="-6.504371884466718"><ele>21.0</ele><time>2026-04-22T15:47:18.999Z</time></trkpt><trkpt lat="34.28081154573068" lon="-6.504446073620738"><ele>21.0</ele><time>2026-04-22T15:47:19.999Z</time></trkpt><trkpt lat="34.28052776737224" lon="-6.504522889126756"><ele>20.5</ele><time>2026-04-22T15:47:20.999Z</time></trkpt><trkpt lat="34.28024484001672" lon="-6.50460439960945"><ele>20.0</ele><time>2026-04-22T15:47:21.999Z</time></trkpt><trkpt lat="34.27996308082137" lon="-6.504689200507641"><ele>20.5</ele><time>2026-04-22T15:47:22.999Z</time></trkpt><trkpt lat="34.279681214446626" lon="-6.504776534676561"><ele>21.0</ele><time>2026-04-22T15:47:23.999Z</time></trkpt><trkpt lat="34.2793986767706" lon="-6.504863900874581"><ele>21.0</ele><time>2026-04-22T15:47:24.999Z</time></trkpt><trkpt lat="34.27911540056345" lon="-6.504953328692916"><ele>21.0</ele><time>2026-04-22T15:47:25.999Z</time></trkpt><trkpt lat="34.27883369000865" lon="-6.505043825489856"><ele>21.0</ele><time>2026-04-22T15:47:26.999Z</time></trkpt><trkpt lat="34.27855164105821" lon="-6.505139771502097"><ele>21.0</ele><time>2026-04-22T15:47:27.999Z</time></trkpt><trkpt lat="34.27827113134963" lon="-6.505238744556207"><ele>20.5</ele><time>2026-04-22T15:47:28.999Z</time></trkpt><trkpt lat="34.27799083100594" lon="-6.50533862401722"><ele>20.0</ele><time>2026-04-22T15:47:29.999Z</time></trkpt><trkpt lat="34.27771299868431" lon="-6.505440081584226"><ele>20.0</ele><time>2026-04-22T15:47:30.999Z</time></trkpt><trkpt lat="34.27743421072088" lon="-6.50554119379671"><ele>20.0</ele><time>2026-04-22T15:47:31.999Z</time></trkpt><trkpt lat="34.277155310110814" lon="-6.505646441781992"><ele>17.5</ele><time>2026-04-22T15:47:32.999Z</time></trkpt><trkpt lat="34.276878019159724" lon="-6.5057563963363725"><ele>15.0</ele><time>2026-04-22T15:47:34Z</time></trkpt><trkpt lat="34.27660186729935" lon="-6.505868220314766"><ele>16.0</ele><time>2026-04-22T15:47:35Z</time></trkpt><trkpt lat="34.276324984851186" lon="-6.505981209313167"><ele>17.0</ele><time>2026-04-22T15:47:36Z</time></trkpt><trkpt lat="34.27604978372975" lon="-6.506095322063104"><ele>17.0</ele><time>2026-04-22T15:47:37Z</time></trkpt><trkpt lat="34.27577802424392" lon="-6.506212125560065"><ele>17.0</ele><time>2026-04-22T15:47:38Z</time></trkpt><trkpt lat="34.27551002157622" lon="-6.506324224937972"><ele>17.0</ele><time>2026-04-22T15:47:39Z</time></trkpt><trkpt lat="34.27524699182799" lon="-6.506426002433114"><ele>17.0</ele><time>2026-04-22T15:47:40Z</time></trkpt><trkpt lat="34.274994843951184" lon="-6.506531915064503"><ele>16.0</ele><time>2026-04-22T15:47:41Z</time></trkpt><trkpt lat="34.274751594078936" lon="-6.506632843349213"><ele>15.0</ele><time>2026-04-22T15:47:42Z</time></trkpt><trkpt lat="34.27451476552925" lon="-6.506731592902117"><ele>15.0</ele><time>2026-04-22T15:47:43Z</time></trkpt><trkpt lat="34.274283672266066" lon="-6.506830081622002"><ele>15.0</ele><time>2026-04-22T15:47:44Z</time></trkpt><trkpt lat="34.27406016894649" lon="-6.50692748031296"><ele>16.5</ele><time>2026-04-22T15:47:45Z</time></trkpt><trkpt lat="34.27383822475881" lon="-6.507020669092948"><ele>18.0</ele><time>2026-04-22T15:47:46Z</time></trkpt><trkpt lat="34.273620556205145" lon="-6.507116615917025"><ele>18.0</ele><time>2026-04-22T15:47:47Z</time></trkpt><trkpt lat="34.27340350435894" lon="-6.507209893557441"><ele>18.0</ele><time>2026-04-22T15:47:48Z</time></trkpt><trkpt lat="34.273183432846366" lon="-6.507302598136321"><ele>18.0</ele><time>2026-04-22T15:47:49Z</time></trkpt><trkpt lat="34.27295392393022" lon="-6.507402802654097"><ele>18.0</ele><time>2026-04-22T15:47:50Z</time></trkpt><trkpt lat="34.27271491007001" lon="-6.507499816356019"><ele>18.0</ele><time>2026-04-22T15:47:51Z</time></trkpt><trkpt lat="34.27246885983359" lon="-6.507601549637614"><ele>18.0</ele><time>2026-04-22T15:47:52Z</time></trkpt><trkpt lat="34.272212994452666" lon="-6.507708041172255"><ele>18.0</ele><time>2026-04-22T15:47:53Z</time></trkpt><trkpt lat="34.27195017542745" lon="-6.507818975708748"><ele>18.0</ele><time>2026-04-22T15:47:54Z</time></trkpt><trkpt lat="34.271683939670794" lon="-6.507929607755162"><ele>17.5</ele><time>2026-04-22T15:47:55Z</time></trkpt><trkpt lat="34.27141665054297" lon="-6.508048074936899"><ele>17.0</ele><time>2026-04-22T15:47:56Z</time></trkpt><trkpt lat="34.271149850361475" lon="-6.5081703863974685"><ele>17.0</ele><time>2026-04-22T15:47:57Z</time></trkpt><trkpt lat="34.270879412247844" lon="-6.5082909076620465"><ele>17.0</ele><time>2026-04-22T15:47:58Z</time></trkpt><trkpt lat="34.27061005487917" lon="-6.508417900966805"><ele>17.0</ele><time>2026-04-22T15:47:59Z</time></trkpt><trkpt lat="34.270336986765116" lon="-6.5085418623878315"><ele>17.0</ele><time>2026-04-22T15:48:00Z</time></trkpt><trkpt lat="34.27006478002534" lon="-6.50866405914917"><ele>17.5</ele><time>2026-04-22T15:48:01Z</time></trkpt><trkpt lat="34.269790318661954" lon="-6.508783687619505"><ele>18.0</ele><time>2026-04-22T15:48:02Z</time></trkpt><trkpt lat="34.26951371347898" lon="-6.508898357050974"><ele>17.0</ele><time>2026-04-22T15:48:03Z</time></trkpt><trkpt lat="34.26923795392396" lon="-6.509013053855978"><ele>16.0</ele><time>2026-04-22T15:48:04Z</time></trkpt><trkpt lat="34.268961143805285" lon="-6.509127875361301"><ele>15.5</ele><time>2026-04-22T15:48:05Z</time></trkpt><trkpt lat="34.268685312722695" lon="-6.509241813500038"><ele>15.0</ele><time>2026-04-22T15:48:06Z</time></trkpt><trkpt lat="34.26841176973455" lon="-6.509355085992057"><ele>15.0</ele><time>2026-04-22T15:48:07Z</time></trkpt><trkpt lat="34.268137436665896" lon="-6.509461333026268"><ele>15.0</ele><time>2026-04-22T15:48:08Z</time></trkpt><trkpt lat="34.26786228447279" lon="-6.50957248674795"><ele>15.0</ele><time>2026-04-22T15:48:09Z</time></trkpt><trkpt lat="34.26758711167611" lon="-6.509684283100312"><ele>15.0</ele><time>2026-04-22T15:48:10Z</time></trkpt><trkpt lat="34.26731117785393" lon="-6.509794198210746"><ele>15.0</ele><time>2026-04-22T15:48:11Z</time></trkpt><trkpt lat="34.26703592405055" lon="-6.509903793042137"><ele>15.0</ele><time>2026-04-22T15:48:12Z</time></trkpt><trkpt lat="34.266761375728045" lon="-6.510016692957772"><ele>15.0</ele><time>2026-04-22T15:48:13Z</time></trkpt><trkpt lat="34.266487825496824" lon="-6.510134896463219"><ele>15.0</ele><time>2026-04-22T15:48:14Z</time></trkpt><trkpt lat="34.266214749532395" lon="-6.510250619586431"><ele>16.0</ele><time>2026-04-22T15:48:15Z</time></trkpt><trkpt lat="34.265941641775214" lon="-6.510367111059545"><ele>17.0</ele><time>2026-04-22T15:48:16Z</time></trkpt><trkpt lat="34.265669221980616" lon="-6.510485557804956"><ele>17.5</ele><time>2026-04-22T15:48:17Z</time></trkpt><trkpt lat="34.265396020700265" lon="-6.510601409148037"><ele>18.0</ele><time>2026-04-22T15:48:18Z</time></trkpt><trkpt lat="34.26512332864302" lon="-6.510715556030237"><ele>18.0</ele><time>2026-04-22T15:48:19Z</time></trkpt><trkpt lat="34.264849538409464" lon="-6.510832410755845"><ele>18.0</ele><time>2026-04-22T15:48:19.999Z</time></trkpt><trkpt lat="34.26457532682545" lon="-6.510948283730491"><ele>17.5</ele><time>2026-04-22T15:48:20.999Z</time></trkpt><trkpt lat="34.26429978791382" lon="-6.51106165808618"><ele>17.0</ele><time>2026-04-22T15:48:21.999Z</time></trkpt><trkpt lat="34.26402426540975" lon="-6.511179507430899"><ele>17.5</ele><time>2026-04-22T15:48:22.999Z</time></trkpt><trkpt lat="34.26374866750218" lon="-6.511295147261268"><ele>18.0</ele><time>2026-04-22T15:48:23.999Z</time></trkpt><trkpt lat="34.26347454547969" lon="-6.511410435971273"><ele>18.0</ele><time>2026-04-22T15:48:24.999Z</time></trkpt><trkpt lat="34.26320191598979" lon="-6.511527530632862"><ele>18.0</ele><time>2026-04-22T15:48:25.999Z</time></trkpt><trkpt lat="34.2629306254696" lon="-6.511650163123001"><ele>19.0</ele><time>2026-04-22T15:48:26.999Z</time></trkpt><trkpt lat="34.262662405522754" lon="-6.511778501774857"><ele>20.0</ele><time>2026-04-22T15:48:27.999Z</time></trkpt><trkpt lat="34.26239830901007" lon="-6.5119068419138175"><ele>20.0</ele><time>2026-04-22T15:48:28.999Z</time></trkpt><trkpt lat="34.262124150443164" lon="-6.512035550865542"><ele>20.0</ele><time>2026-04-22T15:48:29.999Z</time></trkpt><trkpt lat="34.261850622885376" lon="-6.512152781379259"><ele>20.5</ele><time>2026-04-22T15:48:30.999Z</time></trkpt><trkpt lat="34.261577650039975" lon="-6.51227006133634"><ele>21.0</ele><time>2026-04-22T15:48:31.999Z</time></trkpt><trkpt lat="34.26130223059121" lon="-6.512387226769577"><ele>19.5</ele><time>2026-04-22T15:48:32.999Z</time></trkpt><trkpt lat="34.26102625133798" lon="-6.51250515758448"><ele>18.0</ele><time>2026-04-22T15:48:33.999Z</time></trkpt><trkpt lat="34.260750917735166" lon="-6.5126228514702325"><ele>17.0</ele><time>2026-04-22T15:48:34.999Z</time></trkpt><trkpt lat="34.26047501318584" lon="-6.512738647774347"><ele>16.0</ele><time>2026-04-22T15:48:35.999Z</time></trkpt><trkpt lat="34.260198947806316" lon="-6.512853775864498"><ele>15.5</ele><time>2026-04-22T15:48:36.999Z</time></trkpt><trkpt lat="34.25992242209547" lon="-6.512970998853595"><ele>15.0</ele><time>2026-04-22T15:48:37.999Z</time></trkpt><trkpt lat="34.259645986429994" lon="-6.513088603326259"><ele>14.5</ele><time>2026-04-22T15:48:38.999Z</time></trkpt><trkpt lat="34.25937065689485" lon="-6.5132063115403795"><ele>14.0</ele><time>2026-04-22T15:48:39.999Z</time></trkpt><trkpt lat="34.25909511478195" lon="-6.513324345118346"><ele>13.0</ele><time>2026-04-22T15:48:40.999Z</time></trkpt><trkpt lat="34.25882058177379" lon="-6.513440159800436"><ele>12.0</ele><time>2026-04-22T15:48:41.999Z</time></trkpt><trkpt lat="34.25854672242245" lon="-6.513555343536822"><ele>12.0</ele><time>2026-04-22T15:48:42.999Z</time></trkpt><trkpt lat="34.25827399444963" lon="-6.513672731082171"><ele>12.0</ele><time>2026-04-22T15:48:43.999Z</time></trkpt><trkpt lat="34.25800265683421" lon="-6.513789082091651"><ele>12.0</ele><time>2026-04-22T15:48:44.999Z</time></trkpt><trkpt lat="34.25772914645631" lon="-6.5139028232503575"><ele>12.0</ele><time>2026-04-22T15:48:45.999Z</time></trkpt><trkpt lat="34.257456093979876" lon="-6.514016055266755"><ele>13.0</ele><time>2026-04-22T15:48:46.999Z</time></trkpt><trkpt lat="34.25718272205183" lon="-6.514129980471838"><ele>14.0</ele><time>2026-04-22T15:48:47.999Z</time></trkpt><trkpt lat="34.256908070008166" lon="-6.514242435823386"><ele>14.0</ele><time>2026-04-22T15:48:48.999Z</time></trkpt><trkpt lat="34.25663554528202" lon="-6.514356750619051"><ele>14.0</ele><time>2026-04-22T15:48:49.999Z</time></trkpt><trkpt lat="34.256362408425204" lon="-6.514473387766991"><ele>15.5</ele><time>2026-04-22T15:48:50.999Z</time></trkpt><trkpt lat="34.256088106662546" lon="-6.5145911621087835"><ele>17.0</ele><time>2026-04-22T15:48:51.999Z</time></trkpt><trkpt lat="34.25581218589742" lon="-6.514705352688049"><ele>17.0</ele><time>2026-04-22T15:48:52.999Z</time></trkpt><trkpt lat="34.25553700525898" lon="-6.514816487099644"><ele>17.0</ele><time>2026-04-22T15:48:53.999Z</time></trkpt><trkpt lat="34.25526057579889" lon="-6.514923368914348"><ele>17.0</ele><time>2026-04-22T15:48:54.999Z</time></trkpt><trkpt lat="34.25498356228448" lon="-6.515028898755484"><ele>17.0</ele><time>2026-04-22T15:48:55.999Z</time></trkpt><trkpt lat="34.254705807766136" lon="-6.515131658898472"><ele>17.5</ele><time>2026-04-22T15:48:56.999Z</time></trkpt><trkpt lat="34.25442672051324" lon="-6.515231433444764"><ele>18.0</ele><time>2026-04-22T15:48:57.999Z</time></trkpt><trkpt lat="34.2541461336267" lon="-6.515333579255525"><ele>19.0</ele><time>2026-04-22T15:48:58.999Z</time></trkpt><trkpt lat="34.25386540383091" lon="-6.515437094188889"><ele>20.0</ele><time>2026-04-22T15:48:59.999Z</time></trkpt><trkpt lat="34.25358439238575" lon="-6.515536828959039"><ele>20.0</ele><time>2026-04-22T15:49:00.999Z</time></trkpt><trkpt lat="34.25330272832983" lon="-6.51563418420851"><ele>20.0</ele><time>2026-04-22T15:49:01.999Z</time></trkpt><trkpt lat="34.253019621593786" lon="-6.515729812162958"><ele>17.5</ele><time>2026-04-22T15:49:02.999Z</time></trkpt><trkpt lat="34.25273608174722" lon="-6.515823121838771"><ele>15.0</ele><time>2026-04-22T15:49:03.999Z</time></trkpt><trkpt lat="34.252452399655525" lon="-6.515913537152351"><ele>15.5</ele><time>2026-04-22T15:49:04.999Z</time></trkpt><trkpt lat="34.25216917316108" lon="-6.516002851037624"><ele>16.0</ele><time>2026-04-22T15:49:05.999Z</time></trkpt><trkpt lat="34.251887456944765" lon="-6.516090649644964"><ele>16.0</ele><time>2026-04-22T15:49:06.999Z</time></trkpt><trkpt lat="34.25160402907066" lon="-6.516179038465478"><ele>16.0</ele><time>2026-04-22T15:49:07.999Z</time></trkpt><trkpt lat="34.251322489782424" lon="-6.516267799211474"><ele>16.5</ele><time>2026-04-22T15:49:08.999Z</time></trkpt><trkpt lat="34.251039490006356" lon="-6.516351929633287"><ele>17.0</ele><time>2026-04-22T15:49:09.999Z</time></trkpt><trkpt lat="34.25075738280215" lon="-6.516437008813845"><ele>16.0</ele><time>2026-04-22T15:49:10.999Z</time></trkpt><trkpt lat="34.25047363165775" lon="-6.516518511287428"><ele>15.0</ele><time>2026-04-22T15:49:11.999Z</time></trkpt><trkpt lat="34.250190925245455" lon="-6.516599995645019"><ele>15.0</ele><time>2026-04-22T15:49:12.999Z</time></trkpt><trkpt lat="34.24990576210407" lon="-6.516680719915533"><ele>15.0</ele><time>2026-04-22T15:49:13.999Z</time></trkpt><trkpt lat="34.24962020234372" lon="-6.516754799558917"><ele>15.5</ele><time>2026-04-22T15:49:14.999Z</time></trkpt><trkpt lat="34.24933435192914" lon="-6.516821766155867"><ele>16.0</ele><time>2026-04-22T15:49:15.999Z</time></trkpt><trkpt lat="34.24904948364576" lon="-6.516887157802242"><ele>16.5</ele><time>2026-04-22T15:49:16.999Z</time></trkpt><trkpt lat="34.24876278346669" lon="-6.516949305781303"><ele>17.0</ele><time>2026-04-22T15:49:17.999Z</time></trkpt><trkpt lat="34.24847585624862" lon="-6.51700820498436"><ele>17.0</ele><time>2026-04-22T15:49:18.999Z</time></trkpt><trkpt lat="34.24818896626358" lon="-6.51706485550218"><ele>17.0</ele><time>2026-04-22T15:49:19.999Z</time></trkpt><trkpt lat="34.24790195541529" lon="-6.517117514037736"><ele>14.5</ele><time>2026-04-22T15:49:20.999Z</time></trkpt><trkpt lat="34.24761322708752" lon="-6.517167163782908"><ele>12.0</ele><time>2026-04-22T15:49:21.999Z</time></trkpt><trkpt lat="34.247317926103165" lon="-6.517218651916815"><ele>13.5</ele><time>2026-04-22T15:49:22.999Z</time></trkpt><trkpt lat="34.24701662012672" lon="-6.517268799896926"><ele>15.0</ele><time>2026-04-22T15:49:23.999Z</time></trkpt><trkpt lat="34.24671084800019" lon="-6.517319263803989"><ele>14.5</ele><time>2026-04-22T15:49:24.999Z</time></trkpt><trkpt lat="34.246401764926695" lon="-6.517368528841254"><ele>14.0</ele><time>2026-04-22T15:49:25.999Z</time></trkpt><trkpt lat="34.246090595807594" lon="-6.5174150964833535"><ele>14.0</ele><time>2026-04-22T15:49:26.999Z</time></trkpt><trkpt lat="34.24577836320394" lon="-6.517459218444892"><ele>14.0</ele><time>2026-04-22T15:49:27.999Z</time></trkpt><trkpt lat="34.24546550899847" lon="-6.517503110689649"><ele>13.0</ele><time>2026-04-22T15:49:28.999Z</time></trkpt><trkpt lat="34.24515040940871" lon="-6.517549949644861"><ele>12.0</ele><time>2026-04-22T15:49:29.999Z</time></trkpt><trkpt lat="34.24483421603968" lon="-6.5175985149344795"><ele>11.5</ele><time>2026-04-22T15:49:30.999Z</time></trkpt><trkpt lat="34.24451705743555" lon="-6.517646804504469"><ele>11.0</ele><time>2026-04-22T15:49:31.999Z</time></trkpt><trkpt lat="34.24420226220111" lon="-6.51769347667169"><ele>10.5</ele><time>2026-04-22T15:49:32.999Z</time></trkpt><trkpt lat="34.24388637348425" lon="-6.517738975243852"><ele>10.0</ele><time>2026-04-22T15:49:33.999Z</time></trkpt><trkpt lat="34.24357005548513" lon="-6.5177855843027865"><ele>10.0</ele><time>2026-04-22T15:49:34.999Z</time></trkpt><trkpt lat="34.24325490252629" lon="-6.517833695673994"><ele>10.0</ele><time>2026-04-22T15:49:35.999Z</time></trkpt><trkpt lat="34.24294253346696" lon="-6.517881739792742"><ele>7.5</ele><time>2026-04-22T15:49:36.999Z</time></trkpt><trkpt lat="34.24262950153495" lon="-6.517930287548809"><ele>5.0</ele><time>2026-04-22T15:49:37.999Z</time></trkpt><trkpt lat="34.24231662740303" lon="-6.517981025659616"><ele>6.0</ele><time>2026-04-22T15:49:39Z</time></trkpt><trkpt lat="34.242004649028516" lon="-6.51803133001114"><ele>7.0</ele><time>2026-04-22T15:49:40Z</time></trkpt><trkpt lat="34.24169336432882" lon="-6.518079176337813"><ele>7.5</ele><time>2026-04-22T15:49:41Z</time></trkpt><trkpt lat="34.241383255470204" lon="-6.518125982106844"><ele>8.0</ele><time>2026-04-22T15:49:42Z</time></trkpt><trkpt lat="34.2410716598972" lon="-6.518171921239305"><ele>8.0</ele><time>2026-04-22T15:49:43Z</time></trkpt><trkpt lat="34.240761033190324" lon="-6.518219513767321"><ele>8.0</ele><time>2026-04-22T15:49:44Z</time></trkpt><trkpt lat="34.240451004030206" lon="-6.518268607032223"><ele>9.0</ele><time>2026-04-22T15:49:45Z</time></trkpt><trkpt lat="34.24013989566949" lon="-6.518318501726299"><ele>10.0</ele><time>2026-04-22T15:49:46Z</time></trkpt><trkpt lat="34.23982983481643" lon="-6.518369177474963"><ele>11.5</ele><time>2026-04-22T15:49:47Z</time></trkpt><trkpt lat="34.239520758238484" lon="-6.518418002624395"><ele>13.0</ele><time>2026-04-22T15:49:48Z</time></trkpt><trkpt lat="34.239210548752965" lon="-6.5184699324935895"><ele>13.5</ele><time>2026-04-22T15:49:49Z</time></trkpt><trkpt lat="34.238899509042824" lon="-6.518522743408914"><ele>14.0</ele><time>2026-04-22T15:49:50Z</time></trkpt><trkpt lat="34.238587683171346" lon="-6.518578229711525"><ele>14.0</ele><time>2026-04-22T15:49:51Z</time></trkpt><trkpt lat="34.238277090120484" lon="-6.5186350631818115"><ele>14.0</ele><time>2026-04-22T15:49:52Z</time></trkpt><trkpt lat="34.23796744698638" lon="-6.518693559180097"><ele>15.0</ele><time>2026-04-22T15:49:53Z</time></trkpt><trkpt lat="34.237656692669816" lon="-6.518753840434579"><ele>16.0</ele><time>2026-04-22T15:49:54Z</time></trkpt><trkpt lat="34.23734633724692" lon="-6.51881740816282"><ele>18.0</ele><time>2026-04-22T15:49:55Z</time></trkpt><trkpt lat="34.23703624959137" lon="-6.5188885470667115"><ele>20.0</ele><time>2026-04-22T15:49:56Z</time></trkpt><trkpt lat="34.236726959168486" lon="-6.518966143173855"><ele>20.5</ele><time>2026-04-22T15:49:57Z</time></trkpt><trkpt lat="34.23642088441256" lon="-6.519048269561652"><ele>21.0</ele><time>2026-04-22T15:49:58Z</time></trkpt><trkpt lat="34.236115523005566" lon="-6.51913622708765"><ele>21.0</ele><time>2026-04-22T15:49:59Z</time></trkpt><trkpt lat="34.23581097099503" lon="-6.519231078476962"><ele>21.0</ele><time>2026-04-22T15:50:00Z</time></trkpt><trkpt lat="34.235508365135786" lon="-6.519335586459236"><ele>21.0</ele><time>2026-04-22T15:50:01Z</time></trkpt><trkpt lat="34.23520696847653" lon="-6.519449111409539"><ele>21.0</ele><time>2026-04-22T15:50:02Z</time></trkpt><trkpt lat="34.234909346169474" lon="-6.5195739520644835"><ele>21.5</ele><time>2026-04-22T15:50:03Z</time></trkpt><trkpt lat="34.234614226417726" lon="-6.519705398457043"><ele>22.0</ele><time>2026-04-22T15:50:04Z</time></trkpt><trkpt lat="34.23432111778948" lon="-6.519841499581426"><ele>22.0</ele><time>2026-04-22T15:50:05Z</time></trkpt><trkpt lat="34.23403005890823" lon="-6.5199866728315135"><ele>22.0</ele><time>2026-04-22T15:50:06Z</time></trkpt><trkpt lat="34.23374266065499" lon="-6.520143445614474"><ele>22.5</ele><time>2026-04-22T15:50:07Z</time></trkpt><trkpt lat="34.233459787744366" lon="-6.520308148116328"><ele>23.0</ele><time>2026-04-22T15:50:08Z</time></trkpt><trkpt lat="34.2331796845924" lon="-6.52048143945544"><ele>23.0</ele><time>2026-04-22T15:50:09Z</time></trkpt><trkpt lat="34.232903504431036" lon="-6.520663579328461"><ele>23.0</ele><time>2026-04-22T15:50:10Z</time></trkpt><trkpt lat="34.232630538481686" lon="-6.520848407391664"><ele>23.0</ele><time>2026-04-22T15:50:11Z</time></trkpt><trkpt lat="34.23235954470836" lon="-6.521041563898354"><ele>23.0</ele><time>2026-04-22T15:50:12Z</time></trkpt><trkpt lat="34.23209225970034" lon="-6.521242044798332"><ele>25.0</ele><time>2026-04-22T15:50:13Z</time></trkpt><trkpt lat="34.231826547028106" lon="-6.521451176485545"><ele>27.0</ele><time>2026-04-22T15:50:14Z</time></trkpt><trkpt lat="34.23156862520969" lon="-6.521669652628484"><ele>26.0</ele><time>2026-04-22T15:50:15Z</time></trkpt><trkpt lat="34.2313276844597" lon="-6.521881603312073"><ele>25.0</ele><time>2026-04-22T15:50:16Z</time></trkpt><trkpt lat="34.231123839374746" lon="-6.522087508012267"><ele>24.5</ele><time>2026-04-22T15:50:17Z</time></trkpt><trkpt lat="34.230933404886194" lon="-6.52226671735358"><ele>24.0</ele><time>2026-04-22T15:50:18Z</time></trkpt><trkpt lat="34.23074886924835" lon="-6.522454517171149"><ele>25.5</ele><time>2026-04-22T15:50:19Z</time></trkpt><trkpt lat="34.230564880010085" lon="-6.522656368723725"><ele>27.0</ele><time>2026-04-22T15:50:20Z</time></trkpt><trkpt lat="34.23037717928793" lon="-6.522865746985602"><ele>27.0</ele><time>2026-04-22T15:50:21Z</time></trkpt><trkpt lat="34.23018898390782" lon="-6.523082505940139"><ele>27.0</ele><time>2026-04-22T15:50:22Z</time></trkpt><trkpt lat="34.23000246186833" lon="-6.5233047703349145"><ele>27.0</ele><time>2026-04-22T15:50:23Z</time></trkpt><trkpt lat="34.22981678310951" lon="-6.523533401724511"><ele>27.0</ele><time>2026-04-22T15:50:24Z</time></trkpt><trkpt lat="34.22963094557759" lon="-6.523770140142797"><ele>25.0</ele><time>2026-04-22T15:50:25Z</time></trkpt><trkpt lat="34.22944570117733" lon="-6.5240168322097425"><ele>23.0</ele><time>2026-04-22T15:50:26Z</time></trkpt><trkpt lat="34.22925947738255" lon="-6.52427050263673"><ele>23.0</ele><time>2026-04-22T15:50:27Z</time></trkpt><trkpt lat="34.22907545258496" lon="-6.524529585441245"><ele>23.0</ele><time>2026-04-22T15:50:28Z</time></trkpt><trkpt lat="34.22889852182234" lon="-6.524805385893545"><ele>25.0</ele><time>2026-04-22T15:50:29Z</time></trkpt><trkpt lat="34.22871854784269" lon="-6.525082827996086"><ele>27.0</ele><time>2026-04-22T15:50:30Z</time></trkpt><trkpt lat="34.228538610602996" lon="-6.525363014369529"><ele>27.0</ele><time>2026-04-22T15:50:31Z</time></trkpt><trkpt lat="34.2283616423396" lon="-6.52564344761537"><ele>27.0</ele><time>2026-04-22T15:50:32Z</time></trkpt><trkpt lat="34.22818403516126" lon="-6.525925240204994"><ele>27.5</ele><time>2026-04-22T15:50:33Z</time></trkpt><trkpt lat="34.22801041261047" lon="-6.52620691965971"><ele>28.0</ele><time>2026-04-22T15:50:34Z</time></trkpt><trkpt lat="34.227835290105" lon="-6.52649020190838"><ele>28.0</ele><time>2026-04-22T15:50:35Z</time></trkpt><trkpt lat="34.22766007097642" lon="-6.526771023196191"><ele>28.0</ele><time>2026-04-22T15:50:36Z</time></trkpt><trkpt lat="34.22748564770543" lon="-6.527048875275625"><ele>29.0</ele><time>2026-04-22T15:50:37Z</time></trkpt><trkpt lat="34.22730816269562" lon="-6.527324843610949"><ele>30.0</ele><time>2026-04-22T15:50:38Z</time></trkpt><trkpt lat="34.227132089153606" lon="-6.527599657415302"><ele>30.0</ele><time>2026-04-22T15:50:39Z</time></trkpt><trkpt lat="34.22695517697257" lon="-6.52787749887297"><ele>30.0</ele><time>2026-04-22T15:50:39.999Z</time></trkpt><trkpt lat="34.22677804174004" lon="-6.528155882726879"><ele>29.0</ele><time>2026-04-22T15:50:40.999Z</time></trkpt><trkpt lat="34.22660292583489" lon="-6.528434356584052"><ele>28.0</ele><time>2026-04-22T15:50:41.999Z</time></trkpt><trkpt lat="34.226432305823494" lon="-6.528710318159773"><ele>29.0</ele><time>2026-04-22T15:50:42.999Z</time></trkpt><trkpt lat="34.226262166592434" lon="-6.528986734045963"><ele>30.0</ele><time>2026-04-22T15:50:43.999Z</time></trkpt><trkpt lat="34.22609261384786" lon="-6.529260532961271"><ele>30.0</ele><time>2026-04-22T15:50:44.999Z</time></trkpt><trkpt lat="34.22592539640378" lon="-6.5295323706517685"><ele>30.0</ele><time>2026-04-22T15:50:45.999Z</time></trkpt><trkpt lat="34.22576974025666" lon="-6.529795266144384"><ele>31.5</ele><time>2026-04-22T15:50:46.999Z</time></trkpt><trkpt lat="34.22562133132363" lon="-6.530051409851942"><ele>33.0</ele><time>2026-04-22T15:50:47.999Z</time></trkpt><trkpt lat="34.225480331948425" lon="-6.530298900236936"><ele>33.5</ele><time>2026-04-22T15:50:48.999Z</time></trkpt><trkpt lat="34.22534510108319" lon="-6.530538662498867"><ele>34.0</ele><time>2026-04-22T15:50:49.999Z</time></trkpt><trkpt lat="34.22521478126576" lon="-6.530781282578721"><ele>34.0</ele><time>2026-04-22T15:50:50.999Z</time></trkpt><trkpt lat="34.22508516913018" lon="-6.531025883728566"><ele>34.0</ele><time>2026-04-22T15:50:51.999Z</time></trkpt><trkpt lat="34.224958334152944" lon="-6.531272596145651"><ele>34.5</ele><time>2026-04-22T15:50:52.999Z</time></trkpt><trkpt lat="34.22483512625365" lon="-6.531526956816261"><ele>35.0</ele><time>2026-04-22T15:50:53.999Z</time></trkpt><trkpt lat="34.22471693015139" lon="-6.531784691451473"><ele>37.0</ele><time>2026-04-22T15:50:54.999Z</time></trkpt><trkpt lat="34.22460301342364" lon="-6.532044226159104"><ele>39.0</ele><time>2026-04-22T15:50:55.999Z</time></trkpt><trkpt lat="34.22449197589764" lon="-6.532306018898444"><ele>39.0</ele><time>2026-04-22T15:50:56.999Z</time></trkpt><trkpt lat="34.22438031002514" lon="-6.53257091271043"><ele>39.0</ele><time>2026-04-22T15:50:57.999Z</time></trkpt><trkpt lat="34.22426905105856" lon="-6.532837911547114"><ele>40.5</ele><time>2026-04-22T15:50:58.999Z</time></trkpt><trkpt lat="34.22416376319172" lon="-6.533110048841081"><ele>42.0</ele><time>2026-04-22T15:50:59.999Z</time></trkpt><trkpt lat="34.22406244732661" lon="-6.533387547384882"><ele>44.0</ele><time>2026-04-22T15:51:00.999Z</time></trkpt><trkpt lat="34.22396341545898" lon="-6.533669397320051"><ele>46.0</ele><time>2026-04-22T15:51:01.999Z</time></trkpt><trkpt lat="34.22386718436781" lon="-6.533957584730584"><ele>46.0</ele><time>2026-04-22T15:51:02.999Z</time></trkpt><trkpt lat="34.22377688335098" lon="-6.53425624288892"><ele>46.0</ele><time>2026-04-22T15:51:03.999Z</time></trkpt><trkpt lat="34.223692259094115" lon="-6.534567668647148"><ele>46.0</ele><time>2026-04-22T15:51:04.999Z</time></trkpt><trkpt lat="34.22360931732521" lon="-6.534887377809436"><ele>46.0</ele><time>2026-04-22T15:51:05.999Z</time></trkpt><trkpt lat="34.223527809030166" lon="-6.53521476193821"><ele>45.0</ele><time>2026-04-22T15:51:06.999Z</time></trkpt><trkpt lat="34.22345765790581" lon="-6.5355502024792145"><ele>44.0</ele><time>2026-04-22T15:51:07.999Z</time></trkpt><trkpt lat="34.22338762939568" lon="-6.535886712696447"><ele>43.0</ele><time>2026-04-22T15:51:08.999Z</time></trkpt><trkpt lat="34.22331477251794" lon="-6.536224789585412"><ele>42.0</ele><time>2026-04-22T15:51:09.999Z</time></trkpt><trkpt lat="34.22324942185249" lon="-6.536561798845694"><ele>42.0</ele><time>2026-04-22T15:51:10.999Z</time></trkpt><trkpt lat="34.22319573736306" lon="-6.536893266252121"><ele>42.0</ele><time>2026-04-22T15:51:11.999Z</time></trkpt><trkpt lat="34.22314988450065" lon="-6.537219758859575"><ele>43.5</ele><time>2026-04-22T15:51:12.999Z</time></trkpt><trkpt lat="34.2231116318543" lon="-6.537541033409662"><ele>45.0</ele><time>2026-04-22T15:51:13.999Z</time></trkpt><trkpt lat="34.22308362763915" lon="-6.537858218182649"><ele>46.5</ele><time>2026-04-22T15:51:14.999Z</time></trkpt><trkpt lat="34.22305876310147" lon="-6.538173035143339"><ele>48.0</ele><time>2026-04-22T15:51:15.999Z</time></trkpt><trkpt lat="34.22303664957065" lon="-6.538490794426319"><ele>47.0</ele><time>2026-04-22T15:51:16.999Z</time></trkpt><trkpt lat="34.223020184235004" lon="-6.538810179792819"><ele>46.0</ele><time>2026-04-22T15:51:17.999Z</time></trkpt><trkpt lat="34.22300833140164" lon="-6.539130299303949"><ele>46.0</ele><time>2026-04-22T15:51:18.999Z</time></trkpt><trkpt lat="34.222997809664676" lon="-6.539452738737378"><ele>46.0</ele><time>2026-04-22T15:51:19.999Z</time></trkpt><trkpt lat="34.22299430025211" lon="-6.539771431058166"><ele>47.0</ele><time>2026-04-22T15:51:20.999Z</time></trkpt><trkpt lat="34.223001065866555" lon="-6.540077362315109"><ele>48.0</ele><time>2026-04-22T15:51:21.999Z</time></trkpt><trkpt lat="34.223009070854566" lon="-6.540378569817018"><ele>49.0</ele><time>2026-04-22T15:51:22.999Z</time></trkpt><trkpt lat="34.2230233019793" lon="-6.540685663962936"><ele>50.0</ele><time>2026-04-22T15:51:23.999Z</time></trkpt><trkpt lat="34.223038682812046" lon="-6.540992981650019"><ele>49.0</ele><time>2026-04-22T15:51:24.999Z</time></trkpt><trkpt lat="34.223061688254504" lon="-6.541300965187583"><ele>48.0</ele><time>2026-04-22T15:51:25.999Z</time></trkpt><trkpt lat="34.22309234442859" lon="-6.541610387361396"><ele>48.0</ele><time>2026-04-22T15:51:26.999Z</time></trkpt><trkpt lat="34.22312755012777" lon="-6.5419192480187895"><ele>48.0</ele><time>2026-04-22T15:51:27.999Z</time></trkpt><trkpt lat="34.22316650407064" lon="-6.542230410733306"><ele>48.5</ele><time>2026-04-22T15:51:28.999Z</time></trkpt><trkpt lat="34.22321120038694" lon="-6.542540618029872"><ele>49.0</ele><time>2026-04-22T15:51:29.999Z</time></trkpt><trkpt lat="34.22325836307347" lon="-6.542849698378959"><ele>49.5</ele><time>2026-04-22T15:51:30.999Z</time></trkpt><trkpt lat="34.22330931907047" lon="-6.543157767289063"><ele>50.0</ele><time>2026-04-22T15:51:31.999Z</time></trkpt><trkpt lat="34.223369816248855" lon="-6.543467597435151"><ele>49.5</ele><time>2026-04-22T15:51:32.999Z</time></trkpt><trkpt lat="34.2234404767049" lon="-6.543782637149359"><ele>49.0</ele><time>2026-04-22T15:51:33.999Z</time></trkpt><trkpt lat="34.22351624082066" lon="-6.544100893383546"><ele>49.0</ele><time>2026-04-22T15:51:34.999Z</time></trkpt><trkpt lat="34.22359346355814" lon="-6.5444204984239125"><ele>49.0</ele><time>2026-04-22T15:51:35.999Z</time></trkpt><trkpt lat="34.22367739219241" lon="-6.544739254456468"><ele>50.0</ele><time>2026-04-22T15:51:36.999Z</time></trkpt><trkpt lat="34.2237697272103" lon="-6.545056450529908"><ele>51.0</ele><time>2026-04-22T15:51:37.999Z</time></trkpt><trkpt lat="34.223866602808876" lon="-6.5453714449345055"><ele>50.0</ele><time>2026-04-22T15:51:38.999Z</time></trkpt><trkpt lat="34.2239667762268" lon="-6.545688467499471"><ele>49.0</ele><time>2026-04-22T15:51:39.999Z</time></trkpt><trkpt lat="34.22407408271293" lon="-6.546008801292709"><ele>50.0</ele><time>2026-04-22T15:51:40.999Z</time></trkpt><trkpt lat="34.224186471446004" lon="-6.546330236992497"><ele>51.0</ele><time>2026-04-22T15:51:41.999Z</time></trkpt><trkpt lat="34.22430256010518" lon="-6.546652844142494"><ele>51.0</ele><time>2026-04-22T15:51:42.999Z</time></trkpt><trkpt lat="34.22442016109654" lon="-6.546974277038107"><ele>51.0</ele><time>2026-04-22T15:51:43.999Z</time></trkpt><trkpt lat="34.22454137405457" lon="-6.547297035156741"><ele>51.5</ele><time>2026-04-22T15:51:45Z</time></trkpt><trkpt lat="34.224663262691955" lon="-6.547618107675279"><ele>52.0</ele><time>2026-04-22T15:51:46Z</time></trkpt><trkpt lat="34.22478572809556" lon="-6.547940162246577"><ele>50.5</ele><time>2026-04-22T15:51:47Z</time></trkpt><trkpt lat="34.22490861545074" lon="-6.548263987849027"><ele>49.0</ele><time>2026-04-22T15:51:48Z</time></trkpt><trkpt lat="34.225030375324124" lon="-6.548588970552597"><ele>48.5</ele><time>2026-04-22T15:51:49Z</time></trkpt><trkpt lat="34.22515086827132" lon="-6.548914195091009"><ele>48.0</ele><time>2026-04-22T15:51:50Z</time></trkpt><trkpt lat="34.2252747341314" lon="-6.549240097184985"><ele>50.0</ele><time>2026-04-22T15:51:51Z</time></trkpt><trkpt lat="34.22540143825666" lon="-6.549569424764851"><ele>52.0</ele><time>2026-04-22T15:51:52Z</time></trkpt><trkpt lat="34.22552949376666" lon="-6.549903501132149"><ele>49.5</ele><time>2026-04-22T15:51:53Z</time></trkpt><trkpt lat="34.22565566866724" lon="-6.550236348439185"><ele>47.0</ele><time>2026-04-22T15:51:54Z</time></trkpt><trkpt lat="34.225783358749915" lon="-6.550567891520543"><ele>47.5</ele><time>2026-04-22T15:51:55Z</time></trkpt><trkpt lat="34.22591148712967" lon="-6.550898806680762"><ele>48.0</ele><time>2026-04-22T15:51:56Z</time></trkpt><trkpt lat="34.226035267787324" lon="-6.551225488317648"><ele>48.0</ele><time>2026-04-22T15:51:57Z</time></trkpt><trkpt lat="34.226160743321486" lon="-6.55155296915132"><ele>48.0</ele><time>2026-04-22T15:51:58Z</time></trkpt><trkpt lat="34.22628677931423" lon="-6.551882055338536"><ele>48.5</ele><time>2026-04-22T15:51:59Z</time></trkpt><trkpt lat="34.22641482820572" lon="-6.552210594485784"><ele>49.0</ele><time>2026-04-22T15:52:00Z</time></trkpt><trkpt lat="34.22653912828196" lon="-6.552535639031735"><ele>49.0</ele><time>2026-04-22T15:52:01Z</time></trkpt><trkpt lat="34.22666061112883" lon="-6.552859579575359"><ele>49.0</ele><time>2026-04-22T15:52:02Z</time></trkpt><trkpt lat="34.22678399925142" lon="-6.553184067298171"><ele>48.5</ele><time>2026-04-22T15:52:03Z</time></trkpt><trkpt lat="34.22690677689463" lon="-6.553509071734353"><ele>48.0</ele><time>2026-04-22T15:52:04Z</time></trkpt><trkpt lat="34.22702971234399" lon="-6.553837375624011"><ele>48.0</ele><time>2026-04-22T15:52:05Z</time></trkpt><trkpt lat="34.22715582603233" lon="-6.55416726034513"><ele>48.0</ele><time>2026-04-22T15:52:06Z</time></trkpt><trkpt lat="34.227282081360514" lon="-6.5544978941547605"><ele>46.0</ele><time>2026-04-22T15:52:07Z</time></trkpt><trkpt lat="34.227408470701526" lon="-6.554830035536929"><ele>44.0</ele><time>2026-04-22T15:52:08Z</time></trkpt><trkpt lat="34.22753590502618" lon="-6.555163291505693"><ele>44.5</ele><time>2026-04-22T15:52:09Z</time></trkpt><trkpt lat="34.227664863529206" lon="-6.55549962469916"><ele>45.0</ele><time>2026-04-22T15:52:10Z</time></trkpt><trkpt lat="34.227791683397065" lon="-6.555835692753488"><ele>45.0</ele><time>2026-04-22T15:52:11Z</time></trkpt><trkpt lat="34.22792060140135" lon="-6.5561752824703055"><ele>45.0</ele><time>2026-04-22T15:52:12Z</time></trkpt><trkpt lat="34.22805064547674" lon="-6.556515417633237"><ele>45.0</ele><time>2026-04-22T15:52:13Z</time></trkpt><trkpt lat="34.2281810177305" lon="-6.556855634179707"><ele>45.0</ele><time>2026-04-22T15:52:14Z</time></trkpt><trkpt lat="34.228314464336506" lon="-6.557197528413973"><ele>44.5</ele><time>2026-04-22T15:52:15Z</time></trkpt><trkpt lat="34.22845274293137" lon="-6.557541332826433"><ele>44.0</ele><time>2026-04-22T15:52:16Z</time></trkpt><trkpt lat="34.22859057782381" lon="-6.557886246909945"><ele>43.0</ele><time>2026-04-22T15:52:17Z</time></trkpt><trkpt lat="34.228724690162906" lon="-6.5582338831696765"><ele>42.0</ele><time>2026-04-22T15:52:18Z</time></trkpt><trkpt lat="34.228854217310705" lon="-6.558583669202235"><ele>43.0</ele><time>2026-04-22T15:52:19Z</time></trkpt><trkpt lat="34.22897927836798" lon="-6.5589387940789505"><ele>44.0</ele><time>2026-04-22T15:52:20Z</time></trkpt><trkpt lat="34.22909903648715" lon="-6.559296497115173"><ele>42.0</ele><time>2026-04-22T15:52:21Z</time></trkpt><trkpt lat="34.22921152505825" lon="-6.559652709727184"><ele>40.0</ele><time>2026-04-22T15:52:22Z</time></trkpt><trkpt lat="34.229319786221566" lon="-6.560008580939498"><ele>40.0</ele><time>2026-04-22T15:52:23Z</time></trkpt><trkpt lat="34.22942297173273" lon="-6.560364919027558"><ele>40.0</ele><time>2026-04-22T15:52:24Z</time></trkpt><trkpt lat="34.229519206470975" lon="-6.560725086051926"><ele>41.0</ele><time>2026-04-22T15:52:25Z</time></trkpt><trkpt lat="34.229609565396295" lon="-6.561088232215355"><ele>42.0</ele><time>2026-04-22T15:52:26Z</time></trkpt><trkpt lat="34.22969459894145" lon="-6.561454143244878"><ele>42.0</ele><time>2026-04-22T15:52:27Z</time></trkpt><trkpt lat="34.22977548633113" lon="-6.561825361536344"><ele>42.0</ele><time>2026-04-22T15:52:28Z</time></trkpt><trkpt lat="34.22985076735282" lon="-6.562199040856666"><ele>41.0</ele><time>2026-04-22T15:52:29Z</time></trkpt><trkpt lat="34.229919736832535" lon="-6.562574882471919"><ele>40.0</ele><time>2026-04-22T15:52:30Z</time></trkpt><trkpt lat="34.22998126237328" lon="-6.562949319430533"><ele>40.0</ele><time>2026-04-22T15:52:31Z</time></trkpt><trkpt lat="34.230035743661276" lon="-6.563325121872997"><ele>40.0</ele><time>2026-04-22T15:52:32Z</time></trkpt><trkpt lat="34.23008154236133" lon="-6.563697940602586"><ele>39.5</ele><time>2026-04-22T15:52:33Z</time></trkpt><trkpt lat="34.23012260327946" lon="-6.564078450266146"><ele>39.0</ele><time>2026-04-22T15:52:34Z</time></trkpt><trkpt lat="34.23015775565427" lon="-6.564457810299192"><ele>39.0</ele><time>2026-04-22T15:52:35Z</time></trkpt><trkpt lat="34.23018671318022" lon="-6.56483306884845"><ele>39.0</ele><time>2026-04-22T15:52:36Z</time></trkpt><trkpt lat="34.23020952430013" lon="-6.5652067322165255"><ele>40.0</ele><time>2026-04-22T15:52:37Z</time></trkpt><trkpt lat="34.23022664915458" lon="-6.56557998329385"><ele>41.0</ele><time>2026-04-22T15:52:38Z</time></trkpt><trkpt lat="34.23023701730973" lon="-6.565950650259182"><ele>40.5</ele><time>2026-04-22T15:52:39Z</time></trkpt><trkpt lat="34.230236590348326" lon="-6.566313659091305"><ele>40.0</ele><time>2026-04-22T15:52:40Z</time></trkpt><trkpt lat="34.23022922359553" lon="-6.566672473405424"><ele>39.5</ele><time>2026-04-22T15:52:41Z</time></trkpt><trkpt lat="34.230219048807044" lon="-6.567028122104485"><ele>39.0</ele><time>2026-04-22T15:52:42Z</time></trkpt><trkpt lat="34.230207944379764" lon="-6.567373768026209"><ele>39.0</ele><time>2026-04-22T15:52:43Z</time></trkpt><trkpt lat="34.230196903895276" lon="-6.567701547953447"><ele>39.0</ele><time>2026-04-22T15:52:43.999Z</time></trkpt><trkpt lat="34.23018426032404" lon="-6.568027383578244"><ele>38.0</ele><time>2026-04-22T15:52:44.999Z</time></trkpt><trkpt lat="34.23017902605665" lon="-6.568360528523236"><ele>37.0</ele><time>2026-04-22T15:52:45.999Z</time></trkpt><trkpt lat="34.230173311996815" lon="-6.568700928718663"><ele>35.5</ele><time>2026-04-22T15:52:46.999Z</time></trkpt><trkpt lat="34.230167821918144" lon="-6.56904470744355"><ele>34.0</ele><time>2026-04-22T15:52:47.999Z</time></trkpt><trkpt lat="34.23015925209" lon="-6.569385272990266"><ele>35.5</ele><time>2026-04-22T15:52:48.999Z</time></trkpt><trkpt lat="34.23015132714845" lon="-6.569721405537352"><ele>37.0</ele><time>2026-04-22T15:52:49.999Z</time></trkpt><trkpt lat="34.230146405927194" lon="-6.57004937059414"><ele>38.0</ele><time>2026-04-22T15:52:50.999Z</time></trkpt><trkpt lat="34.23013940181816" lon="-6.570376454252268"><ele>39.0</ele><time>2026-04-22T15:52:51.999Z</time></trkpt><trkpt lat="34.230132566894106" lon="-6.570705516379853"><ele>39.0</ele><time>2026-04-22T15:52:52.999Z</time></trkpt><trkpt lat="34.23012726246777" lon="-6.571040192098085"><ele>39.0</ele><time>2026-04-22T15:52:53.999Z</time></trkpt><trkpt lat="34.23012282905617" lon="-6.5713763569690835"><ele>39.5</ele><time>2026-04-22T15:52:54.999Z</time></trkpt><trkpt lat="34.23011749417664" lon="-6.571710608922255"><ele>40.0</ele><time>2026-04-22T15:52:55.999Z</time></trkpt><trkpt lat="34.230111172868455" lon="-6.572040854115611"><ele>40.0</ele><time>2026-04-22T15:52:56.999Z</time></trkpt><trkpt lat="34.23010584289033" lon="-6.572364875875096"><ele>40.0</ele><time>2026-04-22T15:52:57.999Z</time></trkpt><trkpt lat="34.23010099190218" lon="-6.572685840600815"><ele>39.5</ele><time>2026-04-22T15:52:58.999Z</time></trkpt><trkpt lat="34.23009626850254" lon="-6.57300104922939"><ele>39.0</ele><time>2026-04-22T15:52:59.999Z</time></trkpt><trkpt lat="34.230090429406296" lon="-6.573310931730078"><ele>39.0</ele><time>2026-04-22T15:53:00.999Z</time></trkpt><trkpt lat="34.2300859900489" lon="-6.573619390517294"><ele>39.0</ele><time>2026-04-22T15:53:01.999Z</time></trkpt><trkpt lat="34.230083757924994" lon="-6.573927783830067"><ele>37.0</ele><time>2026-04-22T15:53:02.999Z</time></trkpt><trkpt lat="34.23008325591789" lon="-6.574237861636734"><ele>35.0</ele><time>2026-04-22T15:53:03.999Z</time></trkpt><trkpt lat="34.23008335082158" lon="-6.5745478861469815"><ele>34.0</ele><time>2026-04-22T15:53:04.999Z</time></trkpt><trkpt lat="34.23008290586197" lon="-6.574855376662573"><ele>33.0</ele><time>2026-04-22T15:53:05.999Z</time></trkpt><trkpt lat="34.23008330666248" lon="-6.5751564933638225"><ele>33.0</ele><time>2026-04-22T15:53:06.999Z</time></trkpt><trkpt lat="34.23008357531231" lon="-6.575451536647293"><ele>33.0</ele><time>2026-04-22T15:53:07.999Z</time></trkpt><trkpt lat="34.230078486598856" lon="-6.575738237841594"><ele>33.0</ele><time>2026-04-22T15:53:08.999Z</time></trkpt><trkpt lat="34.230076504105746" lon="-6.576024754586433"><ele>33.0</ele><time>2026-04-22T15:53:09.999Z</time></trkpt><trkpt lat="34.23007214331437" lon="-6.576300801696319"><ele>33.0</ele><time>2026-04-22T15:53:10.999Z</time></trkpt><trkpt lat="34.23006713513814" lon="-6.576565551456942"><ele>33.0</ele><time>2026-04-22T15:53:11.999Z</time></trkpt><trkpt lat="34.23006196956924" lon="-6.5768293441121415"><ele>33.0</ele><time>2026-04-22T15:53:12.999Z</time></trkpt><trkpt lat="34.230052162304666" lon="-6.5770872665141304"><ele>34.0</ele><time>2026-04-22T15:53:13.999Z</time></trkpt><trkpt lat="34.23004478214805" lon="-6.577334813100071"><ele>35.0</ele><time>2026-04-22T15:53:14.999Z</time></trkpt><trkpt lat="34.23004114643402" lon="-6.577573403310864"><ele>36.0</ele><time>2026-04-22T15:53:15.999Z</time></trkpt><trkpt lat="34.23003618926841" lon="-6.577807986073248"><ele>37.666666666666664</ele><time>2026-04-22T15:53:16.999Z</time></trkpt><trkpt lat="34.23003031574552" lon="-6.5780441484292895"><ele>39.33333333333333</ele><time>2026-04-22T15:53:17.999Z</time></trkpt><trkpt lat="34.23002470923033" lon="-6.5782792057515955"><ele>41.0</ele><time>2026-04-22T15:53:18.999Z</time></trkpt><trkpt lat="34.230018168386785" lon="-6.578508886681954"><ele>40.0</ele><time>2026-04-22T15:53:19.999Z</time></trkpt><trkpt lat="34.23001498042487" lon="-6.578731893124776"><ele>39.0</ele><time>2026-04-22T15:53:20.999Z</time></trkpt><trkpt lat="34.23001265394415" lon="-6.578950282719405"><ele>38.0</ele><time>2026-04-22T15:53:21.999Z</time></trkpt><trkpt lat="34.230012467064995" lon="-6.579163638363859"><ele>38.0</ele><time>2026-04-22T15:53:22.999Z</time></trkpt><trkpt lat="34.23001178793661" lon="-6.5793645954166164"><ele>38.0</ele><time>2026-04-22T15:53:23.999Z</time></trkpt><trkpt lat="34.23000739828565" lon="-6.57955879012427"><ele>38.0</ele><time>2026-04-22T15:53:24.999Z</time></trkpt><trkpt lat="34.23000123491178" lon="-6.579748584941203"><ele>38.0</ele><time>2026-04-22T15:53:25.999Z</time></trkpt><trkpt lat="34.22999649472989" lon="-6.579940925851531"><ele>38.0</ele><time>2026-04-22T15:53:26.999Z</time></trkpt><trkpt lat="34.22999337170067" lon="-6.58013495253634"><ele>38.0</ele><time>2026-04-22T15:53:27.999Z</time></trkpt><trkpt lat="34.22999306945856" lon="-6.580328250832865"><ele>38.25</ele><time>2026-04-22T15:53:28.999Z</time></trkpt><trkpt lat="34.2299918284959" lon="-6.580510714230452"><ele>38.5</ele><time>2026-04-22T15:53:29.999Z</time></trkpt><trkpt lat="34.229991916630574" lon="-6.580683899718689"><ele>38.75</ele><time>2026-04-22T15:53:30.999Z</time></trkpt><trkpt lat="34.22999086558416" lon="-6.580848934455921"><ele>39.0</ele><time>2026-04-22T15:53:31.999Z</time></trkpt><trkpt lat="34.229987154551246" lon="-6.581005033916395"><ele>39.0</ele><time>2026-04-22T15:53:32.999Z</time></trkpt><trkpt lat="34.22998363041133" lon="-6.5811482573128695"><ele>39.0</ele><time>2026-04-22T15:53:33.999Z</time></trkpt><trkpt lat="34.22998338153117" lon="-6.581272149118651"><ele>39.0</ele><time>2026-04-22T15:53:34.999Z</time></trkpt><trkpt lat="34.22998241787397" lon="-6.581375704233883"><ele>39.0</ele><time>2026-04-22T15:53:35.999Z</time></trkpt><trkpt lat="34.22997924629678" lon="-6.581461464826128"><ele>39.0</ele><time>2026-04-22T15:53:36.999Z</time></trkpt><trkpt lat="34.22997176163204" lon="-6.581584321557256"><ele>39.57142857142858</ele><time>2026-04-22T15:53:38.999Z</time></trkpt><trkpt lat="34.22996875825397" lon="-6.581669256296336"><ele>40.14285714285714</ele><time>2026-04-22T15:53:41.999Z</time></trkpt><trkpt lat="34.22996616669954" lon="-6.581753894176639"><ele>40.714285714285715</ele><time>2026-04-22T15:53:47.999Z</time></trkpt><trkpt lat="34.22995509425444" lon="-6.5818293669533166"><ele>41.28571428571429</ele><time>2026-04-22T15:54:07Z</time></trkpt><trkpt lat="34.22995863590619" lon="-6.581910622371588"><ele>41.85714285714286</ele><time>2026-04-22T15:54:23Z</time></trkpt><trkpt lat="34.22997115840446" lon="-6.581992392010479"><ele>42.42857142857143</ele><time>2026-04-22T15:55:39.999Z</time></trkpt><trkpt lat="34.22997120313202" lon="-6.582074247490055"><ele>43.0</ele><time>2026-04-22T15:55:42.999Z</time></trkpt><trkpt lat="34.229937977222626" lon="-6.582155066694335"><ele>43.0</ele><time>2026-04-22T15:55:45.999Z</time></trkpt><trkpt lat="34.22993701688692" lon="-6.582244086549989"><ele>43.0</ele><time>2026-04-22T15:56:14Z</time></trkpt><trkpt lat="34.22993568723178" lon="-6.582367340693493"><ele>43.0</ele><time>2026-04-22T15:56:16Z</time></trkpt><trkpt lat="34.2299348300482" lon="-6.582446798364007"><ele>43.0</ele><time>2026-04-22T15:56:17Z</time></trkpt><trkpt lat="34.22993387833115" lon="-6.582535018889686"><ele>43.0</ele><time>2026-04-22T15:56:18Z</time></trkpt><trkpt lat="34.22994868728637" lon="-6.582624572729327"><ele>43.0</ele><time>2026-04-22T15:56:19Z</time></trkpt><trkpt lat="34.22994615878941" lon="-6.582707029477249"><ele>43.0</ele><time>2026-04-22T15:56:20Z</time></trkpt><trkpt lat="34.22994252701057" lon="-6.58283565581508"><ele>43.0</ele><time>2026-04-22T15:56:22Z</time></trkpt><trkpt lat="34.229940768367385" lon="-6.582945703300121"><ele>43.0</ele><time>2026-04-22T15:56:24Z</time></trkpt><trkpt lat="34.22994055180662" lon="-6.583061437892359"><ele>43.0</ele><time>2026-04-22T15:56:26Z</time></trkpt><trkpt lat="34.229938378647816" lon="-6.5832060250436335"><ele>43.0</ele><time>2026-04-22T15:56:28Z</time></trkpt><trkpt lat="34.22993189472319" lon="-6.583297012900276"><ele>43.0</ele><time>2026-04-22T15:56:29Z</time></trkpt><trkpt lat="34.229922226014274" lon="-6.58339379146625"><ele>43.0</ele><time>2026-04-22T15:56:30Z</time></trkpt><trkpt lat="34.22991111572996" lon="-6.583504621862918"><ele>43.0</ele><time>2026-04-22T15:56:31Z</time></trkpt><trkpt lat="34.229902408469044" lon="-6.583619506426601"><ele>43.0</ele><time>2026-04-22T15:56:32Z</time></trkpt><trkpt lat="34.22989569014559" lon="-6.583749522728204"><ele>43.0</ele><time>2026-04-22T15:56:33Z</time></trkpt><trkpt lat="34.22988665556969" lon="-6.583888135708099"><ele>43.75</ele><time>2026-04-22T15:56:34Z</time></trkpt><trkpt lat="34.22987879769204" lon="-6.58403828885125"><ele>44.5</ele><time>2026-04-22T15:56:35Z</time></trkpt><trkpt lat="34.22987457689009" lon="-6.584199864385617"><ele>45.25</ele><time>2026-04-22T15:56:36Z</time></trkpt><trkpt lat="34.22987279051399" lon="-6.584374806565106"><ele>46.0</ele><time>2026-04-22T15:56:37Z</time></trkpt><trkpt lat="34.22987139208143" lon="-6.584559628328566"><ele>46.66666666666667</ele><time>2026-04-22T15:56:38Z</time></trkpt><trkpt lat="34.22987137369414" lon="-6.584755945144731"><ele>47.333333333333336</ele><time>2026-04-22T15:56:39Z</time></trkpt><trkpt lat="34.22986928229422" lon="-6.584961486055871"><ele>48.0</ele><time>2026-04-22T15:56:40Z</time></trkpt><trkpt lat="34.229866334178595" lon="-6.58517769711146"><ele>48.0</ele><time>2026-04-22T15:56:41Z</time></trkpt><trkpt lat="34.229864357746884" lon="-6.585397392561568"><ele>48.0</ele><time>2026-04-22T15:56:42Z</time></trkpt><trkpt lat="34.22986457600765" lon="-6.585620133907043"><ele>48.0</ele><time>2026-04-22T15:56:43Z</time></trkpt><trkpt lat="34.2298639720979" lon="-6.585848256633133"><ele>48.0</ele><time>2026-04-22T15:56:44Z</time></trkpt><trkpt lat="34.22986512814894" lon="-6.586090604746355"><ele>48.0</ele><time>2026-04-22T15:56:45Z</time></trkpt><trkpt lat="34.2298655686375" lon="-6.5863411984127165"><ele>48.0</ele><time>2026-04-22T15:56:46Z</time></trkpt><trkpt lat="34.22986519383873" lon="-6.586601808941333"><ele>48.33333333333333</ele><time>2026-04-22T15:56:47Z</time></trkpt><trkpt lat="34.229863819948946" lon="-6.586867322451684"><ele>48.666666666666664</ele><time>2026-04-22T15:56:48Z</time></trkpt><trkpt lat="34.22985922619127" lon="-6.587134334864807"><ele>49.0</ele><time>2026-04-22T15:56:49Z</time></trkpt><trkpt lat="34.2298555990045" lon="-6.587407837884411"><ele>49.0</ele><time>2026-04-22T15:56:50Z</time></trkpt><trkpt lat="34.22985262737166" lon="-6.587685777914533"><ele>49.0</ele><time>2026-04-22T15:56:51Z</time></trkpt><trkpt lat="34.22984702697139" lon="-6.587969805762897"><ele>49.5</ele><time>2026-04-22T15:56:52Z</time></trkpt><trkpt lat="34.22983651842547" lon="-6.5882577612982995"><ele>50.0</ele><time>2026-04-22T15:56:53Z</time></trkpt><trkpt lat="34.229825540158096" lon="-6.588551332564349"><ele>50.0</ele><time>2026-04-22T15:56:54Z</time></trkpt><trkpt lat="34.229808928944735" lon="-6.588848615245285"><ele>50.0</ele><time>2026-04-22T15:56:55Z</time></trkpt><trkpt lat="34.22978669611515" lon="-6.589148202141292"><ele>51.5</ele><time>2026-04-22T15:56:56Z</time></trkpt><trkpt lat="34.22976123576726" lon="-6.5894455150192375"><ele>53.0</ele><time>2026-04-22T15:56:57Z</time></trkpt><trkpt lat="34.22973369148658" lon="-6.589740007019639"><ele>53.0</ele><time>2026-04-22T15:56:58Z</time></trkpt><trkpt lat="34.22970268780094" lon="-6.590031858496966"><ele>53.0</ele><time>2026-04-22T15:56:59Z</time></trkpt><trkpt lat="34.229667357973064" lon="-6.59032020944724"><ele>49.5</ele><time>2026-04-22T15:57:00Z</time></trkpt><trkpt lat="34.22962826872868" lon="-6.590598475597888"><ele>46.0</ele><time>2026-04-22T15:57:01Z</time></trkpt><trkpt lat="34.22958526476544" lon="-6.590865199622757"><ele>46.0</ele><time>2026-04-22T15:57:02Z</time></trkpt><trkpt lat="34.22954020963867" lon="-6.59112512809055"><ele>46.0</ele><time>2026-04-22T15:57:03Z</time></trkpt><trkpt lat="34.22949377754421" lon="-6.591384995846689"><ele>46.0</ele><time>2026-04-22T15:57:04Z</time></trkpt><trkpt lat="34.229443768312095" lon="-6.591649249672456"><ele>44.5</ele><time>2026-04-22T15:57:05Z</time></trkpt><trkpt lat="34.22938697085832" lon="-6.591920436608076"><ele>43.0</ele><time>2026-04-22T15:57:06Z</time></trkpt><trkpt lat="34.229327857546934" lon="-6.592193079264194"><ele>43.0</ele><time>2026-04-22T15:57:07Z</time></trkpt><trkpt lat="34.229265059811866" lon="-6.592468368075535"><ele>43.0</ele><time>2026-04-22T15:57:08Z</time></trkpt><trkpt lat="34.229199742788985" lon="-6.592748228335175"><ele>42.5</ele><time>2026-04-22T15:57:09Z</time></trkpt><trkpt lat="34.22912989998938" lon="-6.5930275640561735"><ele>42.0</ele><time>2026-04-22T15:57:10Z</time></trkpt><trkpt lat="34.2290601203406" lon="-6.593312088062542"><ele>42.0</ele><time>2026-04-22T15:57:11Z</time></trkpt><trkpt lat="34.228983699265854" lon="-6.593599747301023"><ele>42.0</ele><time>2026-04-22T15:57:12Z</time></trkpt><trkpt lat="34.22890156121235" lon="-6.593883646188714"><ele>42.5</ele><time>2026-04-22T15:57:13Z</time></trkpt><trkpt lat="34.22881737288631" lon="-6.594163025978531"><ele>43.0</ele><time>2026-04-22T15:57:14Z</time></trkpt><trkpt lat="34.228730063909296" lon="-6.594440299045776"><ele>43.5</ele><time>2026-04-22T15:57:15Z</time></trkpt><trkpt lat="34.22864006930147" lon="-6.594714096406084"><ele>44.0</ele><time>2026-04-22T15:57:16Z</time></trkpt><trkpt lat="34.22854622942629" lon="-6.594984863859807"><ele>44.0</ele><time>2026-04-22T15:57:17Z</time></trkpt><trkpt lat="34.2284480881676" lon="-6.59525462101636"><ele>44.0</ele><time>2026-04-22T15:57:17.999Z</time></trkpt><trkpt lat="34.22834579838977" lon="-6.595524840650464"><ele>44.0</ele><time>2026-04-22T15:57:18.999Z</time></trkpt><trkpt lat="34.22823977917249" lon="-6.595800215822609"><ele>44.0</ele><time>2026-04-22T15:57:19.999Z</time></trkpt><trkpt lat="34.228125313433736" lon="-6.596075685495646"><ele>42.0</ele><time>2026-04-22T15:57:20.999Z</time></trkpt><trkpt lat="34.22800835051813" lon="-6.596350979808627"><ele>40.0</ele><time>2026-04-22T15:57:21.999Z</time></trkpt><trkpt lat="34.22788863896809" lon="-6.596626507591293"><ele>40.0</ele><time>2026-04-22T15:57:22.999Z</time></trkpt><trkpt lat="34.227763864501775" lon="-6.596902977683989"><ele>40.0</ele><time>2026-04-22T15:57:23.999Z</time></trkpt><trkpt lat="34.22763294567646" lon="-6.597180446395208"><ele>39.5</ele><time>2026-04-22T15:57:24.999Z</time></trkpt><trkpt lat="34.227498032501984" lon="-6.597459681854586"><ele>39.0</ele><time>2026-04-22T15:57:25.999Z</time></trkpt><trkpt lat="34.227357759151666" lon="-6.597742183330937"><ele>40.0</ele><time>2026-04-22T15:57:26.999Z</time></trkpt><trkpt lat="34.22720933013256" lon="-6.598022975978247"><ele>41.0</ele><time>2026-04-22T15:57:27.999Z</time></trkpt><trkpt lat="34.227058983454036" lon="-6.598297927509483"><ele>41.0</ele><time>2026-04-22T15:57:28.999Z</time></trkpt><trkpt lat="34.226908758742724" lon="-6.598562417153388"><ele>41.0</ele><time>2026-04-22T15:57:29.999Z</time></trkpt><trkpt lat="34.22675768189668" lon="-6.598813580621856"><ele>40.0</ele><time>2026-04-22T15:57:30.999Z</time></trkpt><trkpt lat="34.22660538399996" lon="-6.599059653245705"><ele>39.0</ele><time>2026-04-22T15:57:31.999Z</time></trkpt><trkpt lat="34.22645091627106" lon="-6.5993067202569495"><ele>40.0</ele><time>2026-04-22T15:57:32.999Z</time></trkpt><trkpt lat="34.22629493248888" lon="-6.599547972584034"><ele>41.0</ele><time>2026-04-22T15:57:33.999Z</time></trkpt><trkpt lat="34.22613740636216" lon="-6.599781251746781"><ele>41.0</ele><time>2026-04-22T15:57:34.999Z</time></trkpt><trkpt lat="34.225980611086186" lon="-6.600005996827895"><ele>41.0</ele><time>2026-04-22T15:57:35.999Z</time></trkpt><trkpt lat="34.225828292339855" lon="-6.6002150817254766"><ele>41.0</ele><time>2026-04-22T15:57:36.999Z</time></trkpt><trkpt lat="34.225680949624426" lon="-6.60041702792324"><ele>41.0</ele><time>2026-04-22T15:57:37.999Z</time></trkpt><trkpt lat="34.225534364945496" lon="-6.600602317927332"><ele>41.0</ele><time>2026-04-22T15:57:38.999Z</time></trkpt><trkpt lat="34.225395599986776" lon="-6.600784432183576"><ele>41.0</ele><time>2026-04-22T15:57:39.999Z</time></trkpt><trkpt lat="34.225256513389006" lon="-6.600953474750904"><ele>41.0</ele><time>2026-04-22T15:57:40.999Z</time></trkpt><trkpt lat="34.22512504206856" lon="-6.601115142877188"><ele>41.0</ele><time>2026-04-22T15:57:41.999Z</time></trkpt><trkpt lat="34.22499699234863" lon="-6.601269002836648"><ele>41.0</ele><time>2026-04-22T15:57:42.999Z</time></trkpt><trkpt lat="34.22486941446776" lon="-6.601421663651709"><ele>41.0</ele><time>2026-04-22T15:57:43.999Z</time></trkpt><trkpt lat="34.22474175867672" lon="-6.601568373655653"><ele>41.0</ele><time>2026-04-22T15:57:44.999Z</time></trkpt><trkpt lat="34.22461499535041" lon="-6.601712371420825"><ele>40.666666666666664</ele><time>2026-04-22T15:57:45.999Z</time></trkpt><trkpt lat="34.22449062631223" lon="-6.6018509421977445"><ele>40.333333333333336</ele><time>2026-04-22T15:57:46.999Z</time></trkpt><trkpt lat="34.224366588551646" lon="-6.60198453415102"><ele>40.0</ele><time>2026-04-22T15:57:47.999Z</time></trkpt><trkpt lat="34.224242656588004" lon="-6.602115461688748"><ele>40.0</ele><time>2026-04-22T15:57:48.999Z</time></trkpt><trkpt lat="34.22411849758579" lon="-6.602246620615975"><ele>40.0</ele><time>2026-04-22T15:57:49.999Z</time></trkpt><trkpt lat="34.22399172936632" lon="-6.602377686061815"><ele>40.0</ele><time>2026-04-22T15:57:50.999Z</time></trkpt><trkpt lat="34.22386054482078" lon="-6.602508649562793"><ele>40.0</ele><time>2026-04-22T15:57:51.999Z</time></trkpt><trkpt lat="34.22372765313146" lon="-6.602641026039457"><ele>40.0</ele><time>2026-04-22T15:57:52.999Z</time></trkpt><trkpt lat="34.223590200819636" lon="-6.602775244437966"><ele>40.0</ele><time>2026-04-22T15:57:53.999Z</time></trkpt><trkpt lat="34.223449042904925" lon="-6.6029096870464405"><ele>40.0</ele><time>2026-04-22T15:57:54.999Z</time></trkpt><trkpt lat="34.22330496626103" lon="-6.603043908625197"><ele>40.0</ele><time>2026-04-22T15:57:55.999Z</time></trkpt><trkpt lat="34.223158217114566" lon="-6.603175634774683"><ele>40.0</ele><time>2026-04-22T15:57:56.999Z</time></trkpt><trkpt lat="34.22301076224076" lon="-6.60330686515218"><ele>40.333333333333336</ele><time>2026-04-22T15:57:57.999Z</time></trkpt><trkpt lat="34.222863951018866" lon="-6.603438224774119"><ele>40.666666666666664</ele><time>2026-04-22T15:57:58.999Z</time></trkpt><trkpt lat="34.22271637478338" lon="-6.6035690877233435"><ele>41.0</ele><time>2026-04-22T15:57:59.999Z</time></trkpt><trkpt lat="34.222565368034935" lon="-6.603696079830901"><ele>41.0</ele><time>2026-04-22T15:58:00.999Z</time></trkpt><trkpt lat="34.22241388678594" lon="-6.603824513156003"><ele>41.0</ele><time>2026-04-22T15:58:02Z</time></trkpt><trkpt lat="34.22226244260937" lon="-6.603953805087266"><ele>41.0</ele><time>2026-04-22T15:58:03Z</time></trkpt><trkpt lat="34.2221086409223" lon="-6.60408307334658"><ele>40.33333333333333</ele><time>2026-04-22T15:58:04Z</time></trkpt><trkpt lat="34.22195082762666" lon="-6.604215753435373"><ele>39.666666666666664</ele><time>2026-04-22T15:58:05Z</time></trkpt><trkpt lat="34.22178436055708" lon="-6.604355429658832"><ele>39.0</ele><time>2026-04-22T15:58:06Z</time></trkpt><trkpt lat="34.221609406658715" lon="-6.604500728988203"><ele>40.0</ele><time>2026-04-22T15:58:07Z</time></trkpt><trkpt lat="34.22142746102919" lon="-6.604651349094773"><ele>41.0</ele><time>2026-04-22T15:58:08Z</time></trkpt><trkpt lat="34.22123810262642" lon="-6.604807819829493"><ele>41.0</ele><time>2026-04-22T15:58:09Z</time></trkpt><trkpt lat="34.221042303972226" lon="-6.604969825514221"><ele>41.0</ele><time>2026-04-22T15:58:10Z</time></trkpt><trkpt lat="34.2208444635029" lon="-6.6051373595144165"><ele>42.5</ele><time>2026-04-22T15:58:11Z</time></trkpt><trkpt lat="34.220643966763774" lon="-6.605309999957309"><ele>44.0</ele><time>2026-04-22T15:58:12Z</time></trkpt><trkpt lat="34.22043877715483" lon="-6.605483756033856"><ele>44.0</ele><time>2026-04-22T15:58:13Z</time></trkpt><trkpt lat="34.22022241736684" lon="-6.605662298831996"><ele>44.0</ele><time>2026-04-22T15:58:14Z</time></trkpt><trkpt lat="34.22000145107735" lon="-6.6058471978952005"><ele>44.0</ele><time>2026-04-22T15:58:15Z</time></trkpt><trkpt lat="34.2197780714539" lon="-6.606039424487944"><ele>44.0</ele><time>2026-04-22T15:58:16Z</time></trkpt><trkpt lat="34.21955206033751" lon="-6.606235206552928"><ele>44.0</ele><time>2026-04-22T15:58:17Z</time></trkpt><trkpt lat="34.2193228654047" lon="-6.6064376677868335"><ele>44.0</ele><time>2026-04-22T15:58:18Z</time></trkpt><trkpt lat="34.21909338207055" lon="-6.606649447124005"><ele>44.5</ele><time>2026-04-22T15:58:19Z</time></trkpt><trkpt lat="34.21885783431796" lon="-6.606851880439762"><ele>45.0</ele><time>2026-04-22T15:58:20Z</time></trkpt><trkpt lat="34.21862025471079" lon="-6.6070521821058215"><ele>45.0</ele><time>2026-04-22T15:58:21Z</time></trkpt><trkpt lat="34.21838227805393" lon="-6.607252676401114"><ele>45.0</ele><time>2026-04-22T15:58:22Z</time></trkpt><trkpt lat="34.218143805772165" lon="-6.6074497868166615"><ele>45.0</ele><time>2026-04-22T15:58:23Z</time></trkpt><trkpt lat="34.21790409493276" lon="-6.6076467762378295"><ele>45.0</ele><time>2026-04-22T15:58:24Z</time></trkpt><trkpt lat="34.21766281451769" lon="-6.607845773723289"><ele>45.0</ele><time>2026-04-22T15:58:25Z</time></trkpt><trkpt lat="34.217421907666434" lon="-6.608045342549594"><ele>45.0</ele><time>2026-04-22T15:58:26Z</time></trkpt><trkpt lat="34.21718249184247" lon="-6.608247006530555"><ele>44.5</ele><time>2026-04-22T15:58:27Z</time></trkpt><trkpt lat="34.21694048118839" lon="-6.608448536543067"><ele>44.0</ele><time>2026-04-22T15:58:28Z</time></trkpt><trkpt lat="34.216695820021805" lon="-6.60865166224128"><ele>44.5</ele><time>2026-04-22T15:58:29Z</time></trkpt><trkpt lat="34.21644791269834" lon="-6.608851525977967"><ele>45.0</ele><time>2026-04-22T15:58:30Z</time></trkpt><trkpt lat="34.21620055819712" lon="-6.609055548177153"><ele>45.0</ele><time>2026-04-22T15:58:31Z</time></trkpt><trkpt lat="34.21595340541217" lon="-6.60926379159424"><ele>45.0</ele><time>2026-04-22T15:58:32Z</time></trkpt><trkpt lat="34.21570567144622" lon="-6.609471060804134"><ele>44.0</ele><time>2026-04-22T15:58:33Z</time></trkpt><trkpt lat="34.215456205186705" lon="-6.609678249085179"><ele>43.0</ele><time>2026-04-22T15:58:34Z</time></trkpt><trkpt lat="34.21520850584379" lon="-6.609886307128041"><ele>43.0</ele><time>2026-04-22T15:58:35Z</time></trkpt><trkpt lat="34.21496279132594" lon="-6.610092211984807"><ele>43.0</ele><time>2026-04-22T15:58:36Z</time></trkpt><trkpt lat="34.214718136057826" lon="-6.61030106338153"><ele>43.5</ele><time>2026-04-22T15:58:37Z</time></trkpt><trkpt lat="34.21447100591883" lon="-6.610510190432626"><ele>44.0</ele><time>2026-04-22T15:58:38Z</time></trkpt><trkpt lat="34.214224081886215" lon="-6.610720485204453"><ele>44.5</ele><time>2026-04-22T15:58:39Z</time></trkpt><trkpt lat="34.213975752383114" lon="-6.610929853145618"><ele>45.0</ele><time>2026-04-22T15:58:40Z</time></trkpt><trkpt lat="34.21372855031933" lon="-6.611135809112993"><ele>44.0</ele><time>2026-04-22T15:58:41Z</time></trkpt><trkpt lat="34.21348032409715" lon="-6.611344047091538"><ele>43.0</ele><time>2026-04-22T15:58:42Z</time></trkpt><trkpt lat="34.21323116158137" lon="-6.6115467007645385"><ele>43.0</ele><time>2026-04-22T15:58:43Z</time></trkpt><trkpt lat="34.21298666880612" lon="-6.611757152457401"><ele>43.0</ele><time>2026-04-22T15:58:44Z</time></trkpt><trkpt lat="34.212742257024914" lon="-6.611964093050477"><ele>42.5</ele><time>2026-04-22T15:58:45Z</time></trkpt><trkpt lat="34.21249968148256" lon="-6.6121675777281"><ele>42.0</ele><time>2026-04-22T15:58:46Z</time></trkpt><trkpt lat="34.21225799076611" lon="-6.612367207344348"><ele>43.0</ele><time>2026-04-22T15:58:47Z</time></trkpt><trkpt lat="34.212019247218855" lon="-6.61256558119142"><ele>44.0</ele><time>2026-04-22T15:58:48Z</time></trkpt><trkpt lat="34.21178210048076" lon="-6.612764559246315"><ele>44.0</ele><time>2026-04-22T15:58:49Z</time></trkpt><trkpt lat="34.211544838106256" lon="-6.612966075648534"><ele>44.0</ele><time>2026-04-22T15:58:50Z</time></trkpt><trkpt lat="34.21130603932502" lon="-6.613171041227205"><ele>44.0</ele><time>2026-04-22T15:58:51Z</time></trkpt><trkpt lat="34.211063280702255" lon="-6.613378064879096"><ele>44.0</ele><time>2026-04-22T15:58:52Z</time></trkpt><trkpt lat="34.2108195417057" lon="-6.613588171357724"><ele>43.5</ele><time>2026-04-22T15:58:53Z</time></trkpt><trkpt lat="34.21057768736727" lon="-6.613805066067983"><ele>43.0</ele><time>2026-04-22T15:58:54Z</time></trkpt><trkpt lat="34.21033784056801" lon="-6.614026981800069"><ele>43.0</ele><time>2026-04-22T15:58:55Z</time></trkpt><trkpt lat="34.210103032298775" lon="-6.614254251668685"><ele>43.0</ele><time>2026-04-22T15:58:56Z</time></trkpt><trkpt lat="34.20987208199659" lon="-6.614481901054175"><ele>43.0</ele><time>2026-04-22T15:58:57Z</time></trkpt><trkpt lat="34.209641861602655" lon="-6.614711537133141"><ele>43.0</ele><time>2026-04-22T15:58:58Z</time></trkpt><trkpt lat="34.20941549955627" lon="-6.614938961767855"><ele>43.0</ele><time>2026-04-22T15:58:59Z</time></trkpt><trkpt lat="34.209191159206895" lon="-6.615169523457567"><ele>43.0</ele><time>2026-04-22T15:59:00Z</time></trkpt><trkpt lat="34.20897062218432" lon="-6.615404822470173"><ele>44.0</ele><time>2026-04-22T15:59:01Z</time></trkpt><trkpt lat="34.2087525181617" lon="-6.615649207837319"><ele>45.0</ele><time>2026-04-22T15:59:02Z</time></trkpt><trkpt lat="34.208537891488724" lon="-6.615898269806697"><ele>45.0</ele><time>2026-04-22T15:59:03Z</time></trkpt><trkpt lat="34.208325857349195" lon="-6.616152154717394"><ele>45.0</ele><time>2026-04-22T15:59:04Z</time></trkpt><trkpt lat="34.208114313285215" lon="-6.616409425617385"><ele>45.0</ele><time>2026-04-22T15:59:05Z</time></trkpt><trkpt lat="34.20790655927907" lon="-6.6166666148251885"><ele>45.0</ele><time>2026-04-22T15:59:06Z</time></trkpt><trkpt lat="34.20770105214684" lon="-6.616926131501719"><ele>44.0</ele><time>2026-04-22T15:59:07Z</time></trkpt><trkpt lat="34.207497983519424" lon="-6.617189659654067"><ele>43.0</ele><time>2026-04-22T15:59:08Z</time></trkpt><trkpt lat="34.20729586777343" lon="-6.617451869240108"><ele>43.0</ele><time>2026-04-22T15:59:09Z</time></trkpt><trkpt lat="34.20709603211904" lon="-6.617710300016856"><ele>43.0</ele><time>2026-04-22T15:59:09.999Z</time></trkpt><trkpt lat="34.20689788114943" lon="-6.617965711745618"><ele>43.0</ele><time>2026-04-22T15:59:10.999Z</time></trkpt><trkpt lat="34.20669758007815" lon="-6.618222456214229"><ele>43.0</ele><time>2026-04-22T15:59:11.999Z</time></trkpt><trkpt lat="34.20649548517375" lon="-6.6184796965745205"><ele>42.0</ele><time>2026-04-22T15:59:12.999Z</time></trkpt><trkpt lat="34.20629205645522" lon="-6.618737749258653"><ele>41.0</ele><time>2026-04-22T15:59:13.999Z</time></trkpt><trkpt lat="34.20608846912444" lon="-6.618998066527229"><ele>41.0</ele><time>2026-04-22T15:59:14.999Z</time></trkpt><trkpt lat="34.20588661336728" lon="-6.619256626965473"><ele>41.0</ele><time>2026-04-22T15:59:15.999Z</time></trkpt><trkpt lat="34.20568272065376" lon="-6.619516616186643"><ele>41.5</ele><time>2026-04-22T15:59:16.999Z</time></trkpt><trkpt lat="34.20547763287066" lon="-6.619777843532552"><ele>42.0</ele><time>2026-04-22T15:59:17.999Z</time></trkpt><trkpt lat="34.20527354532282" lon="-6.62003656786827"><ele>42.0</ele><time>2026-04-22T15:59:18.999Z</time></trkpt><trkpt lat="34.20507107887348" lon="-6.620293793035001"><ele>42.0</ele><time>2026-04-22T15:59:19.999Z</time></trkpt><trkpt lat="34.204871443010205" lon="-6.6205506817025634"><ele>40.5</ele><time>2026-04-22T15:59:20.999Z</time></trkpt><trkpt lat="34.20467251618119" lon="-6.62080699348716"><ele>39.0</ele><time>2026-04-22T15:59:21.999Z</time></trkpt><trkpt lat="34.20447465335495" lon="-6.621060906431"><ele>40.5</ele><time>2026-04-22T15:59:22.999Z</time></trkpt><trkpt lat="34.20427597900943" lon="-6.6213137744940695"><ele>42.0</ele><time>2026-04-22T15:59:23.999Z</time></trkpt><trkpt lat="34.20407596606645" lon="-6.621566651540888"><ele>40.0</ele><time>2026-04-22T15:59:24.999Z</time></trkpt><trkpt lat="34.20387419811365" lon="-6.621821638403"><ele>38.0</ele><time>2026-04-22T15:59:25.999Z</time></trkpt><trkpt lat="34.20366812123872" lon="-6.6220833357206095"><ele>38.0</ele><time>2026-04-22T15:59:26.999Z</time></trkpt><trkpt lat="34.20346145119855" lon="-6.622346778706444"><ele>38.0</ele><time>2026-04-22T15:59:27.999Z</time></trkpt><trkpt lat="34.20325652205091" lon="-6.622606503273554"><ele>39.0</ele><time>2026-04-22T15:59:28.999Z</time></trkpt><trkpt lat="34.203053537687886" lon="-6.622861660340995"><ele>40.0</ele><time>2026-04-22T15:59:29.999Z</time></trkpt><trkpt lat="34.202853287400835" lon="-6.623113406434012"><ele>40.0</ele><time>2026-04-22T15:59:30.999Z</time></trkpt><trkpt lat="34.20265167935707" lon="-6.623372873915624"><ele>40.0</ele><time>2026-04-22T15:59:31.999Z</time></trkpt><trkpt lat="34.20244823316046" lon="-6.623637369923825"><ele>38.5</ele><time>2026-04-22T15:59:32.999Z</time></trkpt><trkpt lat="34.20224256720727" lon="-6.623905455142649"><ele>37.0</ele><time>2026-04-22T15:59:33.999Z</time></trkpt><trkpt lat="34.20203543979866" lon="-6.62417399314921"><ele>37.0</ele><time>2026-04-22T15:59:34.999Z</time></trkpt><trkpt lat="34.201828542857854" lon="-6.62444001963294"><ele>37.0</ele><time>2026-04-22T15:59:35.999Z</time></trkpt><trkpt lat="34.20162394563593" lon="-6.624699698139677"><ele>38.5</ele><time>2026-04-22T15:59:36.999Z</time></trkpt><trkpt lat="34.20142026350091" lon="-6.624956974852634"><ele>40.0</ele><time>2026-04-22T15:59:37.999Z</time></trkpt><trkpt lat="34.20122086128404" lon="-6.625211664765571"><ele>40.0</ele><time>2026-04-22T15:59:38.999Z</time></trkpt><trkpt lat="34.201026072822906" lon="-6.62546511467682"><ele>40.0</ele><time>2026-04-22T15:59:39.999Z</time></trkpt><trkpt lat="34.20083136261394" lon="-6.625715890087619"><ele>40.0</ele><time>2026-04-22T15:59:40.999Z</time></trkpt><trkpt lat="34.200637220637184" lon="-6.6259636155558095"><ele>40.0</ele><time>2026-04-22T15:59:41.999Z</time></trkpt><trkpt lat="34.20044429813275" lon="-6.626209660972671"><ele>40.0</ele><time>2026-04-22T15:59:42.999Z</time></trkpt><trkpt lat="34.20025058221734" lon="-6.626456909756844"><ele>40.0</ele><time>2026-04-22T15:59:43.999Z</time></trkpt><trkpt lat="34.20005308400098" lon="-6.626705475535584"><ele>40.0</ele><time>2026-04-22T15:59:44.999Z</time></trkpt><trkpt lat="34.19985758685029" lon="-6.626959447795898"><ele>40.0</ele><time>2026-04-22T15:59:45.999Z</time></trkpt><trkpt lat="34.19966059029203" lon="-6.627204573922403"><ele>39.0</ele><time>2026-04-22T15:59:46.999Z</time></trkpt><trkpt lat="34.199465628680166" lon="-6.62744845238384"><ele>38.0</ele><time>2026-04-22T15:59:47.999Z</time></trkpt><trkpt lat="34.19926650418822" lon="-6.6276976559150285"><ele>38.5</ele><time>2026-04-22T15:59:48.999Z</time></trkpt><trkpt lat="34.19906988280403" lon="-6.627949260714083"><ele>39.0</ele><time>2026-04-22T15:59:49.999Z</time></trkpt><trkpt lat="34.19887513824982" lon="-6.628204034981239"><ele>39.0</ele><time>2026-04-22T15:59:50.999Z</time></trkpt><trkpt lat="34.19868210723654" lon="-6.628461388130489"><ele>39.0</ele><time>2026-04-22T15:59:51.999Z</time></trkpt><trkpt lat="34.19848241973043" lon="-6.628714730169335"><ele>39.5</ele><time>2026-04-22T15:59:52.999Z</time></trkpt><trkpt lat="34.19828233707873" lon="-6.6289698082029185"><ele>40.0</ele><time>2026-04-22T15:59:53.999Z</time></trkpt><trkpt lat="34.198078331727736" lon="-6.629225677431331"><ele>39.5</ele><time>2026-04-22T15:59:54.999Z</time></trkpt><trkpt lat="34.19787279039094" lon="-6.629481372216695"><ele>39.0</ele><time>2026-04-22T15:59:55.999Z</time></trkpt><trkpt lat="34.19766994990954" lon="-6.629738127499167"><ele>39.0</ele><time>2026-04-22T15:59:56.999Z</time></trkpt><trkpt lat="34.19746891712846" lon="-6.6299937484034945"><ele>39.0</ele><time>2026-04-22T15:59:57.999Z</time></trkpt><trkpt lat="34.197271069821106" lon="-6.6302472453177455"><ele>39.0</ele><time>2026-04-22T15:59:58.999Z</time></trkpt><trkpt lat="34.19707393601471" lon="-6.6304926160365625"><ele>39.0</ele><time>2026-04-22T15:59:59.999Z</time></trkpt><trkpt lat="34.19688216040166" lon="-6.630739247385416"><ele>39.0</ele><time>2026-04-22T16:00:00.999Z</time></trkpt><trkpt lat="34.19669238234653" lon="-6.630985201487407"><ele>39.0</ele><time>2026-04-22T16:00:01.999Z</time></trkpt><trkpt lat="34.196504510617295" lon="-6.631229448681109"><ele>39.0</ele><time>2026-04-22T16:00:02.999Z</time></trkpt><trkpt lat="34.19631810999433" lon="-6.6314687063130195"><ele>39.0</ele><time>2026-04-22T16:00:03.999Z</time></trkpt><trkpt lat="34.19613502678816" lon="-6.63170166260867"><ele>39.0</ele><time>2026-04-22T16:00:04.999Z</time></trkpt><trkpt lat="34.19595628357015" lon="-6.631934054283339"><ele>39.0</ele><time>2026-04-22T16:00:05.999Z</time></trkpt><trkpt lat="34.19577681634899" lon="-6.632164567122249"><ele>40.0</ele><time>2026-04-22T16:00:06.999Z</time></trkpt><trkpt lat="34.19559670548556" lon="-6.632395940709401"><ele>41.0</ele><time>2026-04-22T16:00:08Z</time></trkpt><trkpt lat="34.19541537692746" lon="-6.632624212426262"><ele>40.0</ele><time>2026-04-22T16:00:09Z</time></trkpt><trkpt lat="34.19523521881964" lon="-6.632854382130844"><ele>39.0</ele><time>2026-04-22T16:00:10Z</time></trkpt><trkpt lat="34.1950555192039" lon="-6.6330800122910745"><ele>39.0</ele><time>2026-04-22T16:00:11Z</time></trkpt><trkpt lat="34.19487793211955" lon="-6.633310660587109"><ele>39.0</ele><time>2026-04-22T16:00:12Z</time></trkpt><trkpt lat="34.194700162067576" lon="-6.633537735268372"><ele>38.0</ele><time>2026-04-22T16:00:13Z</time></trkpt><trkpt lat="34.194524317291865" lon="-6.633762345875927"><ele>37.0</ele><time>2026-04-22T16:00:14Z</time></trkpt><trkpt lat="34.194350110421375" lon="-6.633983310758634"><ele>37.0</ele><time>2026-04-22T16:00:15Z</time></trkpt><trkpt lat="34.19417910438299" lon="-6.634201974197025"><ele>37.0</ele><time>2026-04-22T16:00:16Z</time></trkpt><trkpt lat="34.19401455872578" lon="-6.63441493332013"><ele>37.0</ele><time>2026-04-22T16:00:17Z</time></trkpt><trkpt lat="34.19384769124784" lon="-6.634626765147375"><ele>37.0</ele><time>2026-04-22T16:00:18Z</time></trkpt><trkpt lat="34.193678652010036" lon="-6.634841652914768"><ele>37.0</ele><time>2026-04-22T16:00:19Z</time></trkpt><trkpt lat="34.193507272261904" lon="-6.635056741338304"><ele>37.0</ele><time>2026-04-22T16:00:20Z</time></trkpt><trkpt lat="34.193335244178634" lon="-6.635273478839705"><ele>37.0</ele><time>2026-04-22T16:00:21Z</time></trkpt><trkpt lat="34.19316424658141" lon="-6.635492403655515"><ele>37.0</ele><time>2026-04-22T16:00:22Z</time></trkpt><trkpt lat="34.192993737029994" lon="-6.635712424070259"><ele>37.0</ele><time>2026-04-22T16:00:23Z</time></trkpt><trkpt lat="34.19282105121464" lon="-6.635931271065922"><ele>37.0</ele><time>2026-04-22T16:00:24Z</time></trkpt><trkpt lat="34.19264589881329" lon="-6.636150423179341"><ele>38.0</ele><time>2026-04-22T16:00:25Z</time></trkpt><trkpt lat="34.19246196918925" lon="-6.636377997252263"><ele>39.0</ele><time>2026-04-22T16:00:26Z</time></trkpt><trkpt lat="34.192276081564245" lon="-6.636612275816433"><ele>37.5</ele><time>2026-04-22T16:00:27Z</time></trkpt><trkpt lat="34.192093025890344" lon="-6.63684675527958"><ele>36.0</ele><time>2026-04-22T16:00:28Z</time></trkpt><trkpt lat="34.19191200286199" lon="-6.637079627495878"><ele>36.0</ele><time>2026-04-22T16:00:29Z</time></trkpt><trkpt lat="34.19173312269946" lon="-6.637310391460193"><ele>36.0</ele><time>2026-04-22T16:00:30Z</time></trkpt><trkpt lat="34.19155358293796" lon="-6.6375425606064775"><ele>36.5</ele><time>2026-04-22T16:00:31Z</time></trkpt><trkpt lat="34.19137552779423" lon="-6.6377779496452955"><ele>37.0</ele><time>2026-04-22T16:00:32Z</time></trkpt><trkpt lat="34.191194649777295" lon="-6.638011560139525"><ele>37.0</ele><time>2026-04-22T16:00:33Z</time></trkpt><trkpt lat="34.19101391632881" lon="-6.6382393115190474"><ele>37.0</ele><time>2026-04-22T16:00:34Z</time></trkpt><trkpt lat="34.19083485124835" lon="-6.638470558152554"><ele>36.5</ele><time>2026-04-22T16:00:35Z</time></trkpt><trkpt lat="34.190656553983445" lon="-6.638700678872823"><ele>36.0</ele><time>2026-04-22T16:00:36Z</time></trkpt><trkpt lat="34.1904753406317" lon="-6.63893047313246"><ele>36.0</ele><time>2026-04-22T16:00:37Z</time></trkpt><trkpt lat="34.190294105075054" lon="-6.6391596757085924"><ele>36.0</ele><time>2026-04-22T16:00:38Z</time></trkpt><trkpt lat="34.19011734766263" lon="-6.6393874200891"><ele>37.5</ele><time>2026-04-22T16:00:39Z</time></trkpt><trkpt lat="34.189942385037384" lon="-6.639612252554294"><ele>39.0</ele><time>2026-04-22T16:00:40Z</time></trkpt><trkpt lat="34.189768539811965" lon="-6.639833438182969"><ele>39.0</ele><time>2026-04-22T16:00:41Z</time></trkpt><trkpt lat="34.18959456315334" lon="-6.640053575251905"><ele>39.0</ele><time>2026-04-22T16:00:42Z</time></trkpt><trkpt lat="34.189419160025146" lon="-6.6402748356232255"><ele>36.0</ele><time>2026-04-22T16:00:43Z</time></trkpt><trkpt lat="34.18924083493404" lon="-6.640501019594219"><ele>33.0</ele><time>2026-04-22T16:00:44Z</time></trkpt><trkpt lat="34.18906187666075" lon="-6.640729288013681"><ele>33.5</ele><time>2026-04-22T16:00:45Z</time></trkpt><trkpt lat="34.188884823313394" lon="-6.640957175193424"><ele>34.0</ele><time>2026-04-22T16:00:46Z</time></trkpt><trkpt lat="34.18870739549079" lon="-6.641186471485577"><ele>34.0</ele><time>2026-04-22T16:00:47Z</time></trkpt><trkpt lat="34.18852624460837" lon="-6.641416166679439"><ele>34.0</ele><time>2026-04-22T16:00:48Z</time></trkpt><trkpt lat="34.18834662326878" lon="-6.64164177465621"><ele>35.0</ele><time>2026-04-22T16:00:49Z</time></trkpt><trkpt lat="34.18816857434884" lon="-6.641865680892629"><ele>36.0</ele><time>2026-04-22T16:00:50Z</time></trkpt><trkpt lat="34.18798944797607" lon="-6.642089800303831"><ele>36.0</ele><time>2026-04-22T16:00:51Z</time></trkpt><trkpt lat="34.187810796809046" lon="-6.642316765705457"><ele>36.0</ele><time>2026-04-22T16:00:52Z</time></trkpt><trkpt lat="34.18763119714565" lon="-6.64254831978516"><ele>36.0</ele><time>2026-04-22T16:00:53Z</time></trkpt><trkpt lat="34.187451627458664" lon="-6.642779814593978"><ele>36.0</ele><time>2026-04-22T16:00:54Z</time></trkpt><trkpt lat="34.18727168798075" lon="-6.643009886049965"><ele>37.5</ele><time>2026-04-22T16:00:55Z</time></trkpt><trkpt lat="34.187089669272034" lon="-6.6432422004338205"><ele>39.0</ele><time>2026-04-22T16:00:56Z</time></trkpt><trkpt lat="34.186905768196645" lon="-6.643477465914683"><ele>39.5</ele><time>2026-04-22T16:00:57Z</time></trkpt><trkpt lat="34.18672097557646" lon="-6.643714980049073"><ele>40.0</ele><time>2026-04-22T16:00:58Z</time></trkpt><trkpt lat="34.18653695227011" lon="-6.64395119242917"><ele>40.0</ele><time>2026-04-22T16:00:59Z</time></trkpt><trkpt lat="34.186352488648204" lon="-6.644186882222246"><ele>40.0</ele><time>2026-04-22T16:01:00Z</time></trkpt><trkpt lat="34.18616720540898" lon="-6.64442395381747"><ele>39.5</ele><time>2026-04-22T16:01:01Z</time></trkpt><trkpt lat="34.18598020065254" lon="-6.644664870645486"><ele>39.0</ele><time>2026-04-22T16:01:02Z</time></trkpt><trkpt lat="34.185789828081035" lon="-6.644910160038913"><ele>39.5</ele><time>2026-04-22T16:01:03Z</time></trkpt><trkpt lat="34.18559155163604" lon="-6.6451629982692255"><ele>40.0</ele><time>2026-04-22T16:01:04Z</time></trkpt><trkpt lat="34.18538859778886" lon="-6.645418897429999"><ele>40.0</ele><time>2026-04-22T16:01:05Z</time></trkpt><trkpt lat="34.18518174617879" lon="-6.64567948006584"><ele>40.0</ele><time>2026-04-22T16:01:06Z</time></trkpt><trkpt lat="34.18497362183695" lon="-6.645945225104844"><ele>41.0</ele><time>2026-04-22T16:01:07Z</time></trkpt><trkpt lat="34.184765733533446" lon="-6.646211598867068"><ele>42.0</ele><time>2026-04-22T16:01:08Z</time></trkpt><trkpt lat="34.184560073440366" lon="-6.646474015731241"><ele>42.0</ele><time>2026-04-22T16:01:09Z</time></trkpt><trkpt lat="34.184357407377995" lon="-6.646732273817854"><ele>42.0</ele><time>2026-04-22T16:01:10Z</time></trkpt><trkpt lat="34.18415694917492" lon="-6.646986418170971"><ele>43.0</ele><time>2026-04-22T16:01:11Z</time></trkpt><trkpt lat="34.18395921310577" lon="-6.6472355628063475"><ele>44.0</ele><time>2026-04-22T16:01:12Z</time></trkpt><trkpt lat="34.18376002577979" lon="-6.6474868615429905"><ele>44.0</ele><time>2026-04-22T16:01:12.999Z</time></trkpt><trkpt lat="34.18355989585416" lon="-6.647739534206188"><ele>44.0</ele><time>2026-04-22T16:01:13.999Z</time></trkpt><trkpt lat="34.18335835025637" lon="-6.647998117399495"><ele>44.5</ele><time>2026-04-22T16:01:14.999Z</time></trkpt><trkpt lat="34.183157268122365" lon="-6.648255122876611"><ele>45.0</ele><time>2026-04-22T16:01:15.999Z</time></trkpt><trkpt lat="34.18295666891046" lon="-6.648510857921992"><ele>44.0</ele><time>2026-04-22T16:01:16.999Z</time></trkpt><trkpt lat="34.18275430699075" lon="-6.648770310828961"><ele>43.0</ele><time>2026-04-22T16:01:17.999Z</time></trkpt><trkpt lat="34.18254970328974" lon="-6.649032533396531"><ele>43.0</ele><time>2026-04-22T16:01:18.999Z</time></trkpt><trkpt lat="34.18234554396582" lon="-6.6492925639728595"><ele>43.0</ele><time>2026-04-22T16:01:19.999Z</time></trkpt><trkpt lat="34.18215049807506" lon="-6.649540301253147"><ele>43.5</ele><time>2026-04-22T16:01:20.999Z</time></trkpt><trkpt lat="34.18195720257624" lon="-6.64978364378132"><ele>44.0</ele><time>2026-04-22T16:01:21.999Z</time></trkpt><trkpt lat="34.181759485525866" lon="-6.650032606147709"><ele>44.0</ele><time>2026-04-22T16:01:22.999Z</time></trkpt><trkpt lat="34.181558763369665" lon="-6.650288134566423"><ele>44.0</ele><time>2026-04-22T16:01:23.999Z</time></trkpt><trkpt lat="34.18135478880713" lon="-6.650549645819582"><ele>45.0</ele><time>2026-04-22T16:01:24.999Z</time></trkpt><trkpt lat="34.18114868200419" lon="-6.650815117772253"><ele>46.0</ele><time>2026-04-22T16:01:25.999Z</time></trkpt><trkpt lat="34.180940479136375" lon="-6.651084323205539"><ele>47.0</ele><time>2026-04-22T16:01:26.999Z</time></trkpt><trkpt lat="34.18072981949362" lon="-6.651358174918599"><ele>48.0</ele><time>2026-04-22T16:01:27.999Z</time></trkpt><trkpt lat="34.18051518770949" lon="-6.651631341839132"><ele>46.5</ele><time>2026-04-22T16:01:28.999Z</time></trkpt><trkpt lat="34.180299233521175" lon="-6.651906485159999"><ele>45.0</ele><time>2026-04-22T16:01:29.999Z</time></trkpt><trkpt lat="34.18008370602311" lon="-6.6521830877100685"><ele>45.0</ele><time>2026-04-22T16:01:30.999Z</time></trkpt><trkpt lat="34.179866988097686" lon="-6.65246108755264"><ele>45.0</ele><time>2026-04-22T16:01:31.999Z</time></trkpt><trkpt lat="34.17965049447902" lon="-6.6527384034359525"><ele>44.5</ele><time>2026-04-22T16:01:32.999Z</time></trkpt><trkpt lat="34.17943366483545" lon="-6.653015085301096"><ele>44.0</ele><time>2026-04-22T16:01:33.999Z</time></trkpt><trkpt lat="34.17921653279693" lon="-6.653290564940718"><ele>44.0</ele><time>2026-04-22T16:01:34.999Z</time></trkpt><trkpt lat="34.17899980071375" lon="-6.653564190464616"><ele>44.0</ele><time>2026-04-22T16:01:35.999Z</time></trkpt><trkpt lat="34.17878387008632" lon="-6.65383645683139"><ele>44.0</ele><time>2026-04-22T16:01:36.999Z</time></trkpt><trkpt lat="34.17856862228918" lon="-6.6541088550181735"><ele>44.0</ele><time>2026-04-22T16:01:37.999Z</time></trkpt><trkpt lat="34.17835401924233" lon="-6.6543810932819225"><ele>44.0</ele><time>2026-04-22T16:01:38.999Z</time></trkpt><trkpt lat="34.17814237146068" lon="-6.654651146494139"><ele>44.0</ele><time>2026-04-22T16:01:39.999Z</time></trkpt><trkpt lat="34.17793297906212" lon="-6.654916545449182"><ele>44.0</ele><time>2026-04-22T16:01:40.999Z</time></trkpt><trkpt lat="34.177724253146756" lon="-6.655180460327954"><ele>44.0</ele><time>2026-04-22T16:01:41.999Z</time></trkpt><trkpt lat="34.177516319661464" lon="-6.655445442504274"><ele>45.0</ele><time>2026-04-22T16:01:42.999Z</time></trkpt><trkpt lat="34.17730987698032" lon="-6.655708975850866"><ele>46.0</ele><time>2026-04-22T16:01:43.999Z</time></trkpt><trkpt lat="34.177102993950705" lon="-6.655973844881785"><ele>46.0</ele><time>2026-04-22T16:01:44.999Z</time></trkpt><trkpt lat="34.17689547475158" lon="-6.656240244205619"><ele>46.0</ele><time>2026-04-22T16:01:45.999Z</time></trkpt><trkpt lat="34.176687432667336" lon="-6.656506532074575"><ele>46.5</ele><time>2026-04-22T16:01:46.999Z</time></trkpt><trkpt lat="34.17647723056323" lon="-6.656772599870998"><ele>47.0</ele><time>2026-04-22T16:01:47.999Z</time></trkpt><trkpt lat="34.17626509118876" lon="-6.657044909778972"><ele>47.0</ele><time>2026-04-22T16:01:48.999Z</time></trkpt><trkpt lat="34.17604783149082" lon="-6.657317281266011"><ele>47.0</ele><time>2026-04-22T16:01:49.999Z</time></trkpt><trkpt lat="34.17581925109588" lon="-6.657604036732017"><ele>48.5</ele><time>2026-04-22T16:01:50.999Z</time></trkpt><trkpt lat="34.175584051063545" lon="-6.657900817265879"><ele>50.0</ele><time>2026-04-22T16:01:51.999Z</time></trkpt><trkpt lat="34.175336780227134" lon="-6.6582135121045605"><ele>50.0</ele><time>2026-04-22T16:01:52.999Z</time></trkpt><trkpt lat="34.175082539750875" lon="-6.658536979973327"><ele>50.0</ele><time>2026-04-22T16:01:53.999Z</time></trkpt><trkpt lat="34.17483771109299" lon="-6.6588495773960465"><ele>49.5</ele><time>2026-04-22T16:01:54.999Z</time></trkpt><trkpt lat="34.17459712695478" lon="-6.6591547070889945"><ele>49.0</ele><time>2026-04-22T16:01:55.999Z</time></trkpt><trkpt lat="34.174362052483254" lon="-6.659455388688869"><ele>49.0</ele><time>2026-04-22T16:01:56.999Z</time></trkpt><trkpt lat="34.174130300010404" lon="-6.659751621809689"><ele>49.0</ele><time>2026-04-22T16:01:57.999Z</time></trkpt><trkpt lat="34.1739026555615" lon="-6.660042813553618"><ele>48.5</ele><time>2026-04-22T16:01:58.999Z</time></trkpt><trkpt lat="34.17367829708353" lon="-6.660328884642165"><ele>48.0</ele><time>2026-04-22T16:01:59.999Z</time></trkpt><trkpt lat="34.17345688681966" lon="-6.660611049547609"><ele>48.0</ele><time>2026-04-22T16:02:00.999Z</time></trkpt><trkpt lat="34.17323578768845" lon="-6.660896080637603"><ele>48.0</ele><time>2026-04-22T16:02:01.999Z</time></trkpt><trkpt lat="34.173014960757065" lon="-6.661180688468965"><ele>47.0</ele><time>2026-04-22T16:02:02.999Z</time></trkpt><trkpt lat="34.172794757087225" lon="-6.661466315011192"><ele>46.0</ele><time>2026-04-22T16:02:03.999Z</time></trkpt><trkpt lat="34.172572349247204" lon="-6.661750610770368"><ele>47.0</ele><time>2026-04-22T16:02:04.999Z</time></trkpt><trkpt lat="34.17235018823005" lon="-6.662035131281329"><ele>48.0</ele><time>2026-04-22T16:02:05.999Z</time></trkpt><trkpt lat="34.172127597794606" lon="-6.662319788765208"><ele>48.0</ele><time>2026-04-22T16:02:06.999Z</time></trkpt><trkpt lat="34.171905441324334" lon="-6.6626080911178756"><ele>48.0</ele><time>2026-04-22T16:02:07.999Z</time></trkpt><trkpt lat="34.17167807389437" lon="-6.662894525681413"><ele>47.0</ele><time>2026-04-22T16:02:08.999Z</time></trkpt><trkpt lat="34.17144869090782" lon="-6.663180580916912"><ele>46.0</ele><time>2026-04-22T16:02:09.999Z</time></trkpt><trkpt lat="34.17121930378019" lon="-6.663462431600264"><ele>45.0</ele><time>2026-04-22T16:02:10.999Z</time></trkpt><trkpt lat="34.17099325278978" lon="-6.663749939513865"><ele>44.0</ele><time>2026-04-22T16:02:11.999Z</time></trkpt><trkpt lat="34.17077539027133" lon="-6.664033102674565"><ele>44.0</ele><time>2026-04-22T16:02:13Z</time></trkpt><trkpt lat="34.17056202821542" lon="-6.664309698937511"><ele>44.0</ele><time>2026-04-22T16:02:14Z</time></trkpt><trkpt lat="34.17035046671592" lon="-6.664582613217063"><ele>44.0</ele><time>2026-04-22T16:02:15Z</time></trkpt><trkpt lat="34.170139676216145" lon="-6.664857118898492"><ele>44.0</ele><time>2026-04-22T16:02:16Z</time></trkpt><trkpt lat="34.169927683008275" lon="-6.665132579277171"><ele>43.5</ele><time>2026-04-22T16:02:17Z</time></trkpt><trkpt lat="34.16971373599764" lon="-6.665405004292475"><ele>43.0</ele><time>2026-04-22T16:02:18Z</time></trkpt><trkpt lat="34.16949857616886" lon="-6.665676014647542"><ele>43.0</ele><time>2026-04-22T16:02:19Z</time></trkpt><trkpt lat="34.16928335767978" lon="-6.665947220686692"><ele>43.0</ele><time>2026-04-22T16:02:20Z</time></trkpt><trkpt lat="34.16906766929335" lon="-6.666219797502059"><ele>43.5</ele><time>2026-04-22T16:02:21Z</time></trkpt><trkpt lat="34.16885133175154" lon="-6.6664934224035495"><ele>44.0</ele><time>2026-04-22T16:02:22Z</time></trkpt><trkpt lat="34.16863269719748" lon="-6.666767823639266"><ele>43.5</ele><time>2026-04-22T16:02:23Z</time></trkpt><trkpt lat="34.16841350395853" lon="-6.667041537852541"><ele>43.0</ele><time>2026-04-22T16:02:24Z</time></trkpt><trkpt lat="34.16819468324777" lon="-6.6673111835167"><ele>42.0</ele><time>2026-04-22T16:02:25Z</time></trkpt><trkpt lat="34.16797373128423" lon="-6.667585394044627"><ele>41.0</ele><time>2026-04-22T16:02:26Z</time></trkpt><trkpt lat="34.16775304413186" lon="-6.667861089329196"><ele>41.0</ele><time>2026-04-22T16:02:27Z</time></trkpt><trkpt lat="34.16753453945945" lon="-6.668135297625188"><ele>41.0</ele><time>2026-04-22T16:02:28Z</time></trkpt><trkpt lat="34.16731739867532" lon="-6.668411499730907"><ele>40.5</ele><time>2026-04-22T16:02:29Z</time></trkpt><trkpt lat="34.167097566460825" lon="-6.668685902482503"><ele>40.0</ele><time>2026-04-22T16:02:30Z</time></trkpt><trkpt lat="34.16687671875964" lon="-6.668959002789199"><ele>40.0</ele><time>2026-04-22T16:02:31Z</time></trkpt><trkpt lat="34.166656833226625" lon="-6.66922741992792"><ele>40.0</ele><time>2026-04-22T16:02:32Z</time></trkpt><trkpt lat="34.166433856135114" lon="-6.669496685059756"><ele>40.5</ele><time>2026-04-22T16:02:33Z</time></trkpt><trkpt lat="34.16620800397071" lon="-6.669766333740263"><ele>41.0</ele><time>2026-04-22T16:02:34Z</time></trkpt><trkpt lat="34.16597689519478" lon="-6.670033756614769"><ele>40.5</ele><time>2026-04-22T16:02:35Z</time></trkpt><trkpt lat="34.16574598580066" lon="-6.670288922666062"><ele>40.0</ele><time>2026-04-22T16:02:36Z</time></trkpt><trkpt lat="34.16551941564692" lon="-6.6705292589101886"><ele>40.0</ele><time>2026-04-22T16:02:37Z</time></trkpt><trkpt lat="34.16529978684725" lon="-6.670759250999951"><ele>40.0</ele><time>2026-04-22T16:02:38Z</time></trkpt><trkpt lat="34.16508705060715" lon="-6.670985618809819"><ele>39.5</ele><time>2026-04-22T16:02:39Z</time></trkpt><trkpt lat="34.164873798770714" lon="-6.671208513291114"><ele>39.0</ele><time>2026-04-22T16:02:40Z</time></trkpt><trkpt lat="34.16465800923907" lon="-6.671423562733755"><ele>39.0</ele><time>2026-04-22T16:02:41Z</time></trkpt><trkpt lat="34.16444292730883" lon="-6.671630699475258"><ele>39.0</ele><time>2026-04-22T16:02:42Z</time></trkpt><trkpt lat="34.16422579433524" lon="-6.671837840178166"><ele>40.0</ele><time>2026-04-22T16:02:43Z</time></trkpt><trkpt lat="34.16400838062995" lon="-6.672043700463499"><ele>41.0</ele><time>2026-04-22T16:02:44Z</time></trkpt><trkpt lat="34.16379249816338" lon="-6.672246745480709"><ele>41.0</ele><time>2026-04-22T16:02:45Z</time></trkpt><trkpt lat="34.16357256973517" lon="-6.672446749764116"><ele>41.0</ele><time>2026-04-22T16:02:46Z</time></trkpt><trkpt lat="34.163344307102" lon="-6.672645307879428"><ele>41.0</ele><time>2026-04-22T16:02:47Z</time></trkpt><trkpt lat="34.16311509771381" lon="-6.6728446472716065"><ele>41.0</ele><time>2026-04-22T16:02:48Z</time></trkpt><trkpt lat="34.162880499622524" lon="-6.673042225032222"><ele>41.0</ele><time>2026-04-22T16:02:49Z</time></trkpt><trkpt lat="34.16264009196906" lon="-6.673244057159747"><ele>41.0</ele><time>2026-04-22T16:02:50Z</time></trkpt><trkpt lat="34.162395379158774" lon="-6.673446099369462"><ele>40.0</ele><time>2026-04-22T16:02:51Z</time></trkpt><trkpt lat="34.162144109153566" lon="-6.673649251452074"><ele>39.0</ele><time>2026-04-22T16:02:52Z</time></trkpt><trkpt lat="34.16188474377439" lon="-6.673854281375788"><ele>39.0</ele><time>2026-04-22T16:02:53Z</time></trkpt><trkpt lat="34.16161701301358" lon="-6.674059041718457"><ele>39.0</ele><time>2026-04-22T16:02:54Z</time></trkpt><trkpt lat="34.16134226326002" lon="-6.674261048100821"><ele>41.0</ele><time>2026-04-22T16:02:55Z</time></trkpt><trkpt lat="34.16106190036903" lon="-6.674459838063505"><ele>43.0</ele><time>2026-04-22T16:02:56Z</time></trkpt><trkpt lat="34.16077683328979" lon="-6.674657627710909"><ele>42.0</ele><time>2026-04-22T16:02:57Z</time></trkpt><trkpt lat="34.16048734173549" lon="-6.674854363752129"><ele>41.0</ele><time>2026-04-22T16:02:58Z</time></trkpt><trkpt lat="34.16019364082252" lon="-6.675048048470082"><ele>41.0</ele><time>2026-04-22T16:02:59Z</time></trkpt><trkpt lat="34.15989496672732" lon="-6.675237280895557"><ele>41.0</ele><time>2026-04-22T16:03:00Z</time></trkpt><trkpt lat="34.15959509255413" lon="-6.675419900108193"><ele>41.5</ele><time>2026-04-22T16:03:01Z</time></trkpt><trkpt lat="34.15929631246101" lon="-6.675595389176899"><ele>42.0</ele><time>2026-04-22T16:03:02Z</time></trkpt><trkpt lat="34.159003818671636" lon="-6.675763368343234"><ele>42.5</ele><time>2026-04-22T16:03:03Z</time></trkpt><trkpt lat="34.15871412564546" lon="-6.675924501925979"><ele>43.0</ele><time>2026-04-22T16:03:04Z</time></trkpt><trkpt lat="34.15842665524529" lon="-6.676079669436827"><ele>43.5</ele><time>2026-04-22T16:03:05Z</time></trkpt><trkpt lat="34.158138914539734" lon="-6.676231185628748"><ele>44.0</ele><time>2026-04-22T16:03:06Z</time></trkpt><trkpt lat="34.157844466956256" lon="-6.676381496585165"><ele>44.0</ele><time>2026-04-22T16:03:07Z</time></trkpt><trkpt lat="34.15754427625765" lon="-6.67653308820392"><ele>44.0</ele><time>2026-04-22T16:03:08Z</time></trkpt><trkpt lat="34.15724165681149" lon="-6.676678987898583"><ele>44.0</ele><time>2026-04-22T16:03:09Z</time></trkpt><trkpt lat="34.156934460995814" lon="-6.676822171525534"><ele>44.0</ele><time>2026-04-22T16:03:10Z</time></trkpt><trkpt lat="34.156623739713204" lon="-6.676958943612452"><ele>43.0</ele><time>2026-04-22T16:03:11Z</time></trkpt><trkpt lat="34.156313200331304" lon="-6.6770929403136785"><ele>42.0</ele><time>2026-04-22T16:03:12Z</time></trkpt><trkpt lat="34.15600024655198" lon="-6.677223404829463"><ele>44.0</ele><time>2026-04-22T16:03:12.999Z</time></trkpt><trkpt lat="34.155685194243496" lon="-6.677348356838627"><ele>46.0</ele><time>2026-04-22T16:03:13.999Z</time></trkpt><trkpt lat="34.155368732487354" lon="-6.677469224214493"><ele>46.0</ele><time>2026-04-22T16:03:14.999Z</time></trkpt><trkpt lat="34.15504764562525" lon="-6.677586691936075"><ele>46.0</ele><time>2026-04-22T16:03:15.999Z</time></trkpt><trkpt lat="34.15471939417622" lon="-6.677701947406525"><ele>47.0</ele><time>2026-04-22T16:03:16.999Z</time></trkpt><trkpt lat="34.15438911340131" lon="-6.677812090447052"><ele>48.0</ele><time>2026-04-22T16:03:17.999Z</time></trkpt><trkpt lat="34.15406059183725" lon="-6.677918134812641"><ele>48.5</ele><time>2026-04-22T16:03:18.999Z</time></trkpt><trkpt lat="34.15373592724759" lon="-6.678019341637095"><ele>49.0</ele><time>2026-04-22T16:03:19.999Z</time></trkpt><trkpt lat="34.153415426791376" lon="-6.6781181151417695"><ele>49.5</ele><time>2026-04-22T16:03:20.999Z</time></trkpt><trkpt lat="34.15310232862388" lon="-6.678214453075015"><ele>50.0</ele><time>2026-04-22T16:03:21.999Z</time></trkpt><trkpt lat="34.152787351554316" lon="-6.67831756563803"><ele>50.0</ele><time>2026-04-22T16:03:22.999Z</time></trkpt><trkpt lat="34.152467253932116" lon="-6.67841676193354"><ele>50.0</ele><time>2026-04-22T16:03:23.999Z</time></trkpt><trkpt lat="34.152145868604485" lon="-6.678518084715429"><ele>50.0</ele><time>2026-04-22T16:03:24.999Z</time></trkpt><trkpt lat="34.1518244105616" lon="-6.678619366050963"><ele>50.0</ele><time>2026-04-22T16:03:25.999Z</time></trkpt><trkpt lat="34.151500963902" lon="-6.6787223399247635"><ele>49.5</ele><time>2026-04-22T16:03:26.999Z</time></trkpt><trkpt lat="34.151177280879196" lon="-6.6788236857735415"><ele>49.0</ele><time>2026-04-22T16:03:27.999Z</time></trkpt><trkpt lat="34.15085128014263" lon="-6.678923328526022"><ele>50.0</ele><time>2026-04-22T16:03:28.999Z</time></trkpt><trkpt lat="34.15052449003723" lon="-6.6790197515013485"><ele>51.0</ele><time>2026-04-22T16:03:29.999Z</time></trkpt><trkpt lat="34.15019650066032" lon="-6.679115101478024"><ele>51.0</ele><time>2026-04-22T16:03:30.999Z</time></trkpt><trkpt lat="34.14986772607881" lon="-6.6792112620175725"><ele>51.0</ele><time>2026-04-22T16:03:31.999Z</time></trkpt><trkpt lat="34.149541511417866" lon="-6.679308300259491"><ele>51.0</ele><time>2026-04-22T16:03:32.999Z</time></trkpt><trkpt lat="34.149216699553406" lon="-6.679407204165841"><ele>51.0</ele><time>2026-04-22T16:03:33.999Z</time></trkpt><trkpt lat="34.14889082587423" lon="-6.679509667568111"><ele>53.0</ele><time>2026-04-22T16:03:34.999Z</time></trkpt><trkpt lat="34.14856384603048" lon="-6.679611639582571"><ele>55.0</ele><time>2026-04-22T16:03:35.999Z</time></trkpt><trkpt lat="34.14823689842191" lon="-6.679711847770832"><ele>54.5</ele><time>2026-04-22T16:03:36.999Z</time></trkpt><trkpt lat="34.147909740039445" lon="-6.679810224589003"><ele>54.0</ele><time>2026-04-22T16:03:37.999Z</time></trkpt><trkpt lat="34.147583410992524" lon="-6.679908613716828"><ele>54.5</ele><time>2026-04-22T16:03:38.999Z</time></trkpt><trkpt lat="34.1472562379976" lon="-6.6800055636399716"><ele>55.0</ele><time>2026-04-22T16:03:39.999Z</time></trkpt><trkpt lat="34.14692827543549" lon="-6.6801027211755075"><ele>55.0</ele><time>2026-04-22T16:03:40.999Z</time></trkpt><trkpt lat="34.14659951561801" lon="-6.680200612721018"><ele>55.0</ele><time>2026-04-22T16:03:41.999Z</time></trkpt><trkpt lat="34.14627074107308" lon="-6.680299083558739"><ele>56.0</ele><time>2026-04-22T16:03:42.999Z</time></trkpt><trkpt lat="34.145944523501846" lon="-6.6803974298485915"><ele>57.0</ele><time>2026-04-22T16:03:43.999Z</time></trkpt><trkpt lat="34.14561691113551" lon="-6.6804951284449325"><ele>57.0</ele><time>2026-04-22T16:03:44.999Z</time></trkpt><trkpt lat="34.14529340669981" lon="-6.680591452243264"><ele>57.0</ele><time>2026-04-22T16:03:45.999Z</time></trkpt><trkpt lat="34.14497590896382" lon="-6.680685030859651"><ele>57.5</ele><time>2026-04-22T16:03:46.999Z</time></trkpt><trkpt lat="34.14466506634663" lon="-6.680777882737941"><ele>58.0</ele><time>2026-04-22T16:03:47.999Z</time></trkpt><trkpt lat="34.144360182082586" lon="-6.6808685918259"><ele>58.0</ele><time>2026-04-22T16:03:48.999Z</time></trkpt><trkpt lat="34.14406049722777" lon="-6.6809576833924895"><ele>58.0</ele><time>2026-04-22T16:03:49.999Z</time></trkpt><trkpt lat="34.143764312270946" lon="-6.681045821717472"><ele>58.5</ele><time>2026-04-22T16:03:50.999Z</time></trkpt><trkpt lat="34.143474884353864" lon="-6.68113137625503"><ele>59.0</ele><time>2026-04-22T16:03:51.999Z</time></trkpt><trkpt lat="34.14318781406594" lon="-6.681215918070408"><ele>60.0</ele><time>2026-04-22T16:03:52.999Z</time></trkpt><trkpt lat="34.14290596956529" lon="-6.681299036410241"><ele>61.0</ele><time>2026-04-22T16:03:53.999Z</time></trkpt><trkpt lat="34.1426365006729" lon="-6.681378304284496"><ele>61.0</ele><time>2026-04-22T16:03:54.999Z</time></trkpt><trkpt lat="34.14236830344317" lon="-6.681456196055568"><ele>61.0</ele><time>2026-04-22T16:03:55.999Z</time></trkpt><trkpt lat="34.14209503733953" lon="-6.681536003702418"><ele>61.0</ele><time>2026-04-22T16:03:56.999Z</time></trkpt><trkpt lat="34.141820463354186" lon="-6.681616238610597"><ele>61.0</ele><time>2026-04-22T16:03:57.999Z</time></trkpt><trkpt lat="34.141541759012654" lon="-6.681697633019757"><ele>60.5</ele><time>2026-04-22T16:03:58.999Z</time></trkpt><trkpt lat="34.14125789172465" lon="-6.681786239927043"><ele>60.0</ele><time>2026-04-22T16:03:59.999Z</time></trkpt><trkpt lat="34.14096885837313" lon="-6.681878956979048"><ele>61.5</ele><time>2026-04-22T16:04:00.999Z</time></trkpt><trkpt lat="34.14067818229973" lon="-6.681970751789626"><ele>63.0</ele><time>2026-04-22T16:04:01.999Z</time></trkpt><trkpt lat="34.14038708000236" lon="-6.682061366938468"><ele>63.0</ele><time>2026-04-22T16:04:02.999Z</time></trkpt><trkpt lat="34.14009592971921" lon="-6.68214880420638"><ele>63.0</ele><time>2026-04-22T16:04:03.999Z</time></trkpt><trkpt lat="34.13980122803782" lon="-6.682234646898443"><ele>62.0</ele><time>2026-04-22T16:04:04.999Z</time></trkpt><trkpt lat="34.13950336889538" lon="-6.682320987213636"><ele>61.0</ele><time>2026-04-22T16:04:05.999Z</time></trkpt><trkpt lat="34.1392062896278" lon="-6.682407488567638"><ele>60.5</ele><time>2026-04-22T16:04:06.999Z</time></trkpt><trkpt lat="34.138910871728015" lon="-6.6824945391849875"><ele>60.0</ele><time>2026-04-22T16:04:07.999Z</time></trkpt><trkpt lat="34.13861804638054" lon="-6.682582902569687"><ele>60.0</ele><time>2026-04-22T16:04:08.999Z</time></trkpt><trkpt lat="34.13833007908666" lon="-6.68266998462102"><ele>60.0</ele><time>2026-04-22T16:04:09.999Z</time></trkpt><trkpt lat="34.138044704231824" lon="-6.682755552096423"><ele>61.5</ele><time>2026-04-22T16:04:10.999Z</time></trkpt><trkpt lat="34.13776272809851" lon="-6.682837953896143"><ele>63.0</ele><time>2026-04-22T16:04:11.999Z</time></trkpt><trkpt lat="34.13748404496522" lon="-6.6829179808056765"><ele>60.5</ele><time>2026-04-22T16:04:12.999Z</time></trkpt><trkpt lat="34.13720146213757" lon="-6.6830033417396"><ele>58.0</ele><time>2026-04-22T16:04:13.999Z</time></trkpt><trkpt lat="34.13692186551162" lon="-6.68308804754282"><ele>58.0</ele><time>2026-04-22T16:04:14.999Z</time></trkpt><trkpt lat="34.13664570844246" lon="-6.683172312908226"><ele>58.0</ele><time>2026-04-22T16:04:15.999Z</time></trkpt><trkpt lat="34.136371437293725" lon="-6.683255656942801"><ele>57.0</ele><time>2026-04-22T16:04:16.999Z</time></trkpt><trkpt lat="34.13609707600308" lon="-6.683337764645221"><ele>56.0</ele><time>2026-04-22T16:04:17.999Z</time></trkpt><trkpt lat="34.13581928472173" lon="-6.683422784858173"><ele>55.5</ele><time>2026-04-22T16:04:19Z</time></trkpt><trkpt lat="34.135538284453474" lon="-6.683508853299244"><ele>55.0</ele><time>2026-04-22T16:04:20Z</time></trkpt><trkpt lat="34.13525325629023" lon="-6.68359443034316"><ele>55.0</ele><time>2026-04-22T16:04:21Z</time></trkpt><trkpt lat="34.134959646373034" lon="-6.683683083498936"><ele>55.0</ele><time>2026-04-22T16:04:22Z</time></trkpt><trkpt lat="34.13466612673249" lon="-6.683770651576851"><ele>55.5</ele><time>2026-04-22T16:04:23Z</time></trkpt><trkpt lat="34.13437550672245" lon="-6.683857582520739"><ele>56.0</ele><time>2026-04-22T16:04:24Z</time></trkpt><trkpt lat="34.134088406486114" lon="-6.683943213102846"><ele>55.5</ele><time>2026-04-22T16:04:25Z</time></trkpt><trkpt lat="34.133804813123646" lon="-6.684029047508826"><ele>55.0</ele><time>2026-04-22T16:04:26Z</time></trkpt><trkpt lat="34.13352506994452" lon="-6.684113583486822"><ele>55.0</ele><time>2026-04-22T16:04:27Z</time></trkpt><trkpt lat="34.13324851158451" lon="-6.684197646179372"><ele>55.0</ele><time>2026-04-22T16:04:28Z</time></trkpt><trkpt lat="34.13297605047674" lon="-6.684278302556873"><ele>55.0</ele><time>2026-04-22T16:04:29Z</time></trkpt><trkpt lat="34.13271482395003" lon="-6.6843541442982595"><ele>55.0</ele><time>2026-04-22T16:04:30Z</time></trkpt><trkpt lat="34.13245594999485" lon="-6.68442885573646"><ele>54.0</ele><time>2026-04-22T16:04:31Z</time></trkpt><trkpt lat="34.13219398995178" lon="-6.684505628291393"><ele>53.0</ele><time>2026-04-22T16:04:32Z</time></trkpt><trkpt lat="34.13192898060563" lon="-6.684586066465394"><ele>53.0</ele><time>2026-04-22T16:04:33Z</time></trkpt><trkpt lat="34.131664197662644" lon="-6.684669151492448"><ele>53.0</ele><time>2026-04-22T16:04:34Z</time></trkpt><trkpt lat="34.1314013016961" lon="-6.684751137144954"><ele>53.5</ele><time>2026-04-22T16:04:35Z</time></trkpt><trkpt lat="34.13114243528481" lon="-6.684831937264014"><ele>54.0</ele><time>2026-04-22T16:04:36Z</time></trkpt><trkpt lat="34.13088296586382" lon="-6.684913067142266"><ele>54.5</ele><time>2026-04-22T16:04:37Z</time></trkpt><trkpt lat="34.13062066932161" lon="-6.684993131789773"><ele>55.0</ele><time>2026-04-22T16:04:38Z</time></trkpt><trkpt lat="34.13035539594555" lon="-6.685072267253648"><ele>55.0</ele><time>2026-04-22T16:04:39Z</time></trkpt><trkpt lat="34.13009151107383" lon="-6.685150831407079"><ele>55.0</ele><time>2026-04-22T16:04:40Z</time></trkpt><trkpt lat="34.12982415907158" lon="-6.685232247240069"><ele>56.0</ele><time>2026-04-22T16:04:41Z</time></trkpt><trkpt lat="34.12955317411752" lon="-6.685313461263996"><ele>57.0</ele><time>2026-04-22T16:04:42Z</time></trkpt><trkpt lat="34.129280329507075" lon="-6.685392944721956"><ele>57.5</ele><time>2026-04-22T16:04:43Z</time></trkpt><trkpt lat="34.1290064161922" lon="-6.685473036972735"><ele>58.0</ele><time>2026-04-22T16:04:44Z</time></trkpt><trkpt lat="34.12873273764092" lon="-6.68555409918054"><ele>58.0</ele><time>2026-04-22T16:04:45Z</time></trkpt><trkpt lat="34.12845618092944" lon="-6.685637272483605"><ele>58.0</ele><time>2026-04-22T16:04:46Z</time></trkpt><trkpt lat="34.12818365975617" lon="-6.685719368565472"><ele>59.0</ele><time>2026-04-22T16:04:47Z</time></trkpt><trkpt lat="34.12791538195212" lon="-6.685799194512241"><ele>60.0</ele><time>2026-04-22T16:04:48Z</time></trkpt><trkpt lat="34.12765013775958" lon="-6.685877688723619"><ele>60.5</ele><time>2026-04-22T16:04:49Z</time></trkpt><trkpt lat="34.12738822765167" lon="-6.685954643772676"><ele>61.0</ele><time>2026-04-22T16:04:50Z</time></trkpt><trkpt lat="34.127130186103315" lon="-6.686031652629282"><ele>60.5</ele><time>2026-04-22T16:04:51Z</time></trkpt><trkpt lat="34.12687667683925" lon="-6.686106421156102"><ele>60.0</ele><time>2026-04-22T16:04:52Z</time></trkpt><trkpt lat="34.126628036523904" lon="-6.686181086420257"><ele>60.0</ele><time>2026-04-22T16:04:53Z</time></trkpt><trkpt lat="34.12638082144235" lon="-6.686255327050679"><ele>60.0</ele><time>2026-04-22T16:04:54Z</time></trkpt><trkpt lat="34.12613581621132" lon="-6.686327767253008"><ele>60.0</ele><time>2026-04-22T16:04:55Z</time></trkpt><trkpt lat="34.12588926835032" lon="-6.686400571428653"><ele>60.0</ele><time>2026-04-22T16:04:56Z</time></trkpt><trkpt lat="34.12564124151637" lon="-6.686472511770558"><ele>60.5</ele><time>2026-04-22T16:04:57Z</time></trkpt><trkpt lat="34.125394724654775" lon="-6.686543690099878"><ele>61.0</ele><time>2026-04-22T16:04:58Z</time></trkpt><trkpt lat="34.125149267011615" lon="-6.686617319808195"><ele>61.0</ele><time>2026-04-22T16:04:59Z</time></trkpt><trkpt lat="34.12490350653992" lon="-6.686692933619149"><ele>61.0</ele><time>2026-04-22T16:05:00Z</time></trkpt><trkpt lat="34.12465918637076" lon="-6.68676703143409"><ele>63.0</ele><time>2026-04-22T16:05:01Z</time></trkpt><trkpt lat="34.12441644046397" lon="-6.686840129369913"><ele>65.0</ele><time>2026-04-22T16:05:02Z</time></trkpt><trkpt lat="34.12417538799869" lon="-6.686912316617174"><ele>65.0</ele><time>2026-04-22T16:05:03Z</time></trkpt><trkpt lat="34.12393141521518" lon="-6.686984548223144"><ele>65.0</ele><time>2026-04-22T16:05:04Z</time></trkpt><trkpt lat="34.12368902704984" lon="-6.687055116750646"><ele>65.0</ele><time>2026-04-22T16:05:05Z</time></trkpt><trkpt lat="34.12344610538385" lon="-6.687127879867782"><ele>65.0</ele><time>2026-04-22T16:05:06Z</time></trkpt><trkpt lat="34.12320213719111" lon="-6.687200439448296"><ele>64.5</ele><time>2026-04-22T16:05:07Z</time></trkpt><trkpt lat="34.12295274383763" lon="-6.687273928145419"><ele>64.0</ele><time>2026-04-22T16:05:08Z</time></trkpt><trkpt lat="34.122699471878065" lon="-6.687349993812818"><ele>64.0</ele><time>2026-04-22T16:05:09Z</time></trkpt><trkpt lat="34.12244641848031" lon="-6.687425007945593"><ele>64.0</ele><time>2026-04-22T16:05:10Z</time></trkpt><trkpt lat="34.12218783827527" lon="-6.687499677478951"><ele>65.0</ele><time>2026-04-22T16:05:11Z</time></trkpt><trkpt lat="34.12192168572671" lon="-6.687574482807762"><ele>66.0</ele><time>2026-04-22T16:05:12Z</time></trkpt><trkpt lat="34.121648366637956" lon="-6.6876497037045155"><ele>67.5</ele><time>2026-04-22T16:05:12.999Z</time></trkpt><trkpt lat="34.121369186500324" lon="-6.687720570461891"><ele>69.0</ele><time>2026-04-22T16:05:13.999Z</time></trkpt><trkpt lat="34.121088092041006" lon="-6.6877883147365536"><ele>69.0</ele><time>2026-04-22T16:05:14.999Z</time></trkpt><trkpt lat="34.12080445354709" lon="-6.687854246126348"><ele>69.0</ele><time>2026-04-22T16:05:15.999Z</time></trkpt><trkpt lat="34.12052223852648" lon="-6.687910456667849"><ele>68.5</ele><time>2026-04-22T16:05:16.999Z</time></trkpt><trkpt lat="34.1202373864867" lon="-6.687959077729626"><ele>68.0</ele><time>2026-04-22T16:05:17.999Z</time></trkpt><trkpt lat="34.11995234273281" lon="-6.688006034151698"><ele>69.5</ele><time>2026-04-22T16:05:18.999Z</time></trkpt><trkpt lat="34.11966518946171" lon="-6.68804628186611"><ele>71.0</ele><time>2026-04-22T16:05:19.999Z</time></trkpt><trkpt lat="34.11938017260504" lon="-6.688083774083622"><ele>71.0</ele><time>2026-04-22T16:05:20.999Z</time></trkpt><trkpt lat="34.119094255547964" lon="-6.688116808526297"><ele>71.0</ele><time>2026-04-22T16:05:21.999Z</time></trkpt><trkpt lat="34.118809486482434" lon="-6.688144762689985"><ele>71.5</ele><time>2026-04-22T16:05:22.999Z</time></trkpt><trkpt lat="34.118526484376254" lon="-6.6881692180733205"><ele>72.0</ele><time>2026-04-22T16:05:23.999Z</time></trkpt><trkpt lat="34.118242401090846" lon="-6.688184556192058"><ele>72.0</ele><time>2026-04-22T16:05:24.999Z</time></trkpt><trkpt lat="34.117958901711994" lon="-6.688193613348826"><ele>72.0</ele><time>2026-04-22T16:05:25.999Z</time></trkpt><trkpt lat="34.11766950674666" lon="-6.68819641933769"><ele>72.5</ele><time>2026-04-22T16:05:26.999Z</time></trkpt><trkpt lat="34.117378675683895" lon="-6.688193831530134"><ele>73.0</ele><time>2026-04-22T16:05:27.999Z</time></trkpt><trkpt lat="34.11709866951465" lon="-6.688184724073297"><ele>73.0</ele><time>2026-04-22T16:05:28.999Z</time></trkpt><trkpt lat="34.116830221215" lon="-6.688173304248122"><ele>73.0</ele><time>2026-04-22T16:05:29.999Z</time></trkpt><trkpt lat="34.11657066872118" lon="-6.688160345020306"><ele>73.0</ele><time>2026-04-22T16:05:30.999Z</time></trkpt><trkpt lat="34.11630784937623" lon="-6.688144011372733"><ele>73.0</ele><time>2026-04-22T16:05:31.999Z</time></trkpt><trkpt lat="34.11603841256806" lon="-6.688119685216482"><ele>73.0</ele><time>2026-04-22T16:05:32.999Z</time></trkpt><trkpt lat="34.11576580704069" lon="-6.688088050076412"><ele>73.0</ele><time>2026-04-22T16:05:33.999Z</time></trkpt><trkpt lat="34.11549552589414" lon="-6.688051311307111"><ele>73.0</ele><time>2026-04-22T16:05:34.999Z</time></trkpt><trkpt lat="34.115228169105855" lon="-6.688010731026339"><ele>73.0</ele><time>2026-04-22T16:05:35.999Z</time></trkpt><trkpt lat="34.11496250834709" lon="-6.687965552348527"><ele>72.5</ele><time>2026-04-22T16:05:36.999Z</time></trkpt><trkpt lat="34.11469502892329" lon="-6.6879147702896455"><ele>72.0</ele><time>2026-04-22T16:05:37.999Z</time></trkpt><trkpt lat="34.114429399558034" lon="-6.687860664220452"><ele>72.0</ele><time>2026-04-22T16:05:38.999Z</time></trkpt><trkpt lat="34.1141604729234" lon="-6.687804069066789"><ele>72.0</ele><time>2026-04-22T16:05:39.999Z</time></trkpt><trkpt lat="34.113886836501784" lon="-6.687742610021511"><ele>73.5</ele><time>2026-04-22T16:05:40.999Z</time></trkpt><trkpt lat="34.11361012900674" lon="-6.687675239567949"><ele>75.0</ele><time>2026-04-22T16:05:41.999Z</time></trkpt><trkpt lat="34.11333065825783" lon="-6.687603599650733"><ele>75.5</ele><time>2026-04-22T16:05:42.999Z</time></trkpt><trkpt lat="34.11305008803259" lon="-6.687529919922817"><ele>76.0</ele><time>2026-04-22T16:05:43.999Z</time></trkpt><trkpt lat="34.11276888287847" lon="-6.687455972757923"><ele>76.0</ele><time>2026-04-22T16:05:44.999Z</time></trkpt><trkpt lat="34.11248270272948" lon="-6.687376601530046"><ele>76.0</ele><time>2026-04-22T16:05:45.999Z</time></trkpt><trkpt lat="34.11219373603329" lon="-6.6872930237555135"><ele>76.5</ele><time>2026-04-22T16:05:46.999Z</time></trkpt><trkpt lat="34.11190406938098" lon="-6.687208078478078"><ele>77.0</ele><time>2026-04-22T16:05:47.999Z</time></trkpt><trkpt lat="34.11161218036658" lon="-6.687121616178121"><ele>78.0</ele><time>2026-04-22T16:05:48.999Z</time></trkpt><trkpt lat="34.111322788666115" lon="-6.687036022691198"><ele>79.0</ele><time>2026-04-22T16:05:49.999Z</time></trkpt><trkpt lat="34.1110358563558" lon="-6.686951582703201"><ele>79.0</ele><time>2026-04-22T16:05:50.999Z</time></trkpt><trkpt lat="34.11074917065412" lon="-6.686869083224279"><ele>79.0</ele><time>2026-04-22T16:05:51.999Z</time></trkpt><trkpt lat="34.110465124305186" lon="-6.686786877107948"><ele>78.5</ele><time>2026-04-22T16:05:52.999Z</time></trkpt><trkpt lat="34.11018483416492" lon="-6.686704985057472"><ele>78.0</ele><time>2026-04-22T16:05:53.999Z</time></trkpt><trkpt lat="34.10990303341458" lon="-6.686625449933304"><ele>79.5</ele><time>2026-04-22T16:05:54.999Z</time></trkpt><trkpt lat="34.10962181574016" lon="-6.686546869561955"><ele>81.0</ele><time>2026-04-22T16:05:55.999Z</time></trkpt><trkpt lat="34.10934058686767" lon="-6.686468337848879"><ele>82.5</ele><time>2026-04-22T16:05:56.999Z</time></trkpt><trkpt lat="34.10906363384449" lon="-6.686389195367926"><ele>84.0</ele><time>2026-04-22T16:05:57.999Z</time></trkpt><trkpt lat="34.10878794566252" lon="-6.686309698976439"><ele>84.0</ele><time>2026-04-22T16:05:58.999Z</time></trkpt><trkpt lat="34.10851439705754" lon="-6.686229198732763"><ele>84.0</ele><time>2026-04-22T16:05:59.999Z</time></trkpt><trkpt lat="34.10824307488727" lon="-6.686148017967403"><ele>83.5</ele><time>2026-04-22T16:06:00.999Z</time></trkpt><trkpt lat="34.10796969090196" lon="-6.686067682178139"><ele>83.0</ele><time>2026-04-22T16:06:01.999Z</time></trkpt><trkpt lat="34.1076937981815" lon="-6.685986742244848"><ele>83.0</ele><time>2026-04-22T16:06:02.999Z</time></trkpt><trkpt lat="34.10741990482898" lon="-6.685907905028901"><ele>83.0</ele><time>2026-04-22T16:06:03.999Z</time></trkpt><trkpt lat="34.107145462089164" lon="-6.68582996422378"><ele>84.5</ele><time>2026-04-22T16:06:04.999Z</time></trkpt><trkpt lat="34.10687253360114" lon="-6.68575282187669"><ele>86.0</ele><time>2026-04-22T16:06:05.999Z</time></trkpt><trkpt lat="34.10659814934468" lon="-6.685675176626346"><ele>86.0</ele><time>2026-04-22T16:06:06.999Z</time></trkpt><trkpt lat="34.106319277737306" lon="-6.685594126544549"><ele>86.0</ele><time>2026-04-22T16:06:07.999Z</time></trkpt><trkpt lat="34.106040199726316" lon="-6.6855118812467955"><ele>86.0</ele><time>2026-04-22T16:06:08.999Z</time></trkpt><trkpt lat="34.10575834400746" lon="-6.685428777171681"><ele>86.0</ele><time>2026-04-22T16:06:09.999Z</time></trkpt><trkpt lat="34.105475660389736" lon="-6.685346905712241"><ele>86.5</ele><time>2026-04-22T16:06:10.999Z</time></trkpt><trkpt lat="34.10519351221052" lon="-6.685266224862592"><ele>87.0</ele><time>2026-04-22T16:06:11.999Z</time></trkpt><trkpt lat="34.10491181222967" lon="-6.6851850417589835"><ele>87.0</ele><time>2026-04-22T16:06:12.999Z</time></trkpt><trkpt lat="34.104629273965266" lon="-6.685104159812268"><ele>87.0</ele><time>2026-04-22T16:06:13.999Z</time></trkpt><trkpt lat="34.104343764278894" lon="-6.6850270495833675"><ele>86.5</ele><time>2026-04-22T16:06:14.999Z</time></trkpt><trkpt lat="34.10404825427414" lon="-6.684960181554373"><ele>86.0</ele><time>2026-04-22T16:06:15.999Z</time></trkpt><trkpt lat="34.10375324888547" lon="-6.684900535550621"><ele>86.0</ele><time>2026-04-22T16:06:16.999Z</time></trkpt><trkpt lat="34.10346128930354" lon="-6.684850836507172"><ele>86.0</ele><time>2026-04-22T16:06:17.999Z</time></trkpt><trkpt lat="34.10317044076334" lon="-6.684809807379353"><ele>86.5</ele><time>2026-04-22T16:06:18.999Z</time></trkpt><trkpt lat="34.10288092980242" lon="-6.684772587699595"><ele>87.0</ele><time>2026-04-22T16:06:19.999Z</time></trkpt><trkpt lat="34.10259167099363" lon="-6.684737283199339"><ele>88.5</ele><time>2026-04-22T16:06:20.999Z</time></trkpt><trkpt lat="34.102303792448254" lon="-6.6847062595316595"><ele>90.0</ele><time>2026-04-22T16:06:21.999Z</time></trkpt><trkpt lat="34.10201627500443" lon="-6.6846819596414635"><ele>90.0</ele><time>2026-04-22T16:06:22.999Z</time></trkpt><trkpt lat="34.10172856331828" lon="-6.684667461368745"><ele>90.0</ele><time>2026-04-22T16:06:24Z</time></trkpt><trkpt lat="34.10144000895236" lon="-6.684665946048938"><ele>91.5</ele><time>2026-04-22T16:06:25Z</time></trkpt><trkpt lat="34.10115288983333" lon="-6.684672731855698"><ele>93.0</ele><time>2026-04-22T16:06:26Z</time></trkpt><trkpt lat="34.1008690689981" lon="-6.684681749761399"><ele>92.0</ele><time>2026-04-22T16:06:27Z</time></trkpt><trkpt lat="34.10058797307187" lon="-6.684688393940882"><ele>91.0</ele><time>2026-04-22T16:06:28Z</time></trkpt><trkpt lat="34.10030898494273" lon="-6.684693077264836"><ele>91.0</ele><time>2026-04-22T16:06:29Z</time></trkpt><trkpt lat="34.10003415407653" lon="-6.684702875928357"><ele>91.0</ele><time>2026-04-22T16:06:30Z</time></trkpt><trkpt lat="34.09976380531245" lon="-6.684719831958755"><ele>89.0</ele><time>2026-04-22T16:06:31Z</time></trkpt><trkpt lat="34.09949664598008" lon="-6.684745000073095"><ele>87.0</ele><time>2026-04-22T16:06:32Z</time></trkpt><trkpt lat="34.099233406723556" lon="-6.684773942259803"><ele>87.0</ele><time>2026-04-22T16:06:33Z</time></trkpt><trkpt lat="34.098974335852716" lon="-6.684803914394903"><ele>87.0</ele><time>2026-04-22T16:06:34Z</time></trkpt><trkpt lat="34.09871816012152" lon="-6.6848378391448335"><ele>87.0</ele><time>2026-04-22T16:06:35Z</time></trkpt><trkpt lat="34.09845839002634" lon="-6.6848760074299465"><ele>87.0</ele><time>2026-04-22T16:06:36Z</time></trkpt><trkpt lat="34.098189424057665" lon="-6.684919378740829"><ele>87.5</ele><time>2026-04-22T16:06:37Z</time></trkpt><trkpt lat="34.09791420784899" lon="-6.684971648523505"><ele>88.0</ele><time>2026-04-22T16:06:38Z</time></trkpt><trkpt lat="34.09763602453832" lon="-6.685032762911296"><ele>88.0</ele><time>2026-04-22T16:06:39Z</time></trkpt><trkpt lat="34.09735634581029" lon="-6.68509873042726"><ele>88.0</ele><time>2026-04-22T16:06:40Z</time></trkpt><trkpt lat="34.09707672030577" lon="-6.685169785389504"><ele>88.0</ele><time>2026-04-22T16:06:41Z</time></trkpt><trkpt lat="34.096796728668394" lon="-6.685244260899304"><ele>88.0</ele><time>2026-04-22T16:06:42Z</time></trkpt><trkpt lat="34.09651741173707" lon="-6.685326487960849"><ele>88.0</ele><time>2026-04-22T16:06:43Z</time></trkpt><trkpt lat="34.09624022499269" lon="-6.685417977331856"><ele>88.0</ele><time>2026-04-22T16:06:44Z</time></trkpt><trkpt lat="34.095962230417186" lon="-6.685515466087024"><ele>88.5</ele><time>2026-04-22T16:06:45Z</time></trkpt><trkpt lat="34.09568308442685" lon="-6.685615235797479"><ele>89.0</ele><time>2026-04-22T16:06:46Z</time></trkpt><trkpt lat="34.09540404102986" lon="-6.685721671972414"><ele>89.0</ele><time>2026-04-22T16:06:47Z</time></trkpt><trkpt lat="34.095128140098176" lon="-6.685833522743843"><ele>89.0</ele><time>2026-04-22T16:06:48Z</time></trkpt><trkpt lat="34.09485438740096" lon="-6.685951506853362"><ele>89.0</ele><time>2026-04-22T16:06:49Z</time></trkpt><trkpt lat="34.09458194511079" lon="-6.68607508237733"><ele>89.0</ele><time>2026-04-22T16:06:50Z</time></trkpt><trkpt lat="34.09431474191591" lon="-6.6862017708611425"><ele>89.5</ele><time>2026-04-22T16:06:51Z</time></trkpt><trkpt lat="34.094058393746835" lon="-6.686328644532652"><ele>90.0</ele><time>2026-04-22T16:06:52Z</time></trkpt><trkpt lat="34.09381245387344" lon="-6.68645233747269"><ele>90.0</ele><time>2026-04-22T16:06:53Z</time></trkpt><trkpt lat="34.093576752396096" lon="-6.68657474576208"><ele>90.0</ele><time>2026-04-22T16:06:54Z</time></trkpt><trkpt lat="34.09335149091474" lon="-6.686696546107617"><ele>91.0</ele><time>2026-04-22T16:06:55Z</time></trkpt><trkpt lat="34.09313952418046" lon="-6.686816040202236"><ele>92.0</ele><time>2026-04-22T16:06:56Z</time></trkpt><trkpt lat="34.09293521234083" lon="-6.686935803228853"><ele>92.0</ele><time>2026-04-22T16:06:57Z</time></trkpt><trkpt lat="34.09273599584894" lon="-6.687058761596619"><ele>92.0</ele><time>2026-04-22T16:06:58Z</time></trkpt><trkpt lat="34.09253902412777" lon="-6.687184966194374"><ele>92.0</ele><time>2026-04-22T16:06:59Z</time></trkpt><trkpt lat="34.092341400616434" lon="-6.687316581479942"><ele>91.5</ele><time>2026-04-22T16:07:00Z</time></trkpt><trkpt lat="34.0921392946545" lon="-6.6874515129262155"><ele>91.0</ele><time>2026-04-22T16:07:01Z</time></trkpt><trkpt lat="34.091929737216" lon="-6.687595675773674"><ele>91.0</ele><time>2026-04-22T16:07:02Z</time></trkpt><trkpt lat="34.091716219934" lon="-6.687748681995509"><ele>91.0</ele><time>2026-04-22T16:07:03Z</time></trkpt><trkpt lat="34.0914953919069" lon="-6.6879132930382745"><ele>91.5</ele><time>2026-04-22T16:07:04Z</time></trkpt><trkpt lat="34.09127058573332" lon="-6.688087511236234"><ele>92.0</ele><time>2026-04-22T16:07:05Z</time></trkpt><trkpt lat="34.09103996635211" lon="-6.688273481412471"><ele>92.0</ele><time>2026-04-22T16:07:06Z</time></trkpt><trkpt lat="34.09081138016579" lon="-6.68846618649492"><ele>92.0</ele><time>2026-04-22T16:07:07Z</time></trkpt><trkpt lat="34.09058441533428" lon="-6.68867472431649"><ele>91.0</ele><time>2026-04-22T16:07:08Z</time></trkpt><trkpt lat="34.09035985234606" lon="-6.6888879626606546"><ele>90.0</ele><time>2026-04-22T16:07:09Z</time></trkpt><trkpt lat="34.09013399706069" lon="-6.6891041880262705"><ele>91.0</ele><time>2026-04-22T16:07:10Z</time></trkpt><trkpt lat="34.08990514483715" lon="-6.689319953395797"><ele>92.0</ele><time>2026-04-22T16:07:11Z</time></trkpt><trkpt lat="34.08967515106786" lon="-6.689534047069679"><ele>92.0</ele><time>2026-04-22T16:07:12Z</time></trkpt><trkpt lat="34.089444098834946" lon="-6.689747119249764"><ele>92.0</ele><time>2026-04-22T16:07:12.999Z</time></trkpt><trkpt lat="34.08921370519434" lon="-6.689960535364301"><ele>92.0</ele><time>2026-04-22T16:07:13.999Z</time></trkpt><trkpt lat="34.088983343258484" lon="-6.690175026799643"><ele>92.0</ele><time>2026-04-22T16:07:14.999Z</time></trkpt><trkpt lat="34.088752803593685" lon="-6.690389419177856"><ele>92.0</ele><time>2026-04-22T16:07:15.999Z</time></trkpt><trkpt lat="34.08852393291075" lon="-6.690605366580792"><ele>92.0</ele><time>2026-04-22T16:07:16.999Z</time></trkpt><trkpt lat="34.088294379087976" lon="-6.690822414678047"><ele>92.0</ele><time>2026-04-22T16:07:17.999Z</time></trkpt><trkpt lat="34.08806419239792" lon="-6.691036832655145"><ele>92.0</ele><time>2026-04-22T16:07:18.999Z</time></trkpt><trkpt lat="34.08783258209977" lon="-6.691247332785941"><ele>91.5</ele><time>2026-04-22T16:07:19.999Z</time></trkpt><trkpt lat="34.08760147691398" lon="-6.691458161905415"><ele>91.0</ele><time>2026-04-22T16:07:20.999Z</time></trkpt><trkpt lat="34.087369953659476" lon="-6.691670341908035"><ele>91.0</ele><time>2026-04-22T16:07:21.999Z</time></trkpt><trkpt lat="34.08713762523802" lon="-6.69188116359205"><ele>91.0</ele><time>2026-04-22T16:07:22.999Z</time></trkpt><trkpt lat="34.086905227551576" lon="-6.692092575203694"><ele>91.0</ele><time>2026-04-22T16:07:23.999Z</time></trkpt><trkpt lat="34.086672835318964" lon="-6.692304771364883"><ele>91.0</ele><time>2026-04-22T16:07:24.999Z</time></trkpt><trkpt lat="34.08644113930356" lon="-6.692518179779189"><ele>91.5</ele><time>2026-04-22T16:07:25.999Z</time></trkpt><trkpt lat="34.086208730098306" lon="-6.692732667657394"><ele>92.0</ele><time>2026-04-22T16:07:26.999Z</time></trkpt><trkpt lat="34.0859774357864" lon="-6.692946890641896"><ele>92.5</ele><time>2026-04-22T16:07:27.999Z</time></trkpt><trkpt lat="34.085747176493136" lon="-6.693162259554672"><ele>93.0</ele><time>2026-04-22T16:07:28.999Z</time></trkpt><trkpt lat="34.0855149865253" lon="-6.693377808084272"><ele>92.0</ele><time>2026-04-22T16:07:29.999Z</time></trkpt><trkpt lat="34.085283805674976" lon="-6.693591894851515"><ele>91.0</ele><time>2026-04-22T16:07:30.999Z</time></trkpt><trkpt lat="34.085050803383204" lon="-6.693802764178934"><ele>91.0</ele><time>2026-04-22T16:07:31.999Z</time></trkpt><trkpt lat="34.084817045806595" lon="-6.69400996259342"><ele>91.0</ele><time>2026-04-22T16:07:32.999Z</time></trkpt><trkpt lat="34.08458324314573" lon="-6.694218062960701"><ele>91.5</ele><time>2026-04-22T16:07:33.999Z</time></trkpt><trkpt lat="34.08434956710208" lon="-6.694428409617614"><ele>92.0</ele><time>2026-04-22T16:07:34.999Z</time></trkpt><trkpt lat="34.08411678123286" lon="-6.694641796904607"><ele>91.5</ele><time>2026-04-22T16:07:35.999Z</time></trkpt><trkpt lat="34.08388514910691" lon="-6.694858376149244"><ele>91.0</ele><time>2026-04-22T16:07:36.999Z</time></trkpt><trkpt lat="34.083653941838556" lon="-6.695072232110186"><ele>92.0</ele><time>2026-04-22T16:07:37.999Z</time></trkpt><trkpt lat="34.08342175612878" lon="-6.695288057568502"><ele>93.0</ele><time>2026-04-22T16:07:38.999Z</time></trkpt><trkpt lat="34.08319120159828" lon="-6.695504039046619"><ele>94.0</ele><time>2026-04-22T16:07:39.999Z</time></trkpt><trkpt lat="34.082962816756506" lon="-6.695719402895093"><ele>95.0</ele><time>2026-04-22T16:07:40.999Z</time></trkpt><trkpt lat="34.082735411783744" lon="-6.69593471270393"><ele>94.5</ele><time>2026-04-22T16:07:41.999Z</time></trkpt><trkpt lat="34.08250729590512" lon="-6.696149478469629"><ele>94.0</ele><time>2026-04-22T16:07:42.999Z</time></trkpt><trkpt lat="34.082278996358355" lon="-6.696362069532996"><ele>93.5</ele><time>2026-04-22T16:07:43.999Z</time></trkpt><trkpt lat="34.08204994034017" lon="-6.696573577850849"><ele>93.0</ele><time>2026-04-22T16:07:44.999Z</time></trkpt><trkpt lat="34.08182036041258" lon="-6.696785226435649"><ele>93.0</ele><time>2026-04-22T16:07:45.999Z</time></trkpt><trkpt lat="34.081590876279066" lon="-6.696998534438197"><ele>93.0</ele><time>2026-04-22T16:07:46.999Z</time></trkpt><trkpt lat="34.08136212118877" lon="-6.697211758194184"><ele>93.0</ele><time>2026-04-22T16:07:47.999Z</time></trkpt><trkpt lat="34.081132226627204" lon="-6.697424608301539"><ele>93.0</ele><time>2026-04-22T16:07:48.999Z</time></trkpt><trkpt lat="34.080901972362646" lon="-6.697637554217673"><ele>93.0</ele><time>2026-04-22T16:07:49.999Z</time></trkpt><trkpt lat="34.08067028968706" lon="-6.697850287807559"><ele>93.0</ele><time>2026-04-22T16:07:50.999Z</time></trkpt><trkpt lat="34.080437699478594" lon="-6.6980608375914725"><ele>93.0</ele><time>2026-04-22T16:07:51.999Z</time></trkpt><trkpt lat="34.08020356619506" lon="-6.698268132446799"><ele>93.0</ele><time>2026-04-22T16:07:52.999Z</time></trkpt><trkpt lat="34.079969197833016" lon="-6.698476046667275"><ele>93.5</ele><time>2026-04-22T16:07:53.999Z</time></trkpt><trkpt lat="34.079735986587124" lon="-6.698687333735067"><ele>94.0</ele><time>2026-04-22T16:07:54.999Z</time></trkpt><trkpt lat="34.07950360546431" lon="-6.698899319128057"><ele>94.0</ele><time>2026-04-22T16:07:55.999Z</time></trkpt><trkpt lat="34.079270841010526" lon="-6.6991130655960065"><ele>94.0</ele><time>2026-04-22T16:07:56.999Z</time></trkpt><trkpt lat="34.07903864366288" lon="-6.699326983020072"><ele>93.0</ele><time>2026-04-22T16:07:57.999Z</time></trkpt><trkpt lat="34.07880526533686" lon="-6.699541605172184"><ele>92.0</ele><time>2026-04-22T16:07:58.999Z</time></trkpt><trkpt lat="34.07857445486582" lon="-6.699755386651502"><ele>92.0</ele><time>2026-04-22T16:07:59.999Z</time></trkpt><trkpt lat="34.07834537814858" lon="-6.699970498267627"><ele>92.0</ele><time>2026-04-22T16:08:00.999Z</time></trkpt><trkpt lat="34.078116460385225" lon="-6.700187605396888"><ele>92.0</ele><time>2026-04-22T16:08:01.999Z</time></trkpt><trkpt lat="34.07788531624041" lon="-6.700403183535317"><ele>92.0</ele><time>2026-04-22T16:08:02.999Z</time></trkpt><trkpt lat="34.077654347204984" lon="-6.700617801765616"><ele>92.5</ele><time>2026-04-22T16:08:03.999Z</time></trkpt><trkpt lat="34.07742232149592" lon="-6.700832712347642"><ele>93.0</ele><time>2026-04-22T16:08:04.999Z</time></trkpt><trkpt lat="34.07719088635215" lon="-6.701048542802443"><ele>93.0</ele><time>2026-04-22T16:08:05.999Z</time></trkpt><trkpt lat="34.07695847730312" lon="-6.701262276451092"><ele>93.0</ele><time>2026-04-22T16:08:06.999Z</time></trkpt><trkpt lat="34.076725388726395" lon="-6.701474204806398"><ele>92.5</ele><time>2026-04-22T16:08:07.999Z</time></trkpt><trkpt lat="34.07649362491927" lon="-6.701687623719615"><ele>92.0</ele><time>2026-04-22T16:08:08.999Z</time></trkpt><trkpt lat="34.07626347114327" lon="-6.70190262331291"><ele>91.5</ele><time>2026-04-22T16:08:09.999Z</time></trkpt><trkpt lat="34.0760346193681" lon="-6.702118861544394"><ele>91.0</ele><time>2026-04-22T16:08:10.999Z</time></trkpt><trkpt lat="34.07580430150873" lon="-6.7023339393919805"><ele>91.5</ele><time>2026-04-22T16:08:11.999Z</time></trkpt><trkpt lat="34.07557212136665" lon="-6.702546803802849"><ele>92.0</ele><time>2026-04-22T16:08:12.999Z</time></trkpt><trkpt lat="34.07534061294848" lon="-6.702758965638603"><ele>92.5</ele><time>2026-04-22T16:08:13.999Z</time></trkpt><trkpt lat="34.07511052333793" lon="-6.702970927649418"><ele>93.0</ele><time>2026-04-22T16:08:14.999Z</time></trkpt><trkpt lat="34.074880143840424" lon="-6.703182894174323"><ele>93.5</ele><time>2026-04-22T16:08:15.999Z</time></trkpt><trkpt lat="34.07464923006268" lon="-6.703395696416915"><ele>94.0</ele><time>2026-04-22T16:08:16.999Z</time></trkpt><trkpt lat="34.07441809589616" lon="-6.703608824715806"><ele>94.5</ele><time>2026-04-22T16:08:17.999Z</time></trkpt><trkpt lat="34.074187531756785" lon="-6.703821061378219"><ele>95.0</ele><time>2026-04-22T16:08:18.999Z</time></trkpt><trkpt lat="34.073957098174475" lon="-6.70403151526464"><ele>94.0</ele><time>2026-04-22T16:08:19.999Z</time></trkpt><trkpt lat="34.073726821822966" lon="-6.704240797247613"><ele>93.0</ele><time>2026-04-22T16:08:20.999Z</time></trkpt><trkpt lat="34.073495994490195" lon="-6.704452663010523"><ele>92.5</ele><time>2026-04-22T16:08:21.999Z</time></trkpt><trkpt lat="34.07326395376245" lon="-6.70466558719587"><ele>92.0</ele><time>2026-04-22T16:08:22.999Z</time></trkpt><trkpt lat="34.07303186490987" lon="-6.704880355978922"><ele>92.0</ele><time>2026-04-22T16:08:23.999Z</time></trkpt><trkpt lat="34.072800086701214" lon="-6.705095027339904"><ele>92.0</ele><time>2026-04-22T16:08:24.999Z</time></trkpt><trkpt lat="34.072569573839274" lon="-6.705308545197025"><ele>92.5</ele><time>2026-04-22T16:08:25.999Z</time></trkpt><trkpt lat="34.07233907371749" lon="-6.705521293930284"><ele>93.0</ele><time>2026-04-22T16:08:26.999Z</time></trkpt><trkpt lat="34.072109479494024" lon="-6.705733767522707"><ele>93.0</ele><time>2026-04-22T16:08:27.999Z</time></trkpt><trkpt lat="34.071880516833616" lon="-6.705946883193549"><ele>93.0</ele><time>2026-04-22T16:08:28.999Z</time></trkpt><trkpt lat="34.071650865709294" lon="-6.706159784717755"><ele>92.5</ele><time>2026-04-22T16:08:30Z</time></trkpt><trkpt lat="34.07142088102884" lon="-6.706373940332253"><ele>92.0</ele><time>2026-04-22T16:08:31Z</time></trkpt><trkpt lat="34.07118936425919" lon="-6.7065861318192805"><ele>92.0</ele><time>2026-04-22T16:08:32Z</time></trkpt><trkpt lat="34.070957343706546" lon="-6.706798457143988"><ele>92.0</ele><time>2026-04-22T16:08:33Z</time></trkpt><trkpt lat="34.07072458770307" lon="-6.707010146476313"><ele>93.5</ele><time>2026-04-22T16:08:34Z</time></trkpt><trkpt lat="34.07049068175872" lon="-6.70722225031421"><ele>95.0</ele><time>2026-04-22T16:08:35Z</time></trkpt><trkpt lat="34.070259243288085" lon="-6.707435702083065"><ele>95.0</ele><time>2026-04-22T16:08:36Z</time></trkpt><trkpt lat="34.070028154702385" lon="-6.707646187559822"><ele>95.0</ele><time>2026-04-22T16:08:37Z</time></trkpt><trkpt lat="34.069794858064036" lon="-6.7078538183949545"><ele>94.0</ele><time>2026-04-22T16:08:38Z</time></trkpt><trkpt lat="34.06956124964588" lon="-6.708057861466286"><ele>93.0</ele><time>2026-04-22T16:08:39Z</time></trkpt><trkpt lat="34.069325926294866" lon="-6.708260064688372"><ele>92.5</ele><time>2026-04-22T16:08:40Z</time></trkpt><trkpt lat="34.06908719140801" lon="-6.7084574927050715"><ele>92.0</ele><time>2026-04-22T16:08:41Z</time></trkpt><trkpt lat="34.068843481837774" lon="-6.708646171599626"><ele>91.0</ele><time>2026-04-22T16:08:42Z</time></trkpt><trkpt lat="34.06859682753447" lon="-6.708824544588455"><ele>90.0</ele><time>2026-04-22T16:08:43Z</time></trkpt><trkpt lat="34.068347585957596" lon="-6.708998928810742"><ele>90.5</ele><time>2026-04-22T16:08:44Z</time></trkpt><trkpt lat="34.06809521266708" lon="-6.709171372689841"><ele>91.0</ele><time>2026-04-22T16:08:45Z</time></trkpt><trkpt lat="34.06784066849807" lon="-6.709341283086073"><ele>92.0</ele><time>2026-04-22T16:08:46Z</time></trkpt><trkpt lat="34.06758354538036" lon="-6.709506233486039"><ele>93.0</ele><time>2026-04-22T16:08:47Z</time></trkpt><trkpt lat="34.067323977736386" lon="-6.709666980360796"><ele>93.0</ele><time>2026-04-22T16:08:48Z</time></trkpt><trkpt lat="34.067063268093165" lon="-6.70982150832145"><ele>93.0</ele><time>2026-04-22T16:08:49Z</time></trkpt><trkpt lat="34.06680070355937" lon="-6.709974264217328"><ele>93.5</ele><time>2026-04-22T16:08:50Z</time></trkpt><trkpt lat="34.066534491547614" lon="-6.710121115434422"><ele>94.0</ele><time>2026-04-22T16:08:51Z</time></trkpt><trkpt lat="34.066267734917545" lon="-6.710260202492694"><ele>94.0</ele><time>2026-04-22T16:08:52Z</time></trkpt><trkpt lat="34.06599929181967" lon="-6.710390090748756"><ele>94.0</ele><time>2026-04-22T16:08:53Z</time></trkpt><trkpt lat="34.06572909691749" lon="-6.710515595486853"><ele>93.0</ele><time>2026-04-22T16:08:54Z</time></trkpt><trkpt lat="34.06545644060755" lon="-6.710638508423592"><ele>92.0</ele><time>2026-04-22T16:08:55Z</time></trkpt><trkpt lat="34.06518201970455" lon="-6.7107568291502675"><ele>92.5</ele><time>2026-04-22T16:08:56Z</time></trkpt><trkpt lat="34.06490597504082" lon="-6.7108666514901785"><ele>93.0</ele><time>2026-04-22T16:08:57Z</time></trkpt><trkpt lat="34.06462771711163" lon="-6.710968998357458"><ele>93.0</ele><time>2026-04-22T16:08:58Z</time></trkpt><trkpt lat="34.064347455724715" lon="-6.711067027771283"><ele>93.0</ele><time>2026-04-22T16:08:59Z</time></trkpt><trkpt lat="34.06406468168725" lon="-6.711161340825906"><ele>95.0</ele><time>2026-04-22T16:09:00Z</time></trkpt><trkpt lat="34.063780630332126" lon="-6.711248614657926"><ele>97.0</ele><time>2026-04-22T16:09:01Z</time></trkpt><trkpt lat="34.06349645849082" lon="-6.711329350719986"><ele>95.5</ele><time>2026-04-22T16:09:02Z</time></trkpt><trkpt lat="34.06321061347436" lon="-6.711404461101565"><ele>94.0</ele><time>2026-04-22T16:09:03Z</time></trkpt><trkpt lat="34.06292239159519" lon="-6.711477733794636"><ele>94.0</ele><time>2026-04-22T16:09:04Z</time></trkpt><trkpt lat="34.06262852966979" lon="-6.711549359020321"><ele>94.0</ele><time>2026-04-22T16:09:05Z</time></trkpt><trkpt lat="34.06232560730434" lon="-6.711617512840221"><ele>94.0</ele><time>2026-04-22T16:09:06Z</time></trkpt><trkpt lat="34.0620126843737" lon="-6.711681523223225"><ele>94.0</ele><time>2026-04-22T16:09:07Z</time></trkpt><trkpt lat="34.06169583467574" lon="-6.7117381538289935"><ele>96.0</ele><time>2026-04-22T16:09:08Z</time></trkpt><trkpt lat="34.06138208622571" lon="-6.711785009061191"><ele>98.0</ele><time>2026-04-22T16:09:09Z</time></trkpt><trkpt lat="34.061067467395574" lon="-6.711823515021903"><ele>98.5</ele><time>2026-04-22T16:09:10Z</time></trkpt><trkpt lat="34.06075264473419" lon="-6.711856171178372"><ele>99.0</ele><time>2026-04-22T16:09:10.999Z</time></trkpt><trkpt lat="34.06043750846662" lon="-6.711886863089297"><ele>98.5</ele><time>2026-04-22T16:09:11.999Z</time></trkpt><trkpt lat="34.06012186403883" lon="-6.711914007166014"><ele>98.0</ele><time>2026-04-22T16:09:12.999Z</time></trkpt><trkpt lat="34.059805026766746" lon="-6.711935144487748"><ele>99.0</ele><time>2026-04-22T16:09:13.999Z</time></trkpt><trkpt lat="34.05948848074648" lon="-6.7119482799498025"><ele>100.0</ele><time>2026-04-22T16:09:14.999Z</time></trkpt><trkpt lat="34.059172256000195" lon="-6.711958481156677"><ele>99.0</ele><time>2026-04-22T16:09:15.999Z</time></trkpt><trkpt lat="34.05885430249212" lon="-6.711969014515163"><ele>98.0</ele><time>2026-04-22T16:09:16.999Z</time></trkpt><trkpt lat="34.05853774931803" lon="-6.711978046794724"><ele>98.5</ele><time>2026-04-22T16:09:17.999Z</time></trkpt><trkpt lat="34.05822236318324" lon="-6.711983705787594"><ele>99.0</ele><time>2026-04-22T16:09:18.999Z</time></trkpt><trkpt lat="34.057906407890684" lon="-6.711987047952891"><ele>99.0</ele><time>2026-04-22T16:09:19.999Z</time></trkpt><trkpt lat="34.05759103340755" lon="-6.711988824187707"><ele>99.0</ele><time>2026-04-22T16:09:20.999Z</time></trkpt><trkpt lat="34.057275885961424" lon="-6.711987267866353"><ele>99.5</ele><time>2026-04-22T16:09:21.999Z</time></trkpt><trkpt lat="34.0569616008974" lon="-6.711986720836449"><ele>100.0</ele><time>2026-04-22T16:09:22.999Z</time></trkpt><trkpt lat="34.05664626035574" lon="-6.711984729861285"><ele>100.0</ele><time>2026-04-22T16:09:23.999Z</time></trkpt><trkpt lat="34.05633102283716" lon="-6.711982679451991"><ele>100.0</ele><time>2026-04-22T16:09:24.999Z</time></trkpt><trkpt lat="34.05601547208154" lon="-6.711977577690464"><ele>101.5</ele><time>2026-04-22T16:09:25.999Z</time></trkpt><trkpt lat="34.055699515235794" lon="-6.711975002823037"><ele>103.0</ele><time>2026-04-22T16:09:26.999Z</time></trkpt><trkpt lat="34.05538271604953" lon="-6.711971228780569"><ele>103.0</ele><time>2026-04-22T16:09:27.999Z</time></trkpt><trkpt lat="34.05506670625612" lon="-6.711967769719614"><ele>103.0</ele><time>2026-04-22T16:09:28.999Z</time></trkpt><trkpt lat="34.0547505990445" lon="-6.711966524881969"><ele>102.5</ele><time>2026-04-22T16:09:29.999Z</time></trkpt><trkpt lat="34.05443460508599" lon="-6.711963363332346"><ele>102.0</ele><time>2026-04-22T16:09:30.999Z</time></trkpt><trkpt lat="34.05411903044145" lon="-6.711962168933865"><ele>102.0</ele><time>2026-04-22T16:09:31.999Z</time></trkpt><trkpt lat="34.05380464366281" lon="-6.711960044038303"><ele>102.0</ele><time>2026-04-22T16:09:32.999Z</time></trkpt><trkpt lat="34.05348913398339" lon="-6.711959730602384"><ele>102.0</ele><time>2026-04-22T16:09:33.999Z</time></trkpt><trkpt lat="34.05317269215857" lon="-6.711961804181432"><ele>102.0</ele><time>2026-04-22T16:09:34.999Z</time></trkpt><trkpt lat="34.05285653139267" lon="-6.7119641891081665"><ele>102.0</ele><time>2026-04-22T16:09:35.999Z</time></trkpt><trkpt lat="34.05254084306222" lon="-6.711965414701336"><ele>102.0</ele><time>2026-04-22T16:09:36.999Z</time></trkpt><trkpt lat="34.05222604559208" lon="-6.711966282761032"><ele>103.0</ele><time>2026-04-22T16:09:37.999Z</time></trkpt><trkpt lat="34.0519206709402" lon="-6.711967440548549"><ele>104.0</ele><time>2026-04-22T16:09:38.999Z</time></trkpt><trkpt lat="34.05162347010227" lon="-6.7119691428868755"><ele>105.5</ele><time>2026-04-22T16:09:39.999Z</time></trkpt><trkpt lat="34.05133259570318" lon="-6.711968460076481"><ele>107.0</ele><time>2026-04-22T16:09:40.999Z</time></trkpt><trkpt lat="34.05104709049941" lon="-6.711964856520797"><ele>108.0</ele><time>2026-04-22T16:09:41.999Z</time></trkpt><trkpt lat="34.05076475647578" lon="-6.7119691715790175"><ele>109.0</ele><time>2026-04-22T16:09:42.999Z</time></trkpt><trkpt lat="34.05048433646982" lon="-6.711972577452768"><ele>109.0</ele><time>2026-04-22T16:09:43.999Z</time></trkpt><trkpt lat="34.050206097864745" lon="-6.711974851824789"><ele>109.0</ele><time>2026-04-22T16:09:44.999Z</time></trkpt><trkpt lat="34.04992915883344" lon="-6.711973673518812"><ele>109.5</ele><time>2026-04-22T16:09:45.999Z</time></trkpt><trkpt lat="34.04964865114725" lon="-6.711970708209232"><ele>110.0</ele><time>2026-04-22T16:09:46.999Z</time></trkpt><trkpt lat="34.04936678364057" lon="-6.711969984503282"><ele>109.5</ele><time>2026-04-22T16:09:47.999Z</time></trkpt><trkpt lat="34.049084893323744" lon="-6.711970770875202"><ele>109.0</ele><time>2026-04-22T16:09:48.999Z</time></trkpt><trkpt lat="34.04880537956668" lon="-6.71197205717579"><ele>109.0</ele><time>2026-04-22T16:09:49.999Z</time></trkpt><trkpt lat="34.048526120002585" lon="-6.7119720726918315"><ele>109.0</ele><time>2026-04-22T16:09:50.999Z</time></trkpt><trkpt lat="34.0482473578402" lon="-6.7119713659187115"><ele>108.0</ele><time>2026-04-22T16:09:51.999Z</time></trkpt><trkpt lat="34.047973256415844" lon="-6.711969528225333"><ele>107.0</ele><time>2026-04-22T16:09:52.999Z</time></trkpt><trkpt lat="34.04770020793886" lon="-6.711966711451388"><ele>107.5</ele><time>2026-04-22T16:09:53.999Z</time></trkpt><trkpt lat="34.04742491507761" lon="-6.711969088432422"><ele>108.0</ele><time>2026-04-22T16:09:54.999Z</time></trkpt><trkpt lat="34.04715433724066" lon="-6.711969080899864"><ele>108.0</ele><time>2026-04-22T16:09:55.999Z</time></trkpt><trkpt lat="34.04688724816362" lon="-6.711968214612742"><ele>108.0</ele><time>2026-04-22T16:09:56.999Z</time></trkpt><trkpt lat="34.04661890729457" lon="-6.711966523606457"><ele>110.0</ele><time>2026-04-22T16:09:57.999Z</time></trkpt><trkpt lat="34.04634707614685" lon="-6.711968670511188"><ele>112.0</ele><time>2026-04-22T16:09:58.999Z</time></trkpt><trkpt lat="34.04607221851343" lon="-6.711971052493478"><ele>112.0</ele><time>2026-04-22T16:09:59.999Z</time></trkpt><trkpt lat="34.04579663345323" lon="-6.71197514824284"><ele>112.0</ele><time>2026-04-22T16:10:00.999Z</time></trkpt><trkpt lat="34.04552536029207" lon="-6.711977293246872"><ele>113.5</ele><time>2026-04-22T16:10:01.999Z</time></trkpt><trkpt lat="34.045263633499644" lon="-6.711980743521483"><ele>115.0</ele><time>2026-04-22T16:10:02.999Z</time></trkpt><trkpt lat="34.04501555492908" lon="-6.711982502755472"><ele>115.0</ele><time>2026-04-22T16:10:03.999Z</time></trkpt><trkpt lat="34.044769648445026" lon="-6.71198196338382"><ele>115.0</ele><time>2026-04-22T16:10:04.999Z</time></trkpt><trkpt lat="34.04451992624609" lon="-6.711982498360789"><ele>115.0</ele><time>2026-04-22T16:10:05.999Z</time></trkpt><trkpt lat="34.04426887413493" lon="-6.711986568575829"><ele>115.0</ele><time>2026-04-22T16:10:06.999Z</time></trkpt><trkpt lat="34.04401824739126" lon="-6.711988159596547"><ele>116.0</ele><time>2026-04-22T16:10:07.999Z</time></trkpt><trkpt lat="34.04376865444682" lon="-6.711988654978822"><ele>117.0</ele><time>2026-04-22T16:10:08.999Z</time></trkpt><trkpt lat="34.04352219599855" lon="-6.711988142286268"><ele>118.5</ele><time>2026-04-22T16:10:09.999Z</time></trkpt><trkpt lat="34.04327695002951" lon="-6.711985639634878"><ele>120.0</ele><time>2026-04-22T16:10:10.999Z</time></trkpt><trkpt lat="34.04303226256205" lon="-6.7119863326455755"><ele>120.0</ele><time>2026-04-22T16:10:11.999Z</time></trkpt><trkpt lat="34.042789153467446" lon="-6.711985617236196"><ele>120.0</ele><time>2026-04-22T16:10:12.999Z</time></trkpt><trkpt lat="34.04254694436646" lon="-6.711985920199205"><ele>121.0</ele><time>2026-04-22T16:10:13.999Z</time></trkpt><trkpt lat="34.04230402049543" lon="-6.711986523577233"><ele>122.0</ele><time>2026-04-22T16:10:14.999Z</time></trkpt><trkpt lat="34.042061165501195" lon="-6.711988700733124"><ele>122.0</ele><time>2026-04-22T16:10:15.999Z</time></trkpt><trkpt lat="34.041822205890604" lon="-6.711989489721919"><ele>122.0</ele><time>2026-04-22T16:10:16.999Z</time></trkpt><trkpt lat="34.041585594610176" lon="-6.711989462455688"><ele>123.0</ele><time>2026-04-22T16:10:17.999Z</time></trkpt><trkpt lat="34.04135189490128" lon="-6.7119905644279445"><ele>124.0</ele><time>2026-04-22T16:10:18.999Z</time></trkpt><trkpt lat="34.041123512517665" lon="-6.71199181873564"><ele>124.0</ele><time>2026-04-22T16:10:19.999Z</time></trkpt><trkpt lat="34.04089959804729" lon="-6.711991293810767"><ele>124.0</ele><time>2026-04-22T16:10:20.999Z</time></trkpt><trkpt lat="34.040680550182635" lon="-6.711992054684866"><ele>124.0</ele><time>2026-04-22T16:10:21.999Z</time></trkpt><trkpt lat="34.0404585797854" lon="-6.711987217365621"><ele>125.0</ele><time>2026-04-22T16:10:22.999Z</time></trkpt><trkpt lat="34.04022511497169" lon="-6.711987160288529"><ele>126.0</ele><time>2026-04-22T16:10:23.999Z</time></trkpt><trkpt lat="34.03998315297202" lon="-6.711988460809195"><ele>127.0</ele><time>2026-04-22T16:10:24.999Z</time></trkpt><trkpt lat="34.039734294270005" lon="-6.711990106820987"><ele>128.0</ele><time>2026-04-22T16:10:25.999Z</time></trkpt><trkpt lat="34.03948094402897" lon="-6.71199205056158"><ele>128.0</ele><time>2026-04-22T16:10:26.999Z</time></trkpt><trkpt lat="34.03922356271861" lon="-6.711998379096517"><ele>128.0</ele><time>2026-04-22T16:10:27.999Z</time></trkpt><trkpt lat="34.03896689155732" lon="-6.712010687896385"><ele>128.5</ele><time>2026-04-22T16:10:28.999Z</time></trkpt><trkpt lat="34.03870337346846" lon="-6.712027816822362"><ele>129.0</ele><time>2026-04-22T16:10:29.999Z</time></trkpt><trkpt lat="34.038426239968445" lon="-6.7120530347873855"><ele>129.5</ele><time>2026-04-22T16:10:30.999Z</time></trkpt><trkpt lat="34.03813934300418" lon="-6.71208109310406"><ele>130.0</ele><time>2026-04-22T16:10:31.999Z</time></trkpt><trkpt lat="34.03785543354155" lon="-6.712107078516032"><ele>130.0</ele><time>2026-04-22T16:10:32.999Z</time></trkpt><trkpt lat="34.03758454020405" lon="-6.712126361291563"><ele>130.0</ele><time>2026-04-22T16:10:33.999Z</time></trkpt><trkpt lat="34.037320904468075" lon="-6.712146261410205"><ele>130.5</ele><time>2026-04-22T16:10:34.998Z</time></trkpt><trkpt lat="34.03706355128651" lon="-6.712166927778788"><ele>131.0</ele><time>2026-04-22T16:10:36Z</time></trkpt><trkpt lat="34.036810139638234" lon="-6.712186430724816"><ele>131.0</ele><time>2026-04-22T16:10:37Z</time></trkpt><trkpt lat="34.03655984951885" lon="-6.712203875541459"><ele>131.0</ele><time>2026-04-22T16:10:38Z</time></trkpt><trkpt lat="34.03631510185915" lon="-6.712221553510086"><ele>131.0</ele><time>2026-04-22T16:10:39Z</time></trkpt><trkpt lat="34.0360761335644" lon="-6.712238633570734"><ele>131.0</ele><time>2026-04-22T16:10:40Z</time></trkpt><trkpt lat="34.035839618430686" lon="-6.712255181824769"><ele>131.0</ele><time>2026-04-22T16:10:41Z</time></trkpt><trkpt lat="34.03560546573429" lon="-6.712272172320317"><ele>131.0</ele><time>2026-04-22T16:10:42Z</time></trkpt><trkpt lat="34.035373516227494" lon="-6.712289503657389"><ele>131.0</ele><time>2026-04-22T16:10:43Z</time></trkpt><trkpt lat="34.03514346704598" lon="-6.712303327909279"><ele>131.0</ele><time>2026-04-22T16:10:44Z</time></trkpt><trkpt lat="34.034900266226934" lon="-6.712307832295986"><ele>130.0</ele><time>2026-04-22T16:10:45Z</time></trkpt><trkpt lat="34.034641726809895" lon="-6.712317993883924"><ele>129.0</ele><time>2026-04-22T16:10:46Z</time></trkpt><trkpt lat="34.03436573985331" lon="-6.712343053569535"><ele>128.5</ele><time>2026-04-22T16:10:47Z</time></trkpt><trkpt lat="34.03408200179817" lon="-6.712375964795093"><ele>128.0</ele><time>2026-04-22T16:10:48Z</time></trkpt><trkpt lat="34.03379995166074" lon="-6.712402675561185"><ele>128.0</ele><time>2026-04-22T16:10:49Z</time></trkpt><trkpt lat="34.03352330950798" lon="-6.712421407240063"><ele>128.0</ele><time>2026-04-22T16:10:50Z</time></trkpt><trkpt lat="34.033254834022756" lon="-6.712432704217762"><ele>126.5</ele><time>2026-04-22T16:10:51Z</time></trkpt><trkpt lat="34.0329936940321" lon="-6.712436478096861"><ele>125.0</ele><time>2026-04-22T16:10:52Z</time></trkpt><trkpt lat="34.03273954902515" lon="-6.712435739867864"><ele>125.0</ele><time>2026-04-22T16:10:53Z</time></trkpt><trkpt lat="34.032492993668214" lon="-6.712431722696818"><ele>125.0</ele><time>2026-04-22T16:10:54Z</time></trkpt><trkpt lat="34.03225806181123" lon="-6.7124250179550895"><ele>124.33333333333333</ele><time>2026-04-22T16:10:55Z</time></trkpt><trkpt lat="34.032034517958685" lon="-6.712414864081832"><ele>123.66666666666666</ele><time>2026-04-22T16:10:56Z</time></trkpt><trkpt lat="34.031821740766105" lon="-6.712402997380192"><ele>123.0</ele><time>2026-04-22T16:10:57Z</time></trkpt><trkpt lat="34.03161937237615" lon="-6.712392527507612"><ele>122.33333333333334</ele><time>2026-04-22T16:10:58Z</time></trkpt><trkpt lat="34.031427553516885" lon="-6.712380028061423"><ele>121.66666666666667</ele><time>2026-04-22T16:10:59Z</time></trkpt><trkpt lat="34.031245532485016" lon="-6.712364856029202"><ele>121.0</ele><time>2026-04-22T16:11:00Z</time></trkpt><trkpt lat="34.03107085257199" lon="-6.712348110763453"><ele>121.0</ele><time>2026-04-22T16:11:01Z</time></trkpt><trkpt lat="34.03090483951645" lon="-6.712326354947902"><ele>121.0</ele><time>2026-04-22T16:11:02Z</time></trkpt><trkpt lat="34.03073942965379" lon="-6.7123015163204345"><ele>121.0</ele><time>2026-04-22T16:11:03Z</time></trkpt><trkpt lat="34.03057399050601" lon="-6.712278266534635"><ele>121.66666666666667</ele><time>2026-04-22T16:11:04Z</time></trkpt><trkpt lat="34.03040657907866" lon="-6.712259375199048"><ele>122.33333333333334</ele><time>2026-04-22T16:11:05Z</time></trkpt><trkpt lat="34.03023542141339" lon="-6.712243960950094"><ele>123.0</ele><time>2026-04-22T16:11:06Z</time></trkpt><trkpt lat="34.03006229664202" lon="-6.712234554407819"><ele>123.0</ele><time>2026-04-22T16:11:07Z</time></trkpt><trkpt lat="34.02988973050153" lon="-6.712234936827213"><ele>123.0</ele><time>2026-04-22T16:11:08Z</time></trkpt><trkpt lat="34.0297239862645" lon="-6.712253067977959"><ele>123.0</ele><time>2026-04-22T16:11:09Z</time></trkpt><trkpt lat="34.029564092174354" lon="-6.712292001619642"><ele>123.0</ele><time>2026-04-22T16:11:10Z</time></trkpt><trkpt lat="34.0294084933724" lon="-6.7123397636805855"><ele>123.0</ele><time>2026-04-22T16:11:11Z</time></trkpt><trkpt lat="34.029258083484095" lon="-6.7123957795922085"><ele>123.0</ele><time>2026-04-22T16:11:12Z</time></trkpt><trkpt lat="34.02911115710824" lon="-6.7124610231544795"><ele>123.0</ele><time>2026-04-22T16:11:13Z</time></trkpt><trkpt lat="34.02897101484652" lon="-6.712537638349314"><ele>123.0</ele><time>2026-04-22T16:11:13.999Z</time></trkpt><trkpt lat="34.02883483318002" lon="-6.712619189858531"><ele>123.0</ele><time>2026-04-22T16:11:14.999Z</time></trkpt><trkpt lat="34.02870333916795" lon="-6.712701132263468"><ele>123.25</ele><time>2026-04-22T16:11:15.999Z</time></trkpt><trkpt lat="34.0285774560235" lon="-6.712780729110683"><ele>123.5</ele><time>2026-04-22T16:11:16.999Z</time></trkpt><trkpt lat="34.028455816630164" lon="-6.712858052053761"><ele>123.75</ele><time>2026-04-22T16:11:17.999Z</time></trkpt><trkpt lat="34.02833945875582" lon="-6.712933885671215"><ele>124.0</ele><time>2026-04-22T16:11:18.999Z</time></trkpt><trkpt lat="34.02821942060562" lon="-6.713012849654221"><ele>124.0</ele><time>2026-04-22T16:11:19.999Z</time></trkpt><trkpt lat="34.02809520240461" lon="-6.713094379566998"><ele>124.0</ele><time>2026-04-22T16:11:20.999Z</time></trkpt><trkpt lat="34.027967843734544" lon="-6.7131761760279165"><ele>124.0</ele><time>2026-04-22T16:11:21.999Z</time></trkpt><trkpt lat="34.02783738385942" lon="-6.713259355679637"><ele>124.0</ele><time>2026-04-22T16:11:22.999Z</time></trkpt><trkpt lat="34.0277090704814" lon="-6.713342276022258"><ele>124.0</ele><time>2026-04-22T16:11:23.999Z</time></trkpt><trkpt lat="34.02758355319338" lon="-6.71342409051241"><ele>124.0</ele><time>2026-04-22T16:11:24.999Z</time></trkpt><trkpt lat="34.02746051762434" lon="-6.713504363333021"><ele>124.0</ele><time>2026-04-22T16:11:25.999Z</time></trkpt><trkpt lat="34.02733989601042" lon="-6.713585322081265"><ele>124.0</ele><time>2026-04-22T16:11:26.999Z</time></trkpt><trkpt lat="34.02721799744307" lon="-6.71366518967392"><ele>125.0</ele><time>2026-04-22T16:11:27.999Z</time></trkpt><trkpt lat="34.02709654443118" lon="-6.713744379122436"><ele>126.0</ele><time>2026-04-22T16:11:28.999Z</time></trkpt><trkpt lat="34.02697477482561" lon="-6.713821264627409"><ele>127.0</ele><time>2026-04-22T16:11:29.999Z</time></trkpt><trkpt lat="34.02685422977546" lon="-6.713897894888352"><ele>128.0</ele><time>2026-04-22T16:11:30.999Z</time></trkpt><trkpt lat="34.02673653996771" lon="-6.713973752570549"><ele>127.25</ele><time>2026-04-22T16:11:31.999Z</time></trkpt><trkpt lat="34.02662193567014" lon="-6.714049927370948"><ele>126.5</ele><time>2026-04-22T16:11:32.999Z</time></trkpt><trkpt lat="34.02650761797633" lon="-6.714127764964349"><ele>125.75</ele><time>2026-04-22T16:11:33.999Z</time></trkpt><trkpt lat="34.02639508801766" lon="-6.71421042257844"><ele>125.0</ele><time>2026-04-22T16:11:34.999Z</time></trkpt><trkpt lat="34.02629149231216" lon="-6.714301411830974"><ele>125.0</ele><time>2026-04-22T16:11:35.999Z</time></trkpt><trkpt lat="34.026199406903636" lon="-6.714400804976078"><ele>125.0</ele><time>2026-04-22T16:11:36.999Z</time></trkpt><trkpt lat="34.026119006989134" lon="-6.7145007838596396"><ele>125.0</ele><time>2026-04-22T16:11:37.999Z</time></trkpt><trkpt lat="34.026049017757266" lon="-6.714599566148354"><ele>125.0</ele><time>2026-04-22T16:11:38.999Z</time></trkpt><trkpt lat="34.0259890112891" lon="-6.714690266290034"><ele>125.0</ele><time>2026-04-22T16:11:39.999Z</time></trkpt><trkpt lat="34.025938074642845" lon="-6.714772121268058"><ele>125.16666666666666</ele><time>2026-04-22T16:11:40.999Z</time></trkpt><trkpt lat="34.0258937326132" lon="-6.714845024968718"><ele>125.33333333333333</ele><time>2026-04-22T16:11:41.999Z</time></trkpt><trkpt lat="34.02585530321881" lon="-6.714914206137815"><ele>125.5</ele><time>2026-04-22T16:11:42.999Z</time></trkpt><trkpt lat="34.02582391997147" lon="-6.714981383658895"><ele>125.66666666666666</ele><time>2026-04-22T16:11:43.999Z</time></trkpt><trkpt lat="34.025770066400035" lon="-6.715124956215025"><ele>125.83333333333333</ele><time>2026-04-22T16:11:45.999Z</time></trkpt><trkpt lat="34.02574165778933" lon="-6.715200600936592"><ele>126.0</ele><time>2026-04-22T16:11:46.999Z</time></trkpt><trkpt lat="34.02571490880661" lon="-6.71527429639564"><ele>126.0</ele><time>2026-04-22T16:11:47.999Z</time></trkpt><trkpt lat="34.025673859024046" lon="-6.715398634088594"><ele>126.0</ele><time>2026-04-22T16:11:49.999Z</time></trkpt><trkpt lat="34.025631802229974" lon="-6.715506772223892"><ele>126.0</ele><time>2026-04-22T16:11:51.999Z</time></trkpt><trkpt lat="34.02559286074288" lon="-6.715606823048812"><ele>126.0</ele><time>2026-04-22T16:11:53.999Z</time></trkpt><trkpt lat="34.02556285863414" lon="-6.715680335952992"><ele>126.0</ele><time>2026-04-22T16:11:55.999Z</time></trkpt><trkpt lat="34.02553966041615" lon="-6.715768127906527"><ele>126.0</ele><time>2026-04-22T16:12:00.999Z</time></trkpt><trkpt lat="34.02551895702622" lon="-6.715848971976927"><ele>126.0</ele><time>2026-04-22T16:12:04.999Z</time></trkpt><trkpt lat="34.02549463518878" lon="-6.7159558049900525"><ele>126.0</ele><time>2026-04-22T16:12:06.999Z</time></trkpt><trkpt lat="34.02545579889025" lon="-6.716089608224827"><ele>126.0</ele><time>2026-04-22T16:12:08.999Z</time></trkpt><trkpt lat="34.025420124408306" lon="-6.716210806556884"><ele>126.0</ele><time>2026-04-22T16:12:10.999Z</time></trkpt><trkpt lat="34.02538953374991" lon="-6.716319867722399"><ele>126.0</ele><time>2026-04-22T16:12:12.999Z</time></trkpt><trkpt lat="34.02536143795539" lon="-6.7164201575941895"><ele>126.16666666666667</ele><time>2026-04-22T16:12:14.999Z</time></trkpt><trkpt lat="34.02533576145173" lon="-6.71651033508471"><ele>126.33333333333334</ele><time>2026-04-22T16:12:16.999Z</time></trkpt><trkpt lat="34.02531390182114" lon="-6.716591805106647"><ele>126.5</ele><time>2026-04-22T16:12:18.999Z</time></trkpt><trkpt lat="34.02528517529039" lon="-6.716707137935479"><ele>126.66666666666667</ele><time>2026-04-22T16:12:21.999Z</time></trkpt><trkpt lat="34.0252644986446" lon="-6.71678006726923"><ele>126.83333333333334</ele><time>2026-04-22T16:12:22.999Z</time></trkpt><trkpt lat="34.02524005512386" lon="-6.71686388471895"><ele>127.0</ele><time>2026-04-22T16:12:23.999Z</time></trkpt><trkpt lat="34.0252130612694" lon="-6.716959637338365"><ele>127.19999999999999</ele><time>2026-04-22T16:12:24.999Z</time></trkpt><trkpt lat="34.02518523921745" lon="-6.717062040448311"><ele>127.39999999999999</ele><time>2026-04-22T16:12:25.999Z</time></trkpt><trkpt lat="34.025156286804005" lon="-6.717167256804317"><ele>127.60000000000001</ele><time>2026-04-22T16:12:26.999Z</time></trkpt><trkpt lat="34.025125847803565" lon="-6.717279461820243"><ele>127.80000000000001</ele><time>2026-04-22T16:12:27.999Z</time></trkpt><trkpt lat="34.02509316736414" lon="-6.717398543982137"><ele>128.0</ele><time>2026-04-22T16:12:28.999Z</time></trkpt><trkpt lat="34.02506094893456" lon="-6.717529834256601"><ele>128.0</ele><time>2026-04-22T16:12:29.999Z</time></trkpt><trkpt lat="34.025025552364376" lon="-6.717668726916164"><ele>128.0</ele><time>2026-04-22T16:12:30.999Z</time></trkpt><trkpt lat="34.0249884193753" lon="-6.717815569922596"><ele>128.0</ele><time>2026-04-22T16:12:31.999Z</time></trkpt><trkpt lat="34.024950683382514" lon="-6.717969006322771"><ele>128.0</ele><time>2026-04-22T16:12:32.999Z</time></trkpt><trkpt lat="34.02491615453395" lon="-6.718126352329146"><ele>127.5</ele><time>2026-04-22T16:12:33.999Z</time></trkpt><trkpt lat="34.02488237359035" lon="-6.718286401212246"><ele>127.0</ele><time>2026-04-22T16:12:34.999Z</time></trkpt><trkpt lat="34.024853083731784" lon="-6.718451291558565"><ele>126.5</ele><time>2026-04-22T16:12:35.998Z</time></trkpt><trkpt lat="34.02482844512342" lon="-6.718622488316742"><ele>126.0</ele><time>2026-04-22T16:12:36.998Z</time></trkpt><trkpt lat="34.02480635313511" lon="-6.718798123627724"><ele>126.0</ele><time>2026-04-22T16:12:37.998Z</time></trkpt><trkpt lat="34.02478855940387" lon="-6.718979531716818"><ele>126.0</ele><time>2026-04-22T16:12:38.998Z</time></trkpt><trkpt lat="34.02477486221623" lon="-6.719164455945713"><ele>126.0</ele><time>2026-04-22T16:12:39.998Z</time></trkpt><trkpt lat="34.024766434958025" lon="-6.719350938754452"><ele>126.0</ele><time>2026-04-22T16:12:41Z</time></trkpt><trkpt lat="34.02476503247257" lon="-6.719542274537403"><ele>126.0</ele><time>2026-04-22T16:12:42Z</time></trkpt><trkpt lat="34.024769799347894" lon="-6.719737060938568"><ele>126.0</ele><time>2026-04-22T16:12:43Z</time></trkpt><trkpt lat="34.02478272305563" lon="-6.719935767976805"><ele>126.0</ele><time>2026-04-22T16:12:44Z</time></trkpt><trkpt lat="34.024802071047546" lon="-6.720139230848261"><ele>126.0</ele><time>2026-04-22T16:12:45Z</time></trkpt><trkpt lat="34.024826236033114" lon="-6.720340102556849"><ele>126.0</ele><time>2026-04-22T16:12:46Z</time></trkpt><trkpt lat="34.02485383095133" lon="-6.720537455590647"><ele>127.33333333333334</ele><time>2026-04-22T16:12:47Z</time></trkpt><trkpt lat="34.02488831901168" lon="-6.720733044729954"><ele>128.66666666666669</ele><time>2026-04-22T16:12:48Z</time></trkpt><trkpt lat="34.02492745234704" lon="-6.720921568075781"><ele>130.0</ele><time>2026-04-22T16:12:49Z</time></trkpt><trkpt lat="34.02497084384048" lon="-6.72110081226142"><ele>131.0</ele><time>2026-04-22T16:12:50Z</time></trkpt><trkpt lat="34.025017875412466" lon="-6.721274623993464"><ele>132.0</ele><time>2026-04-22T16:12:51Z</time></trkpt><trkpt lat="34.02506444597323" lon="-6.721436942881696"><ele>133.0</ele><time>2026-04-22T16:12:52Z</time></trkpt><trkpt lat="34.02511306189067" lon="-6.72159573580021"><ele>134.0</ele><time>2026-04-22T16:12:53Z</time></trkpt><trkpt lat="34.02516666371061" lon="-6.7217576511317025"><ele>134.75</ele><time>2026-04-22T16:12:54Z</time></trkpt><trkpt lat="34.02522533482599" lon="-6.721908871804222"><ele>135.5</ele><time>2026-04-22T16:12:55Z</time></trkpt><trkpt lat="34.02528957578069" lon="-6.722046981803513"><ele>136.25</ele><time>2026-04-22T16:12:56Z</time></trkpt><trkpt lat="34.02535464595326" lon="-6.722179254653043"><ele>137.0</ele><time>2026-04-22T16:12:57Z</time></trkpt><trkpt lat="34.02541576736684" lon="-6.722302229524742"><ele>137.0</ele><time>2026-04-22T16:12:58Z</time></trkpt><trkpt lat="34.0254739729595" lon="-6.7224101550067115"><ele>137.0</ele><time>2026-04-22T16:12:59Z</time></trkpt><trkpt lat="34.02552853435088" lon="-6.722508712718222"><ele>137.0</ele><time>2026-04-22T16:13:00Z</time></trkpt><trkpt lat="34.025584101240845" lon="-6.722613237550226"><ele>137.0</ele><time>2026-04-22T16:13:01Z</time></trkpt><trkpt lat="34.02564565807378" lon="-6.722730588411888"><ele>137.0</ele><time>2026-04-22T16:13:02Z</time></trkpt><trkpt lat="34.02571493192165" lon="-6.72285519493043"><ele>137.25</ele><time>2026-04-22T16:13:03Z</time></trkpt><trkpt lat="34.02579083853078" lon="-6.7229792439914515"><ele>137.5</ele><time>2026-04-22T16:13:04Z</time></trkpt><trkpt lat="34.02586743652283" lon="-6.723100061014313"><ele>137.75</ele><time>2026-04-22T16:13:05Z</time></trkpt><trkpt lat="34.0259387080611" lon="-6.723210830654728"><ele>138.0</ele><time>2026-04-22T16:13:06Z</time></trkpt><trkpt lat="34.0260064483226" lon="-6.723316438029894"><ele>137.33333333333334</ele><time>2026-04-22T16:13:07Z</time></trkpt><trkpt lat="34.02606934849398" lon="-6.723413189398537"><ele>136.66666666666666</ele><time>2026-04-22T16:13:08Z</time></trkpt><trkpt lat="34.02612712122563" lon="-6.723500855602726"><ele>136.0</ele><time>2026-04-22T16:13:09Z</time></trkpt><trkpt lat="34.026179823357225" lon="-6.723577939891362"><ele>135.33333333333331</ele><time>2026-04-22T16:13:10Z</time></trkpt><trkpt lat="34.026223247777125" lon="-6.723638521296294"><ele>134.66666666666666</ele><time>2026-04-22T16:13:11Z</time></trkpt><trkpt lat="34.02627499309455" lon="-6.723705244818859"><ele>134.0</ele><time>2026-04-22T16:13:13Z</time></trkpt><trkpt lat="34.02634322700195" lon="-6.723766221194464"><ele>133.66666666666666</ele><time>2026-04-22T16:13:19.999Z</time></trkpt><trkpt lat="34.026407659642196" lon="-6.723791928231596"><ele>133.33333333333331</ele><time>2026-04-22T16:13:21.999Z</time></trkpt><trkpt lat="34.026478707520724" lon="-6.7238169122531435"><ele>133.0</ele><time>2026-04-22T16:13:23.999Z</time></trkpt><trkpt lat="34.0265372803485" lon="-6.723866957817123"><ele>132.66666666666666</ele><time>2026-04-22T16:13:25.999Z</time></trkpt><trkpt lat="34.02657901122399" lon="-6.723959080407385"><ele>132.33333333333334</ele><time>2026-04-22T16:13:27.999Z</time></trkpt><trkpt lat="34.02661311413864" lon="-6.724099872474796"><ele>132.0</ele><time>2026-04-22T16:13:29.999Z</time></trkpt><trkpt lat="34.02664670134969" lon="-6.724174312394367"><ele>131.2</ele><time>2026-04-22T16:13:30.999Z</time></trkpt><trkpt lat="34.026693170889054" lon="-6.724249377421715"><ele>130.39999999999998</ele><time>2026-04-22T16:13:31.999Z</time></trkpt><trkpt lat="34.0267525450517" lon="-6.724328634778896"><ele>129.60000000000002</ele><time>2026-04-22T16:13:32.999Z</time></trkpt><trkpt lat="34.02681610089429" lon="-6.724417768129703"><ele>128.8</ele><time>2026-04-22T16:13:33.999Z</time></trkpt><trkpt lat="34.026882142061474" lon="-6.7245149537142765"><ele>128.0</ele><time>2026-04-22T16:13:34.999Z</time></trkpt><trkpt lat="34.02695193405694" lon="-6.724622814702398"><ele>128.0</ele><time>2026-04-22T16:13:35.999Z</time></trkpt><trkpt lat="34.02702649447899" lon="-6.724733989492523"><ele>128.0</ele><time>2026-04-22T16:13:36.999Z</time></trkpt><trkpt lat="34.02710645822681" lon="-6.724849136686294"><ele>128.0</ele><time>2026-04-22T16:13:37.999Z</time></trkpt><trkpt lat="34.027189566218155" lon="-6.724970132378761"><ele>128.0</ele><time>2026-04-22T16:13:38.999Z</time></trkpt><trkpt lat="34.02727334868781" lon="-6.72509368625891"><ele>128.0</ele><time>2026-04-22T16:13:39.999Z</time></trkpt><trkpt lat="34.027360203848716" lon="-6.725224704232465"><ele>128.0</ele><time>2026-04-22T16:13:40.999Z</time></trkpt><trkpt lat="34.02744669899024" lon="-6.7253564809707855"><ele>128.0</ele><time>2026-04-22T16:13:41.999Z</time></trkpt><trkpt lat="34.02753592923209" lon="-6.72549087273064"><ele>128.0</ele><time>2026-04-22T16:13:42.999Z</time></trkpt><trkpt lat="34.027622341958654" lon="-6.725627852677996"><ele>127.5</ele><time>2026-04-22T16:13:43.999Z</time></trkpt><trkpt lat="34.02770629218206" lon="-6.725769643627817"><ele>127.0</ele><time>2026-04-22T16:13:44.999Z</time></trkpt><trkpt lat="34.027784641611184" lon="-6.725914427648805"><ele>126.5</ele><time>2026-04-22T16:13:45.999Z</time></trkpt><trkpt lat="34.02785783673903" lon="-6.726058271223058"><ele>126.0</ele><time>2026-04-22T16:13:46.999Z</time></trkpt><trkpt lat="34.02792986889884" lon="-6.726205205963381"><ele>124.75</ele><time>2026-04-22T16:13:47.999Z</time></trkpt><trkpt lat="34.02799533483325" lon="-6.726357336401135"><ele>123.5</ele><time>2026-04-22T16:13:48.999Z</time></trkpt><trkpt lat="34.0280548981896" lon="-6.726509086964144"><ele>122.25</ele><time>2026-04-22T16:13:49.999Z</time></trkpt><trkpt lat="34.02811068544877" lon="-6.726661728890197"><ele>121.0</ele><time>2026-04-22T16:13:50.999Z</time></trkpt><trkpt lat="34.02816200699428" lon="-6.726815964434916"><ele>120.5</ele><time>2026-04-22T16:13:51.999Z</time></trkpt><trkpt lat="34.02820843682082" lon="-6.726973977001423"><ele>120.0</ele><time>2026-04-22T16:13:52.999Z</time></trkpt><trkpt lat="34.028250637085534" lon="-6.7271338518084995"><ele>119.5</ele><time>2026-04-22T16:13:53.999Z</time></trkpt><trkpt lat="34.02828887666425" lon="-6.727293712344657"><ele>119.0</ele><time>2026-04-22T16:13:54.999Z</time></trkpt><trkpt lat="34.02832440692927" lon="-6.727455565381269"><ele>119.0</ele><time>2026-04-22T16:13:55.999Z</time></trkpt><trkpt lat="34.02835424955825" lon="-6.7276199887266115"><ele>119.0</ele><time>2026-04-22T16:13:56.999Z</time></trkpt><trkpt lat="34.02838194070334" lon="-6.727783278132987"><ele>119.0</ele><time>2026-04-22T16:13:57.999Z</time></trkpt><trkpt lat="34.02840560551922" lon="-6.727943940205519"><ele>119.0</ele><time>2026-04-22T16:13:58.999Z</time></trkpt><trkpt lat="34.0284218927241" lon="-6.728096198169289"><ele>119.0</ele><time>2026-04-22T16:13:59.999Z</time></trkpt><trkpt lat="34.028436936509664" lon="-6.728236886042448"><ele>119.0</ele><time>2026-04-22T16:14:00.999Z</time></trkpt><trkpt lat="34.02844981507661" lon="-6.72836133060984"><ele>119.0</ele><time>2026-04-22T16:14:01.999Z</time></trkpt><trkpt lat="34.02846223020095" lon="-6.728476343389301"><ele>119.0</ele><time>2026-04-22T16:14:02.999Z</time></trkpt><trkpt lat="34.028474351766434" lon="-6.7285829875595455"><ele>119.0</ele><time>2026-04-22T16:14:03.999Z</time></trkpt><trkpt lat="34.028487297644254" lon="-6.72869177052927"><ele>118.49999999999999</ele><time>2026-04-22T16:14:04.999Z</time></trkpt><trkpt lat="34.028499382050825" lon="-6.728791901548308"><ele>118.0</ele><time>2026-04-22T16:14:05.999Z</time></trkpt><trkpt lat="34.02851028511245" lon="-6.728881924943023"><ele>117.5</ele><time>2026-04-22T16:14:06.999Z</time></trkpt><trkpt lat="34.02851821036798" lon="-6.728964764244861"><ele>117.0</ele><time>2026-04-22T16:14:07.999Z</time></trkpt><trkpt lat="34.02852828819644" lon="-6.729074875204224"><ele>116.49999999999999</ele><time>2026-04-22T16:14:09.999Z</time></trkpt><trkpt lat="34.028536677854945" lon="-6.729152550333305"><ele>116.0</ele><time>2026-04-22T16:14:12.999Z</time></trkpt><trkpt lat="34.0285275634793" lon="-6.729246600304087"><ele>116.0</ele><time>2026-04-22T16:15:00Z</time></trkpt><trkpt lat="34.02852650363408" lon="-6.729380454812007"><ele>116.0</ele><time>2026-04-22T16:15:02Z</time></trkpt><trkpt lat="34.02853180796655" lon="-6.729472878961754"><ele>116.0</ele><time>2026-04-22T16:15:03Z</time></trkpt><trkpt lat="34.02853894257684" lon="-6.7295756725797675"><ele>116.0</ele><time>2026-04-22T16:15:04Z</time></trkpt><trkpt lat="34.0285450346067" lon="-6.729685660333755"><ele>116.0</ele><time>2026-04-22T16:15:05Z</time></trkpt><trkpt lat="34.02854961460419" lon="-6.729805015754839"><ele>116.25</ele><time>2026-04-22T16:15:06Z</time></trkpt><trkpt lat="34.02855888346036" lon="-6.7299332400994905"><ele>116.5</ele><time>2026-04-22T16:15:07Z</time></trkpt><trkpt lat="34.02857177925884" lon="-6.730068880453231"><ele>116.75</ele><time>2026-04-22T16:15:08Z</time></trkpt><trkpt lat="34.028587442180374" lon="-6.7302148638574355"><ele>117.0</ele><time>2026-04-22T16:15:09Z</time></trkpt><trkpt lat="34.028605786541" lon="-6.73036687857436"><ele>116.25</ele><time>2026-04-22T16:15:10Z</time></trkpt><trkpt lat="34.02862273466678" lon="-6.730523686104341"><ele>115.5</ele><time>2026-04-22T16:15:11Z</time></trkpt><trkpt lat="34.02863931745746" lon="-6.7306832725889985"><ele>114.75</ele><time>2026-04-22T16:15:12Z</time></trkpt><trkpt lat="34.028653942861126" lon="-6.730849626737983"><ele>114.0</ele><time>2026-04-22T16:15:13Z</time></trkpt><trkpt lat="34.02866946434776" lon="-6.73102094876366"><ele>113.75</ele><time>2026-04-22T16:15:14Z</time></trkpt><trkpt lat="34.02868696014111" lon="-6.73119584646034"><ele>113.5</ele><time>2026-04-22T16:15:15Z</time></trkpt><trkpt lat="34.02870589502413" lon="-6.731371740184423"><ele>113.25</ele><time>2026-04-22T16:15:16Z</time></trkpt><trkpt lat="34.02872375355056" lon="-6.731549450096887"><ele>113.0</ele><time>2026-04-22T16:15:16.999Z</time></trkpt><trkpt lat="34.02873838955088" lon="-6.731727925439217"><ele>112.66666666666666</ele><time>2026-04-22T16:15:17.999Z</time></trkpt><trkpt lat="34.02875422383776" lon="-6.731908966970452"><ele>112.33333333333334</ele><time>2026-04-22T16:15:18.999Z</time></trkpt><trkpt lat="34.02877156024768" lon="-6.732091527777876"><ele>112.0</ele><time>2026-04-22T16:15:19.999Z</time></trkpt><trkpt lat="34.028789866419494" lon="-6.7322769464724965"><ele>112.0</ele><time>2026-04-22T16:15:20.999Z</time></trkpt><trkpt lat="34.02880705490317" lon="-6.73246544164797"><ele>112.0</ele><time>2026-04-22T16:15:21.999Z</time></trkpt><trkpt lat="34.028825976182894" lon="-6.732656794525048"><ele>112.0</ele><time>2026-04-22T16:15:22.999Z</time></trkpt><trkpt lat="34.028845623324294" lon="-6.732853121274628"><ele>112.33333333333334</ele><time>2026-04-22T16:15:23.999Z</time></trkpt><trkpt lat="34.028865649634" lon="-6.733048496138229"><ele>112.66666666666666</ele><time>2026-04-22T16:15:24.999Z</time></trkpt><trkpt lat="34.0288853496414" lon="-6.733242139731527"><ele>113.0</ele><time>2026-04-22T16:15:25.999Z</time></trkpt><trkpt lat="34.02890375082624" lon="-6.733437990906549"><ele>112.33333333333333</ele><time>2026-04-22T16:15:26.999Z</time></trkpt><trkpt lat="34.02892256307775" lon="-6.7336314185257855"><ele>111.66666666666666</ele><time>2026-04-22T16:15:27.999Z</time></trkpt><trkpt lat="34.02894257636411" lon="-6.733824123935222"><ele>111.0</ele><time>2026-04-22T16:15:28.999Z</time></trkpt><trkpt lat="34.02896469920881" lon="-6.734018453400238"><ele>111.0</ele><time>2026-04-22T16:15:29.999Z</time></trkpt><trkpt lat="34.028984548718455" lon="-6.734207682972648"><ele>111.0</ele><time>2026-04-22T16:15:30.999Z</time></trkpt><trkpt lat="34.02900654130571" lon="-6.734398465542961"><ele>111.0</ele><time>2026-04-22T16:15:31.999Z</time></trkpt><trkpt lat="34.02902541511453" lon="-6.734587207911004"><ele>110.33333333333334</ele><time>2026-04-22T16:15:32.999Z</time></trkpt><trkpt lat="34.029043562238705" lon="-6.734778677527089"><ele>109.66666666666667</ele><time>2026-04-22T16:15:33.999Z</time></trkpt><trkpt lat="34.02905972739591" lon="-6.734972126643085"><ele>109.0</ele><time>2026-04-22T16:15:34.999Z</time></trkpt><trkpt lat="34.02907867747038" lon="-6.735170181947593"><ele>108.66666666666667</ele><time>2026-04-22T16:15:35.999Z</time></trkpt><trkpt lat="34.029097393469044" lon="-6.735370649804794"><ele>108.33333333333334</ele><time>2026-04-22T16:15:36.999Z</time></trkpt><trkpt lat="34.029115134547176" lon="-6.735571933160041"><ele>108.0</ele><time>2026-04-22T16:15:37.999Z</time></trkpt><trkpt lat="34.02913379784431" lon="-6.735770171668015"><ele>108.33333333333334</ele><time>2026-04-22T16:15:38.999Z</time></trkpt><trkpt lat="34.02915134313764" lon="-6.735966210871404"><ele>108.66666666666667</ele><time>2026-04-22T16:15:39.999Z</time></trkpt><trkpt lat="34.02916949993498" lon="-6.736158090202383"><ele>109.0</ele><time>2026-04-22T16:15:40.999Z</time></trkpt><trkpt lat="34.02918241559503" lon="-6.736339725382495"><ele>109.0</ele><time>2026-04-22T16:15:41.999Z</time></trkpt><trkpt lat="34.0291923868662" lon="-6.736515198879967"><ele>109.0</ele><time>2026-04-22T16:15:42.999Z</time></trkpt><trkpt lat="34.02920547220141" lon="-6.736686364354363"><ele>109.0</ele><time>2026-04-22T16:15:43.999Z</time></trkpt><trkpt lat="34.02922146149862" lon="-6.736859324965939"><ele>109.0</ele><time>2026-04-22T16:15:44.999Z</time></trkpt><trkpt lat="34.02923899909488" lon="-6.737037743007545"><ele>108.25</ele><time>2026-04-22T16:15:45.999Z</time></trkpt><trkpt lat="34.02925322518777" lon="-6.7372181121892964"><ele>107.5</ele><time>2026-04-22T16:15:46.999Z</time></trkpt><trkpt lat="34.029267293562796" lon="-6.737395169341085"><ele>106.75</ele><time>2026-04-22T16:15:47.999Z</time></trkpt><trkpt lat="34.02928138696529" lon="-6.737574434838976"><ele>106.0</ele><time>2026-04-22T16:15:48.999Z</time></trkpt><trkpt lat="34.029298771392114" lon="-6.7377499042670115"><ele>105.5</ele><time>2026-04-22T16:15:49.999Z</time></trkpt><trkpt lat="34.029317264967034" lon="-6.737921921915113"><ele>105.0</ele><time>2026-04-22T16:15:50.999Z</time></trkpt><trkpt lat="34.029335316667975" lon="-6.738092816158695"><ele>104.5</ele><time>2026-04-22T16:15:51.999Z</time></trkpt><trkpt lat="34.02935181459817" lon="-6.73826505577614"><ele>104.0</ele><time>2026-04-22T16:15:52.999Z</time></trkpt><trkpt lat="34.0293671755702" lon="-6.738440052929489"><ele>103.75</ele><time>2026-04-22T16:15:53.999Z</time></trkpt><trkpt lat="34.029384768475936" lon="-6.738615965628297"><ele>103.5</ele><time>2026-04-22T16:15:54.999Z</time></trkpt><trkpt lat="34.029401819167454" lon="-6.738793076474338"><ele>103.25</ele><time>2026-04-22T16:15:55.999Z</time></trkpt><trkpt lat="34.029420504018454" lon="-6.738970144156579"><ele>103.0</ele><time>2026-04-22T16:15:56.999Z</time></trkpt><trkpt lat="34.02943797929717" lon="-6.739147581009075"><ele>103.0</ele><time>2026-04-22T16:15:57.999Z</time></trkpt><trkpt lat="34.02945440513605" lon="-6.739317559727479"><ele>103.0</ele><time>2026-04-22T16:15:58.999Z</time></trkpt><trkpt lat="34.02946919495532" lon="-6.7394795842624315"><ele>103.0</ele><time>2026-04-22T16:15:59.999Z</time></trkpt><trkpt lat="34.029483529363795" lon="-6.739638029203301"><ele>103.0</ele><time>2026-04-22T16:16:00.999Z</time></trkpt><trkpt lat="34.029497271412254" lon="-6.739793725862948"><ele>102.5</ele><time>2026-04-22T16:16:01.999Z</time></trkpt><trkpt lat="34.02951302728148" lon="-6.739948993958453"><ele>102.0</ele><time>2026-04-22T16:16:02.999Z</time></trkpt><trkpt lat="34.029529613007604" lon="-6.740101350453028"><ele>101.5</ele><time>2026-04-22T16:16:03.999Z</time></trkpt><trkpt lat="34.0295436462649" lon="-6.740253462692515"><ele>101.0</ele><time>2026-04-22T16:16:04.999Z</time></trkpt><trkpt lat="34.02956057606539" lon="-6.740411046513596"><ele>101.0</ele><time>2026-04-22T16:16:05.999Z</time></trkpt><trkpt lat="34.02957496297123" lon="-6.740565095671807"><ele>101.0</ele><time>2026-04-22T16:16:06.999Z</time></trkpt><trkpt lat="34.02958641481477" lon="-6.740716799691926"><ele>101.0</ele><time>2026-04-22T16:16:07.999Z</time></trkpt><trkpt lat="34.029599099376334" lon="-6.7408655923922005"><ele>101.0</ele><time>2026-04-22T16:16:08.999Z</time></trkpt><trkpt lat="34.02961354910805" lon="-6.741014372093059"><ele>100.75</ele><time>2026-04-22T16:16:09.999Z</time></trkpt><trkpt lat="34.029627622475196" lon="-6.741165077014941"><ele>100.5</ele><time>2026-04-22T16:16:10.999Z</time></trkpt><trkpt lat="34.02964259637793" lon="-6.74131476696438"><ele>100.25</ele><time>2026-04-22T16:16:11.999Z</time></trkpt><trkpt lat="34.029657240331176" lon="-6.7414653724124225"><ele>100.0</ele><time>2026-04-22T16:16:12.999Z</time></trkpt><trkpt lat="34.02967213857963" lon="-6.741618193610519"><ele>100.0</ele><time>2026-04-22T16:16:13.999Z</time></trkpt><trkpt lat="34.02968649432597" lon="-6.74177251675199"><ele>100.0</ele><time>2026-04-22T16:16:14.999Z</time></trkpt><trkpt lat="34.0297015148224" lon="-6.741925429720447"><ele>100.0</ele><time>2026-04-22T16:16:15.999Z</time></trkpt><trkpt lat="34.02971537048631" lon="-6.742073494930045"><ele>100.0</ele><time>2026-04-22T16:16:16.999Z</time></trkpt><trkpt lat="34.02972798449687" lon="-6.742219645134102"><ele>99.75</ele><time>2026-04-22T16:16:17.999Z</time></trkpt><trkpt lat="34.02974316040749" lon="-6.7423647581317825"><ele>99.5</ele><time>2026-04-22T16:16:18.999Z</time></trkpt><trkpt lat="34.02975649983498" lon="-6.7425078694351175"><ele>99.25</ele><time>2026-04-22T16:16:19.999Z</time></trkpt><trkpt lat="34.02977189782377" lon="-6.742650334102037"><ele>99.0</ele><time>2026-04-22T16:16:20.999Z</time></trkpt><trkpt lat="34.029786889748294" lon="-6.742792288922993"><ele>99.0</ele><time>2026-04-22T16:16:21.999Z</time></trkpt><trkpt lat="34.0297992428318" lon="-6.7429360510969305"><ele>99.0</ele><time>2026-04-22T16:16:22.999Z</time></trkpt><trkpt lat="34.02981055929575" lon="-6.743081877744993"><ele>99.0</ele><time>2026-04-22T16:16:23.999Z</time></trkpt><trkpt lat="34.02982563719314" lon="-6.743229830170468"><ele>99.0</ele><time>2026-04-22T16:16:24.999Z</time></trkpt><trkpt lat="34.02984200612945" lon="-6.743382925984076"><ele>99.0</ele><time>2026-04-22T16:16:25.999Z</time></trkpt><trkpt lat="34.02985537920062" lon="-6.743540325103954"><ele>99.0</ele><time>2026-04-22T16:16:26.999Z</time></trkpt><trkpt lat="34.02986973343641" lon="-6.743699955245089"><ele>99.0</ele><time>2026-04-22T16:16:27.999Z</time></trkpt><trkpt lat="34.02988390336782" lon="-6.74386257078949"><ele>99.0</ele><time>2026-04-22T16:16:28.999Z</time></trkpt><trkpt lat="34.02989983930512" lon="-6.744030035423174"><ele>99.0</ele><time>2026-04-22T16:16:29.999Z</time></trkpt><trkpt lat="34.02991669266114" lon="-6.7441981591663716"><ele>99.0</ele><time>2026-04-22T16:16:30.999Z</time></trkpt><trkpt lat="34.02993230411219" lon="-6.744363772209829"><ele>99.0</ele><time>2026-04-22T16:16:31.999Z</time></trkpt><trkpt lat="34.02994797160948" lon="-6.744529328752482"><ele>99.0</ele><time>2026-04-22T16:16:32.999Z</time></trkpt><trkpt lat="34.029962999200485" lon="-6.7446936273093065"><ele>98.5</ele><time>2026-04-22T16:16:33.999Z</time></trkpt><trkpt lat="34.02997848354416" lon="-6.744856055004438"><ele>98.0</ele><time>2026-04-22T16:16:34.999Z</time></trkpt><trkpt lat="34.02999499176931" lon="-6.745022320344116"><ele>97.5</ele><time>2026-04-22T16:16:35.999Z</time></trkpt><trkpt lat="34.0300130211477" lon="-6.745188459322754"><ele>97.0</ele><time>2026-04-22T16:16:36.999Z</time></trkpt><trkpt lat="34.03002868777483" lon="-6.745356376306782"><ele>97.0</ele><time>2026-04-22T16:16:37.998Z</time></trkpt><trkpt lat="34.030045530884365" lon="-6.745525056190873"><ele>97.0</ele><time>2026-04-22T16:16:38.998Z</time></trkpt><trkpt lat="34.03006251035717" lon="-6.745694886665483"><ele>97.0</ele><time>2026-04-22T16:16:39.998Z</time></trkpt><trkpt lat="34.03007699016277" lon="-6.745864038692091"><ele>97.0</ele><time>2026-04-22T16:16:40.998Z</time></trkpt><trkpt lat="34.030091548515784" lon="-6.746035733419056"><ele>97.0</ele><time>2026-04-22T16:16:41.998Z</time></trkpt><trkpt lat="34.03010857537655" lon="-6.746206760387085"><ele>97.0</ele><time>2026-04-22T16:16:42.998Z</time></trkpt><trkpt lat="34.030125503777626" lon="-6.7463792405733"><ele>97.0</ele><time>2026-04-22T16:16:43.998Z</time></trkpt><trkpt lat="34.030141483266114" lon="-6.746550906924894"><ele>97.0</ele><time>2026-04-22T16:16:44.998Z</time></trkpt><trkpt lat="34.03015877654869" lon="-6.746717991546822"><ele>97.0</ele><time>2026-04-22T16:16:45.998Z</time></trkpt><trkpt lat="34.03017630329924" lon="-6.746887464440824"><ele>97.0</ele><time>2026-04-22T16:16:46.998Z</time></trkpt><trkpt lat="34.03019284327239" lon="-6.747059761442769"><ele>97.0</ele><time>2026-04-22T16:16:47.998Z</time></trkpt><trkpt lat="34.03020901360065" lon="-6.74722886534874"><ele>97.0</ele><time>2026-04-22T16:16:48.998Z</time></trkpt><trkpt lat="34.030225747237964" lon="-6.7473991264951225"><ele>97.0</ele><time>2026-04-22T16:16:49.998Z</time></trkpt><trkpt lat="34.03024183022398" lon="-6.747567245958739"><ele>97.0</ele><time>2026-04-22T16:16:50.998Z</time></trkpt><trkpt lat="34.0302588996554" lon="-6.747735766182378"><ele>97.0</ele><time>2026-04-22T16:16:51.998Z</time></trkpt><trkpt lat="34.03027559710094" lon="-6.7479039122596385"><ele>97.0</ele><time>2026-04-22T16:16:52.999Z</time></trkpt><trkpt lat="34.03029252452968" lon="-6.748072069520173"><ele>96.75</ele><time>2026-04-22T16:16:53.999Z</time></trkpt><trkpt lat="34.030308760809234" lon="-6.748239123281488"><ele>96.5</ele><time>2026-04-22T16:16:54.999Z</time></trkpt><trkpt lat="34.03032483854336" lon="-6.748405504550033"><ele>96.25</ele><time>2026-04-22T16:16:55.999Z</time></trkpt><trkpt lat="34.03034033600156" lon="-6.748572313460222"><ele>96.0</ele><time>2026-04-22T16:16:56.999Z</time></trkpt><trkpt lat="34.0303572207546" lon="-6.748740906877399"><ele>96.0</ele><time>2026-04-22T16:16:57.999Z</time></trkpt><trkpt lat="34.03037417401355" lon="-6.74890800347606"><ele>96.0</ele><time>2026-04-22T16:16:58.999Z</time></trkpt><trkpt lat="34.030392725099524" lon="-6.74907350107416"><ele>96.0</ele><time>2026-04-22T16:16:59.999Z</time></trkpt><trkpt lat="34.030410695552476" lon="-6.749238742782621"><ele>96.0</ele><time>2026-04-22T16:17:00.999Z</time></trkpt><trkpt lat="34.03042755126738" lon="-6.7494019999802966"><ele>95.5</ele><time>2026-04-22T16:17:01.999Z</time></trkpt><trkpt lat="34.030446089235134" lon="-6.749564706393206"><ele>95.0</ele><time>2026-04-22T16:17:02.999Z</time></trkpt><trkpt lat="34.030463553482775" lon="-6.74972251770156"><ele>94.5</ele><time>2026-04-22T16:17:03.999Z</time></trkpt><trkpt lat="34.030480983741164" lon="-6.749875562149402"><ele>94.0</ele><time>2026-04-22T16:17:04.999Z</time></trkpt><trkpt lat="34.030499123108214" lon="-6.750022498669907"><ele>94.0</ele><time>2026-04-22T16:17:05.999Z</time></trkpt><trkpt lat="34.030515425515524" lon="-6.75016795065255"><ele>94.0</ele><time>2026-04-22T16:17:06.999Z</time></trkpt><trkpt lat="34.03053036235637" lon="-6.750313664390491"><ele>94.0</ele><time>2026-04-22T16:17:07.999Z</time></trkpt><trkpt lat="34.030547826810825" lon="-6.750463008144533"><ele>94.0</ele><time>2026-04-22T16:17:08.999Z</time></trkpt><trkpt lat="34.030564491028755" lon="-6.750612410257639"><ele>94.0</ele><time>2026-04-22T16:17:09.999Z</time></trkpt><trkpt lat="34.030582700595055" lon="-6.750759957611291"><ele>94.0</ele><time>2026-04-22T16:17:10.999Z</time></trkpt><trkpt lat="34.03060269656082" lon="-6.750906200248278"><ele>94.0</ele><time>2026-04-22T16:17:11.999Z</time></trkpt><trkpt lat="34.030622264832296" lon="-6.751049717193417"><ele>94.0</ele><time>2026-04-22T16:17:12.999Z</time></trkpt><trkpt lat="34.030641809548186" lon="-6.751188822076437"><ele>94.2</ele><time>2026-04-22T16:17:13.999Z</time></trkpt><trkpt lat="34.030660390799554" lon="-6.751322620765722"><ele>94.4</ele><time>2026-04-22T16:17:14.999Z</time></trkpt><trkpt lat="34.030677588796586" lon="-6.751451928927385"><ele>94.6</ele><time>2026-04-22T16:17:15.999Z</time></trkpt><trkpt lat="34.03069458900725" lon="-6.751576243964617"><ele>94.8</ele><time>2026-04-22T16:17:16.999Z</time></trkpt><trkpt lat="34.03071206997169" lon="-6.75169875930785"><ele>95.0</ele><time>2026-04-22T16:17:17.999Z</time></trkpt><trkpt lat="34.03072772573475" lon="-6.751819024562341"><ele>95.2</ele><time>2026-04-22T16:17:18.999Z</time></trkpt><trkpt lat="34.03074425751948" lon="-6.751937705229301"><ele>95.4</ele><time>2026-04-22T16:17:19.999Z</time></trkpt><trkpt lat="34.030763013508434" lon="-6.7520550189564705"><ele>95.6</ele><time>2026-04-22T16:17:20.999Z</time></trkpt><trkpt lat="34.030782823584914" lon="-6.752170237588139"><ele>95.8</ele><time>2026-04-22T16:17:21.999Z</time></trkpt><trkpt lat="34.03080081604463" lon="-6.75227605979286"><ele>96.0</ele><time>2026-04-22T16:17:22.999Z</time></trkpt><trkpt lat="34.03081594914266" lon="-6.752373062356279"><ele>96.16666666666667</ele><time>2026-04-22T16:17:23.999Z</time></trkpt><trkpt lat="34.03083079424899" lon="-6.752461080945173"><ele>96.33333333333334</ele><time>2026-04-22T16:17:24.999Z</time></trkpt><trkpt lat="34.030845363992775" lon="-6.752536647151118"><ele>96.5</ele><time>2026-04-22T16:17:25.999Z</time></trkpt><trkpt lat="34.03086930715675" lon="-6.752662336979832"><ele>96.66666666666667</ele><time>2026-04-22T16:17:27.999Z</time></trkpt><trkpt lat="34.03088674398489" lon="-6.752759893142085"><ele>96.83333333333334</ele><time>2026-04-22T16:17:29.999Z</time></trkpt><trkpt lat="34.03089715937692" lon="-6.752845100658242"><ele>97.0</ele><time>2026-04-22T16:17:40.999Z</time></trkpt><trkpt lat="34.0309241678911" lon="-6.752955479435152"><ele>97.0</ele><time>2026-04-22T16:17:43.999Z</time></trkpt><trkpt lat="34.03093850551741" lon="-6.753061841211469"><ele>97.0</ele><time>2026-04-22T16:17:45.999Z</time></trkpt><trkpt lat="34.03095959162387" lon="-6.753185656758117"><ele>97.0</ele><time>2026-04-22T16:17:47.999Z</time></trkpt><trkpt lat="34.03097963375456" lon="-6.75331997441912"><ele>97.0</ele><time>2026-04-22T16:17:49.999Z</time></trkpt><trkpt lat="34.030995407313156" lon="-6.753459295602568"><ele>97.0</ele><time>2026-04-22T16:17:51.999Z</time></trkpt><trkpt lat="34.031017050978456" lon="-6.7535988452348885"><ele>97.25</ele><time>2026-04-22T16:17:53.999Z</time></trkpt><trkpt lat="34.03106031968328" lon="-6.7537268327451025"><ele>97.5</ele><time>2026-04-22T16:17:55.999Z</time></trkpt><trkpt lat="34.03113671410867" lon="-6.753833850013585"><ele>97.75</ele><time>2026-04-22T16:17:57.999Z</time></trkpt><trkpt lat="34.03123706068617" lon="-6.7538993670637755"><ele>98.0</ele><time>2026-04-22T16:17:59.999Z</time></trkpt><trkpt lat="34.031329048112916" lon="-6.753980711219752"><ele>97.99999999999999</ele><time>2026-04-22T16:18:01.999Z</time></trkpt><trkpt lat="34.03138629996143" lon="-6.754116491542191"><ele>98.0</ele><time>2026-04-22T16:18:03.999Z</time></trkpt><trkpt lat="34.03138227819019" lon="-6.754199344203959"><ele>98.0</ele><time>2026-04-22T16:18:04.999Z</time></trkpt><trkpt lat="34.03137111780362" lon="-6.754278063881696"><ele>98.0</ele><time>2026-04-22T16:18:05.999Z</time></trkpt><trkpt lat="34.03135297871579" lon="-6.754354524363916"><ele>97.99999999999999</ele><time>2026-04-22T16:18:06.999Z</time></trkpt><trkpt lat="34.03133630185635" lon="-6.754441694083182"><ele>98.0</ele><time>2026-04-22T16:18:07.999Z</time></trkpt><trkpt lat="34.031316724193694" lon="-6.754537730484127"><ele>98.2</ele><time>2026-04-22T16:18:08.999Z</time></trkpt><trkpt lat="34.03129638519602" lon="-6.754636968541608"><ele>98.4</ele><time>2026-04-22T16:18:09.999Z</time></trkpt><trkpt lat="34.03127859777564" lon="-6.754738192697262"><ele>98.60000000000001</ele><time>2026-04-22T16:18:10.999Z</time></trkpt><trkpt lat="34.03126309642219" lon="-6.754844698513256"><ele>98.80000000000001</ele><time>2026-04-22T16:18:11.999Z</time></trkpt><trkpt lat="34.03124508230456" lon="-6.754956639466219"><ele>99.0</ele><time>2026-04-22T16:18:12.999Z</time></trkpt><trkpt lat="34.03122631797798" lon="-6.755073957403846"><ele>99.0</ele><time>2026-04-22T16:18:13.999Z</time></trkpt><trkpt lat="34.031208448719326" lon="-6.755197724228733"><ele>99.0</ele><time>2026-04-22T16:18:14.999Z</time></trkpt><trkpt lat="34.03119797779312" lon="-6.755329480926388"><ele>99.0</ele><time>2026-04-22T16:18:15.999Z</time></trkpt><trkpt lat="34.031193673012744" lon="-6.755467250137252"><ele>99.0</ele><time>2026-04-22T16:18:16.999Z</time></trkpt><trkpt lat="34.031189788372586" lon="-6.755610831213911"><ele>99.0</ele><time>2026-04-22T16:18:17.999Z</time></trkpt><trkpt lat="34.03118958563113" lon="-6.755759508494302"><ele>98.75</ele><time>2026-04-22T16:18:18.999Z</time></trkpt><trkpt lat="34.03118958425197" lon="-6.755921112590083"><ele>98.5</ele><time>2026-04-22T16:18:19.999Z</time></trkpt><trkpt lat="34.03119554397674" lon="-6.75608731448662"><ele>98.25</ele><time>2026-04-22T16:18:20.999Z</time></trkpt><trkpt lat="34.03119989985685" lon="-6.7562549073765314"><ele>98.0</ele><time>2026-04-22T16:18:21.999Z</time></trkpt><trkpt lat="34.03120727288564" lon="-6.756418966146628"><ele>96.75</ele><time>2026-04-22T16:18:22.999Z</time></trkpt><trkpt lat="34.031216757309856" lon="-6.756578296231362"><ele>95.5</ele><time>2026-04-22T16:18:23.999Z</time></trkpt><trkpt lat="34.03122992120813" lon="-6.756734795431663"><ele>94.25</ele><time>2026-04-22T16:18:24.999Z</time></trkpt><trkpt lat="34.03123999414363" lon="-6.756892402734259"><ele>93.0</ele><time>2026-04-22T16:18:25.999Z</time></trkpt><trkpt lat="34.03125264806685" lon="-6.75705109422925"><ele>92.75</ele><time>2026-04-22T16:18:26.999Z</time></trkpt><trkpt lat="34.03126834719959" lon="-6.757212333673591"><ele>92.5</ele><time>2026-04-22T16:18:27.999Z</time></trkpt><trkpt lat="34.03128517760589" lon="-6.75737807278617"><ele>92.25</ele><time>2026-04-22T16:18:28.999Z</time></trkpt><trkpt lat="34.03130007030654" lon="-6.757540758041635"><ele>92.0</ele><time>2026-04-22T16:18:29.998Z</time></trkpt><trkpt lat="34.03131568630672" lon="-6.75770498526546"><ele>91.75</ele><time>2026-04-22T16:18:30.998Z</time></trkpt><trkpt lat="34.031331960681165" lon="-6.757866087196083"><ele>91.5</ele><time>2026-04-22T16:18:31.998Z</time></trkpt><trkpt lat="34.03134892613847" lon="-6.758021137603725"><ele>91.25</ele><time>2026-04-22T16:18:32.998Z</time></trkpt><trkpt lat="34.03136560470581" lon="-6.758176095398639"><ele>91.0</ele><time>2026-04-22T16:18:33.998Z</time></trkpt><trkpt lat="34.0313796502113" lon="-6.758332524623157"><ele>91.0</ele><time>2026-04-22T16:18:34.998Z</time></trkpt><trkpt lat="34.03139265639215" lon="-6.758487958267293"><ele>91.0</ele><time>2026-04-22T16:18:35.998Z</time></trkpt><trkpt lat="34.031407311218736" lon="-6.758643975540567"><ele>91.0</ele><time>2026-04-22T16:18:36.998Z</time></trkpt><trkpt lat="34.03142304774459" lon="-6.758798456829378"><ele>91.0</ele><time>2026-04-22T16:18:37.998Z</time></trkpt><trkpt lat="34.03143800099518" lon="-6.758950263744065"><ele>90.75</ele><time>2026-04-22T16:18:38.998Z</time></trkpt><trkpt lat="34.03145419299518" lon="-6.759103026123606"><ele>90.5</ele><time>2026-04-22T16:18:39.998Z</time></trkpt><trkpt lat="34.03146900122003" lon="-6.759255290895425"><ele>90.25</ele><time>2026-04-22T16:18:40.998Z</time></trkpt><trkpt lat="34.03148417257581" lon="-6.759408754017926"><ele>90.0</ele><time>2026-04-22T16:18:41.998Z</time></trkpt><trkpt lat="34.03149828594113" lon="-6.7595671120050485"><ele>90.0</ele><time>2026-04-22T16:18:42.998Z</time></trkpt><trkpt lat="34.03151423967871" lon="-6.759727007466993"><ele>90.0</ele><time>2026-04-22T16:18:43.998Z</time></trkpt><trkpt lat="34.031531386605685" lon="-6.759886457365339"><ele>90.0</ele><time>2026-04-22T16:18:44.998Z</time></trkpt><trkpt lat="34.031546268081144" lon="-6.760044657632319"><ele>90.0</ele><time>2026-04-22T16:18:45.998Z</time></trkpt><trkpt lat="34.031558787534216" lon="-6.76020210907508"><ele>90.25</ele><time>2026-04-22T16:18:46.998Z</time></trkpt><trkpt lat="34.03157227338689" lon="-6.760359694704258"><ele>90.5</ele><time>2026-04-22T16:18:47.998Z</time></trkpt><trkpt lat="34.0315889234579" lon="-6.760519971565014"><ele>90.75</ele><time>2026-04-22T16:18:48.998Z</time></trkpt><trkpt lat="34.03160312509275" lon="-6.760678648252671"><ele>91.0</ele><time>2026-04-22T16:18:49.998Z</time></trkpt><trkpt lat="34.03162067589881" lon="-6.760832386247672"><ele>91.0</ele><time>2026-04-22T16:18:50.998Z</time></trkpt><trkpt lat="34.03163887870389" lon="-6.760984434658354"><ele>91.0</ele><time>2026-04-22T16:18:51.998Z</time></trkpt><trkpt lat="34.031654972660476" lon="-6.761139559003631"><ele>91.0</ele><time>2026-04-22T16:18:52.998Z</time></trkpt><trkpt lat="34.03166905666211" lon="-6.761294795940887"><ele>91.0</ele><time>2026-04-22T16:18:53.998Z</time></trkpt><trkpt lat="34.03168382008589" lon="-6.761449651956612"><ele>91.5</ele><time>2026-04-22T16:18:54.998Z</time></trkpt><trkpt lat="34.03170038632351" lon="-6.76160175792165"><ele>92.0</ele><time>2026-04-22T16:18:55.998Z</time></trkpt><trkpt lat="34.03171590484907" lon="-6.761749907670267"><ele>92.5</ele><time>2026-04-22T16:18:56.998Z</time></trkpt><trkpt lat="34.03173008417644" lon="-6.761891403211588"><ele>93.0</ele><time>2026-04-22T16:18:57.999Z</time></trkpt><trkpt lat="34.03174103684369" lon="-6.762032113691091"><ele>93.0</ele><time>2026-04-22T16:18:58.999Z</time></trkpt><trkpt lat="34.03175392530228" lon="-6.762174592104348"><ele>93.0</ele><time>2026-04-22T16:18:59.999Z</time></trkpt><trkpt lat="34.03176980640594" lon="-6.762317393614343"><ele>93.0</ele><time>2026-04-22T16:19:00.999Z</time></trkpt><trkpt lat="34.031786529678065" lon="-6.7624587747001375"><ele>93.0</ele><time>2026-04-22T16:19:01.999Z</time></trkpt><trkpt lat="34.03180279633378" lon="-6.762600647001122"><ele>92.5</ele><time>2026-04-22T16:19:02.999Z</time></trkpt><trkpt lat="34.0318198242072" lon="-6.762746093839142"><ele>92.0</ele><time>2026-04-22T16:19:03.999Z</time></trkpt><trkpt lat="34.03183468904599" lon="-6.762889179314825"><ele>91.5</ele><time>2026-04-22T16:19:04.999Z</time></trkpt><trkpt lat="34.031847615241915" lon="-6.763033085519184"><ele>91.0</ele><time>2026-04-22T16:19:05.999Z</time></trkpt><trkpt lat="34.03186062489423" lon="-6.763178867051479"><ele>91.0</ele><time>2026-04-22T16:19:06.999Z</time></trkpt><trkpt lat="34.031874586793684" lon="-6.76332601572997"><ele>91.0</ele><time>2026-04-22T16:19:07.999Z</time></trkpt><trkpt lat="34.03188716541143" lon="-6.763474754677343"><ele>91.0</ele><time>2026-04-22T16:19:08.999Z</time></trkpt><trkpt lat="34.031897751689094" lon="-6.76362568428986"><ele>91.0</ele><time>2026-04-22T16:19:09.999Z</time></trkpt><trkpt lat="34.0319107510649" lon="-6.76378413023606"><ele>91.0</ele><time>2026-04-22T16:19:10.999Z</time></trkpt><trkpt lat="34.03192407330857" lon="-6.7639501102716055"><ele>91.0</ele><time>2026-04-22T16:19:11.999Z</time></trkpt><trkpt lat="34.031939705474684" lon="-6.764120725099716"><ele>91.0</ele><time>2026-04-22T16:19:12.999Z</time></trkpt><trkpt lat="34.03195282945614" lon="-6.764296905301366"><ele>91.0</ele><time>2026-04-22T16:19:13.999Z</time></trkpt><trkpt lat="34.03196588602215" lon="-6.764473396427711"><ele>90.25</ele><time>2026-04-22T16:19:14.999Z</time></trkpt><trkpt lat="34.031980587700886" lon="-6.764650496494697"><ele>89.5</ele><time>2026-04-22T16:19:15.999Z</time></trkpt><trkpt lat="34.031996181141515" lon="-6.764829264297539"><ele>88.75</ele><time>2026-04-22T16:19:16.999Z</time></trkpt><trkpt lat="34.03201302981616" lon="-6.765010004279626"><ele>88.0</ele><time>2026-04-22T16:19:17.999Z</time></trkpt><trkpt lat="34.03203139418402" lon="-6.765190545460848"><ele>88.0</ele><time>2026-04-22T16:19:18.999Z</time></trkpt><trkpt lat="34.03204886178371" lon="-6.765372868509552"><ele>88.0</ele><time>2026-04-22T16:19:19.999Z</time></trkpt><trkpt lat="34.03206781430216" lon="-6.765559991498059"><ele>88.0</ele><time>2026-04-22T16:19:20.999Z</time></trkpt><trkpt lat="34.03208833302014" lon="-6.765745889783675"><ele>88.0</ele><time>2026-04-22T16:19:21.999Z</time></trkpt><trkpt lat="34.03210796014286" lon="-6.765935188682797"><ele>88.0</ele><time>2026-04-22T16:19:22.999Z</time></trkpt><trkpt lat="34.03212611838748" lon="-6.766122457233641"><ele>88.0</ele><time>2026-04-22T16:19:23.999Z</time></trkpt><trkpt lat="34.032142431080096" lon="-6.76630823731506"><ele>87.66666666666666</ele><time>2026-04-22T16:19:24.999Z</time></trkpt><trkpt lat="34.03215939347179" lon="-6.766492561175157"><ele>87.33333333333333</ele><time>2026-04-22T16:19:25.999Z</time></trkpt><trkpt lat="34.03217703581737" lon="-6.766678729725376"><ele>87.0</ele><time>2026-04-22T16:19:26.999Z</time></trkpt><trkpt lat="34.032195055709344" lon="-6.766865013103488"><ele>85.66666666666667</ele><time>2026-04-22T16:19:27.999Z</time></trkpt><trkpt lat="34.03221356639983" lon="-6.767050864953927"><ele>84.33333333333334</ele><time>2026-04-22T16:19:28.999Z</time></trkpt><trkpt lat="34.032232549952575" lon="-6.767237016555366"><ele>83.0</ele><time>2026-04-22T16:19:29.999Z</time></trkpt><trkpt lat="34.03225310016692" lon="-6.767423239607106"><ele>83.0</ele><time>2026-04-22T16:19:30.999Z</time></trkpt><trkpt lat="34.032273744390295" lon="-6.767606740066014"><ele>83.0</ele><time>2026-04-22T16:19:31.999Z</time></trkpt><trkpt lat="34.032293052192514" lon="-6.767788751718296"><ele>83.0</ele><time>2026-04-22T16:19:32.999Z</time></trkpt><trkpt lat="34.032312136257175" lon="-6.767967440324672"><ele>83.0</ele><time>2026-04-22T16:19:33.999Z</time></trkpt><trkpt lat="34.03233079611733" lon="-6.768139468962788"><ele>83.0</ele><time>2026-04-22T16:19:34.999Z</time></trkpt><trkpt lat="34.03234797794197" lon="-6.768306411877101"><ele>83.0</ele><time>2026-04-22T16:19:35.999Z</time></trkpt><trkpt lat="34.032364789400326" lon="-6.768468087250595"><ele>83.0</ele><time>2026-04-22T16:19:36.999Z</time></trkpt><trkpt lat="34.03237984247926" lon="-6.768626948328865"><ele>82.5</ele><time>2026-04-22T16:19:37.999Z</time></trkpt><trkpt lat="34.03239702778156" lon="-6.76878484565983"><ele>82.0</ele><time>2026-04-22T16:19:38.999Z</time></trkpt><trkpt lat="34.032412130192014" lon="-6.768943049606134"><ele>81.5</ele><time>2026-04-22T16:19:39.999Z</time></trkpt><trkpt lat="34.03242929943455" lon="-6.769102742077024"><ele>81.0</ele><time>2026-04-22T16:19:40.999Z</time></trkpt><trkpt lat="34.032446440952434" lon="-6.769264927006102"><ele>80.0</ele><time>2026-04-22T16:19:41.999Z</time></trkpt><trkpt lat="34.032461779963946" lon="-6.769432144444248"><ele>79.0</ele><time>2026-04-22T16:19:42.999Z</time></trkpt><trkpt lat="34.032477672356286" lon="-6.7696022841256935"><ele>78.0</ele><time>2026-04-22T16:19:43.999Z</time></trkpt><trkpt lat="34.03249586337547" lon="-6.769774841672275"><ele>77.0</ele><time>2026-04-22T16:19:44.999Z</time></trkpt><trkpt lat="34.032513483531986" lon="-6.769944017697121"><ele>76.75</ele><time>2026-04-22T16:19:45.999Z</time></trkpt><trkpt lat="34.032530202721745" lon="-6.770109856841819"><ele>76.5</ele><time>2026-04-22T16:19:46.999Z</time></trkpt><trkpt lat="34.03254572307427" lon="-6.77027070611658"><ele>76.25</ele><time>2026-04-22T16:19:47.999Z</time></trkpt><trkpt lat="34.03256028496951" lon="-6.77043024168752"><ele>76.0</ele><time>2026-04-22T16:19:48.999Z</time></trkpt><trkpt lat="34.03257533372284" lon="-6.770589142313694"><ele>76.75</ele><time>2026-04-22T16:19:49.999Z</time></trkpt><trkpt lat="34.03258971261553" lon="-6.770750727366201"><ele>77.5</ele><time>2026-04-22T16:19:50.999Z</time></trkpt><trkpt lat="34.032608675106125" lon="-6.770917455510525"><ele>78.25</ele><time>2026-04-22T16:19:51.999Z</time></trkpt><trkpt lat="34.032626951805575" lon="-6.771086394151045"><ele>79.0</ele><time>2026-04-22T16:19:52.999Z</time></trkpt><trkpt lat="34.032643719675306" lon="-6.77125440122478"><ele>79.0</ele><time>2026-04-22T16:19:53.999Z</time></trkpt><trkpt lat="34.032659721264636" lon="-6.771423320363708"><ele>79.0</ele><time>2026-04-22T16:19:54.999Z</time></trkpt><trkpt lat="34.03267525546271" lon="-6.771591821575068"><ele>79.0</ele><time>2026-04-22T16:19:55.999Z</time></trkpt><trkpt lat="34.032691451333406" lon="-6.7717630360292285"><ele>79.0</ele><time>2026-04-22T16:19:56.999Z</time></trkpt><trkpt lat="34.032708062424206" lon="-6.771935213906813"><ele>78.5</ele><time>2026-04-22T16:19:57.999Z</time></trkpt><trkpt lat="34.03272181210662" lon="-6.7721070710292635"><ele>78.0</ele><time>2026-04-22T16:19:58.999Z</time></trkpt><trkpt lat="34.03273720049166" lon="-6.7722765095158595"><ele>77.5</ele><time>2026-04-22T16:19:59.999Z</time></trkpt><trkpt lat="34.03275190728755" lon="-6.772444464968435"><ele>77.0</ele><time>2026-04-22T16:20:00.999Z</time></trkpt><trkpt lat="34.03277004872812" lon="-6.772603334279663"><ele>77.5</ele><time>2026-04-22T16:20:01.999Z</time></trkpt><trkpt lat="34.032785593997076" lon="-6.77275697837032"><ele>78.0</ele><time>2026-04-22T16:20:02.999Z</time></trkpt><trkpt lat="34.03280113460923" lon="-6.772908661230793"><ele>78.5</ele><time>2026-04-22T16:20:03.999Z</time></trkpt><trkpt lat="34.032815815321655" lon="-6.773056026154343"><ele>79.0</ele><time>2026-04-22T16:20:04.999Z</time></trkpt><trkpt lat="34.032828967052495" lon="-6.773199186349087"><ele>79.0</ele><time>2026-04-22T16:20:05.999Z</time></trkpt><trkpt lat="34.0328441663729" lon="-6.773334738263324"><ele>79.0</ele><time>2026-04-22T16:20:06.999Z</time></trkpt><trkpt lat="34.03285849954693" lon="-6.7734730417389555"><ele>79.0</ele><time>2026-04-22T16:20:07.999Z</time></trkpt><trkpt lat="34.032873890809846" lon="-6.773615672435384"><ele>79.0</ele><time>2026-04-22T16:20:08.999Z</time></trkpt><trkpt lat="34.03289093478601" lon="-6.773761390807181"><ele>79.25</ele><time>2026-04-22T16:20:09.999Z</time></trkpt><trkpt lat="34.032908450042584" lon="-6.773905086670356"><ele>79.5</ele><time>2026-04-22T16:20:10.999Z</time></trkpt><trkpt lat="34.03292980951769" lon="-6.774044353352736"><ele>79.75</ele><time>2026-04-22T16:20:11.999Z</time></trkpt><trkpt lat="34.03295431609858" lon="-6.774178605755736"><ele>80.0</ele><time>2026-04-22T16:20:12.999Z</time></trkpt><trkpt lat="34.032978992645766" lon="-6.774303957531603"><ele>79.66666666666667</ele><time>2026-04-22T16:20:13.999Z</time></trkpt><trkpt lat="34.03300297227333" lon="-6.774416342820267"><ele>79.33333333333334</ele><time>2026-04-22T16:20:14.999Z</time></trkpt><trkpt lat="34.03302518476345" lon="-6.774524162513961"><ele>79.0</ele><time>2026-04-22T16:20:15.999Z</time></trkpt><trkpt lat="34.033045354841875" lon="-6.774624941517873"><ele>78.66666666666667</ele><time>2026-04-22T16:20:16.999Z</time></trkpt><trkpt lat="34.03306570110244" lon="-6.774715495407521"><ele>78.33333333333333</ele><time>2026-04-22T16:20:17.999Z</time></trkpt><trkpt lat="34.03308599254574" lon="-6.774797933556282"><ele>78.0</ele><time>2026-04-22T16:20:18.999Z</time></trkpt><trkpt lat="34.03311820060831" lon="-6.7749306514998215"><ele>78.0</ele><time>2026-04-22T16:20:20.999Z</time></trkpt><trkpt lat="34.03314981830693" lon="-6.7750454138149125"><ele>78.0</ele><time>2026-04-22T16:20:22.999Z</time></trkpt><trkpt lat="34.03318086549695" lon="-6.775131154486563"><ele>78.0</ele><time>2026-04-22T16:20:24.999Z</time></trkpt><trkpt lat="34.03322449005944" lon="-6.77519898490974"><ele>78.0</ele><time>2026-04-22T16:20:30.998Z</time></trkpt><trkpt lat="34.03328332679773" lon="-6.775287207278339"><ele>78.0</ele><time>2026-04-22T16:20:33.998Z</time></trkpt><trkpt lat="34.03336274225675" lon="-6.775380447595427"><ele>78.16666666666667</ele><time>2026-04-22T16:20:35.998Z</time></trkpt><trkpt lat="34.03340448389292" lon="-6.77544154309857"><ele>78.33333333333333</ele><time>2026-04-22T16:20:36.998Z</time></trkpt><trkpt lat="34.03343713663101" lon="-6.775508453345107"><ele>78.5</ele><time>2026-04-22T16:20:37.998Z</time></trkpt><trkpt lat="34.03346767745682" lon="-6.775649563237385"><ele>78.66666666666666</ele><time>2026-04-22T16:20:39.998Z</time></trkpt><trkpt lat="34.03344209878832" lon="-6.7757888983150085"><ele>78.83333333333333</ele><time>2026-04-22T16:20:41.998Z</time></trkpt><trkpt lat="34.03341336778157" lon="-6.775859677518889"><ele>79.0</ele><time>2026-04-22T16:20:42.998Z</time></trkpt><trkpt lat="34.03337701693103" lon="-6.775927526910371"><ele>79.0</ele><time>2026-04-22T16:20:43.998Z</time></trkpt><trkpt lat="34.03334637764657" lon="-6.7760088019863325"><ele>79.0</ele><time>2026-04-22T16:20:44.998Z</time></trkpt><trkpt lat="34.03331650433473" lon="-6.776095994184346"><ele>79.0</ele><time>2026-04-22T16:20:45.998Z</time></trkpt><trkpt lat="34.03329037818638" lon="-6.776187498930778"><ele>79.0</ele><time>2026-04-22T16:20:46.998Z</time></trkpt><trkpt lat="34.03326850293449" lon="-6.776281437595691"><ele>79.0</ele><time>2026-04-22T16:20:47.998Z</time></trkpt><trkpt lat="34.03325791481925" lon="-6.776377578662766"><ele>79.0</ele><time>2026-04-22T16:20:48.998Z</time></trkpt><trkpt lat="34.03326021366125" lon="-6.776471086496511"><ele>78.5</ele><time>2026-04-22T16:20:49.998Z</time></trkpt><trkpt lat="34.03326265938283" lon="-6.776564639024716"><ele>78.0</ele><time>2026-04-22T16:20:50.998Z</time></trkpt><trkpt lat="34.033265174169486" lon="-6.776660829779916"><ele>77.5</ele><time>2026-04-22T16:20:51.998Z</time></trkpt><trkpt lat="34.03326487532626" lon="-6.776764595722792"><ele>77.0</ele><time>2026-04-22T16:20:52.998Z</time></trkpt><trkpt lat="34.03326843167684" lon="-6.776875951181282"><ele>76.5</ele><time>2026-04-22T16:20:53.998Z</time></trkpt><trkpt lat="34.03327262399073" lon="-6.776989958332993"><ele>76.0</ele><time>2026-04-22T16:20:54.998Z</time></trkpt><trkpt lat="34.03327539721963" lon="-6.777099911199071"><ele>75.6</ele><time>2026-04-22T16:20:55.998Z</time></trkpt><trkpt lat="34.03327459182034" lon="-6.7772082969628595"><ele>75.19999999999999</ele><time>2026-04-22T16:20:56.998Z</time></trkpt><trkpt lat="34.03327542093761" lon="-6.777319397055394"><ele>74.80000000000001</ele><time>2026-04-22T16:20:57.998Z</time></trkpt><trkpt lat="34.03327864170458" lon="-6.777433601058767"><ele>74.4</ele><time>2026-04-22T16:20:58.998Z</time></trkpt><trkpt lat="34.03328322988025" lon="-6.7775482262779665"><ele>74.0</ele><time>2026-04-22T16:20:59.998Z</time></trkpt><trkpt lat="34.03328826490414" lon="-6.7776635001415"><ele>74.0</ele><time>2026-04-22T16:21:00.998Z</time></trkpt><trkpt lat="34.03329378849158" lon="-6.777778607250407"><ele>74.0</ele><time>2026-04-22T16:21:01.998Z</time></trkpt><trkpt lat="34.03330119791152" lon="-6.777896481279463"><ele>74.0</ele><time>2026-04-22T16:21:02.998Z</time></trkpt><trkpt lat="34.03331092120463" lon="-6.778015968108853"><ele>74.0</ele><time>2026-04-22T16:21:03.999Z</time></trkpt><trkpt lat="34.03331836356778" lon="-6.778135855035257"><ele>74.0</ele><time>2026-04-22T16:21:04.999Z</time></trkpt><trkpt lat="34.03333075820859" lon="-6.778255029928039"><ele>74.0</ele><time>2026-04-22T16:21:05.999Z</time></trkpt><trkpt lat="34.033342307276854" lon="-6.778374126670451"><ele>74.0</ele><time>2026-04-22T16:21:06.999Z</time></trkpt><trkpt lat="34.033354047611" lon="-6.778498173467843"><ele>74.0</ele><time>2026-04-22T16:21:07.999Z</time></trkpt><trkpt lat="34.03336570336702" lon="-6.778621072305813"><ele>74.0</ele><time>2026-04-22T16:21:08.999Z</time></trkpt><trkpt lat="34.033378835504365" lon="-6.778749094529703"><ele>74.0</ele><time>2026-04-22T16:21:09.999Z</time></trkpt><trkpt lat="34.0333916385135" lon="-6.778878167321489"><ele>74.4</ele><time>2026-04-22T16:21:10.999Z</time></trkpt><trkpt lat="34.03340405749502" lon="-6.7790092954910515"><ele>74.80000000000001</ele><time>2026-04-22T16:21:11.999Z</time></trkpt><trkpt lat="34.0334168310386" lon="-6.779141715069899"><ele>75.19999999999999</ele><time>2026-04-22T16:21:12.999Z</time></trkpt><trkpt lat="34.033431986508205" lon="-6.779275786586293"><ele>75.6</ele><time>2026-04-22T16:21:13.999Z</time></trkpt><trkpt lat="34.03344657067507" lon="-6.779411582081431"><ele>76.0</ele><time>2026-04-22T16:21:14.999Z</time></trkpt><trkpt lat="34.03345991820859" lon="-6.779548352921471"><ele>77.5</ele><time>2026-04-22T16:21:15.999Z</time></trkpt><trkpt lat="34.03347482386375" lon="-6.779682101065829"><ele>79.0</ele><time>2026-04-22T16:21:16.999Z</time></trkpt><trkpt lat="34.03348706204097" lon="-6.779816348512414"><ele>80.5</ele><time>2026-04-22T16:21:17.999Z</time></trkpt><trkpt lat="34.03350138644938" lon="-6.779952491508961"><ele>82.0</ele><time>2026-04-22T16:21:18.999Z</time></trkpt><trkpt lat="34.03351566238653" lon="-6.780091280683491"><ele>80.25</ele><time>2026-04-22T16:21:19.999Z</time></trkpt><trkpt lat="34.03353158037439" lon="-6.780234930889829"><ele>78.5</ele><time>2026-04-22T16:21:20.999Z</time></trkpt><trkpt lat="34.03355092988945" lon="-6.780382521903398"><ele>76.75</ele><time>2026-04-22T16:21:21.999Z</time></trkpt><trkpt lat="34.0335733308044" lon="-6.780530995142799"><ele>75.0</ele><time>2026-04-22T16:21:22.999Z</time></trkpt><trkpt lat="34.03359640539749" lon="-6.780676039233723"><ele>75.0</ele><time>2026-04-22T16:21:23.999Z</time></trkpt><trkpt lat="34.03361925023985" lon="-6.780819351331565"><ele>75.0</ele><time>2026-04-22T16:21:24.999Z</time></trkpt><trkpt lat="34.03364253500271" lon="-6.7809607297185135"><ele>75.0</ele><time>2026-04-22T16:21:25.999Z</time></trkpt><trkpt lat="34.03366546000409" lon="-6.7811025679868315"><ele>75.0</ele><time>2026-04-22T16:21:26.999Z</time></trkpt><trkpt lat="34.033687382908084" lon="-6.78124525563816"><ele>75.0</ele><time>2026-04-22T16:21:27.999Z</time></trkpt><trkpt lat="34.03371269346267" lon="-6.781379545076382"><ele>75.0</ele><time>2026-04-22T16:21:28.999Z</time></trkpt><trkpt lat="34.03373769976923" lon="-6.7815064008383565"><ele>75.0</ele><time>2026-04-22T16:21:29.999Z</time></trkpt><trkpt lat="34.03376006582803" lon="-6.781624053581985"><ele>75.0</ele><time>2026-04-22T16:21:30.999Z</time></trkpt><trkpt lat="34.03377985785437" lon="-6.7817407186708785"><ele>75.0</ele><time>2026-04-22T16:21:31.999Z</time></trkpt><trkpt lat="34.03379835496597" lon="-6.781853860866437"><ele>75.0</ele><time>2026-04-22T16:21:32.999Z</time></trkpt><trkpt lat="34.033817494615754" lon="-6.781968867739293"><ele>75.0</ele><time>2026-04-22T16:21:33.999Z</time></trkpt><trkpt lat="34.03383747161693" lon="-6.782087578717422"><ele>75.0</ele><time>2026-04-22T16:21:34.999Z</time></trkpt><trkpt lat="34.03385697298729" lon="-6.782206843223488"><ele>75.0</ele><time>2026-04-22T16:21:35.999Z</time></trkpt><trkpt lat="34.03387880524418" lon="-6.782327483510972"><ele>75.0</ele><time>2026-04-22T16:21:36.999Z</time></trkpt><trkpt lat="34.0338988158341" lon="-6.782444178499395"><ele>75.0</ele><time>2026-04-22T16:21:37.999Z</time></trkpt><trkpt lat="34.03391925766544" lon="-6.782561219901936"><ele>75.0</ele><time>2026-04-22T16:21:38.999Z</time></trkpt><trkpt lat="34.033939188676435" lon="-6.782678222976685"><ele>75.0</ele><time>2026-04-22T16:21:39.999Z</time></trkpt><trkpt lat="34.033958175285335" lon="-6.782794839981567"><ele>75.0</ele><time>2026-04-22T16:21:40.999Z</time></trkpt><trkpt lat="34.03397880222829" lon="-6.782912992794339"><ele>75.0</ele><time>2026-04-22T16:21:41.999Z</time></trkpt><trkpt lat="34.03399971122283" lon="-6.783030772755932"><ele>74.4</ele><time>2026-04-22T16:21:42.999Z</time></trkpt><trkpt lat="34.034019349279994" lon="-6.783148817813658"><ele>73.8</ele><time>2026-04-22T16:21:43.999Z</time></trkpt><trkpt lat="34.03404019054877" lon="-6.783265450997673"><ele>73.2</ele><time>2026-04-22T16:21:44.999Z</time></trkpt><trkpt lat="34.03405955602891" lon="-6.783381541608112"><ele>72.6</ele><time>2026-04-22T16:21:45.999Z</time></trkpt><trkpt lat="34.03407993779411" lon="-6.783496232135292"><ele>72.0</ele><time>2026-04-22T16:21:46.999Z</time></trkpt><trkpt lat="34.03409994382915" lon="-6.783611701235044"><ele>72.0</ele><time>2026-04-22T16:21:47.999Z</time></trkpt><trkpt lat="34.034120240648114" lon="-6.783724895133881"><ele>72.0</ele><time>2026-04-22T16:21:48.999Z</time></trkpt><trkpt lat="34.03414171588916" lon="-6.78384005494005"><ele>72.0</ele><time>2026-04-22T16:21:49.999Z</time></trkpt><trkpt lat="34.034161574538636" lon="-6.783954771941022"><ele>72.0</ele><time>2026-04-22T16:21:50.999Z</time></trkpt><trkpt lat="34.03418223175744" lon="-6.784068974549534"><ele>72.0</ele><time>2026-04-22T16:21:51.999Z</time></trkpt><trkpt lat="34.03420123444678" lon="-6.78417925122332"><ele>72.0</ele><time>2026-04-22T16:21:52.999Z</time></trkpt><trkpt lat="34.0342183870109" lon="-6.784289462984349"><ele>72.0</ele><time>2026-04-22T16:21:53.999Z</time></trkpt><trkpt lat="34.03423735292794" lon="-6.784401878388235"><ele>72.0</ele><time>2026-04-22T16:21:54.999Z</time></trkpt><trkpt lat="34.034256870614016" lon="-6.784509073589284"><ele>72.0</ele><time>2026-04-22T16:21:55.999Z</time></trkpt><trkpt lat="34.03427607677308" lon="-6.784609030483316"><ele>72.0</ele><time>2026-04-22T16:21:56.999Z</time></trkpt><trkpt lat="34.03429423091049" lon="-6.784704202343615"><ele>72.0</ele><time>2026-04-22T16:21:57.999Z</time></trkpt><trkpt lat="34.03431085007132" lon="-6.7847977498321805"><ele>72.0</ele><time>2026-04-22T16:21:58.999Z</time></trkpt><trkpt lat="34.03432530938917" lon="-6.784892664828836"><ele>72.0</ele><time>2026-04-22T16:21:59.999Z</time></trkpt><trkpt lat="34.03434032912437" lon="-6.784990681258078"><ele>72.0</ele><time>2026-04-22T16:22:00.999Z</time></trkpt><trkpt lat="34.03436094542528" lon="-6.785091781474624"><ele>72.0</ele><time>2026-04-22T16:22:01.999Z</time></trkpt><trkpt lat="34.03437947310933" lon="-6.785197371281132"><ele>72.0</ele><time>2026-04-22T16:22:02.999Z</time></trkpt><trkpt lat="34.03439648198026" lon="-6.785301433073486"><ele>72.0</ele><time>2026-04-22T16:22:03.999Z</time></trkpt><trkpt lat="34.03441521259045" lon="-6.785405893999697"><ele>71.33333333333333</ele><time>2026-04-22T16:22:04.999Z</time></trkpt><trkpt lat="34.03443269543027" lon="-6.785508253996088"><ele>70.66666666666667</ele><time>2026-04-22T16:22:05.999Z</time></trkpt><trkpt lat="34.03444966932355" lon="-6.785609999378305"><ele>70.0</ele><time>2026-04-22T16:22:06.999Z</time></trkpt><trkpt lat="34.034464036359" lon="-6.785709218318362"><ele>69.33333333333334</ele><time>2026-04-22T16:22:07.999Z</time></trkpt><trkpt lat="34.03447929474764" lon="-6.785804324378771"><ele>68.66666666666667</ele><time>2026-04-22T16:22:08.999Z</time></trkpt><trkpt lat="34.034496432244566" lon="-6.785896328126363"><ele>68.0</ele><time>2026-04-22T16:22:09.999Z</time></trkpt><trkpt lat="34.03451402537288" lon="-6.7859879224948525"><ele>67.66666666666667</ele><time>2026-04-22T16:22:10.999Z</time></trkpt><trkpt lat="34.03453003606553" lon="-6.786077916516776"><ele>67.33333333333334</ele><time>2026-04-22T16:22:11.999Z</time></trkpt><trkpt lat="34.03454783124673" lon="-6.786166330450466"><ele>67.0</ele><time>2026-04-22T16:22:12.999Z</time></trkpt><trkpt lat="34.03456508971005" lon="-6.786256514109349"><ele>66.66666666666667</ele><time>2026-04-22T16:22:13.999Z</time></trkpt><trkpt lat="34.034580971835425" lon="-6.786348076349382"><ele>66.33333333333333</ele><time>2026-04-22T16:22:14.999Z</time></trkpt><trkpt lat="34.03459650943877" lon="-6.786440657291959"><ele>66.0</ele><time>2026-04-22T16:22:15.999Z</time></trkpt><trkpt lat="34.034611769507976" lon="-6.786530850024296"><ele>66.0</ele><time>2026-04-22T16:22:16.999Z</time></trkpt><trkpt lat="34.034627921088855" lon="-6.786623028513388"><ele>66.0</ele><time>2026-04-22T16:22:17.999Z</time></trkpt><trkpt lat="34.034643164164386" lon="-6.786711776170591"><ele>66.0</ele><time>2026-04-22T16:22:18.999Z</time></trkpt><trkpt lat="34.03465827040964" lon="-6.7867979050655585"><ele>66.0</ele><time>2026-04-22T16:22:19.999Z</time></trkpt><trkpt lat="34.03467190795499" lon="-6.786881614361277"><ele>66.0</ele><time>2026-04-22T16:22:20.999Z</time></trkpt><trkpt lat="34.03468513977109" lon="-6.786961117512995"><ele>66.0</ele><time>2026-04-22T16:22:21.999Z</time></trkpt><trkpt lat="34.03469670743211" lon="-6.7870368061456805"><ele>66.0</ele><time>2026-04-22T16:22:22.999Z</time></trkpt><trkpt lat="34.03470870575106" lon="-6.787113792263148"><ele>65.85714285714286</ele><time>2026-04-22T16:22:23.999Z</time></trkpt><trkpt lat="34.034719981343" lon="-6.787194841368333"><ele>65.71428571428572</ele><time>2026-04-22T16:22:24.999Z</time></trkpt><trkpt lat="34.034730619432516" lon="-6.787279595270741"><ele>65.57142857142858</ele><time>2026-04-22T16:22:25.999Z</time></trkpt><trkpt lat="34.03474367898775" lon="-6.787367185780098"><ele>65.42857142857143</ele><time>2026-04-22T16:22:26.999Z</time></trkpt><trkpt lat="34.034758786499886" lon="-6.787458154894862"><ele>65.28571428571429</ele><time>2026-04-22T16:22:27.999Z</time></trkpt><trkpt lat="34.034772226443785" lon="-6.787550121216445"><ele>65.14285714285715</ele><time>2026-04-22T16:22:28.999Z</time></trkpt><trkpt lat="34.034752333433936" lon="-6.787640562444213"><ele>65.0</ele><time>2026-04-22T16:22:29.999Z</time></trkpt><trkpt lat="34.03479886410207" lon="-6.787741587158831"><ele>65.0</ele><time>2026-04-22T16:22:30.999Z</time></trkpt><trkpt lat="34.034814186971246" lon="-6.787838228648043"><ele>65.0</ele><time>2026-04-22T16:22:31.999Z</time></trkpt><trkpt lat="34.03482607387179" lon="-6.787937384008231"><ele>65.0</ele><time>2026-04-22T16:22:32.999Z</time></trkpt><trkpt lat="34.03483941342386" lon="-6.7880411361852575"><ele>65.0</ele><time>2026-04-22T16:22:33.999Z</time></trkpt><trkpt lat="34.03485772447477" lon="-6.7881444029908495"><ele>65.0</ele><time>2026-04-22T16:22:34.999Z</time></trkpt><trkpt lat="34.03487414544277" lon="-6.788247628031671"><ele>65.0</ele><time>2026-04-22T16:22:35.999Z</time></trkpt><trkpt lat="34.034891374078676" lon="-6.788351967617476"><ele>65.0</ele><time>2026-04-22T16:22:36.999Z</time></trkpt><trkpt lat="34.03491235567709" lon="-6.788455373269475"><ele>65.0</ele><time>2026-04-22T16:22:37.999Z</time></trkpt><trkpt lat="34.03493115159854" lon="-6.788556518162086"><ele>65.0</ele><time>2026-04-22T16:22:38.999Z</time></trkpt><trkpt lat="34.034950131206784" lon="-6.788648171985489"><ele>65.0</ele><time>2026-04-22T16:22:39.999Z</time></trkpt><trkpt lat="34.034969070575066" lon="-6.788731060208637"><ele>65.0</ele><time>2026-04-22T16:22:40.998Z</time></trkpt><trkpt lat="34.03500197813947" lon="-6.788858352665846"><ele>65.0</ele><time>2026-04-22T16:22:42.998Z</time></trkpt><trkpt lat="34.03501674100071" lon="-6.7889389527261335"><ele>64.83333333333334</ele><time>2026-04-22T16:22:44.998Z</time></trkpt><trkpt lat="34.035019421399156" lon="-6.789023419978303"><ele>64.66666666666667</ele><time>2026-04-22T16:24:14.999Z</time></trkpt><trkpt lat="34.035037301952464" lon="-6.789131872503108"><ele>64.5</ele><time>2026-04-22T16:24:16.999Z</time></trkpt><trkpt lat="34.03504993092529" lon="-6.789208472268815"><ele>64.33333333333333</ele><time>2026-04-22T16:24:17.999Z</time></trkpt><trkpt lat="34.035072546440254" lon="-6.789297513829125"><ele>64.16666666666666</ele><time>2026-04-22T16:24:18.999Z</time></trkpt><trkpt lat="34.03508174133658" lon="-6.789404540938059"><ele>64.0</ele><time>2026-04-22T16:24:19.999Z</time></trkpt><trkpt lat="34.03508907733661" lon="-6.7895147249425944"><ele>63.6</ele><time>2026-04-22T16:24:20.999Z</time></trkpt><trkpt lat="34.035097524981474" lon="-6.789630506455988"><ele>63.2</ele><time>2026-04-22T16:24:21.999Z</time></trkpt><trkpt lat="34.03510376781738" lon="-6.789752422603034"><ele>62.800000000000004</ele><time>2026-04-22T16:24:22.999Z</time></trkpt><trkpt lat="34.035110629805175" lon="-6.789879311532237"><ele>62.400000000000006</ele><time>2026-04-22T16:24:23.999Z</time></trkpt><trkpt lat="34.03511479335151" lon="-6.790008632296246"><ele>62.0</ele><time>2026-04-22T16:24:24.999Z</time></trkpt><trkpt lat="34.035115290896805" lon="-6.790139688442963"><ele>62.0</ele><time>2026-04-22T16:24:25.999Z</time></trkpt><trkpt lat="34.03511629377211" lon="-6.790270075434711"><ele>62.0</ele><time>2026-04-22T16:24:26.999Z</time></trkpt><trkpt lat="34.03511695416143" lon="-6.790402425559414"><ele>62.0</ele><time>2026-04-22T16:24:27.999Z</time></trkpt><trkpt lat="34.035116380131555" lon="-6.7905377468284165"><ele>62.0</ele><time>2026-04-22T16:24:28.999Z</time></trkpt><trkpt lat="34.03511287086842" lon="-6.790676471990569"><ele>62.0</ele><time>2026-04-22T16:24:29.999Z</time></trkpt><trkpt lat="34.035105563143226" lon="-6.790815802626947"><ele>62.0</ele><time>2026-04-22T16:24:30.999Z</time></trkpt><trkpt lat="34.03509675453168" lon="-6.790955496180014"><ele>62.0</ele><time>2026-04-22T16:24:31.999Z</time></trkpt><trkpt lat="34.03508512276748" lon="-6.791094772478998"><ele>62.0</ele><time>2026-04-22T16:24:32.999Z</time></trkpt><trkpt lat="34.035073446702185" lon="-6.791234712045133"><ele>62.0</ele><time>2026-04-22T16:24:33.999Z</time></trkpt><trkpt lat="34.0350617441737" lon="-6.791374566847874"><ele>62.25</ele><time>2026-04-22T16:24:34.999Z</time></trkpt><trkpt lat="34.035051566374904" lon="-6.791514051323167"><ele>62.5</ele><time>2026-04-22T16:24:35.999Z</time></trkpt><trkpt lat="34.03504014933585" lon="-6.791653092877439"><ele>62.75</ele><time>2026-04-22T16:24:36.999Z</time></trkpt><trkpt lat="34.03503032277524" lon="-6.79178754190719"><ele>63.0</ele><time>2026-04-22T16:24:37.999Z</time></trkpt><trkpt lat="34.0350190425326" lon="-6.791918962384104"><ele>62.8</ele><time>2026-04-22T16:24:38.999Z</time></trkpt><trkpt lat="34.03500906696579" lon="-6.7920506210608105"><ele>62.599999999999994</ele><time>2026-04-22T16:24:39.999Z</time></trkpt><trkpt lat="34.035000942026336" lon="-6.792182349007936"><ele>62.400000000000006</ele><time>2026-04-22T16:24:40.999Z</time></trkpt><trkpt lat="34.034989646506794" lon="-6.792317984899616"><ele>62.2</ele><time>2026-04-22T16:24:41.999Z</time></trkpt><trkpt lat="34.03497765242001" lon="-6.79245550680258"><ele>62.0</ele><time>2026-04-22T16:24:42.999Z</time></trkpt><trkpt lat="34.03496507513528" lon="-6.792595935106133"><ele>62.0</ele><time>2026-04-22T16:24:43.999Z</time></trkpt><trkpt lat="34.03495523168515" lon="-6.792737749190714"><ele>62.0</ele><time>2026-04-22T16:24:44.999Z</time></trkpt><trkpt lat="34.03494544563745" lon="-6.792882571700784"><ele>62.0</ele><time>2026-04-22T16:24:45.999Z</time></trkpt><trkpt lat="34.034935599718736" lon="-6.79302848207005"><ele>62.0</ele><time>2026-04-22T16:24:46.999Z</time></trkpt><trkpt lat="34.03492535146548" lon="-6.793173816511107"><ele>62.0</ele><time>2026-04-22T16:24:47.999Z</time></trkpt><trkpt lat="34.03491531899063" lon="-6.793318513499826"><ele>62.0</ele><time>2026-04-22T16:24:48.999Z</time></trkpt><trkpt lat="34.03490592522062" lon="-6.793461321954175"><ele>62.0</ele><time>2026-04-22T16:24:49.999Z</time></trkpt><trkpt lat="34.034896906854044" lon="-6.79360097440968"><ele>62.0</ele><time>2026-04-22T16:24:50.999Z</time></trkpt><trkpt lat="34.034887423306785" lon="-6.793738821017259"><ele>62.400000000000006</ele><time>2026-04-22T16:24:51.999Z</time></trkpt><trkpt lat="34.03488067035148" lon="-6.793878385684992"><ele>62.800000000000004</ele><time>2026-04-22T16:24:52.999Z</time></trkpt><trkpt lat="34.03486936737485" lon="-6.79401214073213"><ele>63.2</ele><time>2026-04-22T16:24:53.999Z</time></trkpt><trkpt lat="34.03485958942077" lon="-6.7941410481451925"><ele>63.6</ele><time>2026-04-22T16:24:54.999Z</time></trkpt><trkpt lat="34.03484888168409" lon="-6.794265687090866"><ele>64.0</ele><time>2026-04-22T16:24:55.999Z</time></trkpt><trkpt lat="34.03483915828792" lon="-6.794385785728914"><ele>64.4</ele><time>2026-04-22T16:24:56.998Z</time></trkpt><trkpt lat="34.03483058133074" lon="-6.794497855979848"><ele>64.80000000000001</ele><time>2026-04-22T16:24:57.998Z</time></trkpt><trkpt lat="34.03482417231222" lon="-6.794602136191627"><ele>65.19999999999999</ele><time>2026-04-22T16:24:58.998Z</time></trkpt><trkpt lat="34.03481702403453" lon="-6.794697558729663"><ele>65.6</ele><time>2026-04-22T16:24:59.998Z</time></trkpt><trkpt lat="34.03481122822751" lon="-6.794779546949335"><ele>66.0</ele><time>2026-04-22T16:25:00.998Z</time></trkpt><trkpt lat="34.03480086457775" lon="-6.794926965769951"><ele>66.0</ele><time>2026-04-22T16:25:02.998Z</time></trkpt><trkpt lat="34.034790226417016" lon="-6.795076902627974"><ele>66.0</ele><time>2026-04-22T16:25:04.998Z</time></trkpt><trkpt lat="34.03478171276835" lon="-6.795226148105532"><ele>66.0</ele><time>2026-04-22T16:25:06.998Z</time></trkpt><trkpt lat="34.03476990124406" lon="-6.795371366123284"><ele>66.0</ele><time>2026-04-22T16:25:08.998Z</time></trkpt><trkpt lat="34.03476025835413" lon="-6.795521032841797"><ele>65.5</ele><time>2026-04-22T16:25:10.998Z</time></trkpt><trkpt lat="34.034752051132244" lon="-6.79560346273518"><ele>65.0</ele><time>2026-04-22T16:25:11.998Z</time></trkpt><trkpt lat="34.03474445319038" lon="-6.795689874041953"><ele>64.5</ele><time>2026-04-22T16:25:12.998Z</time></trkpt><trkpt lat="34.03473647188908" lon="-6.795801886873062"><ele>64.0</ele><time>2026-04-22T16:25:14.998Z</time></trkpt><trkpt lat="34.03473386168011" lon="-6.795881016700594"><ele>63.5</ele><time>2026-04-22T16:25:17.999Z</time></trkpt><trkpt lat="34.03472382527961" lon="-6.79598052317111"><ele>63.0</ele><time>2026-04-22T16:25:57.999Z</time></trkpt><trkpt lat="34.03472047210214" lon="-6.796129073880819"><ele>63.0</ele><time>2026-04-22T16:25:59.999Z</time></trkpt><trkpt lat="34.03471729608821" lon="-6.79621633741648"><ele>63.0</ele><time>2026-04-22T16:26:00.999Z</time></trkpt><trkpt lat="34.03470783964979" lon="-6.796308839347673"><ele>63.0</ele><time>2026-04-22T16:26:01.999Z</time></trkpt><trkpt lat="34.034703838071124" lon="-6.79640392096514"><ele>63.0</ele><time>2026-04-22T16:26:02.999Z</time></trkpt><trkpt lat="34.03469977100297" lon="-6.796508697259675"><ele>63.0</ele><time>2026-04-22T16:26:03.999Z</time></trkpt><trkpt lat="34.0346923650728" lon="-6.796621152191565"><ele>63.0</ele><time>2026-04-22T16:26:04.999Z</time></trkpt><trkpt lat="34.03468671076443" lon="-6.796740271460403"><ele>63.0</ele><time>2026-04-22T16:26:05.999Z</time></trkpt><trkpt lat="34.03468318924688" lon="-6.796864916660101"><ele>63.0</ele><time>2026-04-22T16:26:06.999Z</time></trkpt><trkpt lat="34.034684235210705" lon="-6.796991979827554"><ele>63.0</ele><time>2026-04-22T16:26:07.999Z</time></trkpt><trkpt lat="34.03468418392687" lon="-6.797122480021988"><ele>63.0</ele><time>2026-04-22T16:26:08.999Z</time></trkpt><trkpt lat="34.03468487845389" lon="-6.797238025387622"><ele>63.0</ele><time>2026-04-22T16:26:09.999Z</time></trkpt><trkpt lat="34.03468619936597" lon="-6.79734546091394"><ele>63.0</ele><time>2026-04-22T16:26:10.999Z</time></trkpt><trkpt lat="34.03468760808254" lon="-6.797449848994497"><ele>63.0</ele><time>2026-04-22T16:26:11.999Z</time></trkpt><trkpt lat="34.03468894095186" lon="-6.79755075830716"><ele>63.0</ele><time>2026-04-22T16:26:12.999Z</time></trkpt><trkpt lat="34.03469282874259" lon="-6.797648437410806"><ele>63.0</ele><time>2026-04-22T16:26:13.999Z</time></trkpt><trkpt lat="34.03469825904112" lon="-6.797744103985166"><ele>63.0</ele><time>2026-04-22T16:26:14.999Z</time></trkpt><trkpt lat="34.03470284817266" lon="-6.7978339630452895"><ele>63.0</ele><time>2026-04-22T16:26:15.999Z</time></trkpt><trkpt lat="34.03470591761607" lon="-6.797927769126528"><ele>62.833333333333336</ele><time>2026-04-22T16:26:16.999Z</time></trkpt><trkpt lat="34.03471061722696" lon="-6.798020582254732"><ele>62.66666666666667</ele><time>2026-04-22T16:26:17.999Z</time></trkpt><trkpt lat="34.034715116873976" lon="-6.798110404551996"><ele>62.5</ele><time>2026-04-22T16:26:18.999Z</time></trkpt><trkpt lat="34.03472009256853" lon="-6.798201123188663"><ele>62.333333333333336</ele><time>2026-04-22T16:26:19.999Z</time></trkpt><trkpt lat="34.034724857086424" lon="-6.798296621199372"><ele>62.16666666666667</ele><time>2026-04-22T16:26:20.999Z</time></trkpt><trkpt lat="34.0347307608145" lon="-6.798393325170496"><ele>62.0</ele><time>2026-04-22T16:26:21.999Z</time></trkpt><trkpt lat="34.03473584317379" lon="-6.798492666832634"><ele>62.0</ele><time>2026-04-22T16:26:22.999Z</time></trkpt><trkpt lat="34.03474211990674" lon="-6.798598169133926"><ele>62.00000000000001</ele><time>2026-04-22T16:26:23.999Z</time></trkpt><trkpt lat="34.03474678639146" lon="-6.798696133282995"><ele>62.0</ele><time>2026-04-22T16:26:24.999Z</time></trkpt><trkpt lat="34.034753931344355" lon="-6.798779519162571"><ele>62.0</ele><time>2026-04-22T16:26:25.999Z</time></trkpt><trkpt lat="34.0347590943194" lon="-6.798859290528494"><ele>62.00000000000001</ele><time>2026-04-22T16:26:26.999Z</time></trkpt><trkpt lat="34.03476266036761" lon="-6.798937217126126"><ele>62.0</ele><time>2026-04-22T16:26:27.999Z</time></trkpt><trkpt lat="34.03476488729489" lon="-6.799017143330997"><ele>62.0</ele><time>2026-04-22T16:26:28.999Z</time></trkpt><trkpt lat="34.03476383742126" lon="-6.799100531752156"><ele>62.00000000000001</ele><time>2026-04-22T16:26:29.999Z</time></trkpt><trkpt lat="34.03476406133679" lon="-6.7991908045005855"><ele>62.0</ele><time>2026-04-22T16:26:30.999Z</time></trkpt><trkpt lat="34.03476539050936" lon="-6.799287745803122"><ele>62.0</ele><time>2026-04-22T16:26:31.999Z</time></trkpt><trkpt lat="34.034767237685585" lon="-6.799388937486866"><ele>62.0</ele><time>2026-04-22T16:26:32.999Z</time></trkpt><trkpt lat="34.03477105751774" lon="-6.799490742835694"><ele>62.00000000000001</ele><time>2026-04-22T16:26:33.999Z</time></trkpt><trkpt lat="34.03477737972404" lon="-6.799590350767984"><ele>62.0</ele><time>2026-04-22T16:26:34.999Z</time></trkpt><trkpt lat="34.03478148637494" lon="-6.799686485176273"><ele>61.50000000000001</ele><time>2026-04-22T16:26:35.999Z</time></trkpt><trkpt lat="34.03478702929287" lon="-6.79978509262583"><ele>61.0</ele><time>2026-04-22T16:26:36.999Z</time></trkpt><trkpt lat="34.03479107805315" lon="-6.799888202226037"><ele>60.5</ele><time>2026-04-22T16:26:37.999Z</time></trkpt><trkpt lat="34.03479300995589" lon="-6.799996278202991"><ele>60.0</ele><time>2026-04-22T16:26:38.999Z</time></trkpt><trkpt lat="34.034795043232684" lon="-6.800105058546442"><ele>59.50000000000001</ele><time>2026-04-22T16:26:39.999Z</time></trkpt><trkpt lat="34.034797505485834" lon="-6.800213201891345"><ele>59.0</ele><time>2026-04-22T16:26:40.999Z</time></trkpt><trkpt lat="34.03480196756063" lon="-6.8003192658096525"><ele>59.0</ele><time>2026-04-22T16:26:41.999Z</time></trkpt><trkpt lat="34.03480208900409" lon="-6.800419817708815"><ele>59.00000000000001</ele><time>2026-04-22T16:26:42.999Z</time></trkpt><trkpt lat="34.03480579263209" lon="-6.800522127122161"><ele>59.00000000000001</ele><time>2026-04-22T16:26:43.999Z</time></trkpt><trkpt lat="34.0348074216109" lon="-6.800629380186231"><ele>59.0</ele><time>2026-04-22T16:26:44.999Z</time></trkpt><trkpt lat="34.034809933316104" lon="-6.800745588194709"><ele>59.0</ele><time>2026-04-22T16:26:45.999Z</time></trkpt><trkpt lat="34.03481620733036" lon="-6.800869765095226"><ele>59.0</ele><time>2026-04-22T16:26:46.999Z</time></trkpt><trkpt lat="34.034820078576224" lon="-6.800997451041093"><ele>59.00000000000001</ele><time>2026-04-22T16:26:47.999Z</time></trkpt><trkpt lat="34.03482521956182" lon="-6.801121381423951"><ele>59.00000000000001</ele><time>2026-04-22T16:26:48.999Z</time></trkpt><trkpt lat="34.03483012961079" lon="-6.801240250046605"><ele>59.0</ele><time>2026-04-22T16:26:49.999Z</time></trkpt><trkpt lat="34.034832916623465" lon="-6.801357057197487"><ele>59.0</ele><time>2026-04-22T16:26:50.999Z</time></trkpt><trkpt lat="34.03483910815548" lon="-6.801472731703267"><ele>58.2</ele><time>2026-04-22T16:26:51.999Z</time></trkpt><trkpt lat="34.03484478711422" lon="-6.8015904367699935"><ele>57.400000000000006</ele><time>2026-04-22T16:26:52.999Z</time></trkpt><trkpt lat="34.03484962618927" lon="-6.8017106838106125"><ele>56.6</ele><time>2026-04-22T16:26:53.999Z</time></trkpt><trkpt lat="34.03485429110081" lon="-6.801834041476158"><ele>55.8</ele><time>2026-04-22T16:26:54.999Z</time></trkpt><trkpt lat="34.034861723625255" lon="-6.80195934194928"><ele>55.0</ele><time>2026-04-22T16:26:55.999Z</time></trkpt><trkpt lat="34.03486853123255" lon="-6.802087705542357"><ele>54.2</ele><time>2026-04-22T16:26:56.999Z</time></trkpt><trkpt lat="34.03487471817946" lon="-6.802216177509167"><ele>53.4</ele><time>2026-04-22T16:26:57.999Z</time></trkpt><trkpt lat="34.03488003249402" lon="-6.802345511752977"><ele>52.599999999999994</ele><time>2026-04-22T16:26:58.999Z</time></trkpt><trkpt lat="34.03488606241644" lon="-6.802475966510303"><ele>51.8</ele><time>2026-04-22T16:26:59.999Z</time></trkpt><trkpt lat="34.034893324841015" lon="-6.802609207309383"><ele>51.0</ele><time>2026-04-22T16:27:00.999Z</time></trkpt><trkpt lat="34.03490116766688" lon="-6.802746497964836"><ele>50.8</ele><time>2026-04-22T16:27:01.999Z</time></trkpt><trkpt lat="34.03490779658684" lon="-6.80288456072749"><ele>50.599999999999994</ele><time>2026-04-22T16:27:02.999Z</time></trkpt><trkpt lat="34.03491439860567" lon="-6.8030186460989945"><ele>50.4</ele><time>2026-04-22T16:27:03.999Z</time></trkpt><trkpt lat="34.03492021430167" lon="-6.803146896125075"><ele>50.2</ele><time>2026-04-22T16:27:04.999Z</time></trkpt><trkpt lat="34.034927072310396" lon="-6.803275263139557"><ele>50.0</ele><time>2026-04-22T16:27:05.999Z</time></trkpt><trkpt lat="34.034935907866576" lon="-6.80339953660523"><ele>50.0</ele><time>2026-04-22T16:27:06.999Z</time></trkpt><trkpt lat="34.03494325726029" lon="-6.803521047018486"><ele>50.0</ele><time>2026-04-22T16:27:07.999Z</time></trkpt><trkpt lat="34.03494990494336" lon="-6.803643943785936"><ele>50.0</ele><time>2026-04-22T16:27:08.999Z</time></trkpt><trkpt lat="34.03495562813816" lon="-6.803764111311323"><ele>50.0</ele><time>2026-04-22T16:27:09.999Z</time></trkpt><trkpt lat="34.03496082951332" lon="-6.803880156483516"><ele>50.0</ele><time>2026-04-22T16:27:10.999Z</time></trkpt><trkpt lat="34.03496365983768" lon="-6.8039907013328715"><ele>50.00000000000001</ele><time>2026-04-22T16:27:11.999Z</time></trkpt><trkpt lat="34.034966992341445" lon="-6.804096850744088"><ele>50.0</ele><time>2026-04-22T16:27:12.999Z</time></trkpt><trkpt lat="34.03496664660169" lon="-6.80419308278562"><ele>50.0</ele><time>2026-04-22T16:27:13.999Z</time></trkpt><trkpt lat="34.034971256077796" lon="-6.80429296928174"><ele>50.0</ele><time>2026-04-22T16:27:14.999Z</time></trkpt><trkpt lat="34.034979050632295" lon="-6.804394427689514"><ele>50.00000000000001</ele><time>2026-04-22T16:27:15.999Z</time></trkpt><trkpt lat="34.034988548458685" lon="-6.804494894262626"><ele>50.0</ele><time>2026-04-22T16:27:16.999Z</time></trkpt><trkpt lat="34.0349956350766" lon="-6.804592064326269"><ele>48.42857142857143</ele><time>2026-04-22T16:27:17.999Z</time></trkpt><trkpt lat="34.035002286019484" lon="-6.80467572615207"><ele>46.85714285714286</ele><time>2026-04-22T16:27:18.999Z</time></trkpt><trkpt lat="34.03500754148917" lon="-6.804754682914723"><ele>45.28571428571429</ele><time>2026-04-22T16:27:19.999Z</time></trkpt><trkpt lat="34.0350131500389" lon="-6.804872606974975"><ele>43.714285714285715</ele><time>2026-04-22T16:27:22Z</time></trkpt><trkpt lat="34.03501615714596" lon="-6.8049492137588805"><ele>42.14285714285714</ele><time>2026-04-22T16:27:25Z</time></trkpt><trkpt lat="34.035009595691506" lon="-6.805032078460221"><ele>40.57142857142858</ele><time>2026-04-22T16:27:48Z</time></trkpt><trkpt lat="34.03501903779535" lon="-6.805112926672165"><ele>39.0</ele><time>2026-04-22T16:27:59Z</time></trkpt><trkpt lat="34.03503462378162" lon="-6.805193062670396"><ele>38.4</ele><time>2026-04-22T16:28:01Z</time></trkpt><trkpt lat="34.03507040401931" lon="-6.805294641953384"><ele>37.8</ele><time>2026-04-22T16:28:03Z</time></trkpt><trkpt lat="34.03512922394867" lon="-6.805402295800509"><ele>37.2</ele><time>2026-04-22T16:28:05Z</time></trkpt><trkpt lat="34.03517311994677" lon="-6.805547036608136"><ele>36.6</ele><time>2026-04-22T16:28:07Z</time></trkpt><trkpt lat="34.035184694455275" lon="-6.8056274249843565"><ele>36.0</ele><time>2026-04-22T16:28:08Z</time></trkpt><trkpt lat="34.0351955157107" lon="-6.805711559929673"><ele>36.0</ele><time>2026-04-22T16:28:09Z</time></trkpt><trkpt lat="34.03519738196827" lon="-6.805799901444011"><ele>36.0</ele><time>2026-04-22T16:28:10Z</time></trkpt><trkpt lat="34.03518879923596" lon="-6.805889258333091"><ele>36.0</ele><time>2026-04-22T16:28:11Z</time></trkpt><trkpt lat="34.035175114083295" lon="-6.805980735560503"><ele>36.0</ele><time>2026-04-22T16:28:12Z</time></trkpt><trkpt lat="34.03515253502715" lon="-6.806070190983337"><ele>36.0</ele><time>2026-04-22T16:28:13Z</time></trkpt><trkpt lat="34.035123552831855" lon="-6.806157528760406"><ele>36.0</ele><time>2026-04-22T16:28:14Z</time></trkpt><trkpt lat="34.035093384848615" lon="-6.806240842014264"><ele>36.0</ele><time>2026-04-22T16:28:15Z</time></trkpt><trkpt lat="34.03507530541475" lon="-6.8063268660712835"><ele>36.0</ele><time>2026-04-22T16:28:16Z</time></trkpt><trkpt lat="34.03506901589251" lon="-6.806416209417916"><ele>36.0</ele><time>2026-04-22T16:28:17Z</time></trkpt><trkpt lat="34.035071863786634" lon="-6.8065131943332275"><ele>36.0</ele><time>2026-04-22T16:28:18Z</time></trkpt><trkpt lat="34.03507394339599" lon="-6.806618087667383"><ele>36.0</ele><time>2026-04-22T16:28:19Z</time></trkpt><trkpt lat="34.03507614154692" lon="-6.806730205590923"><ele>36.0</ele><time>2026-04-22T16:28:20Z</time></trkpt><trkpt lat="34.03507913491564" lon="-6.806845760788289"><ele>36.0</ele><time>2026-04-22T16:28:21Z</time></trkpt><trkpt lat="34.035079221395435" lon="-6.806956752706048"><ele>36.0</ele><time>2026-04-22T16:28:22Z</time></trkpt><trkpt lat="34.035080996533694" lon="-6.807066480463606"><ele>36.0</ele><time>2026-04-22T16:28:23Z</time></trkpt><trkpt lat="34.03508386431751" lon="-6.807172370900228"><ele>36.0</ele><time>2026-04-22T16:28:24Z</time></trkpt><trkpt lat="34.03508487345363" lon="-6.80727810033278"><ele>36.0</ele><time>2026-04-22T16:28:25Z</time></trkpt><trkpt lat="34.03508601049626" lon="-6.807385038995819"><ele>36.0</ele><time>2026-04-22T16:28:26Z</time></trkpt><trkpt lat="34.03508699243083" lon="-6.807487936288028"><ele>36.0</ele><time>2026-04-22T16:28:27Z</time></trkpt><trkpt lat="34.03508730786886" lon="-6.80758184499121"><ele>36.0</ele><time>2026-04-22T16:28:28Z</time></trkpt><trkpt lat="34.03508961050076" lon="-6.80766541415937"><ele>36.0</ele><time>2026-04-22T16:28:29Z</time></trkpt><trkpt lat="34.03509132161218" lon="-6.807789109894836"><ele>36.0</ele><time>2026-04-22T16:28:31Z</time></trkpt><trkpt lat="34.03509181291742" lon="-6.807890660437237"><ele>36.0</ele><time>2026-04-22T16:28:34Z</time></trkpt><trkpt lat="34.03508706365923" lon="-6.807989827376858"><ele>36.0</ele><time>2026-04-22T16:28:45Z</time></trkpt><trkpt lat="34.03509114874761" lon="-6.808112822064815"><ele>36.142857142857146</ele><time>2026-04-22T16:28:47Z</time></trkpt><trkpt lat="34.03509220510663" lon="-6.808190287123681"><ele>36.285714285714285</ele><time>2026-04-22T16:28:48Z</time></trkpt><trkpt lat="34.035095202047465" lon="-6.808270519143338"><ele>36.42857142857143</ele><time>2026-04-22T16:28:49Z</time></trkpt><trkpt lat="34.035096288035156" lon="-6.808358655013232"><ele>36.57142857142857</ele><time>2026-04-22T16:28:50Z</time></trkpt><trkpt lat="34.03509362815064" lon="-6.808441219241682"><ele>36.714285714285715</ele><time>2026-04-22T16:28:51Z</time></trkpt><trkpt lat="34.03509218121282" lon="-6.808522705612479"><ele>36.85714285714286</ele><time>2026-04-22T16:28:52Z</time></trkpt><trkpt lat="34.0350899987397" lon="-6.808602867587402"><ele>37.0</ele><time>2026-04-22T16:28:53Z</time></trkpt><trkpt lat="34.035088171447356" lon="-6.808687179183291"><ele>36.285714285714285</ele><time>2026-04-22T16:28:54Z</time></trkpt><trkpt lat="34.0350855623786" lon="-6.808773554618912"><ele>35.57142857142857</ele><time>2026-04-22T16:28:55Z</time></trkpt><trkpt lat="34.03508278685193" lon="-6.808861611246204"><ele>34.857142857142854</ele><time>2026-04-22T16:28:56Z</time></trkpt><trkpt lat="34.03508098875607" lon="-6.808950243254483"><ele>34.14285714285714</ele><time>2026-04-22T16:28:57Z</time></trkpt><trkpt lat="34.03508072538572" lon="-6.809040170083391"><ele>33.42857142857142</ele><time>2026-04-22T16:28:58Z</time></trkpt><trkpt lat="34.0350759885717" lon="-6.809127208765049"><ele>32.714285714285715</ele><time>2026-04-22T16:28:59Z</time></trkpt><trkpt lat="34.035076361920574" lon="-6.80921476005057"><ele>32.0</ele><time>2026-04-22T16:29:00Z</time></trkpt><trkpt lat="34.03507482498813" lon="-6.809301196415374"><ele>31.57142857142857</ele><time>2026-04-22T16:29:01Z</time></trkpt><trkpt lat="34.03507140278585" lon="-6.809388606018328"><ele>31.14285714285714</ele><time>2026-04-22T16:29:02Z</time></trkpt><trkpt lat="34.0350662543304" lon="-6.809477504325721"><ele>30.714285714285715</ele><time>2026-04-22T16:29:03Z</time></trkpt><trkpt lat="34.0350571596235" lon="-6.809562935289871"><ele>30.285714285714285</ele><time>2026-04-22T16:29:04Z</time></trkpt><trkpt lat="34.03504746340672" lon="-6.809643346631384"><ele>29.857142857142858</ele><time>2026-04-22T16:29:05Z</time></trkpt><trkpt lat="34.035030142614794" lon="-6.809719895501796"><ele>29.42857142857143</ele><time>2026-04-22T16:29:06Z</time></trkpt><trkpt lat="34.03500910039267" lon="-6.8097946712945285"><ele>29.000000000000004</ele><time>2026-04-22T16:29:07Z</time></trkpt><trkpt lat="34.034984182769705" lon="-6.809872492268128"><ele>28.999999999999996</ele><time>2026-04-22T16:29:08Z</time></trkpt><trkpt lat="34.034957693162575" lon="-6.809955889876923"><ele>29.0</ele><time>2026-04-22T16:29:09Z</time></trkpt><trkpt lat="34.03492994223199" lon="-6.810049163468602"><ele>29.0</ele><time>2026-04-22T16:29:10Z</time></trkpt><trkpt lat="34.03491085746046" lon="-6.8101499213885015"><ele>29.0</ele><time>2026-04-22T16:29:11Z</time></trkpt><trkpt lat="34.03490300352042" lon="-6.8102517464477845"><ele>28.999999999999996</ele><time>2026-04-22T16:29:12Z</time></trkpt><trkpt lat="34.034900058646336" lon="-6.810347336169779"><ele>29.0</ele><time>2026-04-22T16:29:13Z</time></trkpt><trkpt lat="34.03490512696608" lon="-6.810448368224172"><ele>29.0</ele><time>2026-04-22T16:29:14Z</time></trkpt><trkpt lat="34.034910722823994" lon="-6.810554748587925"><ele>29.0</ele><time>2026-04-22T16:29:15Z</time></trkpt><trkpt lat="34.03492687564382" lon="-6.810660366099735"><ele>29.0</ele><time>2026-04-22T16:29:15.999Z</time></trkpt><trkpt lat="34.03494659572454" lon="-6.810770352360911"><ele>29.0</ele><time>2026-04-22T16:29:16.999Z</time></trkpt><trkpt lat="34.03496866140017" lon="-6.81088102562329"><ele>29.0</ele><time>2026-04-22T16:29:17.999Z</time></trkpt><trkpt lat="34.034989554808455" lon="-6.810991895353746"><ele>29.0</ele><time>2026-04-22T16:29:18.999Z</time></trkpt><trkpt lat="34.03501794908163" lon="-6.811104343526594"><ele>29.0</ele><time>2026-04-22T16:29:19.999Z</time></trkpt><trkpt lat="34.03504943022218" lon="-6.811212404962956"><ele>29.0</ele><time>2026-04-22T16:29:20.999Z</time></trkpt><trkpt lat="34.03508336176213" lon="-6.811314184327802"><ele>29.0</ele><time>2026-04-22T16:29:21.999Z</time></trkpt><trkpt lat="34.03511539553537" lon="-6.811413330755688"><ele>29.0</ele><time>2026-04-22T16:29:22.999Z</time></trkpt><trkpt lat="34.03514655664471" lon="-6.811510181877984"><ele>28.999999999999996</ele><time>2026-04-22T16:29:23.999Z</time></trkpt><trkpt lat="34.03517196420785" lon="-6.811604257737475"><ele>29.0</ele><time>2026-04-22T16:29:24.999Z</time></trkpt><trkpt lat="34.03519714084671" lon="-6.811695064939439"><ele>29.0</ele><time>2026-04-22T16:29:26Z</time></trkpt><trkpt lat="34.03522344295916" lon="-6.811784590905471"><ele>29.0</ele><time>2026-04-22T16:29:27Z</time></trkpt><trkpt lat="34.035248326216276" lon="-6.811871995592051"><ele>28.999999999999996</ele><time>2026-04-22T16:29:28Z</time></trkpt><trkpt lat="34.03527431527786" lon="-6.811954662738987"><ele>29.0</ele><time>2026-04-22T16:29:29Z</time></trkpt><trkpt lat="34.03528926318487" lon="-6.812041119745983"><ele>29.000000000000004</ele><time>2026-04-22T16:29:30Z</time></trkpt><trkpt lat="34.03530667317798" lon="-6.8121245675694055"><ele>29.0</ele><time>2026-04-22T16:29:31Z</time></trkpt><trkpt lat="34.03532255674803" lon="-6.812207571939769"><ele>29.000000000000004</ele><time>2026-04-22T16:29:32Z</time></trkpt><trkpt lat="34.035340246139256" lon="-6.812292475199058"><ele>29.000000000000004</ele><time>2026-04-22T16:29:33Z</time></trkpt><trkpt lat="34.035357822936895" lon="-6.812377505828763"><ele>29.0</ele><time>2026-04-22T16:29:34Z</time></trkpt><trkpt lat="34.03537477276385" lon="-6.8124637525191485"><ele>29.000000000000004</ele><time>2026-04-22T16:29:35Z</time></trkpt><trkpt lat="34.03539228398289" lon="-6.812548614435848"><ele>29.000000000000004</ele><time>2026-04-22T16:29:36Z</time></trkpt><trkpt lat="34.03540736039598" lon="-6.812635382900497"><ele>28.499999999999996</ele><time>2026-04-22T16:29:37Z</time></trkpt><trkpt lat="34.03542626047358" lon="-6.812728596500476"><ele>28.0</ele><time>2026-04-22T16:29:38Z</time></trkpt><trkpt lat="34.03544356408539" lon="-6.81282376702445"><ele>27.5</ele><time>2026-04-22T16:29:39Z</time></trkpt><trkpt lat="34.03546027862574" lon="-6.812913718955682"><ele>27.0</ele><time>2026-04-22T16:29:40Z</time></trkpt><trkpt lat="34.035484663192904" lon="-6.813031198962029"><ele>26.499999999999996</ele><time>2026-04-22T16:29:42Z</time></trkpt><trkpt lat="34.03550198269729" lon="-6.813124792496762"><ele>26.0</ele><time>2026-04-22T16:30:04Z</time></trkpt><trkpt lat="34.03552158791705" lon="-6.813267010256104"><ele>25.999999999999996</ele><time>2026-04-22T16:30:06Z</time></trkpt><trkpt lat="34.03553217217137" lon="-6.813357374017544"><ele>26.0</ele><time>2026-04-22T16:30:07Z</time></trkpt><trkpt lat="34.035541649099905" lon="-6.813448255176569"><ele>26.0</ele><time>2026-04-22T16:30:08Z</time></trkpt><trkpt lat="34.03554831541728" lon="-6.813531158041395"><ele>26.0</ele><time>2026-04-22T16:30:09Z</time></trkpt><trkpt lat="34.03555707924237" lon="-6.813668915059984"><ele>25.999999999999996</ele><time>2026-04-22T16:30:11Z</time></trkpt><trkpt lat="34.03556324147112" lon="-6.81376452941086"><ele>26.0</ele><time>2026-04-22T16:30:13Z</time></trkpt><trkpt lat="34.03556500069474" lon="-6.813867908008226"><ele>25.6</ele><time>2026-04-22T16:30:19Z</time></trkpt><trkpt lat="34.03557376183734" lon="-6.8139990744381995"><ele>25.200000000000003</ele><time>2026-04-22T16:30:21Z</time></trkpt><trkpt lat="34.03557844212293" lon="-6.81408953532554"><ele>24.799999999999997</ele><time>2026-04-22T16:30:22Z</time></trkpt><trkpt lat="34.03558152788012" lon="-6.814192656963323"><ele>24.4</ele><time>2026-04-22T16:30:23Z</time></trkpt><trkpt lat="34.03558705574038" lon="-6.814302990486013"><ele>24.0</ele><time>2026-04-22T16:30:24Z</time></trkpt><trkpt lat="34.03558819948662" lon="-6.814413762413661"><ele>23.666666666666668</ele><time>2026-04-22T16:30:25Z</time></trkpt><trkpt lat="34.03558989102633" lon="-6.814526864100598"><ele>23.333333333333332</ele><time>2026-04-22T16:30:26Z</time></trkpt><trkpt lat="34.0355893398379" lon="-6.8146444465495"><ele>23.0</ele><time>2026-04-22T16:30:27Z</time></trkpt><trkpt lat="34.03558830870706" lon="-6.8147578803576385"><ele>22.666666666666664</ele><time>2026-04-22T16:30:28Z</time></trkpt><trkpt lat="34.03558725099796" lon="-6.814857447575442"><ele>22.333333333333332</ele><time>2026-04-22T16:30:29Z</time></trkpt><trkpt lat="34.03558519261148" lon="-6.814938768269964"><ele>22.0</ele><time>2026-04-22T16:30:30Z</time></trkpt><trkpt lat="34.035581437986565" lon="-6.815088058724983"><ele>21.6</ele><time>2026-04-22T16:30:32Z</time></trkpt><trkpt lat="34.035573364514434" lon="-6.815180277228456"><ele>21.200000000000003</ele><time>2026-04-22T16:30:33Z</time></trkpt><trkpt lat="34.035559185033705" lon="-6.815289287689174"><ele>20.8</ele><time>2026-04-22T16:30:34Z</time></trkpt><trkpt lat="34.03553507509471" lon="-6.8154057206640895"><ele>20.4</ele><time>2026-04-22T16:30:35Z</time></trkpt><trkpt lat="34.03550918030589" lon="-6.815532117828877"><ele>20.0</ele><time>2026-04-22T16:30:36Z</time></trkpt><trkpt lat="34.035482112340645" lon="-6.815666983767881"><ele>20.0</ele><time>2026-04-22T16:30:37Z</time></trkpt><trkpt lat="34.035450487468964" lon="-6.815805241599692"><ele>20.0</ele><time>2026-04-22T16:30:38Z</time></trkpt><trkpt lat="34.035418836937076" lon="-6.81594084026608"><ele>20.0</ele><time>2026-04-22T16:30:39Z</time></trkpt><trkpt lat="34.03538683993409" lon="-6.816074753152065"><ele>20.0</ele><time>2026-04-22T16:30:40Z</time></trkpt><trkpt lat="34.03535273784863" lon="-6.816206080683884"><ele>19.8</ele><time>2026-04-22T16:30:41Z</time></trkpt><trkpt lat="34.035312554576244" lon="-6.816332178729103"><ele>19.6</ele><time>2026-04-22T16:30:42Z</time></trkpt><trkpt lat="34.03526755064861" lon="-6.816452197544452"><ele>19.4</ele><time>2026-04-22T16:30:43Z</time></trkpt><trkpt lat="34.03521593926229" lon="-6.816565628698083"><ele>19.2</ele><time>2026-04-22T16:30:44Z</time></trkpt><trkpt lat="34.035162389896655" lon="-6.816673466209959"><ele>19.0</ele><time>2026-04-22T16:30:45Z</time></trkpt><trkpt lat="34.03511011889747" lon="-6.816777519583456"><ele>18.666666666666664</ele><time>2026-04-22T16:30:46Z</time></trkpt><trkpt lat="34.03505972687446" lon="-6.816876642326191"><ele>18.333333333333332</ele><time>2026-04-22T16:30:47Z</time></trkpt><trkpt lat="34.03501878905957" lon="-6.816965226424162"><ele>18.0</ele><time>2026-04-22T16:30:48Z</time></trkpt><trkpt lat="34.03498395326196" lon="-6.817040560139998"><ele>17.666666666666668</ele><time>2026-04-22T16:30:49Z</time></trkpt><trkpt lat="34.03494286702174" lon="-6.81713662556202"><ele>17.333333333333336</ele><time>2026-04-22T16:30:51Z</time></trkpt><trkpt lat="34.03491873377988" lon="-6.8172076427852035"><ele>17.0</ele><time>2026-04-22T16:30:53Z</time></trkpt><trkpt lat="34.03490275123269" lon="-6.817292945620822"><ele>16.0</ele><time>2026-04-22T16:30:56Z</time></trkpt><trkpt lat="34.03488366543835" lon="-6.81738845305517"><ele>15.0</ele><time>2026-04-22T16:30:59Z</time></trkpt><trkpt lat="34.03486894414818" lon="-6.817486017846974"><ele>14.0</ele><time>2026-04-22T16:31:01Z</time></trkpt><trkpt lat="34.03481392697133" lon="-6.817593176525725"><ele>13.0</ele><time>2026-04-22T16:31:03Z</time></trkpt><trkpt lat="34.034722122271695" lon="-6.817643920054618"><ele>12.0</ele><time>2026-04-22T16:31:05Z</time></trkpt><trkpt lat="34.034615759466824" lon="-6.81761913273348"><ele>12.0</ele><time>2026-04-22T16:31:07Z</time></trkpt><trkpt lat="34.03456107219272" lon="-6.817573360908777"><ele>12.0</ele><time>2026-04-22T16:31:08Z</time></trkpt><trkpt lat="34.03449925336735" lon="-6.817523230001824"><ele>12.0</ele><time>2026-04-22T16:31:09Z</time></trkpt><trkpt lat="34.0344326709754" lon="-6.817470122117515"><ele>12.0</ele><time>2026-04-22T16:31:10Z</time></trkpt><trkpt lat="34.03435721127552" lon="-6.817425364057146"><ele>12.0</ele><time>2026-04-22T16:31:11Z</time></trkpt><trkpt lat="34.03427424405424" lon="-6.81739575208806"><ele>12.0</ele><time>2026-04-22T16:31:12Z</time></trkpt><trkpt lat="34.03418421150659" lon="-6.817378509370262"><ele>10.799999999999999</ele><time>2026-04-22T16:31:13Z</time></trkpt><trkpt lat="34.034091871283586" lon="-6.817369976595873"><ele>9.6</ele><time>2026-04-22T16:31:14Z</time></trkpt><trkpt lat="34.03399715447336" lon="-6.817373077868441"><ele>8.399999999999999</ele><time>2026-04-22T16:31:15Z</time></trkpt><trkpt lat="34.03389766128576" lon="-6.817388422971278"><ele>7.199999999999999</ele><time>2026-04-22T16:31:16Z</time></trkpt><trkpt lat="34.03379497814973" lon="-6.817413962713197"><ele>6.0</ele><time>2026-04-22T16:31:17Z</time></trkpt><trkpt lat="34.033688988645295" lon="-6.817452927347064"><ele>6.0</ele><time>2026-04-22T16:31:18Z</time></trkpt><trkpt lat="34.033581402216434" lon="-6.8174980389470505"><ele>6.0</ele><time>2026-04-22T16:31:19Z</time></trkpt><trkpt lat="34.033468130546126" lon="-6.8175432916347045"><ele>6.0</ele><time>2026-04-22T16:31:19.999Z</time></trkpt><trkpt lat="34.03335099398679" lon="-6.817588012858244"><ele>6.0</ele><time>2026-04-22T16:31:20.999Z</time></trkpt><trkpt lat="34.03323087412972" lon="-6.81763702459011"><ele>6.0</ele><time>2026-04-22T16:31:21.999Z</time></trkpt><trkpt lat="34.03311004942593" lon="-6.817685564778866"><ele>6.0</ele><time>2026-04-22T16:31:22.999Z</time></trkpt><trkpt lat="34.03298377724973" lon="-6.8177351474574435"><ele>6.0</ele><time>2026-04-22T16:31:23.999Z</time></trkpt><trkpt lat="34.032854573451374" lon="-6.817787659479347"><ele>6.0</ele><time>2026-04-22T16:31:24.999Z</time></trkpt><trkpt lat="34.03272239186641" lon="-6.817839091797663"><ele>6.0</ele><time>2026-04-22T16:31:25.999Z</time></trkpt><trkpt lat="34.032584667836666" lon="-6.817891446663928"><ele>6.0</ele><time>2026-04-22T16:31:26.999Z</time></trkpt><trkpt lat="34.03244394684857" lon="-6.817948770034505"><ele>6.0</ele><time>2026-04-22T16:31:27.999Z</time></trkpt><trkpt lat="34.03229888681568" lon="-6.818007300025241"><ele>6.0</ele><time>2026-04-22T16:31:28.999Z</time></trkpt><trkpt lat="34.03215313494016" lon="-6.818067456711143"><ele>6.666666666666666</ele><time>2026-04-22T16:31:29.999Z</time></trkpt><trkpt lat="34.03200329211849" lon="-6.818127207818687"><ele>7.333333333333333</ele><time>2026-04-22T16:31:30.999Z</time></trkpt><trkpt lat="34.0318520751272" lon="-6.818187234254238"><ele>8.0</ele><time>2026-04-22T16:31:32Z</time></trkpt><trkpt lat="34.03169968322084" lon="-6.8182464703941115"><ele>7.666666666666666</ele><time>2026-04-22T16:31:33Z</time></trkpt><trkpt lat="34.03154970094181" lon="-6.818305392560462"><ele>7.333333333333334</ele><time>2026-04-22T16:31:34Z</time></trkpt><trkpt lat="34.03140008173444" lon="-6.818364684020515"><ele>7.0</ele><time>2026-04-22T16:31:35Z</time></trkpt><trkpt lat="34.03125149497197" lon="-6.8184234976580536"><ele>7.0</ele><time>2026-04-22T16:31:36Z</time></trkpt><trkpt lat="34.031102476308696" lon="-6.818483873836241"><ele>7.0</ele><time>2026-04-22T16:31:37Z</time></trkpt><trkpt lat="34.030953246690984" lon="-6.81854338611642"><ele>7.0</ele><time>2026-04-22T16:31:38Z</time></trkpt><trkpt lat="34.03080037498656" lon="-6.818608675769696"><ele>7.666666666666667</ele><time>2026-04-22T16:31:39Z</time></trkpt><trkpt lat="34.030646933329" lon="-6.818669104572086"><ele>8.333333333333334</ele><time>2026-04-22T16:31:40Z</time></trkpt><trkpt lat="34.030495388329655" lon="-6.8187311208320756"><ele>9.0</ele><time>2026-04-22T16:31:41Z</time></trkpt><trkpt lat="34.0303464187707" lon="-6.818793270744169"><ele>9.0</ele><time>2026-04-22T16:31:42Z</time></trkpt><trkpt lat="34.03020633542675" lon="-6.8188512040705325"><ele>9.0</ele><time>2026-04-22T16:31:43Z</time></trkpt><trkpt lat="34.030073901478715" lon="-6.81890575711607"><ele>9.0</ele><time>2026-04-22T16:31:44Z</time></trkpt><trkpt lat="34.02994218648203" lon="-6.81895805170018"><ele>9.0</ele><time>2026-04-22T16:31:45Z</time></trkpt><trkpt lat="34.02981198780335" lon="-6.819007454919607"><ele>7.75</ele><time>2026-04-22T16:31:46Z</time></trkpt><trkpt lat="34.02967784944171" lon="-6.81905693409598"><ele>6.5</ele><time>2026-04-22T16:31:47Z</time></trkpt><trkpt lat="34.02954435819012" lon="-6.819107956007319"><ele>5.25</ele><time>2026-04-22T16:31:48Z</time></trkpt><trkpt lat="34.029413359273946" lon="-6.8191590305898995"><ele>4.0</ele><time>2026-04-22T16:31:49Z</time></trkpt><trkpt lat="34.02928470827756" lon="-6.819204966438118"><ele>4.0</ele><time>2026-04-22T16:31:50Z</time></trkpt><trkpt lat="34.0291558320694" lon="-6.819247239413672"><ele>4.0</ele><time>2026-04-22T16:31:51Z</time></trkpt><trkpt lat="34.02901776695988" lon="-6.819287321142043"><ele>4.0</ele><time>2026-04-22T16:31:52Z</time></trkpt><trkpt lat="34.02887796144778" lon="-6.819313027365503"><ele>4.0</ele><time>2026-04-22T16:31:53Z</time></trkpt><trkpt lat="34.02873290488043" lon="-6.819328798183412"><ele>3.6666666666666665</ele><time>2026-04-22T16:31:54Z</time></trkpt><trkpt lat="34.028583375951214" lon="-6.819343944596497"><ele>3.333333333333333</ele><time>2026-04-22T16:31:55Z</time></trkpt><trkpt lat="34.028432334094525" lon="-6.819361198461472"><ele>3.0</ele><time>2026-04-22T16:31:56Z</time></trkpt><trkpt lat="34.02827731716544" lon="-6.819379383262656"><ele>2.3333333333333335</ele><time>2026-04-22T16:31:57Z</time></trkpt><trkpt lat="34.0281239606794" lon="-6.819399990491981"><ele>1.6666666666666665</ele><time>2026-04-22T16:31:58Z</time></trkpt><trkpt lat="34.027968766089906" lon="-6.81942135966242"><ele>1.0</ele><time>2026-04-22T16:31:59Z</time></trkpt><trkpt lat="34.027813898622306" lon="-6.819444726791561"><ele>1.0</ele><time>2026-04-22T16:32:00Z</time></trkpt><trkpt lat="34.02765898278626" lon="-6.819466764314804"><ele>1.0</ele><time>2026-04-22T16:32:01Z</time></trkpt><trkpt lat="34.027507100278726" lon="-6.819484549866202"><ele>1.0</ele><time>2026-04-22T16:32:02Z</time></trkpt><trkpt lat="34.02735810493496" lon="-6.819500660075389"><ele>1.25</ele><time>2026-04-22T16:32:03Z</time></trkpt><trkpt lat="34.02721766871141" lon="-6.819516068754178"><ele>1.5</ele><time>2026-04-22T16:32:04Z</time></trkpt><trkpt lat="34.02708133334363" lon="-6.819530765246459"><ele>1.75</ele><time>2026-04-22T16:32:05Z</time></trkpt><trkpt lat="34.02694659241337" lon="-6.819542833498325"><ele>2.0</ele><time>2026-04-22T16:32:06Z</time></trkpt><trkpt lat="34.02681338688184" lon="-6.81955365613578"><ele>2.0</ele><time>2026-04-22T16:32:07Z</time></trkpt><trkpt lat="34.02668289805269" lon="-6.8195666538812105"><ele>2.0</ele><time>2026-04-22T16:32:08Z</time></trkpt><trkpt lat="34.026554679146706" lon="-6.81957865372989"><ele>2.0</ele><time>2026-04-22T16:32:09Z</time></trkpt><trkpt lat="34.026427056019855" lon="-6.819591688557341"><ele>2.0</ele><time>2026-04-22T16:32:10Z</time></trkpt><trkpt lat="34.026301274444855" lon="-6.819604063293673"><ele>2.75</ele><time>2026-04-22T16:32:11Z</time></trkpt><trkpt lat="34.02617721231608" lon="-6.819618814867353"><ele>3.5</ele><time>2026-04-22T16:32:12Z</time></trkpt><trkpt lat="34.026055035037594" lon="-6.819637798824829"><ele>4.25</ele><time>2026-04-22T16:32:13Z</time></trkpt><trkpt lat="34.02593397941479" lon="-6.819660884722193"><ele>5.0</ele><time>2026-04-22T16:32:14Z</time></trkpt><trkpt lat="34.02581013073681" lon="-6.819692400860986"><ele>6.25</ele><time>2026-04-22T16:32:15Z</time></trkpt><trkpt lat="34.025684143386506" lon="-6.81973713373163"><ele>7.5</ele><time>2026-04-22T16:32:16Z</time></trkpt><trkpt lat="34.02556183346787" lon="-6.819795065781881"><ele>8.75</ele><time>2026-04-22T16:32:17Z</time></trkpt><trkpt lat="34.02544395222479" lon="-6.819866069380855"><ele>10.0</ele><time>2026-04-22T16:32:18Z</time></trkpt><trkpt lat="34.02533595885585" lon="-6.819951545625738"><ele>10.0</ele><time>2026-04-22T16:32:19Z</time></trkpt><trkpt lat="34.02523441088287" lon="-6.82004746609069"><ele>10.0</ele><time>2026-04-22T16:32:20Z</time></trkpt><trkpt lat="34.025147281007754" lon="-6.82015706495507"><ele>10.0</ele><time>2026-04-22T16:32:21Z</time></trkpt><trkpt lat="34.02507313783204" lon="-6.820280848257748"><ele>10.0</ele><time>2026-04-22T16:32:22Z</time></trkpt><trkpt lat="34.02501232549459" lon="-6.8204145476905875"><ele>11.0</ele><time>2026-04-22T16:32:23Z</time></trkpt><trkpt lat="34.0249649970256" lon="-6.820556058724399"><ele>12.0</ele><time>2026-04-22T16:32:24Z</time></trkpt><trkpt lat="34.02493393505982" lon="-6.820701936965076"><ele>13.0</ele><time>2026-04-22T16:32:25Z</time></trkpt><trkpt lat="34.02492091849185" lon="-6.820853306806117"><ele>14.0</ele><time>2026-04-22T16:32:26Z</time></trkpt><trkpt lat="34.02492765433903" lon="-6.820998451788715"><ele>14.0</ele><time>2026-04-22T16:32:27Z</time></trkpt><trkpt lat="34.02495058163424" lon="-6.821138675663371"><ele>14.0</ele><time>2026-04-22T16:32:28Z</time></trkpt><trkpt lat="34.02498800136289" lon="-6.821279170523472"><ele>14.0</ele><time>2026-04-22T16:32:29Z</time></trkpt><trkpt lat="34.0250355537716" lon="-6.821423188540304"><ele>14.0</ele><time>2026-04-22T16:32:30Z</time></trkpt><trkpt lat="34.02508838758854" lon="-6.821570067194502"><ele>14.0</ele><time>2026-04-22T16:32:31Z</time></trkpt><trkpt lat="34.025140238106154" lon="-6.821720067451009"><ele>14.0</ele><time>2026-04-22T16:32:32Z</time></trkpt><trkpt lat="34.02519275383144" lon="-6.821875889897898"><ele>14.0</ele><time>2026-04-22T16:32:33Z</time></trkpt><trkpt lat="34.02524614411707" lon="-6.8220367514783735"><ele>14.0</ele><time>2026-04-22T16:32:34Z</time></trkpt><trkpt lat="34.02530013900411" lon="-6.822198362331383"><ele>16.0</ele><time>2026-04-22T16:32:35Z</time></trkpt><trkpt lat="34.02535252283312" lon="-6.822358817756357"><ele>18.0</ele><time>2026-04-22T16:32:36Z</time></trkpt><trkpt lat="34.025405173994855" lon="-6.822517726643858"><ele>20.0</ele><time>2026-04-22T16:32:37Z</time></trkpt><trkpt lat="34.02545863049349" lon="-6.822676514462113"><ele>22.0</ele><time>2026-04-22T16:32:38Z</time></trkpt><trkpt lat="34.02551129930895" lon="-6.822833331915956"><ele>22.25</ele><time>2026-04-22T16:32:39Z</time></trkpt><trkpt lat="34.02556534695871" lon="-6.822987748438115"><ele>22.5</ele><time>2026-04-22T16:32:40Z</time></trkpt><trkpt lat="34.02561428665386" lon="-6.823142573272012"><ele>22.75</ele><time>2026-04-22T16:32:41Z</time></trkpt><trkpt lat="34.02566457925117" lon="-6.823293216240933"><ele>23.0</ele><time>2026-04-22T16:32:42Z</time></trkpt><trkpt lat="34.025715857576714" lon="-6.823441913980694"><ele>23.5</ele><time>2026-04-22T16:32:43Z</time></trkpt><trkpt lat="34.02576625370421" lon="-6.823588987323505"><ele>24.0</ele><time>2026-04-22T16:32:44Z</time></trkpt><trkpt lat="34.02581043476889" lon="-6.823736316727476"><ele>24.5</ele><time>2026-04-22T16:32:45Z</time></trkpt><trkpt lat="34.02585672923276" lon="-6.823881044658665"><ele>25.0</ele><time>2026-04-22T16:32:46Z</time></trkpt><trkpt lat="34.0259045369854" lon="-6.824024973933968"><ele>23.75</ele><time>2026-04-22T16:32:47Z</time></trkpt><trkpt lat="34.02595323738442" lon="-6.824168315556207"><ele>22.5</ele><time>2026-04-22T16:32:48Z</time></trkpt><trkpt lat="34.0259989618361" lon="-6.824312050047275"><ele>21.25</ele><time>2026-04-22T16:32:49Z</time></trkpt><trkpt lat="34.02604202800192" lon="-6.824452092727355"><ele>20.0</ele><time>2026-04-22T16:32:50Z</time></trkpt><trkpt lat="34.02608231562151" lon="-6.82458485320772"><ele>20.0</ele><time>2026-04-22T16:32:51Z</time></trkpt><trkpt lat="34.02611964646482" lon="-6.824706655758372"><ele>20.0</ele><time>2026-04-22T16:32:52Z</time></trkpt><trkpt lat="34.02615522383194" lon="-6.8248162795362175"><ele>20.0</ele><time>2026-04-22T16:32:53Z</time></trkpt><trkpt lat="34.02618678747728" lon="-6.824914254357102"><ele>20.0</ele><time>2026-04-22T16:32:54Z</time></trkpt><trkpt lat="34.02621451691924" lon="-6.825004103000604"><ele>20.0</ele><time>2026-04-22T16:32:55Z</time></trkpt><trkpt lat="34.02623927469054" lon="-6.825084067054883"><ele>20.0</ele><time>2026-04-22T16:32:56Z</time></trkpt><trkpt lat="34.02626838577987" lon="-6.825155627292958"><ele>20.2</ele><time>2026-04-22T16:32:57Z</time></trkpt><trkpt lat="34.02632972423609" lon="-6.825278307255204"><ele>20.4</ele><time>2026-04-22T16:32:59Z</time></trkpt><trkpt lat="34.0263441084789" lon="-6.825403824025782"><ele>20.6</ele><time>2026-04-22T16:33:01Z</time></trkpt><trkpt lat="34.02629419684771" lon="-6.825505734180833"><ele>20.8</ele><time>2026-04-22T16:33:03Z</time></trkpt><trkpt lat="34.02619484180018" lon="-6.8255354073681085"><ele>21.0</ele><time>2026-04-22T16:33:05Z</time></trkpt><trkpt lat="34.026080071912894" lon="-6.825512750959273"><ele>21.0</ele><time>2026-04-22T16:33:07Z</time></trkpt><trkpt lat="34.025977955833504" lon="-6.825491790184312"><ele>21.0</ele><time>2026-04-22T16:33:09Z</time></trkpt><trkpt lat="34.02590462913677" lon="-6.8254801628004795"><ele>21.0</ele><time>2026-04-22T16:33:11Z</time></trkpt><trkpt lat="34.025839373014826" lon="-6.825478068689675"><ele>21.0</ele><time>2026-04-22T16:33:19Z</time></trkpt><trkpt lat="34.02575857765467" lon="-6.825474831505628"><ele>21.0</ele><time>2026-04-22T16:33:22Z</time></trkpt><trkpt lat="34.02568196740265" lon="-6.825457911357616"><ele>21.0</ele><time>2026-04-22T16:33:26.999Z</time></trkpt><trkpt lat="34.02559780377586" lon="-6.8254466302105925"><ele>21.8</ele><time>2026-04-22T16:33:31.999Z</time></trkpt><trkpt lat="34.025518674186785" lon="-6.825431242612632"><ele>22.6</ele><time>2026-04-22T16:33:34.999Z</time></trkpt><trkpt lat="34.02541096462921" lon="-6.825415558744313"><ele>23.4</ele><time>2026-04-22T16:33:38Z</time></trkpt><trkpt lat="34.02534184759093" lon="-6.825343758250299"><ele>24.2</ele><time>2026-04-22T16:33:40Z</time></trkpt><trkpt lat="34.02530011634523" lon="-6.825253261965362"><ele>25.0</ele><time>2026-04-22T16:33:42Z</time></trkpt><trkpt lat="34.02528530796424" lon="-6.825139335890799"><ele>25.6</ele><time>2026-04-22T16:33:44Z</time></trkpt><trkpt lat="34.025314104273136" lon="-6.825004752769191"><ele>26.2</ele><time>2026-04-22T16:33:46Z</time></trkpt><trkpt lat="34.025339759610695" lon="-6.824886755053358"><ele>26.799999999999997</ele><time>2026-04-22T16:33:48Z</time></trkpt><trkpt lat="34.025355544596216" lon="-6.824812389020824"><ele>27.4</ele><time>2026-04-22T16:33:51Z</time></trkpt><trkpt lat="34.02535172737195" lon="-6.824706740201753"><ele>28.0</ele><time>2026-04-22T16:33:55Z</time></trkpt><trkpt lat="34.025340969214646" lon="-6.824593760056171"><ele>28.0</ele><time>2026-04-22T16:33:57Z</time></trkpt><trkpt lat="34.02532257858863" lon="-6.824466868033063"><ele>27.999999999999996</ele><time>2026-04-22T16:33:59Z</time></trkpt><trkpt lat="34.02528831712456" lon="-6.824336681154065"><ele>27.999999999999996</ele><time>2026-04-22T16:34:01Z</time></trkpt><trkpt lat="34.02524856397813" lon="-6.824199261005961"><ele>28.0</ele><time>2026-04-22T16:34:03Z</time></trkpt><trkpt lat="34.02522419481867" lon="-6.824116246730238"><ele>28.0</ele><time>2026-04-22T16:34:04Z</time></trkpt><trkpt lat="34.02520167840065" lon="-6.8240200944890415"><ele>27.500000000000004</ele><time>2026-04-22T16:34:05Z</time></trkpt><trkpt lat="34.02517913547474" lon="-6.823924339263039"><ele>27.0</ele><time>2026-04-22T16:34:06Z</time></trkpt><trkpt lat="34.025153196548196" lon="-6.8238286058075825"><ele>26.5</ele><time>2026-04-22T16:34:07Z</time></trkpt><trkpt lat="34.025128212433145" lon="-6.823733778017287"><ele>26.0</ele><time>2026-04-22T16:34:08Z</time></trkpt><trkpt lat="34.02510484621049" lon="-6.823646245337759"><ele>25.500000000000004</ele><time>2026-04-22T16:34:09Z</time></trkpt><trkpt lat="34.025085277923424" lon="-6.823565965150332"><ele>25.0</ele><time>2026-04-22T16:34:10Z</time></trkpt><trkpt lat="34.025065435686685" lon="-6.823488409742158"><ele>24.666666666666668</ele><time>2026-04-22T16:34:11Z</time></trkpt><trkpt lat="34.025032400602754" lon="-6.823370505681293"><ele>24.333333333333336</ele><time>2026-04-22T16:34:13Z</time></trkpt><trkpt lat="34.02500977553341" lon="-6.823296937729175"><ele>24.0</ele><time>2026-04-22T16:34:16Z</time></trkpt><trkpt lat="34.024995650421126" lon="-6.823219403784541"><ele>23.666666666666668</ele><time>2026-04-22T16:36:57.999Z</time></trkpt><trkpt lat="34.024962644167076" lon="-6.82314449782009"><ele>23.333333333333336</ele><time>2026-04-22T16:37:00.999Z</time></trkpt><trkpt lat="34.02493537617979" lon="-6.82301675882891"><ele>23.0</ele><time>2026-04-22T16:37:02.999Z</time></trkpt><trkpt lat="34.02491804754088" lon="-6.822935698077316"><ele>24.166666666666668</ele><time>2026-04-22T16:37:03.999Z</time></trkpt><trkpt lat="34.02489834946555" lon="-6.822852489711812"><ele>25.333333333333336</ele><time>2026-04-22T16:37:04.999Z</time></trkpt><trkpt lat="34.02488138388217" lon="-6.822770443200338"><ele>26.5</ele><time>2026-04-22T16:37:05.999Z</time></trkpt><trkpt lat="34.024863251368295" lon="-6.822685176122983"><ele>27.666666666666668</ele><time>2026-04-22T16:37:06.999Z</time></trkpt><trkpt lat="34.024842075145145" lon="-6.822595619116963"><ele>28.833333333333332</ele><time>2026-04-22T16:37:07.999Z</time></trkpt><trkpt lat="34.024817354820485" lon="-6.822503051926962"><ele>30.0</ele><time>2026-04-22T16:37:08.999Z</time></trkpt><trkpt lat="34.02478768815285" lon="-6.822414286185453"><ele>30.333333333333332</ele><time>2026-04-22T16:37:09.999Z</time></trkpt><trkpt lat="34.02475191858168" lon="-6.822324367830817"><ele>30.666666666666664</ele><time>2026-04-22T16:37:10.999Z</time></trkpt><trkpt lat="34.02470820289235" lon="-6.822232532902725"><ele>31.0</ele><time>2026-04-22T16:37:11.999Z</time></trkpt><trkpt lat="34.024662115778355" lon="-6.822149250814755"><ele>31.333333333333332</ele><time>2026-04-22T16:37:12.999Z</time></trkpt><trkpt lat="34.02461399196118" lon="-6.8220806006755"><ele>31.666666666666664</ele><time>2026-04-22T16:37:13.999Z</time></trkpt><trkpt lat="34.02456123716164" lon="-6.822021584761674"><ele>32.0</ele><time>2026-04-22T16:37:14.999Z</time></trkpt><trkpt lat="34.02450667524227" lon="-6.821972090405282"><ele>31.999999999999996</ele><time>2026-04-22T16:37:15.999Z</time></trkpt><trkpt lat="34.02444592091318" lon="-6.821932407191665"><ele>32.0</ele><time>2026-04-22T16:37:16.999Z</time></trkpt><trkpt lat="34.02437905183227" lon="-6.821889583850131"><ele>32.0</ele><time>2026-04-22T16:37:17.999Z</time></trkpt><trkpt lat="34.024307720353534" lon="-6.821845652967902"><ele>32.0</ele><time>2026-04-22T16:37:18.999Z</time></trkpt><trkpt lat="34.02423653525051" lon="-6.821802558639115"><ele>31.999999999999996</ele><time>2026-04-22T16:37:19.999Z</time></trkpt><trkpt lat="34.02416684064912" lon="-6.821761190883562"><ele>32.0</ele><time>2026-04-22T16:37:20.999Z</time></trkpt><trkpt lat="34.0240975724777" lon="-6.821724136163095"><ele>32.5</ele><time>2026-04-22T16:37:21.999Z</time></trkpt><trkpt lat="34.024034040186464" lon="-6.821672572737683"><ele>33.0</ele><time>2026-04-22T16:37:22.999Z</time></trkpt><trkpt lat="34.0239642897008" lon="-6.821632760482298"><ele>33.5</ele><time>2026-04-22T16:37:23.999Z</time></trkpt><trkpt lat="34.02389372040413" lon="-6.821592480863538"><ele>34.0</ele><time>2026-04-22T16:37:24.999Z</time></trkpt><trkpt lat="34.023823721780545" lon="-6.821552541189688"><ele>34.5</ele><time>2026-04-22T16:37:25.999Z</time></trkpt><trkpt lat="34.023756834968545" lon="-6.821514552293242"><ele>35.0</ele><time>2026-04-22T16:37:26.999Z</time></trkpt><trkpt lat="34.02369209119656" lon="-6.821477780549007"><ele>35.0</ele><time>2026-04-22T16:37:27.999Z</time></trkpt><trkpt lat="34.023628465444666" lon="-6.821441643790422"><ele>35.0</ele><time>2026-04-22T16:37:28.999Z</time></trkpt><trkpt lat="34.023566919758274" lon="-6.82140668842132"><ele>35.0</ele><time>2026-04-22T16:37:29.999Z</time></trkpt><trkpt lat="34.02350778135792" lon="-6.821373182188311"><ele>35.0</ele><time>2026-04-22T16:37:30.999Z</time></trkpt><trkpt lat="34.02345058102162" lon="-6.821340980205823"><ele>35.0</ele><time>2026-04-22T16:37:31.999Z</time></trkpt><trkpt lat="34.023341414767906" lon="-6.821279522890661"><ele>35.0</ele><time>2026-04-22T16:37:33.999Z</time></trkpt><trkpt lat="34.02323401430862" lon="-6.821231695368891"><ele>35.5</ele><time>2026-04-22T16:37:35.999Z</time></trkpt><trkpt lat="34.023134162167544" lon="-6.821183613168618"><ele>36.0</ele><time>2026-04-22T16:37:37.999Z</time></trkpt><trkpt lat="34.02306188862534" lon="-6.821149766055046"><ele>36.5</ele><time>2026-04-22T16:37:39.999Z</time></trkpt><trkpt lat="34.02299487797589" lon="-6.821121150304438"><ele>37.0</ele><time>2026-04-22T16:37:42.999Z</time></trkpt><trkpt lat="34.02293335901068" lon="-6.821096774857162"><ele>37.5</ele><time>2026-04-22T16:38:02.999Z</time></trkpt><trkpt lat="34.0228279988428" lon="-6.821057175282155"><ele>38.0</ele><time>2026-04-22T16:38:04.999Z</time></trkpt><trkpt lat="34.022765595933706" lon="-6.821035303094779"><ele>38.0</ele><time>2026-04-22T16:38:05.999Z</time></trkpt><trkpt lat="34.02265726849294" lon="-6.821002746431867"><ele>38.0</ele><time>2026-04-22T16:38:07.999Z</time></trkpt><trkpt lat="34.02258436789906" lon="-6.820989320411461"><ele>38.0</ele><time>2026-04-22T16:38:10Z</time></trkpt><trkpt lat="34.02268928834068" lon="-6.820958268588384"><ele>38.0</ele><time>2026-04-22T16:38:23Z</time></trkpt><trkpt lat="34.022754628621364" lon="-6.820975578549022"><ele>38.0</ele><time>2026-04-22T16:38:24Z</time></trkpt><trkpt lat="34.02287230258566" lon="-6.821011101129539"><ele>38.0</ele><time>2026-04-22T16:38:26Z</time></trkpt><trkpt lat="34.022978932094944" lon="-6.821047200616241"><ele>38.0</ele><time>2026-04-22T16:38:28Z</time></trkpt><trkpt lat="34.023063501165566" lon="-6.82107588183172"><ele>38.0</ele><time>2026-04-22T16:38:30Z</time></trkpt><trkpt lat="34.023132446511454" lon="-6.821118402837368"><ele>38.0</ele><time>2026-04-22T16:38:33Z</time></trkpt><trkpt lat="34.02320191285505" lon="-6.821124483755298"><ele>38.0</ele><time>2026-04-22T16:38:43Z</time></trkpt><trkpt lat="34.023262292600485" lon="-6.821158288951319"><ele>38.0</ele><time>2026-04-22T16:38:56Z</time></trkpt><trkpt lat="34.023350185762794" lon="-6.82116302946529"><ele>38.0</ele><time>2026-04-22T16:38:59Z</time></trkpt><trkpt lat="34.02324482925148" lon="-6.821232851753414"><ele>38.0</ele><time>2026-04-22T16:45:01.999Z</time></trkpt><trkpt lat="34.02313857684968" lon="-6.82121853392419"><ele>38.0</ele><time>2026-04-22T16:45:03.999Z</time></trkpt><trkpt lat="34.023078104916486" lon="-6.82119468386238"><ele>38.0</ele><time>2026-04-22T16:45:04.999Z</time></trkpt><trkpt lat="34.02302708819822" lon="-6.821133468313222"><ele>38.0</ele><time>2026-04-22T16:45:05.999Z</time></trkpt><trkpt lat="34.0229610605443" lon="-6.821107750935984"><ele>38.0</ele><time>2026-04-22T16:45:06.999Z</time></trkpt><trkpt lat="34.02285916643223" lon="-6.8210680995195725"><ele>38.0</ele><time>2026-04-22T16:45:08.999Z</time></trkpt><trkpt lat="34.0227535681618" lon="-6.821031087368826"><ele>38.0</ele><time>2026-04-22T16:45:10.999Z</time></trkpt><trkpt lat="34.02268985960488" lon="-6.821011882857186"><ele>38.0</ele><time>2026-04-22T16:45:11.999Z</time></trkpt><trkpt lat="34.02262194978932" lon="-6.820992845334647"><ele>38.0</ele><time>2026-04-22T16:45:12.999Z</time></trkpt><trkpt lat="34.02254890920658" lon="-6.820983231110764"><ele>38.0</ele><time>2026-04-22T16:45:13.999Z</time></trkpt><trkpt lat="34.02247565357502" lon="-6.820973577088907"><ele>38.0</ele><time>2026-04-22T16:45:14.999Z</time></trkpt><trkpt lat="34.022400753172356" lon="-6.820963657043035"><ele>36.666666666666664</ele><time>2026-04-22T16:45:15.999Z</time></trkpt><trkpt lat="34.022323586737656" lon="-6.82095350518341"><ele>35.33333333333333</ele><time>2026-04-22T16:45:16.999Z</time></trkpt><trkpt lat="34.022243372165114" lon="-6.820962264619443"><ele>34.0</ele><time>2026-04-22T16:45:17.999Z</time></trkpt><trkpt lat="34.02216066414599" lon="-6.8209499285466215"><ele>32.666666666666664</ele><time>2026-04-22T16:45:18.999Z</time></trkpt><trkpt lat="34.02208006260839" lon="-6.820939463156578"><ele>31.333333333333332</ele><time>2026-04-22T16:45:19.999Z</time></trkpt><trkpt lat="34.02199950401729" lon="-6.8209073163048615"><ele>30.0</ele><time>2026-04-22T16:45:20.999Z</time></trkpt><trkpt lat="34.02191419582374" lon="-6.820897938164563"><ele>30.0</ele><time>2026-04-22T16:45:21.999Z</time></trkpt><trkpt lat="34.02182868539796" lon="-6.820888026051944"><ele>30.0</ele><time>2026-04-22T16:45:22.999Z</time></trkpt><trkpt lat="34.02174440535085" lon="-6.820897608091112"><ele>30.0</ele><time>2026-04-22T16:45:23.999Z</time></trkpt><trkpt lat="34.0216622877327" lon="-6.820888626284074"><ele>30.0</ele><time>2026-04-22T16:45:24.999Z</time></trkpt><trkpt lat="34.0215820346306" lon="-6.820859498859456"><ele>30.0</ele><time>2026-04-22T16:45:25.999Z</time></trkpt><trkpt lat="34.02150130666107" lon="-6.820869552864936"><ele>30.0</ele><time>2026-04-22T16:45:26.999Z</time></trkpt><trkpt lat="34.02142177999909" lon="-6.820856566901424"><ele>30.666666666666668</ele><time>2026-04-22T16:45:27.999Z</time></trkpt><trkpt lat="34.021338473780865" lon="-6.820850222673633"><ele>31.333333333333336</ele><time>2026-04-22T16:45:28.999Z</time></trkpt><trkpt lat="34.02125181685822" lon="-6.820840794980532"><ele>32.0</ele><time>2026-04-22T16:45:29.999Z</time></trkpt><trkpt lat="34.02116457692153" lon="-6.820827207542097"><ele>32.66666666666667</ele><time>2026-04-22T16:45:30.999Z</time></trkpt><trkpt lat="34.02107499446633" lon="-6.820812702567751"><ele>33.333333333333336</ele><time>2026-04-22T16:45:31.999Z</time></trkpt><trkpt lat="34.020985104388984" lon="-6.820796782219992"><ele>34.0</ele><time>2026-04-22T16:45:32.999Z</time></trkpt><trkpt lat="34.02089405774719" lon="-6.820778472654934"><ele>34.8</ele><time>2026-04-22T16:45:33.999Z</time></trkpt><trkpt lat="34.02080468573268" lon="-6.820750511734974"><ele>35.599999999999994</ele><time>2026-04-22T16:45:34.999Z</time></trkpt><trkpt lat="34.020712009681475" lon="-6.820711844632465"><ele>36.4</ele><time>2026-04-22T16:45:35.999Z</time></trkpt><trkpt lat="34.02061888586892" lon="-6.820667387031349"><ele>37.199999999999996</ele><time>2026-04-22T16:45:36.999Z</time></trkpt><trkpt lat="34.02053030815653" lon="-6.820602791070027"><ele>38.0</ele><time>2026-04-22T16:45:37.999Z</time></trkpt><trkpt lat="34.02043017029724" lon="-6.820560553294912"><ele>38.0</ele><time>2026-04-22T16:45:38.999Z</time></trkpt><trkpt lat="34.02032775795257" lon="-6.820528878108101"><ele>38.0</ele><time>2026-04-22T16:45:39.999Z</time></trkpt><trkpt lat="34.02022164864825" lon="-6.8205022035332075"><ele>38.0</ele><time>2026-04-22T16:45:40.999Z</time></trkpt><trkpt lat="34.02010877375005" lon="-6.8204981212693525"><ele>38.0</ele><time>2026-04-22T16:45:41.999Z</time></trkpt><trkpt lat="34.02000074982975" lon="-6.820478976918204"><ele>38.0</ele><time>2026-04-22T16:45:42.999Z</time></trkpt><trkpt lat="34.019895972888236" lon="-6.820468618247816"><ele>38.8</ele><time>2026-04-22T16:45:43.999Z</time></trkpt><trkpt lat="34.019786480842555" lon="-6.82046722342289"><ele>39.599999999999994</ele><time>2026-04-22T16:45:44.999Z</time></trkpt><trkpt lat="34.01967498780923" lon="-6.820476792088059"><ele>40.400000000000006</ele><time>2026-04-22T16:45:45.999Z</time></trkpt><trkpt lat="34.01956536363659" lon="-6.820497228677577"><ele>41.2</ele><time>2026-04-22T16:45:46.999Z</time></trkpt><trkpt lat="34.01945796344227" lon="-6.820527923547444"><ele>42.0</ele><time>2026-04-22T16:45:47.999Z</time></trkpt><trkpt lat="34.019353500858614" lon="-6.820570987454621"><ele>42.0</ele><time>2026-04-22T16:45:48.999Z</time></trkpt><trkpt lat="34.01925566070147" lon="-6.820624407443939"><ele>42.0</ele><time>2026-04-22T16:45:49.999Z</time></trkpt><trkpt lat="34.01916781951374" lon="-6.820690068618232"><ele>42.0</ele><time>2026-04-22T16:45:50.999Z</time></trkpt><trkpt lat="34.019080834386365" lon="-6.82076223381377"><ele>42.0</ele><time>2026-04-22T16:45:51.999Z</time></trkpt><trkpt lat="34.01900281029793" lon="-6.820840118572732"><ele>42.0</ele><time>2026-04-22T16:45:52.999Z</time></trkpt><trkpt lat="34.018930471444364" lon="-6.820923679046685"><ele>41.8</ele><time>2026-04-22T16:45:53.999Z</time></trkpt><trkpt lat="34.018860598064684" lon="-6.821010839049694"><ele>41.6</ele><time>2026-04-22T16:45:54.999Z</time></trkpt><trkpt lat="34.01879002436652" lon="-6.821103041130328"><ele>41.4</ele><time>2026-04-22T16:45:55.999Z</time></trkpt><trkpt lat="34.01872217092107" lon="-6.821197838391704"><ele>41.199999999999996</ele><time>2026-04-22T16:45:56.999Z</time></trkpt><trkpt lat="34.018655344382914" lon="-6.821292899409026"><ele>41.0</ele><time>2026-04-22T16:45:57.999Z</time></trkpt><trkpt lat="34.01858726426437" lon="-6.8213879277747935"><ele>41.0</ele><time>2026-04-22T16:45:58.999Z</time></trkpt><trkpt lat="34.01852312545484" lon="-6.821489884182683"><ele>41.0</ele><time>2026-04-22T16:45:59.999Z</time></trkpt><trkpt lat="34.018462591046074" lon="-6.821601143047279"><ele>41.0</ele><time>2026-04-22T16:46:00.999Z</time></trkpt><trkpt lat="34.01840270844967" lon="-6.821718649627924"><ele>41.0</ele><time>2026-04-22T16:46:01.999Z</time></trkpt><trkpt lat="34.018340689075956" lon="-6.821835599911769"><ele>41.0</ele><time>2026-04-22T16:46:02.999Z</time></trkpt><trkpt lat="34.018279215102865" lon="-6.82195371054301"><ele>40.599999999999994</ele><time>2026-04-22T16:46:03.999Z</time></trkpt><trkpt lat="34.01821642496768" lon="-6.822069496218442"><ele>40.199999999999996</ele><time>2026-04-22T16:46:04.999Z</time></trkpt><trkpt lat="34.01815929399532" lon="-6.822181726895047"><ele>39.8</ele><time>2026-04-22T16:46:05.999Z</time></trkpt><trkpt lat="34.01810624941017" lon="-6.822292269871041"><ele>39.4</ele><time>2026-04-22T16:46:06.999Z</time></trkpt><trkpt lat="34.01805327445076" lon="-6.822396273033362"><ele>39.0</ele><time>2026-04-22T16:46:07.999Z</time></trkpt><trkpt lat="34.0180035000029" lon="-6.822498147904133"><ele>39.0</ele><time>2026-04-22T16:46:08.999Z</time></trkpt><trkpt lat="34.01795459349026" lon="-6.822597746309456"><ele>39.0</ele><time>2026-04-22T16:46:09.999Z</time></trkpt><trkpt lat="34.017905321783246" lon="-6.822692821033095"><ele>39.0</ele><time>2026-04-22T16:46:10.999Z</time></trkpt><trkpt lat="34.01785487475913" lon="-6.822785823638602"><ele>39.0</ele><time>2026-04-22T16:46:11.999Z</time></trkpt><trkpt lat="34.01780370788634" lon="-6.822879298005608"><ele>39.0</ele><time>2026-04-22T16:46:12.998Z</time></trkpt><trkpt lat="34.0177515873754" lon="-6.822969478641247"><ele>39.333333333333336</ele><time>2026-04-22T16:46:13.998Z</time></trkpt><trkpt lat="34.01770303391315" lon="-6.823055526700915"><ele>39.666666666666664</ele><time>2026-04-22T16:46:14.998Z</time></trkpt><trkpt lat="34.01765690874641" lon="-6.823142052015374"><ele>40.0</ele><time>2026-04-22T16:46:15.998Z</time></trkpt><trkpt lat="34.01759780523032" lon="-6.823214678193748"><ele>40.33333333333333</ele><time>2026-04-22T16:46:16.999Z</time></trkpt><trkpt lat="34.017549992567105" lon="-6.823289227717242"><ele>40.666666666666664</ele><time>2026-04-22T16:46:17.999Z</time></trkpt><trkpt lat="34.01751068162575" lon="-6.823350389016228"><ele>41.0</ele><time>2026-04-22T16:46:18.999Z</time></trkpt><trkpt lat="34.01745239462119" lon="-6.823440375976976"><ele>41.4</ele><time>2026-04-22T16:46:20.999Z</time></trkpt><trkpt lat="34.017484474268166" lon="-6.823541870547185"><ele>41.8</ele><time>2026-04-22T16:46:21.999Z</time></trkpt><trkpt lat="34.01743714671852" lon="-6.82367511264655"><ele>42.199999999999996</ele><time>2026-04-22T16:46:23.999Z</time></trkpt><trkpt lat="34.01739575404106" lon="-6.8238078789594825"><ele>42.599999999999994</ele><time>2026-04-22T16:46:25.999Z</time></trkpt><trkpt lat="34.01736174626969" lon="-6.823921495492432"><ele>43.0</ele><time>2026-04-22T16:46:27.999Z</time></trkpt><trkpt lat="34.0173250079429" lon="-6.824071985808775"><ele>43.0</ele><time>2026-04-22T16:46:29.999Z</time></trkpt><trkpt lat="34.01731286290711" lon="-6.824160248720238"><ele>43.0</ele><time>2026-04-22T16:46:30.999Z</time></trkpt><trkpt lat="34.01730611881752" lon="-6.824253915009566"><ele>43.0</ele><time>2026-04-22T16:46:31.999Z</time></trkpt><trkpt lat="34.01730425205101" lon="-6.82435508767336"><ele>43.0</ele><time>2026-04-22T16:46:32.999Z</time></trkpt><trkpt lat="34.01730332798937" lon="-6.824462116719152"><ele>43.0</ele><time>2026-04-22T16:46:33.999Z</time></trkpt><trkpt lat="34.01730439697886" lon="-6.824575082944287"><ele>43.0</ele><time>2026-04-22T16:46:34.999Z</time></trkpt><trkpt lat="34.0173100821187" lon="-6.82469778650055"><ele>43.2</ele><time>2026-04-22T16:46:35.999Z</time></trkpt><trkpt lat="34.01731813829738" lon="-6.824828569127822"><ele>43.4</ele><time>2026-04-22T16:46:36.999Z</time></trkpt><trkpt lat="34.017323165729614" lon="-6.824949735748622"><ele>43.6</ele><time>2026-04-22T16:46:37.999Z</time></trkpt><trkpt lat="34.01732651987258" lon="-6.825061463393878"><ele>43.800000000000004</ele><time>2026-04-22T16:46:38.999Z</time></trkpt><trkpt lat="34.01733052106693" lon="-6.825173524181167"><ele>44.0</ele><time>2026-04-22T16:46:39.999Z</time></trkpt><trkpt lat="34.0173344892452" lon="-6.825283311962586"><ele>44.0</ele><time>2026-04-22T16:46:40.999Z</time></trkpt><trkpt lat="34.01733772683286" lon="-6.825388729292372"><ele>44.0</ele><time>2026-04-22T16:46:41.999Z</time></trkpt><trkpt lat="34.0173417831653" lon="-6.825500044692765"><ele>44.0</ele><time>2026-04-22T16:46:42.999Z</time></trkpt><trkpt lat="34.017347670880504" lon="-6.8256133245174535"><ele>44.0</ele><time>2026-04-22T16:46:43.999Z</time></trkpt><trkpt lat="34.01735418128827" lon="-6.825725741256403"><ele>44.0</ele><time>2026-04-22T16:46:44.999Z</time></trkpt><trkpt lat="34.01736130157816" lon="-6.825836861899264"><ele>44.0</ele><time>2026-04-22T16:46:45.999Z</time></trkpt><trkpt lat="34.01736846789147" lon="-6.825946980102385"><ele>44.0</ele><time>2026-04-22T16:46:47Z</time></trkpt><trkpt lat="34.017372596488606" lon="-6.826054682371702"><ele>44.0</ele><time>2026-04-22T16:46:48Z</time></trkpt><trkpt lat="34.017375802000934" lon="-6.826160835257451"><ele>44.0</ele><time>2026-04-22T16:46:49Z</time></trkpt><trkpt lat="34.0173781104588" lon="-6.8262613863855135"><ele>44.0</ele><time>2026-04-22T16:46:50Z</time></trkpt><trkpt lat="34.017380399216975" lon="-6.826355677390995"><ele>44.0</ele><time>2026-04-22T16:46:51Z</time></trkpt><trkpt lat="34.01738238642769" lon="-6.8264451376989825"><ele>44.0</ele><time>2026-04-22T16:46:52Z</time></trkpt><trkpt lat="34.01738569791528" lon="-6.826533909196095"><ele>44.0</ele><time>2026-04-22T16:46:53Z</time></trkpt><trkpt lat="34.017388270652845" lon="-6.826629700899245"><ele>44.0</ele><time>2026-04-22T16:46:54Z</time></trkpt><trkpt lat="34.017390640442734" lon="-6.826727851078242"><ele>44.0</ele><time>2026-04-22T16:46:55Z</time></trkpt><trkpt lat="34.01739166982347" lon="-6.826823436190884"><ele>44.0</ele><time>2026-04-22T16:46:56Z</time></trkpt><trkpt lat="34.017393882725464" lon="-6.826913750964124"><ele>44.0</ele><time>2026-04-22T16:46:57Z</time></trkpt><trkpt lat="34.017397431355334" lon="-6.826991383982727"><ele>43.666666666666664</ele><time>2026-04-22T16:46:58Z</time></trkpt><trkpt lat="34.01740637769607" lon="-6.827112353820042"><ele>43.33333333333333</ele><time>2026-04-22T16:47:00Z</time></trkpt><trkpt lat="34.0174127968469" lon="-6.827207952340887"><ele>43.0</ele><time>2026-04-22T16:47:03Z</time></trkpt><trkpt lat="34.01741146271168" lon="-6.82728747112612"><ele>42.666666666666664</ele><time>2026-04-22T16:47:14Z</time></trkpt><trkpt lat="34.017417733897624" lon="-6.827385993162816"><ele>42.333333333333336</ele><time>2026-04-22T16:47:17Z</time></trkpt><trkpt lat="34.0174241154028" lon="-6.827487288161026"><ele>42.0</ele><time>2026-04-22T16:47:19Z</time></trkpt><trkpt lat="34.0174304985888" lon="-6.827605966598336"><ele>41.8</ele><time>2026-04-22T16:47:21Z</time></trkpt><trkpt lat="34.01744008414475" lon="-6.827728853265866"><ele>41.6</ele><time>2026-04-22T16:47:23Z</time></trkpt><trkpt lat="34.01744509619632" lon="-6.827852332177886"><ele>41.4</ele><time>2026-04-22T16:47:25Z</time></trkpt><trkpt lat="34.017450017899066" lon="-6.827974041008308"><ele>41.199999999999996</ele><time>2026-04-22T16:47:27Z</time></trkpt><trkpt lat="34.01745795330418" lon="-6.828076469229696"><ele>41.0</ele><time>2026-04-22T16:47:29Z</time></trkpt><trkpt lat="34.017454779394264" lon="-6.828179119603459"><ele>41.0</ele><time>2026-04-22T16:47:31Z</time></trkpt><trkpt lat="34.017404926731004" lon="-6.828291071101169"><ele>41.0</ele><time>2026-04-22T16:47:33Z</time></trkpt><trkpt lat="34.01731714261431" lon="-6.828364729117841"><ele>41.0</ele><time>2026-04-22T16:47:35Z</time></trkpt><trkpt lat="34.017220813704775" lon="-6.828434407068981"><ele>41.0</ele><time>2026-04-22T16:47:37Z</time></trkpt><trkpt lat="34.017141686270485" lon="-6.828536256801217"><ele>41.0</ele><time>2026-04-22T16:47:39Z</time></trkpt><trkpt lat="34.017072311590226" lon="-6.828662416452697"><ele>41.285714285714285</ele><time>2026-04-22T16:47:41Z</time></trkpt><trkpt lat="34.017037089534476" lon="-6.828726920576572"><ele>41.57142857142857</ele><time>2026-04-22T16:47:42Z</time></trkpt><trkpt lat="34.01699942636764" lon="-6.828791002769305"><ele>41.85714285714286</ele><time>2026-04-22T16:47:43Z</time></trkpt><trkpt lat="34.016959698250965" lon="-6.828852575397167"><ele>42.14285714285714</ele><time>2026-04-22T16:47:44Z</time></trkpt><trkpt lat="34.01691985934116" lon="-6.8289185934616965"><ele>42.42857142857143</ele><time>2026-04-22T16:47:45Z</time></trkpt><trkpt lat="34.01687818700793" lon="-6.828992533601083"><ele>42.714285714285715</ele><time>2026-04-22T16:47:46Z</time></trkpt><trkpt lat="34.01683705714787" lon="-6.829069498058111"><ele>43.0</ele><time>2026-04-22T16:47:47Z</time></trkpt><trkpt lat="34.0167955475035" lon="-6.829148507073553"><ele>43.0</ele><time>2026-04-22T16:47:48Z</time></trkpt><trkpt lat="34.01675285739147" lon="-6.829228993919135"><ele>43.0</ele><time>2026-04-22T16:47:49Z</time></trkpt><trkpt lat="34.016710405943094" lon="-6.829308243103781"><ele>43.0</ele><time>2026-04-22T16:47:50Z</time></trkpt><trkpt lat="34.016666463632454" lon="-6.829387529448327"><ele>43.0</ele><time>2026-04-22T16:47:51Z</time></trkpt><trkpt lat="34.01662319047075" lon="-6.829468990056398"><ele>43.0</ele><time>2026-04-22T16:47:52Z</time></trkpt><trkpt lat="34.01658339178125" lon="-6.829551680308206"><ele>43.0</ele><time>2026-04-22T16:47:53Z</time></trkpt><trkpt lat="34.01653724441848" lon="-6.829633745414226"><ele>43.16666666666667</ele><time>2026-04-22T16:47:54Z</time></trkpt><trkpt lat="34.01649014336318" lon="-6.8297194602706215"><ele>43.333333333333336</ele><time>2026-04-22T16:47:55Z</time></trkpt><trkpt lat="34.01644205791576" lon="-6.829807061723456"><ele>43.5</ele><time>2026-04-22T16:47:56Z</time></trkpt><trkpt lat="34.01639869003093" lon="-6.82989668018385"><ele>43.666666666666664</ele><time>2026-04-22T16:47:57Z</time></trkpt><trkpt lat="34.01635637175486" lon="-6.8299863314593345"><ele>43.83333333333333</ele><time>2026-04-22T16:47:58Z</time></trkpt><trkpt lat="34.01631479605477" lon="-6.83006861740705"><ele>44.0</ele><time>2026-04-22T16:47:59Z</time></trkpt><trkpt lat="34.01627540848622" lon="-6.830148173610474"><ele>44.0</ele><time>2026-04-22T16:48:00Z</time></trkpt><trkpt lat="34.016236338074265" lon="-6.8302261110001075"><ele>44.0</ele><time>2026-04-22T16:48:01Z</time></trkpt><trkpt lat="34.01620052041915" lon="-6.830301109076421"><ele>44.0</ele><time>2026-04-22T16:48:02Z</time></trkpt><trkpt lat="34.016163845944476" lon="-6.830377127235798"><ele>44.0</ele><time>2026-04-22T16:48:03Z</time></trkpt><trkpt lat="34.01612959725227" lon="-6.8304542134287916"><ele>44.0</ele><time>2026-04-22T16:48:04Z</time></trkpt><trkpt lat="34.01609390189223" lon="-6.8305299356291655"><ele>44.0</ele><time>2026-04-22T16:48:05Z</time></trkpt><trkpt lat="34.01605875791624" lon="-6.8306053816482155"><ele>44.0</ele><time>2026-04-22T16:48:06Z</time></trkpt><trkpt lat="34.016022187547826" lon="-6.830682630759992"><ele>44.0</ele><time>2026-04-22T16:48:07Z</time></trkpt><trkpt lat="34.015983125884176" lon="-6.830758128035425"><ele>44.0</ele><time>2026-04-22T16:48:08Z</time></trkpt><trkpt lat="34.01594505023" lon="-6.8308358936879685"><ele>44.0</ele><time>2026-04-22T16:48:09Z</time></trkpt><trkpt lat="34.01590401293266" lon="-6.830914842645021"><ele>44.0</ele><time>2026-04-22T16:48:10Z</time></trkpt><trkpt lat="34.01586213735179" lon="-6.830992408595555"><ele>44.0</ele><time>2026-04-22T16:48:11Z</time></trkpt><trkpt lat="34.01582099465634" lon="-6.831064286670312"><ele>44.0</ele><time>2026-04-22T16:48:12Z</time></trkpt><trkpt lat="34.01578423172422" lon="-6.8311309343171605"><ele>44.0</ele><time>2026-04-22T16:48:13Z</time></trkpt><trkpt lat="34.01573022497847" lon="-6.831232363187648"><ele>43.800000000000004</ele><time>2026-04-22T16:48:15Z</time></trkpt><trkpt lat="34.01568756360683" lon="-6.831300343289313"><ele>43.6</ele><time>2026-04-22T16:48:17Z</time></trkpt><trkpt lat="34.01562658222545" lon="-6.831386055348484"><ele>43.4</ele><time>2026-04-22T16:48:19.001Z</time></trkpt><trkpt lat="34.01556294648955" lon="-6.83150077389031"><ele>43.2</ele><time>2026-04-22T16:48:21.001Z</time></trkpt><trkpt lat="34.015504647837105" lon="-6.831616872196652"><ele>43.0</ele><time>2026-04-22T16:48:23.001Z</time></trkpt><trkpt lat="34.015439305026305" lon="-6.831741276987033"><ele>43.00000000000001</ele><time>2026-04-22T16:48:25.001Z</time></trkpt><trkpt lat="34.015403775796294" lon="-6.8318058924541765"><ele>43.0</ele><time>2026-04-22T16:48:26.001Z</time></trkpt><trkpt lat="34.01536728310447" lon="-6.831874196062664"><ele>43.0</ele><time>2026-04-22T16:48:27.001Z</time></trkpt><trkpt lat="34.015329460093305" lon="-6.831943991428537"><ele>43.0</ele><time>2026-04-22T16:48:28.001Z</time></trkpt><trkpt lat="34.01529068731436" lon="-6.832014591137323"><ele>43.0</ele><time>2026-04-22T16:48:29.001Z</time></trkpt><trkpt lat="34.01525406568256" lon="-6.83208588731969"><ele>43.00000000000001</ele><time>2026-04-22T16:48:30.001Z</time></trkpt><trkpt lat="34.01522163817844" lon="-6.8321567584016"><ele>43.0</ele><time>2026-04-22T16:48:31.001Z</time></trkpt><trkpt lat="34.01516353328887" lon="-6.832276152214274"><ele>43.0</ele><time>2026-04-22T16:48:33.001Z</time></trkpt><trkpt lat="34.01511160031052" lon="-6.832375012920746"><ele>43.0</ele><time>2026-04-22T16:48:35.001Z</time></trkpt><trkpt lat="34.01506533494456" lon="-6.832455084717292"><ele>43.0</ele><time>2026-04-22T16:48:38.001Z</time></trkpt><trkpt lat="34.01502453078035" lon="-6.83252273188298"><ele>43.0</ele><time>2026-04-22T16:49:39.001Z</time></trkpt><trkpt lat="34.01496425926448" lon="-6.832630815776817"><ele>43.0</ele><time>2026-04-22T16:49:42.001Z</time></trkpt><trkpt lat="34.014906141765465" lon="-6.832744586407017"><ele>42.333333333333336</ele><time>2026-04-22T16:49:44.001Z</time></trkpt><trkpt lat="34.01484175061976" lon="-6.832871989591958"><ele>41.66666666666667</ele><time>2026-04-22T16:49:46.001Z</time></trkpt><trkpt lat="34.01480687234935" lon="-6.832936688660342"><ele>41.0</ele><time>2026-04-22T16:49:47.001Z</time></trkpt><trkpt lat="34.014771704824845" lon="-6.833004824331185"><ele>40.333333333333336</ele><time>2026-04-22T16:49:48.001Z</time></trkpt><trkpt lat="34.01473320799592" lon="-6.8330747721554115"><ele>39.666666666666664</ele><time>2026-04-22T16:49:49.001Z</time></trkpt><trkpt lat="34.014693989139786" lon="-6.833146565937251"><ele>39.0</ele><time>2026-04-22T16:49:50.001Z</time></trkpt><trkpt lat="34.01465102110456" lon="-6.833224154758135"><ele>39.0</ele><time>2026-04-22T16:49:51.001Z</time></trkpt><trkpt lat="34.01460410327029" lon="-6.833307465382003"><ele>39.0</ele><time>2026-04-22T16:49:52.001Z</time></trkpt><trkpt lat="34.01455974979865" lon="-6.833388797061563"><ele>39.0</ele><time>2026-04-22T16:49:53.001Z</time></trkpt><trkpt lat="34.01451413464332" lon="-6.833468816284527"><ele>39.0</ele><time>2026-04-22T16:49:54.001Z</time></trkpt><trkpt lat="34.01446977067398" lon="-6.83354943607459"><ele>39.0</ele><time>2026-04-22T16:49:55.001Z</time></trkpt><trkpt lat="34.014425797778514" lon="-6.833629966669346"><ele>39.0</ele><time>2026-04-22T16:49:56.001Z</time></trkpt><trkpt lat="34.01438193405468" lon="-6.833712358397548"><ele>38.6</ele><time>2026-04-22T16:49:57.001Z</time></trkpt><trkpt lat="34.014336970626935" lon="-6.833800711638298"><ele>38.2</ele><time>2026-04-22T16:49:58.001Z</time></trkpt><trkpt lat="34.01428643445377" lon="-6.8338927647238235"><ele>37.800000000000004</ele><time>2026-04-22T16:49:59.001Z</time></trkpt><trkpt lat="34.01423403940159" lon="-6.833989251449828"><ele>37.4</ele><time>2026-04-22T16:50:00.001Z</time></trkpt><trkpt lat="34.01418295720244" lon="-6.834085970823555"><ele>37.0</ele><time>2026-04-22T16:50:01.001Z</time></trkpt><trkpt lat="34.01413338804587" lon="-6.834176593425045"><ele>37.4</ele><time>2026-04-22T16:50:02.001Z</time></trkpt><trkpt lat="34.014086360176464" lon="-6.834268613306529"><ele>37.800000000000004</ele><time>2026-04-22T16:50:03.001Z</time></trkpt><trkpt lat="34.01404301872373" lon="-6.834360495340689"><ele>38.2</ele><time>2026-04-22T16:50:04.001Z</time></trkpt><trkpt lat="34.01400043603265" lon="-6.834459689256665"><ele>38.6</ele><time>2026-04-22T16:50:05.001Z</time></trkpt><trkpt lat="34.01395768695636" lon="-6.834561989692486"><ele>39.0</ele><time>2026-04-22T16:50:06.001Z</time></trkpt><trkpt lat="34.01391913907022" lon="-6.834666707148499"><ele>39.0</ele><time>2026-04-22T16:50:07.001Z</time></trkpt><trkpt lat="34.013877825261524" lon="-6.834771971781628"><ele>39.0</ele><time>2026-04-22T16:50:08.001Z</time></trkpt><trkpt lat="34.01383858706734" lon="-6.8348735484124035"><ele>39.0</ele><time>2026-04-22T16:50:09.001Z</time></trkpt><trkpt lat="34.013802491253685" lon="-6.834973042052287"><ele>39.0</ele><time>2026-04-22T16:50:10.001Z</time></trkpt><trkpt lat="34.01377012324004" lon="-6.835073248600377"><ele>39.0</ele><time>2026-04-22T16:50:11.001Z</time></trkpt><trkpt lat="34.01374033963102" lon="-6.835175777939837"><ele>40.2</ele><time>2026-04-22T16:50:12.001Z</time></trkpt><trkpt lat="34.01371029203379" lon="-6.835282946057909"><ele>41.4</ele><time>2026-04-22T16:50:13.001Z</time></trkpt><trkpt lat="34.01368065021715" lon="-6.835392938752695"><ele>42.6</ele><time>2026-04-22T16:50:14.001Z</time></trkpt><trkpt lat="34.01365232325207" lon="-6.8355057864771105"><ele>43.8</ele><time>2026-04-22T16:50:15.001Z</time></trkpt><trkpt lat="34.013622793755864" lon="-6.835618301160922"><ele>45.0</ele><time>2026-04-22T16:50:16.001Z</time></trkpt><trkpt lat="34.013594764208115" lon="-6.835727948094398"><ele>45.0</ele><time>2026-04-22T16:50:17.001Z</time></trkpt><trkpt lat="34.013567242080306" lon="-6.835833776638087"><ele>45.0</ele><time>2026-04-22T16:50:18.001Z</time></trkpt><trkpt lat="34.01354111327728" lon="-6.835940181450515"><ele>45.0</ele><time>2026-04-22T16:50:19.001Z</time></trkpt><trkpt lat="34.01351658055389" lon="-6.836046304994166"><ele>45.0</ele><time>2026-04-22T16:50:20.001Z</time></trkpt><trkpt lat="34.01349366231984" lon="-6.83614791488296"><ele>45.0</ele><time>2026-04-22T16:50:21.001Z</time></trkpt><trkpt lat="34.0134724426232" lon="-6.836243461212229"><ele>45.0</ele><time>2026-04-22T16:50:22.001Z</time></trkpt><trkpt lat="34.013450812100274" lon="-6.836339768044518"><ele>44.666666666666664</ele><time>2026-04-22T16:50:23.001Z</time></trkpt><trkpt lat="34.013427846095986" lon="-6.836436473001572"><ele>44.333333333333336</ele><time>2026-04-22T16:50:24.001Z</time></trkpt><trkpt lat="34.01340357889764" lon="-6.836533424765433"><ele>44.0</ele><time>2026-04-22T16:50:25.002Z</time></trkpt><trkpt lat="34.01337989297931" lon="-6.83662816451056"><ele>43.66666666666667</ele><time>2026-04-22T16:50:26.002Z</time></trkpt><trkpt lat="34.01335910108838" lon="-6.8367193304666545"><ele>43.333333333333336</ele><time>2026-04-22T16:50:27.002Z</time></trkpt><trkpt lat="34.01334097212798" lon="-6.836804737419647"><ele>43.0</ele><time>2026-04-22T16:50:28.002Z</time></trkpt><trkpt lat="34.013323204244934" lon="-6.8368925034547186"><ele>42.57142857142858</ele><time>2026-04-22T16:50:29.002Z</time></trkpt><trkpt lat="34.01330942201696" lon="-6.836980244029991"><ele>42.142857142857146</ele><time>2026-04-22T16:50:30.002Z</time></trkpt><trkpt lat="34.01329606115934" lon="-6.837067623955539"><ele>41.714285714285715</ele><time>2026-04-22T16:50:31.002Z</time></trkpt><trkpt lat="34.01328378908438" lon="-6.837149291576534"><ele>41.28571428571429</ele><time>2026-04-22T16:50:32.002Z</time></trkpt><trkpt lat="34.01327008370251" lon="-6.837226442916941"><ele>40.85714285714286</ele><time>2026-04-22T16:50:33.002Z</time></trkpt><trkpt lat="34.01325688994884" lon="-6.837305144378948"><ele>40.42857142857143</ele><time>2026-04-22T16:50:34.002Z</time></trkpt><trkpt lat="34.01324142741775" lon="-6.837384588969691"><ele>40.0</ele><time>2026-04-22T16:50:35.002Z</time></trkpt><trkpt lat="34.01321552328918" lon="-6.837512393909614"><ele>40.0</ele><time>2026-04-22T16:50:37.002Z</time></trkpt><trkpt lat="34.013216383890274" lon="-6.837608569712228"><ele>40.0</ele><time>2026-04-22T16:50:39.002Z</time></trkpt><trkpt lat="34.013163723917955" lon="-6.837690081817945"><ele>40.0</ele><time>2026-04-22T16:50:41.002Z</time></trkpt><trkpt lat="34.01312908290438" lon="-6.8377799797451155"><ele>40.0</ele><time>2026-04-22T16:50:44.002Z</time></trkpt><trkpt lat="34.013107952907745" lon="-6.837875348475141"><ele>40.0</ele><time>2026-04-22T16:50:48.002Z</time></trkpt><trkpt lat="34.013079727614766" lon="-6.8379452793923035"><ele>40.0</ele><time>2026-04-22T16:50:51.001Z</time></trkpt><trkpt lat="34.01302603225763" lon="-6.838007307832631"><ele>39.2</ele><time>2026-04-22T16:51:14.001Z</time></trkpt><trkpt lat="34.01296616494884" lon="-6.838097465027034"><ele>38.4</ele><time>2026-04-22T16:51:16.001Z</time></trkpt><trkpt lat="34.01290520722139" lon="-6.838198265262086"><ele>37.6</ele><time>2026-04-22T16:51:18.001Z</time></trkpt><trkpt lat="34.012858712214936" lon="-6.838282084957909"><ele>36.8</ele><time>2026-04-22T16:51:20.001Z</time></trkpt><trkpt lat="34.012792221588406" lon="-6.838381356965133"><ele>36.0</ele><time>2026-04-22T16:51:22.001Z</time></trkpt><trkpt lat="34.01272432474527" lon="-6.838483755115515"><ele>35.6</ele><time>2026-04-22T16:51:24.001Z</time></trkpt><trkpt lat="34.01264543903669" lon="-6.838593247739343"><ele>35.2</ele><time>2026-04-22T16:51:26.001Z</time></trkpt><trkpt lat="34.01260106202211" lon="-6.838647213665731"><ele>34.8</ele><time>2026-04-22T16:51:27.001Z</time></trkpt><trkpt lat="34.01256165403336" lon="-6.838795453389984"><ele>34.4</ele><time>2026-04-22T16:51:29.001Z</time></trkpt><trkpt lat="34.01242993503736" lon="-6.838819737812602"><ele>34.0</ele><time>2026-04-22T16:51:30.001Z</time></trkpt><trkpt lat="34.012367466305086" lon="-6.838875588005849"><ele>34.57142857142857</ele><time>2026-04-22T16:51:31.001Z</time></trkpt><trkpt lat="34.01230505507392" lon="-6.83892788277039"><ele>35.14285714285714</ele><time>2026-04-22T16:51:32.001Z</time></trkpt><trkpt lat="34.0122494502166" lon="-6.838978462230094"><ele>35.71428571428571</ele><time>2026-04-22T16:51:33.001Z</time></trkpt><trkpt lat="34.01219400908447" lon="-6.839035731200594"><ele>36.285714285714285</ele><time>2026-04-22T16:51:34.001Z</time></trkpt><trkpt lat="34.012141018941826" lon="-6.839098070965376"><ele>36.85714285714286</ele><time>2026-04-22T16:51:35.001Z</time></trkpt><trkpt lat="34.01208833715698" lon="-6.839162882774545"><ele>37.42857142857142</ele><time>2026-04-22T16:51:36.001Z</time></trkpt><trkpt lat="34.01203629001429" lon="-6.839227907747592"><ele>38.0</ele><time>2026-04-22T16:51:37.001Z</time></trkpt><trkpt lat="34.0119875275296" lon="-6.839290221088574"><ele>38.0</ele><time>2026-04-22T16:51:38.001Z</time></trkpt><trkpt lat="34.01193845732766" lon="-6.8393528688760155"><ele>38.0</ele><time>2026-04-22T16:51:39.001Z</time></trkpt><trkpt lat="34.01188713552051" lon="-6.839416560918487"><ele>38.0</ele><time>2026-04-22T16:51:40.001Z</time></trkpt><trkpt lat="34.011840596442816" lon="-6.839477329717345"><ele>38.0</ele><time>2026-04-22T16:51:41.001Z</time></trkpt><trkpt lat="34.011792316400495" lon="-6.839538321495057"><ele>38.0</ele><time>2026-04-22T16:51:42.001Z</time></trkpt><trkpt lat="34.01174320942642" lon="-6.83960242361162"><ele>38.0</ele><time>2026-04-22T16:51:43.001Z</time></trkpt><trkpt lat="34.01169410153386" lon="-6.839666292491738"><ele>38.0</ele><time>2026-04-22T16:51:44.001Z</time></trkpt><trkpt lat="34.01164403340424" lon="-6.839732858773085"><ele>37.83333333333333</ele><time>2026-04-22T16:51:45.001Z</time></trkpt><trkpt lat="34.011591670717785" lon="-6.8398030764589155"><ele>37.666666666666664</ele><time>2026-04-22T16:51:46.001Z</time></trkpt><trkpt lat="34.01153576893307" lon="-6.839877840355317"><ele>37.5</ele><time>2026-04-22T16:51:47.001Z</time></trkpt><trkpt lat="34.011477078596684" lon="-6.839955601262547"><ele>37.333333333333336</ele><time>2026-04-22T16:51:48.001Z</time></trkpt><trkpt lat="34.01141791629468" lon="-6.840036232824521"><ele>37.16666666666667</ele><time>2026-04-22T16:51:49.001Z</time></trkpt><trkpt lat="34.01135920713886" lon="-6.84011541849601"><ele>37.0</ele><time>2026-04-22T16:51:50.001Z</time></trkpt><trkpt lat="34.01129998155271" lon="-6.840193222368455"><ele>36.6</ele><time>2026-04-22T16:51:51.001Z</time></trkpt><trkpt lat="34.01124048069641" lon="-6.840281120443965"><ele>36.2</ele><time>2026-04-22T16:51:52.001Z</time></trkpt><trkpt lat="34.01118264538894" lon="-6.840369329800037"><ele>35.8</ele><time>2026-04-22T16:51:53.001Z</time></trkpt><trkpt lat="34.011121827991374" lon="-6.8404600678817715"><ele>35.4</ele><time>2026-04-22T16:51:54.001Z</time></trkpt><trkpt lat="34.011066400196185" lon="-6.840560775577954"><ele>35.0</ele><time>2026-04-22T16:51:55.001Z</time></trkpt><trkpt lat="34.01100513644717" lon="-6.840656680086339"><ele>35.0</ele><time>2026-04-22T16:51:56.001Z</time></trkpt><trkpt lat="34.01094358333527" lon="-6.840753847832956"><ele>35.0</ele><time>2026-04-22T16:51:57.001Z</time></trkpt><trkpt lat="34.01088730384964" lon="-6.840853367406214"><ele>35.0</ele><time>2026-04-22T16:51:58.001Z</time></trkpt><trkpt lat="34.01082948875107" lon="-6.840954242340032"><ele>35.0</ele><time>2026-04-22T16:51:59.001Z</time></trkpt><trkpt lat="34.010769251086515" lon="-6.8410539512405"><ele>35.0</ele><time>2026-04-22T16:52:00.001Z</time></trkpt><trkpt lat="34.01070755441145" lon="-6.8411530668896425"><ele>34.6</ele><time>2026-04-22T16:52:01.001Z</time></trkpt><trkpt lat="34.01064805431006" lon="-6.84124999822137"><ele>34.2</ele><time>2026-04-22T16:52:02.001Z</time></trkpt><trkpt lat="34.01058819579505" lon="-6.841343947269281"><ele>33.8</ele><time>2026-04-22T16:52:03.001Z</time></trkpt><trkpt lat="34.01053250244221" lon="-6.841434498075801"><ele>33.4</ele><time>2026-04-22T16:52:04.001Z</time></trkpt><trkpt lat="34.01047756747538" lon="-6.841511459070469"><ele>33.0</ele><time>2026-04-22T16:52:05.001Z</time></trkpt><trkpt lat="34.0104264550958" lon="-6.841588393552345"><ele>33.0</ele><time>2026-04-22T16:52:06.001Z</time></trkpt><trkpt lat="34.0103736990738" lon="-6.84167000441207"><ele>33.0</ele><time>2026-04-22T16:52:07.001Z</time></trkpt><trkpt lat="34.01031630376263" lon="-6.841754819283358"><ele>33.0</ele><time>2026-04-22T16:52:08.001Z</time></trkpt><trkpt lat="34.01026072757524" lon="-6.841847466647897"><ele>33.0</ele><time>2026-04-22T16:52:09.001Z</time></trkpt><trkpt lat="34.01020368491218" lon="-6.841938979867971"><ele>33.0</ele><time>2026-04-22T16:52:10.001Z</time></trkpt><trkpt lat="34.01016169426485" lon="-6.842004669443675"><ele>33.0</ele><time>2026-04-22T16:52:11.002Z</time></trkpt><trkpt lat="34.010107581347334" lon="-6.8420748546258"><ele>33.0</ele><time>2026-04-22T16:52:29.002Z</time></trkpt><trkpt lat="34.010058730079365" lon="-6.842147456662831"><ele>33.0</ele><time>2026-04-22T16:52:31.002Z</time></trkpt><trkpt lat="34.00997528911163" lon="-6.842253432360648"><ele>33.0</ele><time>2026-04-22T16:52:33.002Z</time></trkpt><trkpt lat="34.00992063887932" lon="-6.842316592554824"><ele>33.0</ele><time>2026-04-22T16:52:34.002Z</time></trkpt><trkpt lat="34.009868685613625" lon="-6.84237940708142"><ele>33.0</ele><time>2026-04-22T16:52:35.002Z</time></trkpt><trkpt lat="34.00981514365097" lon="-6.842437780262974"><ele>33.0</ele><time>2026-04-22T16:52:36.002Z</time></trkpt><trkpt lat="34.00976023805615" lon="-6.842497882282565"><ele>33.166666666666664</ele><time>2026-04-22T16:52:37.002Z</time></trkpt><trkpt lat="34.00970262486546" lon="-6.842558360433141"><ele>33.333333333333336</ele><time>2026-04-22T16:52:38.002Z</time></trkpt><trkpt lat="34.00964426417203" lon="-6.842617770807684"><ele>33.5</ele><time>2026-04-22T16:52:39.002Z</time></trkpt><trkpt lat="34.00958499313177" lon="-6.8426785280288795"><ele>33.66666666666667</ele><time>2026-04-22T16:52:40.002Z</time></trkpt><trkpt lat="34.009524703935895" lon="-6.8427366258719"><ele>33.833333333333336</ele><time>2026-04-22T16:52:41.002Z</time></trkpt><trkpt lat="34.00946348500642" lon="-6.842795913875351"><ele>34.0</ele><time>2026-04-22T16:52:42.002Z</time></trkpt><trkpt lat="34.0094016183265" lon="-6.842853063650721"><ele>34.5</ele><time>2026-04-22T16:52:43.002Z</time></trkpt><trkpt lat="34.00933750099919" lon="-6.842911485243827"><ele>35.0</ele><time>2026-04-22T16:52:44.002Z</time></trkpt><trkpt lat="34.009269359921284" lon="-6.842967801727256"><ele>35.5</ele><time>2026-04-22T16:52:45.002Z</time></trkpt><trkpt lat="34.00919825212514" lon="-6.84302569633565"><ele>36.0</ele><time>2026-04-22T16:52:46.002Z</time></trkpt><trkpt lat="34.009123792867506" lon="-6.843082340570957"><ele>36.5</ele><time>2026-04-22T16:52:47.002Z</time></trkpt><trkpt lat="34.00904817304771" lon="-6.843142868749567"><ele>37.0</ele><time>2026-04-22T16:52:48.002Z</time></trkpt><trkpt lat="34.00897116863347" lon="-6.843203959974262"><ele>36.800000000000004</ele><time>2026-04-22T16:52:49.002Z</time></trkpt><trkpt lat="34.00889501653325" lon="-6.84326141377865"><ele>36.6</ele><time>2026-04-22T16:52:50.002Z</time></trkpt><trkpt lat="34.00881519341307" lon="-6.843319685021075"><ele>36.400000000000006</ele><time>2026-04-22T16:52:51.002Z</time></trkpt><trkpt lat="34.008730703075564" lon="-6.843374707467411"><ele>36.2</ele><time>2026-04-22T16:52:52.002Z</time></trkpt><trkpt lat="34.00864346506706" lon="-6.843429216905903"><ele>36.0</ele><time>2026-04-22T16:52:53.002Z</time></trkpt><trkpt lat="34.00855641217993" lon="-6.843481106378169"><ele>36.0</ele><time>2026-04-22T16:52:54.002Z</time></trkpt><trkpt lat="34.008468737759216" lon="-6.843533605475523"><ele>36.0</ele><time>2026-04-22T16:52:55.002Z</time></trkpt><trkpt lat="34.00837831231506" lon="-6.843585895987823"><ele>36.0</ele><time>2026-04-22T16:52:56.002Z</time></trkpt><trkpt lat="34.00828624452355" lon="-6.84363733683021"><ele>36.0</ele><time>2026-04-22T16:52:57.002Z</time></trkpt><trkpt lat="34.0081918180748" lon="-6.8436870551588145"><ele>36.0</ele><time>2026-04-22T16:52:58.002Z</time></trkpt><trkpt lat="34.008092230669" lon="-6.843730214012553"><ele>36.8</ele><time>2026-04-22T16:52:59.002Z</time></trkpt><trkpt lat="34.00798969372133" lon="-6.8437711669155705"><ele>37.6</ele><time>2026-04-22T16:53:00.002Z</time></trkpt><trkpt lat="34.00788822242158" lon="-6.843809885827556"><ele>38.4</ele><time>2026-04-22T16:53:01.001Z</time></trkpt><trkpt lat="34.00778919834959" lon="-6.843843841269798"><ele>39.2</ele><time>2026-04-22T16:53:02.001Z</time></trkpt><trkpt lat="34.00769140175066" lon="-6.8438732465451535"><ele>40.0</ele><time>2026-04-22T16:53:03.001Z</time></trkpt><trkpt lat="34.00759423994143" lon="-6.843897922622501"><ele>40.0</ele><time>2026-04-22T16:53:04.001Z</time></trkpt><trkpt lat="34.0074930918451" lon="-6.843915345923547"><ele>40.0</ele><time>2026-04-22T16:53:05.001Z</time></trkpt><trkpt lat="34.00739569229285" lon="-6.8439251171734155"><ele>40.0</ele><time>2026-04-22T16:53:06.001Z</time></trkpt><trkpt lat="34.00730065430902" lon="-6.843939671776484"><ele>40.0</ele><time>2026-04-22T16:53:07.001Z</time></trkpt><trkpt lat="34.007205370381214" lon="-6.843949188395816"><ele>40.0</ele><time>2026-04-22T16:53:08.001Z</time></trkpt><trkpt lat="34.00711224718216" lon="-6.843955365637533"><ele>40.0</ele><time>2026-04-22T16:53:09.001Z</time></trkpt><trkpt lat="34.007013741858934" lon="-6.843957439683771"><ele>40.0</ele><time>2026-04-22T16:53:10.001Z</time></trkpt><trkpt lat="34.00691187252943" lon="-6.843954682084539"><ele>40.0</ele><time>2026-04-22T16:53:11.001Z</time></trkpt><trkpt lat="34.00680855440554" lon="-6.84394697461631"><ele>40.0</ele><time>2026-04-22T16:53:12.001Z</time></trkpt><trkpt lat="34.00670359588569" lon="-6.843935903799433"><ele>40.0</ele><time>2026-04-22T16:53:13.001Z</time></trkpt><trkpt lat="34.00659806694822" lon="-6.843922180583568"><ele>40.4</ele><time>2026-04-22T16:53:14.001Z</time></trkpt><trkpt lat="34.00649427825045" lon="-6.843903185003288"><ele>40.8</ele><time>2026-04-22T16:53:15.001Z</time></trkpt><trkpt lat="34.00639143921509" lon="-6.843879707844323"><ele>41.2</ele><time>2026-04-22T16:53:16.001Z</time></trkpt><trkpt lat="34.00628472901156" lon="-6.843854766921837"><ele>41.6</ele><time>2026-04-22T16:53:17.001Z</time></trkpt><trkpt lat="34.00617636650007" lon="-6.843825939426834"><ele>42.0</ele><time>2026-04-22T16:53:18.001Z</time></trkpt><trkpt lat="34.00606605908721" lon="-6.843795088178494"><ele>42.0</ele><time>2026-04-22T16:53:19.001Z</time></trkpt><trkpt lat="34.005957666054115" lon="-6.843758386468177"><ele>42.0</ele><time>2026-04-22T16:53:20.001Z</time></trkpt><trkpt lat="34.0058528630757" lon="-6.843722700058963"><ele>42.0</ele><time>2026-04-22T16:53:21.001Z</time></trkpt><trkpt lat="34.00575228818309" lon="-6.8436872314756245"><ele>42.0</ele><time>2026-04-22T16:53:22.001Z</time></trkpt><trkpt lat="34.00565773301942" lon="-6.84365426151776"><ele>42.0</ele><time>2026-04-22T16:53:23.001Z</time></trkpt><trkpt lat="34.00556318716273" lon="-6.843624992130908"><ele>41.833333333333336</ele><time>2026-04-22T16:53:24.001Z</time></trkpt><trkpt lat="34.005472845977906" lon="-6.8435965017205405"><ele>41.666666666666664</ele><time>2026-04-22T16:53:25.001Z</time></trkpt><trkpt lat="34.00538778806206" lon="-6.843564190018151"><ele>41.5</ele><time>2026-04-22T16:53:26.001Z</time></trkpt><trkpt lat="34.00530018387973" lon="-6.843529733549854"><ele>41.33333333333333</ele><time>2026-04-22T16:53:27.001Z</time></trkpt><trkpt lat="34.00521503274241" lon="-6.843499221731291"><ele>41.166666666666664</ele><time>2026-04-22T16:53:28.001Z</time></trkpt><trkpt lat="34.005136236361245" lon="-6.843471953089782"><ele>41.0</ele><time>2026-04-22T16:53:29.001Z</time></trkpt><trkpt lat="34.00506478455717" lon="-6.843446398339918"><ele>41.42857142857142</ele><time>2026-04-22T16:53:30.001Z</time></trkpt><trkpt lat="34.004997621768304" lon="-6.843423495517185"><ele>41.857142857142854</ele><time>2026-04-22T16:53:31.001Z</time></trkpt><trkpt lat="34.004935309213266" lon="-6.843401267206935"><ele>42.285714285714285</ele><time>2026-04-22T16:53:32.001Z</time></trkpt><trkpt lat="34.0048482275089" lon="-6.843368994681856"><ele>42.71428571428571</ele><time>2026-04-22T16:53:34.001Z</time></trkpt><trkpt lat="34.00478778339407" lon="-6.843345305550822"><ele>43.14285714285714</ele><time>2026-04-22T16:53:37.001Z</time></trkpt><trkpt lat="34.00471821680881" lon="-6.843324641557702"><ele>43.57142857142857</ele><time>2026-04-22T16:53:41.001Z</time></trkpt><trkpt lat="34.004655452797735" lon="-6.843292449069076"><ele>44.0</ele><time>2026-04-22T16:53:43.001Z</time></trkpt><trkpt lat="34.00458254053498" lon="-6.843258142874734"><ele>44.166666666666664</ele><time>2026-04-22T16:53:45.001Z</time></trkpt><trkpt lat="34.004501305978046" lon="-6.843228792838687"><ele>44.33333333333333</ele><time>2026-04-22T16:53:47.001Z</time></trkpt><trkpt lat="34.00443059277996" lon="-6.843202879038511"><ele>44.5</ele><time>2026-04-22T16:53:49.001Z</time></trkpt><trkpt lat="34.004348572710065" lon="-6.84317842482853"><ele>44.666666666666664</ele><time>2026-04-22T16:53:51.001Z</time></trkpt><trkpt lat="34.00426078490155" lon="-6.843151589060066"><ele>44.833333333333336</ele><time>2026-04-22T16:53:53.001Z</time></trkpt><trkpt lat="34.00414647782006" lon="-6.843156729486166"><ele>45.0</ele><time>2026-04-22T16:53:55.001Z</time></trkpt><trkpt lat="34.004022456318324" lon="-6.843144817071344"><ele>45.0</ele><time>2026-04-22T16:53:57.001Z</time></trkpt><trkpt lat="34.00396061988548" lon="-6.843127144409299"><ele>45.0</ele><time>2026-04-22T16:53:58.001Z</time></trkpt><trkpt lat="34.003899145220366" lon="-6.843099452060563"><ele>45.0</ele><time>2026-04-22T16:53:59.001Z</time></trkpt><trkpt lat="34.00383882677725" lon="-6.843071989356791"><ele>45.0</ele><time>2026-04-22T16:54:00.001Z</time></trkpt><trkpt lat="34.003723835518734" lon="-6.843031490544443"><ele>45.0</ele><time>2026-04-22T16:54:02.001Z</time></trkpt><trkpt lat="34.00361595384905" lon="-6.843013848644384"><ele>45.0</ele><time>2026-04-22T16:54:04.001Z</time></trkpt><trkpt lat="34.00352387414484" lon="-6.843017350390365"><ele>45.0</ele><time>2026-04-22T16:54:06.001Z</time></trkpt><trkpt lat="34.003450036872806" lon="-6.843031941020684"><ele>45.0</ele><time>2026-04-22T16:54:08.001Z</time></trkpt><trkpt lat="34.00338526627667" lon="-6.843052322784031"><ele>45.0</ele><time>2026-04-22T16:54:11.001Z</time></trkpt><trkpt lat="34.00331109473082" lon="-6.843100091697114"><ele>45.0</ele><time>2026-04-22T16:54:45.002Z</time></trkpt><trkpt lat="34.00323724921036" lon="-6.843120997971885"><ele>45.0</ele><time>2026-04-22T16:54:47.002Z</time></trkpt><trkpt lat="34.003154199859075" lon="-6.843141201153062"><ele>45.0</ele><time>2026-04-22T16:54:49.002Z</time></trkpt><trkpt lat="34.00305908478813" lon="-6.843171199685352"><ele>45.333333333333336</ele><time>2026-04-22T16:54:51.002Z</time></trkpt><trkpt lat="34.00295125143605" lon="-6.843205769002658"><ele>45.666666666666664</ele><time>2026-04-22T16:54:53.002Z</time></trkpt><trkpt lat="34.00288829685171" lon="-6.843218894696496"><ele>46.0</ele><time>2026-04-22T16:54:54.002Z</time></trkpt><trkpt lat="34.00282174893016" lon="-6.8432341452166785"><ele>46.33333333333333</ele><time>2026-04-22T16:54:55.002Z</time></trkpt><trkpt lat="34.00274826101781" lon="-6.843251363041878"><ele>46.666666666666664</ele><time>2026-04-22T16:54:56.002Z</time></trkpt><trkpt lat="34.002671787932066" lon="-6.8432717502067195"><ele>47.0</ele><time>2026-04-22T16:54:57.002Z</time></trkpt><trkpt lat="34.00259327717789" lon="-6.843293354250183"><ele>47.0</ele><time>2026-04-22T16:54:58.001Z</time></trkpt><trkpt lat="34.00250953772516" lon="-6.843316980601617"><ele>47.0</ele><time>2026-04-22T16:54:59.001Z</time></trkpt><trkpt lat="34.00242003404453" lon="-6.843338919804436"><ele>47.0</ele><time>2026-04-22T16:55:00.001Z</time></trkpt><trkpt lat="34.00232560211434" lon="-6.84336015125618"><ele>47.0</ele><time>2026-04-22T16:55:01.001Z</time></trkpt><trkpt lat="34.002229497355806" lon="-6.843384599553343"><ele>47.0</ele><time>2026-04-22T16:55:02.001Z</time></trkpt><trkpt lat="34.00213401035565" lon="-6.843408420639658"><ele>47.0</ele><time>2026-04-22T16:55:03.001Z</time></trkpt><trkpt lat="34.002044064685286" lon="-6.843434110851323"><ele>47.0</ele><time>2026-04-22T16:55:04.001Z</time></trkpt><trkpt lat="34.00196075729056" lon="-6.843457861682544"><ele>47.0</ele><time>2026-04-22T16:55:05.001Z</time></trkpt><trkpt lat="34.00188236329614" lon="-6.843479990024815"><ele>47.0</ele><time>2026-04-22T16:55:06.001Z</time></trkpt><trkpt lat="34.001800098901654" lon="-6.843500974967419"><ele>47.0</ele><time>2026-04-22T16:55:07.001Z</time></trkpt><trkpt lat="34.00171430197782" lon="-6.843523473064582"><ele>47.0</ele><time>2026-04-22T16:55:08.001Z</time></trkpt><trkpt lat="34.001624646468535" lon="-6.843546360433163"><ele>47.0</ele><time>2026-04-22T16:55:09.001Z</time></trkpt><trkpt lat="34.00153448203536" lon="-6.843570268964055"><ele>47.0</ele><time>2026-04-22T16:55:10.001Z</time></trkpt><trkpt lat="34.00144735865976" lon="-6.84359386907703"><ele>47.0</ele><time>2026-04-22T16:55:11.001Z</time></trkpt><trkpt lat="34.00136412968581" lon="-6.843614602945483"><ele>47.0</ele><time>2026-04-22T16:55:12.001Z</time></trkpt><trkpt lat="34.00128180849128" lon="-6.843635241667985"><ele>47.0</ele><time>2026-04-22T16:55:13.001Z</time></trkpt><trkpt lat="34.0012011541358" lon="-6.84365639937667"><ele>47.0</ele><time>2026-04-22T16:55:14.001Z</time></trkpt><trkpt lat="34.001121779523494" lon="-6.8436753097248095"><ele>47.0</ele><time>2026-04-22T16:55:15.001Z</time></trkpt><trkpt lat="34.00104546308701" lon="-6.843693847343853"><ele>47.0</ele><time>2026-04-22T16:55:16.001Z</time></trkpt><trkpt lat="34.000969490847424" lon="-6.843711130091695"><ele>47.0</ele><time>2026-04-22T16:55:17.001Z</time></trkpt><trkpt lat="34.00089805080559" lon="-6.843730709304735"><ele>47.0</ele><time>2026-04-22T16:55:18.001Z</time></trkpt><trkpt lat="34.00082879145957" lon="-6.843749118671084"><ele>47.0</ele><time>2026-04-22T16:55:19.001Z</time></trkpt><trkpt lat="34.00076290895468" lon="-6.843767867026149"><ele>47.0</ele><time>2026-04-22T16:55:20.001Z</time></trkpt><trkpt lat="34.00065086329863" lon="-6.843801046978541"><ele>47.0</ele><time>2026-04-22T16:55:22.001Z</time></trkpt><trkpt lat="34.000559103079105" lon="-6.843826196409557"><ele>47.0</ele><time>2026-04-22T16:55:24.001Z</time></trkpt><trkpt lat="34.00048199445684" lon="-6.843850158968528"><ele>47.0</ele><time>2026-04-22T16:55:26.001Z</time></trkpt><trkpt lat="34.00041448448546" lon="-6.8438732663735"><ele>47.0</ele><time>2026-04-22T16:55:29.001Z</time></trkpt><trkpt lat="34.00035008104649" lon="-6.843901359552294"><ele>47.0</ele><time>2026-04-22T16:55:44.001Z</time></trkpt><trkpt lat="34.00026992420432" lon="-6.843927616017363"><ele>47.0</ele><time>2026-04-22T16:55:46.001Z</time></trkpt><trkpt lat="34.00016763404516" lon="-6.8439573950007"><ele>47.0</ele><time>2026-04-22T16:55:48.001Z</time></trkpt><trkpt lat="34.000057030356906" lon="-6.843991485852241"><ele>47.0</ele><time>2026-04-22T16:55:50.001Z</time></trkpt><trkpt lat="33.99993607314975" lon="-6.844029878944392"><ele>47.0</ele><time>2026-04-22T16:55:52.001Z</time></trkpt><trkpt lat="33.999872747188675" lon="-6.8440440886671565"><ele>47.0</ele><time>2026-04-22T16:55:53.001Z</time></trkpt><trkpt lat="33.99981023036823" lon="-6.844061408307268"><ele>47.0</ele><time>2026-04-22T16:55:54.001Z</time></trkpt><trkpt lat="33.99969575793094" lon="-6.8440965292923375"><ele>47.0</ele><time>2026-04-22T16:55:56.001Z</time></trkpt><trkpt lat="33.99959019592621" lon="-6.844131890080946"><ele>47.0</ele><time>2026-04-22T16:55:58.001Z</time></trkpt><trkpt lat="33.99947651973491" lon="-6.844183078116605"><ele>47.0</ele><time>2026-04-22T16:56:00.001Z</time></trkpt><trkpt lat="33.99936196544261" lon="-6.844192140879475"><ele>47.0</ele><time>2026-04-22T16:56:02.001Z</time></trkpt><trkpt lat="33.99931948226476" lon="-6.844263374707928"><ele>47.0</ele><time>2026-04-22T16:56:03.001Z</time></trkpt><trkpt lat="33.999232901297745" lon="-6.84430753335155"><ele>47.6</ele><time>2026-04-22T16:56:05.001Z</time></trkpt><trkpt lat="33.99914746156369" lon="-6.844343247698479"><ele>48.2</ele><time>2026-04-22T16:56:07.001Z</time></trkpt><trkpt lat="33.99906084909829" lon="-6.844373181903214"><ele>48.8</ele><time>2026-04-22T16:56:09.001Z</time></trkpt><trkpt lat="33.998965354163566" lon="-6.844387445877407"><ele>49.4</ele><time>2026-04-22T16:56:11.001Z</time></trkpt><trkpt lat="33.998869689764035" lon="-6.844372946946923"><ele>50.0</ele><time>2026-04-22T16:56:13.001Z</time></trkpt><trkpt lat="33.99877499341555" lon="-6.844331742864934"><ele>50.00000000000001</ele><time>2026-04-22T16:56:15.001Z</time></trkpt><trkpt lat="33.998668686168244" lon="-6.844306869021253"><ele>50.0</ele><time>2026-04-22T16:56:17.001Z</time></trkpt><trkpt lat="33.99854892910689" lon="-6.844328413320532"><ele>50.0</ele><time>2026-04-22T16:56:19.001Z</time></trkpt><trkpt lat="33.99848462769256" lon="-6.844346102699347"><ele>50.0</ele><time>2026-04-22T16:56:20.001Z</time></trkpt><trkpt lat="33.99841584289182" lon="-6.84436259802669"><ele>50.00000000000001</ele><time>2026-04-22T16:56:21.001Z</time></trkpt><trkpt lat="33.99834634471113" lon="-6.844380386372682"><ele>50.0</ele><time>2026-04-22T16:56:22.001Z</time></trkpt><trkpt lat="33.99827735646633" lon="-6.844399276319926"><ele>50.00000000000001</ele><time>2026-04-22T16:56:23.001Z</time></trkpt><trkpt lat="33.99821254852305" lon="-6.844416039139142"><ele>50.0</ele><time>2026-04-22T16:56:24.001Z</time></trkpt><trkpt lat="33.998148431219995" lon="-6.844426539265195"><ele>50.0</ele><time>2026-04-22T16:56:25.001Z</time></trkpt><trkpt lat="33.99808384441149" lon="-6.844439631925063"><ele>50.0</ele><time>2026-04-22T16:56:26.001Z</time></trkpt><trkpt lat="33.998015738675036" lon="-6.844456077809074"><ele>50.00000000000001</ele><time>2026-04-22T16:56:27.001Z</time></trkpt><trkpt lat="33.99794834780304" lon="-6.844467878090912"><ele>50.0</ele><time>2026-04-22T16:56:28.001Z</time></trkpt><trkpt lat="33.99783395422448" lon="-6.844503954685705"><ele>50.00000000000001</ele><time>2026-04-22T16:56:30.001Z</time></trkpt><trkpt lat="33.99771983506932" lon="-6.844545475991499"><ele>50.0</ele><time>2026-04-22T16:56:32.001Z</time></trkpt><trkpt lat="33.99761880486372" lon="-6.844579972168215"><ele>50.0</ele><time>2026-04-22T16:56:34.001Z</time></trkpt><trkpt lat="33.997550251365965" lon="-6.844609563163022"><ele>50.0</ele><time>2026-04-22T16:56:36.001Z</time></trkpt><trkpt lat="33.99748441565816" lon="-6.844596473467424"><ele>50.00000000000001</ele><time>2026-04-22T16:56:39.001Z</time></trkpt><trkpt lat="33.997413517292415" lon="-6.844615401297929"><ele>50.0</ele><time>2026-04-22T16:57:28.001Z</time></trkpt><trkpt lat="33.99734016004556" lon="-6.844635103579988"><ele>49.8</ele><time>2026-04-22T16:57:30.001Z</time></trkpt><trkpt lat="33.99733389117103" lon="-6.844766391414703"><ele>49.6</ele><time>2026-04-22T16:57:31.001Z</time></trkpt><trkpt lat="33.99729063820396" lon="-6.8448613282846855"><ele>49.400000000000006</ele><time>2026-04-22T16:57:33.001Z</time></trkpt><trkpt lat="33.99725225274085" lon="-6.8449681289168485"><ele>49.2</ele><time>2026-04-22T16:57:35.001Z</time></trkpt><trkpt lat="33.99721480787277" lon="-6.8450886077836826"><ele>49.0</ele><time>2026-04-22T16:57:37.001Z</time></trkpt><trkpt lat="33.99716864253724" lon="-6.845218312064761"><ele>49.49999999999999</ele><time>2026-04-22T16:57:39.001Z</time></trkpt><trkpt lat="33.9971306811168" lon="-6.845325791850889"><ele>50.0</ele><time>2026-04-22T16:57:41.001Z</time></trkpt><trkpt lat="33.997101653535914" lon="-6.845411775784936"><ele>50.5</ele><time>2026-04-22T16:57:43.001Z</time></trkpt><trkpt lat="33.99707241542757" lon="-6.845491954052235"><ele>51.0</ele><time>2026-04-22T16:57:45.001Z</time></trkpt><trkpt lat="33.997036427268085" lon="-6.845585378813673"><ele>51.49999999999999</ele><time>2026-04-22T16:57:47.001Z</time></trkpt><trkpt lat="33.99701207201706" lon="-6.845661499184868"><ele>52.0</ele><time>2026-04-22T16:57:49.001Z</time></trkpt><trkpt lat="33.99698528041761" lon="-6.845733260141018"><ele>52.0</ele><time>2026-04-22T16:57:53.001Z</time></trkpt><trkpt lat="33.996792312227356" lon="-6.845701022581265"><ele>52.0</ele><time>2026-04-22T17:04:25.774Z</time></trkpt><trkpt lat="33.996997834589294" lon="-6.845649712089747"><ele>52.0</ele><time>2026-04-22T17:08:43.347Z</time></trkpt><trkpt lat="33.996931298221774" lon="-6.845827515542411"><ele>52.0</ele><time>2026-04-22T17:09:22.526Z</time></trkpt><trkpt lat="33.9968303892543" lon="-6.845962069907619"><ele>52.0</ele><time>2026-04-22T17:10:07.205Z</time></trkpt><trkpt lat="33.99693862162605" lon="-6.845816231356962"><ele>52.0</ele><time>2026-04-22T17:10:20.66Z</time></trkpt><trkpt lat="33.996987814466294" lon="-6.8456916763461555"><ele>52.0</ele><time>2026-04-22T17:10:27.108Z</time></trkpt><trkpt lat="33.99694588360155" lon="-6.845778601189007"><ele>51.99999999999999</ele><time>2026-04-22T17:10:33.572Z</time></trkpt><trkpt lat="33.99693351325264" lon="-6.845893270786757"><ele>52.0</ele><time>2026-04-22T17:10:39.602Z</time></trkpt><trkpt lat="33.99692101871144" lon="-6.845802195868921"><ele>52.0</ele><time>2026-04-22T17:11:42.433Z</time></trkpt><trkpt lat="33.99697798384592" lon="-6.845716673649417"><ele>52.0</ele><time>2026-04-22T17:21:47.656Z</time></trkpt><trkpt lat="33.99700875586211" lon="-6.845646088064332"><ele>51.99999999999999</ele><time>2026-04-22T17:21:53.664Z</time></trkpt><trkpt lat="33.99692931445418" lon="-6.8457107020436965"><ele>52.0</ele><time>2026-04-22T17:22:39.99Z</time></trkpt><trkpt lat="33.99684338989036" lon="-6.845768681010819"><ele>52.0</ele><time>2026-04-22T17:22:43.013Z</time></trkpt><trkpt lat="33.99720730499955" lon="-6.845724219600462"><ele>52.0</ele><time>2026-04-22T17:22:52.999Z</time></trkpt><trkpt lat="33.997278124183815" lon="-6.845770774467219"><ele>52.0</ele><time>2026-04-22T17:22:57.999Z</time></trkpt><trkpt lat="33.99717490055092" lon="-6.845775122818521"><ele>52.0</ele><time>2026-04-22T17:23:03.021Z</time></trkpt><trkpt lat="33.99703824101992" lon="-6.845796438036392"><ele>52.0</ele><time>2026-04-22T17:23:14.018Z</time></trkpt><trkpt lat="33.996991388285686" lon="-6.845675389441616"><ele>52.0</ele><time>2026-04-22T17:23:36.999Z</time></trkpt><trkpt lat="33.99693062525726" lon="-6.845735281561754"><ele>52.0</ele><time>2026-04-22T17:23:39.999Z</time></trkpt><trkpt lat="33.99687710764241" lon="-6.845806445588979"><ele>52.0</ele><time>2026-04-22T17:24:27.999Z</time></trkpt><trkpt lat="33.996803003475264" lon="-6.845767149685185"><ele>52.0</ele><time>2026-04-22T17:24:32.999Z</time></trkpt><trkpt lat="33.996737319564616" lon="-6.845762072563997"><ele>52.0</ele><time>2026-04-22T17:24:34.999Z</time></trkpt><trkpt lat="33.99666165219506" lon="-6.845748970749417"><ele>54.0</ele><time>2026-04-22T17:24:36.999Z</time></trkpt><trkpt lat="33.99657427120528" lon="-6.845753251847244"><ele>54.0</ele><time>2026-04-22T17:24:38.999Z</time></trkpt></trkseg></trk></gpx>